<?xml version="1.0" encoding="UTF-8" standalone="no" ?>
<gpx xmlns="http://www.topografix.com/GPX/1/1" xmlns:xsi="http://www.w3.org/2001/XMLSchema-instance" xsi:schemaLocation="http://www.topografix.com/GPX/1/1 http://www.topografix.com/GPX/1/1/gpx.xsd" version="1.1" creator="VisuGPX - https://www.visugpx.com">
  <metadata>
    <name>rando du lundi 5/08</name>
    <desc><![CDATA[rando du lundi 5/08]]></desc>
  </metadata>
  <trk>
    <name><![CDATA[1 Place du Châtelet]]></name>
    <desc><![CDATA[]]></desc>
    <trkseg>
      <trkpt lat="48.85745" lon="2.34681">
        <ele>96.7</ele>
        <time>2013-08-05T18:21:58.000Z</time>
      </trkpt>
      <trkpt lat="48.85742" lon="2.34684">
        <ele>94.4</ele>
        <time>2013-08-05T18:22:11.000Z</time>
      </trkpt>
      <trkpt lat="48.85738" lon="2.34686">
        <ele>93</ele>
        <time>2013-08-05T18:22:12.000Z</time>
      </trkpt>
      <trkpt lat="48.85735" lon="2.34688">
        <ele>92.3</ele>
        <time>2013-08-05T18:22:13.000Z</time>
      </trkpt>
      <trkpt lat="48.85731" lon="2.34693">
        <ele>92.9</ele>
        <time>2013-08-05T18:22:14.000Z</time>
      </trkpt>
      <trkpt lat="48.85728" lon="2.34697">
        <ele>93.1</ele>
        <time>2013-08-05T18:22:15.000Z</time>
      </trkpt>
      <trkpt lat="48.85726" lon="2.34701">
        <ele>93.5</ele>
        <time>2013-08-05T18:22:16.000Z</time>
      </trkpt>
      <trkpt lat="48.85723" lon="2.34705">
        <ele>92.7</ele>
        <time>2013-08-05T18:22:17.000Z</time>
      </trkpt>
      <trkpt lat="48.8572" lon="2.34705">
        <ele>92.4</ele>
        <time>2013-08-05T18:22:18.000Z</time>
      </trkpt>
      <trkpt lat="48.85716" lon="2.34705">
        <ele>91.6</ele>
        <time>2013-08-05T18:22:19.000Z</time>
      </trkpt>
      <trkpt lat="48.85712" lon="2.34703">
        <ele>91</ele>
        <time>2013-08-05T18:22:20.000Z</time>
      </trkpt>
      <trkpt lat="48.85708" lon="2.34702">
        <ele>91.5</ele>
        <time>2013-08-05T18:22:21.000Z</time>
      </trkpt>
      <trkpt lat="48.85704" lon="2.34701">
        <ele>91.2</ele>
        <time>2013-08-05T18:22:22.000Z</time>
      </trkpt>
      <trkpt lat="48.85701" lon="2.34699">
        <ele>90.2</ele>
        <time>2013-08-05T18:22:23.000Z</time>
      </trkpt>
      <trkpt lat="48.85697" lon="2.34697">
        <ele>90.1</ele>
        <time>2013-08-05T18:22:24.000Z</time>
      </trkpt>
      <trkpt lat="48.85693" lon="2.34695">
        <ele>90.2</ele>
        <time>2013-08-05T18:22:25.000Z</time>
      </trkpt>
      <trkpt lat="48.8569" lon="2.34693">
        <ele>89.1</ele>
        <time>2013-08-05T18:22:26.000Z</time>
      </trkpt>
      <trkpt lat="48.85686" lon="2.34692">
        <ele>89</ele>
        <time>2013-08-05T18:22:27.000Z</time>
      </trkpt>
      <trkpt lat="48.85682" lon="2.34691">
        <ele>89.4</ele>
        <time>2013-08-05T18:22:28.000Z</time>
      </trkpt>
      <trkpt lat="48.85679" lon="2.3469">
        <ele>89.7</ele>
        <time>2013-08-05T18:22:29.000Z</time>
      </trkpt>
      <trkpt lat="48.85675" lon="2.3469">
        <ele>89.8</ele>
        <time>2013-08-05T18:22:30.000Z</time>
      </trkpt>
      <trkpt lat="48.85672" lon="2.34691">
        <ele>89.6</ele>
        <time>2013-08-05T18:22:31.000Z</time>
      </trkpt>
      <trkpt lat="48.8567" lon="2.34693">
        <ele>90.1</ele>
        <time>2013-08-05T18:22:32.000Z</time>
      </trkpt>
      <trkpt lat="48.85667" lon="2.34695">
        <ele>89.8</ele>
        <time>2013-08-05T18:22:33.000Z</time>
      </trkpt>
      <trkpt lat="48.85664" lon="2.34697">
        <ele>89.4</ele>
        <time>2013-08-05T18:22:34.000Z</time>
      </trkpt>
      <trkpt lat="48.85661" lon="2.34699">
        <ele>89.3</ele>
        <time>2013-08-05T18:22:35.000Z</time>
      </trkpt>
      <trkpt lat="48.85658" lon="2.34697">
        <ele>87.5</ele>
        <time>2013-08-05T18:22:36.000Z</time>
      </trkpt>
      <trkpt lat="48.85655" lon="2.34695">
        <ele>87.1</ele>
        <time>2013-08-05T18:22:37.000Z</time>
      </trkpt>
      <trkpt lat="48.85651" lon="2.34691">
        <ele>86.7</ele>
        <time>2013-08-05T18:22:38.000Z</time>
      </trkpt>
      <trkpt lat="48.85647" lon="2.34688">
        <ele>86.9</ele>
        <time>2013-08-05T18:22:39.000Z</time>
      </trkpt>
      <trkpt lat="48.85643" lon="2.34686">
        <ele>86.9</ele>
        <time>2013-08-05T18:22:40.000Z</time>
      </trkpt>
      <trkpt lat="48.85639" lon="2.34684">
        <ele>86.8</ele>
        <time>2013-08-05T18:22:41.000Z</time>
      </trkpt>
      <trkpt lat="48.85636" lon="2.34681">
        <ele>86.5</ele>
        <time>2013-08-05T18:22:42.000Z</time>
      </trkpt>
      <trkpt lat="48.85632" lon="2.34679">
        <ele>86.9</ele>
        <time>2013-08-05T18:22:43.000Z</time>
      </trkpt>
      <trkpt lat="48.8563" lon="2.34677">
        <ele>86.1</ele>
        <time>2013-08-05T18:22:44.000Z</time>
      </trkpt>
      <trkpt lat="48.85627" lon="2.34675">
        <ele>86</ele>
        <time>2013-08-05T18:22:45.000Z</time>
      </trkpt>
      <trkpt lat="48.85625" lon="2.34673">
        <ele>84.9</ele>
        <time>2013-08-05T18:22:46.000Z</time>
      </trkpt>
      <trkpt lat="48.85622" lon="2.34671">
        <ele>84.9</ele>
        <time>2013-08-05T18:22:48.000Z</time>
      </trkpt>
      <trkpt lat="48.8562" lon="2.34671">
        <ele>84.6</ele>
        <time>2013-08-05T18:22:49.000Z</time>
      </trkpt>
      <trkpt lat="48.85617" lon="2.34676">
        <ele>85.1</ele>
        <time>2013-08-05T18:22:51.000Z</time>
      </trkpt>
      <trkpt lat="48.85616" lon="2.34679">
        <ele>85.3</ele>
        <time>2013-08-05T18:22:52.000Z</time>
      </trkpt>
      <trkpt lat="48.85614" lon="2.34683">
        <ele>85.4</ele>
        <time>2013-08-05T18:22:53.000Z</time>
      </trkpt>
      <trkpt lat="48.85612" lon="2.34687">
        <ele>85.7</ele>
        <time>2013-08-05T18:22:54.000Z</time>
      </trkpt>
      <trkpt lat="48.8561" lon="2.34691">
        <ele>85.6</ele>
        <time>2013-08-05T18:22:55.000Z</time>
      </trkpt>
      <trkpt lat="48.85608" lon="2.34696">
        <ele>85.2</ele>
        <time>2013-08-05T18:22:56.000Z</time>
      </trkpt>
      <trkpt lat="48.85606" lon="2.34702">
        <ele>84.1</ele>
        <time>2013-08-05T18:22:57.000Z</time>
      </trkpt>
      <trkpt lat="48.85604" lon="2.34708">
        <ele>85.2</ele>
        <time>2013-08-05T18:22:58.000Z</time>
      </trkpt>
      <trkpt lat="48.85602" lon="2.34714">
        <ele>85</ele>
        <time>2013-08-05T18:22:59.000Z</time>
      </trkpt>
      <trkpt lat="48.85601" lon="2.3472">
        <ele>85</ele>
        <time>2013-08-05T18:23:00.000Z</time>
      </trkpt>
      <trkpt lat="48.85599" lon="2.34726">
        <ele>84.6</ele>
        <time>2013-08-05T18:23:01.000Z</time>
      </trkpt>
      <trkpt lat="48.85597" lon="2.34732">
        <ele>85.2</ele>
        <time>2013-08-05T18:23:02.000Z</time>
      </trkpt>
      <trkpt lat="48.85595" lon="2.34738">
        <ele>84.4</ele>
        <time>2013-08-05T18:23:03.000Z</time>
      </trkpt>
      <trkpt lat="48.85593" lon="2.34744">
        <ele>85.1</ele>
        <time>2013-08-05T18:23:04.000Z</time>
      </trkpt>
      <trkpt lat="48.85591" lon="2.3475">
        <ele>86</ele>
        <time>2013-08-05T18:23:05.000Z</time>
      </trkpt>
      <trkpt lat="48.85589" lon="2.34756">
        <ele>86</ele>
        <time>2013-08-05T18:23:06.000Z</time>
      </trkpt>
      <trkpt lat="48.85588" lon="2.34763">
        <ele>86.2</ele>
        <time>2013-08-05T18:23:07.000Z</time>
      </trkpt>
      <trkpt lat="48.85586" lon="2.34769">
        <ele>86</ele>
        <time>2013-08-05T18:23:08.000Z</time>
      </trkpt>
      <trkpt lat="48.85585" lon="2.34775">
        <ele>86.1</ele>
        <time>2013-08-05T18:23:09.000Z</time>
      </trkpt>
      <trkpt lat="48.85583" lon="2.34781">
        <ele>86.8</ele>
        <time>2013-08-05T18:23:10.000Z</time>
      </trkpt>
      <trkpt lat="48.85582" lon="2.34789">
        <ele>86.9</ele>
        <time>2013-08-05T18:23:11.000Z</time>
      </trkpt>
      <trkpt lat="48.8558" lon="2.34795">
        <ele>87.1</ele>
        <time>2013-08-05T18:23:12.000Z</time>
      </trkpt>
      <trkpt lat="48.85578" lon="2.34801">
        <ele>87.6</ele>
        <time>2013-08-05T18:23:13.000Z</time>
      </trkpt>
      <trkpt lat="48.85576" lon="2.34809">
        <ele>87.1</ele>
        <time>2013-08-05T18:23:14.000Z</time>
      </trkpt>
      <trkpt lat="48.85574" lon="2.34815">
        <ele>87.3</ele>
        <time>2013-08-05T18:23:15.000Z</time>
      </trkpt>
      <trkpt lat="48.85572" lon="2.34822">
        <ele>87.6</ele>
        <time>2013-08-05T18:23:16.000Z</time>
      </trkpt>
      <trkpt lat="48.85571" lon="2.34829">
        <ele>88.2</ele>
        <time>2013-08-05T18:23:17.000Z</time>
      </trkpt>
      <trkpt lat="48.85569" lon="2.34836">
        <ele>87.4</ele>
        <time>2013-08-05T18:23:18.000Z</time>
      </trkpt>
      <trkpt lat="48.85568" lon="2.34843">
        <ele>87.2</ele>
        <time>2013-08-05T18:23:19.000Z</time>
      </trkpt>
      <trkpt lat="48.85565" lon="2.3485">
        <ele>86.9</ele>
        <time>2013-08-05T18:23:20.000Z</time>
      </trkpt>
      <trkpt lat="48.85562" lon="2.34857">
        <ele>86.9</ele>
        <time>2013-08-05T18:23:21.000Z</time>
      </trkpt>
      <trkpt lat="48.8556" lon="2.34865">
        <ele>87.1</ele>
        <time>2013-08-05T18:23:22.000Z</time>
      </trkpt>
      <trkpt lat="48.85558" lon="2.34873">
        <ele>86.9</ele>
        <time>2013-08-05T18:23:23.000Z</time>
      </trkpt>
      <trkpt lat="48.85556" lon="2.34881">
        <ele>86.7</ele>
        <time>2013-08-05T18:23:24.000Z</time>
      </trkpt>
      <trkpt lat="48.85554" lon="2.34889">
        <ele>86.7</ele>
        <time>2013-08-05T18:23:25.000Z</time>
      </trkpt>
      <trkpt lat="48.85552" lon="2.34898">
        <ele>86.5</ele>
        <time>2013-08-05T18:23:26.000Z</time>
      </trkpt>
      <trkpt lat="48.85549" lon="2.34906">
        <ele>86.4</ele>
        <time>2013-08-05T18:23:27.000Z</time>
      </trkpt>
      <trkpt lat="48.85546" lon="2.34915">
        <ele>85.2</ele>
        <time>2013-08-05T18:23:28.000Z</time>
      </trkpt>
      <trkpt lat="48.85543" lon="2.34924">
        <ele>84.8</ele>
        <time>2013-08-05T18:23:29.000Z</time>
      </trkpt>
      <trkpt lat="48.8554" lon="2.34933">
        <ele>85.1</ele>
        <time>2013-08-05T18:23:30.000Z</time>
      </trkpt>
      <trkpt lat="48.85537" lon="2.34941">
        <ele>83.8</ele>
        <time>2013-08-05T18:23:31.000Z</time>
      </trkpt>
      <trkpt lat="48.85534" lon="2.34951">
        <ele>84</ele>
        <time>2013-08-05T18:23:32.000Z</time>
      </trkpt>
      <trkpt lat="48.85531" lon="2.3496">
        <ele>83.3</ele>
        <time>2013-08-05T18:23:33.000Z</time>
      </trkpt>
      <trkpt lat="48.85528" lon="2.3497">
        <ele>83</ele>
        <time>2013-08-05T18:23:34.000Z</time>
      </trkpt>
      <trkpt lat="48.85525" lon="2.34978">
        <ele>82.4</ele>
        <time>2013-08-05T18:23:35.000Z</time>
      </trkpt>
      <trkpt lat="48.85522" lon="2.34987">
        <ele>82.2</ele>
        <time>2013-08-05T18:23:36.000Z</time>
      </trkpt>
      <trkpt lat="48.85519" lon="2.34996">
        <ele>82.4</ele>
        <time>2013-08-05T18:23:37.000Z</time>
      </trkpt>
      <trkpt lat="48.85515" lon="2.35004">
        <ele>82.2</ele>
        <time>2013-08-05T18:23:38.000Z</time>
      </trkpt>
      <trkpt lat="48.85512" lon="2.35012">
        <ele>82.1</ele>
        <time>2013-08-05T18:23:39.000Z</time>
      </trkpt>
      <trkpt lat="48.8551" lon="2.3502">
        <ele>82.4</ele>
        <time>2013-08-05T18:23:40.000Z</time>
      </trkpt>
      <trkpt lat="48.85507" lon="2.35029">
        <ele>81.8</ele>
        <time>2013-08-05T18:23:41.000Z</time>
      </trkpt>
      <trkpt lat="48.85502" lon="2.35033">
        <ele>81.6</ele>
        <time>2013-08-05T18:23:42.000Z</time>
      </trkpt>
      <trkpt lat="48.85499" lon="2.3504">
        <ele>81.3</ele>
        <time>2013-08-05T18:23:43.000Z</time>
      </trkpt>
      <trkpt lat="48.85496" lon="2.35048">
        <ele>80.7</ele>
        <time>2013-08-05T18:23:44.000Z</time>
      </trkpt>
      <trkpt lat="48.85492" lon="2.35054">
        <ele>80.8</ele>
        <time>2013-08-05T18:23:45.000Z</time>
      </trkpt>
      <trkpt lat="48.85489" lon="2.35062">
        <ele>80.4</ele>
        <time>2013-08-05T18:23:46.000Z</time>
      </trkpt>
      <trkpt lat="48.85485" lon="2.35069">
        <ele>80.9</ele>
        <time>2013-08-05T18:23:47.000Z</time>
      </trkpt>
      <trkpt lat="48.85482" lon="2.35077">
        <ele>81</ele>
        <time>2013-08-05T18:23:48.000Z</time>
      </trkpt>
      <trkpt lat="48.85478" lon="2.35084">
        <ele>80.5</ele>
        <time>2013-08-05T18:23:49.000Z</time>
      </trkpt>
      <trkpt lat="48.85474" lon="2.35091">
        <ele>80.8</ele>
        <time>2013-08-05T18:23:50.000Z</time>
      </trkpt>
      <trkpt lat="48.85469" lon="2.35097">
        <ele>80.9</ele>
        <time>2013-08-05T18:23:51.000Z</time>
      </trkpt>
      <trkpt lat="48.85465" lon="2.35104">
        <ele>81.2</ele>
        <time>2013-08-05T18:23:52.000Z</time>
      </trkpt>
      <trkpt lat="48.8546" lon="2.35111">
        <ele>80.8</ele>
        <time>2013-08-05T18:23:53.000Z</time>
      </trkpt>
      <trkpt lat="48.85456" lon="2.35117">
        <ele>81.1</ele>
        <time>2013-08-05T18:23:54.000Z</time>
      </trkpt>
      <trkpt lat="48.85451" lon="2.35122">
        <ele>80.5</ele>
        <time>2013-08-05T18:23:55.000Z</time>
      </trkpt>
      <trkpt lat="48.85446" lon="2.35129">
        <ele>80.6</ele>
        <time>2013-08-05T18:23:56.000Z</time>
      </trkpt>
      <trkpt lat="48.85442" lon="2.35133">
        <ele>81.4</ele>
        <time>2013-08-05T18:23:57.000Z</time>
      </trkpt>
      <trkpt lat="48.85437" lon="2.3514">
        <ele>81.7</ele>
        <time>2013-08-05T18:23:58.000Z</time>
      </trkpt>
      <trkpt lat="48.85432" lon="2.35146">
        <ele>82.2</ele>
        <time>2013-08-05T18:23:59.000Z</time>
      </trkpt>
      <trkpt lat="48.85427" lon="2.35151">
        <ele>82.5</ele>
        <time>2013-08-05T18:24:00.000Z</time>
      </trkpt>
      <trkpt lat="48.85422" lon="2.35156">
        <ele>82.2</ele>
        <time>2013-08-05T18:24:01.000Z</time>
      </trkpt>
      <trkpt lat="48.85417" lon="2.35161">
        <ele>82</ele>
        <time>2013-08-05T18:24:02.000Z</time>
      </trkpt>
      <trkpt lat="48.85412" lon="2.35166">
        <ele>82.1</ele>
        <time>2013-08-05T18:24:03.000Z</time>
      </trkpt>
      <trkpt lat="48.85408" lon="2.35171">
        <ele>82</ele>
        <time>2013-08-05T18:24:04.000Z</time>
      </trkpt>
      <trkpt lat="48.85403" lon="2.35174">
        <ele>82</ele>
        <time>2013-08-05T18:24:05.000Z</time>
      </trkpt>
      <trkpt lat="48.85399" lon="2.35177">
        <ele>81.7</ele>
        <time>2013-08-05T18:24:06.000Z</time>
      </trkpt>
      <trkpt lat="48.85395" lon="2.3518">
        <ele>81.8</ele>
        <time>2013-08-05T18:24:07.000Z</time>
      </trkpt>
      <trkpt lat="48.85392" lon="2.35182">
        <ele>81.1</ele>
        <time>2013-08-05T18:24:08.000Z</time>
      </trkpt>
      <trkpt lat="48.85389" lon="2.35184">
        <ele>81.1</ele>
        <time>2013-08-05T18:24:09.000Z</time>
      </trkpt>
      <trkpt lat="48.85385" lon="2.35188">
        <ele>80.5</ele>
        <time>2013-08-05T18:24:10.000Z</time>
      </trkpt>
      <trkpt lat="48.85381" lon="2.3519">
        <ele>81.3</ele>
        <time>2013-08-05T18:24:11.000Z</time>
      </trkpt>
      <trkpt lat="48.85377" lon="2.35192">
        <ele>80.3</ele>
        <time>2013-08-05T18:24:12.000Z</time>
      </trkpt>
      <trkpt lat="48.85374" lon="2.35193">
        <ele>80.3</ele>
        <time>2013-08-05T18:24:13.000Z</time>
      </trkpt>
      <trkpt lat="48.85369" lon="2.35195">
        <ele>80.5</ele>
        <time>2013-08-05T18:24:14.000Z</time>
      </trkpt>
      <trkpt lat="48.85365" lon="2.35197">
        <ele>80.7</ele>
        <time>2013-08-05T18:24:15.000Z</time>
      </trkpt>
      <trkpt lat="48.85361" lon="2.35199">
        <ele>80.5</ele>
        <time>2013-08-05T18:24:16.000Z</time>
      </trkpt>
      <trkpt lat="48.85357" lon="2.352">
        <ele>81.3</ele>
        <time>2013-08-05T18:24:17.000Z</time>
      </trkpt>
      <trkpt lat="48.85353" lon="2.35202">
        <ele>81.3</ele>
        <time>2013-08-05T18:24:18.000Z</time>
      </trkpt>
      <trkpt lat="48.85349" lon="2.35204">
        <ele>81.2</ele>
        <time>2013-08-05T18:24:19.000Z</time>
      </trkpt>
      <trkpt lat="48.85345" lon="2.35205">
        <ele>82.1</ele>
        <time>2013-08-05T18:24:20.000Z</time>
      </trkpt>
      <trkpt lat="48.85341" lon="2.35207">
        <ele>81.7</ele>
        <time>2013-08-05T18:24:21.000Z</time>
      </trkpt>
      <trkpt lat="48.85336" lon="2.35208">
        <ele>82.2</ele>
        <time>2013-08-05T18:24:22.000Z</time>
      </trkpt>
      <trkpt lat="48.85332" lon="2.3521">
        <ele>83.2</ele>
        <time>2013-08-05T18:24:23.000Z</time>
      </trkpt>
      <trkpt lat="48.85328" lon="2.35211">
        <ele>83.3</ele>
        <time>2013-08-05T18:24:24.000Z</time>
      </trkpt>
      <trkpt lat="48.85324" lon="2.35212">
        <ele>83</ele>
        <time>2013-08-05T18:24:25.000Z</time>
      </trkpt>
      <trkpt lat="48.8532" lon="2.35213">
        <ele>82.9</ele>
        <time>2013-08-05T18:24:26.000Z</time>
      </trkpt>
      <trkpt lat="48.85316" lon="2.35214">
        <ele>83.8</ele>
        <time>2013-08-05T18:24:27.000Z</time>
      </trkpt>
      <trkpt lat="48.85312" lon="2.35215">
        <ele>84.2</ele>
        <time>2013-08-05T18:24:28.000Z</time>
      </trkpt>
      <trkpt lat="48.85307" lon="2.35216">
        <ele>84.6</ele>
        <time>2013-08-05T18:24:29.000Z</time>
      </trkpt>
      <trkpt lat="48.85304" lon="2.35217">
        <ele>85</ele>
        <time>2013-08-05T18:24:30.000Z</time>
      </trkpt>
      <trkpt lat="48.853" lon="2.35218">
        <ele>85.1</ele>
        <time>2013-08-05T18:24:31.000Z</time>
      </trkpt>
      <trkpt lat="48.85296" lon="2.35219">
        <ele>84.9</ele>
        <time>2013-08-05T18:24:32.000Z</time>
      </trkpt>
      <trkpt lat="48.85292" lon="2.3522">
        <ele>84.4</ele>
        <time>2013-08-05T18:24:33.000Z</time>
      </trkpt>
      <trkpt lat="48.85288" lon="2.35221">
        <ele>84.5</ele>
        <time>2013-08-05T18:24:34.000Z</time>
      </trkpt>
      <trkpt lat="48.85284" lon="2.35222">
        <ele>84.8</ele>
        <time>2013-08-05T18:24:35.000Z</time>
      </trkpt>
      <trkpt lat="48.8528" lon="2.35223">
        <ele>84.7</ele>
        <time>2013-08-05T18:24:36.000Z</time>
      </trkpt>
      <trkpt lat="48.85277" lon="2.35223">
        <ele>85.1</ele>
        <time>2013-08-05T18:24:37.000Z</time>
      </trkpt>
      <trkpt lat="48.85273" lon="2.35224">
        <ele>85.7</ele>
        <time>2013-08-05T18:24:38.000Z</time>
      </trkpt>
      <trkpt lat="48.8527" lon="2.35224">
        <ele>86.4</ele>
        <time>2013-08-05T18:24:39.000Z</time>
      </trkpt>
      <trkpt lat="48.85267" lon="2.35225">
        <ele>86.7</ele>
        <time>2013-08-05T18:24:40.000Z</time>
      </trkpt>
      <trkpt lat="48.85263" lon="2.35225">
        <ele>87.3</ele>
        <time>2013-08-05T18:24:41.000Z</time>
      </trkpt>
      <trkpt lat="48.8526" lon="2.35224">
        <ele>87.1</ele>
        <time>2013-08-05T18:24:42.000Z</time>
      </trkpt>
      <trkpt lat="48.85256" lon="2.35224">
        <ele>87.2</ele>
        <time>2013-08-05T18:24:43.000Z</time>
      </trkpt>
      <trkpt lat="48.85253" lon="2.35222">
        <ele>86.1</ele>
        <time>2013-08-05T18:24:44.000Z</time>
      </trkpt>
      <trkpt lat="48.85249" lon="2.3522">
        <ele>86</ele>
        <time>2013-08-05T18:24:45.000Z</time>
      </trkpt>
      <trkpt lat="48.85246" lon="2.35217">
        <ele>86.2</ele>
        <time>2013-08-05T18:24:46.000Z</time>
      </trkpt>
      <trkpt lat="48.85242" lon="2.35215">
        <ele>86.3</ele>
        <time>2013-08-05T18:24:47.000Z</time>
      </trkpt>
      <trkpt lat="48.85239" lon="2.35212">
        <ele>86.3</ele>
        <time>2013-08-05T18:24:48.000Z</time>
      </trkpt>
      <trkpt lat="48.85235" lon="2.35209">
        <ele>86.3</ele>
        <time>2013-08-05T18:24:49.000Z</time>
      </trkpt>
      <trkpt lat="48.8523" lon="2.35206">
        <ele>85.9</ele>
        <time>2013-08-05T18:24:50.000Z</time>
      </trkpt>
      <trkpt lat="48.85225" lon="2.35201">
        <ele>86</ele>
        <time>2013-08-05T18:24:51.000Z</time>
      </trkpt>
      <trkpt lat="48.85221" lon="2.35199">
        <ele>85.9</ele>
        <time>2013-08-05T18:24:52.000Z</time>
      </trkpt>
      <trkpt lat="48.85217" lon="2.35196">
        <ele>86</ele>
        <time>2013-08-05T18:24:53.000Z</time>
      </trkpt>
      <trkpt lat="48.85213" lon="2.35194">
        <ele>85.9</ele>
        <time>2013-08-05T18:24:54.000Z</time>
      </trkpt>
      <trkpt lat="48.85209" lon="2.35191">
        <ele>85.7</ele>
        <time>2013-08-05T18:24:55.000Z</time>
      </trkpt>
      <trkpt lat="48.85206" lon="2.35188">
        <ele>85.5</ele>
        <time>2013-08-05T18:24:56.000Z</time>
      </trkpt>
      <trkpt lat="48.85202" lon="2.35186">
        <ele>85.1</ele>
        <time>2013-08-05T18:24:57.000Z</time>
      </trkpt>
      <trkpt lat="48.85198" lon="2.35184">
        <ele>85</ele>
        <time>2013-08-05T18:24:58.000Z</time>
      </trkpt>
      <trkpt lat="48.85194" lon="2.35181">
        <ele>85.1</ele>
        <time>2013-08-05T18:24:59.000Z</time>
      </trkpt>
      <trkpt lat="48.8519" lon="2.35179">
        <ele>85.2</ele>
        <time>2013-08-05T18:25:00.000Z</time>
      </trkpt>
      <trkpt lat="48.85186" lon="2.35177">
        <ele>83.9</ele>
        <time>2013-08-05T18:25:01.000Z</time>
      </trkpt>
      <trkpt lat="48.85182" lon="2.35176">
        <ele>83.9</ele>
        <time>2013-08-05T18:25:02.000Z</time>
      </trkpt>
      <trkpt lat="48.85178" lon="2.35174">
        <ele>84.3</ele>
        <time>2013-08-05T18:25:03.000Z</time>
      </trkpt>
      <trkpt lat="48.85174" lon="2.35172">
        <ele>84.4</ele>
        <time>2013-08-05T18:25:04.000Z</time>
      </trkpt>
      <trkpt lat="48.8517" lon="2.35169">
        <ele>84.7</ele>
        <time>2013-08-05T18:25:05.000Z</time>
      </trkpt>
      <trkpt lat="48.85167" lon="2.35167">
        <ele>84.7</ele>
        <time>2013-08-05T18:25:06.000Z</time>
      </trkpt>
      <trkpt lat="48.85164" lon="2.35165">
        <ele>84.5</ele>
        <time>2013-08-05T18:25:07.000Z</time>
      </trkpt>
      <trkpt lat="48.85161" lon="2.35164">
        <ele>84.6</ele>
        <time>2013-08-05T18:25:08.000Z</time>
      </trkpt>
      <trkpt lat="48.85158" lon="2.35162">
        <ele>84.8</ele>
        <time>2013-08-05T18:25:09.000Z</time>
      </trkpt>
      <trkpt lat="48.85155" lon="2.35161">
        <ele>84.8</ele>
        <time>2013-08-05T18:25:10.000Z</time>
      </trkpt>
      <trkpt lat="48.85152" lon="2.3516">
        <ele>85.5</ele>
        <time>2013-08-05T18:25:11.000Z</time>
      </trkpt>
      <trkpt lat="48.85149" lon="2.35158">
        <ele>85.5</ele>
        <time>2013-08-05T18:25:12.000Z</time>
      </trkpt>
      <trkpt lat="48.85146" lon="2.35156">
        <ele>85.4</ele>
        <time>2013-08-05T18:25:13.000Z</time>
      </trkpt>
      <trkpt lat="48.85143" lon="2.35154">
        <ele>85</ele>
        <time>2013-08-05T18:25:14.000Z</time>
      </trkpt>
      <trkpt lat="48.8514" lon="2.35153">
        <ele>85.1</ele>
        <time>2013-08-05T18:25:15.000Z</time>
      </trkpt>
      <trkpt lat="48.85137" lon="2.35151">
        <ele>85.6</ele>
        <time>2013-08-05T18:25:16.000Z</time>
      </trkpt>
      <trkpt lat="48.85134" lon="2.35148">
        <ele>85.9</ele>
        <time>2013-08-05T18:25:18.000Z</time>
      </trkpt>
      <trkpt lat="48.85131" lon="2.35147">
        <ele>85.7</ele>
        <time>2013-08-05T18:25:19.000Z</time>
      </trkpt>
      <trkpt lat="48.85129" lon="2.35147">
        <ele>86.3</ele>
        <time>2013-08-05T18:25:20.000Z</time>
      </trkpt>
      <trkpt lat="48.85127" lon="2.35148">
        <ele>86.4</ele>
        <time>2013-08-05T18:25:21.000Z</time>
      </trkpt>
      <trkpt lat="48.85124" lon="2.35149">
        <ele>86.4</ele>
        <time>2013-08-05T18:25:22.000Z</time>
      </trkpt>
      <trkpt lat="48.85122" lon="2.3515">
        <ele>87</ele>
        <time>2013-08-05T18:25:23.000Z</time>
      </trkpt>
      <trkpt lat="48.85118" lon="2.35149">
        <ele>87.1</ele>
        <time>2013-08-05T18:25:24.000Z</time>
      </trkpt>
      <trkpt lat="48.85115" lon="2.35148">
        <ele>86.1</ele>
        <time>2013-08-05T18:25:25.000Z</time>
      </trkpt>
      <trkpt lat="48.85112" lon="2.35147">
        <ele>85.7</ele>
        <time>2013-08-05T18:25:26.000Z</time>
      </trkpt>
      <trkpt lat="48.85109" lon="2.35145">
        <ele>85.1</ele>
        <time>2013-08-05T18:25:27.000Z</time>
      </trkpt>
      <trkpt lat="48.85107" lon="2.35142">
        <ele>84.8</ele>
        <time>2013-08-05T18:25:28.000Z</time>
      </trkpt>
      <trkpt lat="48.85106" lon="2.35138">
        <ele>84</ele>
        <time>2013-08-05T18:25:29.000Z</time>
      </trkpt>
      <trkpt lat="48.85105" lon="2.35134">
        <ele>84.2</ele>
        <time>2013-08-05T18:25:30.000Z</time>
      </trkpt>
      <trkpt lat="48.85103" lon="2.35131">
        <ele>84.1</ele>
        <time>2013-08-05T18:25:31.000Z</time>
      </trkpt>
      <trkpt lat="48.85101" lon="2.35128">
        <ele>83.9</ele>
        <time>2013-08-05T18:25:32.000Z</time>
      </trkpt>
      <trkpt lat="48.85099" lon="2.35126">
        <ele>83.6</ele>
        <time>2013-08-05T18:25:33.000Z</time>
      </trkpt>
      <trkpt lat="48.85097" lon="2.35125">
        <ele>83.6</ele>
        <time>2013-08-05T18:25:34.000Z</time>
      </trkpt>
      <trkpt lat="48.85094" lon="2.35123">
        <ele>83.9</ele>
        <time>2013-08-05T18:25:35.000Z</time>
      </trkpt>
      <trkpt lat="48.85092" lon="2.35122">
        <ele>83.8</ele>
        <time>2013-08-05T18:25:36.000Z</time>
      </trkpt>
      <trkpt lat="48.85089" lon="2.35119">
        <ele>83.9</ele>
        <time>2013-08-05T18:25:37.000Z</time>
      </trkpt>
      <trkpt lat="48.85087" lon="2.35117">
        <ele>85.1</ele>
        <time>2013-08-05T18:25:38.000Z</time>
      </trkpt>
      <trkpt lat="48.85084" lon="2.35115">
        <ele>84.9</ele>
        <time>2013-08-05T18:25:39.000Z</time>
      </trkpt>
      <trkpt lat="48.85081" lon="2.35113">
        <ele>84.7</ele>
        <time>2013-08-05T18:25:40.000Z</time>
      </trkpt>
      <trkpt lat="48.85078" lon="2.35111">
        <ele>83.8</ele>
        <time>2013-08-05T18:25:41.000Z</time>
      </trkpt>
      <trkpt lat="48.85075" lon="2.3511">
        <ele>81.7</ele>
        <time>2013-08-05T18:25:42.000Z</time>
      </trkpt>
      <trkpt lat="48.85071" lon="2.35107">
        <ele>81</ele>
        <time>2013-08-05T18:25:43.000Z</time>
      </trkpt>
      <trkpt lat="48.85067" lon="2.35105">
        <ele>80.5</ele>
        <time>2013-08-05T18:25:44.000Z</time>
      </trkpt>
      <trkpt lat="48.85063" lon="2.35102">
        <ele>80.8</ele>
        <time>2013-08-05T18:25:45.000Z</time>
      </trkpt>
      <trkpt lat="48.8506" lon="2.351">
        <ele>79.9</ele>
        <time>2013-08-05T18:25:46.000Z</time>
      </trkpt>
      <trkpt lat="48.85056" lon="2.35097">
        <ele>79.8</ele>
        <time>2013-08-05T18:25:47.000Z</time>
      </trkpt>
      <trkpt lat="48.85053" lon="2.35094">
        <ele>78.7</ele>
        <time>2013-08-05T18:25:48.000Z</time>
      </trkpt>
      <trkpt lat="48.85049" lon="2.35092">
        <ele>78.6</ele>
        <time>2013-08-05T18:25:49.000Z</time>
      </trkpt>
      <trkpt lat="48.85046" lon="2.35089">
        <ele>79.2</ele>
        <time>2013-08-05T18:25:50.000Z</time>
      </trkpt>
      <trkpt lat="48.85042" lon="2.35086">
        <ele>78.9</ele>
        <time>2013-08-05T18:25:51.000Z</time>
      </trkpt>
      <trkpt lat="48.85038" lon="2.35084">
        <ele>79.7</ele>
        <time>2013-08-05T18:25:52.000Z</time>
      </trkpt>
      <trkpt lat="48.85034" lon="2.35083">
        <ele>79.3</ele>
        <time>2013-08-05T18:25:53.000Z</time>
      </trkpt>
      <trkpt lat="48.8503" lon="2.35082">
        <ele>79.6</ele>
        <time>2013-08-05T18:25:54.000Z</time>
      </trkpt>
      <trkpt lat="48.85026" lon="2.3508">
        <ele>78.4</ele>
        <time>2013-08-05T18:25:55.000Z</time>
      </trkpt>
      <trkpt lat="48.85023" lon="2.35079">
        <ele>78.8</ele>
        <time>2013-08-05T18:25:56.000Z</time>
      </trkpt>
      <trkpt lat="48.85019" lon="2.35077">
        <ele>77.6</ele>
        <time>2013-08-05T18:25:57.000Z</time>
      </trkpt>
      <trkpt lat="48.85015" lon="2.35076">
        <ele>76.2</ele>
        <time>2013-08-05T18:25:58.000Z</time>
      </trkpt>
      <trkpt lat="48.85012" lon="2.35075">
        <ele>75.3</ele>
        <time>2013-08-05T18:25:59.000Z</time>
      </trkpt>
      <trkpt lat="48.85009" lon="2.35074">
        <ele>75.2</ele>
        <time>2013-08-05T18:26:00.000Z</time>
      </trkpt>
      <trkpt lat="48.85006" lon="2.35073">
        <ele>74.3</ele>
        <time>2013-08-05T18:26:01.000Z</time>
      </trkpt>
      <trkpt lat="48.85003" lon="2.35072">
        <ele>73.7</ele>
        <time>2013-08-05T18:26:03.000Z</time>
      </trkpt>
      <trkpt lat="48.85001" lon="2.35071">
        <ele>74.7</ele>
        <time>2013-08-05T18:26:04.000Z</time>
      </trkpt>
      <trkpt lat="48.84998" lon="2.35069">
        <ele>74.9</ele>
        <time>2013-08-05T18:26:05.000Z</time>
      </trkpt>
      <trkpt lat="48.84996" lon="2.35068">
        <ele>75.2</ele>
        <time>2013-08-05T18:26:06.000Z</time>
      </trkpt>
      <trkpt lat="48.84993" lon="2.35065">
        <ele>75.1</ele>
        <time>2013-08-05T18:26:08.000Z</time>
      </trkpt>
      <trkpt lat="48.84991" lon="2.35064">
        <ele>75.7</ele>
        <time>2013-08-05T18:26:09.000Z</time>
      </trkpt>
      <trkpt lat="48.84987" lon="2.35063">
        <ele>77.4</ele>
        <time>2013-08-05T18:26:12.000Z</time>
      </trkpt>
      <trkpt lat="48.84985" lon="2.35062">
        <ele>78.4</ele>
        <time>2013-08-05T18:26:13.000Z</time>
      </trkpt>
      <trkpt lat="48.84983" lon="2.35061">
        <ele>79.2</ele>
        <time>2013-08-05T18:26:14.000Z</time>
      </trkpt>
      <trkpt lat="48.8498" lon="2.3506">
        <ele>80.8</ele>
        <time>2013-08-05T18:26:15.000Z</time>
      </trkpt>
      <trkpt lat="48.84978" lon="2.3506">
        <ele>82.5</ele>
        <time>2013-08-05T18:26:16.000Z</time>
      </trkpt>
      <trkpt lat="48.84975" lon="2.3506">
        <ele>83.1</ele>
        <time>2013-08-05T18:26:17.000Z</time>
      </trkpt>
      <trkpt lat="48.84972" lon="2.35061">
        <ele>83.9</ele>
        <time>2013-08-05T18:26:18.000Z</time>
      </trkpt>
      <trkpt lat="48.84969" lon="2.35061">
        <ele>87.1</ele>
        <time>2013-08-05T18:26:19.000Z</time>
      </trkpt>
      <trkpt lat="48.84965" lon="2.35062">
        <ele>87.5</ele>
        <time>2013-08-05T18:26:20.000Z</time>
      </trkpt>
      <trkpt lat="48.84962" lon="2.35063">
        <ele>88.2</ele>
        <time>2013-08-05T18:26:21.000Z</time>
      </trkpt>
      <trkpt lat="48.84959" lon="2.35063">
        <ele>87.5</ele>
        <time>2013-08-05T18:26:22.000Z</time>
      </trkpt>
      <trkpt lat="48.84957" lon="2.35064">
        <ele>86.9</ele>
        <time>2013-08-05T18:26:23.000Z</time>
      </trkpt>
      <trkpt lat="48.84955" lon="2.35069">
        <ele>85.2</ele>
        <time>2013-08-05T18:26:25.000Z</time>
      </trkpt>
      <trkpt lat="48.84955" lon="2.35072">
        <ele>84.2</ele>
        <time>2013-08-05T18:26:26.000Z</time>
      </trkpt>
      <trkpt lat="48.84955" lon="2.35078">
        <ele>84.9</ele>
        <time>2013-08-05T18:26:27.000Z</time>
      </trkpt>
      <trkpt lat="48.84955" lon="2.35084">
        <ele>83.7</ele>
        <time>2013-08-05T18:26:28.000Z</time>
      </trkpt>
      <trkpt lat="48.84956" lon="2.3509">
        <ele>82.5</ele>
        <time>2013-08-05T18:26:29.000Z</time>
      </trkpt>
      <trkpt lat="48.84957" lon="2.35097">
        <ele>81.9</ele>
        <time>2013-08-05T18:26:30.000Z</time>
      </trkpt>
      <trkpt lat="48.8496" lon="2.35103">
        <ele>83.5</ele>
        <time>2013-08-05T18:26:31.000Z</time>
      </trkpt>
      <trkpt lat="48.84962" lon="2.3511">
        <ele>83.7</ele>
        <time>2013-08-05T18:26:32.000Z</time>
      </trkpt>
      <trkpt lat="48.84963" lon="2.35117">
        <ele>83.5</ele>
        <time>2013-08-05T18:26:33.000Z</time>
      </trkpt>
      <trkpt lat="48.84964" lon="2.35126">
        <ele>83.3</ele>
        <time>2013-08-05T18:26:34.000Z</time>
      </trkpt>
      <trkpt lat="48.84963" lon="2.35133">
        <ele>83.7</ele>
        <time>2013-08-05T18:26:35.000Z</time>
      </trkpt>
      <trkpt lat="48.84962" lon="2.35139">
        <ele>82.8</ele>
        <time>2013-08-05T18:26:36.000Z</time>
      </trkpt>
      <trkpt lat="48.8496" lon="2.35146">
        <ele>81.7</ele>
        <time>2013-08-05T18:26:37.000Z</time>
      </trkpt>
      <trkpt lat="48.84959" lon="2.35153">
        <ele>81.2</ele>
        <time>2013-08-05T18:26:38.000Z</time>
      </trkpt>
      <trkpt lat="48.84958" lon="2.35158">
        <ele>81.5</ele>
        <time>2013-08-05T18:26:39.000Z</time>
      </trkpt>
      <trkpt lat="48.84956" lon="2.35164">
        <ele>81</ele>
        <time>2013-08-05T18:26:40.000Z</time>
      </trkpt>
      <trkpt lat="48.84954" lon="2.35166">
        <ele>82.4</ele>
        <time>2013-08-05T18:26:41.000Z</time>
      </trkpt>
      <trkpt lat="48.84949" lon="2.35168">
        <ele>82.8</ele>
        <time>2013-08-05T18:26:42.000Z</time>
      </trkpt>
      <trkpt lat="48.84945" lon="2.35162">
        <ele>82.5</ele>
        <time>2013-08-05T18:26:43.000Z</time>
      </trkpt>
      <trkpt lat="48.84941" lon="2.3516">
        <ele>82.8</ele>
        <time>2013-08-05T18:26:44.000Z</time>
      </trkpt>
      <trkpt lat="48.84937" lon="2.3516">
        <ele>82.6</ele>
        <time>2013-08-05T18:26:45.000Z</time>
      </trkpt>
      <trkpt lat="48.84933" lon="2.35156">
        <ele>82.3</ele>
        <time>2013-08-05T18:26:46.000Z</time>
      </trkpt>
      <trkpt lat="48.84929" lon="2.35152">
        <ele>81.8</ele>
        <time>2013-08-05T18:26:47.000Z</time>
      </trkpt>
      <trkpt lat="48.84926" lon="2.35149">
        <ele>83.4</ele>
        <time>2013-08-05T18:26:48.000Z</time>
      </trkpt>
      <trkpt lat="48.84922" lon="2.35146">
        <ele>83</ele>
        <time>2013-08-05T18:26:49.000Z</time>
      </trkpt>
      <trkpt lat="48.84918" lon="2.35143">
        <ele>82.2</ele>
        <time>2013-08-05T18:26:50.000Z</time>
      </trkpt>
      <trkpt lat="48.84912" lon="2.3514">
        <ele>83</ele>
        <time>2013-08-05T18:26:51.000Z</time>
      </trkpt>
      <trkpt lat="48.84907" lon="2.35139">
        <ele>83.6</ele>
        <time>2013-08-05T18:26:52.000Z</time>
      </trkpt>
      <trkpt lat="48.84903" lon="2.35137">
        <ele>83.7</ele>
        <time>2013-08-05T18:26:53.000Z</time>
      </trkpt>
      <trkpt lat="48.849" lon="2.35135">
        <ele>83.8</ele>
        <time>2013-08-05T18:26:54.000Z</time>
      </trkpt>
      <trkpt lat="48.84896" lon="2.35132">
        <ele>83.6</ele>
        <time>2013-08-05T18:26:55.000Z</time>
      </trkpt>
      <trkpt lat="48.84892" lon="2.35129">
        <ele>83.6</ele>
        <time>2013-08-05T18:26:56.000Z</time>
      </trkpt>
      <trkpt lat="48.84888" lon="2.35127">
        <ele>83.5</ele>
        <time>2013-08-05T18:26:57.000Z</time>
      </trkpt>
      <trkpt lat="48.84884" lon="2.35124">
        <ele>84</ele>
        <time>2013-08-05T18:26:58.000Z</time>
      </trkpt>
      <trkpt lat="48.8488" lon="2.35121">
        <ele>84.5</ele>
        <time>2013-08-05T18:26:59.000Z</time>
      </trkpt>
      <trkpt lat="48.84876" lon="2.35117">
        <ele>85.4</ele>
        <time>2013-08-05T18:27:00.000Z</time>
      </trkpt>
      <trkpt lat="48.84872" lon="2.35115">
        <ele>85.7</ele>
        <time>2013-08-05T18:27:01.000Z</time>
      </trkpt>
      <trkpt lat="48.84867" lon="2.35111">
        <ele>86.3</ele>
        <time>2013-08-05T18:27:02.000Z</time>
      </trkpt>
      <trkpt lat="48.84864" lon="2.3511">
        <ele>87.4</ele>
        <time>2013-08-05T18:27:03.000Z</time>
      </trkpt>
      <trkpt lat="48.84859" lon="2.35106">
        <ele>87.7</ele>
        <time>2013-08-05T18:27:04.000Z</time>
      </trkpt>
      <trkpt lat="48.84856" lon="2.35102">
        <ele>87.8</ele>
        <time>2013-08-05T18:27:05.000Z</time>
      </trkpt>
      <trkpt lat="48.84852" lon="2.35099">
        <ele>87.6</ele>
        <time>2013-08-05T18:27:06.000Z</time>
      </trkpt>
      <trkpt lat="48.84847" lon="2.35095">
        <ele>86.9</ele>
        <time>2013-08-05T18:27:07.000Z</time>
      </trkpt>
      <trkpt lat="48.84842" lon="2.35096">
        <ele>86.3</ele>
        <time>2013-08-05T18:27:08.000Z</time>
      </trkpt>
      <trkpt lat="48.84839" lon="2.35097">
        <ele>86</ele>
        <time>2013-08-05T18:27:09.000Z</time>
      </trkpt>
      <trkpt lat="48.84836" lon="2.35098">
        <ele>86.1</ele>
        <time>2013-08-05T18:27:10.000Z</time>
      </trkpt>
      <trkpt lat="48.84832" lon="2.35102">
        <ele>86.4</ele>
        <time>2013-08-05T18:27:11.000Z</time>
      </trkpt>
      <trkpt lat="48.84831" lon="2.35107">
        <ele>85.2</ele>
        <time>2013-08-05T18:27:12.000Z</time>
      </trkpt>
      <trkpt lat="48.84828" lon="2.3511">
        <ele>84.5</ele>
        <time>2013-08-05T18:27:13.000Z</time>
      </trkpt>
      <trkpt lat="48.84826" lon="2.35112">
        <ele>85.1</ele>
        <time>2013-08-05T18:27:14.000Z</time>
      </trkpt>
      <trkpt lat="48.84824" lon="2.35113">
        <ele>85.3</ele>
        <time>2013-08-05T18:27:15.000Z</time>
      </trkpt>
      <trkpt lat="48.84821" lon="2.35116">
        <ele>85.3</ele>
        <time>2013-08-05T18:27:17.000Z</time>
      </trkpt>
      <trkpt lat="48.8482" lon="2.35117">
        <ele>85.6</ele>
        <time>2013-08-05T18:27:18.000Z</time>
      </trkpt>
      <trkpt lat="48.84818" lon="2.35121">
        <ele>84.2</ele>
        <time>2013-08-05T18:27:20.000Z</time>
      </trkpt>
      <trkpt lat="48.84817" lon="2.35123">
        <ele>82.8</ele>
        <time>2013-08-05T18:27:21.000Z</time>
      </trkpt>
      <trkpt lat="48.84814" lon="2.35126">
        <ele>83</ele>
        <time>2013-08-05T18:27:23.000Z</time>
      </trkpt>
      <trkpt lat="48.84812" lon="2.35128">
        <ele>82.8</ele>
        <time>2013-08-05T18:27:24.000Z</time>
      </trkpt>
      <trkpt lat="48.8481" lon="2.3513">
        <ele>84.5</ele>
        <time>2013-08-05T18:27:25.000Z</time>
      </trkpt>
      <trkpt lat="48.84808" lon="2.35133">
        <ele>85.5</ele>
        <time>2013-08-05T18:27:26.000Z</time>
      </trkpt>
      <trkpt lat="48.84806" lon="2.35136">
        <ele>86.4</ele>
        <time>2013-08-05T18:27:27.000Z</time>
      </trkpt>
      <trkpt lat="48.84804" lon="2.3514">
        <ele>86.9</ele>
        <time>2013-08-05T18:27:28.000Z</time>
      </trkpt>
      <trkpt lat="48.84803" lon="2.35143">
        <ele>85.9</ele>
        <time>2013-08-05T18:27:29.000Z</time>
      </trkpt>
      <trkpt lat="48.84801" lon="2.35146">
        <ele>87</ele>
        <time>2013-08-05T18:27:30.000Z</time>
      </trkpt>
      <trkpt lat="48.84799" lon="2.35151">
        <ele>87.6</ele>
        <time>2013-08-05T18:27:32.000Z</time>
      </trkpt>
      <trkpt lat="48.84798" lon="2.35153">
        <ele>88.4</ele>
        <time>2013-08-05T18:27:33.000Z</time>
      </trkpt>
      <trkpt lat="48.84796" lon="2.35157">
        <ele>87</ele>
        <time>2013-08-05T18:27:35.000Z</time>
      </trkpt>
      <trkpt lat="48.84795" lon="2.35159">
        <ele>86.1</ele>
        <time>2013-08-05T18:27:36.000Z</time>
      </trkpt>
      <trkpt lat="48.84793" lon="2.35163">
        <ele>86.5</ele>
        <time>2013-08-05T18:27:38.000Z</time>
      </trkpt>
      <trkpt lat="48.84792" lon="2.35165">
        <ele>86.8</ele>
        <time>2013-08-05T18:27:39.000Z</time>
      </trkpt>
      <trkpt lat="48.84788" lon="2.35169">
        <ele>86.4</ele>
        <time>2013-08-05T18:27:50.000Z</time>
      </trkpt>
      <trkpt lat="48.84788" lon="2.35169">
        <ele>86.8</ele>
        <time>2013-08-05T18:27:51.000Z</time>
      </trkpt>
      <trkpt lat="48.84784" lon="2.35172">
        <ele>85.4</ele>
        <time>2013-08-05T18:27:59.000Z</time>
      </trkpt>
      <trkpt lat="48.84782" lon="2.35175">
        <ele>84.5</ele>
        <time>2013-08-05T18:28:00.000Z</time>
      </trkpt>
      <trkpt lat="48.8478" lon="2.35177">
        <ele>83.2</ele>
        <time>2013-08-05T18:28:01.000Z</time>
      </trkpt>
      <trkpt lat="48.84779" lon="2.3518">
        <ele>83.2</ele>
        <time>2013-08-05T18:28:02.000Z</time>
      </trkpt>
      <trkpt lat="48.84777" lon="2.35183">
        <ele>82.8</ele>
        <time>2013-08-05T18:28:03.000Z</time>
      </trkpt>
      <trkpt lat="48.84776" lon="2.35186">
        <ele>84.6</ele>
        <time>2013-08-05T18:28:04.000Z</time>
      </trkpt>
      <trkpt lat="48.84774" lon="2.35191">
        <ele>84.4</ele>
        <time>2013-08-05T18:28:05.000Z</time>
      </trkpt>
      <trkpt lat="48.84773" lon="2.35195">
        <ele>83.3</ele>
        <time>2013-08-05T18:28:06.000Z</time>
      </trkpt>
      <trkpt lat="48.84772" lon="2.35198">
        <ele>81.7</ele>
        <time>2013-08-05T18:28:07.000Z</time>
      </trkpt>
      <trkpt lat="48.8477" lon="2.35202">
        <ele>81.4</ele>
        <time>2013-08-05T18:28:08.000Z</time>
      </trkpt>
      <trkpt lat="48.84768" lon="2.35206">
        <ele>80.2</ele>
        <time>2013-08-05T18:28:09.000Z</time>
      </trkpt>
      <trkpt lat="48.84767" lon="2.3521">
        <ele>80.5</ele>
        <time>2013-08-05T18:28:10.000Z</time>
      </trkpt>
      <trkpt lat="48.84766" lon="2.35214">
        <ele>80.8</ele>
        <time>2013-08-05T18:28:11.000Z</time>
      </trkpt>
      <trkpt lat="48.84765" lon="2.35219">
        <ele>80.6</ele>
        <time>2013-08-05T18:28:12.000Z</time>
      </trkpt>
      <trkpt lat="48.84764" lon="2.35223">
        <ele>79.9</ele>
        <time>2013-08-05T18:28:13.000Z</time>
      </trkpt>
      <trkpt lat="48.84762" lon="2.35228">
        <ele>78.5</ele>
        <time>2013-08-05T18:28:14.000Z</time>
      </trkpt>
      <trkpt lat="48.84761" lon="2.35233">
        <ele>78.4</ele>
        <time>2013-08-05T18:28:15.000Z</time>
      </trkpt>
      <trkpt lat="48.84759" lon="2.35239">
        <ele>78</ele>
        <time>2013-08-05T18:28:16.000Z</time>
      </trkpt>
      <trkpt lat="48.84757" lon="2.35244">
        <ele>77.6</ele>
        <time>2013-08-05T18:28:17.000Z</time>
      </trkpt>
      <trkpt lat="48.84755" lon="2.35248">
        <ele>78.9</ele>
        <time>2013-08-05T18:28:18.000Z</time>
      </trkpt>
      <trkpt lat="48.84753" lon="2.35253">
        <ele>79.2</ele>
        <time>2013-08-05T18:28:19.000Z</time>
      </trkpt>
      <trkpt lat="48.8475" lon="2.35258">
        <ele>80.2</ele>
        <time>2013-08-05T18:28:20.000Z</time>
      </trkpt>
      <trkpt lat="48.84747" lon="2.35263">
        <ele>81.1</ele>
        <time>2013-08-05T18:28:21.000Z</time>
      </trkpt>
      <trkpt lat="48.84745" lon="2.35269">
        <ele>81.9</ele>
        <time>2013-08-05T18:28:22.000Z</time>
      </trkpt>
      <trkpt lat="48.84742" lon="2.35275">
        <ele>82</ele>
        <time>2013-08-05T18:28:23.000Z</time>
      </trkpt>
      <trkpt lat="48.8474" lon="2.35281">
        <ele>83.5</ele>
        <time>2013-08-05T18:28:24.000Z</time>
      </trkpt>
      <trkpt lat="48.84738" lon="2.35287">
        <ele>83.4</ele>
        <time>2013-08-05T18:28:25.000Z</time>
      </trkpt>
      <trkpt lat="48.84737" lon="2.35293">
        <ele>83.3</ele>
        <time>2013-08-05T18:28:26.000Z</time>
      </trkpt>
      <trkpt lat="48.84734" lon="2.35304">
        <ele>83.1</ele>
        <time>2013-08-05T18:28:27.000Z</time>
      </trkpt>
      <trkpt lat="48.84736" lon="2.35307">
        <ele>84.4</ele>
        <time>2013-08-05T18:28:28.000Z</time>
      </trkpt>
      <trkpt lat="48.84735" lon="2.35313">
        <ele>85</ele>
        <time>2013-08-05T18:28:29.000Z</time>
      </trkpt>
      <trkpt lat="48.84734" lon="2.35321">
        <ele>85.2</ele>
        <time>2013-08-05T18:28:30.000Z</time>
      </trkpt>
      <trkpt lat="48.84732" lon="2.35326">
        <ele>85.8</ele>
        <time>2013-08-05T18:28:31.000Z</time>
      </trkpt>
      <trkpt lat="48.84731" lon="2.35333">
        <ele>86</ele>
        <time>2013-08-05T18:28:32.000Z</time>
      </trkpt>
      <trkpt lat="48.84729" lon="2.35338">
        <ele>87.3</ele>
        <time>2013-08-05T18:28:33.000Z</time>
      </trkpt>
      <trkpt lat="48.84727" lon="2.35343">
        <ele>87.7</ele>
        <time>2013-08-05T18:28:34.000Z</time>
      </trkpt>
      <trkpt lat="48.84726" lon="2.35351">
        <ele>88.5</ele>
        <time>2013-08-05T18:28:35.000Z</time>
      </trkpt>
      <trkpt lat="48.84722" lon="2.35354">
        <ele>85.7</ele>
        <time>2013-08-05T18:28:36.000Z</time>
      </trkpt>
      <trkpt lat="48.84719" lon="2.35359">
        <ele>85.8</ele>
        <time>2013-08-05T18:28:37.000Z</time>
      </trkpt>
      <trkpt lat="48.84717" lon="2.35364">
        <ele>84.9</ele>
        <time>2013-08-05T18:28:38.000Z</time>
      </trkpt>
      <trkpt lat="48.84714" lon="2.35368">
        <ele>84.8</ele>
        <time>2013-08-05T18:28:39.000Z</time>
      </trkpt>
      <trkpt lat="48.84712" lon="2.35373">
        <ele>87.4</ele>
        <time>2013-08-05T18:28:40.000Z</time>
      </trkpt>
      <trkpt lat="48.84709" lon="2.35378">
        <ele>87.9</ele>
        <time>2013-08-05T18:28:41.000Z</time>
      </trkpt>
      <trkpt lat="48.84707" lon="2.35383">
        <ele>87.8</ele>
        <time>2013-08-05T18:28:42.000Z</time>
      </trkpt>
      <trkpt lat="48.84701" lon="2.35391">
        <ele>87.3</ele>
        <time>2013-08-05T18:28:43.000Z</time>
      </trkpt>
      <trkpt lat="48.84697" lon="2.35396">
        <ele>86.9</ele>
        <time>2013-08-05T18:28:44.000Z</time>
      </trkpt>
      <trkpt lat="48.84696" lon="2.35401">
        <ele>85.4</ele>
        <time>2013-08-05T18:28:45.000Z</time>
      </trkpt>
      <trkpt lat="48.84694" lon="2.35407">
        <ele>85.1</ele>
        <time>2013-08-05T18:28:46.000Z</time>
      </trkpt>
      <trkpt lat="48.84692" lon="2.35414">
        <ele>85.4</ele>
        <time>2013-08-05T18:28:47.000Z</time>
      </trkpt>
      <trkpt lat="48.84687" lon="2.35419">
        <ele>84.5</ele>
        <time>2013-08-05T18:28:48.000Z</time>
      </trkpt>
      <trkpt lat="48.84684" lon="2.35425">
        <ele>86.1</ele>
        <time>2013-08-05T18:28:49.000Z</time>
      </trkpt>
      <trkpt lat="48.84679" lon="2.35432">
        <ele>86.9</ele>
        <time>2013-08-05T18:28:50.000Z</time>
      </trkpt>
      <trkpt lat="48.84671" lon="2.35437">
        <ele>90.2</ele>
        <time>2013-08-05T18:28:51.000Z</time>
      </trkpt>
      <trkpt lat="48.84665" lon="2.35443">
        <ele>91.5</ele>
        <time>2013-08-05T18:28:52.000Z</time>
      </trkpt>
      <trkpt lat="48.84661" lon="2.35448">
        <ele>92.3</ele>
        <time>2013-08-05T18:28:53.000Z</time>
      </trkpt>
      <trkpt lat="48.84651" lon="2.35451">
        <ele>94.6</ele>
        <time>2013-08-05T18:28:54.000Z</time>
      </trkpt>
      <trkpt lat="48.84645" lon="2.35452">
        <ele>94.9</ele>
        <time>2013-08-05T18:28:55.000Z</time>
      </trkpt>
      <trkpt lat="48.84641" lon="2.35452">
        <ele>95.9</ele>
        <time>2013-08-05T18:28:56.000Z</time>
      </trkpt>
      <trkpt lat="48.84636" lon="2.35453">
        <ele>96.5</ele>
        <time>2013-08-05T18:28:57.000Z</time>
      </trkpt>
      <trkpt lat="48.84631" lon="2.35452">
        <ele>95.4</ele>
        <time>2013-08-05T18:28:58.000Z</time>
      </trkpt>
      <trkpt lat="48.84626" lon="2.35452">
        <ele>95.3</ele>
        <time>2013-08-05T18:28:59.000Z</time>
      </trkpt>
      <trkpt lat="48.84621" lon="2.35453">
        <ele>95.1</ele>
        <time>2013-08-05T18:29:00.000Z</time>
      </trkpt>
      <trkpt lat="48.84617" lon="2.35453">
        <ele>94.6</ele>
        <time>2013-08-05T18:29:01.000Z</time>
      </trkpt>
      <trkpt lat="48.84612" lon="2.35455">
        <ele>96.6</ele>
        <time>2013-08-05T18:29:02.000Z</time>
      </trkpt>
      <trkpt lat="48.84607" lon="2.35459">
        <ele>98.8</ele>
        <time>2013-08-05T18:29:03.000Z</time>
      </trkpt>
      <trkpt lat="48.84602" lon="2.35461">
        <ele>99.8</ele>
        <time>2013-08-05T18:29:04.000Z</time>
      </trkpt>
      <trkpt lat="48.84597" lon="2.35461">
        <ele>100.2</ele>
        <time>2013-08-05T18:29:05.000Z</time>
      </trkpt>
      <trkpt lat="48.84593" lon="2.35463">
        <ele>101.1</ele>
        <time>2013-08-05T18:29:06.000Z</time>
      </trkpt>
      <trkpt lat="48.84588" lon="2.35466">
        <ele>102</ele>
        <time>2013-08-05T18:29:07.000Z</time>
      </trkpt>
      <trkpt lat="48.84583" lon="2.35467">
        <ele>101.2</ele>
        <time>2013-08-05T18:29:08.000Z</time>
      </trkpt>
      <trkpt lat="48.84579" lon="2.35468">
        <ele>101.6</ele>
        <time>2013-08-05T18:29:09.000Z</time>
      </trkpt>
      <trkpt lat="48.84574" lon="2.35469">
        <ele>101.6</ele>
        <time>2013-08-05T18:29:10.000Z</time>
      </trkpt>
      <trkpt lat="48.8457" lon="2.35469">
        <ele>102.9</ele>
        <time>2013-08-05T18:29:11.000Z</time>
      </trkpt>
      <trkpt lat="48.84565" lon="2.3547">
        <ele>102.8</ele>
        <time>2013-08-05T18:29:12.000Z</time>
      </trkpt>
      <trkpt lat="48.84561" lon="2.35471">
        <ele>102.3</ele>
        <time>2013-08-05T18:29:13.000Z</time>
      </trkpt>
      <trkpt lat="48.84556" lon="2.35473">
        <ele>102.3</ele>
        <time>2013-08-05T18:29:14.000Z</time>
      </trkpt>
      <trkpt lat="48.84551" lon="2.35473">
        <ele>103.2</ele>
        <time>2013-08-05T18:29:15.000Z</time>
      </trkpt>
      <trkpt lat="48.84546" lon="2.35475">
        <ele>103.7</ele>
        <time>2013-08-05T18:29:16.000Z</time>
      </trkpt>
      <trkpt lat="48.8454" lon="2.35478">
        <ele>104.3</ele>
        <time>2013-08-05T18:29:17.000Z</time>
      </trkpt>
      <trkpt lat="48.84536" lon="2.35479">
        <ele>105</ele>
        <time>2013-08-05T18:29:18.000Z</time>
      </trkpt>
      <trkpt lat="48.84531" lon="2.3548">
        <ele>104.5</ele>
        <time>2013-08-05T18:29:19.000Z</time>
      </trkpt>
      <trkpt lat="48.84526" lon="2.35481">
        <ele>105.6</ele>
        <time>2013-08-05T18:29:20.000Z</time>
      </trkpt>
      <trkpt lat="48.84521" lon="2.35482">
        <ele>106.1</ele>
        <time>2013-08-05T18:29:21.000Z</time>
      </trkpt>
      <trkpt lat="48.84517" lon="2.35482">
        <ele>105.4</ele>
        <time>2013-08-05T18:29:22.000Z</time>
      </trkpt>
      <trkpt lat="48.84512" lon="2.35483">
        <ele>104.3</ele>
        <time>2013-08-05T18:29:23.000Z</time>
      </trkpt>
      <trkpt lat="48.84507" lon="2.35483">
        <ele>104.1</ele>
        <time>2013-08-05T18:29:24.000Z</time>
      </trkpt>
      <trkpt lat="48.84503" lon="2.35483">
        <ele>104.1</ele>
        <time>2013-08-05T18:29:25.000Z</time>
      </trkpt>
      <trkpt lat="48.84498" lon="2.35485">
        <ele>104.6</ele>
        <time>2013-08-05T18:29:26.000Z</time>
      </trkpt>
      <trkpt lat="48.84494" lon="2.35485">
        <ele>105.3</ele>
        <time>2013-08-05T18:29:27.000Z</time>
      </trkpt>
      <trkpt lat="48.84489" lon="2.35486">
        <ele>105.1</ele>
        <time>2013-08-05T18:29:28.000Z</time>
      </trkpt>
      <trkpt lat="48.84484" lon="2.35487">
        <ele>105.8</ele>
        <time>2013-08-05T18:29:29.000Z</time>
      </trkpt>
      <trkpt lat="48.8448" lon="2.35487">
        <ele>105.4</ele>
        <time>2013-08-05T18:29:30.000Z</time>
      </trkpt>
      <trkpt lat="48.84475" lon="2.3549">
        <ele>105.6</ele>
        <time>2013-08-05T18:29:31.000Z</time>
      </trkpt>
      <trkpt lat="48.84471" lon="2.35489">
        <ele>104.4</ele>
        <time>2013-08-05T18:29:32.000Z</time>
      </trkpt>
      <trkpt lat="48.84466" lon="2.3549">
        <ele>103.8</ele>
        <time>2013-08-05T18:29:33.000Z</time>
      </trkpt>
      <trkpt lat="48.84462" lon="2.35492">
        <ele>103.2</ele>
        <time>2013-08-05T18:29:34.000Z</time>
      </trkpt>
      <trkpt lat="48.84458" lon="2.35491">
        <ele>103.4</ele>
        <time>2013-08-05T18:29:35.000Z</time>
      </trkpt>
      <trkpt lat="48.84454" lon="2.35492">
        <ele>103.3</ele>
        <time>2013-08-05T18:29:36.000Z</time>
      </trkpt>
      <trkpt lat="48.84449" lon="2.35491">
        <ele>102.6</ele>
        <time>2013-08-05T18:29:37.000Z</time>
      </trkpt>
      <trkpt lat="48.84445" lon="2.35493">
        <ele>103.3</ele>
        <time>2013-08-05T18:29:38.000Z</time>
      </trkpt>
      <trkpt lat="48.8444" lon="2.35493">
        <ele>103.5</ele>
        <time>2013-08-05T18:29:39.000Z</time>
      </trkpt>
      <trkpt lat="48.84435" lon="2.35494">
        <ele>103.6</ele>
        <time>2013-08-05T18:29:40.000Z</time>
      </trkpt>
      <trkpt lat="48.84429" lon="2.35495">
        <ele>103.7</ele>
        <time>2013-08-05T18:29:41.000Z</time>
      </trkpt>
      <trkpt lat="48.84425" lon="2.35496">
        <ele>103.4</ele>
        <time>2013-08-05T18:29:42.000Z</time>
      </trkpt>
      <trkpt lat="48.84421" lon="2.35495">
        <ele>103.9</ele>
        <time>2013-08-05T18:29:43.000Z</time>
      </trkpt>
      <trkpt lat="48.84417" lon="2.35496">
        <ele>104</ele>
        <time>2013-08-05T18:29:44.000Z</time>
      </trkpt>
      <trkpt lat="48.84413" lon="2.35496">
        <ele>104</ele>
        <time>2013-08-05T18:29:45.000Z</time>
      </trkpt>
      <trkpt lat="48.84409" lon="2.35498">
        <ele>104.9</ele>
        <time>2013-08-05T18:29:46.000Z</time>
      </trkpt>
      <trkpt lat="48.84406" lon="2.35498">
        <ele>106</ele>
        <time>2013-08-05T18:29:47.000Z</time>
      </trkpt>
      <trkpt lat="48.84402" lon="2.35499">
        <ele>105</ele>
        <time>2013-08-05T18:29:48.000Z</time>
      </trkpt>
      <trkpt lat="48.84399" lon="2.355">
        <ele>105.7</ele>
        <time>2013-08-05T18:29:49.000Z</time>
      </trkpt>
      <trkpt lat="48.84397" lon="2.35501">
        <ele>106.4</ele>
        <time>2013-08-05T18:29:50.000Z</time>
      </trkpt>
      <trkpt lat="48.84394" lon="2.35503">
        <ele>106.7</ele>
        <time>2013-08-05T18:29:51.000Z</time>
      </trkpt>
      <trkpt lat="48.84391" lon="2.35505">
        <ele>106.5</ele>
        <time>2013-08-05T18:29:52.000Z</time>
      </trkpt>
      <trkpt lat="48.84389" lon="2.35507">
        <ele>106.2</ele>
        <time>2013-08-05T18:29:53.000Z</time>
      </trkpt>
      <trkpt lat="48.84387" lon="2.3551">
        <ele>106.7</ele>
        <time>2013-08-05T18:29:54.000Z</time>
      </trkpt>
      <trkpt lat="48.84386" lon="2.35513">
        <ele>106.4</ele>
        <time>2013-08-05T18:29:55.000Z</time>
      </trkpt>
      <trkpt lat="48.84385" lon="2.35517">
        <ele>106.5</ele>
        <time>2013-08-05T18:29:56.000Z</time>
      </trkpt>
      <trkpt lat="48.84385" lon="2.35522">
        <ele>104.8</ele>
        <time>2013-08-05T18:29:57.000Z</time>
      </trkpt>
      <trkpt lat="48.84386" lon="2.35526">
        <ele>103.8</ele>
        <time>2013-08-05T18:29:58.000Z</time>
      </trkpt>
      <trkpt lat="48.84387" lon="2.35531">
        <ele>102.8</ele>
        <time>2013-08-05T18:29:59.000Z</time>
      </trkpt>
      <trkpt lat="48.84389" lon="2.35535">
        <ele>102.2</ele>
        <time>2013-08-05T18:30:00.000Z</time>
      </trkpt>
      <trkpt lat="48.84391" lon="2.35539">
        <ele>101.4</ele>
        <time>2013-08-05T18:30:01.000Z</time>
      </trkpt>
      <trkpt lat="48.84394" lon="2.35543">
        <ele>101</ele>
        <time>2013-08-05T18:30:02.000Z</time>
      </trkpt>
      <trkpt lat="48.84398" lon="2.35548">
        <ele>101.7</ele>
        <time>2013-08-05T18:30:03.000Z</time>
      </trkpt>
      <trkpt lat="48.84402" lon="2.35553">
        <ele>101.7</ele>
        <time>2013-08-05T18:30:04.000Z</time>
      </trkpt>
      <trkpt lat="48.8441" lon="2.35557">
        <ele>101.9</ele>
        <time>2013-08-05T18:30:05.000Z</time>
      </trkpt>
      <trkpt lat="48.84413" lon="2.35563">
        <ele>102</ele>
        <time>2013-08-05T18:30:06.000Z</time>
      </trkpt>
      <trkpt lat="48.84416" lon="2.35571">
        <ele>100.9</ele>
        <time>2013-08-05T18:30:07.000Z</time>
      </trkpt>
      <trkpt lat="48.8442" lon="2.35579">
        <ele>101.1</ele>
        <time>2013-08-05T18:30:08.000Z</time>
      </trkpt>
      <trkpt lat="48.84423" lon="2.35587">
        <ele>100.9</ele>
        <time>2013-08-05T18:30:09.000Z</time>
      </trkpt>
      <trkpt lat="48.84427" lon="2.35594">
        <ele>101.3</ele>
        <time>2013-08-05T18:30:10.000Z</time>
      </trkpt>
      <trkpt lat="48.84431" lon="2.35597">
        <ele>99.8</ele>
        <time>2013-08-05T18:30:11.000Z</time>
      </trkpt>
      <trkpt lat="48.84433" lon="2.35602">
        <ele>99.7</ele>
        <time>2013-08-05T18:30:12.000Z</time>
      </trkpt>
      <trkpt lat="48.84438" lon="2.35607">
        <ele>100.5</ele>
        <time>2013-08-05T18:30:13.000Z</time>
      </trkpt>
      <trkpt lat="48.84443" lon="2.35615">
        <ele>99.5</ele>
        <time>2013-08-05T18:30:14.000Z</time>
      </trkpt>
      <trkpt lat="48.84446" lon="2.35622">
        <ele>99.6</ele>
        <time>2013-08-05T18:30:15.000Z</time>
      </trkpt>
      <trkpt lat="48.8445" lon="2.35629">
        <ele>100</ele>
        <time>2013-08-05T18:30:16.000Z</time>
      </trkpt>
      <trkpt lat="48.84453" lon="2.35635">
        <ele>100.9</ele>
        <time>2013-08-05T18:30:17.000Z</time>
      </trkpt>
      <trkpt lat="48.84456" lon="2.35642">
        <ele>100.5</ele>
        <time>2013-08-05T18:30:18.000Z</time>
      </trkpt>
      <trkpt lat="48.84459" lon="2.35649">
        <ele>99.3</ele>
        <time>2013-08-05T18:30:19.000Z</time>
      </trkpt>
      <trkpt lat="48.84462" lon="2.35654">
        <ele>98</ele>
        <time>2013-08-05T18:30:20.000Z</time>
      </trkpt>
      <trkpt lat="48.84466" lon="2.3566">
        <ele>97.2</ele>
        <time>2013-08-05T18:30:21.000Z</time>
      </trkpt>
      <trkpt lat="48.84469" lon="2.35666">
        <ele>96.7</ele>
        <time>2013-08-05T18:30:22.000Z</time>
      </trkpt>
      <trkpt lat="48.84475" lon="2.35674">
        <ele>98.6</ele>
        <time>2013-08-05T18:30:23.000Z</time>
      </trkpt>
      <trkpt lat="48.8448" lon="2.35679">
        <ele>96.6</ele>
        <time>2013-08-05T18:30:24.000Z</time>
      </trkpt>
      <trkpt lat="48.84485" lon="2.35684">
        <ele>96.2</ele>
        <time>2013-08-05T18:30:25.000Z</time>
      </trkpt>
      <trkpt lat="48.84489" lon="2.35691">
        <ele>97.7</ele>
        <time>2013-08-05T18:30:26.000Z</time>
      </trkpt>
      <trkpt lat="48.84494" lon="2.35698">
        <ele>97.3</ele>
        <time>2013-08-05T18:30:27.000Z</time>
      </trkpt>
      <trkpt lat="48.84495" lon="2.35705">
        <ele>98</ele>
        <time>2013-08-05T18:30:28.000Z</time>
      </trkpt>
      <trkpt lat="48.84499" lon="2.35711">
        <ele>97.6</ele>
        <time>2013-08-05T18:30:29.000Z</time>
      </trkpt>
      <trkpt lat="48.84504" lon="2.35718">
        <ele>97</ele>
        <time>2013-08-05T18:30:30.000Z</time>
      </trkpt>
      <trkpt lat="48.8451" lon="2.35724">
        <ele>95.6</ele>
        <time>2013-08-05T18:30:31.000Z</time>
      </trkpt>
      <trkpt lat="48.84514" lon="2.35729">
        <ele>93.7</ele>
        <time>2013-08-05T18:30:32.000Z</time>
      </trkpt>
      <trkpt lat="48.84518" lon="2.35738">
        <ele>92.9</ele>
        <time>2013-08-05T18:30:33.000Z</time>
      </trkpt>
      <trkpt lat="48.84523" lon="2.35744">
        <ele>91.1</ele>
        <time>2013-08-05T18:30:34.000Z</time>
      </trkpt>
      <trkpt lat="48.84527" lon="2.35752">
        <ele>89.4</ele>
        <time>2013-08-05T18:30:35.000Z</time>
      </trkpt>
      <trkpt lat="48.84531" lon="2.3576">
        <ele>88.2</ele>
        <time>2013-08-05T18:30:36.000Z</time>
      </trkpt>
      <trkpt lat="48.84535" lon="2.35767">
        <ele>87.9</ele>
        <time>2013-08-05T18:30:37.000Z</time>
      </trkpt>
      <trkpt lat="48.84538" lon="2.35775">
        <ele>87.2</ele>
        <time>2013-08-05T18:30:38.000Z</time>
      </trkpt>
      <trkpt lat="48.84542" lon="2.35782">
        <ele>86.7</ele>
        <time>2013-08-05T18:30:39.000Z</time>
      </trkpt>
      <trkpt lat="48.84546" lon="2.35787">
        <ele>86.2</ele>
        <time>2013-08-05T18:30:40.000Z</time>
      </trkpt>
      <trkpt lat="48.8455" lon="2.35795">
        <ele>86.9</ele>
        <time>2013-08-05T18:30:41.000Z</time>
      </trkpt>
      <trkpt lat="48.84554" lon="2.35804">
        <ele>87.7</ele>
        <time>2013-08-05T18:30:42.000Z</time>
      </trkpt>
      <trkpt lat="48.84558" lon="2.35813">
        <ele>88.1</ele>
        <time>2013-08-05T18:30:43.000Z</time>
      </trkpt>
      <trkpt lat="48.84562" lon="2.35821">
        <ele>89.3</ele>
        <time>2013-08-05T18:30:44.000Z</time>
      </trkpt>
      <trkpt lat="48.84567" lon="2.35828">
        <ele>88.7</ele>
        <time>2013-08-05T18:30:45.000Z</time>
      </trkpt>
      <trkpt lat="48.8457" lon="2.35837">
        <ele>87.8</ele>
        <time>2013-08-05T18:30:46.000Z</time>
      </trkpt>
      <trkpt lat="48.84574" lon="2.35844">
        <ele>89</ele>
        <time>2013-08-05T18:30:47.000Z</time>
      </trkpt>
      <trkpt lat="48.84579" lon="2.35851">
        <ele>89</ele>
        <time>2013-08-05T18:30:48.000Z</time>
      </trkpt>
      <trkpt lat="48.84583" lon="2.3586">
        <ele>88.8</ele>
        <time>2013-08-05T18:30:49.000Z</time>
      </trkpt>
      <trkpt lat="48.84586" lon="2.35868">
        <ele>88.9</ele>
        <time>2013-08-05T18:30:50.000Z</time>
      </trkpt>
      <trkpt lat="48.8459" lon="2.35874">
        <ele>88.8</ele>
        <time>2013-08-05T18:30:51.000Z</time>
      </trkpt>
      <trkpt lat="48.84595" lon="2.35882">
        <ele>88.5</ele>
        <time>2013-08-05T18:30:52.000Z</time>
      </trkpt>
      <trkpt lat="48.84599" lon="2.35888">
        <ele>88.3</ele>
        <time>2013-08-05T18:30:53.000Z</time>
      </trkpt>
      <trkpt lat="48.84603" lon="2.35896">
        <ele>88.6</ele>
        <time>2013-08-05T18:30:54.000Z</time>
      </trkpt>
      <trkpt lat="48.84607" lon="2.35901">
        <ele>88.5</ele>
        <time>2013-08-05T18:30:55.000Z</time>
      </trkpt>
      <trkpt lat="48.8461" lon="2.35907">
        <ele>89.2</ele>
        <time>2013-08-05T18:30:56.000Z</time>
      </trkpt>
      <trkpt lat="48.84613" lon="2.35914">
        <ele>89.3</ele>
        <time>2013-08-05T18:30:57.000Z</time>
      </trkpt>
      <trkpt lat="48.84617" lon="2.3592">
        <ele>89.4</ele>
        <time>2013-08-05T18:30:58.000Z</time>
      </trkpt>
      <trkpt lat="48.8462" lon="2.35928">
        <ele>89.8</ele>
        <time>2013-08-05T18:30:59.000Z</time>
      </trkpt>
      <trkpt lat="48.84622" lon="2.35934">
        <ele>89.1</ele>
        <time>2013-08-05T18:31:00.000Z</time>
      </trkpt>
      <trkpt lat="48.84625" lon="2.35943">
        <ele>88.9</ele>
        <time>2013-08-05T18:31:01.000Z</time>
      </trkpt>
      <trkpt lat="48.84629" lon="2.35951">
        <ele>89.3</ele>
        <time>2013-08-05T18:31:02.000Z</time>
      </trkpt>
      <trkpt lat="48.84633" lon="2.35956">
        <ele>90.2</ele>
        <time>2013-08-05T18:31:03.000Z</time>
      </trkpt>
      <trkpt lat="48.84637" lon="2.35962">
        <ele>91.3</ele>
        <time>2013-08-05T18:31:04.000Z</time>
      </trkpt>
      <trkpt lat="48.84641" lon="2.3597">
        <ele>91.6</ele>
        <time>2013-08-05T18:31:05.000Z</time>
      </trkpt>
      <trkpt lat="48.84643" lon="2.35978">
        <ele>90.1</ele>
        <time>2013-08-05T18:31:06.000Z</time>
      </trkpt>
      <trkpt lat="48.84646" lon="2.35984">
        <ele>89.3</ele>
        <time>2013-08-05T18:31:07.000Z</time>
      </trkpt>
      <trkpt lat="48.8465" lon="2.35991">
        <ele>89</ele>
        <time>2013-08-05T18:31:08.000Z</time>
      </trkpt>
      <trkpt lat="48.84654" lon="2.35998">
        <ele>89.7</ele>
        <time>2013-08-05T18:31:09.000Z</time>
      </trkpt>
      <trkpt lat="48.84659" lon="2.36004">
        <ele>89</ele>
        <time>2013-08-05T18:31:10.000Z</time>
      </trkpt>
      <trkpt lat="48.84661" lon="2.3601">
        <ele>88.8</ele>
        <time>2013-08-05T18:31:11.000Z</time>
      </trkpt>
      <trkpt lat="48.84664" lon="2.36016">
        <ele>89.4</ele>
        <time>2013-08-05T18:31:12.000Z</time>
      </trkpt>
      <trkpt lat="48.84668" lon="2.36022">
        <ele>90.2</ele>
        <time>2013-08-05T18:31:13.000Z</time>
      </trkpt>
      <trkpt lat="48.8467" lon="2.36029">
        <ele>89.8</ele>
        <time>2013-08-05T18:31:14.000Z</time>
      </trkpt>
      <trkpt lat="48.84674" lon="2.36035">
        <ele>89.9</ele>
        <time>2013-08-05T18:31:15.000Z</time>
      </trkpt>
      <trkpt lat="48.84676" lon="2.36041">
        <ele>90.7</ele>
        <time>2013-08-05T18:31:16.000Z</time>
      </trkpt>
      <trkpt lat="48.84679" lon="2.36046">
        <ele>89.8</ele>
        <time>2013-08-05T18:31:17.000Z</time>
      </trkpt>
      <trkpt lat="48.84681" lon="2.36053">
        <ele>89.7</ele>
        <time>2013-08-05T18:31:18.000Z</time>
      </trkpt>
      <trkpt lat="48.84683" lon="2.36059">
        <ele>89.7</ele>
        <time>2013-08-05T18:31:19.000Z</time>
      </trkpt>
      <trkpt lat="48.84685" lon="2.36065">
        <ele>90.1</ele>
        <time>2013-08-05T18:31:20.000Z</time>
      </trkpt>
      <trkpt lat="48.84687" lon="2.36071">
        <ele>90.7</ele>
        <time>2013-08-05T18:31:21.000Z</time>
      </trkpt>
      <trkpt lat="48.84688" lon="2.36078">
        <ele>92.1</ele>
        <time>2013-08-05T18:31:24.000Z</time>
      </trkpt>
      <trkpt lat="48.84688" lon="2.36079">
        <ele>92.8</ele>
        <time>2013-08-05T18:31:25.000Z</time>
      </trkpt>
      <trkpt lat="48.84686" lon="2.36085">
        <ele>93.8</ele>
        <time>2013-08-05T18:31:47.000Z</time>
      </trkpt>
      <trkpt lat="48.84685" lon="2.36087">
        <ele>93.9</ele>
        <time>2013-08-05T18:31:48.000Z</time>
      </trkpt>
      <trkpt lat="48.84684" lon="2.36091">
        <ele>93.6</ele>
        <time>2013-08-05T18:31:49.000Z</time>
      </trkpt>
      <trkpt lat="48.84682" lon="2.36096">
        <ele>93.1</ele>
        <time>2013-08-05T18:31:50.000Z</time>
      </trkpt>
      <trkpt lat="48.8468" lon="2.361">
        <ele>93.4</ele>
        <time>2013-08-05T18:31:51.000Z</time>
      </trkpt>
      <trkpt lat="48.84677" lon="2.36105">
        <ele>93.3</ele>
        <time>2013-08-05T18:31:52.000Z</time>
      </trkpt>
      <trkpt lat="48.84674" lon="2.3611">
        <ele>92</ele>
        <time>2013-08-05T18:31:53.000Z</time>
      </trkpt>
      <trkpt lat="48.84671" lon="2.36115">
        <ele>91.2</ele>
        <time>2013-08-05T18:31:54.000Z</time>
      </trkpt>
      <trkpt lat="48.84667" lon="2.3612">
        <ele>89.7</ele>
        <time>2013-08-05T18:31:55.000Z</time>
      </trkpt>
      <trkpt lat="48.84662" lon="2.36129">
        <ele>89.3</ele>
        <time>2013-08-05T18:31:56.000Z</time>
      </trkpt>
      <trkpt lat="48.84659" lon="2.36134">
        <ele>89.4</ele>
        <time>2013-08-05T18:31:57.000Z</time>
      </trkpt>
      <trkpt lat="48.84654" lon="2.3614">
        <ele>87.6</ele>
        <time>2013-08-05T18:31:58.000Z</time>
      </trkpt>
      <trkpt lat="48.8465" lon="2.36146">
        <ele>86.5</ele>
        <time>2013-08-05T18:31:59.000Z</time>
      </trkpt>
      <trkpt lat="48.84645" lon="2.36152">
        <ele>85.9</ele>
        <time>2013-08-05T18:32:00.000Z</time>
      </trkpt>
      <trkpt lat="48.8464" lon="2.36158">
        <ele>85.8</ele>
        <time>2013-08-05T18:32:01.000Z</time>
      </trkpt>
      <trkpt lat="48.84637" lon="2.36165">
        <ele>87.2</ele>
        <time>2013-08-05T18:32:02.000Z</time>
      </trkpt>
      <trkpt lat="48.84632" lon="2.36171">
        <ele>87.6</ele>
        <time>2013-08-05T18:32:03.000Z</time>
      </trkpt>
      <trkpt lat="48.84627" lon="2.36178">
        <ele>87.5</ele>
        <time>2013-08-05T18:32:04.000Z</time>
      </trkpt>
      <trkpt lat="48.84625" lon="2.36186">
        <ele>87.6</ele>
        <time>2013-08-05T18:32:05.000Z</time>
      </trkpt>
      <trkpt lat="48.8462" lon="2.36193">
        <ele>87.5</ele>
        <time>2013-08-05T18:32:06.000Z</time>
      </trkpt>
      <trkpt lat="48.84615" lon="2.36199">
        <ele>88.1</ele>
        <time>2013-08-05T18:32:07.000Z</time>
      </trkpt>
      <trkpt lat="48.8461" lon="2.36205">
        <ele>88.3</ele>
        <time>2013-08-05T18:32:08.000Z</time>
      </trkpt>
      <trkpt lat="48.84606" lon="2.36211">
        <ele>88.8</ele>
        <time>2013-08-05T18:32:09.000Z</time>
      </trkpt>
      <trkpt lat="48.84601" lon="2.36218">
        <ele>88.4</ele>
        <time>2013-08-05T18:32:10.000Z</time>
      </trkpt>
      <trkpt lat="48.84596" lon="2.36224">
        <ele>88.9</ele>
        <time>2013-08-05T18:32:11.000Z</time>
      </trkpt>
      <trkpt lat="48.84591" lon="2.36231">
        <ele>88.8</ele>
        <time>2013-08-05T18:32:12.000Z</time>
      </trkpt>
      <trkpt lat="48.84586" lon="2.36238">
        <ele>88.2</ele>
        <time>2013-08-05T18:32:13.000Z</time>
      </trkpt>
      <trkpt lat="48.84582" lon="2.36244">
        <ele>87.3</ele>
        <time>2013-08-05T18:32:14.000Z</time>
      </trkpt>
      <trkpt lat="48.84577" lon="2.36251">
        <ele>87.1</ele>
        <time>2013-08-05T18:32:15.000Z</time>
      </trkpt>
      <trkpt lat="48.84573" lon="2.36258">
        <ele>87.1</ele>
        <time>2013-08-05T18:32:16.000Z</time>
      </trkpt>
      <trkpt lat="48.84569" lon="2.36264">
        <ele>86.6</ele>
        <time>2013-08-05T18:32:17.000Z</time>
      </trkpt>
      <trkpt lat="48.84564" lon="2.3627">
        <ele>86.9</ele>
        <time>2013-08-05T18:32:18.000Z</time>
      </trkpt>
      <trkpt lat="48.8456" lon="2.36277">
        <ele>87</ele>
        <time>2013-08-05T18:32:19.000Z</time>
      </trkpt>
      <trkpt lat="48.84556" lon="2.36283">
        <ele>86.7</ele>
        <time>2013-08-05T18:32:20.000Z</time>
      </trkpt>
      <trkpt lat="48.84551" lon="2.36289">
        <ele>86.4</ele>
        <time>2013-08-05T18:32:21.000Z</time>
      </trkpt>
      <trkpt lat="48.84547" lon="2.36295">
        <ele>86.3</ele>
        <time>2013-08-05T18:32:22.000Z</time>
      </trkpt>
      <trkpt lat="48.84543" lon="2.36301">
        <ele>85.9</ele>
        <time>2013-08-05T18:32:23.000Z</time>
      </trkpt>
      <trkpt lat="48.8454" lon="2.36307">
        <ele>87.3</ele>
        <time>2013-08-05T18:32:24.000Z</time>
      </trkpt>
      <trkpt lat="48.84536" lon="2.36313">
        <ele>87</ele>
        <time>2013-08-05T18:32:25.000Z</time>
      </trkpt>
      <trkpt lat="48.84532" lon="2.3632">
        <ele>87.3</ele>
        <time>2013-08-05T18:32:26.000Z</time>
      </trkpt>
      <trkpt lat="48.84529" lon="2.36327">
        <ele>86.8</ele>
        <time>2013-08-05T18:32:27.000Z</time>
      </trkpt>
      <trkpt lat="48.84526" lon="2.36332">
        <ele>88.6</ele>
        <time>2013-08-05T18:32:28.000Z</time>
      </trkpt>
      <trkpt lat="48.84522" lon="2.36338">
        <ele>89.1</ele>
        <time>2013-08-05T18:32:29.000Z</time>
      </trkpt>
      <trkpt lat="48.84519" lon="2.36344">
        <ele>89.2</ele>
        <time>2013-08-05T18:32:30.000Z</time>
      </trkpt>
      <trkpt lat="48.84514" lon="2.36349">
        <ele>88.7</ele>
        <time>2013-08-05T18:32:31.000Z</time>
      </trkpt>
      <trkpt lat="48.8451" lon="2.36356">
        <ele>88.6</ele>
        <time>2013-08-05T18:32:32.000Z</time>
      </trkpt>
      <trkpt lat="48.84505" lon="2.3636">
        <ele>88.3</ele>
        <time>2013-08-05T18:32:33.000Z</time>
      </trkpt>
      <trkpt lat="48.84501" lon="2.36365">
        <ele>87.6</ele>
        <time>2013-08-05T18:32:34.000Z</time>
      </trkpt>
      <trkpt lat="48.84497" lon="2.36371">
        <ele>86.9</ele>
        <time>2013-08-05T18:32:35.000Z</time>
      </trkpt>
      <trkpt lat="48.84494" lon="2.36374">
        <ele>86.8</ele>
        <time>2013-08-05T18:32:36.000Z</time>
      </trkpt>
      <trkpt lat="48.84491" lon="2.36378">
        <ele>86.9</ele>
        <time>2013-08-05T18:32:37.000Z</time>
      </trkpt>
      <trkpt lat="48.84489" lon="2.36383">
        <ele>86.8</ele>
        <time>2013-08-05T18:32:38.000Z</time>
      </trkpt>
      <trkpt lat="48.84485" lon="2.36386">
        <ele>86.2</ele>
        <time>2013-08-05T18:32:39.000Z</time>
      </trkpt>
      <trkpt lat="48.84481" lon="2.36391">
        <ele>86.3</ele>
        <time>2013-08-05T18:32:40.000Z</time>
      </trkpt>
      <trkpt lat="48.84478" lon="2.36394">
        <ele>86.3</ele>
        <time>2013-08-05T18:32:41.000Z</time>
      </trkpt>
      <trkpt lat="48.84475" lon="2.36397">
        <ele>85.8</ele>
        <time>2013-08-05T18:32:42.000Z</time>
      </trkpt>
      <trkpt lat="48.84473" lon="2.36399">
        <ele>86.2</ele>
        <time>2013-08-05T18:32:43.000Z</time>
      </trkpt>
      <trkpt lat="48.84471" lon="2.364">
        <ele>85.8</ele>
        <time>2013-08-05T18:32:44.000Z</time>
      </trkpt>
      <trkpt lat="48.84468" lon="2.36403">
        <ele>85.9</ele>
        <time>2013-08-05T18:32:46.000Z</time>
      </trkpt>
      <trkpt lat="48.84467" lon="2.36405">
        <ele>85.8</ele>
        <time>2013-08-05T18:32:47.000Z</time>
      </trkpt>
      <trkpt lat="48.84465" lon="2.36409">
        <ele>85.4</ele>
        <time>2013-08-05T18:32:49.000Z</time>
      </trkpt>
      <trkpt lat="48.84463" lon="2.36412">
        <ele>85.5</ele>
        <time>2013-08-05T18:32:50.000Z</time>
      </trkpt>
      <trkpt lat="48.84462" lon="2.36414">
        <ele>85.1</ele>
        <time>2013-08-05T18:32:51.000Z</time>
      </trkpt>
      <trkpt lat="48.8446" lon="2.36417">
        <ele>85.4</ele>
        <time>2013-08-05T18:32:52.000Z</time>
      </trkpt>
      <trkpt lat="48.84457" lon="2.36419">
        <ele>85.9</ele>
        <time>2013-08-05T18:32:53.000Z</time>
      </trkpt>
      <trkpt lat="48.84455" lon="2.36421">
        <ele>86.9</ele>
        <time>2013-08-05T18:32:54.000Z</time>
      </trkpt>
      <trkpt lat="48.84453" lon="2.36424">
        <ele>87.6</ele>
        <time>2013-08-05T18:32:55.000Z</time>
      </trkpt>
      <trkpt lat="48.84451" lon="2.36426">
        <ele>87.6</ele>
        <time>2013-08-05T18:32:56.000Z</time>
      </trkpt>
      <trkpt lat="48.84448" lon="2.36428">
        <ele>88.3</ele>
        <time>2013-08-05T18:32:57.000Z</time>
      </trkpt>
      <trkpt lat="48.84446" lon="2.3643">
        <ele>88.3</ele>
        <time>2013-08-05T18:32:58.000Z</time>
      </trkpt>
      <trkpt lat="48.84444" lon="2.36432">
        <ele>88.6</ele>
        <time>2013-08-05T18:32:59.000Z</time>
      </trkpt>
      <trkpt lat="48.84441" lon="2.36434">
        <ele>87.8</ele>
        <time>2013-08-05T18:33:00.000Z</time>
      </trkpt>
      <trkpt lat="48.84439" lon="2.36435">
        <ele>87.8</ele>
        <time>2013-08-05T18:33:01.000Z</time>
      </trkpt>
      <trkpt lat="48.84437" lon="2.36436">
        <ele>87.9</ele>
        <time>2013-08-05T18:33:02.000Z</time>
      </trkpt>
      <trkpt lat="48.84434" lon="2.36437">
        <ele>88</ele>
        <time>2013-08-05T18:33:03.000Z</time>
      </trkpt>
      <trkpt lat="48.84432" lon="2.36438">
        <ele>87.7</ele>
        <time>2013-08-05T18:33:04.000Z</time>
      </trkpt>
      <trkpt lat="48.84428" lon="2.3644">
        <ele>88</ele>
        <time>2013-08-05T18:33:06.000Z</time>
      </trkpt>
      <trkpt lat="48.84427" lon="2.3644">
        <ele>86.8</ele>
        <time>2013-08-05T18:33:07.000Z</time>
      </trkpt>
      <trkpt lat="48.84423" lon="2.36439">
        <ele>86.4</ele>
        <time>2013-08-05T18:33:10.000Z</time>
      </trkpt>
      <trkpt lat="48.84422" lon="2.36438">
        <ele>85.6</ele>
        <time>2013-08-05T18:33:11.000Z</time>
      </trkpt>
      <trkpt lat="48.84417" lon="2.36437">
        <ele>86.9</ele>
        <time>2013-08-05T18:33:14.000Z</time>
      </trkpt>
      <trkpt lat="48.84416" lon="2.36436">
        <ele>87.4</ele>
        <time>2013-08-05T18:33:15.000Z</time>
      </trkpt>
      <trkpt lat="48.84412" lon="2.36437">
        <ele>87.7</ele>
        <time>2013-08-05T18:33:18.000Z</time>
      </trkpt>
      <trkpt lat="48.84411" lon="2.36438">
        <ele>87.4</ele>
        <time>2013-08-05T18:33:19.000Z</time>
      </trkpt>
      <trkpt lat="48.84407" lon="2.36438">
        <ele>87.2</ele>
        <time>2013-08-05T18:33:22.000Z</time>
      </trkpt>
      <trkpt lat="48.84405" lon="2.36439">
        <ele>87.1</ele>
        <time>2013-08-05T18:33:23.000Z</time>
      </trkpt>
      <trkpt lat="48.84401" lon="2.36439">
        <ele>86.3</ele>
        <time>2013-08-05T18:33:26.000Z</time>
      </trkpt>
      <trkpt lat="48.844" lon="2.36439">
        <ele>86.4</ele>
        <time>2013-08-05T18:33:27.000Z</time>
      </trkpt>
      <trkpt lat="48.84396" lon="2.36439">
        <ele>86.8</ele>
        <time>2013-08-05T18:33:30.000Z</time>
      </trkpt>
      <trkpt lat="48.84395" lon="2.36438">
        <ele>86.6</ele>
        <time>2013-08-05T18:33:31.000Z</time>
      </trkpt>
      <trkpt lat="48.84391" lon="2.36439">
        <ele>86.3</ele>
        <time>2013-08-05T18:33:34.000Z</time>
      </trkpt>
      <trkpt lat="48.8439" lon="2.36439">
        <ele>86</ele>
        <time>2013-08-05T18:33:35.000Z</time>
      </trkpt>
      <trkpt lat="48.84385" lon="2.3644">
        <ele>86.1</ele>
        <time>2013-08-05T18:33:39.000Z</time>
      </trkpt>
      <trkpt lat="48.84384" lon="2.3644">
        <ele>86.3</ele>
        <time>2013-08-05T18:33:40.000Z</time>
      </trkpt>
      <trkpt lat="48.84381" lon="2.3644">
        <ele>85.8</ele>
        <time>2013-08-05T18:33:44.000Z</time>
      </trkpt>
      <trkpt lat="48.84379" lon="2.36441">
        <ele>85.7</ele>
        <time>2013-08-05T18:33:45.000Z</time>
      </trkpt>
      <trkpt lat="48.84376" lon="2.36444">
        <ele>86.3</ele>
        <time>2013-08-05T18:33:47.000Z</time>
      </trkpt>
      <trkpt lat="48.84374" lon="2.36444">
        <ele>86.1</ele>
        <time>2013-08-05T18:33:48.000Z</time>
      </trkpt>
      <trkpt lat="48.8437" lon="2.36446">
        <ele>85.6</ele>
        <time>2013-08-05T18:33:51.000Z</time>
      </trkpt>
      <trkpt lat="48.84369" lon="2.36447">
        <ele>85.6</ele>
        <time>2013-08-05T18:33:52.000Z</time>
      </trkpt>
      <trkpt lat="48.84368" lon="2.36453">
        <ele>83.8</ele>
        <time>2013-08-05T18:33:55.000Z</time>
      </trkpt>
      <trkpt lat="48.84367" lon="2.36455">
        <ele>83.4</ele>
        <time>2013-08-05T18:33:56.000Z</time>
      </trkpt>
      <trkpt lat="48.84366" lon="2.3646">
        <ele>83.5</ele>
        <time>2013-08-05T18:33:59.000Z</time>
      </trkpt>
      <trkpt lat="48.84365" lon="2.36464">
        <ele>83.2</ele>
        <time>2013-08-05T18:34:00.000Z</time>
      </trkpt>
      <trkpt lat="48.84365" lon="2.36467">
        <ele>83.2</ele>
        <time>2013-08-05T18:34:01.000Z</time>
      </trkpt>
      <trkpt lat="48.84363" lon="2.36471">
        <ele>83</ele>
        <time>2013-08-05T18:34:02.000Z</time>
      </trkpt>
      <trkpt lat="48.84362" lon="2.36474">
        <ele>83.1</ele>
        <time>2013-08-05T18:34:03.000Z</time>
      </trkpt>
      <trkpt lat="48.84361" lon="2.36477">
        <ele>83</ele>
        <time>2013-08-05T18:34:04.000Z</time>
      </trkpt>
      <trkpt lat="48.8436" lon="2.3648">
        <ele>82.7</ele>
        <time>2013-08-05T18:34:05.000Z</time>
      </trkpt>
      <trkpt lat="48.84359" lon="2.36483">
        <ele>82.7</ele>
        <time>2013-08-05T18:34:06.000Z</time>
      </trkpt>
      <trkpt lat="48.84358" lon="2.36486">
        <ele>82.4</ele>
        <time>2013-08-05T18:34:07.000Z</time>
      </trkpt>
      <trkpt lat="48.84357" lon="2.3649">
        <ele>83.8</ele>
        <time>2013-08-05T18:34:08.000Z</time>
      </trkpt>
      <trkpt lat="48.84357" lon="2.36493">
        <ele>84.1</ele>
        <time>2013-08-05T18:34:09.000Z</time>
      </trkpt>
      <trkpt lat="48.84356" lon="2.36497">
        <ele>84.1</ele>
        <time>2013-08-05T18:34:10.000Z</time>
      </trkpt>
      <trkpt lat="48.84356" lon="2.36501">
        <ele>83.8</ele>
        <time>2013-08-05T18:34:11.000Z</time>
      </trkpt>
      <trkpt lat="48.84356" lon="2.36504">
        <ele>84</ele>
        <time>2013-08-05T18:34:12.000Z</time>
      </trkpt>
      <trkpt lat="48.84356" lon="2.36508">
        <ele>84</ele>
        <time>2013-08-05T18:34:13.000Z</time>
      </trkpt>
      <trkpt lat="48.84356" lon="2.36512">
        <ele>84.1</ele>
        <time>2013-08-05T18:34:14.000Z</time>
      </trkpt>
      <trkpt lat="48.84355" lon="2.36515">
        <ele>83.7</ele>
        <time>2013-08-05T18:34:15.000Z</time>
      </trkpt>
      <trkpt lat="48.84355" lon="2.36518">
        <ele>83.2</ele>
        <time>2013-08-05T18:34:16.000Z</time>
      </trkpt>
      <trkpt lat="48.84355" lon="2.36522">
        <ele>83.8</ele>
        <time>2013-08-05T18:34:17.000Z</time>
      </trkpt>
      <trkpt lat="48.84355" lon="2.36526">
        <ele>83.8</ele>
        <time>2013-08-05T18:34:18.000Z</time>
      </trkpt>
      <trkpt lat="48.84356" lon="2.36529">
        <ele>84.2</ele>
        <time>2013-08-05T18:34:19.000Z</time>
      </trkpt>
      <trkpt lat="48.84357" lon="2.36532">
        <ele>86</ele>
        <time>2013-08-05T18:34:20.000Z</time>
      </trkpt>
      <trkpt lat="48.84357" lon="2.36536">
        <ele>86.6</ele>
        <time>2013-08-05T18:34:21.000Z</time>
      </trkpt>
      <trkpt lat="48.84358" lon="2.36539">
        <ele>87</ele>
        <time>2013-08-05T18:34:22.000Z</time>
      </trkpt>
      <trkpt lat="48.84359" lon="2.36543">
        <ele>87.4</ele>
        <time>2013-08-05T18:34:23.000Z</time>
      </trkpt>
      <trkpt lat="48.84358" lon="2.36547">
        <ele>87.7</ele>
        <time>2013-08-05T18:34:24.000Z</time>
      </trkpt>
      <trkpt lat="48.84357" lon="2.3655">
        <ele>86.9</ele>
        <time>2013-08-05T18:34:25.000Z</time>
      </trkpt>
      <trkpt lat="48.84354" lon="2.36552">
        <ele>86.3</ele>
        <time>2013-08-05T18:34:26.000Z</time>
      </trkpt>
      <trkpt lat="48.84351" lon="2.36555">
        <ele>84.9</ele>
        <time>2013-08-05T18:34:27.000Z</time>
      </trkpt>
      <trkpt lat="48.84348" lon="2.36558">
        <ele>83.9</ele>
        <time>2013-08-05T18:34:28.000Z</time>
      </trkpt>
      <trkpt lat="48.84345" lon="2.36562">
        <ele>84.2</ele>
        <time>2013-08-05T18:34:29.000Z</time>
      </trkpt>
      <trkpt lat="48.84343" lon="2.36565">
        <ele>84.5</ele>
        <time>2013-08-05T18:34:30.000Z</time>
      </trkpt>
      <trkpt lat="48.84342" lon="2.36569">
        <ele>83.5</ele>
        <time>2013-08-05T18:34:31.000Z</time>
      </trkpt>
      <trkpt lat="48.8434" lon="2.36573">
        <ele>82.4</ele>
        <time>2013-08-05T18:34:32.000Z</time>
      </trkpt>
      <trkpt lat="48.84337" lon="2.36577">
        <ele>82.3</ele>
        <time>2013-08-05T18:34:33.000Z</time>
      </trkpt>
      <trkpt lat="48.84334" lon="2.36582">
        <ele>81</ele>
        <time>2013-08-05T18:34:34.000Z</time>
      </trkpt>
      <trkpt lat="48.8433" lon="2.36587">
        <ele>80.2</ele>
        <time>2013-08-05T18:34:35.000Z</time>
      </trkpt>
      <trkpt lat="48.84326" lon="2.36593">
        <ele>80.5</ele>
        <time>2013-08-05T18:34:36.000Z</time>
      </trkpt>
      <trkpt lat="48.8432" lon="2.36603">
        <ele>80.8</ele>
        <time>2013-08-05T18:34:37.000Z</time>
      </trkpt>
      <trkpt lat="48.84315" lon="2.36609">
        <ele>78.9</ele>
        <time>2013-08-05T18:34:38.000Z</time>
      </trkpt>
      <trkpt lat="48.84311" lon="2.36616">
        <ele>79.3</ele>
        <time>2013-08-05T18:34:39.000Z</time>
      </trkpt>
      <trkpt lat="48.84307" lon="2.36622">
        <ele>79.5</ele>
        <time>2013-08-05T18:34:40.000Z</time>
      </trkpt>
      <trkpt lat="48.84303" lon="2.36629">
        <ele>79.4</ele>
        <time>2013-08-05T18:34:41.000Z</time>
      </trkpt>
      <trkpt lat="48.84298" lon="2.36636">
        <ele>79.4</ele>
        <time>2013-08-05T18:34:42.000Z</time>
      </trkpt>
      <trkpt lat="48.84292" lon="2.36642">
        <ele>78.1</ele>
        <time>2013-08-05T18:34:43.000Z</time>
      </trkpt>
      <trkpt lat="48.84287" lon="2.36648">
        <ele>79.5</ele>
        <time>2013-08-05T18:34:44.000Z</time>
      </trkpt>
      <trkpt lat="48.84282" lon="2.36654">
        <ele>80.1</ele>
        <time>2013-08-05T18:34:45.000Z</time>
      </trkpt>
      <trkpt lat="48.8428" lon="2.36661">
        <ele>81</ele>
        <time>2013-08-05T18:34:46.000Z</time>
      </trkpt>
      <trkpt lat="48.84276" lon="2.3667">
        <ele>79.3</ele>
        <time>2013-08-05T18:34:47.000Z</time>
      </trkpt>
      <trkpt lat="48.8427" lon="2.36675">
        <ele>78.8</ele>
        <time>2013-08-05T18:34:48.000Z</time>
      </trkpt>
      <trkpt lat="48.84265" lon="2.3668">
        <ele>78.4</ele>
        <time>2013-08-05T18:34:49.000Z</time>
      </trkpt>
      <trkpt lat="48.84261" lon="2.36684">
        <ele>78.5</ele>
        <time>2013-08-05T18:34:50.000Z</time>
      </trkpt>
      <trkpt lat="48.84256" lon="2.3669">
        <ele>78.5</ele>
        <time>2013-08-05T18:34:51.000Z</time>
      </trkpt>
      <trkpt lat="48.84251" lon="2.36697">
        <ele>78.1</ele>
        <time>2013-08-05T18:34:52.000Z</time>
      </trkpt>
      <trkpt lat="48.84245" lon="2.36705">
        <ele>77.1</ele>
        <time>2013-08-05T18:34:53.000Z</time>
      </trkpt>
      <trkpt lat="48.84242" lon="2.36711">
        <ele>78.3</ele>
        <time>2013-08-05T18:34:54.000Z</time>
      </trkpt>
      <trkpt lat="48.84237" lon="2.36715">
        <ele>78.3</ele>
        <time>2013-08-05T18:34:55.000Z</time>
      </trkpt>
      <trkpt lat="48.84233" lon="2.36719">
        <ele>78.2</ele>
        <time>2013-08-05T18:34:56.000Z</time>
      </trkpt>
      <trkpt lat="48.84229" lon="2.36725">
        <ele>78.7</ele>
        <time>2013-08-05T18:34:57.000Z</time>
      </trkpt>
      <trkpt lat="48.84226" lon="2.36732">
        <ele>79.1</ele>
        <time>2013-08-05T18:34:58.000Z</time>
      </trkpt>
      <trkpt lat="48.84223" lon="2.36736">
        <ele>81.7</ele>
        <time>2013-08-05T18:34:59.000Z</time>
      </trkpt>
      <trkpt lat="48.8422" lon="2.36741">
        <ele>81.3</ele>
        <time>2013-08-05T18:35:00.000Z</time>
      </trkpt>
      <trkpt lat="48.84218" lon="2.36745">
        <ele>82.4</ele>
        <time>2013-08-05T18:35:01.000Z</time>
      </trkpt>
      <trkpt lat="48.84215" lon="2.36749">
        <ele>82.7</ele>
        <time>2013-08-05T18:35:02.000Z</time>
      </trkpt>
      <trkpt lat="48.84214" lon="2.36752">
        <ele>84.7</ele>
        <time>2013-08-05T18:35:03.000Z</time>
      </trkpt>
      <trkpt lat="48.84211" lon="2.36756">
        <ele>84.9</ele>
        <time>2013-08-05T18:35:04.000Z</time>
      </trkpt>
      <trkpt lat="48.84209" lon="2.36761">
        <ele>85.2</ele>
        <time>2013-08-05T18:35:05.000Z</time>
      </trkpt>
      <trkpt lat="48.84207" lon="2.36764">
        <ele>85</ele>
        <time>2013-08-05T18:35:06.000Z</time>
      </trkpt>
      <trkpt lat="48.84205" lon="2.36768">
        <ele>85.1</ele>
        <time>2013-08-05T18:35:07.000Z</time>
      </trkpt>
      <trkpt lat="48.84202" lon="2.3677">
        <ele>85</ele>
        <time>2013-08-05T18:35:08.000Z</time>
      </trkpt>
      <trkpt lat="48.842" lon="2.36774">
        <ele>85.9</ele>
        <time>2013-08-05T18:35:09.000Z</time>
      </trkpt>
      <trkpt lat="48.84198" lon="2.36775">
        <ele>86.7</ele>
        <time>2013-08-05T18:35:10.000Z</time>
      </trkpt>
      <trkpt lat="48.84195" lon="2.36777">
        <ele>86.8</ele>
        <time>2013-08-05T18:35:11.000Z</time>
      </trkpt>
      <trkpt lat="48.84193" lon="2.36778">
        <ele>87.1</ele>
        <time>2013-08-05T18:35:12.000Z</time>
      </trkpt>
      <trkpt lat="48.84188" lon="2.36779">
        <ele>88</ele>
        <time>2013-08-05T18:35:15.000Z</time>
      </trkpt>
      <trkpt lat="48.84188" lon="2.36779">
        <ele>88.7</ele>
        <time>2013-08-05T18:35:16.000Z</time>
      </trkpt>
      <trkpt lat="48.84185" lon="2.36781">
        <ele>89.2</ele>
        <time>2013-08-05T18:35:19.000Z</time>
      </trkpt>
      <trkpt lat="48.84184" lon="2.36782">
        <ele>88.3</ele>
        <time>2013-08-05T18:35:20.000Z</time>
      </trkpt>
      <trkpt lat="48.84183" lon="2.36787">
        <ele>88.8</ele>
        <time>2013-08-05T18:35:31.000Z</time>
      </trkpt>
      <trkpt lat="48.84183" lon="2.36789">
        <ele>88.9</ele>
        <time>2013-08-05T18:35:32.000Z</time>
      </trkpt>
      <trkpt lat="48.84182" lon="2.36794">
        <ele>90.1</ele>
        <time>2013-08-05T18:35:35.000Z</time>
      </trkpt>
      <trkpt lat="48.84181" lon="2.36796">
        <ele>90.5</ele>
        <time>2013-08-05T18:35:36.000Z</time>
      </trkpt>
      <trkpt lat="48.84178" lon="2.368">
        <ele>89.8</ele>
        <time>2013-08-05T18:35:38.000Z</time>
      </trkpt>
      <trkpt lat="48.84176" lon="2.36802">
        <ele>90.4</ele>
        <time>2013-08-05T18:35:39.000Z</time>
      </trkpt>
      <trkpt lat="48.84174" lon="2.36804">
        <ele>90</ele>
        <time>2013-08-05T18:35:40.000Z</time>
      </trkpt>
      <trkpt lat="48.84172" lon="2.36807">
        <ele>89.6</ele>
        <time>2013-08-05T18:35:41.000Z</time>
      </trkpt>
      <trkpt lat="48.84169" lon="2.36811">
        <ele>88.7</ele>
        <time>2013-08-05T18:35:42.000Z</time>
      </trkpt>
      <trkpt lat="48.84165" lon="2.36816">
        <ele>88.5</ele>
        <time>2013-08-05T18:35:43.000Z</time>
      </trkpt>
      <trkpt lat="48.84162" lon="2.3682">
        <ele>88</ele>
        <time>2013-08-05T18:35:44.000Z</time>
      </trkpt>
      <trkpt lat="48.84159" lon="2.36825">
        <ele>87.6</ele>
        <time>2013-08-05T18:35:45.000Z</time>
      </trkpt>
      <trkpt lat="48.84153" lon="2.36832">
        <ele>86.6</ele>
        <time>2013-08-05T18:35:46.000Z</time>
      </trkpt>
      <trkpt lat="48.84149" lon="2.36838">
        <ele>85.6</ele>
        <time>2013-08-05T18:35:47.000Z</time>
      </trkpt>
      <trkpt lat="48.84144" lon="2.36844">
        <ele>85</ele>
        <time>2013-08-05T18:35:48.000Z</time>
      </trkpt>
      <trkpt lat="48.8414" lon="2.3685">
        <ele>84.7</ele>
        <time>2013-08-05T18:35:49.000Z</time>
      </trkpt>
      <trkpt lat="48.84135" lon="2.36857">
        <ele>84.8</ele>
        <time>2013-08-05T18:35:50.000Z</time>
      </trkpt>
      <trkpt lat="48.8413" lon="2.36863">
        <ele>84.4</ele>
        <time>2013-08-05T18:35:51.000Z</time>
      </trkpt>
      <trkpt lat="48.84125" lon="2.36869">
        <ele>83.6</ele>
        <time>2013-08-05T18:35:52.000Z</time>
      </trkpt>
      <trkpt lat="48.8412" lon="2.36876">
        <ele>82</ele>
        <time>2013-08-05T18:35:53.000Z</time>
      </trkpt>
      <trkpt lat="48.84115" lon="2.36883">
        <ele>81.1</ele>
        <time>2013-08-05T18:35:54.000Z</time>
      </trkpt>
      <trkpt lat="48.84109" lon="2.36889">
        <ele>80.5</ele>
        <time>2013-08-05T18:35:55.000Z</time>
      </trkpt>
      <trkpt lat="48.84104" lon="2.36896">
        <ele>80.4</ele>
        <time>2013-08-05T18:35:56.000Z</time>
      </trkpt>
      <trkpt lat="48.84098" lon="2.36902">
        <ele>80.1</ele>
        <time>2013-08-05T18:35:57.000Z</time>
      </trkpt>
      <trkpt lat="48.84093" lon="2.3691">
        <ele>80.1</ele>
        <time>2013-08-05T18:35:58.000Z</time>
      </trkpt>
      <trkpt lat="48.84087" lon="2.36917">
        <ele>79.9</ele>
        <time>2013-08-05T18:35:59.000Z</time>
      </trkpt>
      <trkpt lat="48.84082" lon="2.36924">
        <ele>79.2</ele>
        <time>2013-08-05T18:36:00.000Z</time>
      </trkpt>
      <trkpt lat="48.84077" lon="2.36931">
        <ele>79.7</ele>
        <time>2013-08-05T18:36:01.000Z</time>
      </trkpt>
      <trkpt lat="48.84072" lon="2.36938">
        <ele>79.7</ele>
        <time>2013-08-05T18:36:02.000Z</time>
      </trkpt>
      <trkpt lat="48.84066" lon="2.36946">
        <ele>80</ele>
        <time>2013-08-05T18:36:03.000Z</time>
      </trkpt>
      <trkpt lat="48.84061" lon="2.36953">
        <ele>80.4</ele>
        <time>2013-08-05T18:36:04.000Z</time>
      </trkpt>
      <trkpt lat="48.84056" lon="2.36961">
        <ele>81.5</ele>
        <time>2013-08-05T18:36:05.000Z</time>
      </trkpt>
      <trkpt lat="48.84051" lon="2.36968">
        <ele>82.7</ele>
        <time>2013-08-05T18:36:06.000Z</time>
      </trkpt>
      <trkpt lat="48.84047" lon="2.36976">
        <ele>83.2</ele>
        <time>2013-08-05T18:36:07.000Z</time>
      </trkpt>
      <trkpt lat="48.84042" lon="2.36984">
        <ele>84</ele>
        <time>2013-08-05T18:36:08.000Z</time>
      </trkpt>
      <trkpt lat="48.84037" lon="2.36991">
        <ele>84.8</ele>
        <time>2013-08-05T18:36:09.000Z</time>
      </trkpt>
      <trkpt lat="48.84033" lon="2.36998">
        <ele>85</ele>
        <time>2013-08-05T18:36:10.000Z</time>
      </trkpt>
      <trkpt lat="48.84028" lon="2.37006">
        <ele>84.3</ele>
        <time>2013-08-05T18:36:11.000Z</time>
      </trkpt>
      <trkpt lat="48.84025" lon="2.37014">
        <ele>83.7</ele>
        <time>2013-08-05T18:36:12.000Z</time>
      </trkpt>
      <trkpt lat="48.84021" lon="2.37023">
        <ele>83.6</ele>
        <time>2013-08-05T18:36:13.000Z</time>
      </trkpt>
      <trkpt lat="48.84017" lon="2.3703">
        <ele>83.7</ele>
        <time>2013-08-05T18:36:14.000Z</time>
      </trkpt>
      <trkpt lat="48.84012" lon="2.37037">
        <ele>84.2</ele>
        <time>2013-08-05T18:36:15.000Z</time>
      </trkpt>
      <trkpt lat="48.84006" lon="2.37043">
        <ele>82.2</ele>
        <time>2013-08-05T18:36:16.000Z</time>
      </trkpt>
      <trkpt lat="48.83999" lon="2.37049">
        <ele>80.9</ele>
        <time>2013-08-05T18:36:17.000Z</time>
      </trkpt>
      <trkpt lat="48.83993" lon="2.37056">
        <ele>80</ele>
        <time>2013-08-05T18:36:18.000Z</time>
      </trkpt>
      <trkpt lat="48.83988" lon="2.37063">
        <ele>78.8</ele>
        <time>2013-08-05T18:36:19.000Z</time>
      </trkpt>
      <trkpt lat="48.83983" lon="2.3707">
        <ele>79.3</ele>
        <time>2013-08-05T18:36:20.000Z</time>
      </trkpt>
      <trkpt lat="48.83977" lon="2.37076">
        <ele>78</ele>
        <time>2013-08-05T18:36:21.000Z</time>
      </trkpt>
      <trkpt lat="48.83971" lon="2.37081">
        <ele>79</ele>
        <time>2013-08-05T18:36:22.000Z</time>
      </trkpt>
      <trkpt lat="48.83965" lon="2.37088">
        <ele>78.7</ele>
        <time>2013-08-05T18:36:23.000Z</time>
      </trkpt>
      <trkpt lat="48.8396" lon="2.37095">
        <ele>79.4</ele>
        <time>2013-08-05T18:36:24.000Z</time>
      </trkpt>
      <trkpt lat="48.83955" lon="2.37101">
        <ele>79.4</ele>
        <time>2013-08-05T18:36:25.000Z</time>
      </trkpt>
      <trkpt lat="48.83949" lon="2.37108">
        <ele>79.1</ele>
        <time>2013-08-05T18:36:26.000Z</time>
      </trkpt>
      <trkpt lat="48.83945" lon="2.37115">
        <ele>80.8</ele>
        <time>2013-08-05T18:36:27.000Z</time>
      </trkpt>
      <trkpt lat="48.8394" lon="2.37122">
        <ele>80.7</ele>
        <time>2013-08-05T18:36:28.000Z</time>
      </trkpt>
      <trkpt lat="48.83936" lon="2.3713">
        <ele>81.1</ele>
        <time>2013-08-05T18:36:29.000Z</time>
      </trkpt>
      <trkpt lat="48.83932" lon="2.37136">
        <ele>81.9</ele>
        <time>2013-08-05T18:36:30.000Z</time>
      </trkpt>
      <trkpt lat="48.83928" lon="2.37143">
        <ele>81.6</ele>
        <time>2013-08-05T18:36:31.000Z</time>
      </trkpt>
      <trkpt lat="48.83922" lon="2.37149">
        <ele>83</ele>
        <time>2013-08-05T18:36:32.000Z</time>
      </trkpt>
      <trkpt lat="48.83919" lon="2.37157">
        <ele>83.1</ele>
        <time>2013-08-05T18:36:33.000Z</time>
      </trkpt>
      <trkpt lat="48.83916" lon="2.37164">
        <ele>83</ele>
        <time>2013-08-05T18:36:34.000Z</time>
      </trkpt>
      <trkpt lat="48.8391" lon="2.37172">
        <ele>82.6</ele>
        <time>2013-08-05T18:36:35.000Z</time>
      </trkpt>
      <trkpt lat="48.83906" lon="2.37179">
        <ele>83.2</ele>
        <time>2013-08-05T18:36:36.000Z</time>
      </trkpt>
      <trkpt lat="48.83902" lon="2.37185">
        <ele>83.4</ele>
        <time>2013-08-05T18:36:37.000Z</time>
      </trkpt>
      <trkpt lat="48.83897" lon="2.37189">
        <ele>83.6</ele>
        <time>2013-08-05T18:36:38.000Z</time>
      </trkpt>
      <trkpt lat="48.83894" lon="2.37195">
        <ele>84</ele>
        <time>2013-08-05T18:36:39.000Z</time>
      </trkpt>
      <trkpt lat="48.83888" lon="2.37203">
        <ele>83.9</ele>
        <time>2013-08-05T18:36:40.000Z</time>
      </trkpt>
      <trkpt lat="48.83882" lon="2.37209">
        <ele>83.6</ele>
        <time>2013-08-05T18:36:41.000Z</time>
      </trkpt>
      <trkpt lat="48.83877" lon="2.37214">
        <ele>84.8</ele>
        <time>2013-08-05T18:36:42.000Z</time>
      </trkpt>
      <trkpt lat="48.83869" lon="2.37218">
        <ele>84.3</ele>
        <time>2013-08-05T18:36:43.000Z</time>
      </trkpt>
      <trkpt lat="48.83863" lon="2.37224">
        <ele>83.9</ele>
        <time>2013-08-05T18:36:44.000Z</time>
      </trkpt>
      <trkpt lat="48.83861" lon="2.37235">
        <ele>82.4</ele>
        <time>2013-08-05T18:36:45.000Z</time>
      </trkpt>
      <trkpt lat="48.83856" lon="2.37242">
        <ele>82.2</ele>
        <time>2013-08-05T18:36:46.000Z</time>
      </trkpt>
      <trkpt lat="48.83852" lon="2.37247">
        <ele>81.6</ele>
        <time>2013-08-05T18:36:47.000Z</time>
      </trkpt>
      <trkpt lat="48.83847" lon="2.37254">
        <ele>81.4</ele>
        <time>2013-08-05T18:36:48.000Z</time>
      </trkpt>
      <trkpt lat="48.83841" lon="2.37259">
        <ele>80.8</ele>
        <time>2013-08-05T18:36:49.000Z</time>
      </trkpt>
      <trkpt lat="48.83837" lon="2.37265">
        <ele>81.6</ele>
        <time>2013-08-05T18:36:50.000Z</time>
      </trkpt>
      <trkpt lat="48.83832" lon="2.37272">
        <ele>82.7</ele>
        <time>2013-08-05T18:36:51.000Z</time>
      </trkpt>
      <trkpt lat="48.83827" lon="2.37278">
        <ele>83.5</ele>
        <time>2013-08-05T18:36:52.000Z</time>
      </trkpt>
      <trkpt lat="48.83822" lon="2.37284">
        <ele>82.2</ele>
        <time>2013-08-05T18:36:53.000Z</time>
      </trkpt>
      <trkpt lat="48.83817" lon="2.37289">
        <ele>81.9</ele>
        <time>2013-08-05T18:36:54.000Z</time>
      </trkpt>
      <trkpt lat="48.83811" lon="2.37295">
        <ele>82</ele>
        <time>2013-08-05T18:36:55.000Z</time>
      </trkpt>
      <trkpt lat="48.83807" lon="2.37302">
        <ele>82</ele>
        <time>2013-08-05T18:36:56.000Z</time>
      </trkpt>
      <trkpt lat="48.83802" lon="2.37306">
        <ele>82.8</ele>
        <time>2013-08-05T18:36:57.000Z</time>
      </trkpt>
      <trkpt lat="48.83798" lon="2.37313">
        <ele>82.6</ele>
        <time>2013-08-05T18:36:58.000Z</time>
      </trkpt>
      <trkpt lat="48.83793" lon="2.37319">
        <ele>83.6</ele>
        <time>2013-08-05T18:36:59.000Z</time>
      </trkpt>
      <trkpt lat="48.83789" lon="2.37324">
        <ele>84.6</ele>
        <time>2013-08-05T18:37:00.000Z</time>
      </trkpt>
      <trkpt lat="48.83784" lon="2.37328">
        <ele>84.4</ele>
        <time>2013-08-05T18:37:01.000Z</time>
      </trkpt>
      <trkpt lat="48.8378" lon="2.37333">
        <ele>83.5</ele>
        <time>2013-08-05T18:37:02.000Z</time>
      </trkpt>
      <trkpt lat="48.83776" lon="2.37337">
        <ele>83.1</ele>
        <time>2013-08-05T18:37:03.000Z</time>
      </trkpt>
      <trkpt lat="48.83772" lon="2.37341">
        <ele>83.5</ele>
        <time>2013-08-05T18:37:04.000Z</time>
      </trkpt>
      <trkpt lat="48.83768" lon="2.37345">
        <ele>83.6</ele>
        <time>2013-08-05T18:37:05.000Z</time>
      </trkpt>
      <trkpt lat="48.83763" lon="2.37348">
        <ele>83.5</ele>
        <time>2013-08-05T18:37:06.000Z</time>
      </trkpt>
      <trkpt lat="48.83759" lon="2.37351">
        <ele>83.7</ele>
        <time>2013-08-05T18:37:07.000Z</time>
      </trkpt>
      <trkpt lat="48.83754" lon="2.37355">
        <ele>83.8</ele>
        <time>2013-08-05T18:37:08.000Z</time>
      </trkpt>
      <trkpt lat="48.83751" lon="2.37359">
        <ele>84</ele>
        <time>2013-08-05T18:37:09.000Z</time>
      </trkpt>
      <trkpt lat="48.83747" lon="2.37361">
        <ele>84.1</ele>
        <time>2013-08-05T18:37:10.000Z</time>
      </trkpt>
      <trkpt lat="48.83745" lon="2.37363">
        <ele>83.9</ele>
        <time>2013-08-05T18:37:11.000Z</time>
      </trkpt>
      <trkpt lat="48.83743" lon="2.37365">
        <ele>83.9</ele>
        <time>2013-08-05T18:37:12.000Z</time>
      </trkpt>
      <trkpt lat="48.8374" lon="2.3737">
        <ele>83.3</ele>
        <time>2013-08-05T18:37:18.000Z</time>
      </trkpt>
      <trkpt lat="48.8374" lon="2.3737">
        <ele>83.4</ele>
        <time>2013-08-05T18:37:19.000Z</time>
      </trkpt>
      <trkpt lat="48.83736" lon="2.37373">
        <ele>83.8</ele>
        <time>2013-08-05T18:37:26.000Z</time>
      </trkpt>
      <trkpt lat="48.83734" lon="2.37374">
        <ele>83.6</ele>
        <time>2013-08-05T18:37:27.000Z</time>
      </trkpt>
      <trkpt lat="48.83731" lon="2.37376">
        <ele>82.9</ele>
        <time>2013-08-05T18:37:28.000Z</time>
      </trkpt>
      <trkpt lat="48.83728" lon="2.37378">
        <ele>81.9</ele>
        <time>2013-08-05T18:37:29.000Z</time>
      </trkpt>
      <trkpt lat="48.83725" lon="2.37381">
        <ele>81.9</ele>
        <time>2013-08-05T18:37:30.000Z</time>
      </trkpt>
      <trkpt lat="48.83723" lon="2.37385">
        <ele>81.5</ele>
        <time>2013-08-05T18:37:31.000Z</time>
      </trkpt>
      <trkpt lat="48.8372" lon="2.37388">
        <ele>81.2</ele>
        <time>2013-08-05T18:37:32.000Z</time>
      </trkpt>
      <trkpt lat="48.83717" lon="2.37392">
        <ele>82</ele>
        <time>2013-08-05T18:37:33.000Z</time>
      </trkpt>
      <trkpt lat="48.83714" lon="2.37395">
        <ele>81.4</ele>
        <time>2013-08-05T18:37:34.000Z</time>
      </trkpt>
      <trkpt lat="48.83711" lon="2.37398">
        <ele>81.5</ele>
        <time>2013-08-05T18:37:35.000Z</time>
      </trkpt>
      <trkpt lat="48.83707" lon="2.37402">
        <ele>80.7</ele>
        <time>2013-08-05T18:37:36.000Z</time>
      </trkpt>
      <trkpt lat="48.83703" lon="2.37406">
        <ele>82.4</ele>
        <time>2013-08-05T18:37:37.000Z</time>
      </trkpt>
      <trkpt lat="48.837" lon="2.37409">
        <ele>82.6</ele>
        <time>2013-08-05T18:37:38.000Z</time>
      </trkpt>
      <trkpt lat="48.83696" lon="2.37413">
        <ele>83.7</ele>
        <time>2013-08-05T18:37:39.000Z</time>
      </trkpt>
      <trkpt lat="48.83691" lon="2.37418">
        <ele>84.3</ele>
        <time>2013-08-05T18:37:40.000Z</time>
      </trkpt>
      <trkpt lat="48.83686" lon="2.37421">
        <ele>84.1</ele>
        <time>2013-08-05T18:37:41.000Z</time>
      </trkpt>
      <trkpt lat="48.83682" lon="2.37425">
        <ele>83.6</ele>
        <time>2013-08-05T18:37:42.000Z</time>
      </trkpt>
      <trkpt lat="48.83678" lon="2.37429">
        <ele>83.8</ele>
        <time>2013-08-05T18:37:43.000Z</time>
      </trkpt>
      <trkpt lat="48.83674" lon="2.37432">
        <ele>84.1</ele>
        <time>2013-08-05T18:37:44.000Z</time>
      </trkpt>
      <trkpt lat="48.8367" lon="2.37436">
        <ele>83.9</ele>
        <time>2013-08-05T18:37:45.000Z</time>
      </trkpt>
      <trkpt lat="48.83666" lon="2.3744">
        <ele>84.1</ele>
        <time>2013-08-05T18:37:46.000Z</time>
      </trkpt>
      <trkpt lat="48.83662" lon="2.37444">
        <ele>84.5</ele>
        <time>2013-08-05T18:37:47.000Z</time>
      </trkpt>
      <trkpt lat="48.83659" lon="2.37448">
        <ele>84.9</ele>
        <time>2013-08-05T18:37:48.000Z</time>
      </trkpt>
      <trkpt lat="48.83655" lon="2.37452">
        <ele>85.4</ele>
        <time>2013-08-05T18:37:49.000Z</time>
      </trkpt>
      <trkpt lat="48.83651" lon="2.37456">
        <ele>85.5</ele>
        <time>2013-08-05T18:37:50.000Z</time>
      </trkpt>
      <trkpt lat="48.83647" lon="2.3746">
        <ele>85.2</ele>
        <time>2013-08-05T18:37:51.000Z</time>
      </trkpt>
      <trkpt lat="48.83643" lon="2.37465">
        <ele>84.8</ele>
        <time>2013-08-05T18:37:52.000Z</time>
      </trkpt>
      <trkpt lat="48.83639" lon="2.37469">
        <ele>85</ele>
        <time>2013-08-05T18:37:53.000Z</time>
      </trkpt>
      <trkpt lat="48.83635" lon="2.37474">
        <ele>85.1</ele>
        <time>2013-08-05T18:37:54.000Z</time>
      </trkpt>
      <trkpt lat="48.83631" lon="2.37478">
        <ele>85.4</ele>
        <time>2013-08-05T18:37:55.000Z</time>
      </trkpt>
      <trkpt lat="48.83626" lon="2.37482">
        <ele>85.9</ele>
        <time>2013-08-05T18:37:56.000Z</time>
      </trkpt>
      <trkpt lat="48.83622" lon="2.37486">
        <ele>86.7</ele>
        <time>2013-08-05T18:37:57.000Z</time>
      </trkpt>
      <trkpt lat="48.83617" lon="2.37489">
        <ele>86.8</ele>
        <time>2013-08-05T18:37:58.000Z</time>
      </trkpt>
      <trkpt lat="48.83613" lon="2.37492">
        <ele>86.3</ele>
        <time>2013-08-05T18:37:59.000Z</time>
      </trkpt>
      <trkpt lat="48.83609" lon="2.37496">
        <ele>86.4</ele>
        <time>2013-08-05T18:38:00.000Z</time>
      </trkpt>
      <trkpt lat="48.83605" lon="2.37499">
        <ele>86.4</ele>
        <time>2013-08-05T18:38:01.000Z</time>
      </trkpt>
      <trkpt lat="48.836" lon="2.37503">
        <ele>85.7</ele>
        <time>2013-08-05T18:38:02.000Z</time>
      </trkpt>
      <trkpt lat="48.83597" lon="2.37508">
        <ele>85.1</ele>
        <time>2013-08-05T18:38:03.000Z</time>
      </trkpt>
      <trkpt lat="48.83593" lon="2.3751">
        <ele>84.8</ele>
        <time>2013-08-05T18:38:04.000Z</time>
      </trkpt>
      <trkpt lat="48.83589" lon="2.37511">
        <ele>85</ele>
        <time>2013-08-05T18:38:05.000Z</time>
      </trkpt>
      <trkpt lat="48.83585" lon="2.37513">
        <ele>84.2</ele>
        <time>2013-08-05T18:38:06.000Z</time>
      </trkpt>
      <trkpt lat="48.83581" lon="2.37515">
        <ele>84</ele>
        <time>2013-08-05T18:38:07.000Z</time>
      </trkpt>
      <trkpt lat="48.83578" lon="2.3752">
        <ele>85.1</ele>
        <time>2013-08-05T18:38:08.000Z</time>
      </trkpt>
      <trkpt lat="48.83574" lon="2.37526">
        <ele>84.7</ele>
        <time>2013-08-05T18:38:09.000Z</time>
      </trkpt>
      <trkpt lat="48.8357" lon="2.37527">
        <ele>85.1</ele>
        <time>2013-08-05T18:38:10.000Z</time>
      </trkpt>
      <trkpt lat="48.83567" lon="2.3753">
        <ele>85</ele>
        <time>2013-08-05T18:38:11.000Z</time>
      </trkpt>
      <trkpt lat="48.83562" lon="2.37536">
        <ele>85.2</ele>
        <time>2013-08-05T18:38:12.000Z</time>
      </trkpt>
      <trkpt lat="48.83559" lon="2.3754">
        <ele>85.3</ele>
        <time>2013-08-05T18:38:13.000Z</time>
      </trkpt>
      <trkpt lat="48.83554" lon="2.37543">
        <ele>85.8</ele>
        <time>2013-08-05T18:38:14.000Z</time>
      </trkpt>
      <trkpt lat="48.8355" lon="2.37544">
        <ele>85.6</ele>
        <time>2013-08-05T18:38:15.000Z</time>
      </trkpt>
      <trkpt lat="48.83547" lon="2.37547">
        <ele>85</ele>
        <time>2013-08-05T18:38:16.000Z</time>
      </trkpt>
      <trkpt lat="48.83544" lon="2.37551">
        <ele>85.2</ele>
        <time>2013-08-05T18:38:17.000Z</time>
      </trkpt>
      <trkpt lat="48.8354" lon="2.37555">
        <ele>85.1</ele>
        <time>2013-08-05T18:38:18.000Z</time>
      </trkpt>
      <trkpt lat="48.83537" lon="2.3756">
        <ele>85</ele>
        <time>2013-08-05T18:38:19.000Z</time>
      </trkpt>
      <trkpt lat="48.83534" lon="2.37564">
        <ele>85</ele>
        <time>2013-08-05T18:38:20.000Z</time>
      </trkpt>
      <trkpt lat="48.8353" lon="2.37567">
        <ele>83.3</ele>
        <time>2013-08-05T18:38:21.000Z</time>
      </trkpt>
      <trkpt lat="48.83526" lon="2.37571">
        <ele>82</ele>
        <time>2013-08-05T18:38:22.000Z</time>
      </trkpt>
      <trkpt lat="48.83523" lon="2.37576">
        <ele>81.4</ele>
        <time>2013-08-05T18:38:23.000Z</time>
      </trkpt>
      <trkpt lat="48.83519" lon="2.37578">
        <ele>82.6</ele>
        <time>2013-08-05T18:38:24.000Z</time>
      </trkpt>
      <trkpt lat="48.83516" lon="2.37581">
        <ele>83.6</ele>
        <time>2013-08-05T18:38:25.000Z</time>
      </trkpt>
      <trkpt lat="48.83512" lon="2.37585">
        <ele>81.2</ele>
        <time>2013-08-05T18:38:26.000Z</time>
      </trkpt>
      <trkpt lat="48.83508" lon="2.37589">
        <ele>82.4</ele>
        <time>2013-08-05T18:38:27.000Z</time>
      </trkpt>
      <trkpt lat="48.83503" lon="2.37594">
        <ele>83</ele>
        <time>2013-08-05T18:38:28.000Z</time>
      </trkpt>
      <trkpt lat="48.835" lon="2.37599">
        <ele>83.5</ele>
        <time>2013-08-05T18:38:29.000Z</time>
      </trkpt>
      <trkpt lat="48.83496" lon="2.37603">
        <ele>82</ele>
        <time>2013-08-05T18:38:30.000Z</time>
      </trkpt>
      <trkpt lat="48.83492" lon="2.37609">
        <ele>82.5</ele>
        <time>2013-08-05T18:38:31.000Z</time>
      </trkpt>
      <trkpt lat="48.83488" lon="2.37612">
        <ele>82.2</ele>
        <time>2013-08-05T18:38:32.000Z</time>
      </trkpt>
      <trkpt lat="48.83483" lon="2.37619">
        <ele>83</ele>
        <time>2013-08-05T18:38:33.000Z</time>
      </trkpt>
      <trkpt lat="48.83479" lon="2.37626">
        <ele>82.9</ele>
        <time>2013-08-05T18:38:34.000Z</time>
      </trkpt>
      <trkpt lat="48.83476" lon="2.3763">
        <ele>83.8</ele>
        <time>2013-08-05T18:38:35.000Z</time>
      </trkpt>
      <trkpt lat="48.83471" lon="2.37637">
        <ele>84.4</ele>
        <time>2013-08-05T18:38:36.000Z</time>
      </trkpt>
      <trkpt lat="48.83467" lon="2.37642">
        <ele>83.6</ele>
        <time>2013-08-05T18:38:37.000Z</time>
      </trkpt>
      <trkpt lat="48.83463" lon="2.37646">
        <ele>83.9</ele>
        <time>2013-08-05T18:38:38.000Z</time>
      </trkpt>
      <trkpt lat="48.83459" lon="2.3765">
        <ele>83.8</ele>
        <time>2013-08-05T18:38:39.000Z</time>
      </trkpt>
      <trkpt lat="48.83455" lon="2.37655">
        <ele>84.4</ele>
        <time>2013-08-05T18:38:40.000Z</time>
      </trkpt>
      <trkpt lat="48.83452" lon="2.3766">
        <ele>84</ele>
        <time>2013-08-05T18:38:41.000Z</time>
      </trkpt>
      <trkpt lat="48.83447" lon="2.37666">
        <ele>83.7</ele>
        <time>2013-08-05T18:38:42.000Z</time>
      </trkpt>
      <trkpt lat="48.83442" lon="2.37671">
        <ele>82.7</ele>
        <time>2013-08-05T18:38:43.000Z</time>
      </trkpt>
      <trkpt lat="48.83438" lon="2.37678">
        <ele>82.7</ele>
        <time>2013-08-05T18:38:44.000Z</time>
      </trkpt>
      <trkpt lat="48.83434" lon="2.37683">
        <ele>83.2</ele>
        <time>2013-08-05T18:38:45.000Z</time>
      </trkpt>
      <trkpt lat="48.83431" lon="2.37688">
        <ele>83.2</ele>
        <time>2013-08-05T18:38:46.000Z</time>
      </trkpt>
      <trkpt lat="48.83427" lon="2.37694">
        <ele>83.2</ele>
        <time>2013-08-05T18:38:47.000Z</time>
      </trkpt>
      <trkpt lat="48.83422" lon="2.377">
        <ele>84.2</ele>
        <time>2013-08-05T18:38:48.000Z</time>
      </trkpt>
      <trkpt lat="48.83418" lon="2.37705">
        <ele>84.1</ele>
        <time>2013-08-05T18:38:49.000Z</time>
      </trkpt>
      <trkpt lat="48.83414" lon="2.37711">
        <ele>84.3</ele>
        <time>2013-08-05T18:38:50.000Z</time>
      </trkpt>
      <trkpt lat="48.83409" lon="2.37717">
        <ele>84.8</ele>
        <time>2013-08-05T18:38:51.000Z</time>
      </trkpt>
      <trkpt lat="48.83405" lon="2.37721">
        <ele>84.7</ele>
        <time>2013-08-05T18:38:52.000Z</time>
      </trkpt>
      <trkpt lat="48.83401" lon="2.37727">
        <ele>84.5</ele>
        <time>2013-08-05T18:38:53.000Z</time>
      </trkpt>
      <trkpt lat="48.83397" lon="2.37732">
        <ele>84.6</ele>
        <time>2013-08-05T18:38:54.000Z</time>
      </trkpt>
      <trkpt lat="48.83392" lon="2.37738">
        <ele>84.4</ele>
        <time>2013-08-05T18:38:55.000Z</time>
      </trkpt>
      <trkpt lat="48.83388" lon="2.37743">
        <ele>84.2</ele>
        <time>2013-08-05T18:38:56.000Z</time>
      </trkpt>
      <trkpt lat="48.83384" lon="2.37748">
        <ele>84.7</ele>
        <time>2013-08-05T18:38:57.000Z</time>
      </trkpt>
      <trkpt lat="48.8338" lon="2.37753">
        <ele>85.2</ele>
        <time>2013-08-05T18:38:58.000Z</time>
      </trkpt>
      <trkpt lat="48.83376" lon="2.37759">
        <ele>85.6</ele>
        <time>2013-08-05T18:38:59.000Z</time>
      </trkpt>
      <trkpt lat="48.83372" lon="2.37764">
        <ele>85.3</ele>
        <time>2013-08-05T18:39:00.000Z</time>
      </trkpt>
      <trkpt lat="48.83369" lon="2.37768">
        <ele>85.4</ele>
        <time>2013-08-05T18:39:01.000Z</time>
      </trkpt>
      <trkpt lat="48.83364" lon="2.37774">
        <ele>84.8</ele>
        <time>2013-08-05T18:39:02.000Z</time>
      </trkpt>
      <trkpt lat="48.8336" lon="2.37778">
        <ele>84.6</ele>
        <time>2013-08-05T18:39:03.000Z</time>
      </trkpt>
      <trkpt lat="48.83356" lon="2.37783">
        <ele>84.7</ele>
        <time>2013-08-05T18:39:04.000Z</time>
      </trkpt>
      <trkpt lat="48.83352" lon="2.37787">
        <ele>83.6</ele>
        <time>2013-08-05T18:39:05.000Z</time>
      </trkpt>
      <trkpt lat="48.83347" lon="2.37793">
        <ele>83</ele>
        <time>2013-08-05T18:39:06.000Z</time>
      </trkpt>
      <trkpt lat="48.83343" lon="2.37798">
        <ele>82.9</ele>
        <time>2013-08-05T18:39:07.000Z</time>
      </trkpt>
      <trkpt lat="48.83339" lon="2.37801">
        <ele>82.3</ele>
        <time>2013-08-05T18:39:08.000Z</time>
      </trkpt>
      <trkpt lat="48.83335" lon="2.37806">
        <ele>81.9</ele>
        <time>2013-08-05T18:39:09.000Z</time>
      </trkpt>
      <trkpt lat="48.83331" lon="2.37809">
        <ele>81.2</ele>
        <time>2013-08-05T18:39:10.000Z</time>
      </trkpt>
      <trkpt lat="48.83327" lon="2.37815">
        <ele>80.5</ele>
        <time>2013-08-05T18:39:11.000Z</time>
      </trkpt>
      <trkpt lat="48.83323" lon="2.37819">
        <ele>80.8</ele>
        <time>2013-08-05T18:39:12.000Z</time>
      </trkpt>
      <trkpt lat="48.8332" lon="2.37823">
        <ele>80.9</ele>
        <time>2013-08-05T18:39:13.000Z</time>
      </trkpt>
      <trkpt lat="48.83316" lon="2.37827">
        <ele>81.6</ele>
        <time>2013-08-05T18:39:14.000Z</time>
      </trkpt>
      <trkpt lat="48.83312" lon="2.37831">
        <ele>82.1</ele>
        <time>2013-08-05T18:39:15.000Z</time>
      </trkpt>
      <trkpt lat="48.83309" lon="2.37837">
        <ele>81.6</ele>
        <time>2013-08-05T18:39:16.000Z</time>
      </trkpt>
      <trkpt lat="48.83307" lon="2.37841">
        <ele>82</ele>
        <time>2013-08-05T18:39:17.000Z</time>
      </trkpt>
      <trkpt lat="48.83304" lon="2.37844">
        <ele>82.7</ele>
        <time>2013-08-05T18:39:18.000Z</time>
      </trkpt>
      <trkpt lat="48.83302" lon="2.37847">
        <ele>83.3</ele>
        <time>2013-08-05T18:39:19.000Z</time>
      </trkpt>
      <trkpt lat="48.83299" lon="2.37849">
        <ele>83</ele>
        <time>2013-08-05T18:39:20.000Z</time>
      </trkpt>
      <trkpt lat="48.83297" lon="2.37852">
        <ele>83.8</ele>
        <time>2013-08-05T18:39:21.000Z</time>
      </trkpt>
      <trkpt lat="48.83296" lon="2.37855">
        <ele>84.8</ele>
        <time>2013-08-05T18:39:22.000Z</time>
      </trkpt>
      <trkpt lat="48.83294" lon="2.37861">
        <ele>85.7</ele>
        <time>2013-08-05T18:39:23.000Z</time>
      </trkpt>
      <trkpt lat="48.83292" lon="2.37865">
        <ele>85.2</ele>
        <time>2013-08-05T18:39:24.000Z</time>
      </trkpt>
      <trkpt lat="48.83289" lon="2.37867">
        <ele>85.6</ele>
        <time>2013-08-05T18:39:25.000Z</time>
      </trkpt>
      <trkpt lat="48.83287" lon="2.37869">
        <ele>85.9</ele>
        <time>2013-08-05T18:39:26.000Z</time>
      </trkpt>
      <trkpt lat="48.83285" lon="2.37871">
        <ele>87.1</ele>
        <time>2013-08-05T18:39:27.000Z</time>
      </trkpt>
      <trkpt lat="48.83282" lon="2.37873">
        <ele>87.5</ele>
        <time>2013-08-05T18:39:28.000Z</time>
      </trkpt>
      <trkpt lat="48.83279" lon="2.37876">
        <ele>87.8</ele>
        <time>2013-08-05T18:39:29.000Z</time>
      </trkpt>
      <trkpt lat="48.83276" lon="2.37879">
        <ele>87.5</ele>
        <time>2013-08-05T18:39:30.000Z</time>
      </trkpt>
      <trkpt lat="48.83272" lon="2.37883">
        <ele>87.3</ele>
        <time>2013-08-05T18:39:31.000Z</time>
      </trkpt>
      <trkpt lat="48.83269" lon="2.37888">
        <ele>87.7</ele>
        <time>2013-08-05T18:39:32.000Z</time>
      </trkpt>
      <trkpt lat="48.83265" lon="2.37893">
        <ele>87.1</ele>
        <time>2013-08-05T18:39:33.000Z</time>
      </trkpt>
      <trkpt lat="48.83261" lon="2.37902">
        <ele>86.1</ele>
        <time>2013-08-05T18:39:34.000Z</time>
      </trkpt>
      <trkpt lat="48.83257" lon="2.37907">
        <ele>86.4</ele>
        <time>2013-08-05T18:39:35.000Z</time>
      </trkpt>
      <trkpt lat="48.83253" lon="2.37911">
        <ele>85.6</ele>
        <time>2013-08-05T18:39:36.000Z</time>
      </trkpt>
      <trkpt lat="48.8325" lon="2.37915">
        <ele>84.3</ele>
        <time>2013-08-05T18:39:37.000Z</time>
      </trkpt>
      <trkpt lat="48.83248" lon="2.37919">
        <ele>84.3</ele>
        <time>2013-08-05T18:39:38.000Z</time>
      </trkpt>
      <trkpt lat="48.83248" lon="2.37926">
        <ele>84.7</ele>
        <time>2013-08-05T18:39:39.000Z</time>
      </trkpt>
      <trkpt lat="48.83246" lon="2.37931">
        <ele>85.4</ele>
        <time>2013-08-05T18:39:40.000Z</time>
      </trkpt>
      <trkpt lat="48.83241" lon="2.37936">
        <ele>84.6</ele>
        <time>2013-08-05T18:39:41.000Z</time>
      </trkpt>
      <trkpt lat="48.83238" lon="2.3794">
        <ele>84.4</ele>
        <time>2013-08-05T18:39:42.000Z</time>
      </trkpt>
      <trkpt lat="48.83234" lon="2.37944">
        <ele>83.8</ele>
        <time>2013-08-05T18:39:43.000Z</time>
      </trkpt>
      <trkpt lat="48.83231" lon="2.37948">
        <ele>83.5</ele>
        <time>2013-08-05T18:39:44.000Z</time>
      </trkpt>
      <trkpt lat="48.83228" lon="2.37953">
        <ele>83.9</ele>
        <time>2013-08-05T18:39:45.000Z</time>
      </trkpt>
      <trkpt lat="48.83225" lon="2.37958">
        <ele>84.3</ele>
        <time>2013-08-05T18:39:46.000Z</time>
      </trkpt>
      <trkpt lat="48.83222" lon="2.37962">
        <ele>84.4</ele>
        <time>2013-08-05T18:39:47.000Z</time>
      </trkpt>
      <trkpt lat="48.83218" lon="2.37965">
        <ele>84.3</ele>
        <time>2013-08-05T18:39:48.000Z</time>
      </trkpt>
      <trkpt lat="48.83215" lon="2.37969">
        <ele>84.5</ele>
        <time>2013-08-05T18:39:49.000Z</time>
      </trkpt>
      <trkpt lat="48.83211" lon="2.37973">
        <ele>84.4</ele>
        <time>2013-08-05T18:39:50.000Z</time>
      </trkpt>
      <trkpt lat="48.83208" lon="2.37977">
        <ele>84.7</ele>
        <time>2013-08-05T18:39:51.000Z</time>
      </trkpt>
      <trkpt lat="48.83204" lon="2.37984">
        <ele>84.4</ele>
        <time>2013-08-05T18:39:52.000Z</time>
      </trkpt>
      <trkpt lat="48.83199" lon="2.37988">
        <ele>84.3</ele>
        <time>2013-08-05T18:39:53.000Z</time>
      </trkpt>
      <trkpt lat="48.83196" lon="2.37993">
        <ele>83.6</ele>
        <time>2013-08-05T18:39:54.000Z</time>
      </trkpt>
      <trkpt lat="48.83192" lon="2.37998">
        <ele>83.9</ele>
        <time>2013-08-05T18:39:55.000Z</time>
      </trkpt>
      <trkpt lat="48.83189" lon="2.38002">
        <ele>83.6</ele>
        <time>2013-08-05T18:39:56.000Z</time>
      </trkpt>
      <trkpt lat="48.83184" lon="2.38009">
        <ele>83.3</ele>
        <time>2013-08-05T18:39:57.000Z</time>
      </trkpt>
      <trkpt lat="48.8318" lon="2.38014">
        <ele>83</ele>
        <time>2013-08-05T18:39:58.000Z</time>
      </trkpt>
      <trkpt lat="48.83176" lon="2.38019">
        <ele>82.3</ele>
        <time>2013-08-05T18:39:59.000Z</time>
      </trkpt>
      <trkpt lat="48.83172" lon="2.38024">
        <ele>82.9</ele>
        <time>2013-08-05T18:40:00.000Z</time>
      </trkpt>
      <trkpt lat="48.83168" lon="2.38029">
        <ele>82.9</ele>
        <time>2013-08-05T18:40:01.000Z</time>
      </trkpt>
      <trkpt lat="48.83164" lon="2.38035">
        <ele>83.4</ele>
        <time>2013-08-05T18:40:02.000Z</time>
      </trkpt>
      <trkpt lat="48.83158" lon="2.3804">
        <ele>84.2</ele>
        <time>2013-08-05T18:40:03.000Z</time>
      </trkpt>
      <trkpt lat="48.83154" lon="2.38045">
        <ele>83.9</ele>
        <time>2013-08-05T18:40:04.000Z</time>
      </trkpt>
      <trkpt lat="48.8315" lon="2.38052">
        <ele>84.6</ele>
        <time>2013-08-05T18:40:05.000Z</time>
      </trkpt>
      <trkpt lat="48.83146" lon="2.38054">
        <ele>82.8</ele>
        <time>2013-08-05T18:40:06.000Z</time>
      </trkpt>
      <trkpt lat="48.83141" lon="2.3806">
        <ele>82.9</ele>
        <time>2013-08-05T18:40:07.000Z</time>
      </trkpt>
      <trkpt lat="48.83137" lon="2.38066">
        <ele>83.1</ele>
        <time>2013-08-05T18:40:08.000Z</time>
      </trkpt>
      <trkpt lat="48.83132" lon="2.3807">
        <ele>81.9</ele>
        <time>2013-08-05T18:40:09.000Z</time>
      </trkpt>
      <trkpt lat="48.83128" lon="2.38074">
        <ele>81.3</ele>
        <time>2013-08-05T18:40:10.000Z</time>
      </trkpt>
      <trkpt lat="48.83123" lon="2.38081">
        <ele>80.8</ele>
        <time>2013-08-05T18:40:11.000Z</time>
      </trkpt>
      <trkpt lat="48.83119" lon="2.38086">
        <ele>81.2</ele>
        <time>2013-08-05T18:40:12.000Z</time>
      </trkpt>
      <trkpt lat="48.83114" lon="2.3809">
        <ele>81.8</ele>
        <time>2013-08-05T18:40:13.000Z</time>
      </trkpt>
      <trkpt lat="48.8311" lon="2.38095">
        <ele>82.3</ele>
        <time>2013-08-05T18:40:14.000Z</time>
      </trkpt>
      <trkpt lat="48.83105" lon="2.38099">
        <ele>81.8</ele>
        <time>2013-08-05T18:40:15.000Z</time>
      </trkpt>
      <trkpt lat="48.83101" lon="2.38102">
        <ele>81.3</ele>
        <time>2013-08-05T18:40:16.000Z</time>
      </trkpt>
      <trkpt lat="48.83098" lon="2.38109">
        <ele>80.4</ele>
        <time>2013-08-05T18:40:17.000Z</time>
      </trkpt>
      <trkpt lat="48.83092" lon="2.38116">
        <ele>79</ele>
        <time>2013-08-05T18:40:18.000Z</time>
      </trkpt>
      <trkpt lat="48.83088" lon="2.38122">
        <ele>79.1</ele>
        <time>2013-08-05T18:40:19.000Z</time>
      </trkpt>
      <trkpt lat="48.83084" lon="2.38129">
        <ele>79.4</ele>
        <time>2013-08-05T18:40:20.000Z</time>
      </trkpt>
      <trkpt lat="48.83081" lon="2.38134">
        <ele>80.4</ele>
        <time>2013-08-05T18:40:21.000Z</time>
      </trkpt>
      <trkpt lat="48.83077" lon="2.3814">
        <ele>80.6</ele>
        <time>2013-08-05T18:40:22.000Z</time>
      </trkpt>
      <trkpt lat="48.83073" lon="2.38142">
        <ele>80.8</ele>
        <time>2013-08-05T18:40:23.000Z</time>
      </trkpt>
      <trkpt lat="48.83069" lon="2.38146">
        <ele>80.2</ele>
        <time>2013-08-05T18:40:24.000Z</time>
      </trkpt>
      <trkpt lat="48.83065" lon="2.38151">
        <ele>79.8</ele>
        <time>2013-08-05T18:40:25.000Z</time>
      </trkpt>
      <trkpt lat="48.83062" lon="2.38157">
        <ele>81.1</ele>
        <time>2013-08-05T18:40:26.000Z</time>
      </trkpt>
      <trkpt lat="48.83058" lon="2.38163">
        <ele>81.6</ele>
        <time>2013-08-05T18:40:27.000Z</time>
      </trkpt>
      <trkpt lat="48.83054" lon="2.38167">
        <ele>81.4</ele>
        <time>2013-08-05T18:40:28.000Z</time>
      </trkpt>
      <trkpt lat="48.83051" lon="2.38174">
        <ele>82.1</ele>
        <time>2013-08-05T18:40:29.000Z</time>
      </trkpt>
      <trkpt lat="48.83048" lon="2.38181">
        <ele>82.8</ele>
        <time>2013-08-05T18:40:30.000Z</time>
      </trkpt>
      <trkpt lat="48.83044" lon="2.38185">
        <ele>83</ele>
        <time>2013-08-05T18:40:31.000Z</time>
      </trkpt>
      <trkpt lat="48.83041" lon="2.38189">
        <ele>82.7</ele>
        <time>2013-08-05T18:40:32.000Z</time>
      </trkpt>
      <trkpt lat="48.83036" lon="2.38195">
        <ele>83.7</ele>
        <time>2013-08-05T18:40:33.000Z</time>
      </trkpt>
      <trkpt lat="48.83032" lon="2.38199">
        <ele>83.1</ele>
        <time>2013-08-05T18:40:34.000Z</time>
      </trkpt>
      <trkpt lat="48.83027" lon="2.38205">
        <ele>82.5</ele>
        <time>2013-08-05T18:40:35.000Z</time>
      </trkpt>
      <trkpt lat="48.83023" lon="2.38211">
        <ele>83.6</ele>
        <time>2013-08-05T18:40:36.000Z</time>
      </trkpt>
      <trkpt lat="48.83019" lon="2.38218">
        <ele>83</ele>
        <time>2013-08-05T18:40:37.000Z</time>
      </trkpt>
      <trkpt lat="48.83015" lon="2.38222">
        <ele>83.5</ele>
        <time>2013-08-05T18:40:38.000Z</time>
      </trkpt>
      <trkpt lat="48.83011" lon="2.38227">
        <ele>83.8</ele>
        <time>2013-08-05T18:40:39.000Z</time>
      </trkpt>
      <trkpt lat="48.83006" lon="2.38232">
        <ele>84.2</ele>
        <time>2013-08-05T18:40:40.000Z</time>
      </trkpt>
      <trkpt lat="48.83003" lon="2.38239">
        <ele>84.4</ele>
        <time>2013-08-05T18:40:41.000Z</time>
      </trkpt>
      <trkpt lat="48.82999" lon="2.38244">
        <ele>84</ele>
        <time>2013-08-05T18:40:42.000Z</time>
      </trkpt>
      <trkpt lat="48.82994" lon="2.38249">
        <ele>83.6</ele>
        <time>2013-08-05T18:40:43.000Z</time>
      </trkpt>
      <trkpt lat="48.8299" lon="2.38254">
        <ele>82.8</ele>
        <time>2013-08-05T18:40:44.000Z</time>
      </trkpt>
      <trkpt lat="48.82986" lon="2.38258">
        <ele>82.9</ele>
        <time>2013-08-05T18:40:45.000Z</time>
      </trkpt>
      <trkpt lat="48.82982" lon="2.38263">
        <ele>82.8</ele>
        <time>2013-08-05T18:40:46.000Z</time>
      </trkpt>
      <trkpt lat="48.82978" lon="2.38269">
        <ele>82</ele>
        <time>2013-08-05T18:40:47.000Z</time>
      </trkpt>
      <trkpt lat="48.82974" lon="2.38274">
        <ele>82.7</ele>
        <time>2013-08-05T18:40:48.000Z</time>
      </trkpt>
      <trkpt lat="48.8297" lon="2.38279">
        <ele>82.7</ele>
        <time>2013-08-05T18:40:49.000Z</time>
      </trkpt>
      <trkpt lat="48.82966" lon="2.38285">
        <ele>82.8</ele>
        <time>2013-08-05T18:40:50.000Z</time>
      </trkpt>
      <trkpt lat="48.82963" lon="2.38289">
        <ele>82.6</ele>
        <time>2013-08-05T18:40:51.000Z</time>
      </trkpt>
      <trkpt lat="48.82959" lon="2.38294">
        <ele>82.8</ele>
        <time>2013-08-05T18:40:52.000Z</time>
      </trkpt>
      <trkpt lat="48.82955" lon="2.38298">
        <ele>82.7</ele>
        <time>2013-08-05T18:40:53.000Z</time>
      </trkpt>
      <trkpt lat="48.82952" lon="2.38299">
        <ele>82.4</ele>
        <time>2013-08-05T18:40:54.000Z</time>
      </trkpt>
      <trkpt lat="48.82949" lon="2.38302">
        <ele>82.6</ele>
        <time>2013-08-05T18:40:55.000Z</time>
      </trkpt>
      <trkpt lat="48.82945" lon="2.38307">
        <ele>82.1</ele>
        <time>2013-08-05T18:40:56.000Z</time>
      </trkpt>
      <trkpt lat="48.82942" lon="2.38311">
        <ele>82.1</ele>
        <time>2013-08-05T18:40:57.000Z</time>
      </trkpt>
      <trkpt lat="48.82939" lon="2.38316">
        <ele>81.7</ele>
        <time>2013-08-05T18:40:58.000Z</time>
      </trkpt>
      <trkpt lat="48.82936" lon="2.3832">
        <ele>82.4</ele>
        <time>2013-08-05T18:40:59.000Z</time>
      </trkpt>
      <trkpt lat="48.82933" lon="2.38324">
        <ele>82.2</ele>
        <time>2013-08-05T18:41:00.000Z</time>
      </trkpt>
      <trkpt lat="48.82929" lon="2.38328">
        <ele>81.1</ele>
        <time>2013-08-05T18:41:01.000Z</time>
      </trkpt>
      <trkpt lat="48.82926" lon="2.38332">
        <ele>80.9</ele>
        <time>2013-08-05T18:41:02.000Z</time>
      </trkpt>
      <trkpt lat="48.82923" lon="2.38335">
        <ele>80.5</ele>
        <time>2013-08-05T18:41:03.000Z</time>
      </trkpt>
      <trkpt lat="48.8292" lon="2.38339">
        <ele>80.6</ele>
        <time>2013-08-05T18:41:04.000Z</time>
      </trkpt>
      <trkpt lat="48.82917" lon="2.38343">
        <ele>80.3</ele>
        <time>2013-08-05T18:41:05.000Z</time>
      </trkpt>
      <trkpt lat="48.82914" lon="2.38345">
        <ele>80.7</ele>
        <time>2013-08-05T18:41:06.000Z</time>
      </trkpt>
      <trkpt lat="48.82911" lon="2.38348">
        <ele>80.7</ele>
        <time>2013-08-05T18:41:07.000Z</time>
      </trkpt>
      <trkpt lat="48.82908" lon="2.38352">
        <ele>81.2</ele>
        <time>2013-08-05T18:41:08.000Z</time>
      </trkpt>
      <trkpt lat="48.82905" lon="2.38355">
        <ele>81.6</ele>
        <time>2013-08-05T18:41:09.000Z</time>
      </trkpt>
      <trkpt lat="48.82901" lon="2.38359">
        <ele>81.4</ele>
        <time>2013-08-05T18:41:10.000Z</time>
      </trkpt>
      <trkpt lat="48.82896" lon="2.38365">
        <ele>80.6</ele>
        <time>2013-08-05T18:41:11.000Z</time>
      </trkpt>
      <trkpt lat="48.82892" lon="2.38371">
        <ele>81.2</ele>
        <time>2013-08-05T18:41:12.000Z</time>
      </trkpt>
      <trkpt lat="48.82889" lon="2.38376">
        <ele>80.9</ele>
        <time>2013-08-05T18:41:13.000Z</time>
      </trkpt>
      <trkpt lat="48.82885" lon="2.38381">
        <ele>80.7</ele>
        <time>2013-08-05T18:41:14.000Z</time>
      </trkpt>
      <trkpt lat="48.82881" lon="2.38385">
        <ele>80.2</ele>
        <time>2013-08-05T18:41:15.000Z</time>
      </trkpt>
      <trkpt lat="48.82877" lon="2.38391">
        <ele>80.6</ele>
        <time>2013-08-05T18:41:16.000Z</time>
      </trkpt>
      <trkpt lat="48.82873" lon="2.38395">
        <ele>81</ele>
        <time>2013-08-05T18:41:17.000Z</time>
      </trkpt>
      <trkpt lat="48.82869" lon="2.38399">
        <ele>81</ele>
        <time>2013-08-05T18:41:18.000Z</time>
      </trkpt>
      <trkpt lat="48.82865" lon="2.38405">
        <ele>81.2</ele>
        <time>2013-08-05T18:41:19.000Z</time>
      </trkpt>
      <trkpt lat="48.8286" lon="2.38409">
        <ele>81.2</ele>
        <time>2013-08-05T18:41:20.000Z</time>
      </trkpt>
      <trkpt lat="48.82856" lon="2.38414">
        <ele>81.8</ele>
        <time>2013-08-05T18:41:21.000Z</time>
      </trkpt>
      <trkpt lat="48.82852" lon="2.38419">
        <ele>82.4</ele>
        <time>2013-08-05T18:41:22.000Z</time>
      </trkpt>
      <trkpt lat="48.82849" lon="2.38425">
        <ele>82.9</ele>
        <time>2013-08-05T18:41:23.000Z</time>
      </trkpt>
      <trkpt lat="48.82844" lon="2.38429">
        <ele>82.3</ele>
        <time>2013-08-05T18:41:24.000Z</time>
      </trkpt>
      <trkpt lat="48.82839" lon="2.38434">
        <ele>82.4</ele>
        <time>2013-08-05T18:41:25.000Z</time>
      </trkpt>
      <trkpt lat="48.82834" lon="2.38438">
        <ele>82.9</ele>
        <time>2013-08-05T18:41:26.000Z</time>
      </trkpt>
      <trkpt lat="48.82829" lon="2.38443">
        <ele>81.9</ele>
        <time>2013-08-05T18:41:27.000Z</time>
      </trkpt>
      <trkpt lat="48.82824" lon="2.38448">
        <ele>81.7</ele>
        <time>2013-08-05T18:41:28.000Z</time>
      </trkpt>
      <trkpt lat="48.8282" lon="2.38452">
        <ele>82.2</ele>
        <time>2013-08-05T18:41:29.000Z</time>
      </trkpt>
      <trkpt lat="48.82815" lon="2.38457">
        <ele>82.3</ele>
        <time>2013-08-05T18:41:30.000Z</time>
      </trkpt>
      <trkpt lat="48.82812" lon="2.38462">
        <ele>82.7</ele>
        <time>2013-08-05T18:41:31.000Z</time>
      </trkpt>
      <trkpt lat="48.82808" lon="2.38466">
        <ele>82.5</ele>
        <time>2013-08-05T18:41:32.000Z</time>
      </trkpt>
      <trkpt lat="48.82804" lon="2.38469">
        <ele>82.8</ele>
        <time>2013-08-05T18:41:33.000Z</time>
      </trkpt>
      <trkpt lat="48.82801" lon="2.38469">
        <ele>83.6</ele>
        <time>2013-08-05T18:41:34.000Z</time>
      </trkpt>
      <trkpt lat="48.82798" lon="2.38466">
        <ele>84.1</ele>
        <time>2013-08-05T18:41:35.000Z</time>
      </trkpt>
      <trkpt lat="48.82795" lon="2.38462">
        <ele>84.1</ele>
        <time>2013-08-05T18:41:36.000Z</time>
      </trkpt>
      <trkpt lat="48.82793" lon="2.38457">
        <ele>85.3</ele>
        <time>2013-08-05T18:41:37.000Z</time>
      </trkpt>
      <trkpt lat="48.8279" lon="2.38452">
        <ele>85.4</ele>
        <time>2013-08-05T18:41:38.000Z</time>
      </trkpt>
      <trkpt lat="48.82788" lon="2.38446">
        <ele>86.2</ele>
        <time>2013-08-05T18:41:39.000Z</time>
      </trkpt>
      <trkpt lat="48.82786" lon="2.3844">
        <ele>86</ele>
        <time>2013-08-05T18:41:40.000Z</time>
      </trkpt>
      <trkpt lat="48.82783" lon="2.38435">
        <ele>86.6</ele>
        <time>2013-08-05T18:41:41.000Z</time>
      </trkpt>
      <trkpt lat="48.82781" lon="2.38429">
        <ele>87.1</ele>
        <time>2013-08-05T18:41:42.000Z</time>
      </trkpt>
      <trkpt lat="48.82778" lon="2.38426">
        <ele>88.5</ele>
        <time>2013-08-05T18:41:43.000Z</time>
      </trkpt>
      <trkpt lat="48.82775" lon="2.3842">
        <ele>88.5</ele>
        <time>2013-08-05T18:41:44.000Z</time>
      </trkpt>
      <trkpt lat="48.82772" lon="2.38415">
        <ele>87.7</ele>
        <time>2013-08-05T18:41:45.000Z</time>
      </trkpt>
      <trkpt lat="48.8277" lon="2.38407">
        <ele>87.9</ele>
        <time>2013-08-05T18:41:46.000Z</time>
      </trkpt>
      <trkpt lat="48.82768" lon="2.38401">
        <ele>87.8</ele>
        <time>2013-08-05T18:41:47.000Z</time>
      </trkpt>
      <trkpt lat="48.82764" lon="2.38398">
        <ele>88.7</ele>
        <time>2013-08-05T18:41:48.000Z</time>
      </trkpt>
      <trkpt lat="48.82762" lon="2.38393">
        <ele>89.3</ele>
        <time>2013-08-05T18:41:49.000Z</time>
      </trkpt>
      <trkpt lat="48.8276" lon="2.38387">
        <ele>88.6</ele>
        <time>2013-08-05T18:41:50.000Z</time>
      </trkpt>
      <trkpt lat="48.82757" lon="2.38383">
        <ele>88.1</ele>
        <time>2013-08-05T18:41:51.000Z</time>
      </trkpt>
      <trkpt lat="48.82755" lon="2.38378">
        <ele>88.2</ele>
        <time>2013-08-05T18:41:52.000Z</time>
      </trkpt>
      <trkpt lat="48.82753" lon="2.38373">
        <ele>88.3</ele>
        <time>2013-08-05T18:41:53.000Z</time>
      </trkpt>
      <trkpt lat="48.82749" lon="2.38369">
        <ele>88.1</ele>
        <time>2013-08-05T18:41:54.000Z</time>
      </trkpt>
      <trkpt lat="48.82746" lon="2.38365">
        <ele>88</ele>
        <time>2013-08-05T18:41:55.000Z</time>
      </trkpt>
      <trkpt lat="48.82744" lon="2.38359">
        <ele>86.3</ele>
        <time>2013-08-05T18:41:56.000Z</time>
      </trkpt>
      <trkpt lat="48.82743" lon="2.38345">
        <ele>85.3</ele>
        <time>2013-08-05T18:41:57.000Z</time>
      </trkpt>
      <trkpt lat="48.82742" lon="2.38339">
        <ele>84.9</ele>
        <time>2013-08-05T18:41:58.000Z</time>
      </trkpt>
      <trkpt lat="48.82741" lon="2.38334">
        <ele>85</ele>
        <time>2013-08-05T18:41:59.000Z</time>
      </trkpt>
      <trkpt lat="48.8274" lon="2.3833">
        <ele>84.7</ele>
        <time>2013-08-05T18:42:00.000Z</time>
      </trkpt>
      <trkpt lat="48.82739" lon="2.38326">
        <ele>83.3</ele>
        <time>2013-08-05T18:42:01.000Z</time>
      </trkpt>
      <trkpt lat="48.82736" lon="2.38322">
        <ele>82.2</ele>
        <time>2013-08-05T18:42:02.000Z</time>
      </trkpt>
      <trkpt lat="48.82734" lon="2.38319">
        <ele>84.4</ele>
        <time>2013-08-05T18:42:03.000Z</time>
      </trkpt>
      <trkpt lat="48.82732" lon="2.38315">
        <ele>85.8</ele>
        <time>2013-08-05T18:42:04.000Z</time>
      </trkpt>
      <trkpt lat="48.8273" lon="2.38311">
        <ele>86.4</ele>
        <time>2013-08-05T18:42:05.000Z</time>
      </trkpt>
      <trkpt lat="48.82728" lon="2.38307">
        <ele>88</ele>
        <time>2013-08-05T18:42:06.000Z</time>
      </trkpt>
      <trkpt lat="48.82726" lon="2.38304">
        <ele>89.3</ele>
        <time>2013-08-05T18:42:07.000Z</time>
      </trkpt>
      <trkpt lat="48.82724" lon="2.383">
        <ele>90.5</ele>
        <time>2013-08-05T18:42:08.000Z</time>
      </trkpt>
      <trkpt lat="48.82721" lon="2.38296">
        <ele>90.5</ele>
        <time>2013-08-05T18:42:09.000Z</time>
      </trkpt>
      <trkpt lat="48.82719" lon="2.38293">
        <ele>91.5</ele>
        <time>2013-08-05T18:42:10.000Z</time>
      </trkpt>
      <trkpt lat="48.82716" lon="2.38289">
        <ele>93.7</ele>
        <time>2013-08-05T18:42:11.000Z</time>
      </trkpt>
      <trkpt lat="48.82714" lon="2.38285">
        <ele>95.1</ele>
        <time>2013-08-05T18:42:12.000Z</time>
      </trkpt>
      <trkpt lat="48.82711" lon="2.38281">
        <ele>96.3</ele>
        <time>2013-08-05T18:42:13.000Z</time>
      </trkpt>
      <trkpt lat="48.82708" lon="2.38277">
        <ele>92.7</ele>
        <time>2013-08-05T18:42:14.000Z</time>
      </trkpt>
      <trkpt lat="48.82705" lon="2.38273">
        <ele>92.6</ele>
        <time>2013-08-05T18:42:15.000Z</time>
      </trkpt>
      <trkpt lat="48.82702" lon="2.38269">
        <ele>91.6</ele>
        <time>2013-08-05T18:42:16.000Z</time>
      </trkpt>
      <trkpt lat="48.827" lon="2.38265">
        <ele>94.6</ele>
        <time>2013-08-05T18:42:17.000Z</time>
      </trkpt>
      <trkpt lat="48.82698" lon="2.38261">
        <ele>97.2</ele>
        <time>2013-08-05T18:42:18.000Z</time>
      </trkpt>
      <trkpt lat="48.82696" lon="2.38256">
        <ele>97.9</ele>
        <time>2013-08-05T18:42:19.000Z</time>
      </trkpt>
      <trkpt lat="48.82694" lon="2.38251">
        <ele>99.3</ele>
        <time>2013-08-05T18:42:20.000Z</time>
      </trkpt>
      <trkpt lat="48.82692" lon="2.38246">
        <ele>100.3</ele>
        <time>2013-08-05T18:42:21.000Z</time>
      </trkpt>
      <trkpt lat="48.82691" lon="2.38241">
        <ele>101.7</ele>
        <time>2013-08-05T18:42:22.000Z</time>
      </trkpt>
      <trkpt lat="48.82691" lon="2.38235">
        <ele>102.6</ele>
        <time>2013-08-05T18:42:23.000Z</time>
      </trkpt>
      <trkpt lat="48.82691" lon="2.3823">
        <ele>101.8</ele>
        <time>2013-08-05T18:42:24.000Z</time>
      </trkpt>
      <trkpt lat="48.82691" lon="2.38225">
        <ele>100.7</ele>
        <time>2013-08-05T18:42:25.000Z</time>
      </trkpt>
      <trkpt lat="48.82691" lon="2.38222">
        <ele>99.8</ele>
        <time>2013-08-05T18:42:26.000Z</time>
      </trkpt>
      <trkpt lat="48.82691" lon="2.38217">
        <ele>99.1</ele>
        <time>2013-08-05T18:42:27.000Z</time>
      </trkpt>
      <trkpt lat="48.8269" lon="2.38214">
        <ele>98.9</ele>
        <time>2013-08-05T18:42:28.000Z</time>
      </trkpt>
      <trkpt lat="48.82689" lon="2.3821">
        <ele>99</ele>
        <time>2013-08-05T18:42:29.000Z</time>
      </trkpt>
      <trkpt lat="48.82692" lon="2.38213">
        <ele>101.1</ele>
        <time>2013-08-05T18:42:45.000Z</time>
      </trkpt>
      <trkpt lat="48.82693" lon="2.38213">
        <ele>102.8</ele>
        <time>2013-08-05T18:42:46.000Z</time>
      </trkpt>
      <trkpt lat="48.82696" lon="2.38217">
        <ele>108.9</ele>
        <time>2013-08-05T18:42:50.000Z</time>
      </trkpt>
      <trkpt lat="48.82697" lon="2.38218">
        <ele>109.4</ele>
        <time>2013-08-05T18:42:51.000Z</time>
      </trkpt>
      <trkpt lat="48.82698" lon="2.38224">
        <ele>111.1</ele>
        <time>2013-08-05T18:42:57.000Z</time>
      </trkpt>
      <trkpt lat="48.82697" lon="2.38225">
        <ele>109.7</ele>
        <time>2013-08-05T18:42:58.000Z</time>
      </trkpt>
      <trkpt lat="48.82693" lon="2.38229">
        <ele>107.7</ele>
        <time>2013-08-05T18:43:03.000Z</time>
      </trkpt>
      <trkpt lat="48.82693" lon="2.38228">
        <ele>107.9</ele>
        <time>2013-08-05T18:43:04.000Z</time>
      </trkpt>
      <trkpt lat="48.82688" lon="2.38227">
        <ele>104.9</ele>
        <time>2013-08-05T18:43:17.000Z</time>
      </trkpt>
      <trkpt lat="48.82687" lon="2.38227">
        <ele>105.4</ele>
        <time>2013-08-05T18:43:18.000Z</time>
      </trkpt>
      <trkpt lat="48.82685" lon="2.38223">
        <ele>104</ele>
        <time>2013-08-05T18:43:25.000Z</time>
      </trkpt>
      <trkpt lat="48.82685" lon="2.38221">
        <ele>104</ele>
        <time>2013-08-05T18:43:26.000Z</time>
      </trkpt>
      <trkpt lat="48.82682" lon="2.38216">
        <ele>106</ele>
        <time>2013-08-05T18:43:39.000Z</time>
      </trkpt>
      <trkpt lat="48.82682" lon="2.38216">
        <ele>106.2</ele>
        <time>2013-08-05T18:43:40.000Z</time>
      </trkpt>
      <trkpt lat="48.82684" lon="2.38211">
        <ele>108.4</ele>
        <time>2013-08-05T18:43:53.000Z</time>
      </trkpt>
      <trkpt lat="48.82684" lon="2.3821">
        <ele>107.7</ele>
        <time>2013-08-05T18:43:54.000Z</time>
      </trkpt>
      <trkpt lat="48.82688" lon="2.38209">
        <ele>107.3</ele>
        <time>2013-08-05T18:43:58.000Z</time>
      </trkpt>
      <trkpt lat="48.82692" lon="2.38207">
        <ele>109.6</ele>
        <time>2013-08-05T18:43:59.000Z</time>
      </trkpt>
      <trkpt lat="48.82695" lon="2.38206">
        <ele>109.6</ele>
        <time>2013-08-05T18:44:00.000Z</time>
      </trkpt>
      <trkpt lat="48.82697" lon="2.38202">
        <ele>110.5</ele>
        <time>2013-08-05T18:44:01.000Z</time>
      </trkpt>
      <trkpt lat="48.827" lon="2.382">
        <ele>110.8</ele>
        <time>2013-08-05T18:44:02.000Z</time>
      </trkpt>
      <trkpt lat="48.82703" lon="2.38197">
        <ele>111.7</ele>
        <time>2013-08-05T18:44:03.000Z</time>
      </trkpt>
      <trkpt lat="48.82707" lon="2.38191">
        <ele>114.9</ele>
        <time>2013-08-05T18:44:04.000Z</time>
      </trkpt>
      <trkpt lat="48.8271" lon="2.38188">
        <ele>115.5</ele>
        <time>2013-08-05T18:44:05.000Z</time>
      </trkpt>
      <trkpt lat="48.82712" lon="2.38177">
        <ele>116.4</ele>
        <time>2013-08-05T18:44:06.000Z</time>
      </trkpt>
      <trkpt lat="48.82716" lon="2.38172">
        <ele>115.2</ele>
        <time>2013-08-05T18:44:07.000Z</time>
      </trkpt>
      <trkpt lat="48.82721" lon="2.38167">
        <ele>114.6</ele>
        <time>2013-08-05T18:44:08.000Z</time>
      </trkpt>
      <trkpt lat="48.82725" lon="2.38162">
        <ele>114.5</ele>
        <time>2013-08-05T18:44:09.000Z</time>
      </trkpt>
      <trkpt lat="48.8273" lon="2.38151">
        <ele>114.8</ele>
        <time>2013-08-05T18:44:10.000Z</time>
      </trkpt>
      <trkpt lat="48.82735" lon="2.3814">
        <ele>113.5</ele>
        <time>2013-08-05T18:44:11.000Z</time>
      </trkpt>
      <trkpt lat="48.8274" lon="2.38136">
        <ele>113.8</ele>
        <time>2013-08-05T18:44:12.000Z</time>
      </trkpt>
      <trkpt lat="48.82745" lon="2.38127">
        <ele>111.5</ele>
        <time>2013-08-05T18:44:13.000Z</time>
      </trkpt>
      <trkpt lat="48.82749" lon="2.38123">
        <ele>111.7</ele>
        <time>2013-08-05T18:44:14.000Z</time>
      </trkpt>
      <trkpt lat="48.82753" lon="2.38116">
        <ele>111.8</ele>
        <time>2013-08-05T18:44:15.000Z</time>
      </trkpt>
      <trkpt lat="48.82756" lon="2.3811">
        <ele>111.9</ele>
        <time>2013-08-05T18:44:16.000Z</time>
      </trkpt>
      <trkpt lat="48.82755" lon="2.38102">
        <ele>112</ele>
        <time>2013-08-05T18:44:17.000Z</time>
      </trkpt>
      <trkpt lat="48.82753" lon="2.38098">
        <ele>111</ele>
        <time>2013-08-05T18:44:19.000Z</time>
      </trkpt>
      <trkpt lat="48.82751" lon="2.38097">
        <ele>110.4</ele>
        <time>2013-08-05T18:44:20.000Z</time>
      </trkpt>
      <trkpt lat="48.82753" lon="2.38103">
        <ele>104.6</ele>
        <time>2013-08-05T18:44:29.000Z</time>
      </trkpt>
      <trkpt lat="48.82755" lon="2.38106">
        <ele>104</ele>
        <time>2013-08-05T18:44:30.000Z</time>
      </trkpt>
      <trkpt lat="48.82757" lon="2.38111">
        <ele>102.8</ele>
        <time>2013-08-05T18:44:32.000Z</time>
      </trkpt>
      <trkpt lat="48.82758" lon="2.38115">
        <ele>101.2</ele>
        <time>2013-08-05T18:44:33.000Z</time>
      </trkpt>
      <trkpt lat="48.8276" lon="2.38117">
        <ele>100.5</ele>
        <time>2013-08-05T18:44:34.000Z</time>
      </trkpt>
      <trkpt lat="48.82762" lon="2.38119">
        <ele>97.8</ele>
        <time>2013-08-05T18:44:35.000Z</time>
      </trkpt>
      <trkpt lat="48.82764" lon="2.38122">
        <ele>97</ele>
        <time>2013-08-05T18:44:36.000Z</time>
      </trkpt>
      <trkpt lat="48.82767" lon="2.38127">
        <ele>96.8</ele>
        <time>2013-08-05T18:44:37.000Z</time>
      </trkpt>
      <trkpt lat="48.8277" lon="2.38133">
        <ele>96.7</ele>
        <time>2013-08-05T18:44:38.000Z</time>
      </trkpt>
      <trkpt lat="48.82773" lon="2.38138">
        <ele>96.4</ele>
        <time>2013-08-05T18:44:39.000Z</time>
      </trkpt>
      <trkpt lat="48.82777" lon="2.38144">
        <ele>97.5</ele>
        <time>2013-08-05T18:44:40.000Z</time>
      </trkpt>
      <trkpt lat="48.82783" lon="2.38152">
        <ele>97</ele>
        <time>2013-08-05T18:44:41.000Z</time>
      </trkpt>
      <trkpt lat="48.82787" lon="2.38156">
        <ele>97.6</ele>
        <time>2013-08-05T18:44:42.000Z</time>
      </trkpt>
      <trkpt lat="48.82791" lon="2.38164">
        <ele>97.6</ele>
        <time>2013-08-05T18:44:43.000Z</time>
      </trkpt>
      <trkpt lat="48.82793" lon="2.3817">
        <ele>97.8</ele>
        <time>2013-08-05T18:44:44.000Z</time>
      </trkpt>
      <trkpt lat="48.82797" lon="2.38179">
        <ele>98.2</ele>
        <time>2013-08-05T18:44:45.000Z</time>
      </trkpt>
      <trkpt lat="48.82801" lon="2.38186">
        <ele>98.9</ele>
        <time>2013-08-05T18:44:46.000Z</time>
      </trkpt>
      <trkpt lat="48.82804" lon="2.38192">
        <ele>97.3</ele>
        <time>2013-08-05T18:44:47.000Z</time>
      </trkpt>
      <trkpt lat="48.82807" lon="2.38199">
        <ele>97.4</ele>
        <time>2013-08-05T18:44:48.000Z</time>
      </trkpt>
      <trkpt lat="48.82811" lon="2.38206">
        <ele>96.3</ele>
        <time>2013-08-05T18:44:49.000Z</time>
      </trkpt>
      <trkpt lat="48.82814" lon="2.38211">
        <ele>96</ele>
        <time>2013-08-05T18:44:50.000Z</time>
      </trkpt>
      <trkpt lat="48.82817" lon="2.38218">
        <ele>95.7</ele>
        <time>2013-08-05T18:44:51.000Z</time>
      </trkpt>
      <trkpt lat="48.8282" lon="2.38224">
        <ele>95.7</ele>
        <time>2013-08-05T18:44:52.000Z</time>
      </trkpt>
      <trkpt lat="48.82823" lon="2.3823">
        <ele>95.4</ele>
        <time>2013-08-05T18:44:53.000Z</time>
      </trkpt>
      <trkpt lat="48.82825" lon="2.38238">
        <ele>96.8</ele>
        <time>2013-08-05T18:44:54.000Z</time>
      </trkpt>
      <trkpt lat="48.82826" lon="2.38245">
        <ele>98.4</ele>
        <time>2013-08-05T18:44:55.000Z</time>
      </trkpt>
      <trkpt lat="48.82825" lon="2.38253">
        <ele>99.6</ele>
        <time>2013-08-05T18:44:56.000Z</time>
      </trkpt>
      <trkpt lat="48.82822" lon="2.38257">
        <ele>100.1</ele>
        <time>2013-08-05T18:44:58.000Z</time>
      </trkpt>
      <trkpt lat="48.8282" lon="2.38257">
        <ele>100.1</ele>
        <time>2013-08-05T18:44:59.000Z</time>
      </trkpt>
      <trkpt lat="48.82817" lon="2.38251">
        <ele>100.7</ele>
        <time>2013-08-05T18:45:00.000Z</time>
      </trkpt>
      <trkpt lat="48.82817" lon="2.38248">
        <ele>100.9</ele>
        <time>2013-08-05T18:45:01.000Z</time>
      </trkpt>
      <trkpt lat="48.82816" lon="2.38243">
        <ele>101.6</ele>
        <time>2013-08-05T18:45:02.000Z</time>
      </trkpt>
      <trkpt lat="48.82814" lon="2.38236">
        <ele>101.7</ele>
        <time>2013-08-05T18:45:03.000Z</time>
      </trkpt>
      <trkpt lat="48.82813" lon="2.38231">
        <ele>102.1</ele>
        <time>2013-08-05T18:45:04.000Z</time>
      </trkpt>
      <trkpt lat="48.82812" lon="2.38227">
        <ele>101.9</ele>
        <time>2013-08-05T18:45:05.000Z</time>
      </trkpt>
      <trkpt lat="48.8281" lon="2.38219">
        <ele>101.3</ele>
        <time>2013-08-05T18:45:06.000Z</time>
      </trkpt>
      <trkpt lat="48.82808" lon="2.38213">
        <ele>100.9</ele>
        <time>2013-08-05T18:45:07.000Z</time>
      </trkpt>
      <trkpt lat="48.82807" lon="2.38206">
        <ele>102</ele>
        <time>2013-08-05T18:45:08.000Z</time>
      </trkpt>
      <trkpt lat="48.82806" lon="2.38198">
        <ele>101.3</ele>
        <time>2013-08-05T18:45:09.000Z</time>
      </trkpt>
      <trkpt lat="48.82807" lon="2.38184">
        <ele>102.4</ele>
        <time>2013-08-05T18:45:10.000Z</time>
      </trkpt>
      <trkpt lat="48.82806" lon="2.38176">
        <ele>101.4</ele>
        <time>2013-08-05T18:45:11.000Z</time>
      </trkpt>
      <trkpt lat="48.82805" lon="2.38168">
        <ele>102.7</ele>
        <time>2013-08-05T18:45:12.000Z</time>
      </trkpt>
      <trkpt lat="48.82803" lon="2.38162">
        <ele>103.6</ele>
        <time>2013-08-05T18:45:13.000Z</time>
      </trkpt>
      <trkpt lat="48.82798" lon="2.38154">
        <ele>106.2</ele>
        <time>2013-08-05T18:45:14.000Z</time>
      </trkpt>
      <trkpt lat="48.82793" lon="2.38149">
        <ele>108</ele>
        <time>2013-08-05T18:45:15.000Z</time>
      </trkpt>
      <trkpt lat="48.82788" lon="2.38145">
        <ele>109.8</ele>
        <time>2013-08-05T18:45:16.000Z</time>
      </trkpt>
      <trkpt lat="48.82783" lon="2.3814">
        <ele>111.2</ele>
        <time>2013-08-05T18:45:17.000Z</time>
      </trkpt>
      <trkpt lat="48.82779" lon="2.38133">
        <ele>111.3</ele>
        <time>2013-08-05T18:45:18.000Z</time>
      </trkpt>
      <trkpt lat="48.82774" lon="2.38127">
        <ele>110.9</ele>
        <time>2013-08-05T18:45:19.000Z</time>
      </trkpt>
      <trkpt lat="48.82772" lon="2.38129">
        <ele>111.1</ele>
        <time>2013-08-05T18:45:20.000Z</time>
      </trkpt>
      <trkpt lat="48.82771" lon="2.3812">
        <ele>111.2</ele>
        <time>2013-08-05T18:45:21.000Z</time>
      </trkpt>
      <trkpt lat="48.82766" lon="2.38114">
        <ele>112.2</ele>
        <time>2013-08-05T18:45:22.000Z</time>
      </trkpt>
      <trkpt lat="48.82762" lon="2.3811">
        <ele>111.9</ele>
        <time>2013-08-05T18:45:23.000Z</time>
      </trkpt>
      <trkpt lat="48.82757" lon="2.38102">
        <ele>111.7</ele>
        <time>2013-08-05T18:45:24.000Z</time>
      </trkpt>
      <trkpt lat="48.82754" lon="2.38095">
        <ele>111.5</ele>
        <time>2013-08-05T18:45:25.000Z</time>
      </trkpt>
      <trkpt lat="48.82751" lon="2.38088">
        <ele>111.5</ele>
        <time>2013-08-05T18:45:26.000Z</time>
      </trkpt>
      <trkpt lat="48.82741" lon="2.38084">
        <ele>111.8</ele>
        <time>2013-08-05T18:45:27.000Z</time>
      </trkpt>
      <trkpt lat="48.82736" lon="2.38075">
        <ele>112.1</ele>
        <time>2013-08-05T18:45:28.000Z</time>
      </trkpt>
      <trkpt lat="48.82731" lon="2.38071">
        <ele>113.5</ele>
        <time>2013-08-05T18:45:29.000Z</time>
      </trkpt>
      <trkpt lat="48.82727" lon="2.38065">
        <ele>113.7</ele>
        <time>2013-08-05T18:45:30.000Z</time>
      </trkpt>
      <trkpt lat="48.82724" lon="2.38059">
        <ele>113.2</ele>
        <time>2013-08-05T18:45:31.000Z</time>
      </trkpt>
      <trkpt lat="48.82629" lon="2.37843">
        <ele>102.2</ele>
        <time>2013-08-05T18:45:57.000Z</time>
      </trkpt>
      <trkpt lat="48.8263" lon="2.37859">
        <ele>97.7</ele>
        <time>2013-08-05T18:45:58.000Z</time>
      </trkpt>
      <trkpt lat="48.82626" lon="2.37852">
        <ele>101.3</ele>
        <time>2013-08-05T18:45:59.000Z</time>
      </trkpt>
      <trkpt lat="48.82624" lon="2.37846">
        <ele>102.8</ele>
        <time>2013-08-05T18:46:00.000Z</time>
      </trkpt>
      <trkpt lat="48.82622" lon="2.3784">
        <ele>105</ele>
        <time>2013-08-05T18:46:01.000Z</time>
      </trkpt>
      <trkpt lat="48.82621" lon="2.37838">
        <ele>105.4</ele>
        <time>2013-08-05T18:46:02.000Z</time>
      </trkpt>
      <trkpt lat="48.82617" lon="2.37836">
        <ele>107.4</ele>
        <time>2013-08-05T18:46:03.000Z</time>
      </trkpt>
      <trkpt lat="48.82614" lon="2.37833">
        <ele>107.6</ele>
        <time>2013-08-05T18:46:04.000Z</time>
      </trkpt>
      <trkpt lat="48.82613" lon="2.3784">
        <ele>103.4</ele>
        <time>2013-08-05T18:46:05.000Z</time>
      </trkpt>
      <trkpt lat="48.82611" lon="2.37845">
        <ele>105.5</ele>
        <time>2013-08-05T18:46:08.000Z</time>
      </trkpt>
      <trkpt lat="48.82612" lon="2.37849">
        <ele>107.1</ele>
        <time>2013-08-05T18:46:09.000Z</time>
      </trkpt>
      <trkpt lat="48.82611" lon="2.37851">
        <ele>108.2</ele>
        <time>2013-08-05T18:46:10.000Z</time>
      </trkpt>
      <trkpt lat="48.82608" lon="2.37854">
        <ele>107.9</ele>
        <time>2013-08-05T18:46:11.000Z</time>
      </trkpt>
      <trkpt lat="48.82605" lon="2.37855">
        <ele>107.2</ele>
        <time>2013-08-05T18:46:12.000Z</time>
      </trkpt>
      <trkpt lat="48.82599" lon="2.37854">
        <ele>106.7</ele>
        <time>2013-08-05T18:46:13.000Z</time>
      </trkpt>
      <trkpt lat="48.82593" lon="2.37853">
        <ele>106.5</ele>
        <time>2013-08-05T18:46:14.000Z</time>
      </trkpt>
      <trkpt lat="48.82589" lon="2.37853">
        <ele>106.6</ele>
        <time>2013-08-05T18:46:15.000Z</time>
      </trkpt>
      <trkpt lat="48.82583" lon="2.37848">
        <ele>106.5</ele>
        <time>2013-08-05T18:46:16.000Z</time>
      </trkpt>
      <trkpt lat="48.82577" lon="2.37846">
        <ele>106.4</ele>
        <time>2013-08-05T18:46:17.000Z</time>
      </trkpt>
      <trkpt lat="48.82572" lon="2.37844">
        <ele>108.5</ele>
        <time>2013-08-05T18:46:18.000Z</time>
      </trkpt>
      <trkpt lat="48.82567" lon="2.37843">
        <ele>108.9</ele>
        <time>2013-08-05T18:46:19.000Z</time>
      </trkpt>
      <trkpt lat="48.82563" lon="2.37841">
        <ele>110.9</ele>
        <time>2013-08-05T18:46:20.000Z</time>
      </trkpt>
      <trkpt lat="48.82558" lon="2.3784">
        <ele>109.3</ele>
        <time>2013-08-05T18:46:21.000Z</time>
      </trkpt>
      <trkpt lat="48.82554" lon="2.3784">
        <ele>109.5</ele>
        <time>2013-08-05T18:46:22.000Z</time>
      </trkpt>
      <trkpt lat="48.82549" lon="2.37839">
        <ele>110</ele>
        <time>2013-08-05T18:46:23.000Z</time>
      </trkpt>
      <trkpt lat="48.82545" lon="2.37839">
        <ele>111</ele>
        <time>2013-08-05T18:46:24.000Z</time>
      </trkpt>
      <trkpt lat="48.82541" lon="2.37839">
        <ele>111.5</ele>
        <time>2013-08-05T18:46:25.000Z</time>
      </trkpt>
      <trkpt lat="48.82537" lon="2.37839">
        <ele>110.2</ele>
        <time>2013-08-05T18:46:26.000Z</time>
      </trkpt>
      <trkpt lat="48.82532" lon="2.37838">
        <ele>111.9</ele>
        <time>2013-08-05T18:46:27.000Z</time>
      </trkpt>
      <trkpt lat="48.82528" lon="2.37837">
        <ele>112</ele>
        <time>2013-08-05T18:46:28.000Z</time>
      </trkpt>
      <trkpt lat="48.82525" lon="2.37837">
        <ele>112.7</ele>
        <time>2013-08-05T18:46:29.000Z</time>
      </trkpt>
      <trkpt lat="48.82521" lon="2.37836">
        <ele>111.7</ele>
        <time>2013-08-05T18:46:30.000Z</time>
      </trkpt>
      <trkpt lat="48.82518" lon="2.37836">
        <ele>111</ele>
        <time>2013-08-05T18:46:31.000Z</time>
      </trkpt>
      <trkpt lat="48.82514" lon="2.37835">
        <ele>111.2</ele>
        <time>2013-08-05T18:46:32.000Z</time>
      </trkpt>
      <trkpt lat="48.82511" lon="2.37833">
        <ele>111.5</ele>
        <time>2013-08-05T18:46:33.000Z</time>
      </trkpt>
      <trkpt lat="48.82508" lon="2.37832">
        <ele>111.3</ele>
        <time>2013-08-05T18:46:34.000Z</time>
      </trkpt>
      <trkpt lat="48.82505" lon="2.37828">
        <ele>107.8</ele>
        <time>2013-08-05T18:46:35.000Z</time>
      </trkpt>
      <trkpt lat="48.82503" lon="2.37823">
        <ele>105.2</ele>
        <time>2013-08-05T18:46:36.000Z</time>
      </trkpt>
      <trkpt lat="48.82501" lon="2.37817">
        <ele>103.8</ele>
        <time>2013-08-05T18:46:37.000Z</time>
      </trkpt>
      <trkpt lat="48.825" lon="2.37812">
        <ele>100.7</ele>
        <time>2013-08-05T18:46:38.000Z</time>
      </trkpt>
      <trkpt lat="48.82499" lon="2.37806">
        <ele>100</ele>
        <time>2013-08-05T18:46:39.000Z</time>
      </trkpt>
      <trkpt lat="48.82497" lon="2.378">
        <ele>100.2</ele>
        <time>2013-08-05T18:46:40.000Z</time>
      </trkpt>
      <trkpt lat="48.82496" lon="2.37795">
        <ele>100.8</ele>
        <time>2013-08-05T18:46:41.000Z</time>
      </trkpt>
      <trkpt lat="48.82494" lon="2.3779">
        <ele>101.3</ele>
        <time>2013-08-05T18:46:42.000Z</time>
      </trkpt>
      <trkpt lat="48.82493" lon="2.37785">
        <ele>100.5</ele>
        <time>2013-08-05T18:46:43.000Z</time>
      </trkpt>
      <trkpt lat="48.82492" lon="2.37779">
        <ele>100.1</ele>
        <time>2013-08-05T18:46:44.000Z</time>
      </trkpt>
      <trkpt lat="48.8249" lon="2.37774">
        <ele>99.2</ele>
        <time>2013-08-05T18:46:45.000Z</time>
      </trkpt>
      <trkpt lat="48.82489" lon="2.37769">
        <ele>99.1</ele>
        <time>2013-08-05T18:46:46.000Z</time>
      </trkpt>
      <trkpt lat="48.82487" lon="2.37763">
        <ele>97.2</ele>
        <time>2013-08-05T18:46:47.000Z</time>
      </trkpt>
      <trkpt lat="48.82486" lon="2.37758">
        <ele>97.1</ele>
        <time>2013-08-05T18:46:48.000Z</time>
      </trkpt>
      <trkpt lat="48.82484" lon="2.37752">
        <ele>97.5</ele>
        <time>2013-08-05T18:46:49.000Z</time>
      </trkpt>
      <trkpt lat="48.82482" lon="2.37747">
        <ele>96.8</ele>
        <time>2013-08-05T18:46:50.000Z</time>
      </trkpt>
      <trkpt lat="48.8248" lon="2.37741">
        <ele>97</ele>
        <time>2013-08-05T18:46:51.000Z</time>
      </trkpt>
      <trkpt lat="48.82478" lon="2.37736">
        <ele>96.2</ele>
        <time>2013-08-05T18:46:52.000Z</time>
      </trkpt>
      <trkpt lat="48.82476" lon="2.37731">
        <ele>94.9</ele>
        <time>2013-08-05T18:46:53.000Z</time>
      </trkpt>
      <trkpt lat="48.82475" lon="2.37726">
        <ele>94.9</ele>
        <time>2013-08-05T18:46:54.000Z</time>
      </trkpt>
      <trkpt lat="48.82473" lon="2.37722">
        <ele>94.3</ele>
        <time>2013-08-05T18:46:55.000Z</time>
      </trkpt>
      <trkpt lat="48.82471" lon="2.37717">
        <ele>94.6</ele>
        <time>2013-08-05T18:46:56.000Z</time>
      </trkpt>
      <trkpt lat="48.82469" lon="2.37713">
        <ele>94.4</ele>
        <time>2013-08-05T18:46:57.000Z</time>
      </trkpt>
      <trkpt lat="48.82467" lon="2.37709">
        <ele>93.9</ele>
        <time>2013-08-05T18:46:58.000Z</time>
      </trkpt>
      <trkpt lat="48.82465" lon="2.37705">
        <ele>92.1</ele>
        <time>2013-08-05T18:46:59.000Z</time>
      </trkpt>
      <trkpt lat="48.82462" lon="2.37701">
        <ele>92.4</ele>
        <time>2013-08-05T18:47:00.000Z</time>
      </trkpt>
      <trkpt lat="48.8246" lon="2.37697">
        <ele>91.9</ele>
        <time>2013-08-05T18:47:01.000Z</time>
      </trkpt>
      <trkpt lat="48.82458" lon="2.37693">
        <ele>91.9</ele>
        <time>2013-08-05T18:47:02.000Z</time>
      </trkpt>
      <trkpt lat="48.82456" lon="2.3769">
        <ele>91.7</ele>
        <time>2013-08-05T18:47:03.000Z</time>
      </trkpt>
      <trkpt lat="48.82454" lon="2.37687">
        <ele>91.4</ele>
        <time>2013-08-05T18:47:04.000Z</time>
      </trkpt>
      <trkpt lat="48.82452" lon="2.37684">
        <ele>90.8</ele>
        <time>2013-08-05T18:47:05.000Z</time>
      </trkpt>
      <trkpt lat="48.82451" lon="2.3768">
        <ele>90.5</ele>
        <time>2013-08-05T18:47:06.000Z</time>
      </trkpt>
      <trkpt lat="48.82449" lon="2.37676">
        <ele>89.9</ele>
        <time>2013-08-05T18:47:07.000Z</time>
      </trkpt>
      <trkpt lat="48.82448" lon="2.37673">
        <ele>89.4</ele>
        <time>2013-08-05T18:47:08.000Z</time>
      </trkpt>
      <trkpt lat="48.82446" lon="2.3767">
        <ele>89.3</ele>
        <time>2013-08-05T18:47:09.000Z</time>
      </trkpt>
      <trkpt lat="48.82444" lon="2.37668">
        <ele>90.7</ele>
        <time>2013-08-05T18:47:10.000Z</time>
      </trkpt>
      <trkpt lat="48.82442" lon="2.37666">
        <ele>90.1</ele>
        <time>2013-08-05T18:47:11.000Z</time>
      </trkpt>
      <trkpt lat="48.82441" lon="2.37663">
        <ele>90.8</ele>
        <time>2013-08-05T18:47:12.000Z</time>
      </trkpt>
      <trkpt lat="48.8244" lon="2.37659">
        <ele>91.5</ele>
        <time>2013-08-05T18:47:13.000Z</time>
      </trkpt>
      <trkpt lat="48.82441" lon="2.37655">
        <ele>92.4</ele>
        <time>2013-08-05T18:47:14.000Z</time>
      </trkpt>
      <trkpt lat="48.82441" lon="2.37651">
        <ele>92.9</ele>
        <time>2013-08-05T18:47:15.000Z</time>
      </trkpt>
      <trkpt lat="48.82441" lon="2.37647">
        <ele>93.3</ele>
        <time>2013-08-05T18:47:16.000Z</time>
      </trkpt>
      <trkpt lat="48.82441" lon="2.37643">
        <ele>93.3</ele>
        <time>2013-08-05T18:47:17.000Z</time>
      </trkpt>
      <trkpt lat="48.8244" lon="2.37639">
        <ele>94.3</ele>
        <time>2013-08-05T18:47:18.000Z</time>
      </trkpt>
      <trkpt lat="48.8244" lon="2.37635">
        <ele>95.4</ele>
        <time>2013-08-05T18:47:19.000Z</time>
      </trkpt>
      <trkpt lat="48.82439" lon="2.37631">
        <ele>94.9</ele>
        <time>2013-08-05T18:47:20.000Z</time>
      </trkpt>
      <trkpt lat="48.82439" lon="2.37627">
        <ele>94</ele>
        <time>2013-08-05T18:47:21.000Z</time>
      </trkpt>
      <trkpt lat="48.82438" lon="2.37623">
        <ele>94.5</ele>
        <time>2013-08-05T18:47:22.000Z</time>
      </trkpt>
      <trkpt lat="48.82437" lon="2.37619">
        <ele>94</ele>
        <time>2013-08-05T18:47:23.000Z</time>
      </trkpt>
      <trkpt lat="48.82436" lon="2.37614">
        <ele>94.4</ele>
        <time>2013-08-05T18:47:24.000Z</time>
      </trkpt>
      <trkpt lat="48.82434" lon="2.3761">
        <ele>93.5</ele>
        <time>2013-08-05T18:47:25.000Z</time>
      </trkpt>
      <trkpt lat="48.82433" lon="2.37606">
        <ele>92.9</ele>
        <time>2013-08-05T18:47:26.000Z</time>
      </trkpt>
      <trkpt lat="48.82432" lon="2.37601">
        <ele>92.7</ele>
        <time>2013-08-05T18:47:27.000Z</time>
      </trkpt>
      <trkpt lat="48.82431" lon="2.37597">
        <ele>92.8</ele>
        <time>2013-08-05T18:47:28.000Z</time>
      </trkpt>
      <trkpt lat="48.8243" lon="2.37594">
        <ele>92.4</ele>
        <time>2013-08-05T18:47:29.000Z</time>
      </trkpt>
      <trkpt lat="48.82429" lon="2.3759">
        <ele>91.8</ele>
        <time>2013-08-05T18:47:30.000Z</time>
      </trkpt>
      <trkpt lat="48.82428" lon="2.37587">
        <ele>92</ele>
        <time>2013-08-05T18:47:31.000Z</time>
      </trkpt>
      <trkpt lat="48.82427" lon="2.37584">
        <ele>93.3</ele>
        <time>2013-08-05T18:47:32.000Z</time>
      </trkpt>
      <trkpt lat="48.82425" lon="2.37579">
        <ele>94.4</ele>
        <time>2013-08-05T18:47:34.000Z</time>
      </trkpt>
      <trkpt lat="48.82424" lon="2.37577">
        <ele>94.7</ele>
        <time>2013-08-05T18:47:35.000Z</time>
      </trkpt>
      <trkpt lat="48.82422" lon="2.37571">
        <ele>93.6</ele>
        <time>2013-08-05T18:47:37.000Z</time>
      </trkpt>
      <trkpt lat="48.82422" lon="2.37568">
        <ele>93.8</ele>
        <time>2013-08-05T18:47:38.000Z</time>
      </trkpt>
      <trkpt lat="48.8242" lon="2.37562">
        <ele>93.7</ele>
        <time>2013-08-05T18:47:40.000Z</time>
      </trkpt>
      <trkpt lat="48.82419" lon="2.3756">
        <ele>93.6</ele>
        <time>2013-08-05T18:47:41.000Z</time>
      </trkpt>
      <trkpt lat="48.82418" lon="2.37555">
        <ele>94.6</ele>
        <time>2013-08-05T18:47:43.000Z</time>
      </trkpt>
      <trkpt lat="48.82419" lon="2.37552">
        <ele>94.8</ele>
        <time>2013-08-05T18:47:44.000Z</time>
      </trkpt>
      <trkpt lat="48.8242" lon="2.37546">
        <ele>95.9</ele>
        <time>2013-08-05T18:47:47.000Z</time>
      </trkpt>
      <trkpt lat="48.8242" lon="2.37544">
        <ele>97</ele>
        <time>2013-08-05T18:47:48.000Z</time>
      </trkpt>
      <trkpt lat="48.82415" lon="2.37542">
        <ele>102.7</ele>
        <time>2013-08-05T18:47:57.000Z</time>
      </trkpt>
      <trkpt lat="48.82415" lon="2.37539">
        <ele>104</ele>
        <time>2013-08-05T18:47:58.000Z</time>
      </trkpt>
      <trkpt lat="48.82413" lon="2.37535">
        <ele>105.8</ele>
        <time>2013-08-05T18:48:00.000Z</time>
      </trkpt>
      <trkpt lat="48.82413" lon="2.37533">
        <ele>107.6</ele>
        <time>2013-08-05T18:48:01.000Z</time>
      </trkpt>
      <trkpt lat="48.82413" lon="2.37528">
        <ele>112.9</ele>
        <time>2013-08-05T18:48:04.000Z</time>
      </trkpt>
      <trkpt lat="48.82412" lon="2.37525">
        <ele>112.2</ele>
        <time>2013-08-05T18:48:05.000Z</time>
      </trkpt>
      <trkpt lat="48.8241" lon="2.37522">
        <ele>112.4</ele>
        <time>2013-08-05T18:48:06.000Z</time>
      </trkpt>
      <trkpt lat="48.82407" lon="2.37517">
        <ele>109.4</ele>
        <time>2013-08-05T18:48:07.000Z</time>
      </trkpt>
      <trkpt lat="48.82405" lon="2.37513">
        <ele>107.7</ele>
        <time>2013-08-05T18:48:08.000Z</time>
      </trkpt>
      <trkpt lat="48.82401" lon="2.37505">
        <ele>108.6</ele>
        <time>2013-08-05T18:48:09.000Z</time>
      </trkpt>
      <trkpt lat="48.824" lon="2.37504">
        <ele>108.6</ele>
        <time>2013-08-05T18:48:10.000Z</time>
      </trkpt>
      <trkpt lat="48.82399" lon="2.37499">
        <ele>109.8</ele>
        <time>2013-08-05T18:48:11.000Z</time>
      </trkpt>
      <trkpt lat="48.82397" lon="2.37495">
        <ele>110.7</ele>
        <time>2013-08-05T18:48:12.000Z</time>
      </trkpt>
      <trkpt lat="48.82395" lon="2.37489">
        <ele>108.5</ele>
        <time>2013-08-05T18:48:13.000Z</time>
      </trkpt>
      <trkpt lat="48.82394" lon="2.37486">
        <ele>108.5</ele>
        <time>2013-08-05T18:48:14.000Z</time>
      </trkpt>
      <trkpt lat="48.82393" lon="2.37482">
        <ele>109.7</ele>
        <time>2013-08-05T18:48:15.000Z</time>
      </trkpt>
      <trkpt lat="48.82391" lon="2.37479">
        <ele>110.2</ele>
        <time>2013-08-05T18:48:16.000Z</time>
      </trkpt>
      <trkpt lat="48.8239" lon="2.37476">
        <ele>110.4</ele>
        <time>2013-08-05T18:48:17.000Z</time>
      </trkpt>
      <trkpt lat="48.82388" lon="2.37472">
        <ele>111.6</ele>
        <time>2013-08-05T18:48:18.000Z</time>
      </trkpt>
      <trkpt lat="48.82387" lon="2.37468">
        <ele>112.9</ele>
        <time>2013-08-05T18:48:19.000Z</time>
      </trkpt>
      <trkpt lat="48.82387" lon="2.37466">
        <ele>113.3</ele>
        <time>2013-08-05T18:48:20.000Z</time>
      </trkpt>
      <trkpt lat="48.82387" lon="2.3746">
        <ele>113.4</ele>
        <time>2013-08-05T18:48:21.000Z</time>
      </trkpt>
      <trkpt lat="48.82387" lon="2.37455">
        <ele>114.7</ele>
        <time>2013-08-05T18:48:23.000Z</time>
      </trkpt>
      <trkpt lat="48.82385" lon="2.37451">
        <ele>114.8</ele>
        <time>2013-08-05T18:48:24.000Z</time>
      </trkpt>
      <trkpt lat="48.82384" lon="2.37447">
        <ele>116.8</ele>
        <time>2013-08-05T18:48:25.000Z</time>
      </trkpt>
      <trkpt lat="48.82383" lon="2.37443">
        <ele>117.2</ele>
        <time>2013-08-05T18:48:26.000Z</time>
      </trkpt>
      <trkpt lat="48.82382" lon="2.37438">
        <ele>118.2</ele>
        <time>2013-08-05T18:48:27.000Z</time>
      </trkpt>
      <trkpt lat="48.82381" lon="2.37434">
        <ele>117.8</ele>
        <time>2013-08-05T18:48:28.000Z</time>
      </trkpt>
      <trkpt lat="48.82381" lon="2.3743">
        <ele>119.3</ele>
        <time>2013-08-05T18:48:29.000Z</time>
      </trkpt>
      <trkpt lat="48.82379" lon="2.37425">
        <ele>119.2</ele>
        <time>2013-08-05T18:48:30.000Z</time>
      </trkpt>
      <trkpt lat="48.82379" lon="2.37421">
        <ele>119.4</ele>
        <time>2013-08-05T18:48:31.000Z</time>
      </trkpt>
      <trkpt lat="48.82378" lon="2.37417">
        <ele>119.2</ele>
        <time>2013-08-05T18:48:32.000Z</time>
      </trkpt>
      <trkpt lat="48.82378" lon="2.37413">
        <ele>119.3</ele>
        <time>2013-08-05T18:48:33.000Z</time>
      </trkpt>
      <trkpt lat="48.82377" lon="2.37409">
        <ele>121.1</ele>
        <time>2013-08-05T18:48:34.000Z</time>
      </trkpt>
      <trkpt lat="48.82376" lon="2.37402">
        <ele>120.6</ele>
        <time>2013-08-05T18:48:36.000Z</time>
      </trkpt>
      <trkpt lat="48.82375" lon="2.37398">
        <ele>122.6</ele>
        <time>2013-08-05T18:48:37.000Z</time>
      </trkpt>
      <trkpt lat="48.82374" lon="2.37392">
        <ele>121.6</ele>
        <time>2013-08-05T18:48:39.000Z</time>
      </trkpt>
      <trkpt lat="48.82374" lon="2.37388">
        <ele>120.7</ele>
        <time>2013-08-05T18:48:40.000Z</time>
      </trkpt>
      <trkpt lat="48.82373" lon="2.37382">
        <ele>121</ele>
        <time>2013-08-05T18:48:42.000Z</time>
      </trkpt>
      <trkpt lat="48.82373" lon="2.37378">
        <ele>121.4</ele>
        <time>2013-08-05T18:48:43.000Z</time>
      </trkpt>
      <trkpt lat="48.82372" lon="2.37372">
        <ele>118.2</ele>
        <time>2013-08-05T18:48:45.000Z</time>
      </trkpt>
      <trkpt lat="48.82372" lon="2.37369">
        <ele>118.4</ele>
        <time>2013-08-05T18:48:46.000Z</time>
      </trkpt>
      <trkpt lat="48.82374" lon="2.37364">
        <ele>116.7</ele>
        <time>2013-08-05T18:48:48.000Z</time>
      </trkpt>
      <trkpt lat="48.82375" lon="2.3736">
        <ele>117.6</ele>
        <time>2013-08-05T18:48:49.000Z</time>
      </trkpt>
      <trkpt lat="48.82375" lon="2.37355">
        <ele>116.7</ele>
        <time>2013-08-05T18:48:51.000Z</time>
      </trkpt>
      <trkpt lat="48.82374" lon="2.37353">
        <ele>116.9</ele>
        <time>2013-08-05T18:48:52.000Z</time>
      </trkpt>
      <trkpt lat="48.82372" lon="2.37348">
        <ele>116.6</ele>
        <time>2013-08-05T18:48:54.000Z</time>
      </trkpt>
      <trkpt lat="48.82372" lon="2.37345">
        <ele>116</ele>
        <time>2013-08-05T18:48:55.000Z</time>
      </trkpt>
      <trkpt lat="48.82371" lon="2.3734">
        <ele>115.5</ele>
        <time>2013-08-05T18:48:57.000Z</time>
      </trkpt>
      <trkpt lat="48.8237" lon="2.37337">
        <ele>115.4</ele>
        <time>2013-08-05T18:48:58.000Z</time>
      </trkpt>
      <trkpt lat="48.82369" lon="2.37331">
        <ele>116</ele>
        <time>2013-08-05T18:49:00.000Z</time>
      </trkpt>
      <trkpt lat="48.82369" lon="2.37328">
        <ele>116.3</ele>
        <time>2013-08-05T18:49:01.000Z</time>
      </trkpt>
      <trkpt lat="48.82368" lon="2.37324">
        <ele>116.3</ele>
        <time>2013-08-05T18:49:02.000Z</time>
      </trkpt>
      <trkpt lat="48.82368" lon="2.3732">
        <ele>114.7</ele>
        <time>2013-08-05T18:49:03.000Z</time>
      </trkpt>
      <trkpt lat="48.82367" lon="2.37317">
        <ele>114.5</ele>
        <time>2013-08-05T18:49:04.000Z</time>
      </trkpt>
      <trkpt lat="48.82367" lon="2.37312">
        <ele>116.9</ele>
        <time>2013-08-05T18:49:05.000Z</time>
      </trkpt>
      <trkpt lat="48.82367" lon="2.37309">
        <ele>118.3</ele>
        <time>2013-08-05T18:49:06.000Z</time>
      </trkpt>
      <trkpt lat="48.82366" lon="2.37305">
        <ele>117.1</ele>
        <time>2013-08-05T18:49:07.000Z</time>
      </trkpt>
      <trkpt lat="48.82365" lon="2.37302">
        <ele>116.6</ele>
        <time>2013-08-05T18:49:08.000Z</time>
      </trkpt>
      <trkpt lat="48.82365" lon="2.37298">
        <ele>114.6</ele>
        <time>2013-08-05T18:49:09.000Z</time>
      </trkpt>
      <trkpt lat="48.82365" lon="2.37295">
        <ele>113.6</ele>
        <time>2013-08-05T18:49:10.000Z</time>
      </trkpt>
      <trkpt lat="48.82365" lon="2.37291">
        <ele>113.1</ele>
        <time>2013-08-05T18:49:11.000Z</time>
      </trkpt>
      <trkpt lat="48.82365" lon="2.37287">
        <ele>112.6</ele>
        <time>2013-08-05T18:49:12.000Z</time>
      </trkpt>
      <trkpt lat="48.82365" lon="2.37283">
        <ele>111.4</ele>
        <time>2013-08-05T18:49:13.000Z</time>
      </trkpt>
      <trkpt lat="48.82365" lon="2.37279">
        <ele>110.5</ele>
        <time>2013-08-05T18:49:14.000Z</time>
      </trkpt>
      <trkpt lat="48.82364" lon="2.37275">
        <ele>110.9</ele>
        <time>2013-08-05T18:49:15.000Z</time>
      </trkpt>
      <trkpt lat="48.82364" lon="2.37271">
        <ele>110.1</ele>
        <time>2013-08-05T18:49:16.000Z</time>
      </trkpt>
      <trkpt lat="48.82364" lon="2.37267">
        <ele>108.7</ele>
        <time>2013-08-05T18:49:17.000Z</time>
      </trkpt>
      <trkpt lat="48.82363" lon="2.37263">
        <ele>108.3</ele>
        <time>2013-08-05T18:49:18.000Z</time>
      </trkpt>
      <trkpt lat="48.82363" lon="2.37259">
        <ele>108.4</ele>
        <time>2013-08-05T18:49:19.000Z</time>
      </trkpt>
      <trkpt lat="48.82363" lon="2.37255">
        <ele>108.1</ele>
        <time>2013-08-05T18:49:20.000Z</time>
      </trkpt>
      <trkpt lat="48.82362" lon="2.37251">
        <ele>107.1</ele>
        <time>2013-08-05T18:49:21.000Z</time>
      </trkpt>
      <trkpt lat="48.82362" lon="2.37247">
        <ele>107.3</ele>
        <time>2013-08-05T18:49:22.000Z</time>
      </trkpt>
      <trkpt lat="48.82361" lon="2.37242">
        <ele>107.6</ele>
        <time>2013-08-05T18:49:23.000Z</time>
      </trkpt>
      <trkpt lat="48.8236" lon="2.37238">
        <ele>109</ele>
        <time>2013-08-05T18:49:24.000Z</time>
      </trkpt>
      <trkpt lat="48.8236" lon="2.37232">
        <ele>109.8</ele>
        <time>2013-08-05T18:49:25.000Z</time>
      </trkpt>
      <trkpt lat="48.82359" lon="2.37227">
        <ele>110.1</ele>
        <time>2013-08-05T18:49:26.000Z</time>
      </trkpt>
      <trkpt lat="48.82358" lon="2.37221">
        <ele>111.8</ele>
        <time>2013-08-05T18:49:27.000Z</time>
      </trkpt>
      <trkpt lat="48.82358" lon="2.37215">
        <ele>111.7</ele>
        <time>2013-08-05T18:49:28.000Z</time>
      </trkpt>
      <trkpt lat="48.82357" lon="2.37209">
        <ele>111.8</ele>
        <time>2013-08-05T18:49:29.000Z</time>
      </trkpt>
      <trkpt lat="48.82356" lon="2.37203">
        <ele>112.3</ele>
        <time>2013-08-05T18:49:30.000Z</time>
      </trkpt>
      <trkpt lat="48.82355" lon="2.37198">
        <ele>110.9</ele>
        <time>2013-08-05T18:49:31.000Z</time>
      </trkpt>
      <trkpt lat="48.82354" lon="2.37193">
        <ele>110.8</ele>
        <time>2013-08-05T18:49:32.000Z</time>
      </trkpt>
      <trkpt lat="48.82354" lon="2.37189">
        <ele>112</ele>
        <time>2013-08-05T18:49:33.000Z</time>
      </trkpt>
      <trkpt lat="48.82353" lon="2.37185">
        <ele>111.8</ele>
        <time>2013-08-05T18:49:34.000Z</time>
      </trkpt>
      <trkpt lat="48.82352" lon="2.37181">
        <ele>111.6</ele>
        <time>2013-08-05T18:49:35.000Z</time>
      </trkpt>
      <trkpt lat="48.82352" lon="2.37176">
        <ele>111.6</ele>
        <time>2013-08-05T18:49:36.000Z</time>
      </trkpt>
      <trkpt lat="48.82351" lon="2.37173">
        <ele>111.7</ele>
        <time>2013-08-05T18:49:37.000Z</time>
      </trkpt>
      <trkpt lat="48.82351" lon="2.37169">
        <ele>112</ele>
        <time>2013-08-05T18:49:38.000Z</time>
      </trkpt>
      <trkpt lat="48.8235" lon="2.37165">
        <ele>112.6</ele>
        <time>2013-08-05T18:49:39.000Z</time>
      </trkpt>
      <trkpt lat="48.82349" lon="2.37161">
        <ele>114</ele>
        <time>2013-08-05T18:49:41.000Z</time>
      </trkpt>
      <trkpt lat="48.82348" lon="2.37158">
        <ele>113.2</ele>
        <time>2013-08-05T18:49:42.000Z</time>
      </trkpt>
      <trkpt lat="48.82347" lon="2.37155">
        <ele>113.8</ele>
        <time>2013-08-05T18:49:43.000Z</time>
      </trkpt>
      <trkpt lat="48.82346" lon="2.37151">
        <ele>113.9</ele>
        <time>2013-08-05T18:49:44.000Z</time>
      </trkpt>
      <trkpt lat="48.82346" lon="2.37147">
        <ele>112.7</ele>
        <time>2013-08-05T18:49:45.000Z</time>
      </trkpt>
      <trkpt lat="48.82345" lon="2.37143">
        <ele>112.9</ele>
        <time>2013-08-05T18:49:46.000Z</time>
      </trkpt>
      <trkpt lat="48.82345" lon="2.37139">
        <ele>112.7</ele>
        <time>2013-08-05T18:49:47.000Z</time>
      </trkpt>
      <trkpt lat="48.82344" lon="2.37134">
        <ele>112.5</ele>
        <time>2013-08-05T18:49:48.000Z</time>
      </trkpt>
      <trkpt lat="48.82344" lon="2.3713">
        <ele>112.3</ele>
        <time>2013-08-05T18:49:49.000Z</time>
      </trkpt>
      <trkpt lat="48.82343" lon="2.37125">
        <ele>112.3</ele>
        <time>2013-08-05T18:49:50.000Z</time>
      </trkpt>
      <trkpt lat="48.82343" lon="2.37121">
        <ele>112</ele>
        <time>2013-08-05T18:49:51.000Z</time>
      </trkpt>
      <trkpt lat="48.82342" lon="2.37117">
        <ele>111.4</ele>
        <time>2013-08-05T18:49:52.000Z</time>
      </trkpt>
      <trkpt lat="48.82342" lon="2.37113">
        <ele>111.4</ele>
        <time>2013-08-05T18:49:53.000Z</time>
      </trkpt>
      <trkpt lat="48.82342" lon="2.37109">
        <ele>110.9</ele>
        <time>2013-08-05T18:49:54.000Z</time>
      </trkpt>
      <trkpt lat="48.82343" lon="2.37102">
        <ele>114.2</ele>
        <time>2013-08-05T18:49:56.000Z</time>
      </trkpt>
      <trkpt lat="48.82343" lon="2.37099">
        <ele>115.5</ele>
        <time>2013-08-05T18:49:57.000Z</time>
      </trkpt>
      <trkpt lat="48.82344" lon="2.37095">
        <ele>116.5</ele>
        <time>2013-08-05T18:49:59.000Z</time>
      </trkpt>
      <trkpt lat="48.82345" lon="2.37093">
        <ele>116.5</ele>
        <time>2013-08-05T18:50:00.000Z</time>
      </trkpt>
      <trkpt lat="48.82344" lon="2.37089">
        <ele>116.8</ele>
        <time>2013-08-05T18:50:55.000Z</time>
      </trkpt>
      <trkpt lat="48.82341" lon="2.37088">
        <ele>116.9</ele>
        <time>2013-08-05T18:50:56.000Z</time>
      </trkpt>
      <trkpt lat="48.82338" lon="2.37085">
        <ele>116.6</ele>
        <time>2013-08-05T18:50:57.000Z</time>
      </trkpt>
      <trkpt lat="48.82336" lon="2.37082">
        <ele>114.8</ele>
        <time>2013-08-05T18:50:58.000Z</time>
      </trkpt>
      <trkpt lat="48.82335" lon="2.37077">
        <ele>114.6</ele>
        <time>2013-08-05T18:50:59.000Z</time>
      </trkpt>
      <trkpt lat="48.82334" lon="2.37073">
        <ele>114.3</ele>
        <time>2013-08-05T18:51:00.000Z</time>
      </trkpt>
      <trkpt lat="48.82333" lon="2.37069">
        <ele>115.3</ele>
        <time>2013-08-05T18:51:01.000Z</time>
      </trkpt>
      <trkpt lat="48.82332" lon="2.37065">
        <ele>115.3</ele>
        <time>2013-08-05T18:51:02.000Z</time>
      </trkpt>
      <trkpt lat="48.82331" lon="2.3706">
        <ele>114.5</ele>
        <time>2013-08-05T18:51:03.000Z</time>
      </trkpt>
      <trkpt lat="48.8233" lon="2.37056">
        <ele>114.3</ele>
        <time>2013-08-05T18:51:04.000Z</time>
      </trkpt>
      <trkpt lat="48.82329" lon="2.37051">
        <ele>114.2</ele>
        <time>2013-08-05T18:51:05.000Z</time>
      </trkpt>
      <trkpt lat="48.82327" lon="2.37045">
        <ele>113</ele>
        <time>2013-08-05T18:51:06.000Z</time>
      </trkpt>
      <trkpt lat="48.82326" lon="2.37039">
        <ele>112.6</ele>
        <time>2013-08-05T18:51:07.000Z</time>
      </trkpt>
      <trkpt lat="48.82324" lon="2.37033">
        <ele>112.5</ele>
        <time>2013-08-05T18:51:08.000Z</time>
      </trkpt>
      <trkpt lat="48.82323" lon="2.37028">
        <ele>112.7</ele>
        <time>2013-08-05T18:51:09.000Z</time>
      </trkpt>
      <trkpt lat="48.82322" lon="2.37022">
        <ele>112.7</ele>
        <time>2013-08-05T18:51:10.000Z</time>
      </trkpt>
      <trkpt lat="48.82321" lon="2.37016">
        <ele>111.4</ele>
        <time>2013-08-05T18:51:11.000Z</time>
      </trkpt>
      <trkpt lat="48.8232" lon="2.37009">
        <ele>111.1</ele>
        <time>2013-08-05T18:51:12.000Z</time>
      </trkpt>
      <trkpt lat="48.82319" lon="2.37003">
        <ele>111.2</ele>
        <time>2013-08-05T18:51:13.000Z</time>
      </trkpt>
      <trkpt lat="48.82318" lon="2.36996">
        <ele>109.6</ele>
        <time>2013-08-05T18:51:14.000Z</time>
      </trkpt>
      <trkpt lat="48.82317" lon="2.3699">
        <ele>109.8</ele>
        <time>2013-08-05T18:51:15.000Z</time>
      </trkpt>
      <trkpt lat="48.82315" lon="2.36982">
        <ele>109</ele>
        <time>2013-08-05T18:51:16.000Z</time>
      </trkpt>
      <trkpt lat="48.82314" lon="2.36975">
        <ele>110.2</ele>
        <time>2013-08-05T18:51:17.000Z</time>
      </trkpt>
      <trkpt lat="48.82311" lon="2.36965">
        <ele>109.6</ele>
        <time>2013-08-05T18:51:18.000Z</time>
      </trkpt>
      <trkpt lat="48.8231" lon="2.36956">
        <ele>109.5</ele>
        <time>2013-08-05T18:51:19.000Z</time>
      </trkpt>
      <trkpt lat="48.82308" lon="2.36949">
        <ele>108</ele>
        <time>2013-08-05T18:51:20.000Z</time>
      </trkpt>
      <trkpt lat="48.82307" lon="2.36943">
        <ele>108.2</ele>
        <time>2013-08-05T18:51:21.000Z</time>
      </trkpt>
      <trkpt lat="48.82305" lon="2.36937">
        <ele>108.6</ele>
        <time>2013-08-05T18:51:22.000Z</time>
      </trkpt>
      <trkpt lat="48.82303" lon="2.36929">
        <ele>108.4</ele>
        <time>2013-08-05T18:51:23.000Z</time>
      </trkpt>
      <trkpt lat="48.82302" lon="2.36922">
        <ele>107.9</ele>
        <time>2013-08-05T18:51:24.000Z</time>
      </trkpt>
      <trkpt lat="48.82301" lon="2.36916">
        <ele>109.3</ele>
        <time>2013-08-05T18:51:25.000Z</time>
      </trkpt>
      <trkpt lat="48.82299" lon="2.3691">
        <ele>109.2</ele>
        <time>2013-08-05T18:51:26.000Z</time>
      </trkpt>
      <trkpt lat="48.82299" lon="2.36905">
        <ele>108.5</ele>
        <time>2013-08-05T18:51:27.000Z</time>
      </trkpt>
      <trkpt lat="48.82297" lon="2.36899">
        <ele>109.8</ele>
        <time>2013-08-05T18:51:28.000Z</time>
      </trkpt>
      <trkpt lat="48.82296" lon="2.36894">
        <ele>110.3</ele>
        <time>2013-08-05T18:51:30.000Z</time>
      </trkpt>
      <trkpt lat="48.82297" lon="2.36889">
        <ele>108.3</ele>
        <time>2013-08-05T18:51:31.000Z</time>
      </trkpt>
      <trkpt lat="48.82295" lon="2.36887">
        <ele>109.3</ele>
        <time>2013-08-05T18:51:32.000Z</time>
      </trkpt>
      <trkpt lat="48.82294" lon="2.36884">
        <ele>110.8</ele>
        <time>2013-08-05T18:51:33.000Z</time>
      </trkpt>
      <trkpt lat="48.82292" lon="2.3688">
        <ele>112.6</ele>
        <time>2013-08-05T18:51:34.000Z</time>
      </trkpt>
      <trkpt lat="48.82291" lon="2.36875">
        <ele>112.6</ele>
        <time>2013-08-05T18:51:35.000Z</time>
      </trkpt>
      <trkpt lat="48.8229" lon="2.36869">
        <ele>111.2</ele>
        <time>2013-08-05T18:51:36.000Z</time>
      </trkpt>
      <trkpt lat="48.82288" lon="2.36863">
        <ele>111.2</ele>
        <time>2013-08-05T18:51:37.000Z</time>
      </trkpt>
      <trkpt lat="48.82287" lon="2.36857">
        <ele>110.9</ele>
        <time>2013-08-05T18:51:38.000Z</time>
      </trkpt>
      <trkpt lat="48.82286" lon="2.3685">
        <ele>112.3</ele>
        <time>2013-08-05T18:51:39.000Z</time>
      </trkpt>
      <trkpt lat="48.82285" lon="2.36844">
        <ele>112.6</ele>
        <time>2013-08-05T18:51:40.000Z</time>
      </trkpt>
      <trkpt lat="48.82283" lon="2.36838">
        <ele>113.5</ele>
        <time>2013-08-05T18:51:41.000Z</time>
      </trkpt>
      <trkpt lat="48.82282" lon="2.36832">
        <ele>114.2</ele>
        <time>2013-08-05T18:51:42.000Z</time>
      </trkpt>
      <trkpt lat="48.82282" lon="2.36826">
        <ele>115.7</ele>
        <time>2013-08-05T18:51:43.000Z</time>
      </trkpt>
      <trkpt lat="48.82281" lon="2.36819">
        <ele>116.6</ele>
        <time>2013-08-05T18:51:44.000Z</time>
      </trkpt>
      <trkpt lat="48.8228" lon="2.36813">
        <ele>116.6</ele>
        <time>2013-08-05T18:51:45.000Z</time>
      </trkpt>
      <trkpt lat="48.82278" lon="2.36806">
        <ele>117</ele>
        <time>2013-08-05T18:51:46.000Z</time>
      </trkpt>
      <trkpt lat="48.82276" lon="2.36797">
        <ele>117.4</ele>
        <time>2013-08-05T18:51:47.000Z</time>
      </trkpt>
      <trkpt lat="48.82275" lon="2.36791">
        <ele>117.4</ele>
        <time>2013-08-05T18:51:48.000Z</time>
      </trkpt>
      <trkpt lat="48.82272" lon="2.36781">
        <ele>117.4</ele>
        <time>2013-08-05T18:51:49.000Z</time>
      </trkpt>
      <trkpt lat="48.82271" lon="2.36774">
        <ele>117.4</ele>
        <time>2013-08-05T18:51:50.000Z</time>
      </trkpt>
      <trkpt lat="48.82269" lon="2.36766">
        <ele>117.8</ele>
        <time>2013-08-05T18:51:51.000Z</time>
      </trkpt>
      <trkpt lat="48.82269" lon="2.3676">
        <ele>118.8</ele>
        <time>2013-08-05T18:51:52.000Z</time>
      </trkpt>
      <trkpt lat="48.82267" lon="2.36752">
        <ele>119.4</ele>
        <time>2013-08-05T18:51:53.000Z</time>
      </trkpt>
      <trkpt lat="48.82267" lon="2.36746">
        <ele>119.6</ele>
        <time>2013-08-05T18:51:54.000Z</time>
      </trkpt>
      <trkpt lat="48.82266" lon="2.3674">
        <ele>119.6</ele>
        <time>2013-08-05T18:51:55.000Z</time>
      </trkpt>
      <trkpt lat="48.82264" lon="2.36735">
        <ele>119.7</ele>
        <time>2013-08-05T18:51:56.000Z</time>
      </trkpt>
      <trkpt lat="48.82263" lon="2.36731">
        <ele>119.7</ele>
        <time>2013-08-05T18:51:57.000Z</time>
      </trkpt>
      <trkpt lat="48.82262" lon="2.36727">
        <ele>119.7</ele>
        <time>2013-08-05T18:51:58.000Z</time>
      </trkpt>
      <trkpt lat="48.82262" lon="2.36722">
        <ele>119.6</ele>
        <time>2013-08-05T18:51:59.000Z</time>
      </trkpt>
      <trkpt lat="48.82262" lon="2.36718">
        <ele>119.1</ele>
        <time>2013-08-05T18:52:00.000Z</time>
      </trkpt>
      <trkpt lat="48.82262" lon="2.36715">
        <ele>120</ele>
        <time>2013-08-05T18:52:01.000Z</time>
      </trkpt>
      <trkpt lat="48.82262" lon="2.36712">
        <ele>121.1</ele>
        <time>2013-08-05T18:52:02.000Z</time>
      </trkpt>
      <trkpt lat="48.82263" lon="2.36707">
        <ele>121.5</ele>
        <time>2013-08-05T18:52:03.000Z</time>
      </trkpt>
      <trkpt lat="48.82264" lon="2.36701">
        <ele>122.4</ele>
        <time>2013-08-05T18:52:04.000Z</time>
      </trkpt>
      <trkpt lat="48.82266" lon="2.36696">
        <ele>122.5</ele>
        <time>2013-08-05T18:52:05.000Z</time>
      </trkpt>
      <trkpt lat="48.82267" lon="2.36691">
        <ele>123.3</ele>
        <time>2013-08-05T18:52:06.000Z</time>
      </trkpt>
      <trkpt lat="48.82269" lon="2.36686">
        <ele>122.2</ele>
        <time>2013-08-05T18:52:07.000Z</time>
      </trkpt>
      <trkpt lat="48.82271" lon="2.36681">
        <ele>121.2</ele>
        <time>2013-08-05T18:52:08.000Z</time>
      </trkpt>
      <trkpt lat="48.82273" lon="2.36675">
        <ele>121.8</ele>
        <time>2013-08-05T18:52:09.000Z</time>
      </trkpt>
      <trkpt lat="48.82275" lon="2.3667">
        <ele>122.2</ele>
        <time>2013-08-05T18:52:10.000Z</time>
      </trkpt>
      <trkpt lat="48.82277" lon="2.36664">
        <ele>121.8</ele>
        <time>2013-08-05T18:52:11.000Z</time>
      </trkpt>
      <trkpt lat="48.8228" lon="2.36659">
        <ele>120.9</ele>
        <time>2013-08-05T18:52:12.000Z</time>
      </trkpt>
      <trkpt lat="48.82283" lon="2.36655">
        <ele>119.3</ele>
        <time>2013-08-05T18:52:13.000Z</time>
      </trkpt>
      <trkpt lat="48.82286" lon="2.3665">
        <ele>119.6</ele>
        <time>2013-08-05T18:52:14.000Z</time>
      </trkpt>
      <trkpt lat="48.82289" lon="2.36645">
        <ele>119.2</ele>
        <time>2013-08-05T18:52:15.000Z</time>
      </trkpt>
      <trkpt lat="48.82292" lon="2.36641">
        <ele>118.8</ele>
        <time>2013-08-05T18:52:16.000Z</time>
      </trkpt>
      <trkpt lat="48.82295" lon="2.36636">
        <ele>118.4</ele>
        <time>2013-08-05T18:52:17.000Z</time>
      </trkpt>
      <trkpt lat="48.82297" lon="2.36631">
        <ele>117.3</ele>
        <time>2013-08-05T18:52:18.000Z</time>
      </trkpt>
      <trkpt lat="48.823" lon="2.36625">
        <ele>118.6</ele>
        <time>2013-08-05T18:52:19.000Z</time>
      </trkpt>
      <trkpt lat="48.82302" lon="2.36619">
        <ele>118.6</ele>
        <time>2013-08-05T18:52:20.000Z</time>
      </trkpt>
      <trkpt lat="48.82304" lon="2.36613">
        <ele>118.9</ele>
        <time>2013-08-05T18:52:21.000Z</time>
      </trkpt>
      <trkpt lat="48.82306" lon="2.36607">
        <ele>117.4</ele>
        <time>2013-08-05T18:52:22.000Z</time>
      </trkpt>
      <trkpt lat="48.82309" lon="2.36601">
        <ele>117.9</ele>
        <time>2013-08-05T18:52:23.000Z</time>
      </trkpt>
      <trkpt lat="48.82311" lon="2.36596">
        <ele>117.6</ele>
        <time>2013-08-05T18:52:24.000Z</time>
      </trkpt>
      <trkpt lat="48.82314" lon="2.3659">
        <ele>117.4</ele>
        <time>2013-08-05T18:52:25.000Z</time>
      </trkpt>
      <trkpt lat="48.82317" lon="2.36582">
        <ele>117.4</ele>
        <time>2013-08-05T18:52:26.000Z</time>
      </trkpt>
      <trkpt lat="48.8232" lon="2.36575">
        <ele>117.3</ele>
        <time>2013-08-05T18:52:27.000Z</time>
      </trkpt>
      <trkpt lat="48.82322" lon="2.36571">
        <ele>117.5</ele>
        <time>2013-08-05T18:52:28.000Z</time>
      </trkpt>
      <trkpt lat="48.82326" lon="2.36563">
        <ele>118.2</ele>
        <time>2013-08-05T18:52:29.000Z</time>
      </trkpt>
      <trkpt lat="48.82329" lon="2.36558">
        <ele>118.6</ele>
        <time>2013-08-05T18:52:30.000Z</time>
      </trkpt>
      <trkpt lat="48.82333" lon="2.36552">
        <ele>119.1</ele>
        <time>2013-08-05T18:52:31.000Z</time>
      </trkpt>
      <trkpt lat="48.82335" lon="2.36546">
        <ele>120.2</ele>
        <time>2013-08-05T18:52:32.000Z</time>
      </trkpt>
      <trkpt lat="48.82338" lon="2.36537">
        <ele>120.6</ele>
        <time>2013-08-05T18:52:33.000Z</time>
      </trkpt>
      <trkpt lat="48.82341" lon="2.36531">
        <ele>120.8</ele>
        <time>2013-08-05T18:52:34.000Z</time>
      </trkpt>
      <trkpt lat="48.82345" lon="2.36524">
        <ele>121.2</ele>
        <time>2013-08-05T18:52:35.000Z</time>
      </trkpt>
      <trkpt lat="48.82348" lon="2.36518">
        <ele>121.3</ele>
        <time>2013-08-05T18:52:36.000Z</time>
      </trkpt>
      <trkpt lat="48.82351" lon="2.36513">
        <ele>121.2</ele>
        <time>2013-08-05T18:52:37.000Z</time>
      </trkpt>
      <trkpt lat="48.82353" lon="2.36507">
        <ele>120.9</ele>
        <time>2013-08-05T18:52:38.000Z</time>
      </trkpt>
      <trkpt lat="48.82357" lon="2.365">
        <ele>120.6</ele>
        <time>2013-08-05T18:52:39.000Z</time>
      </trkpt>
      <trkpt lat="48.82359" lon="2.36493">
        <ele>120.3</ele>
        <time>2013-08-05T18:52:40.000Z</time>
      </trkpt>
      <trkpt lat="48.82362" lon="2.36487">
        <ele>120.7</ele>
        <time>2013-08-05T18:52:41.000Z</time>
      </trkpt>
      <trkpt lat="48.82365" lon="2.36481">
        <ele>121.4</ele>
        <time>2013-08-05T18:52:42.000Z</time>
      </trkpt>
      <trkpt lat="48.82369" lon="2.36475">
        <ele>121.3</ele>
        <time>2013-08-05T18:52:43.000Z</time>
      </trkpt>
      <trkpt lat="48.82372" lon="2.36469">
        <ele>121.8</ele>
        <time>2013-08-05T18:52:44.000Z</time>
      </trkpt>
      <trkpt lat="48.82376" lon="2.36464">
        <ele>122.4</ele>
        <time>2013-08-05T18:52:45.000Z</time>
      </trkpt>
      <trkpt lat="48.82379" lon="2.36457">
        <ele>122.8</ele>
        <time>2013-08-05T18:52:46.000Z</time>
      </trkpt>
      <trkpt lat="48.82384" lon="2.36453">
        <ele>123.2</ele>
        <time>2013-08-05T18:52:47.000Z</time>
      </trkpt>
      <trkpt lat="48.82389" lon="2.36449">
        <ele>123.5</ele>
        <time>2013-08-05T18:52:48.000Z</time>
      </trkpt>
      <trkpt lat="48.82392" lon="2.36443">
        <ele>123.3</ele>
        <time>2013-08-05T18:52:49.000Z</time>
      </trkpt>
      <trkpt lat="48.82395" lon="2.36436">
        <ele>124.1</ele>
        <time>2013-08-05T18:52:50.000Z</time>
      </trkpt>
      <trkpt lat="48.82397" lon="2.3643">
        <ele>125</ele>
        <time>2013-08-05T18:52:51.000Z</time>
      </trkpt>
      <trkpt lat="48.82401" lon="2.36425">
        <ele>124.8</ele>
        <time>2013-08-05T18:52:52.000Z</time>
      </trkpt>
      <trkpt lat="48.82404" lon="2.36425">
        <ele>120.5</ele>
        <time>2013-08-05T18:52:53.000Z</time>
      </trkpt>
      <trkpt lat="48.82408" lon="2.36416">
        <ele>120.5</ele>
        <time>2013-08-05T18:52:54.000Z</time>
      </trkpt>
      <trkpt lat="48.82412" lon="2.3641">
        <ele>119</ele>
        <time>2013-08-05T18:52:55.000Z</time>
      </trkpt>
      <trkpt lat="48.82415" lon="2.36403">
        <ele>117.1</ele>
        <time>2013-08-05T18:52:56.000Z</time>
      </trkpt>
      <trkpt lat="48.82418" lon="2.36396">
        <ele>116.1</ele>
        <time>2013-08-05T18:52:57.000Z</time>
      </trkpt>
      <trkpt lat="48.82422" lon="2.36388">
        <ele>114.5</ele>
        <time>2013-08-05T18:52:58.000Z</time>
      </trkpt>
      <trkpt lat="48.82425" lon="2.36383">
        <ele>114.2</ele>
        <time>2013-08-05T18:52:59.000Z</time>
      </trkpt>
      <trkpt lat="48.82428" lon="2.36377">
        <ele>114.4</ele>
        <time>2013-08-05T18:53:00.000Z</time>
      </trkpt>
      <trkpt lat="48.8243" lon="2.36372">
        <ele>114.2</ele>
        <time>2013-08-05T18:53:01.000Z</time>
      </trkpt>
      <trkpt lat="48.82432" lon="2.36368">
        <ele>114.1</ele>
        <time>2013-08-05T18:53:02.000Z</time>
      </trkpt>
      <trkpt lat="48.82434" lon="2.36364">
        <ele>111.3</ele>
        <time>2013-08-05T18:53:03.000Z</time>
      </trkpt>
      <trkpt lat="48.82436" lon="2.36362">
        <ele>111.1</ele>
        <time>2013-08-05T18:53:04.000Z</time>
      </trkpt>
      <trkpt lat="48.82438" lon="2.36359">
        <ele>112.1</ele>
        <time>2013-08-05T18:53:05.000Z</time>
      </trkpt>
      <trkpt lat="48.8244" lon="2.36355">
        <ele>111.9</ele>
        <time>2013-08-05T18:53:06.000Z</time>
      </trkpt>
      <trkpt lat="48.82442" lon="2.36351">
        <ele>112</ele>
        <time>2013-08-05T18:53:07.000Z</time>
      </trkpt>
      <trkpt lat="48.82443" lon="2.36348">
        <ele>111.9</ele>
        <time>2013-08-05T18:53:08.000Z</time>
      </trkpt>
      <trkpt lat="48.82446" lon="2.36342">
        <ele>113.2</ele>
        <time>2013-08-05T18:53:11.000Z</time>
      </trkpt>
      <trkpt lat="48.82446" lon="2.36341">
        <ele>113.5</ele>
        <time>2013-08-05T18:53:12.000Z</time>
      </trkpt>
      <trkpt lat="48.82448" lon="2.36346">
        <ele>109.7</ele>
        <time>2013-08-05T18:53:17.000Z</time>
      </trkpt>
      <trkpt lat="48.82448" lon="2.36348">
        <ele>109.4</ele>
        <time>2013-08-05T18:53:18.000Z</time>
      </trkpt>
      <trkpt lat="48.82446" lon="2.36353">
        <ele>104.6</ele>
        <time>2013-08-05T18:53:20.000Z</time>
      </trkpt>
      <trkpt lat="48.82443" lon="2.36355">
        <ele>103.9</ele>
        <time>2013-08-05T18:53:21.000Z</time>
      </trkpt>
      <trkpt lat="48.8244" lon="2.36357">
        <ele>104.1</ele>
        <time>2013-08-05T18:53:22.000Z</time>
      </trkpt>
      <trkpt lat="48.82439" lon="2.36362">
        <ele>103.6</ele>
        <time>2013-08-05T18:53:23.000Z</time>
      </trkpt>
      <trkpt lat="48.82439" lon="2.36368">
        <ele>103.4</ele>
        <time>2013-08-05T18:53:24.000Z</time>
      </trkpt>
      <trkpt lat="48.82439" lon="2.36373">
        <ele>104.1</ele>
        <time>2013-08-05T18:53:25.000Z</time>
      </trkpt>
      <trkpt lat="48.8244" lon="2.36379">
        <ele>104.8</ele>
        <time>2013-08-05T18:53:26.000Z</time>
      </trkpt>
      <trkpt lat="48.82442" lon="2.36383">
        <ele>105.9</ele>
        <time>2013-08-05T18:53:27.000Z</time>
      </trkpt>
      <trkpt lat="48.82443" lon="2.36387">
        <ele>105.6</ele>
        <time>2013-08-05T18:53:28.000Z</time>
      </trkpt>
      <trkpt lat="48.82443" lon="2.3639">
        <ele>105.7</ele>
        <time>2013-08-05T18:53:29.000Z</time>
      </trkpt>
      <trkpt lat="48.82443" lon="2.36393">
        <ele>105.7</ele>
        <time>2013-08-05T18:53:30.000Z</time>
      </trkpt>
      <trkpt lat="48.82444" lon="2.36397">
        <ele>105.6</ele>
        <time>2013-08-05T18:53:31.000Z</time>
      </trkpt>
      <trkpt lat="48.82445" lon="2.364">
        <ele>105.6</ele>
        <time>2013-08-05T18:53:32.000Z</time>
      </trkpt>
      <trkpt lat="48.82445" lon="2.36403">
        <ele>105.6</ele>
        <time>2013-08-05T18:53:33.000Z</time>
      </trkpt>
      <trkpt lat="48.8268" lon="2.36491">
        <ele>107.7</ele>
        <time>2013-08-05T18:55:17.000Z</time>
      </trkpt>
      <trkpt lat="48.82677" lon="2.36486">
        <ele>111.5</ele>
        <time>2013-08-05T18:55:19.000Z</time>
      </trkpt>
      <trkpt lat="48.82677" lon="2.36483">
        <ele>113.1</ele>
        <time>2013-08-05T18:55:20.000Z</time>
      </trkpt>
      <trkpt lat="48.82675" lon="2.36477">
        <ele>115.5</ele>
        <time>2013-08-05T18:55:23.000Z</time>
      </trkpt>
      <trkpt lat="48.82675" lon="2.36476">
        <ele>116.8</ele>
        <time>2013-08-05T18:55:24.000Z</time>
      </trkpt>
      <trkpt lat="48.82675" lon="2.36481">
        <ele>114.2</ele>
        <time>2013-08-05T18:55:32.000Z</time>
      </trkpt>
      <trkpt lat="48.82676" lon="2.36485">
        <ele>113.3</ele>
        <time>2013-08-05T18:55:33.000Z</time>
      </trkpt>
      <trkpt lat="48.82677" lon="2.36489">
        <ele>112.5</ele>
        <time>2013-08-05T18:55:34.000Z</time>
      </trkpt>
      <trkpt lat="48.82678" lon="2.36492">
        <ele>112.8</ele>
        <time>2013-08-05T18:55:35.000Z</time>
      </trkpt>
      <trkpt lat="48.8268" lon="2.36496">
        <ele>113.6</ele>
        <time>2013-08-05T18:55:36.000Z</time>
      </trkpt>
      <trkpt lat="48.82682" lon="2.365">
        <ele>115.4</ele>
        <time>2013-08-05T18:55:37.000Z</time>
      </trkpt>
      <trkpt lat="48.82683" lon="2.36504">
        <ele>115.3</ele>
        <time>2013-08-05T18:55:38.000Z</time>
      </trkpt>
      <trkpt lat="48.82684" lon="2.36507">
        <ele>116.5</ele>
        <time>2013-08-05T18:55:39.000Z</time>
      </trkpt>
      <trkpt lat="48.82686" lon="2.36511">
        <ele>116.8</ele>
        <time>2013-08-05T18:55:40.000Z</time>
      </trkpt>
      <trkpt lat="48.82687" lon="2.36515">
        <ele>118.6</ele>
        <time>2013-08-05T18:55:41.000Z</time>
      </trkpt>
      <trkpt lat="48.82688" lon="2.36518">
        <ele>119.1</ele>
        <time>2013-08-05T18:55:42.000Z</time>
      </trkpt>
      <trkpt lat="48.82689" lon="2.36521">
        <ele>118.9</ele>
        <time>2013-08-05T18:55:43.000Z</time>
      </trkpt>
      <trkpt lat="48.82691" lon="2.36525">
        <ele>120.7</ele>
        <time>2013-08-05T18:55:45.000Z</time>
      </trkpt>
      <trkpt lat="48.82692" lon="2.36527">
        <ele>120.9</ele>
        <time>2013-08-05T18:55:46.000Z</time>
      </trkpt>
      <trkpt lat="48.82694" lon="2.3653">
        <ele>122</ele>
        <time>2013-08-05T18:55:47.000Z</time>
      </trkpt>
      <trkpt lat="48.82695" lon="2.36532">
        <ele>123.5</ele>
        <time>2013-08-05T18:55:48.000Z</time>
      </trkpt>
      <trkpt lat="48.82698" lon="2.36537">
        <ele>125.4</ele>
        <time>2013-08-05T18:55:50.000Z</time>
      </trkpt>
      <trkpt lat="48.82699" lon="2.36541">
        <ele>124.8</ele>
        <time>2013-08-05T18:55:51.000Z</time>
      </trkpt>
      <trkpt lat="48.82701" lon="2.36548">
        <ele>126.3</ele>
        <time>2013-08-05T18:55:52.847Z</time>
      </trkpt>
      <trkpt lat="48.82702" lon="2.36552">
        <ele>127</ele>
        <time>2013-08-05T18:55:54.000Z</time>
      </trkpt>
      <trkpt lat="48.82702" lon="2.36558">
        <ele>127.1</ele>
        <time>2013-08-05T18:55:55.000Z</time>
      </trkpt>
      <trkpt lat="48.82703" lon="2.36563">
        <ele>128.1</ele>
        <time>2013-08-05T18:55:56.000Z</time>
      </trkpt>
      <trkpt lat="48.82704" lon="2.36569">
        <ele>130</ele>
        <time>2013-08-05T18:55:57.000Z</time>
      </trkpt>
      <trkpt lat="48.82705" lon="2.36575">
        <ele>130.9</ele>
        <time>2013-08-05T18:55:58.000Z</time>
      </trkpt>
      <trkpt lat="48.82707" lon="2.3658">
        <ele>132.1</ele>
        <time>2013-08-05T18:55:59.000Z</time>
      </trkpt>
      <trkpt lat="48.82709" lon="2.36585">
        <ele>130.6</ele>
        <time>2013-08-05T18:56:00.000Z</time>
      </trkpt>
      <trkpt lat="48.8271" lon="2.3659">
        <ele>125.3</ele>
        <time>2013-08-05T18:56:01.000Z</time>
      </trkpt>
      <trkpt lat="48.82711" lon="2.36595">
        <ele>124.8</ele>
        <time>2013-08-05T18:56:02.000Z</time>
      </trkpt>
      <trkpt lat="48.82713" lon="2.366">
        <ele>123.4</ele>
        <time>2013-08-05T18:56:03.000Z</time>
      </trkpt>
      <trkpt lat="48.82714" lon="2.36604">
        <ele>122.4</ele>
        <time>2013-08-05T18:56:04.000Z</time>
      </trkpt>
      <trkpt lat="48.82715" lon="2.36609">
        <ele>122.8</ele>
        <time>2013-08-05T18:56:05.000Z</time>
      </trkpt>
      <trkpt lat="48.82716" lon="2.36613">
        <ele>121.9</ele>
        <time>2013-08-05T18:56:06.000Z</time>
      </trkpt>
      <trkpt lat="48.82716" lon="2.36618">
        <ele>118.9</ele>
        <time>2013-08-05T18:56:07.000Z</time>
      </trkpt>
      <trkpt lat="48.82715" lon="2.36622">
        <ele>117.4</ele>
        <time>2013-08-05T18:56:08.000Z</time>
      </trkpt>
      <trkpt lat="48.82714" lon="2.36626">
        <ele>118.9</ele>
        <time>2013-08-05T18:56:09.000Z</time>
      </trkpt>
      <trkpt lat="48.82714" lon="2.36629">
        <ele>120.8</ele>
        <time>2013-08-05T18:56:10.000Z</time>
      </trkpt>
      <trkpt lat="48.82715" lon="2.36633">
        <ele>120.5</ele>
        <time>2013-08-05T18:56:11.000Z</time>
      </trkpt>
      <trkpt lat="48.82717" lon="2.36637">
        <ele>120.9</ele>
        <time>2013-08-05T18:56:12.000Z</time>
      </trkpt>
      <trkpt lat="48.82718" lon="2.36642">
        <ele>121.6</ele>
        <time>2013-08-05T18:56:13.000Z</time>
      </trkpt>
      <trkpt lat="48.82718" lon="2.36648">
        <ele>122.4</ele>
        <time>2013-08-05T18:56:14.000Z</time>
      </trkpt>
      <trkpt lat="48.82719" lon="2.36653">
        <ele>121.5</ele>
        <time>2013-08-05T18:56:15.000Z</time>
      </trkpt>
      <trkpt lat="48.8272" lon="2.36658">
        <ele>120.8</ele>
        <time>2013-08-05T18:56:16.000Z</time>
      </trkpt>
      <trkpt lat="48.82721" lon="2.36663">
        <ele>120.6</ele>
        <time>2013-08-05T18:56:17.000Z</time>
      </trkpt>
      <trkpt lat="48.82722" lon="2.36669">
        <ele>120.1</ele>
        <time>2013-08-05T18:56:18.000Z</time>
      </trkpt>
      <trkpt lat="48.82723" lon="2.36675">
        <ele>119.8</ele>
        <time>2013-08-05T18:56:19.000Z</time>
      </trkpt>
      <trkpt lat="48.82725" lon="2.36682">
        <ele>120.9</ele>
        <time>2013-08-05T18:56:20.000Z</time>
      </trkpt>
      <trkpt lat="48.82727" lon="2.36688">
        <ele>120.4</ele>
        <time>2013-08-05T18:56:21.000Z</time>
      </trkpt>
      <trkpt lat="48.82729" lon="2.36694">
        <ele>120.6</ele>
        <time>2013-08-05T18:56:22.000Z</time>
      </trkpt>
      <trkpt lat="48.82731" lon="2.36701">
        <ele>121.5</ele>
        <time>2013-08-05T18:56:23.000Z</time>
      </trkpt>
      <trkpt lat="48.82733" lon="2.36707">
        <ele>123</ele>
        <time>2013-08-05T18:56:24.000Z</time>
      </trkpt>
      <trkpt lat="48.82734" lon="2.36714">
        <ele>124.1</ele>
        <time>2013-08-05T18:56:25.000Z</time>
      </trkpt>
      <trkpt lat="48.82736" lon="2.36724">
        <ele>123.1</ele>
        <time>2013-08-05T18:56:26.000Z</time>
      </trkpt>
      <trkpt lat="48.82737" lon="2.36731">
        <ele>122.7</ele>
        <time>2013-08-05T18:56:27.000Z</time>
      </trkpt>
      <trkpt lat="48.82739" lon="2.36739">
        <ele>122.1</ele>
        <time>2013-08-05T18:56:28.000Z</time>
      </trkpt>
      <trkpt lat="48.8274" lon="2.36747">
        <ele>120.9</ele>
        <time>2013-08-05T18:56:29.000Z</time>
      </trkpt>
      <trkpt lat="48.82741" lon="2.36755">
        <ele>119.1</ele>
        <time>2013-08-05T18:56:30.000Z</time>
      </trkpt>
      <trkpt lat="48.82748" lon="2.36763">
        <ele>118.1</ele>
        <time>2013-08-05T18:56:31.000Z</time>
      </trkpt>
      <trkpt lat="48.82752" lon="2.36769">
        <ele>117</ele>
        <time>2013-08-05T18:56:32.000Z</time>
      </trkpt>
      <trkpt lat="48.82757" lon="2.36776">
        <ele>116.5</ele>
        <time>2013-08-05T18:56:33.000Z</time>
      </trkpt>
      <trkpt lat="48.82761" lon="2.36782">
        <ele>116.6</ele>
        <time>2013-08-05T18:56:34.000Z</time>
      </trkpt>
      <trkpt lat="48.82768" lon="2.36789">
        <ele>116.8</ele>
        <time>2013-08-05T18:56:35.000Z</time>
      </trkpt>
      <trkpt lat="48.82774" lon="2.36795">
        <ele>117.7</ele>
        <time>2013-08-05T18:56:36.000Z</time>
      </trkpt>
      <trkpt lat="48.82777" lon="2.36803">
        <ele>117.9</ele>
        <time>2013-08-05T18:56:37.000Z</time>
      </trkpt>
      <trkpt lat="48.8278" lon="2.3681">
        <ele>119.1</ele>
        <time>2013-08-05T18:56:38.000Z</time>
      </trkpt>
      <trkpt lat="48.82783" lon="2.36817">
        <ele>119.6</ele>
        <time>2013-08-05T18:56:39.000Z</time>
      </trkpt>
      <trkpt lat="48.82786" lon="2.36824">
        <ele>120.3</ele>
        <time>2013-08-05T18:56:40.000Z</time>
      </trkpt>
      <trkpt lat="48.82776" lon="2.36836">
        <ele>121.9</ele>
        <time>2013-08-05T18:56:41.000Z</time>
      </trkpt>
      <trkpt lat="48.82777" lon="2.36844">
        <ele>122.5</ele>
        <time>2013-08-05T18:56:42.000Z</time>
      </trkpt>
      <trkpt lat="48.82773" lon="2.36856">
        <ele>122</ele>
        <time>2013-08-05T18:56:43.000Z</time>
      </trkpt>
      <trkpt lat="48.8277" lon="2.36868">
        <ele>120.7</ele>
        <time>2013-08-05T18:56:44.000Z</time>
      </trkpt>
      <trkpt lat="48.82766" lon="2.36877">
        <ele>119</ele>
        <time>2013-08-05T18:56:45.000Z</time>
      </trkpt>
      <trkpt lat="48.82765" lon="2.36885">
        <ele>118</ele>
        <time>2013-08-05T18:56:46.000Z</time>
      </trkpt>
      <trkpt lat="48.82764" lon="2.36893">
        <ele>118</ele>
        <time>2013-08-05T18:56:47.000Z</time>
      </trkpt>
      <trkpt lat="48.82766" lon="2.36901">
        <ele>117.4</ele>
        <time>2013-08-05T18:56:48.000Z</time>
      </trkpt>
      <trkpt lat="48.82765" lon="2.36913">
        <ele>117</ele>
        <time>2013-08-05T18:56:49.000Z</time>
      </trkpt>
      <trkpt lat="48.82766" lon="2.36922">
        <ele>118.2</ele>
        <time>2013-08-05T18:56:50.000Z</time>
      </trkpt>
      <trkpt lat="48.82768" lon="2.36929">
        <ele>118.3</ele>
        <time>2013-08-05T18:56:51.000Z</time>
      </trkpt>
      <trkpt lat="48.82775" lon="2.3695">
        <ele>119.8</ele>
        <time>2013-08-05T18:56:53.384Z</time>
      </trkpt>
      <trkpt lat="48.82777" lon="2.36955">
        <ele>119.9</ele>
        <time>2013-08-05T18:56:54.000Z</time>
      </trkpt>
      <trkpt lat="48.82776" lon="2.36961">
        <ele>120.8</ele>
        <time>2013-08-05T18:56:55.000Z</time>
      </trkpt>
      <trkpt lat="48.82776" lon="2.3697">
        <ele>121.2</ele>
        <time>2013-08-05T18:56:56.000Z</time>
      </trkpt>
      <trkpt lat="48.82776" lon="2.36979">
        <ele>121.4</ele>
        <time>2013-08-05T18:56:57.000Z</time>
      </trkpt>
      <trkpt lat="48.82777" lon="2.36987">
        <ele>121.2</ele>
        <time>2013-08-05T18:56:58.000Z</time>
      </trkpt>
      <trkpt lat="48.82777" lon="2.36995">
        <ele>121.2</ele>
        <time>2013-08-05T18:56:59.000Z</time>
      </trkpt>
      <trkpt lat="48.82773" lon="2.37004">
        <ele>120.5</ele>
        <time>2013-08-05T18:57:00.000Z</time>
      </trkpt>
      <trkpt lat="48.82775" lon="2.37014">
        <ele>119.8</ele>
        <time>2013-08-05T18:57:01.000Z</time>
      </trkpt>
      <trkpt lat="48.82772" lon="2.37014">
        <ele>119.9</ele>
        <time>2013-08-05T18:57:02.000Z</time>
      </trkpt>
      <trkpt lat="48.82771" lon="2.37021">
        <ele>119.6</ele>
        <time>2013-08-05T18:57:03.000Z</time>
      </trkpt>
      <trkpt lat="48.82769" lon="2.37027">
        <ele>119</ele>
        <time>2013-08-05T18:57:04.000Z</time>
      </trkpt>
      <trkpt lat="48.8277" lon="2.37032">
        <ele>119.1</ele>
        <time>2013-08-05T18:57:05.000Z</time>
      </trkpt>
      <trkpt lat="48.82771" lon="2.37041">
        <ele>119.5</ele>
        <time>2013-08-05T18:57:06.000Z</time>
      </trkpt>
      <trkpt lat="48.82772" lon="2.3705">
        <ele>118.9</ele>
        <time>2013-08-05T18:57:07.000Z</time>
      </trkpt>
      <trkpt lat="48.82773" lon="2.37058">
        <ele>118.4</ele>
        <time>2013-08-05T18:57:08.000Z</time>
      </trkpt>
      <trkpt lat="48.82775" lon="2.37065">
        <ele>119.3</ele>
        <time>2013-08-05T18:57:09.000Z</time>
      </trkpt>
      <trkpt lat="48.82778" lon="2.37074">
        <ele>120.4</ele>
        <time>2013-08-05T18:57:10.000Z</time>
      </trkpt>
      <trkpt lat="48.8278" lon="2.37082">
        <ele>120.6</ele>
        <time>2013-08-05T18:57:11.000Z</time>
      </trkpt>
      <trkpt lat="48.82782" lon="2.37091">
        <ele>121.3</ele>
        <time>2013-08-05T18:57:12.000Z</time>
      </trkpt>
      <trkpt lat="48.82783" lon="2.37099">
        <ele>121.6</ele>
        <time>2013-08-05T18:57:13.000Z</time>
      </trkpt>
      <trkpt lat="48.82783" lon="2.37106">
        <ele>120.6</ele>
        <time>2013-08-05T18:57:14.000Z</time>
      </trkpt>
      <trkpt lat="48.82786" lon="2.37114">
        <ele>119.9</ele>
        <time>2013-08-05T18:57:15.000Z</time>
      </trkpt>
      <trkpt lat="48.82786" lon="2.37122">
        <ele>119.7</ele>
        <time>2013-08-05T18:57:16.000Z</time>
      </trkpt>
      <trkpt lat="48.82788" lon="2.3713">
        <ele>119.6</ele>
        <time>2013-08-05T18:57:17.000Z</time>
      </trkpt>
      <trkpt lat="48.8279" lon="2.37137">
        <ele>118.8</ele>
        <time>2013-08-05T18:57:18.000Z</time>
      </trkpt>
      <trkpt lat="48.82792" lon="2.37145">
        <ele>118.2</ele>
        <time>2013-08-05T18:57:19.000Z</time>
      </trkpt>
      <trkpt lat="48.82794" lon="2.37154">
        <ele>115.9</ele>
        <time>2013-08-05T18:57:20.000Z</time>
      </trkpt>
      <trkpt lat="48.82797" lon="2.37161">
        <ele>116.1</ele>
        <time>2013-08-05T18:57:21.000Z</time>
      </trkpt>
      <trkpt lat="48.82801" lon="2.37166">
        <ele>114.5</ele>
        <time>2013-08-05T18:57:22.000Z</time>
      </trkpt>
      <trkpt lat="48.82805" lon="2.37172">
        <ele>113.9</ele>
        <time>2013-08-05T18:57:23.000Z</time>
      </trkpt>
      <trkpt lat="48.8281" lon="2.37179">
        <ele>113.4</ele>
        <time>2013-08-05T18:57:24.000Z</time>
      </trkpt>
      <trkpt lat="48.82815" lon="2.37187">
        <ele>113.4</ele>
        <time>2013-08-05T18:57:25.000Z</time>
      </trkpt>
      <trkpt lat="48.82817" lon="2.37194">
        <ele>113.3</ele>
        <time>2013-08-05T18:57:26.000Z</time>
      </trkpt>
      <trkpt lat="48.8282" lon="2.37204">
        <ele>113.2</ele>
        <time>2013-08-05T18:57:27.000Z</time>
      </trkpt>
      <trkpt lat="48.82823" lon="2.37213">
        <ele>113.1</ele>
        <time>2013-08-05T18:57:28.000Z</time>
      </trkpt>
      <trkpt lat="48.82828" lon="2.3722">
        <ele>112.9</ele>
        <time>2013-08-05T18:57:29.000Z</time>
      </trkpt>
      <trkpt lat="48.82829" lon="2.37227">
        <ele>113</ele>
        <time>2013-08-05T18:57:30.000Z</time>
      </trkpt>
      <trkpt lat="48.82832" lon="2.37236">
        <ele>111.8</ele>
        <time>2013-08-05T18:57:31.000Z</time>
      </trkpt>
      <trkpt lat="48.82835" lon="2.37242">
        <ele>111.3</ele>
        <time>2013-08-05T18:57:32.000Z</time>
      </trkpt>
      <trkpt lat="48.82838" lon="2.37246">
        <ele>110.9</ele>
        <time>2013-08-05T18:57:33.000Z</time>
      </trkpt>
      <trkpt lat="48.8284" lon="2.37253">
        <ele>110.7</ele>
        <time>2013-08-05T18:57:34.000Z</time>
      </trkpt>
      <trkpt lat="48.82844" lon="2.37258">
        <ele>110.7</ele>
        <time>2013-08-05T18:57:35.000Z</time>
      </trkpt>
      <trkpt lat="48.82846" lon="2.37261">
        <ele>110.1</ele>
        <time>2013-08-05T18:57:36.000Z</time>
      </trkpt>
      <trkpt lat="48.82849" lon="2.37264">
        <ele>108.2</ele>
        <time>2013-08-05T18:57:37.000Z</time>
      </trkpt>
      <trkpt lat="48.82851" lon="2.37268">
        <ele>108.2</ele>
        <time>2013-08-05T18:57:38.000Z</time>
      </trkpt>
      <trkpt lat="48.82853" lon="2.37274">
        <ele>107.8</ele>
        <time>2013-08-05T18:57:39.000Z</time>
      </trkpt>
      <trkpt lat="48.82856" lon="2.37277">
        <ele>106.2</ele>
        <time>2013-08-05T18:57:40.000Z</time>
      </trkpt>
      <trkpt lat="48.82859" lon="2.37281">
        <ele>106.7</ele>
        <time>2013-08-05T18:57:41.000Z</time>
      </trkpt>
      <trkpt lat="48.82863" lon="2.37282">
        <ele>108</ele>
        <time>2013-08-05T18:57:43.000Z</time>
      </trkpt>
      <trkpt lat="48.82865" lon="2.3728">
        <ele>106.3</ele>
        <time>2013-08-05T18:57:44.000Z</time>
      </trkpt>
      <trkpt lat="48.82868" lon="2.37277">
        <ele>106.3</ele>
        <time>2013-08-05T18:57:45.000Z</time>
      </trkpt>
      <trkpt lat="48.82872" lon="2.37274">
        <ele>106.4</ele>
        <time>2013-08-05T18:57:46.000Z</time>
      </trkpt>
      <trkpt lat="48.82875" lon="2.3727">
        <ele>105.1</ele>
        <time>2013-08-05T18:57:47.000Z</time>
      </trkpt>
      <trkpt lat="48.82879" lon="2.37266">
        <ele>105</ele>
        <time>2013-08-05T18:57:48.000Z</time>
      </trkpt>
      <trkpt lat="48.82882" lon="2.37262">
        <ele>104.7</ele>
        <time>2013-08-05T18:57:49.000Z</time>
      </trkpt>
      <trkpt lat="48.82887" lon="2.37256">
        <ele>102.1</ele>
        <time>2013-08-05T18:57:50.000Z</time>
      </trkpt>
      <trkpt lat="48.82891" lon="2.37251">
        <ele>101.8</ele>
        <time>2013-08-05T18:57:51.000Z</time>
      </trkpt>
      <trkpt lat="48.829" lon="2.37244">
        <ele>102</ele>
        <time>2013-08-05T18:57:53.073Z</time>
      </trkpt>
      <trkpt lat="48.82904" lon="2.37241">
        <ele>101.9</ele>
        <time>2013-08-05T18:57:54.000Z</time>
      </trkpt>
      <trkpt lat="48.82908" lon="2.37236">
        <ele>101.6</ele>
        <time>2013-08-05T18:57:55.000Z</time>
      </trkpt>
      <trkpt lat="48.82911" lon="2.3723">
        <ele>101.7</ele>
        <time>2013-08-05T18:57:56.000Z</time>
      </trkpt>
      <trkpt lat="48.82915" lon="2.37224">
        <ele>101.6</ele>
        <time>2013-08-05T18:57:57.000Z</time>
      </trkpt>
      <trkpt lat="48.82919" lon="2.37221">
        <ele>101.2</ele>
        <time>2013-08-05T18:57:58.000Z</time>
      </trkpt>
      <trkpt lat="48.82923" lon="2.37218">
        <ele>101.4</ele>
        <time>2013-08-05T18:57:59.000Z</time>
      </trkpt>
      <trkpt lat="48.82928" lon="2.37216">
        <ele>101.2</ele>
        <time>2013-08-05T18:58:00.000Z</time>
      </trkpt>
      <trkpt lat="48.82933" lon="2.37212">
        <ele>100.6</ele>
        <time>2013-08-05T18:58:01.000Z</time>
      </trkpt>
      <trkpt lat="48.82937" lon="2.37206">
        <ele>100.1</ele>
        <time>2013-08-05T18:58:02.000Z</time>
      </trkpt>
      <trkpt lat="48.82941" lon="2.37202">
        <ele>99.9</ele>
        <time>2013-08-05T18:58:03.000Z</time>
      </trkpt>
      <trkpt lat="48.82946" lon="2.37198">
        <ele>99.7</ele>
        <time>2013-08-05T18:58:04.000Z</time>
      </trkpt>
      <trkpt lat="48.8295" lon="2.37194">
        <ele>100.1</ele>
        <time>2013-08-05T18:58:05.000Z</time>
      </trkpt>
      <trkpt lat="48.82955" lon="2.37189">
        <ele>100</ele>
        <time>2013-08-05T18:58:06.000Z</time>
      </trkpt>
      <trkpt lat="48.82962" lon="2.37188">
        <ele>99.3</ele>
        <time>2013-08-05T18:58:07.000Z</time>
      </trkpt>
      <trkpt lat="48.82964" lon="2.37184">
        <ele>99.6</ele>
        <time>2013-08-05T18:58:08.000Z</time>
      </trkpt>
      <trkpt lat="48.82966" lon="2.37178">
        <ele>99.8</ele>
        <time>2013-08-05T18:58:09.000Z</time>
      </trkpt>
      <trkpt lat="48.82967" lon="2.37174">
        <ele>99.4</ele>
        <time>2013-08-05T18:58:10.000Z</time>
      </trkpt>
      <trkpt lat="48.82969" lon="2.37172">
        <ele>99.7</ele>
        <time>2013-08-05T18:58:11.000Z</time>
      </trkpt>
      <trkpt lat="48.82969" lon="2.37166">
        <ele>99.5</ele>
        <time>2013-08-05T18:58:12.000Z</time>
      </trkpt>
      <trkpt lat="48.82967" lon="2.37161">
        <ele>98.5</ele>
        <time>2013-08-05T18:58:13.000Z</time>
      </trkpt>
      <trkpt lat="48.82966" lon="2.37155">
        <ele>99</ele>
        <time>2013-08-05T18:58:14.000Z</time>
      </trkpt>
      <trkpt lat="48.82968" lon="2.37151">
        <ele>99.9</ele>
        <time>2013-08-05T18:58:15.000Z</time>
      </trkpt>
      <trkpt lat="48.8297" lon="2.37146">
        <ele>98.9</ele>
        <time>2013-08-05T18:58:16.000Z</time>
      </trkpt>
      <trkpt lat="48.82975" lon="2.37143">
        <ele>98.2</ele>
        <time>2013-08-05T18:58:17.000Z</time>
      </trkpt>
      <trkpt lat="48.82978" lon="2.37138">
        <ele>97.5</ele>
        <time>2013-08-05T18:58:18.000Z</time>
      </trkpt>
      <trkpt lat="48.82982" lon="2.37134">
        <ele>97.5</ele>
        <time>2013-08-05T18:58:19.000Z</time>
      </trkpt>
      <trkpt lat="48.82985" lon="2.3713">
        <ele>97.4</ele>
        <time>2013-08-05T18:58:20.000Z</time>
      </trkpt>
      <trkpt lat="48.82989" lon="2.37125">
        <ele>96.4</ele>
        <time>2013-08-05T18:58:21.000Z</time>
      </trkpt>
      <trkpt lat="48.82992" lon="2.3712">
        <ele>95.8</ele>
        <time>2013-08-05T18:58:22.000Z</time>
      </trkpt>
      <trkpt lat="48.82995" lon="2.37114">
        <ele>94.1</ele>
        <time>2013-08-05T18:58:23.000Z</time>
      </trkpt>
      <trkpt lat="48.83002" lon="2.37108">
        <ele>93.5</ele>
        <time>2013-08-05T18:58:24.000Z</time>
      </trkpt>
      <trkpt lat="48.83005" lon="2.37103">
        <ele>93.2</ele>
        <time>2013-08-05T18:58:25.000Z</time>
      </trkpt>
      <trkpt lat="48.83007" lon="2.37098">
        <ele>93.5</ele>
        <time>2013-08-05T18:58:26.000Z</time>
      </trkpt>
      <trkpt lat="48.8301" lon="2.37093">
        <ele>94.3</ele>
        <time>2013-08-05T18:58:27.000Z</time>
      </trkpt>
      <trkpt lat="48.83013" lon="2.37087">
        <ele>94.7</ele>
        <time>2013-08-05T18:58:28.000Z</time>
      </trkpt>
      <trkpt lat="48.83016" lon="2.37081">
        <ele>94.9</ele>
        <time>2013-08-05T18:58:29.000Z</time>
      </trkpt>
      <trkpt lat="48.8302" lon="2.37077">
        <ele>94.7</ele>
        <time>2013-08-05T18:58:30.000Z</time>
      </trkpt>
      <trkpt lat="48.83023" lon="2.37073">
        <ele>94.5</ele>
        <time>2013-08-05T18:58:31.000Z</time>
      </trkpt>
      <trkpt lat="48.83026" lon="2.37068">
        <ele>94.5</ele>
        <time>2013-08-05T18:58:32.000Z</time>
      </trkpt>
      <trkpt lat="48.83029" lon="2.37064">
        <ele>92.8</ele>
        <time>2013-08-05T18:58:33.000Z</time>
      </trkpt>
      <trkpt lat="48.83032" lon="2.3706">
        <ele>92.8</ele>
        <time>2013-08-05T18:58:34.000Z</time>
      </trkpt>
      <trkpt lat="48.83035" lon="2.37056">
        <ele>93.8</ele>
        <time>2013-08-05T18:58:35.000Z</time>
      </trkpt>
      <trkpt lat="48.83038" lon="2.37052">
        <ele>93.9</ele>
        <time>2013-08-05T18:58:36.000Z</time>
      </trkpt>
      <trkpt lat="48.83041" lon="2.37048">
        <ele>93.9</ele>
        <time>2013-08-05T18:58:37.000Z</time>
      </trkpt>
      <trkpt lat="48.83044" lon="2.37043">
        <ele>93.8</ele>
        <time>2013-08-05T18:58:38.000Z</time>
      </trkpt>
      <trkpt lat="48.83046" lon="2.37038">
        <ele>93.2</ele>
        <time>2013-08-05T18:58:39.000Z</time>
      </trkpt>
      <trkpt lat="48.83049" lon="2.37033">
        <ele>94</ele>
        <time>2013-08-05T18:58:40.000Z</time>
      </trkpt>
      <trkpt lat="48.83051" lon="2.37025">
        <ele>94.7</ele>
        <time>2013-08-05T18:58:41.000Z</time>
      </trkpt>
      <trkpt lat="48.83055" lon="2.3702">
        <ele>93.8</ele>
        <time>2013-08-05T18:58:42.000Z</time>
      </trkpt>
      <trkpt lat="48.83058" lon="2.37015">
        <ele>95.6</ele>
        <time>2013-08-05T18:58:43.000Z</time>
      </trkpt>
      <trkpt lat="48.83062" lon="2.3701">
        <ele>95.3</ele>
        <time>2013-08-05T18:58:44.000Z</time>
      </trkpt>
      <trkpt lat="48.83065" lon="2.37005">
        <ele>95.1</ele>
        <time>2013-08-05T18:58:45.000Z</time>
      </trkpt>
      <trkpt lat="48.83068" lon="2.37">
        <ele>95.7</ele>
        <time>2013-08-05T18:58:46.000Z</time>
      </trkpt>
      <trkpt lat="48.83071" lon="2.36993">
        <ele>95.9</ele>
        <time>2013-08-05T18:58:47.000Z</time>
      </trkpt>
      <trkpt lat="48.83074" lon="2.36986">
        <ele>96.3</ele>
        <time>2013-08-05T18:58:48.000Z</time>
      </trkpt>
      <trkpt lat="48.83077" lon="2.36978">
        <ele>95.7</ele>
        <time>2013-08-05T18:58:49.000Z</time>
      </trkpt>
      <trkpt lat="48.83079" lon="2.36971">
        <ele>95.9</ele>
        <time>2013-08-05T18:58:50.000Z</time>
      </trkpt>
      <trkpt lat="48.83082" lon="2.36966">
        <ele>96</ele>
        <time>2013-08-05T18:58:51.000Z</time>
      </trkpt>
      <trkpt lat="48.83089" lon="2.36951">
        <ele>94.3</ele>
        <time>2013-08-05T18:58:53.346Z</time>
      </trkpt>
      <trkpt lat="48.83091" lon="2.36948">
        <ele>94.2</ele>
        <time>2013-08-05T18:58:54.000Z</time>
      </trkpt>
      <trkpt lat="48.83095" lon="2.36941">
        <ele>95</ele>
        <time>2013-08-05T18:58:55.000Z</time>
      </trkpt>
      <trkpt lat="48.83097" lon="2.36934">
        <ele>94</ele>
        <time>2013-08-05T18:58:56.000Z</time>
      </trkpt>
      <trkpt lat="48.83099" lon="2.36927">
        <ele>93.7</ele>
        <time>2013-08-05T18:58:57.000Z</time>
      </trkpt>
      <trkpt lat="48.83103" lon="2.3692">
        <ele>93.7</ele>
        <time>2013-08-05T18:58:58.000Z</time>
      </trkpt>
      <trkpt lat="48.83108" lon="2.36915">
        <ele>92.9</ele>
        <time>2013-08-05T18:58:59.000Z</time>
      </trkpt>
      <trkpt lat="48.83112" lon="2.3691">
        <ele>93.1</ele>
        <time>2013-08-05T18:59:00.000Z</time>
      </trkpt>
      <trkpt lat="48.83115" lon="2.36902">
        <ele>91.8</ele>
        <time>2013-08-05T18:59:01.000Z</time>
      </trkpt>
      <trkpt lat="48.8312" lon="2.36898">
        <ele>91.1</ele>
        <time>2013-08-05T18:59:02.000Z</time>
      </trkpt>
      <trkpt lat="48.83123" lon="2.3689">
        <ele>89.2</ele>
        <time>2013-08-05T18:59:03.000Z</time>
      </trkpt>
      <trkpt lat="48.83127" lon="2.36884">
        <ele>89.1</ele>
        <time>2013-08-05T18:59:04.000Z</time>
      </trkpt>
      <trkpt lat="48.83131" lon="2.36879">
        <ele>88.8</ele>
        <time>2013-08-05T18:59:05.000Z</time>
      </trkpt>
      <trkpt lat="48.83135" lon="2.36872">
        <ele>89</ele>
        <time>2013-08-05T18:59:06.000Z</time>
      </trkpt>
      <trkpt lat="48.83139" lon="2.36866">
        <ele>89</ele>
        <time>2013-08-05T18:59:07.000Z</time>
      </trkpt>
      <trkpt lat="48.83144" lon="2.36861">
        <ele>88.4</ele>
        <time>2013-08-05T18:59:08.000Z</time>
      </trkpt>
      <trkpt lat="48.83146" lon="2.36853">
        <ele>88.8</ele>
        <time>2013-08-05T18:59:09.000Z</time>
      </trkpt>
      <trkpt lat="48.8315" lon="2.36846">
        <ele>88.1</ele>
        <time>2013-08-05T18:59:10.000Z</time>
      </trkpt>
      <trkpt lat="48.83153" lon="2.3684">
        <ele>88.7</ele>
        <time>2013-08-05T18:59:11.000Z</time>
      </trkpt>
      <trkpt lat="48.83157" lon="2.36834">
        <ele>88.4</ele>
        <time>2013-08-05T18:59:12.000Z</time>
      </trkpt>
      <trkpt lat="48.83161" lon="2.36828">
        <ele>88.5</ele>
        <time>2013-08-05T18:59:13.000Z</time>
      </trkpt>
      <trkpt lat="48.83166" lon="2.36821">
        <ele>87</ele>
        <time>2013-08-05T18:59:14.000Z</time>
      </trkpt>
      <trkpt lat="48.8317" lon="2.36815">
        <ele>86.5</ele>
        <time>2013-08-05T18:59:15.000Z</time>
      </trkpt>
      <trkpt lat="48.83175" lon="2.36812">
        <ele>87.2</ele>
        <time>2013-08-05T18:59:16.000Z</time>
      </trkpt>
      <trkpt lat="48.83179" lon="2.36806">
        <ele>87</ele>
        <time>2013-08-05T18:59:17.000Z</time>
      </trkpt>
      <trkpt lat="48.83183" lon="2.36799">
        <ele>86.1</ele>
        <time>2013-08-05T18:59:18.000Z</time>
      </trkpt>
      <trkpt lat="48.83187" lon="2.36793">
        <ele>85.5</ele>
        <time>2013-08-05T18:59:19.000Z</time>
      </trkpt>
      <trkpt lat="48.83191" lon="2.36787">
        <ele>85.9</ele>
        <time>2013-08-05T18:59:20.000Z</time>
      </trkpt>
      <trkpt lat="48.83195" lon="2.3678">
        <ele>85.8</ele>
        <time>2013-08-05T18:59:21.000Z</time>
      </trkpt>
      <trkpt lat="48.83199" lon="2.36773">
        <ele>87.3</ele>
        <time>2013-08-05T18:59:22.000Z</time>
      </trkpt>
      <trkpt lat="48.83204" lon="2.36768">
        <ele>86.5</ele>
        <time>2013-08-05T18:59:23.000Z</time>
      </trkpt>
      <trkpt lat="48.83208" lon="2.36762">
        <ele>85.4</ele>
        <time>2013-08-05T18:59:24.000Z</time>
      </trkpt>
      <trkpt lat="48.83211" lon="2.36756">
        <ele>85.4</ele>
        <time>2013-08-05T18:59:25.000Z</time>
      </trkpt>
      <trkpt lat="48.83215" lon="2.36752">
        <ele>85.2</ele>
        <time>2013-08-05T18:59:26.000Z</time>
      </trkpt>
      <trkpt lat="48.83219" lon="2.36747">
        <ele>85.5</ele>
        <time>2013-08-05T18:59:27.000Z</time>
      </trkpt>
      <trkpt lat="48.83223" lon="2.36744">
        <ele>85.5</ele>
        <time>2013-08-05T18:59:28.000Z</time>
      </trkpt>
      <trkpt lat="48.83227" lon="2.36739">
        <ele>86.8</ele>
        <time>2013-08-05T18:59:29.000Z</time>
      </trkpt>
      <trkpt lat="48.83231" lon="2.36734">
        <ele>86.5</ele>
        <time>2013-08-05T18:59:30.000Z</time>
      </trkpt>
      <trkpt lat="48.83234" lon="2.36729">
        <ele>87.9</ele>
        <time>2013-08-05T18:59:31.000Z</time>
      </trkpt>
      <trkpt lat="48.83238" lon="2.36724">
        <ele>88.2</ele>
        <time>2013-08-05T18:59:32.000Z</time>
      </trkpt>
      <trkpt lat="48.83243" lon="2.36721">
        <ele>85.9</ele>
        <time>2013-08-05T18:59:33.000Z</time>
      </trkpt>
      <trkpt lat="48.83247" lon="2.36716">
        <ele>86.5</ele>
        <time>2013-08-05T18:59:34.000Z</time>
      </trkpt>
      <trkpt lat="48.83249" lon="2.3671">
        <ele>86.5</ele>
        <time>2013-08-05T18:59:35.000Z</time>
      </trkpt>
      <trkpt lat="48.83253" lon="2.36707">
        <ele>86.1</ele>
        <time>2013-08-05T18:59:36.000Z</time>
      </trkpt>
      <trkpt lat="48.83256" lon="2.36703">
        <ele>87.1</ele>
        <time>2013-08-05T18:59:37.000Z</time>
      </trkpt>
      <trkpt lat="48.83259" lon="2.36698">
        <ele>87.3</ele>
        <time>2013-08-05T18:59:38.000Z</time>
      </trkpt>
      <trkpt lat="48.83263" lon="2.36694">
        <ele>86.5</ele>
        <time>2013-08-05T18:59:39.000Z</time>
      </trkpt>
      <trkpt lat="48.83265" lon="2.36689">
        <ele>87</ele>
        <time>2013-08-05T18:59:40.000Z</time>
      </trkpt>
      <trkpt lat="48.83268" lon="2.36684">
        <ele>88.2</ele>
        <time>2013-08-05T18:59:41.000Z</time>
      </trkpt>
      <trkpt lat="48.8327" lon="2.3668">
        <ele>88.5</ele>
        <time>2013-08-05T18:59:42.000Z</time>
      </trkpt>
      <trkpt lat="48.83273" lon="2.36675">
        <ele>88</ele>
        <time>2013-08-05T18:59:43.000Z</time>
      </trkpt>
      <trkpt lat="48.83276" lon="2.36671">
        <ele>88.6</ele>
        <time>2013-08-05T18:59:44.000Z</time>
      </trkpt>
      <trkpt lat="48.83279" lon="2.36666">
        <ele>88.8</ele>
        <time>2013-08-05T18:59:45.000Z</time>
      </trkpt>
      <trkpt lat="48.83283" lon="2.36662">
        <ele>89.6</ele>
        <time>2013-08-05T18:59:46.000Z</time>
      </trkpt>
      <trkpt lat="48.83287" lon="2.36656">
        <ele>89.3</ele>
        <time>2013-08-05T18:59:47.000Z</time>
      </trkpt>
      <trkpt lat="48.83289" lon="2.3665">
        <ele>89</ele>
        <time>2013-08-05T18:59:48.000Z</time>
      </trkpt>
      <trkpt lat="48.83291" lon="2.36644">
        <ele>91.6</ele>
        <time>2013-08-05T18:59:49.000Z</time>
      </trkpt>
      <trkpt lat="48.83294" lon="2.36638">
        <ele>91.2</ele>
        <time>2013-08-05T18:59:50.000Z</time>
      </trkpt>
      <trkpt lat="48.83296" lon="2.36633">
        <ele>91.9</ele>
        <time>2013-08-05T18:59:51.000Z</time>
      </trkpt>
      <trkpt lat="48.83302" lon="2.36623">
        <ele>92.3</ele>
        <time>2013-08-05T18:59:52.920Z</time>
      </trkpt>
      <trkpt lat="48.83303" lon="2.36618">
        <ele>94</ele>
        <time>2013-08-05T18:59:54.000Z</time>
      </trkpt>
      <trkpt lat="48.83305" lon="2.36614">
        <ele>94.5</ele>
        <time>2013-08-05T18:59:55.000Z</time>
      </trkpt>
      <trkpt lat="48.83307" lon="2.36608">
        <ele>94.6</ele>
        <time>2013-08-05T18:59:56.000Z</time>
      </trkpt>
      <trkpt lat="48.83312" lon="2.36605">
        <ele>94.8</ele>
        <time>2013-08-05T18:59:57.000Z</time>
      </trkpt>
      <trkpt lat="48.83319" lon="2.36603">
        <ele>92.8</ele>
        <time>2013-08-05T18:59:58.000Z</time>
      </trkpt>
      <trkpt lat="48.83322" lon="2.36598">
        <ele>92.4</ele>
        <time>2013-08-05T18:59:59.000Z</time>
      </trkpt>
      <trkpt lat="48.83326" lon="2.36597">
        <ele>92.6</ele>
        <time>2013-08-05T19:00:00.000Z</time>
      </trkpt>
      <trkpt lat="48.83329" lon="2.36594">
        <ele>93</ele>
        <time>2013-08-05T19:00:01.000Z</time>
      </trkpt>
      <trkpt lat="48.8333" lon="2.36588">
        <ele>93.5</ele>
        <time>2013-08-05T19:00:02.000Z</time>
      </trkpt>
      <trkpt lat="48.83332" lon="2.36584">
        <ele>93.8</ele>
        <time>2013-08-05T19:00:03.000Z</time>
      </trkpt>
      <trkpt lat="48.83335" lon="2.3658">
        <ele>93.3</ele>
        <time>2013-08-05T19:00:04.000Z</time>
      </trkpt>
      <trkpt lat="48.83338" lon="2.36578">
        <ele>92.6</ele>
        <time>2013-08-05T19:00:05.000Z</time>
      </trkpt>
      <trkpt lat="48.83343" lon="2.36578">
        <ele>92</ele>
        <time>2013-08-05T19:00:06.000Z</time>
      </trkpt>
      <trkpt lat="48.83346" lon="2.36576">
        <ele>91.6</ele>
        <time>2013-08-05T19:00:07.000Z</time>
      </trkpt>
      <trkpt lat="48.83348" lon="2.3657">
        <ele>92</ele>
        <time>2013-08-05T19:00:08.000Z</time>
      </trkpt>
      <trkpt lat="48.83351" lon="2.36567">
        <ele>91.9</ele>
        <time>2013-08-05T19:00:09.000Z</time>
      </trkpt>
      <trkpt lat="48.83354" lon="2.36564">
        <ele>91.3</ele>
        <time>2013-08-05T19:00:10.000Z</time>
      </trkpt>
      <trkpt lat="48.83356" lon="2.3656">
        <ele>91</ele>
        <time>2013-08-05T19:00:11.000Z</time>
      </trkpt>
      <trkpt lat="48.83358" lon="2.36557">
        <ele>91.9</ele>
        <time>2013-08-05T19:00:12.000Z</time>
      </trkpt>
      <trkpt lat="48.83361" lon="2.36553">
        <ele>92</ele>
        <time>2013-08-05T19:00:13.000Z</time>
      </trkpt>
      <trkpt lat="48.83364" lon="2.36549">
        <ele>93.2</ele>
        <time>2013-08-05T19:00:14.000Z</time>
      </trkpt>
      <trkpt lat="48.83366" lon="2.36545">
        <ele>91.7</ele>
        <time>2013-08-05T19:00:15.000Z</time>
      </trkpt>
      <trkpt lat="48.83369" lon="2.3654">
        <ele>91.7</ele>
        <time>2013-08-05T19:00:16.000Z</time>
      </trkpt>
      <trkpt lat="48.83371" lon="2.36535">
        <ele>92.5</ele>
        <time>2013-08-05T19:00:17.000Z</time>
      </trkpt>
      <trkpt lat="48.83373" lon="2.3653">
        <ele>93.7</ele>
        <time>2013-08-05T19:00:18.000Z</time>
      </trkpt>
      <trkpt lat="48.83375" lon="2.36526">
        <ele>93.9</ele>
        <time>2013-08-05T19:00:19.000Z</time>
      </trkpt>
      <trkpt lat="48.83377" lon="2.36522">
        <ele>94.8</ele>
        <time>2013-08-05T19:00:20.000Z</time>
      </trkpt>
      <trkpt lat="48.83378" lon="2.36519">
        <ele>95.8</ele>
        <time>2013-08-05T19:00:21.000Z</time>
      </trkpt>
      <trkpt lat="48.83379" lon="2.36516">
        <ele>96.9</ele>
        <time>2013-08-05T19:00:22.000Z</time>
      </trkpt>
      <trkpt lat="48.83381" lon="2.36512">
        <ele>97.2</ele>
        <time>2013-08-05T19:00:23.000Z</time>
      </trkpt>
      <trkpt lat="48.83382" lon="2.36509">
        <ele>96.3</ele>
        <time>2013-08-05T19:00:24.000Z</time>
      </trkpt>
      <trkpt lat="48.83382" lon="2.36506">
        <ele>96.5</ele>
        <time>2013-08-05T19:00:25.000Z</time>
      </trkpt>
      <trkpt lat="48.83383" lon="2.36502">
        <ele>96.5</ele>
        <time>2013-08-05T19:00:26.000Z</time>
      </trkpt>
      <trkpt lat="48.83383" lon="2.36498">
        <ele>97</ele>
        <time>2013-08-05T19:00:27.000Z</time>
      </trkpt>
      <trkpt lat="48.83384" lon="2.36495">
        <ele>94.7</ele>
        <time>2013-08-05T19:00:28.000Z</time>
      </trkpt>
      <trkpt lat="48.83385" lon="2.36492">
        <ele>91.5</ele>
        <time>2013-08-05T19:00:29.000Z</time>
      </trkpt>
      <trkpt lat="48.83387" lon="2.36488">
        <ele>93.3</ele>
        <time>2013-08-05T19:00:30.000Z</time>
      </trkpt>
      <trkpt lat="48.83389" lon="2.36485">
        <ele>94.4</ele>
        <time>2013-08-05T19:00:31.000Z</time>
      </trkpt>
      <trkpt lat="48.83391" lon="2.36481">
        <ele>94.4</ele>
        <time>2013-08-05T19:00:32.000Z</time>
      </trkpt>
      <trkpt lat="48.83393" lon="2.36475">
        <ele>95.1</ele>
        <time>2013-08-05T19:00:33.000Z</time>
      </trkpt>
      <trkpt lat="48.83396" lon="2.36469">
        <ele>95</ele>
        <time>2013-08-05T19:00:34.000Z</time>
      </trkpt>
      <trkpt lat="48.83398" lon="2.36464">
        <ele>94.8</ele>
        <time>2013-08-05T19:00:35.000Z</time>
      </trkpt>
      <trkpt lat="48.83401" lon="2.36459">
        <ele>96.1</ele>
        <time>2013-08-05T19:00:36.000Z</time>
      </trkpt>
      <trkpt lat="48.83404" lon="2.36454">
        <ele>98.3</ele>
        <time>2013-08-05T19:00:37.000Z</time>
      </trkpt>
      <trkpt lat="48.83406" lon="2.36449">
        <ele>98.1</ele>
        <time>2013-08-05T19:00:38.000Z</time>
      </trkpt>
      <trkpt lat="48.83409" lon="2.36444">
        <ele>98.5</ele>
        <time>2013-08-05T19:00:39.000Z</time>
      </trkpt>
      <trkpt lat="48.83412" lon="2.3644">
        <ele>99.2</ele>
        <time>2013-08-05T19:00:40.000Z</time>
      </trkpt>
      <trkpt lat="48.83415" lon="2.36435">
        <ele>99.9</ele>
        <time>2013-08-05T19:00:41.000Z</time>
      </trkpt>
      <trkpt lat="48.83417" lon="2.36431">
        <ele>100.2</ele>
        <time>2013-08-05T19:00:42.000Z</time>
      </trkpt>
      <trkpt lat="48.83419" lon="2.36427">
        <ele>99.2</ele>
        <time>2013-08-05T19:00:43.000Z</time>
      </trkpt>
      <trkpt lat="48.83421" lon="2.36423">
        <ele>99.3</ele>
        <time>2013-08-05T19:00:44.000Z</time>
      </trkpt>
      <trkpt lat="48.83424" lon="2.3642">
        <ele>99.2</ele>
        <time>2013-08-05T19:00:45.000Z</time>
      </trkpt>
      <trkpt lat="48.83426" lon="2.36416">
        <ele>99.2</ele>
        <time>2013-08-05T19:00:46.000Z</time>
      </trkpt>
      <trkpt lat="48.83428" lon="2.36412">
        <ele>99.3</ele>
        <time>2013-08-05T19:00:47.000Z</time>
      </trkpt>
      <trkpt lat="48.8343" lon="2.36408">
        <ele>99.4</ele>
        <time>2013-08-05T19:00:48.000Z</time>
      </trkpt>
      <trkpt lat="48.83431" lon="2.36404">
        <ele>99.5</ele>
        <time>2013-08-05T19:00:49.000Z</time>
      </trkpt>
      <trkpt lat="48.83434" lon="2.364">
        <ele>99.6</ele>
        <time>2013-08-05T19:00:50.000Z</time>
      </trkpt>
      <trkpt lat="48.83436" lon="2.36396">
        <ele>99.7</ele>
        <time>2013-08-05T19:00:51.000Z</time>
      </trkpt>
      <trkpt lat="48.83441" lon="2.36387">
        <ele>101.6</ele>
        <time>2013-08-05T19:00:53.217Z</time>
      </trkpt>
      <trkpt lat="48.83443" lon="2.36383">
        <ele>102.3</ele>
        <time>2013-08-05T19:00:54.000Z</time>
      </trkpt>
      <trkpt lat="48.83445" lon="2.36377">
        <ele>99.8</ele>
        <time>2013-08-05T19:00:55.000Z</time>
      </trkpt>
      <trkpt lat="48.83448" lon="2.36371">
        <ele>99.9</ele>
        <time>2013-08-05T19:00:56.000Z</time>
      </trkpt>
      <trkpt lat="48.83451" lon="2.36365">
        <ele>100</ele>
        <time>2013-08-05T19:00:57.000Z</time>
      </trkpt>
      <trkpt lat="48.83453" lon="2.3636">
        <ele>100.6</ele>
        <time>2013-08-05T19:00:58.000Z</time>
      </trkpt>
      <trkpt lat="48.83456" lon="2.36355">
        <ele>101.2</ele>
        <time>2013-08-05T19:00:59.000Z</time>
      </trkpt>
      <trkpt lat="48.83459" lon="2.3635">
        <ele>100.4</ele>
        <time>2013-08-05T19:01:00.000Z</time>
      </trkpt>
      <trkpt lat="48.83462" lon="2.36344">
        <ele>99.6</ele>
        <time>2013-08-05T19:01:01.000Z</time>
      </trkpt>
      <trkpt lat="48.83464" lon="2.36339">
        <ele>99.7</ele>
        <time>2013-08-05T19:01:02.000Z</time>
      </trkpt>
      <trkpt lat="48.83467" lon="2.36334">
        <ele>99.2</ele>
        <time>2013-08-05T19:01:03.000Z</time>
      </trkpt>
      <trkpt lat="48.83469" lon="2.3633">
        <ele>97.8</ele>
        <time>2013-08-05T19:01:04.000Z</time>
      </trkpt>
      <trkpt lat="48.83474" lon="2.36324">
        <ele>97.6</ele>
        <time>2013-08-05T19:01:05.000Z</time>
      </trkpt>
      <trkpt lat="48.83477" lon="2.3632">
        <ele>97.9</ele>
        <time>2013-08-05T19:01:06.000Z</time>
      </trkpt>
      <trkpt lat="48.83479" lon="2.36315">
        <ele>97.2</ele>
        <time>2013-08-05T19:01:07.000Z</time>
      </trkpt>
      <trkpt lat="48.83482" lon="2.36309">
        <ele>97</ele>
        <time>2013-08-05T19:01:08.000Z</time>
      </trkpt>
      <trkpt lat="48.83485" lon="2.36304">
        <ele>96.2</ele>
        <time>2013-08-05T19:01:09.000Z</time>
      </trkpt>
      <trkpt lat="48.83487" lon="2.36296">
        <ele>96.1</ele>
        <time>2013-08-05T19:01:10.000Z</time>
      </trkpt>
      <trkpt lat="48.83489" lon="2.36289">
        <ele>97</ele>
        <time>2013-08-05T19:01:11.000Z</time>
      </trkpt>
      <trkpt lat="48.83492" lon="2.36282">
        <ele>97.2</ele>
        <time>2013-08-05T19:01:12.000Z</time>
      </trkpt>
      <trkpt lat="48.83494" lon="2.36278">
        <ele>98.1</ele>
        <time>2013-08-05T19:01:13.000Z</time>
      </trkpt>
      <trkpt lat="48.83498" lon="2.36271">
        <ele>98.4</ele>
        <time>2013-08-05T19:01:14.000Z</time>
      </trkpt>
      <trkpt lat="48.835" lon="2.36265">
        <ele>96.9</ele>
        <time>2013-08-05T19:01:15.000Z</time>
      </trkpt>
      <trkpt lat="48.83502" lon="2.36261">
        <ele>97.1</ele>
        <time>2013-08-05T19:01:16.000Z</time>
      </trkpt>
      <trkpt lat="48.83506" lon="2.36256">
        <ele>97.4</ele>
        <time>2013-08-05T19:01:17.000Z</time>
      </trkpt>
      <trkpt lat="48.83508" lon="2.3625">
        <ele>96.7</ele>
        <time>2013-08-05T19:01:18.000Z</time>
      </trkpt>
      <trkpt lat="48.83511" lon="2.36245">
        <ele>96.1</ele>
        <time>2013-08-05T19:01:19.000Z</time>
      </trkpt>
      <trkpt lat="48.83514" lon="2.3624">
        <ele>96.7</ele>
        <time>2013-08-05T19:01:20.000Z</time>
      </trkpt>
      <trkpt lat="48.83517" lon="2.36236">
        <ele>96.8</ele>
        <time>2013-08-05T19:01:21.000Z</time>
      </trkpt>
      <trkpt lat="48.8352" lon="2.3623">
        <ele>96.4</ele>
        <time>2013-08-05T19:01:22.000Z</time>
      </trkpt>
      <trkpt lat="48.83522" lon="2.36225">
        <ele>97.3</ele>
        <time>2013-08-05T19:01:23.000Z</time>
      </trkpt>
      <trkpt lat="48.83525" lon="2.3622">
        <ele>98.2</ele>
        <time>2013-08-05T19:01:24.000Z</time>
      </trkpt>
      <trkpt lat="48.83527" lon="2.36215">
        <ele>98.4</ele>
        <time>2013-08-05T19:01:25.000Z</time>
      </trkpt>
      <trkpt lat="48.83529" lon="2.36212">
        <ele>99.1</ele>
        <time>2013-08-05T19:01:26.000Z</time>
      </trkpt>
      <trkpt lat="48.83532" lon="2.36207">
        <ele>99.9</ele>
        <time>2013-08-05T19:01:27.000Z</time>
      </trkpt>
      <trkpt lat="48.83535" lon="2.36203">
        <ele>100</ele>
        <time>2013-08-05T19:01:28.000Z</time>
      </trkpt>
      <trkpt lat="48.83537" lon="2.36198">
        <ele>99.6</ele>
        <time>2013-08-05T19:01:29.000Z</time>
      </trkpt>
      <trkpt lat="48.83539" lon="2.36194">
        <ele>99.7</ele>
        <time>2013-08-05T19:01:30.000Z</time>
      </trkpt>
      <trkpt lat="48.83541" lon="2.3619">
        <ele>99.1</ele>
        <time>2013-08-05T19:01:31.000Z</time>
      </trkpt>
      <trkpt lat="48.83543" lon="2.36186">
        <ele>99.3</ele>
        <time>2013-08-05T19:01:32.000Z</time>
      </trkpt>
      <trkpt lat="48.83546" lon="2.36181">
        <ele>99.8</ele>
        <time>2013-08-05T19:01:33.000Z</time>
      </trkpt>
      <trkpt lat="48.83548" lon="2.36177">
        <ele>99.2</ele>
        <time>2013-08-05T19:01:34.000Z</time>
      </trkpt>
      <trkpt lat="48.83551" lon="2.36174">
        <ele>99.7</ele>
        <time>2013-08-05T19:01:35.000Z</time>
      </trkpt>
      <trkpt lat="48.83553" lon="2.3617">
        <ele>100</ele>
        <time>2013-08-05T19:01:36.000Z</time>
      </trkpt>
      <trkpt lat="48.83556" lon="2.36166">
        <ele>100.8</ele>
        <time>2013-08-05T19:01:37.000Z</time>
      </trkpt>
      <trkpt lat="48.83559" lon="2.36162">
        <ele>101.4</ele>
        <time>2013-08-05T19:01:38.000Z</time>
      </trkpt>
      <trkpt lat="48.83561" lon="2.36158">
        <ele>101.6</ele>
        <time>2013-08-05T19:01:39.000Z</time>
      </trkpt>
      <trkpt lat="48.83564" lon="2.36155">
        <ele>101</ele>
        <time>2013-08-05T19:01:40.000Z</time>
      </trkpt>
      <trkpt lat="48.83565" lon="2.36151">
        <ele>100.8</ele>
        <time>2013-08-05T19:01:41.000Z</time>
      </trkpt>
      <trkpt lat="48.83567" lon="2.36148">
        <ele>100.7</ele>
        <time>2013-08-05T19:01:42.000Z</time>
      </trkpt>
      <trkpt lat="48.83569" lon="2.36144">
        <ele>102.5</ele>
        <time>2013-08-05T19:01:43.000Z</time>
      </trkpt>
      <trkpt lat="48.83571" lon="2.36141">
        <ele>102.9</ele>
        <time>2013-08-05T19:01:44.000Z</time>
      </trkpt>
      <trkpt lat="48.83572" lon="2.36138">
        <ele>104.2</ele>
        <time>2013-08-05T19:01:45.000Z</time>
      </trkpt>
      <trkpt lat="48.83574" lon="2.36134">
        <ele>104.3</ele>
        <time>2013-08-05T19:01:46.000Z</time>
      </trkpt>
      <trkpt lat="48.83576" lon="2.36131">
        <ele>106.1</ele>
        <time>2013-08-05T19:01:47.000Z</time>
      </trkpt>
      <trkpt lat="48.83578" lon="2.36127">
        <ele>107</ele>
        <time>2013-08-05T19:01:48.000Z</time>
      </trkpt>
      <trkpt lat="48.83579" lon="2.36122">
        <ele>107.5</ele>
        <time>2013-08-05T19:01:49.000Z</time>
      </trkpt>
      <trkpt lat="48.8358" lon="2.36118">
        <ele>107.3</ele>
        <time>2013-08-05T19:01:50.000Z</time>
      </trkpt>
      <trkpt lat="48.83582" lon="2.36112">
        <ele>106.8</ele>
        <time>2013-08-05T19:01:51.000Z</time>
      </trkpt>
      <trkpt lat="48.83586" lon="2.36104">
        <ele>106.4</ele>
        <time>2013-08-05T19:01:52.794Z</time>
      </trkpt>
      <trkpt lat="48.83589" lon="2.36099">
        <ele>107.7</ele>
        <time>2013-08-05T19:01:54.000Z</time>
      </trkpt>
      <trkpt lat="48.83592" lon="2.36094">
        <ele>107.3</ele>
        <time>2013-08-05T19:01:55.000Z</time>
      </trkpt>
      <trkpt lat="48.83594" lon="2.3609">
        <ele>106.9</ele>
        <time>2013-08-05T19:01:56.000Z</time>
      </trkpt>
      <trkpt lat="48.83597" lon="2.36085">
        <ele>106.3</ele>
        <time>2013-08-05T19:01:57.000Z</time>
      </trkpt>
      <trkpt lat="48.83598" lon="2.3608">
        <ele>105.8</ele>
        <time>2013-08-05T19:01:58.000Z</time>
      </trkpt>
      <trkpt lat="48.836" lon="2.36075">
        <ele>105.8</ele>
        <time>2013-08-05T19:01:59.000Z</time>
      </trkpt>
      <trkpt lat="48.83602" lon="2.3607">
        <ele>106.7</ele>
        <time>2013-08-05T19:02:00.000Z</time>
      </trkpt>
      <trkpt lat="48.83604" lon="2.36065">
        <ele>106</ele>
        <time>2013-08-05T19:02:01.000Z</time>
      </trkpt>
      <trkpt lat="48.83606" lon="2.36061">
        <ele>105.7</ele>
        <time>2013-08-05T19:02:02.000Z</time>
      </trkpt>
      <trkpt lat="48.83608" lon="2.36056">
        <ele>104.9</ele>
        <time>2013-08-05T19:02:03.000Z</time>
      </trkpt>
      <trkpt lat="48.83611" lon="2.36052">
        <ele>105.3</ele>
        <time>2013-08-05T19:02:04.000Z</time>
      </trkpt>
      <trkpt lat="48.83613" lon="2.36047">
        <ele>105.2</ele>
        <time>2013-08-05T19:02:05.000Z</time>
      </trkpt>
      <trkpt lat="48.83615" lon="2.36043">
        <ele>104.3</ele>
        <time>2013-08-05T19:02:06.000Z</time>
      </trkpt>
      <trkpt lat="48.83617" lon="2.36038">
        <ele>104.8</ele>
        <time>2013-08-05T19:02:07.000Z</time>
      </trkpt>
      <trkpt lat="48.83619" lon="2.36034">
        <ele>104.4</ele>
        <time>2013-08-05T19:02:08.000Z</time>
      </trkpt>
      <trkpt lat="48.83621" lon="2.36029">
        <ele>105</ele>
        <time>2013-08-05T19:02:09.000Z</time>
      </trkpt>
      <trkpt lat="48.83623" lon="2.36025">
        <ele>105.6</ele>
        <time>2013-08-05T19:02:10.000Z</time>
      </trkpt>
      <trkpt lat="48.83625" lon="2.3602">
        <ele>104.7</ele>
        <time>2013-08-05T19:02:11.000Z</time>
      </trkpt>
      <trkpt lat="48.83626" lon="2.36015">
        <ele>104.7</ele>
        <time>2013-08-05T19:02:12.000Z</time>
      </trkpt>
      <trkpt lat="48.83629" lon="2.3601">
        <ele>103.3</ele>
        <time>2013-08-05T19:02:13.000Z</time>
      </trkpt>
      <trkpt lat="48.83631" lon="2.36006">
        <ele>102.8</ele>
        <time>2013-08-05T19:02:14.000Z</time>
      </trkpt>
      <trkpt lat="48.83633" lon="2.36002">
        <ele>102.5</ele>
        <time>2013-08-05T19:02:15.000Z</time>
      </trkpt>
      <trkpt lat="48.83635" lon="2.35997">
        <ele>102.2</ele>
        <time>2013-08-05T19:02:16.000Z</time>
      </trkpt>
      <trkpt lat="48.83637" lon="2.35992">
        <ele>101.5</ele>
        <time>2013-08-05T19:02:17.000Z</time>
      </trkpt>
      <trkpt lat="48.83638" lon="2.35988">
        <ele>101.7</ele>
        <time>2013-08-05T19:02:18.000Z</time>
      </trkpt>
      <trkpt lat="48.83639" lon="2.35983">
        <ele>101.4</ele>
        <time>2013-08-05T19:02:19.000Z</time>
      </trkpt>
      <trkpt lat="48.83641" lon="2.35978">
        <ele>102</ele>
        <time>2013-08-05T19:02:20.000Z</time>
      </trkpt>
      <trkpt lat="48.83642" lon="2.35974">
        <ele>101.4</ele>
        <time>2013-08-05T19:02:21.000Z</time>
      </trkpt>
      <trkpt lat="48.83643" lon="2.35969">
        <ele>101.1</ele>
        <time>2013-08-05T19:02:22.000Z</time>
      </trkpt>
      <trkpt lat="48.83645" lon="2.35964">
        <ele>101.5</ele>
        <time>2013-08-05T19:02:24.000Z</time>
      </trkpt>
      <trkpt lat="48.83646" lon="2.35963">
        <ele>103</ele>
        <time>2013-08-05T19:02:25.000Z</time>
      </trkpt>
      <trkpt lat="48.83647" lon="2.35957">
        <ele>104</ele>
        <time>2013-08-05T19:02:28.000Z</time>
      </trkpt>
      <trkpt lat="48.83646" lon="2.35955">
        <ele>104.8</ele>
        <time>2013-08-05T19:02:29.000Z</time>
      </trkpt>
      <trkpt lat="48.83648" lon="2.35949">
        <ele>107.1</ele>
        <time>2013-08-05T19:03:48.000Z</time>
      </trkpt>
      <trkpt lat="48.83649" lon="2.35946">
        <ele>107.4</ele>
        <time>2013-08-05T19:03:49.000Z</time>
      </trkpt>
      <trkpt lat="48.83649" lon="2.35941">
        <ele>107.9</ele>
        <time>2013-08-05T19:03:51.000Z</time>
      </trkpt>
      <trkpt lat="48.83648" lon="2.35937">
        <ele>108.4</ele>
        <time>2013-08-05T19:03:52.858Z</time>
      </trkpt>
      <trkpt lat="48.83646" lon="2.35933">
        <ele>106.4</ele>
        <time>2013-08-05T19:07:31.000Z</time>
      </trkpt>
      <trkpt lat="48.83645" lon="2.3593">
        <ele>106.3</ele>
        <time>2013-08-05T19:07:32.000Z</time>
      </trkpt>
      <trkpt lat="48.83644" lon="2.35926">
        <ele>106.8</ele>
        <time>2013-08-05T19:07:33.000Z</time>
      </trkpt>
      <trkpt lat="48.83643" lon="2.35922">
        <ele>107.3</ele>
        <time>2013-08-05T19:07:34.000Z</time>
      </trkpt>
      <trkpt lat="48.83642" lon="2.35917">
        <ele>106.3</ele>
        <time>2013-08-05T19:07:35.000Z</time>
      </trkpt>
      <trkpt lat="48.8364" lon="2.35912">
        <ele>106.4</ele>
        <time>2013-08-05T19:07:36.000Z</time>
      </trkpt>
      <trkpt lat="48.83637" lon="2.35908">
        <ele>107.2</ele>
        <time>2013-08-05T19:07:37.000Z</time>
      </trkpt>
      <trkpt lat="48.83635" lon="2.35904">
        <ele>107.2</ele>
        <time>2013-08-05T19:07:38.000Z</time>
      </trkpt>
      <trkpt lat="48.8363" lon="2.35902">
        <ele>107.4</ele>
        <time>2013-08-05T19:07:39.000Z</time>
      </trkpt>
      <trkpt lat="48.83626" lon="2.35899">
        <ele>108</ele>
        <time>2013-08-05T19:07:40.000Z</time>
      </trkpt>
      <trkpt lat="48.83622" lon="2.35897">
        <ele>107.5</ele>
        <time>2013-08-05T19:07:41.000Z</time>
      </trkpt>
      <trkpt lat="48.83618" lon="2.35894">
        <ele>108</ele>
        <time>2013-08-05T19:07:42.000Z</time>
      </trkpt>
      <trkpt lat="48.83615" lon="2.35892">
        <ele>108.3</ele>
        <time>2013-08-05T19:07:43.000Z</time>
      </trkpt>
      <trkpt lat="48.83611" lon="2.35889">
        <ele>108.9</ele>
        <time>2013-08-05T19:07:44.000Z</time>
      </trkpt>
      <trkpt lat="48.83608" lon="2.35886">
        <ele>109.2</ele>
        <time>2013-08-05T19:07:45.000Z</time>
      </trkpt>
      <trkpt lat="48.83604" lon="2.35884">
        <ele>108.6</ele>
        <time>2013-08-05T19:07:46.000Z</time>
      </trkpt>
      <trkpt lat="48.836" lon="2.35881">
        <ele>108.8</ele>
        <time>2013-08-05T19:07:47.000Z</time>
      </trkpt>
      <trkpt lat="48.83597" lon="2.35879">
        <ele>109.3</ele>
        <time>2013-08-05T19:07:48.000Z</time>
      </trkpt>
      <trkpt lat="48.83594" lon="2.35877">
        <ele>109.4</ele>
        <time>2013-08-05T19:07:49.000Z</time>
      </trkpt>
      <trkpt lat="48.83591" lon="2.35876">
        <ele>109.1</ele>
        <time>2013-08-05T19:07:50.000Z</time>
      </trkpt>
      <trkpt lat="48.83589" lon="2.35875">
        <ele>109.1</ele>
        <time>2013-08-05T19:07:51.000Z</time>
      </trkpt>
      <trkpt lat="48.83585" lon="2.35872">
        <ele>109</ele>
        <time>2013-08-05T19:07:52.741Z</time>
      </trkpt>
      <trkpt lat="48.83582" lon="2.3587">
        <ele>108.6</ele>
        <time>2013-08-05T19:07:54.000Z</time>
      </trkpt>
      <trkpt lat="48.83578" lon="2.35869">
        <ele>110.6</ele>
        <time>2013-08-05T19:07:58.000Z</time>
      </trkpt>
      <trkpt lat="48.83578" lon="2.35869">
        <ele>110.6</ele>
        <time>2013-08-05T19:07:59.000Z</time>
      </trkpt>
      <trkpt lat="48.83574" lon="2.35868">
        <ele>113.2</ele>
        <time>2013-08-05T19:08:05.000Z</time>
      </trkpt>
      <trkpt lat="48.83573" lon="2.35868">
        <ele>115.2</ele>
        <time>2013-08-05T19:08:06.000Z</time>
      </trkpt>
      <trkpt lat="48.83576" lon="2.35865">
        <ele>116.5</ele>
        <time>2013-08-05T19:08:11.000Z</time>
      </trkpt>
      <trkpt lat="48.83578" lon="2.35864">
        <ele>116.5</ele>
        <time>2013-08-05T19:08:12.000Z</time>
      </trkpt>
      <trkpt lat="48.83581" lon="2.35861">
        <ele>117.5</ele>
        <time>2013-08-05T19:08:14.000Z</time>
      </trkpt>
      <trkpt lat="48.83584" lon="2.35859">
        <ele>117.6</ele>
        <time>2013-08-05T19:08:15.000Z</time>
      </trkpt>
      <trkpt lat="48.83586" lon="2.35857">
        <ele>118.7</ele>
        <time>2013-08-05T19:08:16.000Z</time>
      </trkpt>
      <trkpt lat="48.83589" lon="2.35855">
        <ele>119.3</ele>
        <time>2013-08-05T19:08:17.000Z</time>
      </trkpt>
      <trkpt lat="48.83592" lon="2.35852">
        <ele>118.6</ele>
        <time>2013-08-05T19:08:18.000Z</time>
      </trkpt>
      <trkpt lat="48.83596" lon="2.35848">
        <ele>117.1</ele>
        <time>2013-08-05T19:08:19.000Z</time>
      </trkpt>
      <trkpt lat="48.836" lon="2.35845">
        <ele>117.1</ele>
        <time>2013-08-05T19:08:20.000Z</time>
      </trkpt>
      <trkpt lat="48.83604" lon="2.3584">
        <ele>117.8</ele>
        <time>2013-08-05T19:08:21.000Z</time>
      </trkpt>
      <trkpt lat="48.83608" lon="2.35836">
        <ele>116.3</ele>
        <time>2013-08-05T19:08:22.000Z</time>
      </trkpt>
      <trkpt lat="48.83612" lon="2.35832">
        <ele>115.3</ele>
        <time>2013-08-05T19:08:23.000Z</time>
      </trkpt>
      <trkpt lat="48.83616" lon="2.35828">
        <ele>113.1</ele>
        <time>2013-08-05T19:08:24.000Z</time>
      </trkpt>
      <trkpt lat="48.83619" lon="2.35824">
        <ele>112</ele>
        <time>2013-08-05T19:08:25.000Z</time>
      </trkpt>
      <trkpt lat="48.83622" lon="2.35819">
        <ele>111.6</ele>
        <time>2013-08-05T19:08:26.000Z</time>
      </trkpt>
      <trkpt lat="48.83626" lon="2.35815">
        <ele>111.2</ele>
        <time>2013-08-05T19:08:27.000Z</time>
      </trkpt>
      <trkpt lat="48.83628" lon="2.3581">
        <ele>109.5</ele>
        <time>2013-08-05T19:08:28.000Z</time>
      </trkpt>
      <trkpt lat="48.83629" lon="2.35804">
        <ele>109.8</ele>
        <time>2013-08-05T19:08:29.000Z</time>
      </trkpt>
      <trkpt lat="48.8363" lon="2.35799">
        <ele>110.4</ele>
        <time>2013-08-05T19:08:30.000Z</time>
      </trkpt>
      <trkpt lat="48.83629" lon="2.35793">
        <ele>111.8</ele>
        <time>2013-08-05T19:08:31.000Z</time>
      </trkpt>
      <trkpt lat="48.83627" lon="2.35788">
        <ele>112.5</ele>
        <time>2013-08-05T19:08:32.000Z</time>
      </trkpt>
      <trkpt lat="48.83624" lon="2.35782">
        <ele>111.5</ele>
        <time>2013-08-05T19:08:33.000Z</time>
      </trkpt>
      <trkpt lat="48.83616" lon="2.35773">
        <ele>111.5</ele>
        <time>2013-08-05T19:08:34.000Z</time>
      </trkpt>
      <trkpt lat="48.83612" lon="2.35767">
        <ele>109.8</ele>
        <time>2013-08-05T19:08:35.000Z</time>
      </trkpt>
      <trkpt lat="48.83609" lon="2.35761">
        <ele>110.5</ele>
        <time>2013-08-05T19:08:36.000Z</time>
      </trkpt>
      <trkpt lat="48.83607" lon="2.35755">
        <ele>110.8</ele>
        <time>2013-08-05T19:08:37.000Z</time>
      </trkpt>
      <trkpt lat="48.83604" lon="2.35749">
        <ele>110.7</ele>
        <time>2013-08-05T19:08:38.000Z</time>
      </trkpt>
      <trkpt lat="48.83602" lon="2.35743">
        <ele>110.8</ele>
        <time>2013-08-05T19:08:39.000Z</time>
      </trkpt>
      <trkpt lat="48.83601" lon="2.35735">
        <ele>111.8</ele>
        <time>2013-08-05T19:08:40.000Z</time>
      </trkpt>
      <trkpt lat="48.83598" lon="2.35728">
        <ele>112.2</ele>
        <time>2013-08-05T19:08:41.000Z</time>
      </trkpt>
      <trkpt lat="48.83596" lon="2.35721">
        <ele>112.6</ele>
        <time>2013-08-05T19:08:42.000Z</time>
      </trkpt>
      <trkpt lat="48.83593" lon="2.35715">
        <ele>114</ele>
        <time>2013-08-05T19:08:43.000Z</time>
      </trkpt>
      <trkpt lat="48.83592" lon="2.35707">
        <ele>115.4</ele>
        <time>2013-08-05T19:08:44.000Z</time>
      </trkpt>
      <trkpt lat="48.83589" lon="2.35699">
        <ele>116.4</ele>
        <time>2013-08-05T19:08:45.000Z</time>
      </trkpt>
      <trkpt lat="48.83587" lon="2.35692">
        <ele>116.7</ele>
        <time>2013-08-05T19:08:46.000Z</time>
      </trkpt>
      <trkpt lat="48.83585" lon="2.35686">
        <ele>116.9</ele>
        <time>2013-08-05T19:08:47.000Z</time>
      </trkpt>
      <trkpt lat="48.83583" lon="2.3568">
        <ele>117.3</ele>
        <time>2013-08-05T19:08:48.000Z</time>
      </trkpt>
      <trkpt lat="48.83581" lon="2.35673">
        <ele>117.9</ele>
        <time>2013-08-05T19:08:49.000Z</time>
      </trkpt>
      <trkpt lat="48.83579" lon="2.35665">
        <ele>118.5</ele>
        <time>2013-08-05T19:08:50.000Z</time>
      </trkpt>
      <trkpt lat="48.83576" lon="2.35662">
        <ele>118.2</ele>
        <time>2013-08-05T19:08:51.000Z</time>
      </trkpt>
      <trkpt lat="48.8357" lon="2.35652">
        <ele>117.9</ele>
        <time>2013-08-05T19:08:52.815Z</time>
      </trkpt>
      <trkpt lat="48.83565" lon="2.35647">
        <ele>117.8</ele>
        <time>2013-08-05T19:08:54.000Z</time>
      </trkpt>
      <trkpt lat="48.83561" lon="2.35642">
        <ele>117.7</ele>
        <time>2013-08-05T19:08:55.000Z</time>
      </trkpt>
      <trkpt lat="48.83558" lon="2.35635">
        <ele>117.5</ele>
        <time>2013-08-05T19:08:56.000Z</time>
      </trkpt>
      <trkpt lat="48.8355" lon="2.35634">
        <ele>116.8</ele>
        <time>2013-08-05T19:08:57.000Z</time>
      </trkpt>
      <trkpt lat="48.83549" lon="2.35625">
        <ele>116.6</ele>
        <time>2013-08-05T19:08:58.000Z</time>
      </trkpt>
      <trkpt lat="48.83545" lon="2.35622">
        <ele>117.7</ele>
        <time>2013-08-05T19:08:59.000Z</time>
      </trkpt>
      <trkpt lat="48.83542" lon="2.35618">
        <ele>118.4</ele>
        <time>2013-08-05T19:09:00.000Z</time>
      </trkpt>
      <trkpt lat="48.83541" lon="2.35607">
        <ele>119.1</ele>
        <time>2013-08-05T19:09:01.000Z</time>
      </trkpt>
      <trkpt lat="48.83537" lon="2.35605">
        <ele>119.3</ele>
        <time>2013-08-05T19:09:02.000Z</time>
      </trkpt>
      <trkpt lat="48.83533" lon="2.35604">
        <ele>119.4</ele>
        <time>2013-08-05T19:09:03.000Z</time>
      </trkpt>
      <trkpt lat="48.83531" lon="2.35599">
        <ele>120</ele>
        <time>2013-08-05T19:09:04.000Z</time>
      </trkpt>
      <trkpt lat="48.83527" lon="2.35592">
        <ele>120.3</ele>
        <time>2013-08-05T19:09:05.000Z</time>
      </trkpt>
      <trkpt lat="48.83524" lon="2.35586">
        <ele>121.1</ele>
        <time>2013-08-05T19:09:06.000Z</time>
      </trkpt>
      <trkpt lat="48.83522" lon="2.35574">
        <ele>121.4</ele>
        <time>2013-08-05T19:09:07.000Z</time>
      </trkpt>
      <trkpt lat="48.83519" lon="2.35568">
        <ele>121.3</ele>
        <time>2013-08-05T19:09:08.000Z</time>
      </trkpt>
      <trkpt lat="48.83519" lon="2.35555">
        <ele>120.2</ele>
        <time>2013-08-05T19:09:09.000Z</time>
      </trkpt>
      <trkpt lat="48.83516" lon="2.35546">
        <ele>119.1</ele>
        <time>2013-08-05T19:09:10.000Z</time>
      </trkpt>
      <trkpt lat="48.83514" lon="2.35539">
        <ele>119.2</ele>
        <time>2013-08-05T19:09:11.000Z</time>
      </trkpt>
      <trkpt lat="48.83511" lon="2.35533">
        <ele>119</ele>
        <time>2013-08-05T19:09:12.000Z</time>
      </trkpt>
      <trkpt lat="48.83508" lon="2.35527">
        <ele>118</ele>
        <time>2013-08-05T19:09:13.000Z</time>
      </trkpt>
      <trkpt lat="48.83505" lon="2.3552">
        <ele>117.5</ele>
        <time>2013-08-05T19:09:14.000Z</time>
      </trkpt>
      <trkpt lat="48.83502" lon="2.35518">
        <ele>115.5</ele>
        <time>2013-08-05T19:09:15.000Z</time>
      </trkpt>
      <trkpt lat="48.835" lon="2.35512">
        <ele>114.8</ele>
        <time>2013-08-05T19:09:16.000Z</time>
      </trkpt>
      <trkpt lat="48.83497" lon="2.35507">
        <ele>114.8</ele>
        <time>2013-08-05T19:09:17.000Z</time>
      </trkpt>
      <trkpt lat="48.83494" lon="2.355">
        <ele>115</ele>
        <time>2013-08-05T19:09:18.000Z</time>
      </trkpt>
      <trkpt lat="48.83492" lon="2.35494">
        <ele>114.5</ele>
        <time>2013-08-05T19:09:19.000Z</time>
      </trkpt>
      <trkpt lat="48.83489" lon="2.35488">
        <ele>114.1</ele>
        <time>2013-08-05T19:09:20.000Z</time>
      </trkpt>
      <trkpt lat="48.83487" lon="2.35482">
        <ele>113.9</ele>
        <time>2013-08-05T19:09:21.000Z</time>
      </trkpt>
      <trkpt lat="48.83484" lon="2.35474">
        <ele>113.7</ele>
        <time>2013-08-05T19:09:22.000Z</time>
      </trkpt>
      <trkpt lat="48.83481" lon="2.35468">
        <ele>113.8</ele>
        <time>2013-08-05T19:09:23.000Z</time>
      </trkpt>
      <trkpt lat="48.83478" lon="2.35463">
        <ele>113.6</ele>
        <time>2013-08-05T19:09:24.000Z</time>
      </trkpt>
      <trkpt lat="48.83475" lon="2.35454">
        <ele>115</ele>
        <time>2013-08-05T19:09:25.000Z</time>
      </trkpt>
      <trkpt lat="48.83473" lon="2.35447">
        <ele>115.2</ele>
        <time>2013-08-05T19:09:26.000Z</time>
      </trkpt>
      <trkpt lat="48.83471" lon="2.35441">
        <ele>114.7</ele>
        <time>2013-08-05T19:09:27.000Z</time>
      </trkpt>
      <trkpt lat="48.83472" lon="2.35434">
        <ele>115</ele>
        <time>2013-08-05T19:09:28.000Z</time>
      </trkpt>
      <trkpt lat="48.83471" lon="2.35427">
        <ele>116.4</ele>
        <time>2013-08-05T19:09:29.000Z</time>
      </trkpt>
      <trkpt lat="48.83469" lon="2.35422">
        <ele>117.2</ele>
        <time>2013-08-05T19:09:30.000Z</time>
      </trkpt>
      <trkpt lat="48.83466" lon="2.35417">
        <ele>117.3</ele>
        <time>2013-08-05T19:09:31.000Z</time>
      </trkpt>
      <trkpt lat="48.83464" lon="2.35412">
        <ele>117.6</ele>
        <time>2013-08-05T19:09:32.000Z</time>
      </trkpt>
      <trkpt lat="48.83462" lon="2.35407">
        <ele>116.7</ele>
        <time>2013-08-05T19:09:33.000Z</time>
      </trkpt>
      <trkpt lat="48.83458" lon="2.35403">
        <ele>117.1</ele>
        <time>2013-08-05T19:09:34.000Z</time>
      </trkpt>
      <trkpt lat="48.83457" lon="2.35399">
        <ele>117.1</ele>
        <time>2013-08-05T19:09:35.000Z</time>
      </trkpt>
      <trkpt lat="48.83456" lon="2.35393">
        <ele>116.7</ele>
        <time>2013-08-05T19:09:36.000Z</time>
      </trkpt>
      <trkpt lat="48.83451" lon="2.35387">
        <ele>113.2</ele>
        <time>2013-08-05T19:09:37.000Z</time>
      </trkpt>
      <trkpt lat="48.83449" lon="2.35382">
        <ele>113.4</ele>
        <time>2013-08-05T19:09:38.000Z</time>
      </trkpt>
      <trkpt lat="48.83447" lon="2.35378">
        <ele>112.1</ele>
        <time>2013-08-05T19:09:39.000Z</time>
      </trkpt>
      <trkpt lat="48.83444" lon="2.35375">
        <ele>112.9</ele>
        <time>2013-08-05T19:09:40.000Z</time>
      </trkpt>
      <trkpt lat="48.83443" lon="2.35372">
        <ele>111.7</ele>
        <time>2013-08-05T19:09:41.000Z</time>
      </trkpt>
      <trkpt lat="48.83443" lon="2.35366">
        <ele>110.4</ele>
        <time>2013-08-05T19:09:43.000Z</time>
      </trkpt>
      <trkpt lat="48.83445" lon="2.35364">
        <ele>110.1</ele>
        <time>2013-08-05T19:09:44.000Z</time>
      </trkpt>
      <trkpt lat="48.83447" lon="2.35361">
        <ele>108.2</ele>
        <time>2013-08-05T19:10:04.000Z</time>
      </trkpt>
      <trkpt lat="48.83448" lon="2.35359">
        <ele>108.4</ele>
        <time>2013-08-05T19:10:05.000Z</time>
      </trkpt>
      <trkpt lat="48.83449" lon="2.35354">
        <ele>108.1</ele>
        <time>2013-08-05T19:10:07.000Z</time>
      </trkpt>
      <trkpt lat="48.83451" lon="2.3535">
        <ele>109.2</ele>
        <time>2013-08-05T19:10:08.000Z</time>
      </trkpt>
      <trkpt lat="48.83452" lon="2.35347">
        <ele>109.2</ele>
        <time>2013-08-05T19:10:09.000Z</time>
      </trkpt>
      <trkpt lat="48.83454" lon="2.35344">
        <ele>107.9</ele>
        <time>2013-08-05T19:10:10.000Z</time>
      </trkpt>
      <trkpt lat="48.83456" lon="2.35342">
        <ele>106.7</ele>
        <time>2013-08-05T19:10:11.000Z</time>
      </trkpt>
      <trkpt lat="48.83458" lon="2.35341">
        <ele>106.4</ele>
        <time>2013-08-05T19:10:12.000Z</time>
      </trkpt>
      <trkpt lat="48.83462" lon="2.35338">
        <ele>106.2</ele>
        <time>2013-08-05T19:10:14.000Z</time>
      </trkpt>
      <trkpt lat="48.83463" lon="2.35338">
        <ele>106.9</ele>
        <time>2013-08-05T19:10:15.000Z</time>
      </trkpt>
      <trkpt lat="48.83464" lon="2.35332">
        <ele>104.4</ele>
        <time>2013-08-05T19:10:21.000Z</time>
      </trkpt>
      <trkpt lat="48.83463" lon="2.3533">
        <ele>105.5</ele>
        <time>2013-08-05T19:10:22.000Z</time>
      </trkpt>
      <trkpt lat="48.8346" lon="2.35326">
        <ele>107.2</ele>
        <time>2013-08-05T19:10:24.000Z</time>
      </trkpt>
      <trkpt lat="48.83458" lon="2.35325">
        <ele>107.4</ele>
        <time>2013-08-05T19:10:25.000Z</time>
      </trkpt>
      <trkpt lat="48.83455" lon="2.35322">
        <ele>106.5</ele>
        <time>2013-08-05T19:10:27.000Z</time>
      </trkpt>
      <trkpt lat="48.83454" lon="2.3532">
        <ele>106.4</ele>
        <time>2013-08-05T19:10:28.000Z</time>
      </trkpt>
      <trkpt lat="48.83453" lon="2.35314">
        <ele>105.6</ele>
        <time>2013-08-05T19:10:30.000Z</time>
      </trkpt>
      <trkpt lat="48.83453" lon="2.35311">
        <ele>105.2</ele>
        <time>2013-08-05T19:10:31.000Z</time>
      </trkpt>
      <trkpt lat="48.83452" lon="2.35306">
        <ele>105</ele>
        <time>2013-08-05T19:10:32.000Z</time>
      </trkpt>
      <trkpt lat="48.83451" lon="2.35301">
        <ele>104.4</ele>
        <time>2013-08-05T19:10:33.000Z</time>
      </trkpt>
      <trkpt lat="48.83451" lon="2.35296">
        <ele>104.3</ele>
        <time>2013-08-05T19:10:34.000Z</time>
      </trkpt>
      <trkpt lat="48.8345" lon="2.35292">
        <ele>104.9</ele>
        <time>2013-08-05T19:10:35.000Z</time>
      </trkpt>
      <trkpt lat="48.83448" lon="2.35288">
        <ele>102.9</ele>
        <time>2013-08-05T19:10:36.000Z</time>
      </trkpt>
      <trkpt lat="48.83446" lon="2.35284">
        <ele>103.8</ele>
        <time>2013-08-05T19:10:37.000Z</time>
      </trkpt>
      <trkpt lat="48.83445" lon="2.3528">
        <ele>103.9</ele>
        <time>2013-08-05T19:10:38.000Z</time>
      </trkpt>
      <trkpt lat="48.83443" lon="2.35276">
        <ele>103.8</ele>
        <time>2013-08-05T19:10:39.000Z</time>
      </trkpt>
      <trkpt lat="48.83441" lon="2.35271">
        <ele>103.4</ele>
        <time>2013-08-05T19:10:40.000Z</time>
      </trkpt>
      <trkpt lat="48.83438" lon="2.35266">
        <ele>103.7</ele>
        <time>2013-08-05T19:10:41.000Z</time>
      </trkpt>
      <trkpt lat="48.83435" lon="2.35261">
        <ele>103.3</ele>
        <time>2013-08-05T19:10:42.000Z</time>
      </trkpt>
      <trkpt lat="48.83433" lon="2.35257">
        <ele>102.2</ele>
        <time>2013-08-05T19:10:43.000Z</time>
      </trkpt>
      <trkpt lat="48.83431" lon="2.35252">
        <ele>102.3</ele>
        <time>2013-08-05T19:10:44.000Z</time>
      </trkpt>
      <trkpt lat="48.83428" lon="2.35247">
        <ele>102.9</ele>
        <time>2013-08-05T19:10:45.000Z</time>
      </trkpt>
      <trkpt lat="48.83425" lon="2.35243">
        <ele>102.5</ele>
        <time>2013-08-05T19:10:46.000Z</time>
      </trkpt>
      <trkpt lat="48.83422" lon="2.35238">
        <ele>102.9</ele>
        <time>2013-08-05T19:10:47.000Z</time>
      </trkpt>
      <trkpt lat="48.83419" lon="2.35235">
        <ele>101.8</ele>
        <time>2013-08-05T19:10:48.000Z</time>
      </trkpt>
      <trkpt lat="48.83415" lon="2.35232">
        <ele>100.1</ele>
        <time>2013-08-05T19:10:49.000Z</time>
      </trkpt>
      <trkpt lat="48.83411" lon="2.35228">
        <ele>101.8</ele>
        <time>2013-08-05T19:10:50.000Z</time>
      </trkpt>
      <trkpt lat="48.83407" lon="2.35224">
        <ele>102.2</ele>
        <time>2013-08-05T19:10:51.000Z</time>
      </trkpt>
      <trkpt lat="48.834" lon="2.35218">
        <ele>102.4</ele>
        <time>2013-08-05T19:10:52.788Z</time>
      </trkpt>
      <trkpt lat="48.83395" lon="2.35215">
        <ele>101.6</ele>
        <time>2013-08-05T19:10:54.000Z</time>
      </trkpt>
      <trkpt lat="48.8339" lon="2.35212">
        <ele>101.3</ele>
        <time>2013-08-05T19:10:55.000Z</time>
      </trkpt>
      <trkpt lat="48.83386" lon="2.3521">
        <ele>100.8</ele>
        <time>2013-08-05T19:10:56.000Z</time>
      </trkpt>
      <trkpt lat="48.83382" lon="2.35208">
        <ele>101.7</ele>
        <time>2013-08-05T19:10:57.000Z</time>
      </trkpt>
      <trkpt lat="48.83378" lon="2.35207">
        <ele>99.5</ele>
        <time>2013-08-05T19:10:58.000Z</time>
      </trkpt>
      <trkpt lat="48.83373" lon="2.35208">
        <ele>98.5</ele>
        <time>2013-08-05T19:10:59.000Z</time>
      </trkpt>
      <trkpt lat="48.8337" lon="2.35209">
        <ele>97.9</ele>
        <time>2013-08-05T19:11:00.000Z</time>
      </trkpt>
      <trkpt lat="48.83366" lon="2.3521">
        <ele>98</ele>
        <time>2013-08-05T19:11:01.000Z</time>
      </trkpt>
      <trkpt lat="48.83362" lon="2.35211">
        <ele>98.1</ele>
        <time>2013-08-05T19:11:02.000Z</time>
      </trkpt>
      <trkpt lat="48.83358" lon="2.35211">
        <ele>97.6</ele>
        <time>2013-08-05T19:11:03.000Z</time>
      </trkpt>
      <trkpt lat="48.83354" lon="2.3521">
        <ele>97.3</ele>
        <time>2013-08-05T19:11:04.000Z</time>
      </trkpt>
      <trkpt lat="48.8335" lon="2.35208">
        <ele>97.3</ele>
        <time>2013-08-05T19:11:05.000Z</time>
      </trkpt>
      <trkpt lat="48.83346" lon="2.35206">
        <ele>97</ele>
        <time>2013-08-05T19:11:06.000Z</time>
      </trkpt>
      <trkpt lat="48.83342" lon="2.35203">
        <ele>96.9</ele>
        <time>2013-08-05T19:11:07.000Z</time>
      </trkpt>
      <trkpt lat="48.83338" lon="2.352">
        <ele>95.4</ele>
        <time>2013-08-05T19:11:08.000Z</time>
      </trkpt>
      <trkpt lat="48.83334" lon="2.35196">
        <ele>95.7</ele>
        <time>2013-08-05T19:11:09.000Z</time>
      </trkpt>
      <trkpt lat="48.8333" lon="2.35192">
        <ele>95.6</ele>
        <time>2013-08-05T19:11:10.000Z</time>
      </trkpt>
      <trkpt lat="48.83326" lon="2.35189">
        <ele>96.4</ele>
        <time>2013-08-05T19:11:11.000Z</time>
      </trkpt>
      <trkpt lat="48.83322" lon="2.35185">
        <ele>96.7</ele>
        <time>2013-08-05T19:11:12.000Z</time>
      </trkpt>
      <trkpt lat="48.8332" lon="2.35181">
        <ele>91.8</ele>
        <time>2013-08-05T19:11:13.000Z</time>
      </trkpt>
      <trkpt lat="48.83318" lon="2.35175">
        <ele>91.3</ele>
        <time>2013-08-05T19:11:14.000Z</time>
      </trkpt>
      <trkpt lat="48.83316" lon="2.3517">
        <ele>90.9</ele>
        <time>2013-08-05T19:11:15.000Z</time>
      </trkpt>
      <trkpt lat="48.83313" lon="2.35165">
        <ele>91.1</ele>
        <time>2013-08-05T19:11:16.000Z</time>
      </trkpt>
      <trkpt lat="48.8331" lon="2.3516">
        <ele>92.5</ele>
        <time>2013-08-05T19:11:17.000Z</time>
      </trkpt>
      <trkpt lat="48.83307" lon="2.35155">
        <ele>93.1</ele>
        <time>2013-08-05T19:11:18.000Z</time>
      </trkpt>
      <trkpt lat="48.83305" lon="2.35152">
        <ele>91.9</ele>
        <time>2013-08-05T19:11:19.000Z</time>
      </trkpt>
      <trkpt lat="48.83302" lon="2.3515">
        <ele>91.6</ele>
        <time>2013-08-05T19:11:20.000Z</time>
      </trkpt>
      <trkpt lat="48.833" lon="2.35147">
        <ele>91.2</ele>
        <time>2013-08-05T19:11:21.000Z</time>
      </trkpt>
      <trkpt lat="48.83299" lon="2.35144">
        <ele>90.6</ele>
        <time>2013-08-05T19:11:22.000Z</time>
      </trkpt>
      <trkpt lat="48.83296" lon="2.35142">
        <ele>90</ele>
        <time>2013-08-05T19:11:24.000Z</time>
      </trkpt>
      <trkpt lat="48.83294" lon="2.3514">
        <ele>89.8</ele>
        <time>2013-08-05T19:11:25.000Z</time>
      </trkpt>
      <trkpt lat="48.8329" lon="2.35138">
        <ele>90.3</ele>
        <time>2013-08-05T19:11:27.000Z</time>
      </trkpt>
      <trkpt lat="48.83288" lon="2.35137">
        <ele>89.4</ele>
        <time>2013-08-05T19:11:28.000Z</time>
      </trkpt>
      <trkpt lat="48.83286" lon="2.35136">
        <ele>90.2</ele>
        <time>2013-08-05T19:11:29.000Z</time>
      </trkpt>
      <trkpt lat="48.83284" lon="2.35134">
        <ele>91</ele>
        <time>2013-08-05T19:11:30.000Z</time>
      </trkpt>
      <trkpt lat="48.83282" lon="2.35131">
        <ele>91.3</ele>
        <time>2013-08-05T19:11:31.000Z</time>
      </trkpt>
      <trkpt lat="48.83279" lon="2.35127">
        <ele>91.4</ele>
        <time>2013-08-05T19:11:32.000Z</time>
      </trkpt>
      <trkpt lat="48.83277" lon="2.35123">
        <ele>91.6</ele>
        <time>2013-08-05T19:11:33.000Z</time>
      </trkpt>
      <trkpt lat="48.83274" lon="2.35119">
        <ele>90.1</ele>
        <time>2013-08-05T19:11:34.000Z</time>
      </trkpt>
      <trkpt lat="48.83271" lon="2.35114">
        <ele>90</ele>
        <time>2013-08-05T19:11:35.000Z</time>
      </trkpt>
      <trkpt lat="48.83267" lon="2.3511">
        <ele>89.4</ele>
        <time>2013-08-05T19:11:36.000Z</time>
      </trkpt>
      <trkpt lat="48.83263" lon="2.35106">
        <ele>89.7</ele>
        <time>2013-08-05T19:11:37.000Z</time>
      </trkpt>
      <trkpt lat="48.8326" lon="2.35101">
        <ele>89.2</ele>
        <time>2013-08-05T19:11:38.000Z</time>
      </trkpt>
      <trkpt lat="48.83256" lon="2.35097">
        <ele>88.5</ele>
        <time>2013-08-05T19:11:39.000Z</time>
      </trkpt>
      <trkpt lat="48.83252" lon="2.35092">
        <ele>87.9</ele>
        <time>2013-08-05T19:11:40.000Z</time>
      </trkpt>
      <trkpt lat="48.83249" lon="2.35088">
        <ele>87.7</ele>
        <time>2013-08-05T19:11:41.000Z</time>
      </trkpt>
      <trkpt lat="48.83247" lon="2.35082">
        <ele>89.1</ele>
        <time>2013-08-05T19:11:42.000Z</time>
      </trkpt>
      <trkpt lat="48.83245" lon="2.35076">
        <ele>88.8</ele>
        <time>2013-08-05T19:11:43.000Z</time>
      </trkpt>
      <trkpt lat="48.83243" lon="2.35071">
        <ele>89.2</ele>
        <time>2013-08-05T19:11:44.000Z</time>
      </trkpt>
      <trkpt lat="48.83241" lon="2.35065">
        <ele>89.8</ele>
        <time>2013-08-05T19:11:45.000Z</time>
      </trkpt>
      <trkpt lat="48.83239" lon="2.35061">
        <ele>88.4</ele>
        <time>2013-08-05T19:11:46.000Z</time>
      </trkpt>
      <trkpt lat="48.83237" lon="2.35056">
        <ele>88.6</ele>
        <time>2013-08-05T19:11:47.000Z</time>
      </trkpt>
      <trkpt lat="48.83235" lon="2.35053">
        <ele>88.8</ele>
        <time>2013-08-05T19:11:48.000Z</time>
      </trkpt>
      <trkpt lat="48.83233" lon="2.35049">
        <ele>88.5</ele>
        <time>2013-08-05T19:11:49.000Z</time>
      </trkpt>
      <trkpt lat="48.83231" lon="2.35045">
        <ele>88.4</ele>
        <time>2013-08-05T19:11:50.000Z</time>
      </trkpt>
      <trkpt lat="48.83229" lon="2.35042">
        <ele>88.9</ele>
        <time>2013-08-05T19:11:51.000Z</time>
      </trkpt>
      <trkpt lat="48.83225" lon="2.35036">
        <ele>88.9</ele>
        <time>2013-08-05T19:11:52.825Z</time>
      </trkpt>
      <trkpt lat="48.83223" lon="2.35031">
        <ele>89.4</ele>
        <time>2013-08-05T19:11:54.000Z</time>
      </trkpt>
      <trkpt lat="48.8322" lon="2.35027">
        <ele>88.9</ele>
        <time>2013-08-05T19:11:55.000Z</time>
      </trkpt>
      <trkpt lat="48.83217" lon="2.35023">
        <ele>89</ele>
        <time>2013-08-05T19:11:56.000Z</time>
      </trkpt>
      <trkpt lat="48.83213" lon="2.35019">
        <ele>89.8</ele>
        <time>2013-08-05T19:11:57.000Z</time>
      </trkpt>
      <trkpt lat="48.8321" lon="2.35016">
        <ele>89.4</ele>
        <time>2013-08-05T19:11:58.000Z</time>
      </trkpt>
      <trkpt lat="48.83208" lon="2.35012">
        <ele>89.4</ele>
        <time>2013-08-05T19:11:59.000Z</time>
      </trkpt>
      <trkpt lat="48.83206" lon="2.35009">
        <ele>90.1</ele>
        <time>2013-08-05T19:12:00.000Z</time>
      </trkpt>
      <trkpt lat="48.83203" lon="2.35009">
        <ele>86.1</ele>
        <time>2013-08-05T19:12:01.000Z</time>
      </trkpt>
      <trkpt lat="48.832" lon="2.35011">
        <ele>89.9</ele>
        <time>2013-08-05T19:12:03.000Z</time>
      </trkpt>
      <trkpt lat="48.83198" lon="2.35012">
        <ele>91</ele>
        <time>2013-08-05T19:12:04.000Z</time>
      </trkpt>
      <trkpt lat="48.83195" lon="2.35015">
        <ele>90.1</ele>
        <time>2013-08-05T19:12:06.000Z</time>
      </trkpt>
      <trkpt lat="48.83193" lon="2.35017">
        <ele>91</ele>
        <time>2013-08-05T19:12:07.000Z</time>
      </trkpt>
      <trkpt lat="48.83191" lon="2.3502">
        <ele>90.6</ele>
        <time>2013-08-05T19:12:08.000Z</time>
      </trkpt>
      <trkpt lat="48.83189" lon="2.35023">
        <ele>89.5</ele>
        <time>2013-08-05T19:12:09.000Z</time>
      </trkpt>
      <trkpt lat="48.83186" lon="2.35027">
        <ele>90.3</ele>
        <time>2013-08-05T19:12:10.000Z</time>
      </trkpt>
      <trkpt lat="48.83184" lon="2.3503">
        <ele>90</ele>
        <time>2013-08-05T19:12:11.000Z</time>
      </trkpt>
      <trkpt lat="48.83182" lon="2.35033">
        <ele>90.8</ele>
        <time>2013-08-05T19:12:12.000Z</time>
      </trkpt>
      <trkpt lat="48.83181" lon="2.35036">
        <ele>91.3</ele>
        <time>2013-08-05T19:12:13.000Z</time>
      </trkpt>
      <trkpt lat="48.83178" lon="2.35041">
        <ele>91.6</ele>
        <time>2013-08-05T19:12:15.000Z</time>
      </trkpt>
      <trkpt lat="48.83177" lon="2.35043">
        <ele>91.8</ele>
        <time>2013-08-05T19:12:16.000Z</time>
      </trkpt>
      <trkpt lat="48.83174" lon="2.35048">
        <ele>90.7</ele>
        <time>2013-08-05T19:12:18.000Z</time>
      </trkpt>
      <trkpt lat="48.83173" lon="2.3505">
        <ele>90.9</ele>
        <time>2013-08-05T19:12:19.000Z</time>
      </trkpt>
      <trkpt lat="48.83173" lon="2.35056">
        <ele>89.7</ele>
        <time>2013-08-05T19:12:21.000Z</time>
      </trkpt>
      <trkpt lat="48.83173" lon="2.35059">
        <ele>88.6</ele>
        <time>2013-08-05T19:12:22.000Z</time>
      </trkpt>
      <trkpt lat="48.83174" lon="2.35064">
        <ele>86.8</ele>
        <time>2013-08-05T19:12:24.000Z</time>
      </trkpt>
      <trkpt lat="48.83174" lon="2.35068">
        <ele>86.6</ele>
        <time>2013-08-05T19:12:25.000Z</time>
      </trkpt>
      <trkpt lat="48.83174" lon="2.35071">
        <ele>86.5</ele>
        <time>2013-08-05T19:12:26.000Z</time>
      </trkpt>
      <trkpt lat="48.83175" lon="2.35075">
        <ele>86.6</ele>
        <time>2013-08-05T19:12:27.000Z</time>
      </trkpt>
      <trkpt lat="48.83177" lon="2.35079">
        <ele>86.7</ele>
        <time>2013-08-05T19:12:28.000Z</time>
      </trkpt>
      <trkpt lat="48.83179" lon="2.35082">
        <ele>86.7</ele>
        <time>2013-08-05T19:12:29.000Z</time>
      </trkpt>
      <trkpt lat="48.83181" lon="2.35086">
        <ele>83.9</ele>
        <time>2013-08-05T19:12:30.000Z</time>
      </trkpt>
      <trkpt lat="48.83183" lon="2.35089">
        <ele>86.1</ele>
        <time>2013-08-05T19:12:31.000Z</time>
      </trkpt>
      <trkpt lat="48.83184" lon="2.35092">
        <ele>87.2</ele>
        <time>2013-08-05T19:12:32.000Z</time>
      </trkpt>
      <trkpt lat="48.83186" lon="2.35095">
        <ele>87.1</ele>
        <time>2013-08-05T19:12:33.000Z</time>
      </trkpt>
      <trkpt lat="48.83188" lon="2.35098">
        <ele>87.4</ele>
        <time>2013-08-05T19:12:35.000Z</time>
      </trkpt>
      <trkpt lat="48.83189" lon="2.351">
        <ele>87.3</ele>
        <time>2013-08-05T19:12:36.000Z</time>
      </trkpt>
      <trkpt lat="48.83191" lon="2.35105">
        <ele>86</ele>
        <time>2013-08-05T19:12:39.000Z</time>
      </trkpt>
      <trkpt lat="48.83192" lon="2.35107">
        <ele>86.9</ele>
        <time>2013-08-05T19:12:40.000Z</time>
      </trkpt>
      <trkpt lat="48.83194" lon="2.35112">
        <ele>85.4</ele>
        <time>2013-08-05T19:12:42.000Z</time>
      </trkpt>
      <trkpt lat="48.83195" lon="2.35115">
        <ele>85.7</ele>
        <time>2013-08-05T19:12:43.000Z</time>
      </trkpt>
      <trkpt lat="48.83196" lon="2.35121">
        <ele>86.9</ele>
        <time>2013-08-05T19:12:45.000Z</time>
      </trkpt>
      <trkpt lat="48.83196" lon="2.35124">
        <ele>87.1</ele>
        <time>2013-08-05T19:12:46.000Z</time>
      </trkpt>
      <trkpt lat="48.83197" lon="2.35127">
        <ele>88.3</ele>
        <time>2013-08-05T19:12:47.000Z</time>
      </trkpt>
      <trkpt lat="48.83199" lon="2.35132">
        <ele>89.1</ele>
        <time>2013-08-05T19:12:48.000Z</time>
      </trkpt>
      <trkpt lat="48.832" lon="2.35136">
        <ele>89.2</ele>
        <time>2013-08-05T19:12:49.000Z</time>
      </trkpt>
      <trkpt lat="48.83201" lon="2.3514">
        <ele>89</ele>
        <time>2013-08-05T19:12:50.000Z</time>
      </trkpt>
      <trkpt lat="48.83203" lon="2.35144">
        <ele>89.1</ele>
        <time>2013-08-05T19:12:51.000Z</time>
      </trkpt>
      <trkpt lat="48.83206" lon="2.35154">
        <ele>88.9</ele>
        <time>2013-08-05T19:12:54.000Z</time>
      </trkpt>
      <trkpt lat="48.83208" lon="2.35157">
        <ele>89.2</ele>
        <time>2013-08-05T19:12:55.000Z</time>
      </trkpt>
      <trkpt lat="48.83209" lon="2.3516">
        <ele>89</ele>
        <time>2013-08-05T19:12:56.000Z</time>
      </trkpt>
      <trkpt lat="48.83212" lon="2.35165">
        <ele>89.8</ele>
        <time>2013-08-05T19:12:58.000Z</time>
      </trkpt>
      <trkpt lat="48.83212" lon="2.35168">
        <ele>90</ele>
        <time>2013-08-05T19:12:59.000Z</time>
      </trkpt>
      <trkpt lat="48.83211" lon="2.35174">
        <ele>90.4</ele>
        <time>2013-08-05T19:13:01.000Z</time>
      </trkpt>
      <trkpt lat="48.83209" lon="2.35177">
        <ele>90.6</ele>
        <time>2013-08-05T19:13:02.000Z</time>
      </trkpt>
      <trkpt lat="48.83207" lon="2.35182">
        <ele>89.8</ele>
        <time>2013-08-05T19:13:03.000Z</time>
      </trkpt>
      <trkpt lat="48.83205" lon="2.35186">
        <ele>89.6</ele>
        <time>2013-08-05T19:13:04.000Z</time>
      </trkpt>
      <trkpt lat="48.83202" lon="2.3519">
        <ele>89.4</ele>
        <time>2013-08-05T19:13:05.000Z</time>
      </trkpt>
      <trkpt lat="48.832" lon="2.35194">
        <ele>89.5</ele>
        <time>2013-08-05T19:13:06.000Z</time>
      </trkpt>
      <trkpt lat="48.83198" lon="2.35199">
        <ele>90.3</ele>
        <time>2013-08-05T19:13:07.000Z</time>
      </trkpt>
      <trkpt lat="48.83196" lon="2.35203">
        <ele>89.8</ele>
        <time>2013-08-05T19:13:08.000Z</time>
      </trkpt>
      <trkpt lat="48.83194" lon="2.35207">
        <ele>89</ele>
        <time>2013-08-05T19:13:09.000Z</time>
      </trkpt>
      <trkpt lat="48.83192" lon="2.3521">
        <ele>88.2</ele>
        <time>2013-08-05T19:13:10.000Z</time>
      </trkpt>
      <trkpt lat="48.83191" lon="2.35214">
        <ele>88.2</ele>
        <time>2013-08-05T19:13:11.000Z</time>
      </trkpt>
      <trkpt lat="48.83189" lon="2.35218">
        <ele>87.3</ele>
        <time>2013-08-05T19:13:12.000Z</time>
      </trkpt>
      <trkpt lat="48.83187" lon="2.35221">
        <ele>88</ele>
        <time>2013-08-05T19:13:13.000Z</time>
      </trkpt>
      <trkpt lat="48.83185" lon="2.35224">
        <ele>89.7</ele>
        <time>2013-08-05T19:13:14.000Z</time>
      </trkpt>
      <trkpt lat="48.83183" lon="2.35227">
        <ele>89.6</ele>
        <time>2013-08-05T19:13:15.000Z</time>
      </trkpt>
      <trkpt lat="48.83181" lon="2.3523">
        <ele>90.1</ele>
        <time>2013-08-05T19:13:16.000Z</time>
      </trkpt>
      <trkpt lat="48.8318" lon="2.35233">
        <ele>90.8</ele>
        <time>2013-08-05T19:13:17.000Z</time>
      </trkpt>
      <trkpt lat="48.83178" lon="2.35236">
        <ele>91.5</ele>
        <time>2013-08-05T19:13:18.000Z</time>
      </trkpt>
      <trkpt lat="48.83176" lon="2.3524">
        <ele>91.2</ele>
        <time>2013-08-05T19:13:20.000Z</time>
      </trkpt>
      <trkpt lat="48.83174" lon="2.35243">
        <ele>90.9</ele>
        <time>2013-08-05T19:13:21.000Z</time>
      </trkpt>
      <trkpt lat="48.83173" lon="2.35248">
        <ele>91.4</ele>
        <time>2013-08-05T19:13:23.000Z</time>
      </trkpt>
      <trkpt lat="48.83172" lon="2.35251">
        <ele>92</ele>
        <time>2013-08-05T19:13:24.000Z</time>
      </trkpt>
      <trkpt lat="48.83173" lon="2.35257">
        <ele>93.5</ele>
        <time>2013-08-05T19:13:29.000Z</time>
      </trkpt>
      <trkpt lat="48.83173" lon="2.35258">
        <ele>93.3</ele>
        <time>2013-08-05T19:13:30.000Z</time>
      </trkpt>
      <trkpt lat="48.83174" lon="2.35265">
        <ele>95.4</ele>
        <time>2013-08-05T19:13:42.000Z</time>
      </trkpt>
      <trkpt lat="48.83174" lon="2.35265">
        <ele>96.1</ele>
        <time>2013-08-05T19:13:43.000Z</time>
      </trkpt>
      <trkpt lat="48.83171" lon="2.3527">
        <ele>98.3</ele>
        <time>2013-08-05T19:14:13.000Z</time>
      </trkpt>
      <trkpt lat="48.83168" lon="2.35271">
        <ele>99.2</ele>
        <time>2013-08-05T19:14:14.000Z</time>
      </trkpt>
      <trkpt lat="48.83166" lon="2.35272">
        <ele>102.8</ele>
        <time>2013-08-05T19:14:15.000Z</time>
      </trkpt>
      <trkpt lat="48.83164" lon="2.35273">
        <ele>103.1</ele>
        <time>2013-08-05T19:14:16.000Z</time>
      </trkpt>
      <trkpt lat="48.83161" lon="2.35274">
        <ele>104.5</ele>
        <time>2013-08-05T19:14:17.000Z</time>
      </trkpt>
      <trkpt lat="48.83158" lon="2.35275">
        <ele>106.4</ele>
        <time>2013-08-05T19:14:18.000Z</time>
      </trkpt>
      <trkpt lat="48.83155" lon="2.35276">
        <ele>107</ele>
        <time>2013-08-05T19:14:19.000Z</time>
      </trkpt>
      <trkpt lat="48.83151" lon="2.35276">
        <ele>108.5</ele>
        <time>2013-08-05T19:14:20.000Z</time>
      </trkpt>
      <trkpt lat="48.83148" lon="2.35277">
        <ele>109.1</ele>
        <time>2013-08-05T19:14:21.000Z</time>
      </trkpt>
      <trkpt lat="48.83144" lon="2.35277">
        <ele>108.9</ele>
        <time>2013-08-05T19:14:22.000Z</time>
      </trkpt>
      <trkpt lat="48.8314" lon="2.35277">
        <ele>107.8</ele>
        <time>2013-08-05T19:14:23.000Z</time>
      </trkpt>
      <trkpt lat="48.83137" lon="2.35277">
        <ele>107.2</ele>
        <time>2013-08-05T19:14:24.000Z</time>
      </trkpt>
      <trkpt lat="48.83134" lon="2.35277">
        <ele>106.5</ele>
        <time>2013-08-05T19:14:25.000Z</time>
      </trkpt>
      <trkpt lat="48.83129" lon="2.35277">
        <ele>106.2</ele>
        <time>2013-08-05T19:14:26.000Z</time>
      </trkpt>
      <trkpt lat="48.83125" lon="2.35276">
        <ele>106.6</ele>
        <time>2013-08-05T19:14:27.000Z</time>
      </trkpt>
      <trkpt lat="48.83121" lon="2.35275">
        <ele>105.7</ele>
        <time>2013-08-05T19:14:28.000Z</time>
      </trkpt>
      <trkpt lat="48.83118" lon="2.35274">
        <ele>106.1</ele>
        <time>2013-08-05T19:14:29.000Z</time>
      </trkpt>
      <trkpt lat="48.83115" lon="2.35273">
        <ele>106</ele>
        <time>2013-08-05T19:14:30.000Z</time>
      </trkpt>
      <trkpt lat="48.83111" lon="2.35273">
        <ele>104</ele>
        <time>2013-08-05T19:14:31.000Z</time>
      </trkpt>
      <trkpt lat="48.83108" lon="2.35273">
        <ele>102.9</ele>
        <time>2013-08-05T19:14:32.000Z</time>
      </trkpt>
      <trkpt lat="48.83105" lon="2.35273">
        <ele>102.5</ele>
        <time>2013-08-05T19:14:33.000Z</time>
      </trkpt>
      <trkpt lat="48.83102" lon="2.35272">
        <ele>103</ele>
        <time>2013-08-05T19:14:34.000Z</time>
      </trkpt>
      <trkpt lat="48.83098" lon="2.35272">
        <ele>104.7</ele>
        <time>2013-08-05T19:14:35.000Z</time>
      </trkpt>
      <trkpt lat="48.83095" lon="2.35271">
        <ele>103.2</ele>
        <time>2013-08-05T19:14:36.000Z</time>
      </trkpt>
      <trkpt lat="48.83091" lon="2.35271">
        <ele>102.2</ele>
        <time>2013-08-05T19:14:37.000Z</time>
      </trkpt>
      <trkpt lat="48.83088" lon="2.35271">
        <ele>102.8</ele>
        <time>2013-08-05T19:14:38.000Z</time>
      </trkpt>
      <trkpt lat="48.83085" lon="2.35271">
        <ele>102.2</ele>
        <time>2013-08-05T19:14:39.000Z</time>
      </trkpt>
      <trkpt lat="48.83082" lon="2.35272">
        <ele>103</ele>
        <time>2013-08-05T19:14:40.000Z</time>
      </trkpt>
      <trkpt lat="48.8308" lon="2.35272">
        <ele>103.1</ele>
        <time>2013-08-05T19:14:41.000Z</time>
      </trkpt>
      <trkpt lat="48.83077" lon="2.35273">
        <ele>103.1</ele>
        <time>2013-08-05T19:14:42.000Z</time>
      </trkpt>
      <trkpt lat="48.83074" lon="2.35273">
        <ele>104.4</ele>
        <time>2013-08-05T19:14:43.000Z</time>
      </trkpt>
      <trkpt lat="48.83071" lon="2.35273">
        <ele>103.7</ele>
        <time>2013-08-05T19:14:44.000Z</time>
      </trkpt>
      <trkpt lat="48.83068" lon="2.35272">
        <ele>104.3</ele>
        <time>2013-08-05T19:14:45.000Z</time>
      </trkpt>
      <trkpt lat="48.83065" lon="2.35272">
        <ele>104.1</ele>
        <time>2013-08-05T19:14:46.000Z</time>
      </trkpt>
      <trkpt lat="48.83061" lon="2.3527">
        <ele>105.6</ele>
        <time>2013-08-05T19:14:47.000Z</time>
      </trkpt>
      <trkpt lat="48.83058" lon="2.35269">
        <ele>105.9</ele>
        <time>2013-08-05T19:14:48.000Z</time>
      </trkpt>
      <trkpt lat="48.83055" lon="2.35269">
        <ele>106.7</ele>
        <time>2013-08-05T19:14:49.000Z</time>
      </trkpt>
      <trkpt lat="48.83052" lon="2.3527">
        <ele>106</ele>
        <time>2013-08-05T19:14:50.000Z</time>
      </trkpt>
      <trkpt lat="48.83049" lon="2.35271">
        <ele>107</ele>
        <time>2013-08-05T19:14:51.000Z</time>
      </trkpt>
      <trkpt lat="48.83043" lon="2.35273">
        <ele>107.6</ele>
        <time>2013-08-05T19:14:53.215Z</time>
      </trkpt>
      <trkpt lat="48.83041" lon="2.35274">
        <ele>107.5</ele>
        <time>2013-08-05T19:14:54.000Z</time>
      </trkpt>
      <trkpt lat="48.83038" lon="2.35275">
        <ele>107.2</ele>
        <time>2013-08-05T19:14:55.000Z</time>
      </trkpt>
      <trkpt lat="48.83035" lon="2.35275">
        <ele>106.5</ele>
        <time>2013-08-05T19:14:56.000Z</time>
      </trkpt>
      <trkpt lat="48.83033" lon="2.35276">
        <ele>106.1</ele>
        <time>2013-08-05T19:14:57.000Z</time>
      </trkpt>
      <trkpt lat="48.83028" lon="2.35276">
        <ele>106.5</ele>
        <time>2013-08-05T19:15:10.000Z</time>
      </trkpt>
      <trkpt lat="48.83027" lon="2.35276">
        <ele>106.1</ele>
        <time>2013-08-05T19:15:11.000Z</time>
      </trkpt>
      <trkpt lat="48.83024" lon="2.35277">
        <ele>105.6</ele>
        <time>2013-08-05T19:15:12.000Z</time>
      </trkpt>
      <trkpt lat="48.83021" lon="2.35278">
        <ele>106.2</ele>
        <time>2013-08-05T19:15:13.000Z</time>
      </trkpt>
      <trkpt lat="48.83017" lon="2.35278">
        <ele>105.2</ele>
        <time>2013-08-05T19:15:14.000Z</time>
      </trkpt>
      <trkpt lat="48.83014" lon="2.35278">
        <ele>105</ele>
        <time>2013-08-05T19:15:15.000Z</time>
      </trkpt>
      <trkpt lat="48.8301" lon="2.35277">
        <ele>105.3</ele>
        <time>2013-08-05T19:15:16.000Z</time>
      </trkpt>
      <trkpt lat="48.83007" lon="2.35277">
        <ele>105.2</ele>
        <time>2013-08-05T19:15:17.000Z</time>
      </trkpt>
      <trkpt lat="48.83003" lon="2.35276">
        <ele>103.6</ele>
        <time>2013-08-05T19:15:18.000Z</time>
      </trkpt>
      <trkpt lat="48.83" lon="2.35276">
        <ele>103.3</ele>
        <time>2013-08-05T19:15:19.000Z</time>
      </trkpt>
      <trkpt lat="48.82997" lon="2.35276">
        <ele>103</ele>
        <time>2013-08-05T19:15:20.000Z</time>
      </trkpt>
      <trkpt lat="48.82994" lon="2.35276">
        <ele>103.6</ele>
        <time>2013-08-05T19:15:21.000Z</time>
      </trkpt>
      <trkpt lat="48.8299" lon="2.35277">
        <ele>104.7</ele>
        <time>2013-08-05T19:15:22.000Z</time>
      </trkpt>
      <trkpt lat="48.82987" lon="2.35278">
        <ele>103.6</ele>
        <time>2013-08-05T19:15:23.000Z</time>
      </trkpt>
      <trkpt lat="48.82984" lon="2.35279">
        <ele>103.1</ele>
        <time>2013-08-05T19:15:24.000Z</time>
      </trkpt>
      <trkpt lat="48.8298" lon="2.3528">
        <ele>104.3</ele>
        <time>2013-08-05T19:15:25.000Z</time>
      </trkpt>
      <trkpt lat="48.82977" lon="2.35281">
        <ele>104.7</ele>
        <time>2013-08-05T19:15:26.000Z</time>
      </trkpt>
      <trkpt lat="48.82974" lon="2.35283">
        <ele>105</ele>
        <time>2013-08-05T19:15:27.000Z</time>
      </trkpt>
      <trkpt lat="48.82971" lon="2.35284">
        <ele>106.4</ele>
        <time>2013-08-05T19:15:28.000Z</time>
      </trkpt>
      <trkpt lat="48.82967" lon="2.35285">
        <ele>107</ele>
        <time>2013-08-05T19:15:29.000Z</time>
      </trkpt>
      <trkpt lat="48.82964" lon="2.35285">
        <ele>108.2</ele>
        <time>2013-08-05T19:15:30.000Z</time>
      </trkpt>
      <trkpt lat="48.82961" lon="2.35286">
        <ele>110.7</ele>
        <time>2013-08-05T19:15:31.000Z</time>
      </trkpt>
      <trkpt lat="48.82957" lon="2.35286">
        <ele>112.6</ele>
        <time>2013-08-05T19:15:32.000Z</time>
      </trkpt>
      <trkpt lat="48.82954" lon="2.35286">
        <ele>112.5</ele>
        <time>2013-08-05T19:15:33.000Z</time>
      </trkpt>
      <trkpt lat="48.82951" lon="2.35286">
        <ele>112.3</ele>
        <time>2013-08-05T19:15:34.000Z</time>
      </trkpt>
      <trkpt lat="48.82948" lon="2.35287">
        <ele>112.7</ele>
        <time>2013-08-05T19:15:35.000Z</time>
      </trkpt>
      <trkpt lat="48.82945" lon="2.35288">
        <ele>113.8</ele>
        <time>2013-08-05T19:15:36.000Z</time>
      </trkpt>
      <trkpt lat="48.82941" lon="2.35289">
        <ele>115.5</ele>
        <time>2013-08-05T19:15:37.000Z</time>
      </trkpt>
      <trkpt lat="48.82938" lon="2.3529">
        <ele>116.4</ele>
        <time>2013-08-05T19:15:38.000Z</time>
      </trkpt>
      <trkpt lat="48.82934" lon="2.3529">
        <ele>118.6</ele>
        <time>2013-08-05T19:15:39.000Z</time>
      </trkpt>
      <trkpt lat="48.8293" lon="2.35291">
        <ele>118.7</ele>
        <time>2013-08-05T19:15:40.000Z</time>
      </trkpt>
      <trkpt lat="48.82926" lon="2.35291">
        <ele>118.4</ele>
        <time>2013-08-05T19:15:41.000Z</time>
      </trkpt>
      <trkpt lat="48.82921" lon="2.35292">
        <ele>118.8</ele>
        <time>2013-08-05T19:15:42.000Z</time>
      </trkpt>
      <trkpt lat="48.82916" lon="2.35292">
        <ele>121.2</ele>
        <time>2013-08-05T19:15:43.000Z</time>
      </trkpt>
      <trkpt lat="48.82911" lon="2.35292">
        <ele>121.9</ele>
        <time>2013-08-05T19:15:44.000Z</time>
      </trkpt>
      <trkpt lat="48.82906" lon="2.35292">
        <ele>121</ele>
        <time>2013-08-05T19:15:45.000Z</time>
      </trkpt>
      <trkpt lat="48.82902" lon="2.35292">
        <ele>121.5</ele>
        <time>2013-08-05T19:15:46.000Z</time>
      </trkpt>
      <trkpt lat="48.82898" lon="2.35291">
        <ele>121.5</ele>
        <time>2013-08-05T19:15:47.000Z</time>
      </trkpt>
      <trkpt lat="48.82894" lon="2.3529">
        <ele>121.2</ele>
        <time>2013-08-05T19:15:48.000Z</time>
      </trkpt>
      <trkpt lat="48.8289" lon="2.3529">
        <ele>120.4</ele>
        <time>2013-08-05T19:15:49.000Z</time>
      </trkpt>
      <trkpt lat="48.82887" lon="2.35289">
        <ele>120.4</ele>
        <time>2013-08-05T19:15:50.000Z</time>
      </trkpt>
      <trkpt lat="48.82883" lon="2.35289">
        <ele>120.1</ele>
        <time>2013-08-05T19:15:51.000Z</time>
      </trkpt>
      <trkpt lat="48.82878" lon="2.35289">
        <ele>120.1</ele>
        <time>2013-08-05T19:15:52.768Z</time>
      </trkpt>
      <trkpt lat="48.82875" lon="2.35289">
        <ele>120.5</ele>
        <time>2013-08-05T19:15:54.000Z</time>
      </trkpt>
      <trkpt lat="48.82872" lon="2.35289">
        <ele>120.6</ele>
        <time>2013-08-05T19:15:55.000Z</time>
      </trkpt>
      <trkpt lat="48.82868" lon="2.35289">
        <ele>122</ele>
        <time>2013-08-05T19:15:56.000Z</time>
      </trkpt>
      <trkpt lat="48.82865" lon="2.35288">
        <ele>121.5</ele>
        <time>2013-08-05T19:15:57.000Z</time>
      </trkpt>
      <trkpt lat="48.82861" lon="2.35288">
        <ele>120</ele>
        <time>2013-08-05T19:15:58.000Z</time>
      </trkpt>
      <trkpt lat="48.82858" lon="2.35287">
        <ele>119.2</ele>
        <time>2013-08-05T19:15:59.000Z</time>
      </trkpt>
      <trkpt lat="48.82854" lon="2.35287">
        <ele>118.2</ele>
        <time>2013-08-05T19:16:00.000Z</time>
      </trkpt>
      <trkpt lat="48.82851" lon="2.35288">
        <ele>119.6</ele>
        <time>2013-08-05T19:16:01.000Z</time>
      </trkpt>
      <trkpt lat="48.82847" lon="2.35289">
        <ele>120.5</ele>
        <time>2013-08-05T19:16:02.000Z</time>
      </trkpt>
      <trkpt lat="48.82844" lon="2.3529">
        <ele>120.1</ele>
        <time>2013-08-05T19:16:03.000Z</time>
      </trkpt>
      <trkpt lat="48.82841" lon="2.3529">
        <ele>120.5</ele>
        <time>2013-08-05T19:16:04.000Z</time>
      </trkpt>
      <trkpt lat="48.82838" lon="2.3529">
        <ele>120.2</ele>
        <time>2013-08-05T19:16:05.000Z</time>
      </trkpt>
      <trkpt lat="48.82835" lon="2.3529">
        <ele>119.6</ele>
        <time>2013-08-05T19:16:06.000Z</time>
      </trkpt>
      <trkpt lat="48.82832" lon="2.35289">
        <ele>119.6</ele>
        <time>2013-08-05T19:16:07.000Z</time>
      </trkpt>
      <trkpt lat="48.82829" lon="2.35288">
        <ele>120</ele>
        <time>2013-08-05T19:16:08.000Z</time>
      </trkpt>
      <trkpt lat="48.82826" lon="2.35287">
        <ele>119.6</ele>
        <time>2013-08-05T19:16:09.000Z</time>
      </trkpt>
      <trkpt lat="48.82823" lon="2.35286">
        <ele>120.4</ele>
        <time>2013-08-05T19:16:10.000Z</time>
      </trkpt>
      <trkpt lat="48.8282" lon="2.35284">
        <ele>120.1</ele>
        <time>2013-08-05T19:16:11.000Z</time>
      </trkpt>
      <trkpt lat="48.82817" lon="2.35281">
        <ele>118.5</ele>
        <time>2013-08-05T19:16:12.000Z</time>
      </trkpt>
      <trkpt lat="48.82814" lon="2.35279">
        <ele>117.6</ele>
        <time>2013-08-05T19:16:13.000Z</time>
      </trkpt>
      <trkpt lat="48.82812" lon="2.35276">
        <ele>116.6</ele>
        <time>2013-08-05T19:16:14.000Z</time>
      </trkpt>
      <trkpt lat="48.8281" lon="2.35274">
        <ele>116.5</ele>
        <time>2013-08-05T19:16:15.000Z</time>
      </trkpt>
      <trkpt lat="48.82808" lon="2.35271">
        <ele>116.5</ele>
        <time>2013-08-05T19:16:17.000Z</time>
      </trkpt>
      <trkpt lat="48.82806" lon="2.3527">
        <ele>117.8</ele>
        <time>2013-08-05T19:16:18.000Z</time>
      </trkpt>
      <trkpt lat="48.82803" lon="2.35267">
        <ele>117.5</ele>
        <time>2013-08-05T19:16:21.000Z</time>
      </trkpt>
      <trkpt lat="48.82802" lon="2.35267">
        <ele>119.6</ele>
        <time>2013-08-05T19:16:22.000Z</time>
      </trkpt>
      <trkpt lat="48.82798" lon="2.35271">
        <ele>121.2</ele>
        <time>2013-08-05T19:16:26.000Z</time>
      </trkpt>
      <trkpt lat="48.82798" lon="2.35273">
        <ele>122</ele>
        <time>2013-08-05T19:16:27.000Z</time>
      </trkpt>
      <trkpt lat="48.82796" lon="2.35273">
        <ele>116.8</ele>
        <time>2013-08-05T19:18:36.000Z</time>
      </trkpt>
      <trkpt lat="48.82793" lon="2.35273">
        <ele>116.1</ele>
        <time>2013-08-05T19:18:37.000Z</time>
      </trkpt>
      <trkpt lat="48.8279" lon="2.35274">
        <ele>115.5</ele>
        <time>2013-08-05T19:18:38.000Z</time>
      </trkpt>
      <trkpt lat="48.82787" lon="2.35276">
        <ele>115.5</ele>
        <time>2013-08-05T19:18:39.000Z</time>
      </trkpt>
      <trkpt lat="48.82784" lon="2.35278">
        <ele>116.6</ele>
        <time>2013-08-05T19:18:40.000Z</time>
      </trkpt>
      <trkpt lat="48.82779" lon="2.35281">
        <ele>115.3</ele>
        <time>2013-08-05T19:18:41.000Z</time>
      </trkpt>
      <trkpt lat="48.82773" lon="2.35284">
        <ele>115.6</ele>
        <time>2013-08-05T19:18:42.000Z</time>
      </trkpt>
      <trkpt lat="48.82762" lon="2.35289">
        <ele>116.4</ele>
        <time>2013-08-05T19:18:43.000Z</time>
      </trkpt>
      <trkpt lat="48.82757" lon="2.35293">
        <ele>116.2</ele>
        <time>2013-08-05T19:18:44.000Z</time>
      </trkpt>
      <trkpt lat="48.82752" lon="2.35296">
        <ele>115.8</ele>
        <time>2013-08-05T19:18:45.000Z</time>
      </trkpt>
      <trkpt lat="48.82746" lon="2.35298">
        <ele>114.1</ele>
        <time>2013-08-05T19:18:46.000Z</time>
      </trkpt>
      <trkpt lat="48.8274" lon="2.35301">
        <ele>113.9</ele>
        <time>2013-08-05T19:18:47.000Z</time>
      </trkpt>
      <trkpt lat="48.82735" lon="2.35303">
        <ele>113.8</ele>
        <time>2013-08-05T19:18:48.000Z</time>
      </trkpt>
      <trkpt lat="48.82731" lon="2.35307">
        <ele>113</ele>
        <time>2013-08-05T19:18:49.000Z</time>
      </trkpt>
      <trkpt lat="48.82727" lon="2.35311">
        <ele>113.4</ele>
        <time>2013-08-05T19:18:50.000Z</time>
      </trkpt>
      <trkpt lat="48.82723" lon="2.35316">
        <ele>111.1</ele>
        <time>2013-08-05T19:18:51.000Z</time>
      </trkpt>
      <trkpt lat="48.82714" lon="2.35324">
        <ele>110</ele>
        <time>2013-08-05T19:18:53.235Z</time>
      </trkpt>
      <trkpt lat="48.82711" lon="2.35327">
        <ele>109.9</ele>
        <time>2013-08-05T19:18:54.000Z</time>
      </trkpt>
      <trkpt lat="48.82707" lon="2.35331">
        <ele>110</ele>
        <time>2013-08-05T19:18:55.000Z</time>
      </trkpt>
      <trkpt lat="48.82704" lon="2.35336">
        <ele>110.6</ele>
        <time>2013-08-05T19:18:56.000Z</time>
      </trkpt>
      <trkpt lat="48.82701" lon="2.35341">
        <ele>110.3</ele>
        <time>2013-08-05T19:18:57.000Z</time>
      </trkpt>
      <trkpt lat="48.82697" lon="2.35344">
        <ele>110.2</ele>
        <time>2013-08-05T19:18:58.000Z</time>
      </trkpt>
      <trkpt lat="48.82694" lon="2.35343">
        <ele>112.4</ele>
        <time>2013-08-05T19:18:59.000Z</time>
      </trkpt>
      <trkpt lat="48.82688" lon="2.35341">
        <ele>113.8</ele>
        <time>2013-08-05T19:19:00.000Z</time>
      </trkpt>
      <trkpt lat="48.82683" lon="2.35343">
        <ele>115.2</ele>
        <time>2013-08-05T19:19:01.000Z</time>
      </trkpt>
      <trkpt lat="48.82677" lon="2.35342">
        <ele>116.5</ele>
        <time>2013-08-05T19:19:02.000Z</time>
      </trkpt>
      <trkpt lat="48.82673" lon="2.35342">
        <ele>118</ele>
        <time>2013-08-05T19:19:03.000Z</time>
      </trkpt>
      <trkpt lat="48.82668" lon="2.35343">
        <ele>118.1</ele>
        <time>2013-08-05T19:19:04.000Z</time>
      </trkpt>
      <trkpt lat="48.82664" lon="2.35344">
        <ele>118.3</ele>
        <time>2013-08-05T19:19:05.000Z</time>
      </trkpt>
      <trkpt lat="48.8266" lon="2.35345">
        <ele>116.9</ele>
        <time>2013-08-05T19:19:06.000Z</time>
      </trkpt>
      <trkpt lat="48.82655" lon="2.35346">
        <ele>116.7</ele>
        <time>2013-08-05T19:19:07.000Z</time>
      </trkpt>
      <trkpt lat="48.8265" lon="2.35347">
        <ele>116.7</ele>
        <time>2013-08-05T19:19:08.000Z</time>
      </trkpt>
      <trkpt lat="48.82646" lon="2.35348">
        <ele>116.5</ele>
        <time>2013-08-05T19:19:09.000Z</time>
      </trkpt>
      <trkpt lat="48.82642" lon="2.35349">
        <ele>114.3</ele>
        <time>2013-08-05T19:19:10.000Z</time>
      </trkpt>
      <trkpt lat="48.82639" lon="2.3535">
        <ele>112.5</ele>
        <time>2013-08-05T19:19:11.000Z</time>
      </trkpt>
      <trkpt lat="48.82635" lon="2.35351">
        <ele>112</ele>
        <time>2013-08-05T19:19:12.000Z</time>
      </trkpt>
      <trkpt lat="48.82631" lon="2.35353">
        <ele>111</ele>
        <time>2013-08-05T19:19:13.000Z</time>
      </trkpt>
      <trkpt lat="48.82628" lon="2.35355">
        <ele>111</ele>
        <time>2013-08-05T19:19:14.000Z</time>
      </trkpt>
      <trkpt lat="48.82624" lon="2.35356">
        <ele>111.1</ele>
        <time>2013-08-05T19:19:15.000Z</time>
      </trkpt>
      <trkpt lat="48.82619" lon="2.35358">
        <ele>109.3</ele>
        <time>2013-08-05T19:19:16.000Z</time>
      </trkpt>
      <trkpt lat="48.82615" lon="2.35359">
        <ele>109.5</ele>
        <time>2013-08-05T19:19:17.000Z</time>
      </trkpt>
      <trkpt lat="48.82611" lon="2.3536">
        <ele>108.4</ele>
        <time>2013-08-05T19:19:18.000Z</time>
      </trkpt>
      <trkpt lat="48.82607" lon="2.35361">
        <ele>108.2</ele>
        <time>2013-08-05T19:19:19.000Z</time>
      </trkpt>
      <trkpt lat="48.82603" lon="2.35361">
        <ele>107.5</ele>
        <time>2013-08-05T19:19:20.000Z</time>
      </trkpt>
      <trkpt lat="48.82599" lon="2.35362">
        <ele>107.5</ele>
        <time>2013-08-05T19:19:21.000Z</time>
      </trkpt>
      <trkpt lat="48.82595" lon="2.35363">
        <ele>107.2</ele>
        <time>2013-08-05T19:19:22.000Z</time>
      </trkpt>
      <trkpt lat="48.82592" lon="2.35364">
        <ele>106.7</ele>
        <time>2013-08-05T19:19:23.000Z</time>
      </trkpt>
      <trkpt lat="48.82589" lon="2.35365">
        <ele>106.9</ele>
        <time>2013-08-05T19:19:24.000Z</time>
      </trkpt>
      <trkpt lat="48.82586" lon="2.35366">
        <ele>106.9</ele>
        <time>2013-08-05T19:19:25.000Z</time>
      </trkpt>
      <trkpt lat="48.82583" lon="2.35368">
        <ele>105.4</ele>
        <time>2013-08-05T19:19:26.000Z</time>
      </trkpt>
      <trkpt lat="48.8258" lon="2.35369">
        <ele>104.6</ele>
        <time>2013-08-05T19:19:27.000Z</time>
      </trkpt>
      <trkpt lat="48.82576" lon="2.35374">
        <ele>106.2</ele>
        <time>2013-08-05T19:19:28.000Z</time>
      </trkpt>
      <trkpt lat="48.82572" lon="2.35378">
        <ele>107.4</ele>
        <time>2013-08-05T19:19:29.000Z</time>
      </trkpt>
      <trkpt lat="48.82568" lon="2.35381">
        <ele>106.3</ele>
        <time>2013-08-05T19:19:30.000Z</time>
      </trkpt>
      <trkpt lat="48.82564" lon="2.35385">
        <ele>105.6</ele>
        <time>2013-08-05T19:19:31.000Z</time>
      </trkpt>
      <trkpt lat="48.82558" lon="2.35391">
        <ele>105.2</ele>
        <time>2013-08-05T19:19:32.000Z</time>
      </trkpt>
      <trkpt lat="48.82555" lon="2.35394">
        <ele>105</ele>
        <time>2013-08-05T19:19:33.000Z</time>
      </trkpt>
      <trkpt lat="48.82551" lon="2.35395">
        <ele>106.2</ele>
        <time>2013-08-05T19:19:34.000Z</time>
      </trkpt>
      <trkpt lat="48.82548" lon="2.35397">
        <ele>105.1</ele>
        <time>2013-08-05T19:19:35.000Z</time>
      </trkpt>
      <trkpt lat="48.82543" lon="2.35396">
        <ele>106.3</ele>
        <time>2013-08-05T19:19:36.000Z</time>
      </trkpt>
      <trkpt lat="48.82539" lon="2.35398">
        <ele>106.8</ele>
        <time>2013-08-05T19:19:37.000Z</time>
      </trkpt>
      <trkpt lat="48.82534" lon="2.35397">
        <ele>105.3</ele>
        <time>2013-08-05T19:19:38.000Z</time>
      </trkpt>
      <trkpt lat="48.8253" lon="2.35395">
        <ele>105.1</ele>
        <time>2013-08-05T19:19:39.000Z</time>
      </trkpt>
      <trkpt lat="48.82526" lon="2.35395">
        <ele>105.3</ele>
        <time>2013-08-05T19:19:40.000Z</time>
      </trkpt>
      <trkpt lat="48.82522" lon="2.35393">
        <ele>106</ele>
        <time>2013-08-05T19:19:41.000Z</time>
      </trkpt>
      <trkpt lat="48.82518" lon="2.35391">
        <ele>105.7</ele>
        <time>2013-08-05T19:19:42.000Z</time>
      </trkpt>
      <trkpt lat="48.82514" lon="2.35388">
        <ele>107.2</ele>
        <time>2013-08-05T19:19:43.000Z</time>
      </trkpt>
      <trkpt lat="48.8251" lon="2.35386">
        <ele>106.5</ele>
        <time>2013-08-05T19:19:44.000Z</time>
      </trkpt>
      <trkpt lat="48.82506" lon="2.35384">
        <ele>104.4</ele>
        <time>2013-08-05T19:19:45.000Z</time>
      </trkpt>
      <trkpt lat="48.82503" lon="2.35383">
        <ele>104</ele>
        <time>2013-08-05T19:19:46.000Z</time>
      </trkpt>
      <trkpt lat="48.82499" lon="2.35381">
        <ele>103.4</ele>
        <time>2013-08-05T19:19:47.000Z</time>
      </trkpt>
      <trkpt lat="48.82495" lon="2.3538">
        <ele>103.6</ele>
        <time>2013-08-05T19:19:48.000Z</time>
      </trkpt>
      <trkpt lat="48.82492" lon="2.35378">
        <ele>103.6</ele>
        <time>2013-08-05T19:19:49.000Z</time>
      </trkpt>
      <trkpt lat="48.82489" lon="2.35377">
        <ele>104.4</ele>
        <time>2013-08-05T19:19:50.000Z</time>
      </trkpt>
      <trkpt lat="48.82486" lon="2.35375">
        <ele>103.8</ele>
        <time>2013-08-05T19:19:51.000Z</time>
      </trkpt>
      <trkpt lat="48.82479" lon="2.35372">
        <ele>103.6</ele>
        <time>2013-08-05T19:19:52.832Z</time>
      </trkpt>
      <trkpt lat="48.82476" lon="2.3537">
        <ele>105.4</ele>
        <time>2013-08-05T19:19:54.000Z</time>
      </trkpt>
      <trkpt lat="48.82472" lon="2.35368">
        <ele>106.3</ele>
        <time>2013-08-05T19:19:55.000Z</time>
      </trkpt>
      <trkpt lat="48.82469" lon="2.35367">
        <ele>106.1</ele>
        <time>2013-08-05T19:19:56.000Z</time>
      </trkpt>
      <trkpt lat="48.82464" lon="2.35366">
        <ele>105.2</ele>
        <time>2013-08-05T19:19:57.000Z</time>
      </trkpt>
      <trkpt lat="48.82455" lon="2.35362">
        <ele>105.8</ele>
        <time>2013-08-05T19:19:58.000Z</time>
      </trkpt>
      <trkpt lat="48.8245" lon="2.35359">
        <ele>106.1</ele>
        <time>2013-08-05T19:19:59.000Z</time>
      </trkpt>
      <trkpt lat="48.82445" lon="2.35356">
        <ele>106.5</ele>
        <time>2013-08-05T19:20:00.000Z</time>
      </trkpt>
      <trkpt lat="48.82439" lon="2.35353">
        <ele>106.1</ele>
        <time>2013-08-05T19:20:01.000Z</time>
      </trkpt>
      <trkpt lat="48.82434" lon="2.35353">
        <ele>106.4</ele>
        <time>2013-08-05T19:20:02.000Z</time>
      </trkpt>
      <trkpt lat="48.82429" lon="2.35351">
        <ele>106.5</ele>
        <time>2013-08-05T19:20:03.000Z</time>
      </trkpt>
      <trkpt lat="48.82425" lon="2.35349">
        <ele>106</ele>
        <time>2013-08-05T19:20:04.000Z</time>
      </trkpt>
      <trkpt lat="48.82423" lon="2.35348">
        <ele>107.4</ele>
        <time>2013-08-05T19:20:05.000Z</time>
      </trkpt>
      <trkpt lat="48.8242" lon="2.35347">
        <ele>108</ele>
        <time>2013-08-05T19:20:06.000Z</time>
      </trkpt>
      <trkpt lat="48.82416" lon="2.35347">
        <ele>108</ele>
        <time>2013-08-05T19:20:07.000Z</time>
      </trkpt>
      <trkpt lat="48.82413" lon="2.35347">
        <ele>107.5</ele>
        <time>2013-08-05T19:20:08.000Z</time>
      </trkpt>
      <trkpt lat="48.82409" lon="2.35343">
        <ele>106.7</ele>
        <time>2013-08-05T19:20:09.000Z</time>
      </trkpt>
      <trkpt lat="48.82407" lon="2.3534">
        <ele>107.2</ele>
        <time>2013-08-05T19:20:10.000Z</time>
      </trkpt>
      <trkpt lat="48.82406" lon="2.35335">
        <ele>107.4</ele>
        <time>2013-08-05T19:20:11.000Z</time>
      </trkpt>
      <trkpt lat="48.82404" lon="2.35331">
        <ele>107.1</ele>
        <time>2013-08-05T19:20:12.000Z</time>
      </trkpt>
      <trkpt lat="48.82402" lon="2.35328">
        <ele>106.4</ele>
        <time>2013-08-05T19:20:13.000Z</time>
      </trkpt>
      <trkpt lat="48.82401" lon="2.35324">
        <ele>105</ele>
        <time>2013-08-05T19:20:14.000Z</time>
      </trkpt>
      <trkpt lat="48.82399" lon="2.3532">
        <ele>103.8</ele>
        <time>2013-08-05T19:20:15.000Z</time>
      </trkpt>
      <trkpt lat="48.82397" lon="2.35316">
        <ele>102</ele>
        <time>2013-08-05T19:20:16.000Z</time>
      </trkpt>
      <trkpt lat="48.82395" lon="2.35313">
        <ele>102.1</ele>
        <time>2013-08-05T19:20:17.000Z</time>
      </trkpt>
      <trkpt lat="48.82391" lon="2.35309">
        <ele>101.4</ele>
        <time>2013-08-05T19:20:18.000Z</time>
      </trkpt>
      <trkpt lat="48.82388" lon="2.35307">
        <ele>100.4</ele>
        <time>2013-08-05T19:20:19.000Z</time>
      </trkpt>
      <trkpt lat="48.82384" lon="2.35306">
        <ele>101.5</ele>
        <time>2013-08-05T19:20:20.000Z</time>
      </trkpt>
      <trkpt lat="48.8238" lon="2.35307">
        <ele>101</ele>
        <time>2013-08-05T19:20:21.000Z</time>
      </trkpt>
      <trkpt lat="48.82377" lon="2.3531">
        <ele>102.8</ele>
        <time>2013-08-05T19:20:22.000Z</time>
      </trkpt>
      <trkpt lat="48.82374" lon="2.35314">
        <ele>101.8</ele>
        <time>2013-08-05T19:20:23.000Z</time>
      </trkpt>
      <trkpt lat="48.82372" lon="2.35319">
        <ele>103.7</ele>
        <time>2013-08-05T19:20:24.000Z</time>
      </trkpt>
      <trkpt lat="48.82371" lon="2.35325">
        <ele>104.1</ele>
        <time>2013-08-05T19:20:25.000Z</time>
      </trkpt>
      <trkpt lat="48.8237" lon="2.35331">
        <ele>102.6</ele>
        <time>2013-08-05T19:20:26.000Z</time>
      </trkpt>
      <trkpt lat="48.8237" lon="2.35337">
        <ele>103.9</ele>
        <time>2013-08-05T19:20:27.000Z</time>
      </trkpt>
      <trkpt lat="48.8237" lon="2.35344">
        <ele>104.7</ele>
        <time>2013-08-05T19:20:28.000Z</time>
      </trkpt>
      <trkpt lat="48.82371" lon="2.35349">
        <ele>105.2</ele>
        <time>2013-08-05T19:20:29.000Z</time>
      </trkpt>
      <trkpt lat="48.82373" lon="2.35353">
        <ele>104.4</ele>
        <time>2013-08-05T19:20:30.000Z</time>
      </trkpt>
      <trkpt lat="48.82375" lon="2.35357">
        <ele>104.5</ele>
        <time>2013-08-05T19:20:31.000Z</time>
      </trkpt>
      <trkpt lat="48.82376" lon="2.35361">
        <ele>104.2</ele>
        <time>2013-08-05T19:20:32.000Z</time>
      </trkpt>
      <trkpt lat="48.8238" lon="2.35364">
        <ele>104.2</ele>
        <time>2013-08-05T19:20:33.000Z</time>
      </trkpt>
      <trkpt lat="48.82383" lon="2.35366">
        <ele>103.6</ele>
        <time>2013-08-05T19:20:34.000Z</time>
      </trkpt>
      <trkpt lat="48.82386" lon="2.35367">
        <ele>103.3</ele>
        <time>2013-08-05T19:20:35.000Z</time>
      </trkpt>
      <trkpt lat="48.8239" lon="2.35367">
        <ele>103.6</ele>
        <time>2013-08-05T19:20:36.000Z</time>
      </trkpt>
      <trkpt lat="48.82393" lon="2.35365">
        <ele>102.9</ele>
        <time>2013-08-05T19:20:37.000Z</time>
      </trkpt>
      <trkpt lat="48.82397" lon="2.35364">
        <ele>104.7</ele>
        <time>2013-08-05T19:20:38.000Z</time>
      </trkpt>
      <trkpt lat="48.824" lon="2.35364">
        <ele>104.4</ele>
        <time>2013-08-05T19:20:39.000Z</time>
      </trkpt>
      <trkpt lat="48.82403" lon="2.35368">
        <ele>104.8</ele>
        <time>2013-08-05T19:20:41.000Z</time>
      </trkpt>
      <trkpt lat="48.82404" lon="2.3537">
        <ele>104.8</ele>
        <time>2013-08-05T19:20:42.000Z</time>
      </trkpt>
      <trkpt lat="48.82406" lon="2.35372">
        <ele>104.1</ele>
        <time>2013-08-05T19:20:43.000Z</time>
      </trkpt>
      <trkpt lat="48.82408" lon="2.35374">
        <ele>104.3</ele>
        <time>2013-08-05T19:20:44.000Z</time>
      </trkpt>
      <trkpt lat="48.82409" lon="2.35377">
        <ele>105.4</ele>
        <time>2013-08-05T19:20:45.000Z</time>
      </trkpt>
      <trkpt lat="48.82411" lon="2.3538">
        <ele>106.9</ele>
        <time>2013-08-05T19:20:46.000Z</time>
      </trkpt>
      <trkpt lat="48.82412" lon="2.35384">
        <ele>108</ele>
        <time>2013-08-05T19:20:47.000Z</time>
      </trkpt>
      <trkpt lat="48.82414" lon="2.35388">
        <ele>106.7</ele>
        <time>2013-08-05T19:20:48.000Z</time>
      </trkpt>
      <trkpt lat="48.82415" lon="2.35391">
        <ele>107.4</ele>
        <time>2013-08-05T19:20:49.000Z</time>
      </trkpt>
      <trkpt lat="48.82416" lon="2.35394">
        <ele>107.6</ele>
        <time>2013-08-05T19:20:50.000Z</time>
      </trkpt>
      <trkpt lat="48.82415" lon="2.354">
        <ele>107.9</ele>
        <time>2013-08-05T19:20:52.748Z</time>
      </trkpt>
      <trkpt lat="48.82414" lon="2.35403">
        <ele>108.2</ele>
        <time>2013-08-05T19:20:54.000Z</time>
      </trkpt>
      <trkpt lat="48.82412" lon="2.35406">
        <ele>108.9</ele>
        <time>2013-08-05T19:20:55.000Z</time>
      </trkpt>
      <trkpt lat="48.82411" lon="2.35409">
        <ele>109</ele>
        <time>2013-08-05T19:20:56.000Z</time>
      </trkpt>
      <trkpt lat="48.82408" lon="2.35414">
        <ele>107.8</ele>
        <time>2013-08-05T19:20:57.000Z</time>
      </trkpt>
      <trkpt lat="48.82406" lon="2.35418">
        <ele>106.8</ele>
        <time>2013-08-05T19:20:58.000Z</time>
      </trkpt>
      <trkpt lat="48.82403" lon="2.35422">
        <ele>105</ele>
        <time>2013-08-05T19:20:59.000Z</time>
      </trkpt>
      <trkpt lat="48.824" lon="2.35425">
        <ele>105.3</ele>
        <time>2013-08-05T19:21:00.000Z</time>
      </trkpt>
      <trkpt lat="48.82397" lon="2.35428">
        <ele>104.8</ele>
        <time>2013-08-05T19:21:01.000Z</time>
      </trkpt>
      <trkpt lat="48.82394" lon="2.3543">
        <ele>105.2</ele>
        <time>2013-08-05T19:21:02.000Z</time>
      </trkpt>
      <trkpt lat="48.82391" lon="2.35433">
        <ele>104.5</ele>
        <time>2013-08-05T19:21:03.000Z</time>
      </trkpt>
      <trkpt lat="48.82387" lon="2.35436">
        <ele>105</ele>
        <time>2013-08-05T19:21:04.000Z</time>
      </trkpt>
      <trkpt lat="48.82384" lon="2.35438">
        <ele>105.5</ele>
        <time>2013-08-05T19:21:05.000Z</time>
      </trkpt>
      <trkpt lat="48.82381" lon="2.35439">
        <ele>104.8</ele>
        <time>2013-08-05T19:21:06.000Z</time>
      </trkpt>
      <trkpt lat="48.82379" lon="2.35441">
        <ele>106.8</ele>
        <time>2013-08-05T19:21:07.000Z</time>
      </trkpt>
      <trkpt lat="48.82377" lon="2.35443">
        <ele>107.7</ele>
        <time>2013-08-05T19:21:08.000Z</time>
      </trkpt>
      <trkpt lat="48.82374" lon="2.35444">
        <ele>106.9</ele>
        <time>2013-08-05T19:21:09.000Z</time>
      </trkpt>
      <trkpt lat="48.82371" lon="2.35446">
        <ele>106.3</ele>
        <time>2013-08-05T19:21:10.000Z</time>
      </trkpt>
      <trkpt lat="48.82368" lon="2.35448">
        <ele>106.7</ele>
        <time>2013-08-05T19:21:11.000Z</time>
      </trkpt>
      <trkpt lat="48.82365" lon="2.35451">
        <ele>106.3</ele>
        <time>2013-08-05T19:21:12.000Z</time>
      </trkpt>
      <trkpt lat="48.82363" lon="2.35453">
        <ele>106.1</ele>
        <time>2013-08-05T19:21:13.000Z</time>
      </trkpt>
      <trkpt lat="48.8236" lon="2.35457">
        <ele>104.6</ele>
        <time>2013-08-05T19:21:14.000Z</time>
      </trkpt>
      <trkpt lat="48.82357" lon="2.35461">
        <ele>104.6</ele>
        <time>2013-08-05T19:21:15.000Z</time>
      </trkpt>
      <trkpt lat="48.82354" lon="2.35464">
        <ele>105</ele>
        <time>2013-08-05T19:21:16.000Z</time>
      </trkpt>
      <trkpt lat="48.82351" lon="2.35467">
        <ele>104.2</ele>
        <time>2013-08-05T19:21:17.000Z</time>
      </trkpt>
      <trkpt lat="48.82348" lon="2.35469">
        <ele>104.4</ele>
        <time>2013-08-05T19:21:18.000Z</time>
      </trkpt>
      <trkpt lat="48.82345" lon="2.35471">
        <ele>103.3</ele>
        <time>2013-08-05T19:21:19.000Z</time>
      </trkpt>
      <trkpt lat="48.82342" lon="2.35474">
        <ele>104.4</ele>
        <time>2013-08-05T19:21:20.000Z</time>
      </trkpt>
      <trkpt lat="48.8234" lon="2.35477">
        <ele>105.9</ele>
        <time>2013-08-05T19:21:21.000Z</time>
      </trkpt>
      <trkpt lat="48.82337" lon="2.3548">
        <ele>105.5</ele>
        <time>2013-08-05T19:21:22.000Z</time>
      </trkpt>
      <trkpt lat="48.82335" lon="2.35483">
        <ele>104.9</ele>
        <time>2013-08-05T19:21:23.000Z</time>
      </trkpt>
      <trkpt lat="48.82333" lon="2.35485">
        <ele>105</ele>
        <time>2013-08-05T19:21:24.000Z</time>
      </trkpt>
      <trkpt lat="48.82329" lon="2.35488">
        <ele>105.9</ele>
        <time>2013-08-05T19:21:27.000Z</time>
      </trkpt>
      <trkpt lat="48.82329" lon="2.35489">
        <ele>104.7</ele>
        <time>2013-08-05T19:21:28.000Z</time>
      </trkpt>
      <trkpt lat="48.82326" lon="2.35495">
        <ele>103</ele>
        <time>2013-08-05T19:21:32.000Z</time>
      </trkpt>
      <trkpt lat="48.82325" lon="2.35496">
        <ele>103.4</ele>
        <time>2013-08-05T19:21:33.000Z</time>
      </trkpt>
      <trkpt lat="48.82326" lon="2.35491">
        <ele>100.9</ele>
        <time>2013-08-05T19:21:36.000Z</time>
      </trkpt>
      <trkpt lat="48.82326" lon="2.35488">
        <ele>101.3</ele>
        <time>2013-08-05T19:21:37.000Z</time>
      </trkpt>
      <trkpt lat="48.82327" lon="2.35486">
        <ele>100.7</ele>
        <time>2013-08-05T19:21:38.000Z</time>
      </trkpt>
      <trkpt lat="48.82327" lon="2.3548">
        <ele>101.9</ele>
        <time>2013-08-05T19:21:39.000Z</time>
      </trkpt>
      <trkpt lat="48.82328" lon="2.35475">
        <ele>101.4</ele>
        <time>2013-08-05T19:21:40.000Z</time>
      </trkpt>
      <trkpt lat="48.82329" lon="2.35471">
        <ele>101.7</ele>
        <time>2013-08-05T19:21:41.000Z</time>
      </trkpt>
      <trkpt lat="48.82328" lon="2.35466">
        <ele>101.5</ele>
        <time>2013-08-05T19:21:42.000Z</time>
      </trkpt>
      <trkpt lat="48.82327" lon="2.35461">
        <ele>101.6</ele>
        <time>2013-08-05T19:21:43.000Z</time>
      </trkpt>
      <trkpt lat="48.82325" lon="2.35456">
        <ele>102.3</ele>
        <time>2013-08-05T19:21:44.000Z</time>
      </trkpt>
      <trkpt lat="48.82323" lon="2.35451">
        <ele>101.9</ele>
        <time>2013-08-05T19:21:45.000Z</time>
      </trkpt>
      <trkpt lat="48.82322" lon="2.35446">
        <ele>102.1</ele>
        <time>2013-08-05T19:21:46.000Z</time>
      </trkpt>
      <trkpt lat="48.82322" lon="2.3544">
        <ele>103.2</ele>
        <time>2013-08-05T19:21:47.000Z</time>
      </trkpt>
      <trkpt lat="48.82321" lon="2.35435">
        <ele>103.3</ele>
        <time>2013-08-05T19:21:48.000Z</time>
      </trkpt>
      <trkpt lat="48.82322" lon="2.35429">
        <ele>102.5</ele>
        <time>2013-08-05T19:21:49.000Z</time>
      </trkpt>
      <trkpt lat="48.82322" lon="2.35425">
        <ele>101.5</ele>
        <time>2013-08-05T19:21:50.000Z</time>
      </trkpt>
      <trkpt lat="48.82323" lon="2.35421">
        <ele>101.1</ele>
        <time>2013-08-05T19:21:51.000Z</time>
      </trkpt>
      <trkpt lat="48.82325" lon="2.35414">
        <ele>100.4</ele>
        <time>2013-08-05T19:21:53.158Z</time>
      </trkpt>
      <trkpt lat="48.82322" lon="2.35418">
        <ele>102.6</ele>
        <time>2013-08-05T19:22:09.000Z</time>
      </trkpt>
      <trkpt lat="48.8232" lon="2.3542">
        <ele>102.9</ele>
        <time>2013-08-05T19:22:10.000Z</time>
      </trkpt>
      <trkpt lat="48.82317" lon="2.35426">
        <ele>102.6</ele>
        <time>2013-08-05T19:22:12.000Z</time>
      </trkpt>
      <trkpt lat="48.82316" lon="2.35428">
        <ele>103.7</ele>
        <time>2013-08-05T19:22:13.000Z</time>
      </trkpt>
      <trkpt lat="48.82313" lon="2.35433">
        <ele>104.5</ele>
        <time>2013-08-05T19:22:16.000Z</time>
      </trkpt>
      <trkpt lat="48.82311" lon="2.35431">
        <ele>104.3</ele>
        <time>2013-08-05T19:22:17.000Z</time>
      </trkpt>
      <trkpt lat="48.82309" lon="2.35428">
        <ele>105.7</ele>
        <time>2013-08-05T19:22:19.000Z</time>
      </trkpt>
      <trkpt lat="48.82307" lon="2.35428">
        <ele>107.7</ele>
        <time>2013-08-05T19:22:20.000Z</time>
      </trkpt>
      <trkpt lat="48.82305" lon="2.35427">
        <ele>107.8</ele>
        <time>2013-08-05T19:22:21.000Z</time>
      </trkpt>
      <trkpt lat="48.82302" lon="2.35427">
        <ele>107.6</ele>
        <time>2013-08-05T19:22:22.000Z</time>
      </trkpt>
      <trkpt lat="48.82298" lon="2.35426">
        <ele>107.6</ele>
        <time>2013-08-05T19:22:23.000Z</time>
      </trkpt>
      <trkpt lat="48.82293" lon="2.35424">
        <ele>106.9</ele>
        <time>2013-08-05T19:22:24.000Z</time>
      </trkpt>
      <trkpt lat="48.82289" lon="2.35422">
        <ele>106.4</ele>
        <time>2013-08-05T19:22:25.000Z</time>
      </trkpt>
      <trkpt lat="48.82284" lon="2.35419">
        <ele>106.6</ele>
        <time>2013-08-05T19:22:26.000Z</time>
      </trkpt>
      <trkpt lat="48.8228" lon="2.35417">
        <ele>105.9</ele>
        <time>2013-08-05T19:22:27.000Z</time>
      </trkpt>
      <trkpt lat="48.82276" lon="2.35416">
        <ele>107.5</ele>
        <time>2013-08-05T19:22:28.000Z</time>
      </trkpt>
      <trkpt lat="48.82271" lon="2.35414">
        <ele>107.7</ele>
        <time>2013-08-05T19:22:29.000Z</time>
      </trkpt>
      <trkpt lat="48.82267" lon="2.35413">
        <ele>107.8</ele>
        <time>2013-08-05T19:22:30.000Z</time>
      </trkpt>
      <trkpt lat="48.82264" lon="2.35412">
        <ele>106.6</ele>
        <time>2013-08-05T19:22:31.000Z</time>
      </trkpt>
      <trkpt lat="48.8226" lon="2.35411">
        <ele>106.7</ele>
        <time>2013-08-05T19:22:32.000Z</time>
      </trkpt>
      <trkpt lat="48.82256" lon="2.3541">
        <ele>105.3</ele>
        <time>2013-08-05T19:22:33.000Z</time>
      </trkpt>
      <trkpt lat="48.82252" lon="2.3541">
        <ele>106.4</ele>
        <time>2013-08-05T19:22:34.000Z</time>
      </trkpt>
      <trkpt lat="48.82247" lon="2.3541">
        <ele>105.9</ele>
        <time>2013-08-05T19:22:35.000Z</time>
      </trkpt>
      <trkpt lat="48.82243" lon="2.3541">
        <ele>104.5</ele>
        <time>2013-08-05T19:22:36.000Z</time>
      </trkpt>
      <trkpt lat="48.82238" lon="2.3541">
        <ele>104.5</ele>
        <time>2013-08-05T19:22:37.000Z</time>
      </trkpt>
      <trkpt lat="48.82234" lon="2.35411">
        <ele>104.9</ele>
        <time>2013-08-05T19:22:38.000Z</time>
      </trkpt>
      <trkpt lat="48.8223" lon="2.35411">
        <ele>104.2</ele>
        <time>2013-08-05T19:22:39.000Z</time>
      </trkpt>
      <trkpt lat="48.82225" lon="2.35411">
        <ele>104.1</ele>
        <time>2013-08-05T19:22:40.000Z</time>
      </trkpt>
      <trkpt lat="48.82222" lon="2.35413">
        <ele>105.6</ele>
        <time>2013-08-05T19:22:41.000Z</time>
      </trkpt>
      <trkpt lat="48.82218" lon="2.35414">
        <ele>103.8</ele>
        <time>2013-08-05T19:22:42.000Z</time>
      </trkpt>
      <trkpt lat="48.82215" lon="2.35415">
        <ele>103</ele>
        <time>2013-08-05T19:22:43.000Z</time>
      </trkpt>
      <trkpt lat="48.82212" lon="2.35414">
        <ele>102.2</ele>
        <time>2013-08-05T19:22:45.000Z</time>
      </trkpt>
      <trkpt lat="48.8221" lon="2.35413">
        <ele>100.9</ele>
        <time>2013-08-05T19:22:46.000Z</time>
      </trkpt>
      <trkpt lat="48.82206" lon="2.35411">
        <ele>99.8</ele>
        <time>2013-08-05T19:22:48.000Z</time>
      </trkpt>
      <trkpt lat="48.82205" lon="2.3541">
        <ele>99.5</ele>
        <time>2013-08-05T19:22:49.000Z</time>
      </trkpt>
      <trkpt lat="48.82202" lon="2.35407">
        <ele>101.5</ele>
        <time>2013-08-05T19:22:52.697Z</time>
      </trkpt>
      <trkpt lat="48.82201" lon="2.35406">
        <ele>98.2</ele>
        <time>2013-08-05T19:22:54.000Z</time>
      </trkpt>
      <trkpt lat="48.82204" lon="2.35401">
        <ele>98.2</ele>
        <time>2013-08-05T19:23:07.000Z</time>
      </trkpt>
      <trkpt lat="48.82204" lon="2.35399">
        <ele>98.8</ele>
        <time>2013-08-05T19:23:08.000Z</time>
      </trkpt>
      <trkpt lat="48.82206" lon="2.35394">
        <ele>99.8</ele>
        <time>2013-08-05T19:23:12.000Z</time>
      </trkpt>
      <trkpt lat="48.82206" lon="2.35392">
        <ele>100.8</ele>
        <time>2013-08-05T19:23:13.000Z</time>
      </trkpt>
      <trkpt lat="48.82207" lon="2.35386">
        <ele>104.4</ele>
        <time>2013-08-05T19:23:15.000Z</time>
      </trkpt>
      <trkpt lat="48.82207" lon="2.35383">
        <ele>105.5</ele>
        <time>2013-08-05T19:23:16.000Z</time>
      </trkpt>
      <trkpt lat="48.82207" lon="2.35377">
        <ele>106.7</ele>
        <time>2013-08-05T19:23:18.000Z</time>
      </trkpt>
      <trkpt lat="48.82207" lon="2.35374">
        <ele>107.8</ele>
        <time>2013-08-05T19:23:19.000Z</time>
      </trkpt>
      <trkpt lat="48.82208" lon="2.35368">
        <ele>108</ele>
        <time>2013-08-05T19:23:21.000Z</time>
      </trkpt>
      <trkpt lat="48.82208" lon="2.35364">
        <ele>108.6</ele>
        <time>2013-08-05T19:23:22.000Z</time>
      </trkpt>
      <trkpt lat="48.82209" lon="2.35359">
        <ele>109.8</ele>
        <time>2013-08-05T19:23:23.000Z</time>
      </trkpt>
      <trkpt lat="48.82209" lon="2.35355">
        <ele>111.2</ele>
        <time>2013-08-05T19:23:24.000Z</time>
      </trkpt>
      <trkpt lat="48.8221" lon="2.3535">
        <ele>112.6</ele>
        <time>2013-08-05T19:23:25.000Z</time>
      </trkpt>
      <trkpt lat="48.8221" lon="2.35346">
        <ele>113.3</ele>
        <time>2013-08-05T19:23:26.000Z</time>
      </trkpt>
      <trkpt lat="48.8221" lon="2.35342">
        <ele>113.9</ele>
        <time>2013-08-05T19:23:27.000Z</time>
      </trkpt>
      <trkpt lat="48.8221" lon="2.35338">
        <ele>115.2</ele>
        <time>2013-08-05T19:23:28.000Z</time>
      </trkpt>
      <trkpt lat="48.8221" lon="2.35334">
        <ele>114.7</ele>
        <time>2013-08-05T19:23:29.000Z</time>
      </trkpt>
      <trkpt lat="48.8221" lon="2.35331">
        <ele>115.8</ele>
        <time>2013-08-05T19:23:30.000Z</time>
      </trkpt>
      <trkpt lat="48.8221" lon="2.35327">
        <ele>117.3</ele>
        <time>2013-08-05T19:23:31.000Z</time>
      </trkpt>
      <trkpt lat="48.82211" lon="2.35323">
        <ele>118</ele>
        <time>2013-08-05T19:23:32.000Z</time>
      </trkpt>
      <trkpt lat="48.82211" lon="2.35319">
        <ele>117.4</ele>
        <time>2013-08-05T19:23:33.000Z</time>
      </trkpt>
      <trkpt lat="48.82212" lon="2.35314">
        <ele>117.4</ele>
        <time>2013-08-05T19:23:34.000Z</time>
      </trkpt>
      <trkpt lat="48.82212" lon="2.35309">
        <ele>117.6</ele>
        <time>2013-08-05T19:23:35.000Z</time>
      </trkpt>
      <trkpt lat="48.82212" lon="2.35304">
        <ele>117.5</ele>
        <time>2013-08-05T19:23:36.000Z</time>
      </trkpt>
      <trkpt lat="48.82212" lon="2.35299">
        <ele>117.9</ele>
        <time>2013-08-05T19:23:37.000Z</time>
      </trkpt>
      <trkpt lat="48.82212" lon="2.35295">
        <ele>117.9</ele>
        <time>2013-08-05T19:23:38.000Z</time>
      </trkpt>
      <trkpt lat="48.82212" lon="2.3529">
        <ele>114.7</ele>
        <time>2013-08-05T19:23:39.000Z</time>
      </trkpt>
      <trkpt lat="48.82211" lon="2.35285">
        <ele>115.6</ele>
        <time>2013-08-05T19:23:40.000Z</time>
      </trkpt>
      <trkpt lat="48.8221" lon="2.3528">
        <ele>111.9</ele>
        <time>2013-08-05T19:23:41.000Z</time>
      </trkpt>
      <trkpt lat="48.8221" lon="2.35274">
        <ele>111.5</ele>
        <time>2013-08-05T19:23:42.000Z</time>
      </trkpt>
      <trkpt lat="48.8221" lon="2.35268">
        <ele>111.6</ele>
        <time>2013-08-05T19:23:43.000Z</time>
      </trkpt>
      <trkpt lat="48.82209" lon="2.35257">
        <ele>114.6</ele>
        <time>2013-08-05T19:23:44.000Z</time>
      </trkpt>
      <trkpt lat="48.82209" lon="2.35252">
        <ele>115.8</ele>
        <time>2013-08-05T19:23:45.000Z</time>
      </trkpt>
      <trkpt lat="48.8221" lon="2.35243">
        <ele>115.2</ele>
        <time>2013-08-05T19:23:46.000Z</time>
      </trkpt>
      <trkpt lat="48.82211" lon="2.35236">
        <ele>114.8</ele>
        <time>2013-08-05T19:23:47.000Z</time>
      </trkpt>
      <trkpt lat="48.82213" lon="2.35229">
        <ele>113.9</ele>
        <time>2013-08-05T19:23:48.000Z</time>
      </trkpt>
      <trkpt lat="48.82214" lon="2.35221">
        <ele>114</ele>
        <time>2013-08-05T19:23:49.000Z</time>
      </trkpt>
      <trkpt lat="48.82216" lon="2.35214">
        <ele>113</ele>
        <time>2013-08-05T19:23:50.000Z</time>
      </trkpt>
      <trkpt lat="48.82218" lon="2.35208">
        <ele>113.6</ele>
        <time>2013-08-05T19:23:51.000Z</time>
      </trkpt>
      <trkpt lat="48.82217" lon="2.35197">
        <ele>113.6</ele>
        <time>2013-08-05T19:23:52.828Z</time>
      </trkpt>
      <trkpt lat="48.8222" lon="2.35193">
        <ele>113.5</ele>
        <time>2013-08-05T19:23:54.000Z</time>
      </trkpt>
      <trkpt lat="48.82221" lon="2.35188">
        <ele>113.5</ele>
        <time>2013-08-05T19:23:55.000Z</time>
      </trkpt>
      <trkpt lat="48.8222" lon="2.35181">
        <ele>114</ele>
        <time>2013-08-05T19:23:56.000Z</time>
      </trkpt>
      <trkpt lat="48.82218" lon="2.35175">
        <ele>114.7</ele>
        <time>2013-08-05T19:23:57.000Z</time>
      </trkpt>
      <trkpt lat="48.82218" lon="2.35166">
        <ele>113.3</ele>
        <time>2013-08-05T19:23:58.000Z</time>
      </trkpt>
      <trkpt lat="48.82218" lon="2.35158">
        <ele>113.4</ele>
        <time>2013-08-05T19:23:59.000Z</time>
      </trkpt>
      <trkpt lat="48.82217" lon="2.35153">
        <ele>112.4</ele>
        <time>2013-08-05T19:24:00.000Z</time>
      </trkpt>
      <trkpt lat="48.82217" lon="2.35147">
        <ele>112.4</ele>
        <time>2013-08-05T19:24:01.000Z</time>
      </trkpt>
      <trkpt lat="48.82219" lon="2.3514">
        <ele>112.5</ele>
        <time>2013-08-05T19:24:02.000Z</time>
      </trkpt>
      <trkpt lat="48.82216" lon="2.35137">
        <ele>115.5</ele>
        <time>2013-08-05T19:24:03.000Z</time>
      </trkpt>
      <trkpt lat="48.82215" lon="2.3513">
        <ele>115.3</ele>
        <time>2013-08-05T19:24:04.000Z</time>
      </trkpt>
      <trkpt lat="48.82212" lon="2.35124">
        <ele>116.5</ele>
        <time>2013-08-05T19:24:05.000Z</time>
      </trkpt>
      <trkpt lat="48.82208" lon="2.35116">
        <ele>116.7</ele>
        <time>2013-08-05T19:24:06.000Z</time>
      </trkpt>
      <trkpt lat="48.82206" lon="2.3511">
        <ele>116.2</ele>
        <time>2013-08-05T19:24:07.000Z</time>
      </trkpt>
      <trkpt lat="48.82204" lon="2.35105">
        <ele>115</ele>
        <time>2013-08-05T19:24:08.000Z</time>
      </trkpt>
      <trkpt lat="48.82204" lon="2.35101">
        <ele>115</ele>
        <time>2013-08-05T19:24:09.000Z</time>
      </trkpt>
      <trkpt lat="48.82205" lon="2.35097">
        <ele>116.1</ele>
        <time>2013-08-05T19:24:10.000Z</time>
      </trkpt>
      <trkpt lat="48.82206" lon="2.35092">
        <ele>114.7</ele>
        <time>2013-08-05T19:24:11.000Z</time>
      </trkpt>
      <trkpt lat="48.82207" lon="2.35088">
        <ele>113.7</ele>
        <time>2013-08-05T19:24:12.000Z</time>
      </trkpt>
      <trkpt lat="48.82209" lon="2.35082">
        <ele>113.4</ele>
        <time>2013-08-05T19:24:13.000Z</time>
      </trkpt>
      <trkpt lat="48.8221" lon="2.35076">
        <ele>112</ele>
        <time>2013-08-05T19:24:14.000Z</time>
      </trkpt>
      <trkpt lat="48.8221" lon="2.35072">
        <ele>111.3</ele>
        <time>2013-08-05T19:24:15.000Z</time>
      </trkpt>
      <trkpt lat="48.82211" lon="2.35066">
        <ele>110.4</ele>
        <time>2013-08-05T19:24:16.000Z</time>
      </trkpt>
      <trkpt lat="48.82211" lon="2.35061">
        <ele>109.7</ele>
        <time>2013-08-05T19:24:17.000Z</time>
      </trkpt>
      <trkpt lat="48.82212" lon="2.35056">
        <ele>109.6</ele>
        <time>2013-08-05T19:24:18.000Z</time>
      </trkpt>
      <trkpt lat="48.82213" lon="2.35051">
        <ele>109.7</ele>
        <time>2013-08-05T19:24:19.000Z</time>
      </trkpt>
      <trkpt lat="48.82213" lon="2.35046">
        <ele>109.4</ele>
        <time>2013-08-05T19:24:20.000Z</time>
      </trkpt>
      <trkpt lat="48.82213" lon="2.35042">
        <ele>109.6</ele>
        <time>2013-08-05T19:24:21.000Z</time>
      </trkpt>
      <trkpt lat="48.82214" lon="2.35037">
        <ele>108.4</ele>
        <time>2013-08-05T19:24:22.000Z</time>
      </trkpt>
      <trkpt lat="48.82214" lon="2.35032">
        <ele>108.6</ele>
        <time>2013-08-05T19:24:23.000Z</time>
      </trkpt>
      <trkpt lat="48.82214" lon="2.35027">
        <ele>107.6</ele>
        <time>2013-08-05T19:24:24.000Z</time>
      </trkpt>
      <trkpt lat="48.82215" lon="2.35023">
        <ele>105.4</ele>
        <time>2013-08-05T19:24:25.000Z</time>
      </trkpt>
      <trkpt lat="48.82215" lon="2.35018">
        <ele>104.6</ele>
        <time>2013-08-05T19:24:26.000Z</time>
      </trkpt>
      <trkpt lat="48.82216" lon="2.35014">
        <ele>105.5</ele>
        <time>2013-08-05T19:24:27.000Z</time>
      </trkpt>
      <trkpt lat="48.82217" lon="2.3501">
        <ele>106.4</ele>
        <time>2013-08-05T19:24:28.000Z</time>
      </trkpt>
      <trkpt lat="48.82218" lon="2.35006">
        <ele>107.3</ele>
        <time>2013-08-05T19:24:29.000Z</time>
      </trkpt>
      <trkpt lat="48.82218" lon="2.35002">
        <ele>110.8</ele>
        <time>2013-08-05T19:24:30.000Z</time>
      </trkpt>
      <trkpt lat="48.82217" lon="2.34999">
        <ele>111</ele>
        <time>2013-08-05T19:24:31.000Z</time>
      </trkpt>
      <trkpt lat="48.82214" lon="2.34995">
        <ele>112.3</ele>
        <time>2013-08-05T19:24:33.000Z</time>
      </trkpt>
      <trkpt lat="48.82213" lon="2.34993">
        <ele>112.1</ele>
        <time>2013-08-05T19:24:34.000Z</time>
      </trkpt>
      <trkpt lat="48.8221" lon="2.34988">
        <ele>109</ele>
        <time>2013-08-05T19:24:36.000Z</time>
      </trkpt>
      <trkpt lat="48.82209" lon="2.34986">
        <ele>108.9</ele>
        <time>2013-08-05T19:24:37.000Z</time>
      </trkpt>
      <trkpt lat="48.82207" lon="2.34984">
        <ele>108.8</ele>
        <time>2013-08-05T19:24:38.000Z</time>
      </trkpt>
      <trkpt lat="48.82204" lon="2.34982">
        <ele>108.7</ele>
        <time>2013-08-05T19:24:39.000Z</time>
      </trkpt>
      <trkpt lat="48.82203" lon="2.34979">
        <ele>111.3</ele>
        <time>2013-08-05T19:24:40.000Z</time>
      </trkpt>
      <trkpt lat="48.82202" lon="2.34976">
        <ele>112.6</ele>
        <time>2013-08-05T19:24:41.000Z</time>
      </trkpt>
      <trkpt lat="48.82202" lon="2.34972">
        <ele>114.1</ele>
        <time>2013-08-05T19:24:42.000Z</time>
      </trkpt>
      <trkpt lat="48.82204" lon="2.34968">
        <ele>115.2</ele>
        <time>2013-08-05T19:24:43.000Z</time>
      </trkpt>
      <trkpt lat="48.82205" lon="2.34964">
        <ele>116</ele>
        <time>2013-08-05T19:24:44.000Z</time>
      </trkpt>
      <trkpt lat="48.82205" lon="2.3496">
        <ele>118.5</ele>
        <time>2013-08-05T19:24:45.000Z</time>
      </trkpt>
      <trkpt lat="48.82205" lon="2.34955">
        <ele>118.7</ele>
        <time>2013-08-05T19:24:46.000Z</time>
      </trkpt>
      <trkpt lat="48.82204" lon="2.34951">
        <ele>117.8</ele>
        <time>2013-08-05T19:24:47.000Z</time>
      </trkpt>
      <trkpt lat="48.82204" lon="2.34946">
        <ele>117.8</ele>
        <time>2013-08-05T19:24:48.000Z</time>
      </trkpt>
      <trkpt lat="48.82204" lon="2.34941">
        <ele>116.9</ele>
        <time>2013-08-05T19:24:49.000Z</time>
      </trkpt>
      <trkpt lat="48.82204" lon="2.34935">
        <ele>117.3</ele>
        <time>2013-08-05T19:24:50.000Z</time>
      </trkpt>
      <trkpt lat="48.82204" lon="2.34927">
        <ele>115</ele>
        <time>2013-08-05T19:24:51.000Z</time>
      </trkpt>
      <trkpt lat="48.82204" lon="2.34912">
        <ele>115.4</ele>
        <time>2013-08-05T19:24:53.208Z</time>
      </trkpt>
      <trkpt lat="48.82205" lon="2.34906">
        <ele>115.3</ele>
        <time>2013-08-05T19:24:54.000Z</time>
      </trkpt>
      <trkpt lat="48.82206" lon="2.34898">
        <ele>115.3</ele>
        <time>2013-08-05T19:24:55.000Z</time>
      </trkpt>
      <trkpt lat="48.82208" lon="2.34891">
        <ele>115.5</ele>
        <time>2013-08-05T19:24:56.000Z</time>
      </trkpt>
      <trkpt lat="48.82209" lon="2.34883">
        <ele>114.4</ele>
        <time>2013-08-05T19:24:57.000Z</time>
      </trkpt>
      <trkpt lat="48.8221" lon="2.34876">
        <ele>114.7</ele>
        <time>2013-08-05T19:24:58.000Z</time>
      </trkpt>
      <trkpt lat="48.82211" lon="2.34869">
        <ele>113.8</ele>
        <time>2013-08-05T19:24:59.000Z</time>
      </trkpt>
      <trkpt lat="48.82211" lon="2.34862">
        <ele>114.1</ele>
        <time>2013-08-05T19:25:00.000Z</time>
      </trkpt>
      <trkpt lat="48.82212" lon="2.34856">
        <ele>113.4</ele>
        <time>2013-08-05T19:25:01.000Z</time>
      </trkpt>
      <trkpt lat="48.82211" lon="2.3485">
        <ele>113.3</ele>
        <time>2013-08-05T19:25:02.000Z</time>
      </trkpt>
      <trkpt lat="48.82212" lon="2.34843">
        <ele>113</ele>
        <time>2013-08-05T19:25:03.000Z</time>
      </trkpt>
      <trkpt lat="48.82212" lon="2.34837">
        <ele>113.1</ele>
        <time>2013-08-05T19:25:04.000Z</time>
      </trkpt>
      <trkpt lat="48.82212" lon="2.3483">
        <ele>112.6</ele>
        <time>2013-08-05T19:25:05.000Z</time>
      </trkpt>
      <trkpt lat="48.82213" lon="2.34821">
        <ele>112.6</ele>
        <time>2013-08-05T19:25:06.000Z</time>
      </trkpt>
      <trkpt lat="48.82213" lon="2.34814">
        <ele>113.1</ele>
        <time>2013-08-05T19:25:07.000Z</time>
      </trkpt>
      <trkpt lat="48.82212" lon="2.34807">
        <ele>113.4</ele>
        <time>2013-08-05T19:25:08.000Z</time>
      </trkpt>
      <trkpt lat="48.82212" lon="2.34799">
        <ele>114.1</ele>
        <time>2013-08-05T19:25:09.000Z</time>
      </trkpt>
      <trkpt lat="48.82212" lon="2.34793">
        <ele>114.4</ele>
        <time>2013-08-05T19:25:10.000Z</time>
      </trkpt>
      <trkpt lat="48.82212" lon="2.34786">
        <ele>114.3</ele>
        <time>2013-08-05T19:25:11.000Z</time>
      </trkpt>
      <trkpt lat="48.82211" lon="2.34779">
        <ele>114.1</ele>
        <time>2013-08-05T19:25:12.000Z</time>
      </trkpt>
      <trkpt lat="48.8221" lon="2.34772">
        <ele>114.2</ele>
        <time>2013-08-05T19:25:13.000Z</time>
      </trkpt>
      <trkpt lat="48.82209" lon="2.34765">
        <ele>114.3</ele>
        <time>2013-08-05T19:25:14.000Z</time>
      </trkpt>
      <trkpt lat="48.82212" lon="2.34759">
        <ele>113.3</ele>
        <time>2013-08-05T19:25:15.000Z</time>
      </trkpt>
      <trkpt lat="48.82218" lon="2.34749">
        <ele>107.2</ele>
        <time>2013-08-05T19:25:16.000Z</time>
      </trkpt>
      <trkpt lat="48.82218" lon="2.34742">
        <ele>106.5</ele>
        <time>2013-08-05T19:25:17.000Z</time>
      </trkpt>
      <trkpt lat="48.82219" lon="2.34737">
        <ele>106.7</ele>
        <time>2013-08-05T19:25:18.000Z</time>
      </trkpt>
      <trkpt lat="48.82221" lon="2.34734">
        <ele>106.6</ele>
        <time>2013-08-05T19:25:19.000Z</time>
      </trkpt>
      <trkpt lat="48.82223" lon="2.3473">
        <ele>105.3</ele>
        <time>2013-08-05T19:25:20.000Z</time>
      </trkpt>
      <trkpt lat="48.82223" lon="2.34727">
        <ele>105.5</ele>
        <time>2013-08-05T19:25:21.000Z</time>
      </trkpt>
      <trkpt lat="48.82223" lon="2.34724">
        <ele>104.9</ele>
        <time>2013-08-05T19:25:22.000Z</time>
      </trkpt>
      <trkpt lat="48.82221" lon="2.34719">
        <ele>105.1</ele>
        <time>2013-08-05T19:25:23.000Z</time>
      </trkpt>
      <trkpt lat="48.8222" lon="2.34712">
        <ele>106.4</ele>
        <time>2013-08-05T19:25:25.000Z</time>
      </trkpt>
      <trkpt lat="48.8222" lon="2.34708">
        <ele>105.3</ele>
        <time>2013-08-05T19:25:26.000Z</time>
      </trkpt>
      <trkpt lat="48.82219" lon="2.34705">
        <ele>107.3</ele>
        <time>2013-08-05T19:25:27.000Z</time>
      </trkpt>
      <trkpt lat="48.82219" lon="2.34701">
        <ele>106.8</ele>
        <time>2013-08-05T19:25:28.000Z</time>
      </trkpt>
      <trkpt lat="48.8222" lon="2.34697">
        <ele>106.7</ele>
        <time>2013-08-05T19:25:29.000Z</time>
      </trkpt>
      <trkpt lat="48.82221" lon="2.34691">
        <ele>105.7</ele>
        <time>2013-08-05T19:25:30.000Z</time>
      </trkpt>
      <trkpt lat="48.82221" lon="2.34686">
        <ele>105.6</ele>
        <time>2013-08-05T19:25:31.000Z</time>
      </trkpt>
      <trkpt lat="48.82222" lon="2.34681">
        <ele>105.3</ele>
        <time>2013-08-05T19:25:32.000Z</time>
      </trkpt>
      <trkpt lat="48.82222" lon="2.34677">
        <ele>105.6</ele>
        <time>2013-08-05T19:25:33.000Z</time>
      </trkpt>
      <trkpt lat="48.82223" lon="2.34672">
        <ele>105.2</ele>
        <time>2013-08-05T19:25:34.000Z</time>
      </trkpt>
      <trkpt lat="48.82224" lon="2.34667">
        <ele>105.2</ele>
        <time>2013-08-05T19:25:35.000Z</time>
      </trkpt>
      <trkpt lat="48.82225" lon="2.34663">
        <ele>105.5</ele>
        <time>2013-08-05T19:25:36.000Z</time>
      </trkpt>
      <trkpt lat="48.82226" lon="2.34659">
        <ele>105</ele>
        <time>2013-08-05T19:25:37.000Z</time>
      </trkpt>
      <trkpt lat="48.82227" lon="2.34655">
        <ele>106</ele>
        <time>2013-08-05T19:25:38.000Z</time>
      </trkpt>
      <trkpt lat="48.82227" lon="2.34651">
        <ele>105.9</ele>
        <time>2013-08-05T19:25:39.000Z</time>
      </trkpt>
      <trkpt lat="48.82228" lon="2.34646">
        <ele>105.4</ele>
        <time>2013-08-05T19:25:40.000Z</time>
      </trkpt>
      <trkpt lat="48.82229" lon="2.34642">
        <ele>105.1</ele>
        <time>2013-08-05T19:25:41.000Z</time>
      </trkpt>
      <trkpt lat="48.82229" lon="2.34637">
        <ele>103.3</ele>
        <time>2013-08-05T19:25:42.000Z</time>
      </trkpt>
      <trkpt lat="48.8223" lon="2.34632">
        <ele>103.1</ele>
        <time>2013-08-05T19:25:43.000Z</time>
      </trkpt>
      <trkpt lat="48.8223" lon="2.34628">
        <ele>105.8</ele>
        <time>2013-08-05T19:25:44.000Z</time>
      </trkpt>
      <trkpt lat="48.8223" lon="2.34624">
        <ele>106.6</ele>
        <time>2013-08-05T19:25:45.000Z</time>
      </trkpt>
      <trkpt lat="48.8223" lon="2.34619">
        <ele>107</ele>
        <time>2013-08-05T19:25:46.000Z</time>
      </trkpt>
      <trkpt lat="48.8223" lon="2.34615">
        <ele>106.9</ele>
        <time>2013-08-05T19:25:47.000Z</time>
      </trkpt>
      <trkpt lat="48.8223" lon="2.34611">
        <ele>105.3</ele>
        <time>2013-08-05T19:25:48.000Z</time>
      </trkpt>
      <trkpt lat="48.8223" lon="2.34607">
        <ele>105.2</ele>
        <time>2013-08-05T19:25:49.000Z</time>
      </trkpt>
      <trkpt lat="48.8223" lon="2.34602">
        <ele>104.8</ele>
        <time>2013-08-05T19:25:50.000Z</time>
      </trkpt>
      <trkpt lat="48.8223" lon="2.34598">
        <ele>104.5</ele>
        <time>2013-08-05T19:25:51.000Z</time>
      </trkpt>
      <trkpt lat="48.8223" lon="2.34592">
        <ele>104.4</ele>
        <time>2013-08-05T19:25:52.728Z</time>
      </trkpt>
      <trkpt lat="48.8223" lon="2.34587">
        <ele>105.7</ele>
        <time>2013-08-05T19:25:54.000Z</time>
      </trkpt>
      <trkpt lat="48.82229" lon="2.34582">
        <ele>106.2</ele>
        <time>2013-08-05T19:25:55.000Z</time>
      </trkpt>
      <trkpt lat="48.82229" lon="2.34577">
        <ele>107.5</ele>
        <time>2013-08-05T19:25:56.000Z</time>
      </trkpt>
      <trkpt lat="48.82228" lon="2.3457">
        <ele>107.3</ele>
        <time>2013-08-05T19:25:57.000Z</time>
      </trkpt>
      <trkpt lat="48.82228" lon="2.34563">
        <ele>105.9</ele>
        <time>2013-08-05T19:25:58.000Z</time>
      </trkpt>
      <trkpt lat="48.82228" lon="2.34556">
        <ele>105.9</ele>
        <time>2013-08-05T19:25:59.000Z</time>
      </trkpt>
      <trkpt lat="48.82227" lon="2.34549">
        <ele>106</ele>
        <time>2013-08-05T19:26:00.000Z</time>
      </trkpt>
      <trkpt lat="48.82227" lon="2.34542">
        <ele>106.1</ele>
        <time>2013-08-05T19:26:01.000Z</time>
      </trkpt>
      <trkpt lat="48.82227" lon="2.34535">
        <ele>105.5</ele>
        <time>2013-08-05T19:26:02.000Z</time>
      </trkpt>
      <trkpt lat="48.82227" lon="2.34529">
        <ele>105.7</ele>
        <time>2013-08-05T19:26:03.000Z</time>
      </trkpt>
      <trkpt lat="48.82227" lon="2.34522">
        <ele>103.8</ele>
        <time>2013-08-05T19:26:04.000Z</time>
      </trkpt>
      <trkpt lat="48.82229" lon="2.34516">
        <ele>102.3</ele>
        <time>2013-08-05T19:26:05.000Z</time>
      </trkpt>
      <trkpt lat="48.8223" lon="2.34509">
        <ele>101.1</ele>
        <time>2013-08-05T19:26:06.000Z</time>
      </trkpt>
      <trkpt lat="48.82232" lon="2.34503">
        <ele>101.4</ele>
        <time>2013-08-05T19:26:07.000Z</time>
      </trkpt>
      <trkpt lat="48.82234" lon="2.34498">
        <ele>101.6</ele>
        <time>2013-08-05T19:26:08.000Z</time>
      </trkpt>
      <trkpt lat="48.82235" lon="2.34495">
        <ele>101.6</ele>
        <time>2013-08-05T19:26:09.000Z</time>
      </trkpt>
      <trkpt lat="48.82237" lon="2.34493">
        <ele>102.3</ele>
        <time>2013-08-05T19:26:10.000Z</time>
      </trkpt>
      <trkpt lat="48.8224" lon="2.34491">
        <ele>102.4</ele>
        <time>2013-08-05T19:26:12.000Z</time>
      </trkpt>
      <trkpt lat="48.82242" lon="2.3449">
        <ele>103.6</ele>
        <time>2013-08-05T19:26:13.000Z</time>
      </trkpt>
      <trkpt lat="48.82244" lon="2.34488">
        <ele>103.3</ele>
        <time>2013-08-05T19:26:15.000Z</time>
      </trkpt>
      <trkpt lat="48.82246" lon="2.34487">
        <ele>104.7</ele>
        <time>2013-08-05T19:26:16.000Z</time>
      </trkpt>
      <trkpt lat="48.82249" lon="2.34485">
        <ele>105.3</ele>
        <time>2013-08-05T19:26:18.000Z</time>
      </trkpt>
      <trkpt lat="48.8225" lon="2.34484">
        <ele>106</ele>
        <time>2013-08-05T19:26:19.000Z</time>
      </trkpt>
      <trkpt lat="48.82253" lon="2.34484">
        <ele>106.3</ele>
        <time>2013-08-05T19:26:21.000Z</time>
      </trkpt>
      <trkpt lat="48.82255" lon="2.34485">
        <ele>107</ele>
        <time>2013-08-05T19:26:22.000Z</time>
      </trkpt>
      <trkpt lat="48.82258" lon="2.34484">
        <ele>107.2</ele>
        <time>2013-08-05T19:26:24.000Z</time>
      </trkpt>
      <trkpt lat="48.82259" lon="2.34483">
        <ele>108.2</ele>
        <time>2013-08-05T19:26:25.000Z</time>
      </trkpt>
      <trkpt lat="48.82262" lon="2.34481">
        <ele>108</ele>
        <time>2013-08-05T19:26:27.000Z</time>
      </trkpt>
      <trkpt lat="48.82264" lon="2.3448">
        <ele>108.5</ele>
        <time>2013-08-05T19:26:28.000Z</time>
      </trkpt>
      <trkpt lat="48.82268" lon="2.3448">
        <ele>109.3</ele>
        <time>2013-08-05T19:26:31.000Z</time>
      </trkpt>
      <trkpt lat="48.8227" lon="2.34479">
        <ele>104.8</ele>
        <time>2013-08-05T19:26:32.000Z</time>
      </trkpt>
      <trkpt lat="48.82274" lon="2.34476">
        <ele>102.4</ele>
        <time>2013-08-05T19:26:34.000Z</time>
      </trkpt>
      <trkpt lat="48.82275" lon="2.34474">
        <ele>101.7</ele>
        <time>2013-08-05T19:26:35.000Z</time>
      </trkpt>
      <trkpt lat="48.82279" lon="2.34471">
        <ele>100</ele>
        <time>2013-08-05T19:26:37.000Z</time>
      </trkpt>
      <trkpt lat="48.8228" lon="2.34469">
        <ele>99.2</ele>
        <time>2013-08-05T19:26:38.000Z</time>
      </trkpt>
      <trkpt lat="48.82282" lon="2.34466">
        <ele>99.4</ele>
        <time>2013-08-05T19:26:40.000Z</time>
      </trkpt>
      <trkpt lat="48.82283" lon="2.34464">
        <ele>99.6</ele>
        <time>2013-08-05T19:26:41.000Z</time>
      </trkpt>
      <trkpt lat="48.82285" lon="2.34459">
        <ele>100.1</ele>
        <time>2013-08-05T19:26:43.000Z</time>
      </trkpt>
      <trkpt lat="48.82287" lon="2.34457">
        <ele>99.8</ele>
        <time>2013-08-05T19:26:44.000Z</time>
      </trkpt>
      <trkpt lat="48.82289" lon="2.34453">
        <ele>97.9</ele>
        <time>2013-08-05T19:26:46.000Z</time>
      </trkpt>
      <trkpt lat="48.82291" lon="2.34452">
        <ele>98.5</ele>
        <time>2013-08-05T19:26:47.000Z</time>
      </trkpt>
      <trkpt lat="48.82294" lon="2.34453">
        <ele>100.8</ele>
        <time>2013-08-05T19:26:49.000Z</time>
      </trkpt>
      <trkpt lat="48.82296" lon="2.34453">
        <ele>101</ele>
        <time>2013-08-05T19:26:50.000Z</time>
      </trkpt>
      <trkpt lat="48.82299" lon="2.34454">
        <ele>99.5</ele>
        <time>2013-08-05T19:26:51.000Z</time>
      </trkpt>
      <trkpt lat="48.82303" lon="2.34456">
        <ele>99.8</ele>
        <time>2013-08-05T19:26:52.709Z</time>
      </trkpt>
      <trkpt lat="48.82306" lon="2.34458">
        <ele>98.8</ele>
        <time>2013-08-05T19:26:54.000Z</time>
      </trkpt>
      <trkpt lat="48.82309" lon="2.34461">
        <ele>97.6</ele>
        <time>2013-08-05T19:26:55.000Z</time>
      </trkpt>
      <trkpt lat="48.82312" lon="2.34464">
        <ele>97.4</ele>
        <time>2013-08-05T19:26:56.000Z</time>
      </trkpt>
      <trkpt lat="48.82317" lon="2.34469">
        <ele>97.2</ele>
        <time>2013-08-05T19:26:57.000Z</time>
      </trkpt>
      <trkpt lat="48.82321" lon="2.34475">
        <ele>99</ele>
        <time>2013-08-05T19:26:58.000Z</time>
      </trkpt>
      <trkpt lat="48.82326" lon="2.3448">
        <ele>100</ele>
        <time>2013-08-05T19:26:59.000Z</time>
      </trkpt>
      <trkpt lat="48.8233" lon="2.34485">
        <ele>100.8</ele>
        <time>2013-08-05T19:27:00.000Z</time>
      </trkpt>
      <trkpt lat="48.82333" lon="2.34489">
        <ele>101.1</ele>
        <time>2013-08-05T19:27:01.000Z</time>
      </trkpt>
      <trkpt lat="48.82338" lon="2.34494">
        <ele>101.1</ele>
        <time>2013-08-05T19:27:02.000Z</time>
      </trkpt>
      <trkpt lat="48.82345" lon="2.34499">
        <ele>101.4</ele>
        <time>2013-08-05T19:27:03.000Z</time>
      </trkpt>
      <trkpt lat="48.82347" lon="2.34497">
        <ele>101.2</ele>
        <time>2013-08-05T19:27:04.000Z</time>
      </trkpt>
      <trkpt lat="48.82351" lon="2.34499">
        <ele>100.4</ele>
        <time>2013-08-05T19:27:05.000Z</time>
      </trkpt>
      <trkpt lat="48.82355" lon="2.34499">
        <ele>99.3</ele>
        <time>2013-08-05T19:27:06.000Z</time>
      </trkpt>
      <trkpt lat="48.82359" lon="2.34495">
        <ele>97.6</ele>
        <time>2013-08-05T19:27:07.000Z</time>
      </trkpt>
      <trkpt lat="48.82363" lon="2.34491">
        <ele>96.4</ele>
        <time>2013-08-05T19:27:08.000Z</time>
      </trkpt>
      <trkpt lat="48.82366" lon="2.34487">
        <ele>99.4</ele>
        <time>2013-08-05T19:27:09.000Z</time>
      </trkpt>
      <trkpt lat="48.8237" lon="2.34484">
        <ele>99.9</ele>
        <time>2013-08-05T19:27:10.000Z</time>
      </trkpt>
      <trkpt lat="48.82373" lon="2.34479">
        <ele>100.2</ele>
        <time>2013-08-05T19:27:11.000Z</time>
      </trkpt>
      <trkpt lat="48.82376" lon="2.34474">
        <ele>100.6</ele>
        <time>2013-08-05T19:27:12.000Z</time>
      </trkpt>
      <trkpt lat="48.8238" lon="2.3447">
        <ele>100.8</ele>
        <time>2013-08-05T19:27:13.000Z</time>
      </trkpt>
      <trkpt lat="48.82384" lon="2.34465">
        <ele>101</ele>
        <time>2013-08-05T19:27:14.000Z</time>
      </trkpt>
      <trkpt lat="48.82387" lon="2.3446">
        <ele>100.1</ele>
        <time>2013-08-05T19:27:15.000Z</time>
      </trkpt>
      <trkpt lat="48.82391" lon="2.34455">
        <ele>99.7</ele>
        <time>2013-08-05T19:27:16.000Z</time>
      </trkpt>
      <trkpt lat="48.82395" lon="2.34451">
        <ele>98.9</ele>
        <time>2013-08-05T19:27:17.000Z</time>
      </trkpt>
      <trkpt lat="48.82398" lon="2.34447">
        <ele>98.8</ele>
        <time>2013-08-05T19:27:18.000Z</time>
      </trkpt>
      <trkpt lat="48.82403" lon="2.34444">
        <ele>98.6</ele>
        <time>2013-08-05T19:27:19.000Z</time>
      </trkpt>
      <trkpt lat="48.82405" lon="2.34439">
        <ele>98.2</ele>
        <time>2013-08-05T19:27:20.000Z</time>
      </trkpt>
      <trkpt lat="48.82407" lon="2.34434">
        <ele>99</ele>
        <time>2013-08-05T19:27:21.000Z</time>
      </trkpt>
      <trkpt lat="48.8241" lon="2.34431">
        <ele>99.8</ele>
        <time>2013-08-05T19:27:22.000Z</time>
      </trkpt>
      <trkpt lat="48.82414" lon="2.34427">
        <ele>99.5</ele>
        <time>2013-08-05T19:27:23.000Z</time>
      </trkpt>
      <trkpt lat="48.82417" lon="2.34422">
        <ele>99.8</ele>
        <time>2013-08-05T19:27:24.000Z</time>
      </trkpt>
      <trkpt lat="48.82421" lon="2.34419">
        <ele>100.2</ele>
        <time>2013-08-05T19:27:25.000Z</time>
      </trkpt>
      <trkpt lat="48.82425" lon="2.34415">
        <ele>100.3</ele>
        <time>2013-08-05T19:27:26.000Z</time>
      </trkpt>
      <trkpt lat="48.82428" lon="2.34409">
        <ele>100.4</ele>
        <time>2013-08-05T19:27:27.000Z</time>
      </trkpt>
      <trkpt lat="48.8243" lon="2.34403">
        <ele>100.6</ele>
        <time>2013-08-05T19:27:28.000Z</time>
      </trkpt>
      <trkpt lat="48.82435" lon="2.344">
        <ele>100</ele>
        <time>2013-08-05T19:27:29.000Z</time>
      </trkpt>
      <trkpt lat="48.8244" lon="2.34398">
        <ele>100.5</ele>
        <time>2013-08-05T19:27:30.000Z</time>
      </trkpt>
      <trkpt lat="48.82444" lon="2.34396">
        <ele>101.3</ele>
        <time>2013-08-05T19:27:31.000Z</time>
      </trkpt>
      <trkpt lat="48.82449" lon="2.34391">
        <ele>100.7</ele>
        <time>2013-08-05T19:27:32.000Z</time>
      </trkpt>
      <trkpt lat="48.82452" lon="2.34386">
        <ele>100.7</ele>
        <time>2013-08-05T19:27:33.000Z</time>
      </trkpt>
      <trkpt lat="48.82457" lon="2.34381">
        <ele>100.6</ele>
        <time>2013-08-05T19:27:34.000Z</time>
      </trkpt>
      <trkpt lat="48.82462" lon="2.34378">
        <ele>102.1</ele>
        <time>2013-08-05T19:27:35.000Z</time>
      </trkpt>
      <trkpt lat="48.82465" lon="2.34371">
        <ele>101.9</ele>
        <time>2013-08-05T19:27:36.000Z</time>
      </trkpt>
      <trkpt lat="48.8247" lon="2.34367">
        <ele>102.5</ele>
        <time>2013-08-05T19:27:37.000Z</time>
      </trkpt>
      <trkpt lat="48.82474" lon="2.34361">
        <ele>101.4</ele>
        <time>2013-08-05T19:27:38.000Z</time>
      </trkpt>
      <trkpt lat="48.82479" lon="2.34356">
        <ele>102.3</ele>
        <time>2013-08-05T19:27:39.000Z</time>
      </trkpt>
      <trkpt lat="48.82484" lon="2.3435">
        <ele>101.4</ele>
        <time>2013-08-05T19:27:40.000Z</time>
      </trkpt>
      <trkpt lat="48.82488" lon="2.34344">
        <ele>101.4</ele>
        <time>2013-08-05T19:27:41.000Z</time>
      </trkpt>
      <trkpt lat="48.82493" lon="2.34338">
        <ele>101.5</ele>
        <time>2013-08-05T19:27:42.000Z</time>
      </trkpt>
      <trkpt lat="48.82498" lon="2.34332">
        <ele>98.9</ele>
        <time>2013-08-05T19:27:43.000Z</time>
      </trkpt>
      <trkpt lat="48.82502" lon="2.34326">
        <ele>97.5</ele>
        <time>2013-08-05T19:27:44.000Z</time>
      </trkpt>
      <trkpt lat="48.82506" lon="2.34322">
        <ele>97.4</ele>
        <time>2013-08-05T19:27:45.000Z</time>
      </trkpt>
      <trkpt lat="48.8251" lon="2.34318">
        <ele>97.3</ele>
        <time>2013-08-05T19:27:46.000Z</time>
      </trkpt>
      <trkpt lat="48.82515" lon="2.34314">
        <ele>97.2</ele>
        <time>2013-08-05T19:27:47.000Z</time>
      </trkpt>
      <trkpt lat="48.82519" lon="2.34309">
        <ele>97.4</ele>
        <time>2013-08-05T19:27:48.000Z</time>
      </trkpt>
      <trkpt lat="48.82523" lon="2.34305">
        <ele>97.5</ele>
        <time>2013-08-05T19:27:49.000Z</time>
      </trkpt>
      <trkpt lat="48.82527" lon="2.34302">
        <ele>97.4</ele>
        <time>2013-08-05T19:27:50.000Z</time>
      </trkpt>
      <trkpt lat="48.82531" lon="2.34298">
        <ele>97.5</ele>
        <time>2013-08-05T19:27:51.000Z</time>
      </trkpt>
      <trkpt lat="48.82538" lon="2.34291">
        <ele>97.4</ele>
        <time>2013-08-05T19:27:52.773Z</time>
      </trkpt>
      <trkpt lat="48.82541" lon="2.3429">
        <ele>97.7</ele>
        <time>2013-08-05T19:27:54.000Z</time>
      </trkpt>
      <trkpt lat="48.82544" lon="2.34285">
        <ele>98.6</ele>
        <time>2013-08-05T19:27:55.000Z</time>
      </trkpt>
      <trkpt lat="48.82548" lon="2.34281">
        <ele>97.9</ele>
        <time>2013-08-05T19:27:56.000Z</time>
      </trkpt>
      <trkpt lat="48.82551" lon="2.34276">
        <ele>98.3</ele>
        <time>2013-08-05T19:27:57.000Z</time>
      </trkpt>
      <trkpt lat="48.82554" lon="2.34271">
        <ele>98.9</ele>
        <time>2013-08-05T19:27:58.000Z</time>
      </trkpt>
      <trkpt lat="48.82558" lon="2.34265">
        <ele>98.5</ele>
        <time>2013-08-05T19:27:59.000Z</time>
      </trkpt>
      <trkpt lat="48.82562" lon="2.34261">
        <ele>99.1</ele>
        <time>2013-08-05T19:28:00.000Z</time>
      </trkpt>
      <trkpt lat="48.82566" lon="2.34256">
        <ele>99.3</ele>
        <time>2013-08-05T19:28:01.000Z</time>
      </trkpt>
      <trkpt lat="48.8257" lon="2.34251">
        <ele>100.1</ele>
        <time>2013-08-05T19:28:02.000Z</time>
      </trkpt>
      <trkpt lat="48.82575" lon="2.34245">
        <ele>98.9</ele>
        <time>2013-08-05T19:28:03.000Z</time>
      </trkpt>
      <trkpt lat="48.82579" lon="2.3424">
        <ele>98.5</ele>
        <time>2013-08-05T19:28:04.000Z</time>
      </trkpt>
      <trkpt lat="48.82583" lon="2.34234">
        <ele>98.5</ele>
        <time>2013-08-05T19:28:05.000Z</time>
      </trkpt>
      <trkpt lat="48.82586" lon="2.34229">
        <ele>99.3</ele>
        <time>2013-08-05T19:28:06.000Z</time>
      </trkpt>
      <trkpt lat="48.8259" lon="2.34223">
        <ele>99.2</ele>
        <time>2013-08-05T19:28:07.000Z</time>
      </trkpt>
      <trkpt lat="48.82593" lon="2.34217">
        <ele>99.3</ele>
        <time>2013-08-05T19:28:08.000Z</time>
      </trkpt>
      <trkpt lat="48.82597" lon="2.34213">
        <ele>99.6</ele>
        <time>2013-08-05T19:28:09.000Z</time>
      </trkpt>
      <trkpt lat="48.826" lon="2.34209">
        <ele>99.8</ele>
        <time>2013-08-05T19:28:10.000Z</time>
      </trkpt>
      <trkpt lat="48.82604" lon="2.34205">
        <ele>99.1</ele>
        <time>2013-08-05T19:28:11.000Z</time>
      </trkpt>
      <trkpt lat="48.82607" lon="2.34202">
        <ele>98.9</ele>
        <time>2013-08-05T19:28:12.000Z</time>
      </trkpt>
      <trkpt lat="48.8261" lon="2.34199">
        <ele>98.8</ele>
        <time>2013-08-05T19:28:13.000Z</time>
      </trkpt>
      <trkpt lat="48.82612" lon="2.34196">
        <ele>99.2</ele>
        <time>2013-08-05T19:28:14.000Z</time>
      </trkpt>
      <trkpt lat="48.82614" lon="2.34191">
        <ele>99</ele>
        <time>2013-08-05T19:28:15.000Z</time>
      </trkpt>
      <trkpt lat="48.82617" lon="2.34189">
        <ele>97.8</ele>
        <time>2013-08-05T19:28:16.000Z</time>
      </trkpt>
      <trkpt lat="48.82618" lon="2.34187">
        <ele>98.6</ele>
        <time>2013-08-05T19:28:17.000Z</time>
      </trkpt>
      <trkpt lat="48.82619" lon="2.34184">
        <ele>98.3</ele>
        <time>2013-08-05T19:28:18.000Z</time>
      </trkpt>
      <trkpt lat="48.82621" lon="2.34181">
        <ele>97.5</ele>
        <time>2013-08-05T19:28:19.000Z</time>
      </trkpt>
      <trkpt lat="48.82624" lon="2.34181">
        <ele>97.6</ele>
        <time>2013-08-05T19:28:20.000Z</time>
      </trkpt>
      <trkpt lat="48.82626" lon="2.3418">
        <ele>98.1</ele>
        <time>2013-08-05T19:28:21.000Z</time>
      </trkpt>
      <trkpt lat="48.8263" lon="2.3418">
        <ele>98</ele>
        <time>2013-08-05T19:28:23.000Z</time>
      </trkpt>
      <trkpt lat="48.82631" lon="2.34182">
        <ele>97.8</ele>
        <time>2013-08-05T19:28:24.000Z</time>
      </trkpt>
      <trkpt lat="48.82635" lon="2.34182">
        <ele>97.1</ele>
        <time>2013-08-05T19:28:27.000Z</time>
      </trkpt>
      <trkpt lat="48.82636" lon="2.34181">
        <ele>96.6</ele>
        <time>2013-08-05T19:28:28.000Z</time>
      </trkpt>
      <trkpt lat="48.82639" lon="2.34181">
        <ele>96.5</ele>
        <time>2013-08-05T19:28:29.000Z</time>
      </trkpt>
      <trkpt lat="48.82642" lon="2.3418">
        <ele>96.7</ele>
        <time>2013-08-05T19:28:30.000Z</time>
      </trkpt>
      <trkpt lat="48.82645" lon="2.34179">
        <ele>97.3</ele>
        <time>2013-08-05T19:28:31.000Z</time>
      </trkpt>
      <trkpt lat="48.82648" lon="2.34178">
        <ele>97.6</ele>
        <time>2013-08-05T19:28:32.000Z</time>
      </trkpt>
      <trkpt lat="48.82651" lon="2.34178">
        <ele>98.5</ele>
        <time>2013-08-05T19:28:33.000Z</time>
      </trkpt>
      <trkpt lat="48.82655" lon="2.34178">
        <ele>99.4</ele>
        <time>2013-08-05T19:28:34.000Z</time>
      </trkpt>
      <trkpt lat="48.82658" lon="2.34179">
        <ele>100.7</ele>
        <time>2013-08-05T19:28:35.000Z</time>
      </trkpt>
      <trkpt lat="48.82661" lon="2.34179">
        <ele>100.9</ele>
        <time>2013-08-05T19:28:36.000Z</time>
      </trkpt>
      <trkpt lat="48.82665" lon="2.34179">
        <ele>101.5</ele>
        <time>2013-08-05T19:28:37.000Z</time>
      </trkpt>
      <trkpt lat="48.82669" lon="2.3418">
        <ele>102.2</ele>
        <time>2013-08-05T19:28:38.000Z</time>
      </trkpt>
      <trkpt lat="48.82673" lon="2.34181">
        <ele>103</ele>
        <time>2013-08-05T19:28:39.000Z</time>
      </trkpt>
      <trkpt lat="48.82677" lon="2.34181">
        <ele>104</ele>
        <time>2013-08-05T19:28:40.000Z</time>
      </trkpt>
      <trkpt lat="48.82682" lon="2.34182">
        <ele>103.7</ele>
        <time>2013-08-05T19:28:41.000Z</time>
      </trkpt>
      <trkpt lat="48.82686" lon="2.34182">
        <ele>103.7</ele>
        <time>2013-08-05T19:28:42.000Z</time>
      </trkpt>
      <trkpt lat="48.82693" lon="2.34184">
        <ele>103.5</ele>
        <time>2013-08-05T19:28:43.000Z</time>
      </trkpt>
      <trkpt lat="48.82699" lon="2.34185">
        <ele>104</ele>
        <time>2013-08-05T19:28:44.000Z</time>
      </trkpt>
      <trkpt lat="48.82703" lon="2.34187">
        <ele>103.9</ele>
        <time>2013-08-05T19:28:45.000Z</time>
      </trkpt>
      <trkpt lat="48.82708" lon="2.34188">
        <ele>104</ele>
        <time>2013-08-05T19:28:46.000Z</time>
      </trkpt>
      <trkpt lat="48.82712" lon="2.34189">
        <ele>104.8</ele>
        <time>2013-08-05T19:28:47.000Z</time>
      </trkpt>
      <trkpt lat="48.82717" lon="2.3419">
        <ele>106.7</ele>
        <time>2013-08-05T19:28:48.000Z</time>
      </trkpt>
      <trkpt lat="48.82723" lon="2.34192">
        <ele>106.3</ele>
        <time>2013-08-05T19:28:49.000Z</time>
      </trkpt>
      <trkpt lat="48.82728" lon="2.34195">
        <ele>106</ele>
        <time>2013-08-05T19:28:50.000Z</time>
      </trkpt>
      <trkpt lat="48.82734" lon="2.34195">
        <ele>106.4</ele>
        <time>2013-08-05T19:28:51.000Z</time>
      </trkpt>
      <trkpt lat="48.82745" lon="2.34196">
        <ele>106.7</ele>
        <time>2013-08-05T19:28:53.131Z</time>
      </trkpt>
      <trkpt lat="48.82749" lon="2.34194">
        <ele>108</ele>
        <time>2013-08-05T19:28:54.000Z</time>
      </trkpt>
      <trkpt lat="48.82755" lon="2.34194">
        <ele>107.9</ele>
        <time>2013-08-05T19:28:55.000Z</time>
      </trkpt>
      <trkpt lat="48.8276" lon="2.34196">
        <ele>108.6</ele>
        <time>2013-08-05T19:28:56.000Z</time>
      </trkpt>
      <trkpt lat="48.82765" lon="2.34194">
        <ele>109.7</ele>
        <time>2013-08-05T19:28:57.000Z</time>
      </trkpt>
      <trkpt lat="48.82772" lon="2.34192">
        <ele>110</ele>
        <time>2013-08-05T19:28:58.000Z</time>
      </trkpt>
      <trkpt lat="48.82779" lon="2.3419">
        <ele>109.4</ele>
        <time>2013-08-05T19:28:59.000Z</time>
      </trkpt>
      <trkpt lat="48.82785" lon="2.34189">
        <ele>109.8</ele>
        <time>2013-08-05T19:29:00.000Z</time>
      </trkpt>
      <trkpt lat="48.82791" lon="2.3419">
        <ele>109.9</ele>
        <time>2013-08-05T19:29:01.000Z</time>
      </trkpt>
      <trkpt lat="48.82796" lon="2.34192">
        <ele>111.4</ele>
        <time>2013-08-05T19:29:02.000Z</time>
      </trkpt>
      <trkpt lat="48.82802" lon="2.34193">
        <ele>111.3</ele>
        <time>2013-08-05T19:29:03.000Z</time>
      </trkpt>
      <trkpt lat="48.82807" lon="2.34194">
        <ele>112.3</ele>
        <time>2013-08-05T19:29:04.000Z</time>
      </trkpt>
      <trkpt lat="48.82813" lon="2.34194">
        <ele>112.7</ele>
        <time>2013-08-05T19:29:05.000Z</time>
      </trkpt>
      <trkpt lat="48.82818" lon="2.34197">
        <ele>112.6</ele>
        <time>2013-08-05T19:29:06.000Z</time>
      </trkpt>
      <trkpt lat="48.82822" lon="2.3421">
        <ele>112.9</ele>
        <time>2013-08-05T19:29:07.000Z</time>
      </trkpt>
      <trkpt lat="48.82827" lon="2.34215">
        <ele>113.9</ele>
        <time>2013-08-05T19:29:08.000Z</time>
      </trkpt>
      <trkpt lat="48.82832" lon="2.34219">
        <ele>114.4</ele>
        <time>2013-08-05T19:29:09.000Z</time>
      </trkpt>
      <trkpt lat="48.82838" lon="2.34225">
        <ele>114.2</ele>
        <time>2013-08-05T19:29:10.000Z</time>
      </trkpt>
      <trkpt lat="48.82842" lon="2.34236">
        <ele>113.9</ele>
        <time>2013-08-05T19:29:11.000Z</time>
      </trkpt>
      <trkpt lat="48.82847" lon="2.34249">
        <ele>112.5</ele>
        <time>2013-08-05T19:29:12.000Z</time>
      </trkpt>
      <trkpt lat="48.82852" lon="2.34258">
        <ele>111.9</ele>
        <time>2013-08-05T19:29:13.000Z</time>
      </trkpt>
      <trkpt lat="48.82856" lon="2.34265">
        <ele>111.9</ele>
        <time>2013-08-05T19:29:14.000Z</time>
      </trkpt>
      <trkpt lat="48.8286" lon="2.34272">
        <ele>111.7</ele>
        <time>2013-08-05T19:29:15.000Z</time>
      </trkpt>
      <trkpt lat="48.82867" lon="2.34274">
        <ele>109.1</ele>
        <time>2013-08-05T19:29:16.000Z</time>
      </trkpt>
      <trkpt lat="48.82872" lon="2.34278">
        <ele>109.2</ele>
        <time>2013-08-05T19:29:17.000Z</time>
      </trkpt>
      <trkpt lat="48.82877" lon="2.34284">
        <ele>109</ele>
        <time>2013-08-05T19:29:18.000Z</time>
      </trkpt>
      <trkpt lat="48.82883" lon="2.34288">
        <ele>109.2</ele>
        <time>2013-08-05T19:29:19.000Z</time>
      </trkpt>
      <trkpt lat="48.82888" lon="2.34289">
        <ele>109.7</ele>
        <time>2013-08-05T19:29:20.000Z</time>
      </trkpt>
      <trkpt lat="48.82892" lon="2.34295">
        <ele>109</ele>
        <time>2013-08-05T19:29:21.000Z</time>
      </trkpt>
      <trkpt lat="48.82898" lon="2.34297">
        <ele>109.8</ele>
        <time>2013-08-05T19:29:22.000Z</time>
      </trkpt>
      <trkpt lat="48.82903" lon="2.34302">
        <ele>110.8</ele>
        <time>2013-08-05T19:29:23.000Z</time>
      </trkpt>
      <trkpt lat="48.82909" lon="2.34306">
        <ele>109.6</ele>
        <time>2013-08-05T19:29:24.000Z</time>
      </trkpt>
      <trkpt lat="48.82915" lon="2.34309">
        <ele>107.1</ele>
        <time>2013-08-05T19:29:25.000Z</time>
      </trkpt>
      <trkpt lat="48.82921" lon="2.34312">
        <ele>106.4</ele>
        <time>2013-08-05T19:29:26.000Z</time>
      </trkpt>
      <trkpt lat="48.82926" lon="2.34315">
        <ele>106.6</ele>
        <time>2013-08-05T19:29:27.000Z</time>
      </trkpt>
      <trkpt lat="48.82931" lon="2.34316">
        <ele>108.1</ele>
        <time>2013-08-05T19:29:28.000Z</time>
      </trkpt>
      <trkpt lat="48.82936" lon="2.3432">
        <ele>108.3</ele>
        <time>2013-08-05T19:29:29.000Z</time>
      </trkpt>
      <trkpt lat="48.82941" lon="2.34322">
        <ele>109.4</ele>
        <time>2013-08-05T19:29:30.000Z</time>
      </trkpt>
      <trkpt lat="48.82946" lon="2.34326">
        <ele>108.7</ele>
        <time>2013-08-05T19:29:31.000Z</time>
      </trkpt>
      <trkpt lat="48.82952" lon="2.34328">
        <ele>109.3</ele>
        <time>2013-08-05T19:29:32.000Z</time>
      </trkpt>
      <trkpt lat="48.82957" lon="2.34331">
        <ele>109.5</ele>
        <time>2013-08-05T19:29:33.000Z</time>
      </trkpt>
      <trkpt lat="48.82963" lon="2.34336">
        <ele>109.7</ele>
        <time>2013-08-05T19:29:34.000Z</time>
      </trkpt>
      <trkpt lat="48.8297" lon="2.34341">
        <ele>110.3</ele>
        <time>2013-08-05T19:29:35.000Z</time>
      </trkpt>
      <trkpt lat="48.82976" lon="2.34343">
        <ele>110.4</ele>
        <time>2013-08-05T19:29:36.000Z</time>
      </trkpt>
      <trkpt lat="48.82981" lon="2.34346">
        <ele>110.1</ele>
        <time>2013-08-05T19:29:37.000Z</time>
      </trkpt>
      <trkpt lat="48.82988" lon="2.34351">
        <ele>111</ele>
        <time>2013-08-05T19:29:38.000Z</time>
      </trkpt>
      <trkpt lat="48.82994" lon="2.34355">
        <ele>110.5</ele>
        <time>2013-08-05T19:29:39.000Z</time>
      </trkpt>
      <trkpt lat="48.83" lon="2.34358">
        <ele>111.9</ele>
        <time>2013-08-05T19:29:40.000Z</time>
      </trkpt>
      <trkpt lat="48.83005" lon="2.34362">
        <ele>113.3</ele>
        <time>2013-08-05T19:29:41.000Z</time>
      </trkpt>
      <trkpt lat="48.83011" lon="2.34365">
        <ele>113.9</ele>
        <time>2013-08-05T19:29:42.000Z</time>
      </trkpt>
      <trkpt lat="48.83017" lon="2.34369">
        <ele>114</ele>
        <time>2013-08-05T19:29:43.000Z</time>
      </trkpt>
      <trkpt lat="48.83022" lon="2.34371">
        <ele>114</ele>
        <time>2013-08-05T19:29:44.000Z</time>
      </trkpt>
      <trkpt lat="48.83027" lon="2.34374">
        <ele>114.8</ele>
        <time>2013-08-05T19:29:45.000Z</time>
      </trkpt>
      <trkpt lat="48.83031" lon="2.34377">
        <ele>115.5</ele>
        <time>2013-08-05T19:29:46.000Z</time>
      </trkpt>
      <trkpt lat="48.83037" lon="2.34381">
        <ele>115.1</ele>
        <time>2013-08-05T19:29:47.000Z</time>
      </trkpt>
      <trkpt lat="48.83043" lon="2.34389">
        <ele>112.9</ele>
        <time>2013-08-05T19:29:48.000Z</time>
      </trkpt>
      <trkpt lat="48.83048" lon="2.3439">
        <ele>111.2</ele>
        <time>2013-08-05T19:29:49.000Z</time>
      </trkpt>
      <trkpt lat="48.83055" lon="2.34394">
        <ele>110</ele>
        <time>2013-08-05T19:29:50.000Z</time>
      </trkpt>
      <trkpt lat="48.8306" lon="2.34398">
        <ele>110.2</ele>
        <time>2013-08-05T19:29:51.000Z</time>
      </trkpt>
      <trkpt lat="48.83072" lon="2.34404">
        <ele>109.1</ele>
        <time>2013-08-05T19:29:54.000Z</time>
      </trkpt>
      <trkpt lat="48.83076" lon="2.34404">
        <ele>107.8</ele>
        <time>2013-08-05T19:29:55.000Z</time>
      </trkpt>
      <trkpt lat="48.8308" lon="2.34405">
        <ele>107.4</ele>
        <time>2013-08-05T19:29:56.000Z</time>
      </trkpt>
      <trkpt lat="48.83084" lon="2.34406">
        <ele>108.2</ele>
        <time>2013-08-05T19:29:57.000Z</time>
      </trkpt>
      <trkpt lat="48.83088" lon="2.34407">
        <ele>108.9</ele>
        <time>2013-08-05T19:29:58.000Z</time>
      </trkpt>
      <trkpt lat="48.83092" lon="2.34411">
        <ele>109.3</ele>
        <time>2013-08-05T19:29:59.000Z</time>
      </trkpt>
      <trkpt lat="48.83099" lon="2.34413">
        <ele>108.7</ele>
        <time>2013-08-05T19:30:00.000Z</time>
      </trkpt>
      <trkpt lat="48.83105" lon="2.34414">
        <ele>107.3</ele>
        <time>2013-08-05T19:30:01.000Z</time>
      </trkpt>
      <trkpt lat="48.83108" lon="2.34416">
        <ele>106.3</ele>
        <time>2013-08-05T19:30:02.000Z</time>
      </trkpt>
      <trkpt lat="48.83111" lon="2.34416">
        <ele>105.2</ele>
        <time>2013-08-05T19:30:03.000Z</time>
      </trkpt>
      <trkpt lat="48.83114" lon="2.34416">
        <ele>105.5</ele>
        <time>2013-08-05T19:30:04.000Z</time>
      </trkpt>
      <trkpt lat="48.83116" lon="2.34415">
        <ele>105.9</ele>
        <time>2013-08-05T19:30:05.000Z</time>
      </trkpt>
      <trkpt lat="48.83119" lon="2.34419">
        <ele>105.6</ele>
        <time>2013-08-05T19:30:06.000Z</time>
      </trkpt>
      <trkpt lat="48.83122" lon="2.34422">
        <ele>107.2</ele>
        <time>2013-08-05T19:30:07.000Z</time>
      </trkpt>
      <trkpt lat="48.83124" lon="2.34422">
        <ele>108.8</ele>
        <time>2013-08-05T19:30:08.000Z</time>
      </trkpt>
      <trkpt lat="48.83128" lon="2.34423">
        <ele>108.8</ele>
        <time>2013-08-05T19:30:09.000Z</time>
      </trkpt>
      <trkpt lat="48.83131" lon="2.34424">
        <ele>109.3</ele>
        <time>2013-08-05T19:30:10.000Z</time>
      </trkpt>
      <trkpt lat="48.83133" lon="2.34425">
        <ele>109.4</ele>
        <time>2013-08-05T19:30:11.000Z</time>
      </trkpt>
      <trkpt lat="48.83137" lon="2.34425">
        <ele>109.7</ele>
        <time>2013-08-05T19:30:12.000Z</time>
      </trkpt>
      <trkpt lat="48.83141" lon="2.34426">
        <ele>111.1</ele>
        <time>2013-08-05T19:30:13.000Z</time>
      </trkpt>
      <trkpt lat="48.83145" lon="2.34427">
        <ele>111.6</ele>
        <time>2013-08-05T19:30:14.000Z</time>
      </trkpt>
      <trkpt lat="48.8315" lon="2.34428">
        <ele>112.6</ele>
        <time>2013-08-05T19:30:15.000Z</time>
      </trkpt>
      <trkpt lat="48.83154" lon="2.34429">
        <ele>114.1</ele>
        <time>2013-08-05T19:30:16.000Z</time>
      </trkpt>
      <trkpt lat="48.83158" lon="2.34429">
        <ele>114.9</ele>
        <time>2013-08-05T19:30:17.000Z</time>
      </trkpt>
      <trkpt lat="48.83163" lon="2.3443">
        <ele>115.2</ele>
        <time>2013-08-05T19:30:18.000Z</time>
      </trkpt>
      <trkpt lat="48.83167" lon="2.3443">
        <ele>115.8</ele>
        <time>2013-08-05T19:30:19.000Z</time>
      </trkpt>
      <trkpt lat="48.83171" lon="2.34431">
        <ele>116.1</ele>
        <time>2013-08-05T19:30:20.000Z</time>
      </trkpt>
      <trkpt lat="48.83174" lon="2.34432">
        <ele>116.8</ele>
        <time>2013-08-05T19:30:21.000Z</time>
      </trkpt>
      <trkpt lat="48.83177" lon="2.34433">
        <ele>118.8</ele>
        <time>2013-08-05T19:30:22.000Z</time>
      </trkpt>
      <trkpt lat="48.8318" lon="2.34435">
        <ele>119.9</ele>
        <time>2013-08-05T19:30:23.000Z</time>
      </trkpt>
      <trkpt lat="48.83184" lon="2.34436">
        <ele>120.7</ele>
        <time>2013-08-05T19:30:24.000Z</time>
      </trkpt>
      <trkpt lat="48.83187" lon="2.34439">
        <ele>123.7</ele>
        <time>2013-08-05T19:30:25.000Z</time>
      </trkpt>
      <trkpt lat="48.8319" lon="2.34441">
        <ele>124.1</ele>
        <time>2013-08-05T19:30:26.000Z</time>
      </trkpt>
      <trkpt lat="48.83194" lon="2.34442">
        <ele>124.2</ele>
        <time>2013-08-05T19:30:27.000Z</time>
      </trkpt>
      <trkpt lat="48.83198" lon="2.34443">
        <ele>123.9</ele>
        <time>2013-08-05T19:30:28.000Z</time>
      </trkpt>
      <trkpt lat="48.83204" lon="2.34445">
        <ele>124.1</ele>
        <time>2013-08-05T19:30:29.000Z</time>
      </trkpt>
      <trkpt lat="48.8321" lon="2.34443">
        <ele>125.6</ele>
        <time>2013-08-05T19:30:30.000Z</time>
      </trkpt>
      <trkpt lat="48.83216" lon="2.34445">
        <ele>126.5</ele>
        <time>2013-08-05T19:30:31.000Z</time>
      </trkpt>
      <trkpt lat="48.83223" lon="2.34446">
        <ele>125.6</ele>
        <time>2013-08-05T19:30:32.000Z</time>
      </trkpt>
      <trkpt lat="48.83229" lon="2.34448">
        <ele>125.6</ele>
        <time>2013-08-05T19:30:33.000Z</time>
      </trkpt>
      <trkpt lat="48.83233" lon="2.3445">
        <ele>125.8</ele>
        <time>2013-08-05T19:30:34.000Z</time>
      </trkpt>
      <trkpt lat="48.8324" lon="2.34449">
        <ele>125.6</ele>
        <time>2013-08-05T19:30:35.000Z</time>
      </trkpt>
      <trkpt lat="48.83246" lon="2.34449">
        <ele>126</ele>
        <time>2013-08-05T19:30:36.000Z</time>
      </trkpt>
      <trkpt lat="48.83252" lon="2.34449">
        <ele>126</ele>
        <time>2013-08-05T19:30:37.000Z</time>
      </trkpt>
      <trkpt lat="48.83259" lon="2.3445">
        <ele>125.3</ele>
        <time>2013-08-05T19:30:38.000Z</time>
      </trkpt>
      <trkpt lat="48.83265" lon="2.34452">
        <ele>125.1</ele>
        <time>2013-08-05T19:30:39.000Z</time>
      </trkpt>
      <trkpt lat="48.83273" lon="2.34455">
        <ele>126.5</ele>
        <time>2013-08-05T19:30:40.000Z</time>
      </trkpt>
      <trkpt lat="48.83278" lon="2.34455">
        <ele>127.9</ele>
        <time>2013-08-05T19:30:41.000Z</time>
      </trkpt>
      <trkpt lat="48.83283" lon="2.34458">
        <ele>128.1</ele>
        <time>2013-08-05T19:30:42.000Z</time>
      </trkpt>
      <trkpt lat="48.83288" lon="2.3446">
        <ele>127.7</ele>
        <time>2013-08-05T19:30:43.000Z</time>
      </trkpt>
      <trkpt lat="48.83293" lon="2.34462">
        <ele>127.8</ele>
        <time>2013-08-05T19:30:44.000Z</time>
      </trkpt>
      <trkpt lat="48.833" lon="2.34464">
        <ele>127.8</ele>
        <time>2013-08-05T19:30:45.000Z</time>
      </trkpt>
      <trkpt lat="48.83307" lon="2.34464">
        <ele>127.5</ele>
        <time>2013-08-05T19:30:46.000Z</time>
      </trkpt>
      <trkpt lat="48.83311" lon="2.34464">
        <ele>127.7</ele>
        <time>2013-08-05T19:30:47.000Z</time>
      </trkpt>
      <trkpt lat="48.83317" lon="2.34467">
        <ele>129.5</ele>
        <time>2013-08-05T19:30:48.000Z</time>
      </trkpt>
      <trkpt lat="48.83323" lon="2.34467">
        <ele>129.3</ele>
        <time>2013-08-05T19:30:49.000Z</time>
      </trkpt>
      <trkpt lat="48.83328" lon="2.34469">
        <ele>129.8</ele>
        <time>2013-08-05T19:30:50.000Z</time>
      </trkpt>
      <trkpt lat="48.83336" lon="2.34474">
        <ele>128.1</ele>
        <time>2013-08-05T19:30:51.000Z</time>
      </trkpt>
      <trkpt lat="48.83346" lon="2.34476">
        <ele>128.3</ele>
        <time>2013-08-05T19:30:52.708Z</time>
      </trkpt>
      <trkpt lat="48.83353" lon="2.34479">
        <ele>128.7</ele>
        <time>2013-08-05T19:30:54.000Z</time>
      </trkpt>
      <trkpt lat="48.83359" lon="2.3448">
        <ele>129.2</ele>
        <time>2013-08-05T19:30:55.000Z</time>
      </trkpt>
      <trkpt lat="48.83364" lon="2.3448">
        <ele>129.4</ele>
        <time>2013-08-05T19:30:56.000Z</time>
      </trkpt>
      <trkpt lat="48.83369" lon="2.34481">
        <ele>130.6</ele>
        <time>2013-08-05T19:30:57.000Z</time>
      </trkpt>
      <trkpt lat="48.83372" lon="2.34482">
        <ele>130.7</ele>
        <time>2013-08-05T19:30:58.000Z</time>
      </trkpt>
      <trkpt lat="48.83378" lon="2.34482">
        <ele>129.4</ele>
        <time>2013-08-05T19:30:59.000Z</time>
      </trkpt>
      <trkpt lat="48.83382" lon="2.34485">
        <ele>129.1</ele>
        <time>2013-08-05T19:31:00.000Z</time>
      </trkpt>
      <trkpt lat="48.83388" lon="2.34486">
        <ele>128.8</ele>
        <time>2013-08-05T19:31:01.000Z</time>
      </trkpt>
      <trkpt lat="48.83396" lon="2.34484">
        <ele>126.1</ele>
        <time>2013-08-05T19:31:02.000Z</time>
      </trkpt>
      <trkpt lat="48.83402" lon="2.34483">
        <ele>124.8</ele>
        <time>2013-08-05T19:31:03.000Z</time>
      </trkpt>
      <trkpt lat="48.83411" lon="2.3449">
        <ele>120.5</ele>
        <time>2013-08-05T19:31:04.000Z</time>
      </trkpt>
      <trkpt lat="48.83417" lon="2.34492">
        <ele>119.3</ele>
        <time>2013-08-05T19:31:05.000Z</time>
      </trkpt>
      <trkpt lat="48.83422" lon="2.34492">
        <ele>118.5</ele>
        <time>2013-08-05T19:31:06.000Z</time>
      </trkpt>
      <trkpt lat="48.83426" lon="2.34491">
        <ele>119.5</ele>
        <time>2013-08-05T19:31:07.000Z</time>
      </trkpt>
      <trkpt lat="48.8343" lon="2.34493">
        <ele>119.6</ele>
        <time>2013-08-05T19:31:08.000Z</time>
      </trkpt>
      <trkpt lat="48.83434" lon="2.34491">
        <ele>119.1</ele>
        <time>2013-08-05T19:31:09.000Z</time>
      </trkpt>
      <trkpt lat="48.83438" lon="2.34495">
        <ele>118.8</ele>
        <time>2013-08-05T19:31:10.000Z</time>
      </trkpt>
      <trkpt lat="48.83443" lon="2.34495">
        <ele>118.9</ele>
        <time>2013-08-05T19:31:11.000Z</time>
      </trkpt>
      <trkpt lat="48.83448" lon="2.34497">
        <ele>118.9</ele>
        <time>2013-08-05T19:31:12.000Z</time>
      </trkpt>
      <trkpt lat="48.83452" lon="2.34495">
        <ele>119</ele>
        <time>2013-08-05T19:31:13.000Z</time>
      </trkpt>
      <trkpt lat="48.83456" lon="2.34496">
        <ele>118.8</ele>
        <time>2013-08-05T19:31:14.000Z</time>
      </trkpt>
      <trkpt lat="48.83459" lon="2.34495">
        <ele>119.9</ele>
        <time>2013-08-05T19:31:15.000Z</time>
      </trkpt>
      <trkpt lat="48.83462" lon="2.34494">
        <ele>121.8</ele>
        <time>2013-08-05T19:31:16.000Z</time>
      </trkpt>
      <trkpt lat="48.83466" lon="2.34494">
        <ele>120.1</ele>
        <time>2013-08-05T19:31:17.000Z</time>
      </trkpt>
      <trkpt lat="48.83472" lon="2.34493">
        <ele>114.8</ele>
        <time>2013-08-05T19:31:18.000Z</time>
      </trkpt>
      <trkpt lat="48.83474" lon="2.34491">
        <ele>114.4</ele>
        <time>2013-08-05T19:31:19.000Z</time>
      </trkpt>
      <trkpt lat="48.83477" lon="2.34491">
        <ele>113.7</ele>
        <time>2013-08-05T19:31:20.000Z</time>
      </trkpt>
      <trkpt lat="48.8348" lon="2.34491">
        <ele>113.6</ele>
        <time>2013-08-05T19:31:22.000Z</time>
      </trkpt>
      <trkpt lat="48.83482" lon="2.34492">
        <ele>113.7</ele>
        <time>2013-08-05T19:31:23.000Z</time>
      </trkpt>
      <trkpt lat="48.83486" lon="2.34493">
        <ele>111.8</ele>
        <time>2013-08-05T19:31:27.000Z</time>
      </trkpt>
      <trkpt lat="48.83487" lon="2.34494">
        <ele>111.5</ele>
        <time>2013-08-05T19:31:28.000Z</time>
      </trkpt>
      <trkpt lat="48.83491" lon="2.34496">
        <ele>108.4</ele>
        <time>2013-08-05T19:31:32.000Z</time>
      </trkpt>
      <trkpt lat="48.83493" lon="2.34496">
        <ele>109</ele>
        <time>2013-08-05T19:31:33.000Z</time>
      </trkpt>
      <trkpt lat="48.83497" lon="2.34498">
        <ele>110.3</ele>
        <time>2013-08-05T19:31:35.000Z</time>
      </trkpt>
      <trkpt lat="48.83499" lon="2.345">
        <ele>110.1</ele>
        <time>2013-08-05T19:31:36.000Z</time>
      </trkpt>
      <trkpt lat="48.83504" lon="2.34501">
        <ele>111</ele>
        <time>2013-08-05T19:31:38.000Z</time>
      </trkpt>
      <trkpt lat="48.83506" lon="2.34502">
        <ele>112.2</ele>
        <time>2013-08-05T19:31:39.000Z</time>
      </trkpt>
      <trkpt lat="48.83508" lon="2.34502">
        <ele>114.1</ele>
        <time>2013-08-05T19:31:40.000Z</time>
      </trkpt>
      <trkpt lat="48.83511" lon="2.34504">
        <ele>114</ele>
        <time>2013-08-05T19:31:41.000Z</time>
      </trkpt>
      <trkpt lat="48.83514" lon="2.34506">
        <ele>114.9</ele>
        <time>2013-08-05T19:31:42.000Z</time>
      </trkpt>
      <trkpt lat="48.83517" lon="2.34507">
        <ele>114.9</ele>
        <time>2013-08-05T19:31:43.000Z</time>
      </trkpt>
      <trkpt lat="48.8352" lon="2.34509">
        <ele>116.3</ele>
        <time>2013-08-05T19:31:44.000Z</time>
      </trkpt>
      <trkpt lat="48.83523" lon="2.3451">
        <ele>117.3</ele>
        <time>2013-08-05T19:31:45.000Z</time>
      </trkpt>
      <trkpt lat="48.83526" lon="2.34512">
        <ele>118.4</ele>
        <time>2013-08-05T19:31:46.000Z</time>
      </trkpt>
      <trkpt lat="48.8353" lon="2.34513">
        <ele>118.9</ele>
        <time>2013-08-05T19:31:47.000Z</time>
      </trkpt>
      <trkpt lat="48.83533" lon="2.34513">
        <ele>119.5</ele>
        <time>2013-08-05T19:31:48.000Z</time>
      </trkpt>
      <trkpt lat="48.83537" lon="2.34513">
        <ele>119.9</ele>
        <time>2013-08-05T19:31:49.000Z</time>
      </trkpt>
      <trkpt lat="48.8354" lon="2.34513">
        <ele>119.1</ele>
        <time>2013-08-05T19:31:50.000Z</time>
      </trkpt>
      <trkpt lat="48.83545" lon="2.34512">
        <ele>119.6</ele>
        <time>2013-08-05T19:31:51.000Z</time>
      </trkpt>
      <trkpt lat="48.83557" lon="2.34514">
        <ele>120.1</ele>
        <time>2013-08-05T19:31:54.000Z</time>
      </trkpt>
      <trkpt lat="48.83562" lon="2.34516">
        <ele>120.7</ele>
        <time>2013-08-05T19:31:55.000Z</time>
      </trkpt>
      <trkpt lat="48.83566" lon="2.34519">
        <ele>120.6</ele>
        <time>2013-08-05T19:31:56.000Z</time>
      </trkpt>
      <trkpt lat="48.83573" lon="2.34519">
        <ele>119.8</ele>
        <time>2013-08-05T19:31:57.000Z</time>
      </trkpt>
      <trkpt lat="48.83578" lon="2.34519">
        <ele>119.3</ele>
        <time>2013-08-05T19:31:58.000Z</time>
      </trkpt>
      <trkpt lat="48.83582" lon="2.34518">
        <ele>119.2</ele>
        <time>2013-08-05T19:31:59.000Z</time>
      </trkpt>
      <trkpt lat="48.83587" lon="2.34519">
        <ele>119.7</ele>
        <time>2013-08-05T19:32:00.000Z</time>
      </trkpt>
      <trkpt lat="48.83592" lon="2.34519">
        <ele>119.9</ele>
        <time>2013-08-05T19:32:01.000Z</time>
      </trkpt>
      <trkpt lat="48.83597" lon="2.34521">
        <ele>120.2</ele>
        <time>2013-08-05T19:32:02.000Z</time>
      </trkpt>
      <trkpt lat="48.83602" lon="2.34514">
        <ele>121.4</ele>
        <time>2013-08-05T19:32:03.000Z</time>
      </trkpt>
      <trkpt lat="48.83609" lon="2.34516">
        <ele>119.7</ele>
        <time>2013-08-05T19:32:04.000Z</time>
      </trkpt>
      <trkpt lat="48.83616" lon="2.34517">
        <ele>119.2</ele>
        <time>2013-08-05T19:32:05.000Z</time>
      </trkpt>
      <trkpt lat="48.83624" lon="2.34516">
        <ele>118.5</ele>
        <time>2013-08-05T19:32:06.000Z</time>
      </trkpt>
      <trkpt lat="48.83631" lon="2.34522">
        <ele>118.6</ele>
        <time>2013-08-05T19:32:07.000Z</time>
      </trkpt>
      <trkpt lat="48.83636" lon="2.34523">
        <ele>120.3</ele>
        <time>2013-08-05T19:32:08.000Z</time>
      </trkpt>
      <trkpt lat="48.83642" lon="2.34524">
        <ele>122</ele>
        <time>2013-08-05T19:32:09.000Z</time>
      </trkpt>
      <trkpt lat="48.83647" lon="2.34526">
        <ele>122</ele>
        <time>2013-08-05T19:32:10.000Z</time>
      </trkpt>
      <trkpt lat="48.83651" lon="2.34526">
        <ele>122.5</ele>
        <time>2013-08-05T19:32:11.000Z</time>
      </trkpt>
      <trkpt lat="48.83655" lon="2.34527">
        <ele>122.9</ele>
        <time>2013-08-05T19:32:12.000Z</time>
      </trkpt>
      <trkpt lat="48.83662" lon="2.34533">
        <ele>122</ele>
        <time>2013-08-05T19:32:13.000Z</time>
      </trkpt>
      <trkpt lat="48.83669" lon="2.34532">
        <ele>121.3</ele>
        <time>2013-08-05T19:32:14.000Z</time>
      </trkpt>
      <trkpt lat="48.83677" lon="2.34536">
        <ele>120.8</ele>
        <time>2013-08-05T19:32:15.000Z</time>
      </trkpt>
      <trkpt lat="48.83681" lon="2.34538">
        <ele>120.5</ele>
        <time>2013-08-05T19:32:16.000Z</time>
      </trkpt>
      <trkpt lat="48.8369" lon="2.34537">
        <ele>120.4</ele>
        <time>2013-08-05T19:32:17.000Z</time>
      </trkpt>
      <trkpt lat="48.83695" lon="2.34536">
        <ele>120.3</ele>
        <time>2013-08-05T19:32:18.000Z</time>
      </trkpt>
      <trkpt lat="48.83702" lon="2.34536">
        <ele>120.8</ele>
        <time>2013-08-05T19:32:19.000Z</time>
      </trkpt>
      <trkpt lat="48.83706" lon="2.34538">
        <ele>120.3</ele>
        <time>2013-08-05T19:32:20.000Z</time>
      </trkpt>
      <trkpt lat="48.83711" lon="2.34539">
        <ele>120.1</ele>
        <time>2013-08-05T19:32:21.000Z</time>
      </trkpt>
      <trkpt lat="48.83714" lon="2.34543">
        <ele>119.8</ele>
        <time>2013-08-05T19:32:22.000Z</time>
      </trkpt>
      <trkpt lat="48.83718" lon="2.34544">
        <ele>119.9</ele>
        <time>2013-08-05T19:32:23.000Z</time>
      </trkpt>
      <trkpt lat="48.83721" lon="2.34544">
        <ele>119.6</ele>
        <time>2013-08-05T19:32:24.000Z</time>
      </trkpt>
      <trkpt lat="48.83725" lon="2.34545">
        <ele>119.5</ele>
        <time>2013-08-05T19:32:25.000Z</time>
      </trkpt>
      <trkpt lat="48.83727" lon="2.34548">
        <ele>119.3</ele>
        <time>2013-08-05T19:32:26.000Z</time>
      </trkpt>
      <trkpt lat="48.8373" lon="2.34548">
        <ele>119.4</ele>
        <time>2013-08-05T19:32:27.000Z</time>
      </trkpt>
      <trkpt lat="48.83735" lon="2.34552">
        <ele>118.8</ele>
        <time>2013-08-05T19:32:28.000Z</time>
      </trkpt>
      <trkpt lat="48.83736" lon="2.34552">
        <ele>120.7</ele>
        <time>2013-08-05T19:32:29.000Z</time>
      </trkpt>
      <trkpt lat="48.83742" lon="2.34545">
        <ele>113.6</ele>
        <time>2013-08-05T19:32:30.000Z</time>
      </trkpt>
      <trkpt lat="48.83747" lon="2.34549">
        <ele>112.6</ele>
        <time>2013-08-05T19:32:31.000Z</time>
      </trkpt>
      <trkpt lat="48.83749" lon="2.3455">
        <ele>111.9</ele>
        <time>2013-08-05T19:32:32.000Z</time>
      </trkpt>
      <trkpt lat="48.83752" lon="2.34552">
        <ele>111.6</ele>
        <time>2013-08-05T19:32:33.000Z</time>
      </trkpt>
      <trkpt lat="48.83754" lon="2.34553">
        <ele>111</ele>
        <time>2013-08-05T19:32:34.000Z</time>
      </trkpt>
      <trkpt lat="48.83756" lon="2.34553">
        <ele>111.6</ele>
        <time>2013-08-05T19:32:35.000Z</time>
      </trkpt>
      <trkpt lat="48.8376" lon="2.34556">
        <ele>108.7</ele>
        <time>2013-08-05T19:32:38.000Z</time>
      </trkpt>
      <trkpt lat="48.83761" lon="2.34556">
        <ele>110.4</ele>
        <time>2013-08-05T19:32:39.000Z</time>
      </trkpt>
      <trkpt lat="48.83765" lon="2.34555">
        <ele>111</ele>
        <time>2013-08-05T19:32:41.000Z</time>
      </trkpt>
      <trkpt lat="48.83766" lon="2.34554">
        <ele>111.4</ele>
        <time>2013-08-05T19:32:42.000Z</time>
      </trkpt>
      <trkpt lat="48.83769" lon="2.34552">
        <ele>110.8</ele>
        <time>2013-08-05T19:32:43.000Z</time>
      </trkpt>
      <trkpt lat="48.83771" lon="2.34549">
        <ele>110.3</ele>
        <time>2013-08-05T19:32:44.000Z</time>
      </trkpt>
      <trkpt lat="48.83773" lon="2.34546">
        <ele>110.3</ele>
        <time>2013-08-05T19:32:45.000Z</time>
      </trkpt>
      <trkpt lat="48.83774" lon="2.34541">
        <ele>108.3</ele>
        <time>2013-08-05T19:32:46.000Z</time>
      </trkpt>
      <trkpt lat="48.83775" lon="2.34537">
        <ele>105.2</ele>
        <time>2013-08-05T19:32:47.000Z</time>
      </trkpt>
      <trkpt lat="48.83776" lon="2.34532">
        <ele>104.2</ele>
        <time>2013-08-05T19:32:48.000Z</time>
      </trkpt>
      <trkpt lat="48.83776" lon="2.34527">
        <ele>104.3</ele>
        <time>2013-08-05T19:32:49.000Z</time>
      </trkpt>
      <trkpt lat="48.83776" lon="2.34522">
        <ele>105.3</ele>
        <time>2013-08-05T19:32:50.000Z</time>
      </trkpt>
      <trkpt lat="48.83776" lon="2.34517">
        <ele>103.2</ele>
        <time>2013-08-05T19:32:51.000Z</time>
      </trkpt>
      <trkpt lat="48.83777" lon="2.34509">
        <ele>103.3</ele>
        <time>2013-08-05T19:32:53.006Z</time>
      </trkpt>
      <trkpt lat="48.83778" lon="2.34505">
        <ele>104.2</ele>
        <time>2013-08-05T19:32:54.000Z</time>
      </trkpt>
      <trkpt lat="48.83779" lon="2.34501">
        <ele>105.1</ele>
        <time>2013-08-05T19:32:55.000Z</time>
      </trkpt>
      <trkpt lat="48.8378" lon="2.34497">
        <ele>105.2</ele>
        <time>2013-08-05T19:32:56.000Z</time>
      </trkpt>
      <trkpt lat="48.83781" lon="2.34492">
        <ele>105.2</ele>
        <time>2013-08-05T19:32:57.000Z</time>
      </trkpt>
      <trkpt lat="48.83781" lon="2.34488">
        <ele>104.9</ele>
        <time>2013-08-05T19:32:58.000Z</time>
      </trkpt>
      <trkpt lat="48.83782" lon="2.34483">
        <ele>104.6</ele>
        <time>2013-08-05T19:32:59.000Z</time>
      </trkpt>
      <trkpt lat="48.83783" lon="2.34478">
        <ele>102.2</ele>
        <time>2013-08-05T19:33:00.000Z</time>
      </trkpt>
      <trkpt lat="48.83783" lon="2.34472">
        <ele>101.9</ele>
        <time>2013-08-05T19:33:01.000Z</time>
      </trkpt>
      <trkpt lat="48.83784" lon="2.34466">
        <ele>102.4</ele>
        <time>2013-08-05T19:33:02.000Z</time>
      </trkpt>
      <trkpt lat="48.83785" lon="2.34459">
        <ele>103.4</ele>
        <time>2013-08-05T19:33:03.000Z</time>
      </trkpt>
      <trkpt lat="48.83786" lon="2.34453">
        <ele>105.2</ele>
        <time>2013-08-05T19:33:04.000Z</time>
      </trkpt>
      <trkpt lat="48.83787" lon="2.34446">
        <ele>104.5</ele>
        <time>2013-08-05T19:33:05.000Z</time>
      </trkpt>
      <trkpt lat="48.83789" lon="2.34439">
        <ele>103.3</ele>
        <time>2013-08-05T19:33:06.000Z</time>
      </trkpt>
      <trkpt lat="48.83789" lon="2.3443">
        <ele>104</ele>
        <time>2013-08-05T19:33:07.000Z</time>
      </trkpt>
      <trkpt lat="48.83789" lon="2.34424">
        <ele>104.2</ele>
        <time>2013-08-05T19:33:08.000Z</time>
      </trkpt>
      <trkpt lat="48.83791" lon="2.34418">
        <ele>104.9</ele>
        <time>2013-08-05T19:33:09.000Z</time>
      </trkpt>
      <trkpt lat="48.83792" lon="2.34411">
        <ele>104.1</ele>
        <time>2013-08-05T19:33:10.000Z</time>
      </trkpt>
      <trkpt lat="48.83794" lon="2.34405">
        <ele>104.8</ele>
        <time>2013-08-05T19:33:11.000Z</time>
      </trkpt>
      <trkpt lat="48.83795" lon="2.344">
        <ele>105</ele>
        <time>2013-08-05T19:33:12.000Z</time>
      </trkpt>
      <trkpt lat="48.83796" lon="2.34393">
        <ele>105.9</ele>
        <time>2013-08-05T19:33:13.000Z</time>
      </trkpt>
      <trkpt lat="48.83797" lon="2.34387">
        <ele>105.8</ele>
        <time>2013-08-05T19:33:14.000Z</time>
      </trkpt>
      <trkpt lat="48.83798" lon="2.3438">
        <ele>106.1</ele>
        <time>2013-08-05T19:33:15.000Z</time>
      </trkpt>
      <trkpt lat="48.83799" lon="2.34373">
        <ele>104.5</ele>
        <time>2013-08-05T19:33:16.000Z</time>
      </trkpt>
      <trkpt lat="48.838" lon="2.34366">
        <ele>103.6</ele>
        <time>2013-08-05T19:33:17.000Z</time>
      </trkpt>
      <trkpt lat="48.83803" lon="2.34359">
        <ele>104.3</ele>
        <time>2013-08-05T19:33:18.000Z</time>
      </trkpt>
      <trkpt lat="48.83805" lon="2.34352">
        <ele>103.8</ele>
        <time>2013-08-05T19:33:19.000Z</time>
      </trkpt>
      <trkpt lat="48.83807" lon="2.34345">
        <ele>103.9</ele>
        <time>2013-08-05T19:33:20.000Z</time>
      </trkpt>
      <trkpt lat="48.83808" lon="2.34337">
        <ele>103.8</ele>
        <time>2013-08-05T19:33:21.000Z</time>
      </trkpt>
      <trkpt lat="48.8381" lon="2.34328">
        <ele>103.4</ele>
        <time>2013-08-05T19:33:22.000Z</time>
      </trkpt>
      <trkpt lat="48.83811" lon="2.34321">
        <ele>104.1</ele>
        <time>2013-08-05T19:33:23.000Z</time>
      </trkpt>
      <trkpt lat="48.83812" lon="2.34315">
        <ele>104.4</ele>
        <time>2013-08-05T19:33:24.000Z</time>
      </trkpt>
      <trkpt lat="48.83813" lon="2.34309">
        <ele>104.9</ele>
        <time>2013-08-05T19:33:25.000Z</time>
      </trkpt>
      <trkpt lat="48.83814" lon="2.343">
        <ele>104.6</ele>
        <time>2013-08-05T19:33:26.000Z</time>
      </trkpt>
      <trkpt lat="48.83815" lon="2.34293">
        <ele>105.4</ele>
        <time>2013-08-05T19:33:27.000Z</time>
      </trkpt>
      <trkpt lat="48.83817" lon="2.34286">
        <ele>105</ele>
        <time>2013-08-05T19:33:28.000Z</time>
      </trkpt>
      <trkpt lat="48.83819" lon="2.34277">
        <ele>108.1</ele>
        <time>2013-08-05T19:33:29.000Z</time>
      </trkpt>
      <trkpt lat="48.8382" lon="2.34271">
        <ele>108</ele>
        <time>2013-08-05T19:33:30.000Z</time>
      </trkpt>
      <trkpt lat="48.83821" lon="2.34263">
        <ele>108</ele>
        <time>2013-08-05T19:33:31.000Z</time>
      </trkpt>
      <trkpt lat="48.83823" lon="2.34257">
        <ele>108.6</ele>
        <time>2013-08-05T19:33:32.000Z</time>
      </trkpt>
      <trkpt lat="48.83824" lon="2.3425">
        <ele>108.4</ele>
        <time>2013-08-05T19:33:33.000Z</time>
      </trkpt>
      <trkpt lat="48.83825" lon="2.34244">
        <ele>109.4</ele>
        <time>2013-08-05T19:33:34.000Z</time>
      </trkpt>
      <trkpt lat="48.83827" lon="2.34237">
        <ele>110</ele>
        <time>2013-08-05T19:33:35.000Z</time>
      </trkpt>
      <trkpt lat="48.83828" lon="2.34228">
        <ele>106.8</ele>
        <time>2013-08-05T19:33:36.000Z</time>
      </trkpt>
      <trkpt lat="48.83829" lon="2.34222">
        <ele>106.1</ele>
        <time>2013-08-05T19:33:37.000Z</time>
      </trkpt>
      <trkpt lat="48.83831" lon="2.34216">
        <ele>106.2</ele>
        <time>2013-08-05T19:33:38.000Z</time>
      </trkpt>
      <trkpt lat="48.83832" lon="2.3421">
        <ele>105.2</ele>
        <time>2013-08-05T19:33:39.000Z</time>
      </trkpt>
      <trkpt lat="48.83833" lon="2.34204">
        <ele>105</ele>
        <time>2013-08-05T19:33:40.000Z</time>
      </trkpt>
      <trkpt lat="48.83835" lon="2.34197">
        <ele>105.8</ele>
        <time>2013-08-05T19:33:41.000Z</time>
      </trkpt>
      <trkpt lat="48.83836" lon="2.34191">
        <ele>105</ele>
        <time>2013-08-05T19:33:42.000Z</time>
      </trkpt>
      <trkpt lat="48.83838" lon="2.34185">
        <ele>104.7</ele>
        <time>2013-08-05T19:33:43.000Z</time>
      </trkpt>
      <trkpt lat="48.83839" lon="2.34178">
        <ele>105.9</ele>
        <time>2013-08-05T19:33:44.000Z</time>
      </trkpt>
      <trkpt lat="48.83841" lon="2.34171">
        <ele>107</ele>
        <time>2013-08-05T19:33:45.000Z</time>
      </trkpt>
      <trkpt lat="48.83842" lon="2.34164">
        <ele>107.2</ele>
        <time>2013-08-05T19:33:46.000Z</time>
      </trkpt>
      <trkpt lat="48.83843" lon="2.34156">
        <ele>107.1</ele>
        <time>2013-08-05T19:33:47.000Z</time>
      </trkpt>
      <trkpt lat="48.83845" lon="2.3415">
        <ele>106.5</ele>
        <time>2013-08-05T19:33:48.000Z</time>
      </trkpt>
      <trkpt lat="48.83846" lon="2.34143">
        <ele>106.2</ele>
        <time>2013-08-05T19:33:49.000Z</time>
      </trkpt>
      <trkpt lat="48.83848" lon="2.34136">
        <ele>106.1</ele>
        <time>2013-08-05T19:33:50.000Z</time>
      </trkpt>
      <trkpt lat="48.8385" lon="2.34129">
        <ele>104.3</ele>
        <time>2013-08-05T19:33:51.000Z</time>
      </trkpt>
      <trkpt lat="48.83853" lon="2.34117">
        <ele>104</ele>
        <time>2013-08-05T19:33:52.778Z</time>
      </trkpt>
      <trkpt lat="48.83855" lon="2.34113">
        <ele>105</ele>
        <time>2013-08-05T19:33:54.000Z</time>
      </trkpt>
      <trkpt lat="48.83856" lon="2.34107">
        <ele>103.6</ele>
        <time>2013-08-05T19:33:55.000Z</time>
      </trkpt>
      <trkpt lat="48.83859" lon="2.341">
        <ele>104.7</ele>
        <time>2013-08-05T19:33:56.000Z</time>
      </trkpt>
      <trkpt lat="48.8386" lon="2.34092">
        <ele>103.3</ele>
        <time>2013-08-05T19:33:57.000Z</time>
      </trkpt>
      <trkpt lat="48.83862" lon="2.34085">
        <ele>103.2</ele>
        <time>2013-08-05T19:33:58.000Z</time>
      </trkpt>
      <trkpt lat="48.83863" lon="2.34081">
        <ele>103.6</ele>
        <time>2013-08-05T19:33:59.000Z</time>
      </trkpt>
      <trkpt lat="48.83865" lon="2.34074">
        <ele>103.6</ele>
        <time>2013-08-05T19:34:00.000Z</time>
      </trkpt>
      <trkpt lat="48.83866" lon="2.34068">
        <ele>105.2</ele>
        <time>2013-08-05T19:34:01.000Z</time>
      </trkpt>
      <trkpt lat="48.83866" lon="2.3406">
        <ele>103.8</ele>
        <time>2013-08-05T19:34:02.000Z</time>
      </trkpt>
      <trkpt lat="48.83868" lon="2.34051">
        <ele>102.4</ele>
        <time>2013-08-05T19:34:03.000Z</time>
      </trkpt>
      <trkpt lat="48.83869" lon="2.34046">
        <ele>102.5</ele>
        <time>2013-08-05T19:34:04.000Z</time>
      </trkpt>
      <trkpt lat="48.8387" lon="2.34039">
        <ele>102.3</ele>
        <time>2013-08-05T19:34:05.000Z</time>
      </trkpt>
      <trkpt lat="48.83871" lon="2.34034">
        <ele>102.4</ele>
        <time>2013-08-05T19:34:06.000Z</time>
      </trkpt>
      <trkpt lat="48.83872" lon="2.34029">
        <ele>101.5</ele>
        <time>2013-08-05T19:34:07.000Z</time>
      </trkpt>
      <trkpt lat="48.83873" lon="2.34024">
        <ele>101</ele>
        <time>2013-08-05T19:34:08.000Z</time>
      </trkpt>
      <trkpt lat="48.83874" lon="2.34019">
        <ele>101.2</ele>
        <time>2013-08-05T19:34:09.000Z</time>
      </trkpt>
      <trkpt lat="48.83875" lon="2.34015">
        <ele>101.9</ele>
        <time>2013-08-05T19:34:10.000Z</time>
      </trkpt>
      <trkpt lat="48.83876" lon="2.3401">
        <ele>101.8</ele>
        <time>2013-08-05T19:34:11.000Z</time>
      </trkpt>
      <trkpt lat="48.83877" lon="2.34005">
        <ele>101.2</ele>
        <time>2013-08-05T19:34:12.000Z</time>
      </trkpt>
      <trkpt lat="48.83878" lon="2.34">
        <ele>101.6</ele>
        <time>2013-08-05T19:34:13.000Z</time>
      </trkpt>
      <trkpt lat="48.83878" lon="2.33996">
        <ele>101.9</ele>
        <time>2013-08-05T19:34:14.000Z</time>
      </trkpt>
      <trkpt lat="48.8388" lon="2.33991">
        <ele>101.8</ele>
        <time>2013-08-05T19:34:15.000Z</time>
      </trkpt>
      <trkpt lat="48.83881" lon="2.33987">
        <ele>101.7</ele>
        <time>2013-08-05T19:34:16.000Z</time>
      </trkpt>
      <trkpt lat="48.83882" lon="2.33983">
        <ele>102.2</ele>
        <time>2013-08-05T19:34:17.000Z</time>
      </trkpt>
      <trkpt lat="48.83883" lon="2.33978">
        <ele>102.3</ele>
        <time>2013-08-05T19:34:18.000Z</time>
      </trkpt>
      <trkpt lat="48.83884" lon="2.33974">
        <ele>102.4</ele>
        <time>2013-08-05T19:34:19.000Z</time>
      </trkpt>
      <trkpt lat="48.83886" lon="2.3397">
        <ele>101.8</ele>
        <time>2013-08-05T19:34:20.000Z</time>
      </trkpt>
      <trkpt lat="48.83887" lon="2.33966">
        <ele>101.7</ele>
        <time>2013-08-05T19:34:21.000Z</time>
      </trkpt>
      <trkpt lat="48.83889" lon="2.33962">
        <ele>102</ele>
        <time>2013-08-05T19:34:22.000Z</time>
      </trkpt>
      <trkpt lat="48.8389" lon="2.33957">
        <ele>101.6</ele>
        <time>2013-08-05T19:34:23.000Z</time>
      </trkpt>
      <trkpt lat="48.83891" lon="2.33953">
        <ele>101.7</ele>
        <time>2013-08-05T19:34:24.000Z</time>
      </trkpt>
      <trkpt lat="48.83892" lon="2.33948">
        <ele>101.7</ele>
        <time>2013-08-05T19:34:25.000Z</time>
      </trkpt>
      <trkpt lat="48.83893" lon="2.33943">
        <ele>102.8</ele>
        <time>2013-08-05T19:34:26.000Z</time>
      </trkpt>
      <trkpt lat="48.83894" lon="2.33937">
        <ele>102.8</ele>
        <time>2013-08-05T19:34:27.000Z</time>
      </trkpt>
      <trkpt lat="48.83896" lon="2.33932">
        <ele>103.7</ele>
        <time>2013-08-05T19:34:28.000Z</time>
      </trkpt>
      <trkpt lat="48.83897" lon="2.33927">
        <ele>104.1</ele>
        <time>2013-08-05T19:34:29.000Z</time>
      </trkpt>
      <trkpt lat="48.83899" lon="2.33922">
        <ele>103.8</ele>
        <time>2013-08-05T19:34:30.000Z</time>
      </trkpt>
      <trkpt lat="48.83901" lon="2.33917">
        <ele>104</ele>
        <time>2013-08-05T19:34:31.000Z</time>
      </trkpt>
      <trkpt lat="48.83903" lon="2.33912">
        <ele>103.8</ele>
        <time>2013-08-05T19:34:32.000Z</time>
      </trkpt>
      <trkpt lat="48.83905" lon="2.33907">
        <ele>103.7</ele>
        <time>2013-08-05T19:34:33.000Z</time>
      </trkpt>
      <trkpt lat="48.83908" lon="2.33902">
        <ele>103.3</ele>
        <time>2013-08-05T19:34:34.000Z</time>
      </trkpt>
      <trkpt lat="48.8391" lon="2.33897">
        <ele>103</ele>
        <time>2013-08-05T19:34:35.000Z</time>
      </trkpt>
      <trkpt lat="48.83913" lon="2.33892">
        <ele>103.7</ele>
        <time>2013-08-05T19:34:36.000Z</time>
      </trkpt>
      <trkpt lat="48.83915" lon="2.33886">
        <ele>103.8</ele>
        <time>2013-08-05T19:34:37.000Z</time>
      </trkpt>
      <trkpt lat="48.83916" lon="2.3388">
        <ele>104</ele>
        <time>2013-08-05T19:34:38.000Z</time>
      </trkpt>
      <trkpt lat="48.83918" lon="2.33875">
        <ele>104.6</ele>
        <time>2013-08-05T19:34:39.000Z</time>
      </trkpt>
      <trkpt lat="48.83919" lon="2.33869">
        <ele>104.9</ele>
        <time>2013-08-05T19:34:40.000Z</time>
      </trkpt>
      <trkpt lat="48.8392" lon="2.33863">
        <ele>104.1</ele>
        <time>2013-08-05T19:34:41.000Z</time>
      </trkpt>
      <trkpt lat="48.83922" lon="2.33857">
        <ele>104.6</ele>
        <time>2013-08-05T19:34:42.000Z</time>
      </trkpt>
      <trkpt lat="48.83923" lon="2.33852">
        <ele>103.9</ele>
        <time>2013-08-05T19:34:43.000Z</time>
      </trkpt>
      <trkpt lat="48.83925" lon="2.33845">
        <ele>103.8</ele>
        <time>2013-08-05T19:34:44.000Z</time>
      </trkpt>
      <trkpt lat="48.83927" lon="2.33839">
        <ele>103.4</ele>
        <time>2013-08-05T19:34:45.000Z</time>
      </trkpt>
      <trkpt lat="48.83929" lon="2.33831">
        <ele>102.4</ele>
        <time>2013-08-05T19:34:46.000Z</time>
      </trkpt>
      <trkpt lat="48.83931" lon="2.33824">
        <ele>102.4</ele>
        <time>2013-08-05T19:34:47.000Z</time>
      </trkpt>
      <trkpt lat="48.83933" lon="2.33818">
        <ele>102.6</ele>
        <time>2013-08-05T19:34:48.000Z</time>
      </trkpt>
      <trkpt lat="48.83935" lon="2.33811">
        <ele>102.4</ele>
        <time>2013-08-05T19:34:49.000Z</time>
      </trkpt>
      <trkpt lat="48.83936" lon="2.33805">
        <ele>103.2</ele>
        <time>2013-08-05T19:34:50.000Z</time>
      </trkpt>
      <trkpt lat="48.83938" lon="2.33799">
        <ele>103.5</ele>
        <time>2013-08-05T19:34:51.000Z</time>
      </trkpt>
      <trkpt lat="48.8394" lon="2.33789">
        <ele>103.6</ele>
        <time>2013-08-05T19:34:52.671Z</time>
      </trkpt>
      <trkpt lat="48.83942" lon="2.33779">
        <ele>101.8</ele>
        <time>2013-08-05T19:34:54.000Z</time>
      </trkpt>
      <trkpt lat="48.83944" lon="2.33773">
        <ele>101.5</ele>
        <time>2013-08-05T19:34:55.000Z</time>
      </trkpt>
      <trkpt lat="48.83946" lon="2.33767">
        <ele>101.7</ele>
        <time>2013-08-05T19:34:56.000Z</time>
      </trkpt>
      <trkpt lat="48.83948" lon="2.33762">
        <ele>102.5</ele>
        <time>2013-08-05T19:34:57.000Z</time>
      </trkpt>
      <trkpt lat="48.8395" lon="2.33757">
        <ele>102.9</ele>
        <time>2013-08-05T19:34:58.000Z</time>
      </trkpt>
      <trkpt lat="48.83951" lon="2.33751">
        <ele>103</ele>
        <time>2013-08-05T19:34:59.000Z</time>
      </trkpt>
      <trkpt lat="48.83953" lon="2.33747">
        <ele>102.7</ele>
        <time>2013-08-05T19:35:00.000Z</time>
      </trkpt>
      <trkpt lat="48.83955" lon="2.33741">
        <ele>102.8</ele>
        <time>2013-08-05T19:35:01.000Z</time>
      </trkpt>
      <trkpt lat="48.83956" lon="2.33737">
        <ele>103.8</ele>
        <time>2013-08-05T19:35:02.000Z</time>
      </trkpt>
      <trkpt lat="48.83957" lon="2.33732">
        <ele>104.1</ele>
        <time>2013-08-05T19:35:03.000Z</time>
      </trkpt>
      <trkpt lat="48.83958" lon="2.33728">
        <ele>105.4</ele>
        <time>2013-08-05T19:35:04.000Z</time>
      </trkpt>
      <trkpt lat="48.83959" lon="2.33724">
        <ele>105.9</ele>
        <time>2013-08-05T19:35:05.000Z</time>
      </trkpt>
      <trkpt lat="48.8396" lon="2.33719">
        <ele>106.3</ele>
        <time>2013-08-05T19:35:06.000Z</time>
      </trkpt>
      <trkpt lat="48.83961" lon="2.33715">
        <ele>106.5</ele>
        <time>2013-08-05T19:35:07.000Z</time>
      </trkpt>
      <trkpt lat="48.83961" lon="2.33711">
        <ele>106.7</ele>
        <time>2013-08-05T19:35:08.000Z</time>
      </trkpt>
      <trkpt lat="48.83962" lon="2.33707">
        <ele>107</ele>
        <time>2013-08-05T19:35:09.000Z</time>
      </trkpt>
      <trkpt lat="48.83963" lon="2.33704">
        <ele>107.4</ele>
        <time>2013-08-05T19:35:10.000Z</time>
      </trkpt>
      <trkpt lat="48.83964" lon="2.33698">
        <ele>106.9</ele>
        <time>2013-08-05T19:35:12.000Z</time>
      </trkpt>
      <trkpt lat="48.83965" lon="2.33696">
        <ele>106.2</ele>
        <time>2013-08-05T19:35:13.000Z</time>
      </trkpt>
      <trkpt lat="48.83966" lon="2.3369">
        <ele>106.2</ele>
        <time>2013-08-05T19:35:16.000Z</time>
      </trkpt>
      <trkpt lat="48.83966" lon="2.33689">
        <ele>106.2</ele>
        <time>2013-08-05T19:35:17.000Z</time>
      </trkpt>
      <trkpt lat="48.83968" lon="2.33683">
        <ele>106.4</ele>
        <time>2013-08-05T19:35:37.000Z</time>
      </trkpt>
      <trkpt lat="48.83968" lon="2.33682">
        <ele>105.8</ele>
        <time>2013-08-05T19:35:38.000Z</time>
      </trkpt>
      <trkpt lat="48.83971" lon="2.33679">
        <ele>109</ele>
        <time>2013-08-05T19:35:45.000Z</time>
      </trkpt>
      <trkpt lat="48.83972" lon="2.33678">
        <ele>110</ele>
        <time>2013-08-05T19:35:46.000Z</time>
      </trkpt>
      <trkpt lat="48.83975" lon="2.33676">
        <ele>109.6</ele>
        <time>2013-08-05T19:35:49.000Z</time>
      </trkpt>
      <trkpt lat="48.83977" lon="2.33676">
        <ele>110.3</ele>
        <time>2013-08-05T19:35:50.000Z</time>
      </trkpt>
      <trkpt lat="48.83979" lon="2.33677">
        <ele>109.7</ele>
        <time>2013-08-05T19:35:51.000Z</time>
      </trkpt>
      <trkpt lat="48.83982" lon="2.33679">
        <ele>109.7</ele>
        <time>2013-08-05T19:35:52.651Z</time>
      </trkpt>
      <trkpt lat="48.83986" lon="2.33681">
        <ele>109.3</ele>
        <time>2013-08-05T19:35:57.000Z</time>
      </trkpt>
      <trkpt lat="48.83986" lon="2.33679">
        <ele>108.9</ele>
        <time>2013-08-05T19:35:58.000Z</time>
      </trkpt>
      <trkpt lat="48.83987" lon="2.33675">
        <ele>110.2</ele>
        <time>2013-08-05T19:36:00.000Z</time>
      </trkpt>
      <trkpt lat="48.83986" lon="2.33672">
        <ele>109.3</ele>
        <time>2013-08-05T19:36:01.000Z</time>
      </trkpt>
      <trkpt lat="48.83983" lon="2.33667">
        <ele>111.9</ele>
        <time>2013-08-05T19:36:04.000Z</time>
      </trkpt>
      <trkpt lat="48.83982" lon="2.33666">
        <ele>113</ele>
        <time>2013-08-05T19:36:05.000Z</time>
      </trkpt>
      <trkpt lat="48.83982" lon="2.33661">
        <ele>111</ele>
        <time>2013-08-05T19:36:08.000Z</time>
      </trkpt>
      <trkpt lat="48.83982" lon="2.33659">
        <ele>110.7</ele>
        <time>2013-08-05T19:36:09.000Z</time>
      </trkpt>
      <trkpt lat="48.83983" lon="2.33652">
        <ele>108.9</ele>
        <time>2013-08-05T19:36:12.000Z</time>
      </trkpt>
      <trkpt lat="48.83983" lon="2.3365">
        <ele>109.5</ele>
        <time>2013-08-05T19:36:13.000Z</time>
      </trkpt>
      <trkpt lat="48.83983" lon="2.33645">
        <ele>110.1</ele>
        <time>2013-08-05T19:36:15.000Z</time>
      </trkpt>
      <trkpt lat="48.83983" lon="2.33642">
        <ele>110.2</ele>
        <time>2013-08-05T19:36:16.000Z</time>
      </trkpt>
      <trkpt lat="48.83984" lon="2.33637">
        <ele>111.2</ele>
        <time>2013-08-05T19:36:18.000Z</time>
      </trkpt>
      <trkpt lat="48.83984" lon="2.33635">
        <ele>112.1</ele>
        <time>2013-08-05T19:36:19.000Z</time>
      </trkpt>
      <trkpt lat="48.83985" lon="2.3363">
        <ele>111.4</ele>
        <time>2013-08-05T19:36:21.000Z</time>
      </trkpt>
      <trkpt lat="48.83985" lon="2.33627">
        <ele>111.6</ele>
        <time>2013-08-05T19:36:22.000Z</time>
      </trkpt>
      <trkpt lat="48.83986" lon="2.33623">
        <ele>111</ele>
        <time>2013-08-05T19:36:23.000Z</time>
      </trkpt>
      <trkpt lat="48.83987" lon="2.3362">
        <ele>112.2</ele>
        <time>2013-08-05T19:36:24.000Z</time>
      </trkpt>
      <trkpt lat="48.83988" lon="2.33616">
        <ele>113.5</ele>
        <time>2013-08-05T19:36:25.000Z</time>
      </trkpt>
      <trkpt lat="48.83989" lon="2.33612">
        <ele>113.6</ele>
        <time>2013-08-05T19:36:26.000Z</time>
      </trkpt>
      <trkpt lat="48.8399" lon="2.33609">
        <ele>113.5</ele>
        <time>2013-08-05T19:36:27.000Z</time>
      </trkpt>
      <trkpt lat="48.83991" lon="2.33605">
        <ele>113.9</ele>
        <time>2013-08-05T19:36:28.000Z</time>
      </trkpt>
      <trkpt lat="48.83992" lon="2.33601">
        <ele>112.9</ele>
        <time>2013-08-05T19:36:29.000Z</time>
      </trkpt>
      <trkpt lat="48.83993" lon="2.33598">
        <ele>113.4</ele>
        <time>2013-08-05T19:36:30.000Z</time>
      </trkpt>
      <trkpt lat="48.83995" lon="2.33592">
        <ele>113.4</ele>
        <time>2013-08-05T19:36:32.000Z</time>
      </trkpt>
      <trkpt lat="48.83996" lon="2.33589">
        <ele>113.2</ele>
        <time>2013-08-05T19:36:33.000Z</time>
      </trkpt>
      <trkpt lat="48.83997" lon="2.33584">
        <ele>114.8</ele>
        <time>2013-08-05T19:36:35.000Z</time>
      </trkpt>
      <trkpt lat="48.83998" lon="2.3358">
        <ele>114.3</ele>
        <time>2013-08-05T19:36:36.000Z</time>
      </trkpt>
      <trkpt lat="48.83999" lon="2.33577">
        <ele>113.7</ele>
        <time>2013-08-05T19:36:37.000Z</time>
      </trkpt>
      <trkpt lat="48.84" lon="2.33573">
        <ele>113.8</ele>
        <time>2013-08-05T19:36:38.000Z</time>
      </trkpt>
      <trkpt lat="48.84001" lon="2.33569">
        <ele>113.7</ele>
        <time>2013-08-05T19:36:39.000Z</time>
      </trkpt>
      <trkpt lat="48.84003" lon="2.33563">
        <ele>113.5</ele>
        <time>2013-08-05T19:36:40.000Z</time>
      </trkpt>
      <trkpt lat="48.84004" lon="2.33558">
        <ele>113.6</ele>
        <time>2013-08-05T19:36:41.000Z</time>
      </trkpt>
      <trkpt lat="48.84006" lon="2.33552">
        <ele>113.7</ele>
        <time>2013-08-05T19:36:42.000Z</time>
      </trkpt>
      <trkpt lat="48.84007" lon="2.33546">
        <ele>113.8</ele>
        <time>2013-08-05T19:36:43.000Z</time>
      </trkpt>
      <trkpt lat="48.84009" lon="2.33541">
        <ele>114.5</ele>
        <time>2013-08-05T19:36:44.000Z</time>
      </trkpt>
      <trkpt lat="48.8401" lon="2.33535">
        <ele>113.6</ele>
        <time>2013-08-05T19:36:45.000Z</time>
      </trkpt>
      <trkpt lat="48.84012" lon="2.33529">
        <ele>113.3</ele>
        <time>2013-08-05T19:36:46.000Z</time>
      </trkpt>
      <trkpt lat="48.84014" lon="2.33524">
        <ele>113.2</ele>
        <time>2013-08-05T19:36:47.000Z</time>
      </trkpt>
      <trkpt lat="48.84015" lon="2.33518">
        <ele>113.5</ele>
        <time>2013-08-05T19:36:48.000Z</time>
      </trkpt>
      <trkpt lat="48.84017" lon="2.33513">
        <ele>114.3</ele>
        <time>2013-08-05T19:36:49.000Z</time>
      </trkpt>
      <trkpt lat="48.84018" lon="2.33508">
        <ele>114.5</ele>
        <time>2013-08-05T19:36:50.000Z</time>
      </trkpt>
      <trkpt lat="48.8402" lon="2.33502">
        <ele>114.4</ele>
        <time>2013-08-05T19:36:51.000Z</time>
      </trkpt>
      <trkpt lat="48.84023" lon="2.33493">
        <ele>114.2</ele>
        <time>2013-08-05T19:36:52.791Z</time>
      </trkpt>
      <trkpt lat="48.84025" lon="2.33487">
        <ele>114.5</ele>
        <time>2013-08-05T19:36:54.000Z</time>
      </trkpt>
      <trkpt lat="48.84027" lon="2.33482">
        <ele>115.2</ele>
        <time>2013-08-05T19:36:55.000Z</time>
      </trkpt>
      <trkpt lat="48.84028" lon="2.33478">
        <ele>115</ele>
        <time>2013-08-05T19:36:56.000Z</time>
      </trkpt>
      <trkpt lat="48.8403" lon="2.33473">
        <ele>115.1</ele>
        <time>2013-08-05T19:36:57.000Z</time>
      </trkpt>
      <trkpt lat="48.84032" lon="2.33468">
        <ele>115.6</ele>
        <time>2013-08-05T19:36:58.000Z</time>
      </trkpt>
      <trkpt lat="48.84034" lon="2.33463">
        <ele>115.4</ele>
        <time>2013-08-05T19:36:59.000Z</time>
      </trkpt>
      <trkpt lat="48.84035" lon="2.33458">
        <ele>116.7</ele>
        <time>2013-08-05T19:37:00.000Z</time>
      </trkpt>
      <trkpt lat="48.84037" lon="2.33453">
        <ele>116.3</ele>
        <time>2013-08-05T19:37:01.000Z</time>
      </trkpt>
      <trkpt lat="48.84038" lon="2.33448">
        <ele>116.9</ele>
        <time>2013-08-05T19:37:02.000Z</time>
      </trkpt>
      <trkpt lat="48.8404" lon="2.33442">
        <ele>117</ele>
        <time>2013-08-05T19:37:03.000Z</time>
      </trkpt>
      <trkpt lat="48.84042" lon="2.33436">
        <ele>116.7</ele>
        <time>2013-08-05T19:37:04.000Z</time>
      </trkpt>
      <trkpt lat="48.84044" lon="2.3343">
        <ele>118.3</ele>
        <time>2013-08-05T19:37:05.000Z</time>
      </trkpt>
      <trkpt lat="48.84045" lon="2.33424">
        <ele>117.9</ele>
        <time>2013-08-05T19:37:06.000Z</time>
      </trkpt>
      <trkpt lat="48.84047" lon="2.33418">
        <ele>117.7</ele>
        <time>2013-08-05T19:37:07.000Z</time>
      </trkpt>
      <trkpt lat="48.84049" lon="2.33412">
        <ele>117.9</ele>
        <time>2013-08-05T19:37:08.000Z</time>
      </trkpt>
      <trkpt lat="48.84051" lon="2.33406">
        <ele>118.6</ele>
        <time>2013-08-05T19:37:09.000Z</time>
      </trkpt>
      <trkpt lat="48.84053" lon="2.33401">
        <ele>118.1</ele>
        <time>2013-08-05T19:37:10.000Z</time>
      </trkpt>
      <trkpt lat="48.84055" lon="2.33395">
        <ele>118</ele>
        <time>2013-08-05T19:37:11.000Z</time>
      </trkpt>
      <trkpt lat="48.84057" lon="2.33389">
        <ele>116.5</ele>
        <time>2013-08-05T19:37:12.000Z</time>
      </trkpt>
      <trkpt lat="48.84059" lon="2.33383">
        <ele>116.8</ele>
        <time>2013-08-05T19:37:13.000Z</time>
      </trkpt>
      <trkpt lat="48.84061" lon="2.33378">
        <ele>116.2</ele>
        <time>2013-08-05T19:37:14.000Z</time>
      </trkpt>
      <trkpt lat="48.84064" lon="2.33371">
        <ele>116.2</ele>
        <time>2013-08-05T19:37:15.000Z</time>
      </trkpt>
      <trkpt lat="48.84066" lon="2.33364">
        <ele>117.2</ele>
        <time>2013-08-05T19:37:16.000Z</time>
      </trkpt>
      <trkpt lat="48.84068" lon="2.33358">
        <ele>117.3</ele>
        <time>2013-08-05T19:37:17.000Z</time>
      </trkpt>
      <trkpt lat="48.8407" lon="2.33352">
        <ele>117.4</ele>
        <time>2013-08-05T19:37:18.000Z</time>
      </trkpt>
      <trkpt lat="48.84072" lon="2.33345">
        <ele>117.1</ele>
        <time>2013-08-05T19:37:19.000Z</time>
      </trkpt>
      <trkpt lat="48.84074" lon="2.33338">
        <ele>116.9</ele>
        <time>2013-08-05T19:37:20.000Z</time>
      </trkpt>
      <trkpt lat="48.84077" lon="2.33332">
        <ele>117</ele>
        <time>2013-08-05T19:37:21.000Z</time>
      </trkpt>
      <trkpt lat="48.84078" lon="2.33325">
        <ele>116.8</ele>
        <time>2013-08-05T19:37:22.000Z</time>
      </trkpt>
      <trkpt lat="48.84081" lon="2.33318">
        <ele>116.7</ele>
        <time>2013-08-05T19:37:23.000Z</time>
      </trkpt>
      <trkpt lat="48.84083" lon="2.33311">
        <ele>117.6</ele>
        <time>2013-08-05T19:37:24.000Z</time>
      </trkpt>
      <trkpt lat="48.84085" lon="2.33302">
        <ele>118</ele>
        <time>2013-08-05T19:37:25.000Z</time>
      </trkpt>
      <trkpt lat="48.84087" lon="2.33294">
        <ele>117.7</ele>
        <time>2013-08-05T19:37:26.000Z</time>
      </trkpt>
      <trkpt lat="48.84089" lon="2.33287">
        <ele>116.6</ele>
        <time>2013-08-05T19:37:27.000Z</time>
      </trkpt>
      <trkpt lat="48.84092" lon="2.33278">
        <ele>116.4</ele>
        <time>2013-08-05T19:37:28.000Z</time>
      </trkpt>
      <trkpt lat="48.84094" lon="2.3327">
        <ele>116.9</ele>
        <time>2013-08-05T19:37:29.000Z</time>
      </trkpt>
      <trkpt lat="48.84097" lon="2.33264">
        <ele>117.5</ele>
        <time>2013-08-05T19:37:30.000Z</time>
      </trkpt>
      <trkpt lat="48.84098" lon="2.33257">
        <ele>118.1</ele>
        <time>2013-08-05T19:37:31.000Z</time>
      </trkpt>
      <trkpt lat="48.84101" lon="2.33249">
        <ele>117.6</ele>
        <time>2013-08-05T19:37:32.000Z</time>
      </trkpt>
      <trkpt lat="48.84103" lon="2.33242">
        <ele>118.5</ele>
        <time>2013-08-05T19:37:33.000Z</time>
      </trkpt>
      <trkpt lat="48.84104" lon="2.33235">
        <ele>117.6</ele>
        <time>2013-08-05T19:37:34.000Z</time>
      </trkpt>
      <trkpt lat="48.84106" lon="2.33228">
        <ele>118.5</ele>
        <time>2013-08-05T19:37:35.000Z</time>
      </trkpt>
      <trkpt lat="48.84108" lon="2.33223">
        <ele>118.7</ele>
        <time>2013-08-05T19:37:36.000Z</time>
      </trkpt>
      <trkpt lat="48.8411" lon="2.33218">
        <ele>118.9</ele>
        <time>2013-08-05T19:37:37.000Z</time>
      </trkpt>
      <trkpt lat="48.84112" lon="2.33212">
        <ele>120.5</ele>
        <time>2013-08-05T19:37:38.000Z</time>
      </trkpt>
      <trkpt lat="48.84114" lon="2.33206">
        <ele>120.8</ele>
        <time>2013-08-05T19:37:39.000Z</time>
      </trkpt>
      <trkpt lat="48.84116" lon="2.33201">
        <ele>121.8</ele>
        <time>2013-08-05T19:37:40.000Z</time>
      </trkpt>
      <trkpt lat="48.84119" lon="2.33194">
        <ele>120.9</ele>
        <time>2013-08-05T19:37:41.000Z</time>
      </trkpt>
      <trkpt lat="48.84121" lon="2.33188">
        <ele>120.3</ele>
        <time>2013-08-05T19:37:42.000Z</time>
      </trkpt>
      <trkpt lat="48.84123" lon="2.33183">
        <ele>120.6</ele>
        <time>2013-08-05T19:37:43.000Z</time>
      </trkpt>
      <trkpt lat="48.84125" lon="2.33177">
        <ele>119.5</ele>
        <time>2013-08-05T19:37:44.000Z</time>
      </trkpt>
      <trkpt lat="48.84127" lon="2.33169">
        <ele>121.2</ele>
        <time>2013-08-05T19:37:45.000Z</time>
      </trkpt>
      <trkpt lat="48.84129" lon="2.33163">
        <ele>121.8</ele>
        <time>2013-08-05T19:37:46.000Z</time>
      </trkpt>
      <trkpt lat="48.84131" lon="2.33158">
        <ele>122.4</ele>
        <time>2013-08-05T19:37:47.000Z</time>
      </trkpt>
      <trkpt lat="48.84133" lon="2.33152">
        <ele>123</ele>
        <time>2013-08-05T19:37:48.000Z</time>
      </trkpt>
      <trkpt lat="48.84135" lon="2.33145">
        <ele>122.9</ele>
        <time>2013-08-05T19:37:49.000Z</time>
      </trkpt>
      <trkpt lat="48.84137" lon="2.33139">
        <ele>121.2</ele>
        <time>2013-08-05T19:37:50.000Z</time>
      </trkpt>
      <trkpt lat="48.84139" lon="2.33132">
        <ele>120.2</ele>
        <time>2013-08-05T19:37:51.000Z</time>
      </trkpt>
      <trkpt lat="48.84142" lon="2.33123">
        <ele>120.2</ele>
        <time>2013-08-05T19:37:52.606Z</time>
      </trkpt>
      <trkpt lat="48.84143" lon="2.33117">
        <ele>119.5</ele>
        <time>2013-08-05T19:37:54.000Z</time>
      </trkpt>
      <trkpt lat="48.84144" lon="2.33111">
        <ele>119.2</ele>
        <time>2013-08-05T19:37:55.000Z</time>
      </trkpt>
      <trkpt lat="48.84147" lon="2.33108">
        <ele>118.4</ele>
        <time>2013-08-05T19:37:56.000Z</time>
      </trkpt>
      <trkpt lat="48.84148" lon="2.33102">
        <ele>118.3</ele>
        <time>2013-08-05T19:37:57.000Z</time>
      </trkpt>
      <trkpt lat="48.84151" lon="2.33096">
        <ele>117.8</ele>
        <time>2013-08-05T19:37:58.000Z</time>
      </trkpt>
      <trkpt lat="48.84153" lon="2.33091">
        <ele>117.3</ele>
        <time>2013-08-05T19:37:59.000Z</time>
      </trkpt>
      <trkpt lat="48.84156" lon="2.33085">
        <ele>117.1</ele>
        <time>2013-08-05T19:38:00.000Z</time>
      </trkpt>
      <trkpt lat="48.84156" lon="2.33079">
        <ele>116.9</ele>
        <time>2013-08-05T19:38:01.000Z</time>
      </trkpt>
      <trkpt lat="48.84158" lon="2.33074">
        <ele>116.3</ele>
        <time>2013-08-05T19:38:02.000Z</time>
      </trkpt>
      <trkpt lat="48.8416" lon="2.33069">
        <ele>115.8</ele>
        <time>2013-08-05T19:38:03.000Z</time>
      </trkpt>
      <trkpt lat="48.84164" lon="2.33063">
        <ele>114.8</ele>
        <time>2013-08-05T19:38:04.000Z</time>
      </trkpt>
      <trkpt lat="48.84166" lon="2.33057">
        <ele>114.8</ele>
        <time>2013-08-05T19:38:05.000Z</time>
      </trkpt>
      <trkpt lat="48.84168" lon="2.33051">
        <ele>116.2</ele>
        <time>2013-08-05T19:38:06.000Z</time>
      </trkpt>
      <trkpt lat="48.84171" lon="2.33046">
        <ele>116.1</ele>
        <time>2013-08-05T19:38:07.000Z</time>
      </trkpt>
      <trkpt lat="48.84174" lon="2.3304">
        <ele>115.9</ele>
        <time>2013-08-05T19:38:08.000Z</time>
      </trkpt>
      <trkpt lat="48.84176" lon="2.33034">
        <ele>115.6</ele>
        <time>2013-08-05T19:38:09.000Z</time>
      </trkpt>
      <trkpt lat="48.84178" lon="2.3303">
        <ele>116.2</ele>
        <time>2013-08-05T19:38:10.000Z</time>
      </trkpt>
      <trkpt lat="48.84179" lon="2.33023">
        <ele>115.6</ele>
        <time>2013-08-05T19:38:11.000Z</time>
      </trkpt>
      <trkpt lat="48.8418" lon="2.33017">
        <ele>113.1</ele>
        <time>2013-08-05T19:38:12.000Z</time>
      </trkpt>
      <trkpt lat="48.84181" lon="2.33011">
        <ele>113.2</ele>
        <time>2013-08-05T19:38:13.000Z</time>
      </trkpt>
      <trkpt lat="48.84183" lon="2.33005">
        <ele>113</ele>
        <time>2013-08-05T19:38:14.000Z</time>
      </trkpt>
      <trkpt lat="48.84184" lon="2.32999">
        <ele>112.9</ele>
        <time>2013-08-05T19:38:15.000Z</time>
      </trkpt>
      <trkpt lat="48.84186" lon="2.32993">
        <ele>111.7</ele>
        <time>2013-08-05T19:38:16.000Z</time>
      </trkpt>
      <trkpt lat="48.84186" lon="2.32988">
        <ele>111.6</ele>
        <time>2013-08-05T19:38:17.000Z</time>
      </trkpt>
      <trkpt lat="48.84186" lon="2.32984">
        <ele>111</ele>
        <time>2013-08-05T19:38:18.000Z</time>
      </trkpt>
      <trkpt lat="48.84185" lon="2.3298">
        <ele>110.4</ele>
        <time>2013-08-05T19:38:19.000Z</time>
      </trkpt>
      <trkpt lat="48.84184" lon="2.32976">
        <ele>111</ele>
        <time>2013-08-05T19:38:20.000Z</time>
      </trkpt>
      <trkpt lat="48.84183" lon="2.32972">
        <ele>110.1</ele>
        <time>2013-08-05T19:38:21.000Z</time>
      </trkpt>
      <trkpt lat="48.84181" lon="2.32968">
        <ele>109.9</ele>
        <time>2013-08-05T19:38:22.000Z</time>
      </trkpt>
      <trkpt lat="48.8418" lon="2.32965">
        <ele>108.8</ele>
        <time>2013-08-05T19:38:23.000Z</time>
      </trkpt>
      <trkpt lat="48.84177" lon="2.32961">
        <ele>108.8</ele>
        <time>2013-08-05T19:38:25.000Z</time>
      </trkpt>
      <trkpt lat="48.84175" lon="2.32961">
        <ele>109.3</ele>
        <time>2013-08-05T19:38:26.000Z</time>
      </trkpt>
      <trkpt lat="48.84173" lon="2.32962">
        <ele>108.9</ele>
        <time>2013-08-05T19:38:27.000Z</time>
      </trkpt>
      <trkpt lat="48.8417" lon="2.32965">
        <ele>108.3</ele>
        <time>2013-08-05T19:38:28.000Z</time>
      </trkpt>
      <trkpt lat="48.84166" lon="2.32967">
        <ele>108.1</ele>
        <time>2013-08-05T19:38:29.000Z</time>
      </trkpt>
      <trkpt lat="48.84162" lon="2.3297">
        <ele>108.6</ele>
        <time>2013-08-05T19:38:30.000Z</time>
      </trkpt>
      <trkpt lat="48.84158" lon="2.32972">
        <ele>108.9</ele>
        <time>2013-08-05T19:38:31.000Z</time>
      </trkpt>
      <trkpt lat="48.84154" lon="2.32974">
        <ele>107.3</ele>
        <time>2013-08-05T19:38:32.000Z</time>
      </trkpt>
      <trkpt lat="48.8415" lon="2.32976">
        <ele>107.5</ele>
        <time>2013-08-05T19:38:33.000Z</time>
      </trkpt>
      <trkpt lat="48.84146" lon="2.32978">
        <ele>108</ele>
        <time>2013-08-05T19:38:34.000Z</time>
      </trkpt>
      <trkpt lat="48.84141" lon="2.3298">
        <ele>107.3</ele>
        <time>2013-08-05T19:38:35.000Z</time>
      </trkpt>
      <trkpt lat="48.84137" lon="2.32983">
        <ele>106.7</ele>
        <time>2013-08-05T19:38:36.000Z</time>
      </trkpt>
      <trkpt lat="48.84133" lon="2.32986">
        <ele>104.8</ele>
        <time>2013-08-05T19:38:37.000Z</time>
      </trkpt>
      <trkpt lat="48.84129" lon="2.32989">
        <ele>104.3</ele>
        <time>2013-08-05T19:38:38.000Z</time>
      </trkpt>
      <trkpt lat="48.84125" lon="2.32993">
        <ele>104.2</ele>
        <time>2013-08-05T19:38:39.000Z</time>
      </trkpt>
      <trkpt lat="48.84121" lon="2.32996">
        <ele>103</ele>
        <time>2013-08-05T19:38:40.000Z</time>
      </trkpt>
      <trkpt lat="48.84117" lon="2.32999">
        <ele>102.5</ele>
        <time>2013-08-05T19:38:41.000Z</time>
      </trkpt>
      <trkpt lat="48.84112" lon="2.33002">
        <ele>101.3</ele>
        <time>2013-08-05T19:38:42.000Z</time>
      </trkpt>
      <trkpt lat="48.84108" lon="2.33005">
        <ele>101.8</ele>
        <time>2013-08-05T19:38:43.000Z</time>
      </trkpt>
      <trkpt lat="48.84104" lon="2.33007">
        <ele>102.4</ele>
        <time>2013-08-05T19:38:44.000Z</time>
      </trkpt>
      <trkpt lat="48.84099" lon="2.3301">
        <ele>102.8</ele>
        <time>2013-08-05T19:38:45.000Z</time>
      </trkpt>
      <trkpt lat="48.84093" lon="2.33017">
        <ele>102</ele>
        <time>2013-08-05T19:38:46.000Z</time>
      </trkpt>
      <trkpt lat="48.84089" lon="2.33019">
        <ele>101.9</ele>
        <time>2013-08-05T19:38:47.000Z</time>
      </trkpt>
      <trkpt lat="48.84083" lon="2.3302">
        <ele>102.9</ele>
        <time>2013-08-05T19:38:48.000Z</time>
      </trkpt>
      <trkpt lat="48.84078" lon="2.33022">
        <ele>102.2</ele>
        <time>2013-08-05T19:38:49.000Z</time>
      </trkpt>
      <trkpt lat="48.84073" lon="2.33022">
        <ele>102.9</ele>
        <time>2013-08-05T19:38:50.000Z</time>
      </trkpt>
      <trkpt lat="48.84067" lon="2.33023">
        <ele>104</ele>
        <time>2013-08-05T19:38:51.000Z</time>
      </trkpt>
      <trkpt lat="48.84058" lon="2.33026">
        <ele>104.1</ele>
        <time>2013-08-05T19:38:52.759Z</time>
      </trkpt>
      <trkpt lat="48.84049" lon="2.33025">
        <ele>104</ele>
        <time>2013-08-05T19:38:54.000Z</time>
      </trkpt>
      <trkpt lat="48.84042" lon="2.33028">
        <ele>104.1</ele>
        <time>2013-08-05T19:38:55.000Z</time>
      </trkpt>
      <trkpt lat="48.84037" lon="2.33029">
        <ele>103.4</ele>
        <time>2013-08-05T19:38:56.000Z</time>
      </trkpt>
      <trkpt lat="48.84032" lon="2.33032">
        <ele>103.4</ele>
        <time>2013-08-05T19:38:57.000Z</time>
      </trkpt>
      <trkpt lat="48.84027" lon="2.33036">
        <ele>101.8</ele>
        <time>2013-08-05T19:38:58.000Z</time>
      </trkpt>
      <trkpt lat="48.84022" lon="2.33038">
        <ele>101.3</ele>
        <time>2013-08-05T19:38:59.000Z</time>
      </trkpt>
      <trkpt lat="48.84018" lon="2.3304">
        <ele>102</ele>
        <time>2013-08-05T19:39:00.000Z</time>
      </trkpt>
      <trkpt lat="48.84015" lon="2.33041">
        <ele>100</ele>
        <time>2013-08-05T19:39:01.000Z</time>
      </trkpt>
      <trkpt lat="48.84013" lon="2.33043">
        <ele>100</ele>
        <time>2013-08-05T19:39:02.000Z</time>
      </trkpt>
      <trkpt lat="48.84009" lon="2.33046">
        <ele>99.7</ele>
        <time>2013-08-05T19:39:03.000Z</time>
      </trkpt>
      <trkpt lat="48.84004" lon="2.33049">
        <ele>100.2</ele>
        <time>2013-08-05T19:39:04.000Z</time>
      </trkpt>
      <trkpt lat="48.84" lon="2.33052">
        <ele>97.8</ele>
        <time>2013-08-05T19:39:05.000Z</time>
      </trkpt>
      <trkpt lat="48.83996" lon="2.33052">
        <ele>98.8</ele>
        <time>2013-08-05T19:39:06.000Z</time>
      </trkpt>
      <trkpt lat="48.83991" lon="2.33053">
        <ele>98.9</ele>
        <time>2013-08-05T19:39:07.000Z</time>
      </trkpt>
      <trkpt lat="48.83986" lon="2.33056">
        <ele>98.5</ele>
        <time>2013-08-05T19:39:08.000Z</time>
      </trkpt>
      <trkpt lat="48.83982" lon="2.33058">
        <ele>99.1</ele>
        <time>2013-08-05T19:39:09.000Z</time>
      </trkpt>
      <trkpt lat="48.83978" lon="2.3306">
        <ele>99.8</ele>
        <time>2013-08-05T19:39:10.000Z</time>
      </trkpt>
      <trkpt lat="48.83973" lon="2.33061">
        <ele>99.7</ele>
        <time>2013-08-05T19:39:11.000Z</time>
      </trkpt>
      <trkpt lat="48.83969" lon="2.33061">
        <ele>100.3</ele>
        <time>2013-08-05T19:39:12.000Z</time>
      </trkpt>
      <trkpt lat="48.83965" lon="2.33062">
        <ele>100</ele>
        <time>2013-08-05T19:39:13.000Z</time>
      </trkpt>
      <trkpt lat="48.83962" lon="2.33062">
        <ele>99</ele>
        <time>2013-08-05T19:39:14.000Z</time>
      </trkpt>
      <trkpt lat="48.83958" lon="2.3306">
        <ele>99.8</ele>
        <time>2013-08-05T19:39:15.000Z</time>
      </trkpt>
      <trkpt lat="48.83954" lon="2.33059">
        <ele>100.7</ele>
        <time>2013-08-05T19:39:16.000Z</time>
      </trkpt>
      <trkpt lat="48.8395" lon="2.33057">
        <ele>99.8</ele>
        <time>2013-08-05T19:39:17.000Z</time>
      </trkpt>
      <trkpt lat="48.83947" lon="2.33053">
        <ele>99.4</ele>
        <time>2013-08-05T19:39:18.000Z</time>
      </trkpt>
      <trkpt lat="48.83944" lon="2.33046">
        <ele>100.4</ele>
        <time>2013-08-05T19:39:19.000Z</time>
      </trkpt>
      <trkpt lat="48.83942" lon="2.33041">
        <ele>99.3</ele>
        <time>2013-08-05T19:39:20.000Z</time>
      </trkpt>
      <trkpt lat="48.83939" lon="2.33036">
        <ele>98.2</ele>
        <time>2013-08-05T19:39:21.000Z</time>
      </trkpt>
      <trkpt lat="48.83936" lon="2.3303">
        <ele>99.1</ele>
        <time>2013-08-05T19:39:22.000Z</time>
      </trkpt>
      <trkpt lat="48.83933" lon="2.33025">
        <ele>99.8</ele>
        <time>2013-08-05T19:39:23.000Z</time>
      </trkpt>
      <trkpt lat="48.8393" lon="2.3302">
        <ele>99.6</ele>
        <time>2013-08-05T19:39:24.000Z</time>
      </trkpt>
      <trkpt lat="48.83927" lon="2.33016">
        <ele>99.4</ele>
        <time>2013-08-05T19:39:25.000Z</time>
      </trkpt>
      <trkpt lat="48.83924" lon="2.33012">
        <ele>100</ele>
        <time>2013-08-05T19:39:26.000Z</time>
      </trkpt>
      <trkpt lat="48.83921" lon="2.33008">
        <ele>100.7</ele>
        <time>2013-08-05T19:39:27.000Z</time>
      </trkpt>
      <trkpt lat="48.83918" lon="2.33004">
        <ele>100.4</ele>
        <time>2013-08-05T19:39:28.000Z</time>
      </trkpt>
      <trkpt lat="48.83915" lon="2.33001">
        <ele>101</ele>
        <time>2013-08-05T19:39:29.000Z</time>
      </trkpt>
      <trkpt lat="48.83911" lon="2.32998">
        <ele>101.4</ele>
        <time>2013-08-05T19:39:30.000Z</time>
      </trkpt>
      <trkpt lat="48.83908" lon="2.32996">
        <ele>102.1</ele>
        <time>2013-08-05T19:39:31.000Z</time>
      </trkpt>
      <trkpt lat="48.83904" lon="2.32994">
        <ele>102.7</ele>
        <time>2013-08-05T19:39:32.000Z</time>
      </trkpt>
      <trkpt lat="48.83901" lon="2.32992">
        <ele>102</ele>
        <time>2013-08-05T19:39:33.000Z</time>
      </trkpt>
      <trkpt lat="48.83897" lon="2.3299">
        <ele>101.7</ele>
        <time>2013-08-05T19:39:34.000Z</time>
      </trkpt>
      <trkpt lat="48.83893" lon="2.32989">
        <ele>101.7</ele>
        <time>2013-08-05T19:39:35.000Z</time>
      </trkpt>
      <trkpt lat="48.8389" lon="2.32987">
        <ele>101.8</ele>
        <time>2013-08-05T19:39:36.000Z</time>
      </trkpt>
      <trkpt lat="48.83886" lon="2.32985">
        <ele>101.6</ele>
        <time>2013-08-05T19:39:37.000Z</time>
      </trkpt>
      <trkpt lat="48.83882" lon="2.32983">
        <ele>102.5</ele>
        <time>2013-08-05T19:39:38.000Z</time>
      </trkpt>
      <trkpt lat="48.83879" lon="2.3298">
        <ele>103</ele>
        <time>2013-08-05T19:39:39.000Z</time>
      </trkpt>
      <trkpt lat="48.83875" lon="2.32979">
        <ele>103.5</ele>
        <time>2013-08-05T19:39:40.000Z</time>
      </trkpt>
      <trkpt lat="48.83872" lon="2.32978">
        <ele>103.2</ele>
        <time>2013-08-05T19:39:41.000Z</time>
      </trkpt>
      <trkpt lat="48.8387" lon="2.32977">
        <ele>103.3</ele>
        <time>2013-08-05T19:39:42.000Z</time>
      </trkpt>
      <trkpt lat="48.83867" lon="2.32976">
        <ele>103.4</ele>
        <time>2013-08-05T19:39:43.000Z</time>
      </trkpt>
      <trkpt lat="48.83863" lon="2.32974">
        <ele>103.9</ele>
        <time>2013-08-05T19:39:44.000Z</time>
      </trkpt>
      <trkpt lat="48.8386" lon="2.32971">
        <ele>105.6</ele>
        <time>2013-08-05T19:39:45.000Z</time>
      </trkpt>
      <trkpt lat="48.83855" lon="2.32968">
        <ele>106.4</ele>
        <time>2013-08-05T19:39:46.000Z</time>
      </trkpt>
      <trkpt lat="48.83851" lon="2.32965">
        <ele>105.9</ele>
        <time>2013-08-05T19:39:47.000Z</time>
      </trkpt>
      <trkpt lat="48.83847" lon="2.32962">
        <ele>106</ele>
        <time>2013-08-05T19:39:48.000Z</time>
      </trkpt>
      <trkpt lat="48.83843" lon="2.32959">
        <ele>105.9</ele>
        <time>2013-08-05T19:39:49.000Z</time>
      </trkpt>
      <trkpt lat="48.83839" lon="2.32956">
        <ele>105.9</ele>
        <time>2013-08-05T19:39:50.000Z</time>
      </trkpt>
      <trkpt lat="48.83835" lon="2.32953">
        <ele>106.2</ele>
        <time>2013-08-05T19:39:51.000Z</time>
      </trkpt>
      <trkpt lat="48.83829" lon="2.32949">
        <ele>106.3</ele>
        <time>2013-08-05T19:39:52.727Z</time>
      </trkpt>
      <trkpt lat="48.83824" lon="2.32946">
        <ele>106.3</ele>
        <time>2013-08-05T19:39:54.000Z</time>
      </trkpt>
      <trkpt lat="48.8382" lon="2.32943">
        <ele>106.8</ele>
        <time>2013-08-05T19:39:55.000Z</time>
      </trkpt>
      <trkpt lat="48.83816" lon="2.3294">
        <ele>106.4</ele>
        <time>2013-08-05T19:39:56.000Z</time>
      </trkpt>
      <trkpt lat="48.83812" lon="2.32937">
        <ele>106.4</ele>
        <time>2013-08-05T19:39:57.000Z</time>
      </trkpt>
      <trkpt lat="48.83809" lon="2.32934">
        <ele>106.4</ele>
        <time>2013-08-05T19:39:58.000Z</time>
      </trkpt>
      <trkpt lat="48.83806" lon="2.32931">
        <ele>105.4</ele>
        <time>2013-08-05T19:39:59.000Z</time>
      </trkpt>
      <trkpt lat="48.83802" lon="2.32929">
        <ele>105.2</ele>
        <time>2013-08-05T19:40:00.000Z</time>
      </trkpt>
      <trkpt lat="48.838" lon="2.32927">
        <ele>105.6</ele>
        <time>2013-08-05T19:40:01.000Z</time>
      </trkpt>
      <trkpt lat="48.83797" lon="2.32926">
        <ele>105.1</ele>
        <time>2013-08-05T19:40:02.000Z</time>
      </trkpt>
      <trkpt lat="48.83793" lon="2.32924">
        <ele>104.6</ele>
        <time>2013-08-05T19:40:03.000Z</time>
      </trkpt>
      <trkpt lat="48.8379" lon="2.32921">
        <ele>103.9</ele>
        <time>2013-08-05T19:40:04.000Z</time>
      </trkpt>
      <trkpt lat="48.83786" lon="2.32917">
        <ele>103.2</ele>
        <time>2013-08-05T19:40:05.000Z</time>
      </trkpt>
      <trkpt lat="48.83782" lon="2.32913">
        <ele>101.7</ele>
        <time>2013-08-05T19:40:06.000Z</time>
      </trkpt>
      <trkpt lat="48.83778" lon="2.32906">
        <ele>103.3</ele>
        <time>2013-08-05T19:40:07.000Z</time>
      </trkpt>
      <trkpt lat="48.83774" lon="2.32904">
        <ele>104.4</ele>
        <time>2013-08-05T19:40:08.000Z</time>
      </trkpt>
      <trkpt lat="48.8377" lon="2.32901">
        <ele>103.8</ele>
        <time>2013-08-05T19:40:09.000Z</time>
      </trkpt>
      <trkpt lat="48.83766" lon="2.32896">
        <ele>105.8</ele>
        <time>2013-08-05T19:40:10.000Z</time>
      </trkpt>
      <trkpt lat="48.83762" lon="2.32893">
        <ele>106.1</ele>
        <time>2013-08-05T19:40:11.000Z</time>
      </trkpt>
      <trkpt lat="48.83757" lon="2.32889">
        <ele>106.2</ele>
        <time>2013-08-05T19:40:12.000Z</time>
      </trkpt>
      <trkpt lat="48.83753" lon="2.32886">
        <ele>104.6</ele>
        <time>2013-08-05T19:40:13.000Z</time>
      </trkpt>
      <trkpt lat="48.8375" lon="2.32883">
        <ele>103.9</ele>
        <time>2013-08-05T19:40:14.000Z</time>
      </trkpt>
      <trkpt lat="48.83746" lon="2.32879">
        <ele>103.9</ele>
        <time>2013-08-05T19:40:15.000Z</time>
      </trkpt>
      <trkpt lat="48.83742" lon="2.32876">
        <ele>104.7</ele>
        <time>2013-08-05T19:40:16.000Z</time>
      </trkpt>
      <trkpt lat="48.83738" lon="2.32875">
        <ele>104.7</ele>
        <time>2013-08-05T19:40:17.000Z</time>
      </trkpt>
      <trkpt lat="48.83735" lon="2.32871">
        <ele>105.4</ele>
        <time>2013-08-05T19:40:18.000Z</time>
      </trkpt>
      <trkpt lat="48.83731" lon="2.32868">
        <ele>105.6</ele>
        <time>2013-08-05T19:40:19.000Z</time>
      </trkpt>
      <trkpt lat="48.83727" lon="2.32865">
        <ele>105.5</ele>
        <time>2013-08-05T19:40:20.000Z</time>
      </trkpt>
      <trkpt lat="48.83723" lon="2.32862">
        <ele>106.9</ele>
        <time>2013-08-05T19:40:21.000Z</time>
      </trkpt>
      <trkpt lat="48.83719" lon="2.3286">
        <ele>107.1</ele>
        <time>2013-08-05T19:40:22.000Z</time>
      </trkpt>
      <trkpt lat="48.83715" lon="2.32859">
        <ele>107.5</ele>
        <time>2013-08-05T19:40:23.000Z</time>
      </trkpt>
      <trkpt lat="48.83711" lon="2.32857">
        <ele>107.1</ele>
        <time>2013-08-05T19:40:24.000Z</time>
      </trkpt>
      <trkpt lat="48.83707" lon="2.32855">
        <ele>107.9</ele>
        <time>2013-08-05T19:40:25.000Z</time>
      </trkpt>
      <trkpt lat="48.83704" lon="2.32853">
        <ele>107.3</ele>
        <time>2013-08-05T19:40:26.000Z</time>
      </trkpt>
      <trkpt lat="48.837" lon="2.3285">
        <ele>107.2</ele>
        <time>2013-08-05T19:40:27.000Z</time>
      </trkpt>
      <trkpt lat="48.83697" lon="2.32847">
        <ele>107.8</ele>
        <time>2013-08-05T19:40:28.000Z</time>
      </trkpt>
      <trkpt lat="48.83694" lon="2.32844">
        <ele>107.4</ele>
        <time>2013-08-05T19:40:29.000Z</time>
      </trkpt>
      <trkpt lat="48.83691" lon="2.3284">
        <ele>106.8</ele>
        <time>2013-08-05T19:40:30.000Z</time>
      </trkpt>
      <trkpt lat="48.83688" lon="2.32837">
        <ele>106.7</ele>
        <time>2013-08-05T19:40:31.000Z</time>
      </trkpt>
      <trkpt lat="48.83685" lon="2.32834">
        <ele>106.2</ele>
        <time>2013-08-05T19:40:32.000Z</time>
      </trkpt>
      <trkpt lat="48.83682" lon="2.32832">
        <ele>106.4</ele>
        <time>2013-08-05T19:40:33.000Z</time>
      </trkpt>
      <trkpt lat="48.83678" lon="2.32828">
        <ele>106.5</ele>
        <time>2013-08-05T19:40:34.000Z</time>
      </trkpt>
      <trkpt lat="48.83675" lon="2.32825">
        <ele>105.7</ele>
        <time>2013-08-05T19:40:35.000Z</time>
      </trkpt>
      <trkpt lat="48.83671" lon="2.32823">
        <ele>104.8</ele>
        <time>2013-08-05T19:40:36.000Z</time>
      </trkpt>
      <trkpt lat="48.83667" lon="2.3282">
        <ele>104.4</ele>
        <time>2013-08-05T19:40:37.000Z</time>
      </trkpt>
      <trkpt lat="48.83664" lon="2.32818">
        <ele>103.9</ele>
        <time>2013-08-05T19:40:38.000Z</time>
      </trkpt>
      <trkpt lat="48.8366" lon="2.32814">
        <ele>106.4</ele>
        <time>2013-08-05T19:40:39.000Z</time>
      </trkpt>
      <trkpt lat="48.83657" lon="2.32811">
        <ele>107.9</ele>
        <time>2013-08-05T19:40:40.000Z</time>
      </trkpt>
      <trkpt lat="48.83653" lon="2.32809">
        <ele>107.9</ele>
        <time>2013-08-05T19:40:41.000Z</time>
      </trkpt>
      <trkpt lat="48.8365" lon="2.32806">
        <ele>108.7</ele>
        <time>2013-08-05T19:40:42.000Z</time>
      </trkpt>
      <trkpt lat="48.83647" lon="2.32804">
        <ele>109.7</ele>
        <time>2013-08-05T19:40:43.000Z</time>
      </trkpt>
      <trkpt lat="48.83644" lon="2.32802">
        <ele>108.8</ele>
        <time>2013-08-05T19:40:44.000Z</time>
      </trkpt>
      <trkpt lat="48.83642" lon="2.328">
        <ele>109</ele>
        <time>2013-08-05T19:40:45.000Z</time>
      </trkpt>
      <trkpt lat="48.83639" lon="2.32797">
        <ele>108.7</ele>
        <time>2013-08-05T19:40:46.000Z</time>
      </trkpt>
      <trkpt lat="48.83636" lon="2.32795">
        <ele>109.1</ele>
        <time>2013-08-05T19:40:47.000Z</time>
      </trkpt>
      <trkpt lat="48.83633" lon="2.32793">
        <ele>108.7</ele>
        <time>2013-08-05T19:40:48.000Z</time>
      </trkpt>
      <trkpt lat="48.8363" lon="2.32791">
        <ele>108.8</ele>
        <time>2013-08-05T19:40:49.000Z</time>
      </trkpt>
      <trkpt lat="48.83627" lon="2.32789">
        <ele>108.9</ele>
        <time>2013-08-05T19:40:50.000Z</time>
      </trkpt>
      <trkpt lat="48.83624" lon="2.32787">
        <ele>108.9</ele>
        <time>2013-08-05T19:40:51.000Z</time>
      </trkpt>
      <trkpt lat="48.8362" lon="2.32783">
        <ele>108.7</ele>
        <time>2013-08-05T19:40:52.746Z</time>
      </trkpt>
      <trkpt lat="48.83616" lon="2.3278">
        <ele>109.8</ele>
        <time>2013-08-05T19:40:54.000Z</time>
      </trkpt>
      <trkpt lat="48.83614" lon="2.32777">
        <ele>110.1</ele>
        <time>2013-08-05T19:40:55.000Z</time>
      </trkpt>
      <trkpt lat="48.83612" lon="2.32775">
        <ele>111.1</ele>
        <time>2013-08-05T19:40:56.000Z</time>
      </trkpt>
      <trkpt lat="48.8361" lon="2.32772">
        <ele>111</ele>
        <time>2013-08-05T19:40:57.000Z</time>
      </trkpt>
      <trkpt lat="48.83608" lon="2.3277">
        <ele>110.8</ele>
        <time>2013-08-05T19:40:58.000Z</time>
      </trkpt>
      <trkpt lat="48.83607" lon="2.32766">
        <ele>110.7</ele>
        <time>2013-08-05T19:40:59.000Z</time>
      </trkpt>
      <trkpt lat="48.83605" lon="2.32763">
        <ele>110.6</ele>
        <time>2013-08-05T19:41:00.000Z</time>
      </trkpt>
      <trkpt lat="48.83605" lon="2.32759">
        <ele>110.6</ele>
        <time>2013-08-05T19:41:01.000Z</time>
      </trkpt>
      <trkpt lat="48.83605" lon="2.32754">
        <ele>110.8</ele>
        <time>2013-08-05T19:41:02.000Z</time>
      </trkpt>
      <trkpt lat="48.83605" lon="2.32751">
        <ele>110.7</ele>
        <time>2013-08-05T19:41:03.000Z</time>
      </trkpt>
      <trkpt lat="48.83607" lon="2.32744">
        <ele>112</ele>
        <time>2013-08-05T19:41:04.000Z</time>
      </trkpt>
      <trkpt lat="48.83608" lon="2.32737">
        <ele>109.8</ele>
        <time>2013-08-05T19:41:05.000Z</time>
      </trkpt>
      <trkpt lat="48.8361" lon="2.32731">
        <ele>109.5</ele>
        <time>2013-08-05T19:41:06.000Z</time>
      </trkpt>
      <trkpt lat="48.83612" lon="2.32725">
        <ele>110.2</ele>
        <time>2013-08-05T19:41:07.000Z</time>
      </trkpt>
      <trkpt lat="48.83614" lon="2.3272">
        <ele>110.3</ele>
        <time>2013-08-05T19:41:08.000Z</time>
      </trkpt>
      <trkpt lat="48.83616" lon="2.32716">
        <ele>114.2</ele>
        <time>2013-08-05T19:41:09.000Z</time>
      </trkpt>
      <trkpt lat="48.83619" lon="2.32711">
        <ele>115.3</ele>
        <time>2013-08-05T19:41:10.000Z</time>
      </trkpt>
      <trkpt lat="48.83621" lon="2.32707">
        <ele>116.3</ele>
        <time>2013-08-05T19:41:11.000Z</time>
      </trkpt>
      <trkpt lat="48.83623" lon="2.32702">
        <ele>116.5</ele>
        <time>2013-08-05T19:41:12.000Z</time>
      </trkpt>
      <trkpt lat="48.83625" lon="2.32697">
        <ele>116.8</ele>
        <time>2013-08-05T19:41:13.000Z</time>
      </trkpt>
      <trkpt lat="48.83626" lon="2.32691">
        <ele>117.2</ele>
        <time>2013-08-05T19:41:14.000Z</time>
      </trkpt>
      <trkpt lat="48.83627" lon="2.32686">
        <ele>117.7</ele>
        <time>2013-08-05T19:41:15.000Z</time>
      </trkpt>
      <trkpt lat="48.83629" lon="2.32681">
        <ele>118.2</ele>
        <time>2013-08-05T19:41:16.000Z</time>
      </trkpt>
      <trkpt lat="48.8363" lon="2.32675">
        <ele>118.8</ele>
        <time>2013-08-05T19:41:17.000Z</time>
      </trkpt>
      <trkpt lat="48.83631" lon="2.32671">
        <ele>119.2</ele>
        <time>2013-08-05T19:41:18.000Z</time>
      </trkpt>
      <trkpt lat="48.83632" lon="2.32665">
        <ele>117.1</ele>
        <time>2013-08-05T19:41:19.000Z</time>
      </trkpt>
      <trkpt lat="48.83634" lon="2.32661">
        <ele>118.9</ele>
        <time>2013-08-05T19:41:20.000Z</time>
      </trkpt>
      <trkpt lat="48.83636" lon="2.32657">
        <ele>119.1</ele>
        <time>2013-08-05T19:41:21.000Z</time>
      </trkpt>
      <trkpt lat="48.83638" lon="2.32654">
        <ele>119.2</ele>
        <time>2013-08-05T19:41:22.000Z</time>
      </trkpt>
      <trkpt lat="48.8364" lon="2.3265">
        <ele>120.2</ele>
        <time>2013-08-05T19:41:23.000Z</time>
      </trkpt>
      <trkpt lat="48.83642" lon="2.32645">
        <ele>120.4</ele>
        <time>2013-08-05T19:41:24.000Z</time>
      </trkpt>
      <trkpt lat="48.83644" lon="2.32641">
        <ele>120.8</ele>
        <time>2013-08-05T19:41:25.000Z</time>
      </trkpt>
      <trkpt lat="48.83646" lon="2.32636">
        <ele>121.4</ele>
        <time>2013-08-05T19:41:26.000Z</time>
      </trkpt>
      <trkpt lat="48.83648" lon="2.32631">
        <ele>122.4</ele>
        <time>2013-08-05T19:41:27.000Z</time>
      </trkpt>
      <trkpt lat="48.83649" lon="2.32625">
        <ele>122.8</ele>
        <time>2013-08-05T19:41:28.000Z</time>
      </trkpt>
      <trkpt lat="48.8365" lon="2.3262">
        <ele>122.7</ele>
        <time>2013-08-05T19:41:29.000Z</time>
      </trkpt>
      <trkpt lat="48.83652" lon="2.32614">
        <ele>124.1</ele>
        <time>2013-08-05T19:41:30.000Z</time>
      </trkpt>
      <trkpt lat="48.83654" lon="2.32608">
        <ele>124.4</ele>
        <time>2013-08-05T19:41:31.000Z</time>
      </trkpt>
      <trkpt lat="48.83656" lon="2.32603">
        <ele>125</ele>
        <time>2013-08-05T19:41:32.000Z</time>
      </trkpt>
      <trkpt lat="48.83658" lon="2.32597">
        <ele>124.1</ele>
        <time>2013-08-05T19:41:33.000Z</time>
      </trkpt>
      <trkpt lat="48.83659" lon="2.32591">
        <ele>123.3</ele>
        <time>2013-08-05T19:41:34.000Z</time>
      </trkpt>
      <trkpt lat="48.83661" lon="2.32585">
        <ele>122.9</ele>
        <time>2013-08-05T19:41:35.000Z</time>
      </trkpt>
      <trkpt lat="48.83662" lon="2.32579">
        <ele>122.5</ele>
        <time>2013-08-05T19:41:36.000Z</time>
      </trkpt>
      <trkpt lat="48.83664" lon="2.32573">
        <ele>123.5</ele>
        <time>2013-08-05T19:41:37.000Z</time>
      </trkpt>
      <trkpt lat="48.83666" lon="2.32568">
        <ele>124.4</ele>
        <time>2013-08-05T19:41:38.000Z</time>
      </trkpt>
      <trkpt lat="48.83669" lon="2.32562">
        <ele>124.1</ele>
        <time>2013-08-05T19:41:39.000Z</time>
      </trkpt>
      <trkpt lat="48.8367" lon="2.32557">
        <ele>123.1</ele>
        <time>2013-08-05T19:41:40.000Z</time>
      </trkpt>
      <trkpt lat="48.83672" lon="2.32551">
        <ele>122.5</ele>
        <time>2013-08-05T19:41:41.000Z</time>
      </trkpt>
      <trkpt lat="48.83674" lon="2.32541">
        <ele>121.5</ele>
        <time>2013-08-05T19:41:42.000Z</time>
      </trkpt>
      <trkpt lat="48.83675" lon="2.32536">
        <ele>121.4</ele>
        <time>2013-08-05T19:41:43.000Z</time>
      </trkpt>
      <trkpt lat="48.83678" lon="2.3253">
        <ele>123.3</ele>
        <time>2013-08-05T19:41:44.000Z</time>
      </trkpt>
      <trkpt lat="48.8368" lon="2.32523">
        <ele>123.8</ele>
        <time>2013-08-05T19:41:45.000Z</time>
      </trkpt>
      <trkpt lat="48.83683" lon="2.32519">
        <ele>123.8</ele>
        <time>2013-08-05T19:41:46.000Z</time>
      </trkpt>
      <trkpt lat="48.83684" lon="2.32513">
        <ele>124</ele>
        <time>2013-08-05T19:41:47.000Z</time>
      </trkpt>
      <trkpt lat="48.83686" lon="2.32506">
        <ele>123.8</ele>
        <time>2013-08-05T19:41:48.000Z</time>
      </trkpt>
      <trkpt lat="48.83689" lon="2.32501">
        <ele>124.4</ele>
        <time>2013-08-05T19:41:49.000Z</time>
      </trkpt>
      <trkpt lat="48.83691" lon="2.32495">
        <ele>126.3</ele>
        <time>2013-08-05T19:41:50.000Z</time>
      </trkpt>
      <trkpt lat="48.83693" lon="2.32489">
        <ele>125.5</ele>
        <time>2013-08-05T19:41:51.000Z</time>
      </trkpt>
      <trkpt lat="48.83698" lon="2.32476">
        <ele>126.1</ele>
        <time>2013-08-05T19:41:53.272Z</time>
      </trkpt>
      <trkpt lat="48.83699" lon="2.32474">
        <ele>126</ele>
        <time>2013-08-05T19:41:54.000Z</time>
      </trkpt>
      <trkpt lat="48.83701" lon="2.32467">
        <ele>124.4</ele>
        <time>2013-08-05T19:41:55.000Z</time>
      </trkpt>
      <trkpt lat="48.83702" lon="2.32461">
        <ele>125.8</ele>
        <time>2013-08-05T19:41:56.000Z</time>
      </trkpt>
      <trkpt lat="48.83705" lon="2.32455">
        <ele>126.7</ele>
        <time>2013-08-05T19:41:57.000Z</time>
      </trkpt>
      <trkpt lat="48.83707" lon="2.32449">
        <ele>125.3</ele>
        <time>2013-08-05T19:41:58.000Z</time>
      </trkpt>
      <trkpt lat="48.8371" lon="2.32443">
        <ele>124.4</ele>
        <time>2013-08-05T19:41:59.000Z</time>
      </trkpt>
      <trkpt lat="48.83711" lon="2.32436">
        <ele>123.6</ele>
        <time>2013-08-05T19:42:00.000Z</time>
      </trkpt>
      <trkpt lat="48.83712" lon="2.3243">
        <ele>124.1</ele>
        <time>2013-08-05T19:42:01.000Z</time>
      </trkpt>
      <trkpt lat="48.83715" lon="2.32424">
        <ele>124.1</ele>
        <time>2013-08-05T19:42:02.000Z</time>
      </trkpt>
      <trkpt lat="48.83716" lon="2.32418">
        <ele>123.6</ele>
        <time>2013-08-05T19:42:03.000Z</time>
      </trkpt>
      <trkpt lat="48.83718" lon="2.32412">
        <ele>123.6</ele>
        <time>2013-08-05T19:42:04.000Z</time>
      </trkpt>
      <trkpt lat="48.8372" lon="2.32407">
        <ele>123.8</ele>
        <time>2013-08-05T19:42:05.000Z</time>
      </trkpt>
      <trkpt lat="48.83722" lon="2.32401">
        <ele>124.6</ele>
        <time>2013-08-05T19:42:06.000Z</time>
      </trkpt>
      <trkpt lat="48.83723" lon="2.32396">
        <ele>122</ele>
        <time>2013-08-05T19:42:07.000Z</time>
      </trkpt>
      <trkpt lat="48.83724" lon="2.3239">
        <ele>121.6</ele>
        <time>2013-08-05T19:42:08.000Z</time>
      </trkpt>
      <trkpt lat="48.83726" lon="2.32384">
        <ele>121.5</ele>
        <time>2013-08-05T19:42:09.000Z</time>
      </trkpt>
      <trkpt lat="48.83728" lon="2.32379">
        <ele>122.5</ele>
        <time>2013-08-05T19:42:10.000Z</time>
      </trkpt>
      <trkpt lat="48.8373" lon="2.32374">
        <ele>122.5</ele>
        <time>2013-08-05T19:42:11.000Z</time>
      </trkpt>
      <trkpt lat="48.83731" lon="2.32369">
        <ele>122.5</ele>
        <time>2013-08-05T19:42:12.000Z</time>
      </trkpt>
      <trkpt lat="48.83733" lon="2.32364">
        <ele>122.6</ele>
        <time>2013-08-05T19:42:13.000Z</time>
      </trkpt>
      <trkpt lat="48.83735" lon="2.32358">
        <ele>122.3</ele>
        <time>2013-08-05T19:42:14.000Z</time>
      </trkpt>
      <trkpt lat="48.83737" lon="2.32353">
        <ele>122</ele>
        <time>2013-08-05T19:42:15.000Z</time>
      </trkpt>
      <trkpt lat="48.83739" lon="2.32348">
        <ele>122.1</ele>
        <time>2013-08-05T19:42:16.000Z</time>
      </trkpt>
      <trkpt lat="48.8374" lon="2.32343">
        <ele>122.1</ele>
        <time>2013-08-05T19:42:17.000Z</time>
      </trkpt>
      <trkpt lat="48.83742" lon="2.32338">
        <ele>122.3</ele>
        <time>2013-08-05T19:42:18.000Z</time>
      </trkpt>
      <trkpt lat="48.83743" lon="2.32334">
        <ele>121.9</ele>
        <time>2013-08-05T19:42:19.000Z</time>
      </trkpt>
      <trkpt lat="48.83746" lon="2.32332">
        <ele>122</ele>
        <time>2013-08-05T19:42:20.000Z</time>
      </trkpt>
      <trkpt lat="48.83748" lon="2.32328">
        <ele>122.2</ele>
        <time>2013-08-05T19:42:21.000Z</time>
      </trkpt>
      <trkpt lat="48.8375" lon="2.32324">
        <ele>122.9</ele>
        <time>2013-08-05T19:42:22.000Z</time>
      </trkpt>
      <trkpt lat="48.83751" lon="2.32321">
        <ele>123</ele>
        <time>2013-08-05T19:42:23.000Z</time>
      </trkpt>
      <trkpt lat="48.83753" lon="2.32314">
        <ele>125.8</ele>
        <time>2013-08-05T19:42:26.000Z</time>
      </trkpt>
      <trkpt lat="48.83753" lon="2.32313">
        <ele>126.8</ele>
        <time>2013-08-05T19:42:27.000Z</time>
      </trkpt>
      <trkpt lat="48.83754" lon="2.32308">
        <ele>127.6</ele>
        <time>2013-08-05T19:43:07.000Z</time>
      </trkpt>
      <trkpt lat="48.83755" lon="2.32304">
        <ele>127.7</ele>
        <time>2013-08-05T19:43:08.000Z</time>
      </trkpt>
      <trkpt lat="48.83756" lon="2.323">
        <ele>127.5</ele>
        <time>2013-08-05T19:43:09.000Z</time>
      </trkpt>
      <trkpt lat="48.83757" lon="2.32296">
        <ele>123.7</ele>
        <time>2013-08-05T19:43:10.000Z</time>
      </trkpt>
      <trkpt lat="48.83757" lon="2.32292">
        <ele>120.8</ele>
        <time>2013-08-05T19:43:11.000Z</time>
      </trkpt>
      <trkpt lat="48.83758" lon="2.32289">
        <ele>119.4</ele>
        <time>2013-08-05T19:43:12.000Z</time>
      </trkpt>
      <trkpt lat="48.83759" lon="2.32285">
        <ele>120.8</ele>
        <time>2013-08-05T19:43:13.000Z</time>
      </trkpt>
      <trkpt lat="48.8376" lon="2.3228">
        <ele>120.8</ele>
        <time>2013-08-05T19:43:14.000Z</time>
      </trkpt>
      <trkpt lat="48.83761" lon="2.32275">
        <ele>120.9</ele>
        <time>2013-08-05T19:43:15.000Z</time>
      </trkpt>
      <trkpt lat="48.83762" lon="2.32271">
        <ele>120.5</ele>
        <time>2013-08-05T19:43:16.000Z</time>
      </trkpt>
      <trkpt lat="48.83763" lon="2.32266">
        <ele>121.6</ele>
        <time>2013-08-05T19:43:17.000Z</time>
      </trkpt>
      <trkpt lat="48.83763" lon="2.3226">
        <ele>121.6</ele>
        <time>2013-08-05T19:43:18.000Z</time>
      </trkpt>
      <trkpt lat="48.83764" lon="2.32255">
        <ele>122.1</ele>
        <time>2013-08-05T19:43:19.000Z</time>
      </trkpt>
      <trkpt lat="48.83764" lon="2.32249">
        <ele>121.3</ele>
        <time>2013-08-05T19:43:20.000Z</time>
      </trkpt>
      <trkpt lat="48.83764" lon="2.32243">
        <ele>119.1</ele>
        <time>2013-08-05T19:43:21.000Z</time>
      </trkpt>
      <trkpt lat="48.83764" lon="2.32238">
        <ele>117.5</ele>
        <time>2013-08-05T19:43:22.000Z</time>
      </trkpt>
      <trkpt lat="48.83764" lon="2.32232">
        <ele>116.7</ele>
        <time>2013-08-05T19:43:23.000Z</time>
      </trkpt>
      <trkpt lat="48.83764" lon="2.32226">
        <ele>115.3</ele>
        <time>2013-08-05T19:43:24.000Z</time>
      </trkpt>
      <trkpt lat="48.83765" lon="2.3222">
        <ele>114.2</ele>
        <time>2013-08-05T19:43:25.000Z</time>
      </trkpt>
      <trkpt lat="48.83765" lon="2.32214">
        <ele>114</ele>
        <time>2013-08-05T19:43:26.000Z</time>
      </trkpt>
      <trkpt lat="48.83766" lon="2.32208">
        <ele>114.5</ele>
        <time>2013-08-05T19:43:27.000Z</time>
      </trkpt>
      <trkpt lat="48.83766" lon="2.32202">
        <ele>114.9</ele>
        <time>2013-08-05T19:43:28.000Z</time>
      </trkpt>
      <trkpt lat="48.83766" lon="2.32196">
        <ele>115.6</ele>
        <time>2013-08-05T19:43:29.000Z</time>
      </trkpt>
      <trkpt lat="48.83765" lon="2.3219">
        <ele>114.9</ele>
        <time>2013-08-05T19:43:30.000Z</time>
      </trkpt>
      <trkpt lat="48.83764" lon="2.32184">
        <ele>114.9</ele>
        <time>2013-08-05T19:43:31.000Z</time>
      </trkpt>
      <trkpt lat="48.83764" lon="2.32178">
        <ele>113.9</ele>
        <time>2013-08-05T19:43:32.000Z</time>
      </trkpt>
      <trkpt lat="48.83763" lon="2.32172">
        <ele>116.1</ele>
        <time>2013-08-05T19:43:33.000Z</time>
      </trkpt>
      <trkpt lat="48.83762" lon="2.32166">
        <ele>117.4</ele>
        <time>2013-08-05T19:43:34.000Z</time>
      </trkpt>
      <trkpt lat="48.83761" lon="2.32161">
        <ele>117.3</ele>
        <time>2013-08-05T19:43:35.000Z</time>
      </trkpt>
      <trkpt lat="48.83759" lon="2.32157">
        <ele>117.6</ele>
        <time>2013-08-05T19:43:36.000Z</time>
      </trkpt>
      <trkpt lat="48.83757" lon="2.32153">
        <ele>119</ele>
        <time>2013-08-05T19:43:37.000Z</time>
      </trkpt>
      <trkpt lat="48.83755" lon="2.32148">
        <ele>120.8</ele>
        <time>2013-08-05T19:43:38.000Z</time>
      </trkpt>
      <trkpt lat="48.83753" lon="2.32143">
        <ele>123.2</ele>
        <time>2013-08-05T19:43:39.000Z</time>
      </trkpt>
      <trkpt lat="48.83751" lon="2.32139">
        <ele>124</ele>
        <time>2013-08-05T19:43:40.000Z</time>
      </trkpt>
      <trkpt lat="48.8375" lon="2.32134">
        <ele>123.3</ele>
        <time>2013-08-05T19:43:41.000Z</time>
      </trkpt>
      <trkpt lat="48.83748" lon="2.32131">
        <ele>124.3</ele>
        <time>2013-08-05T19:43:42.000Z</time>
      </trkpt>
      <trkpt lat="48.83747" lon="2.32126">
        <ele>123.1</ele>
        <time>2013-08-05T19:43:43.000Z</time>
      </trkpt>
      <trkpt lat="48.83747" lon="2.32122">
        <ele>123</ele>
        <time>2013-08-05T19:43:44.000Z</time>
      </trkpt>
      <trkpt lat="48.83748" lon="2.32117">
        <ele>123</ele>
        <time>2013-08-05T19:43:45.000Z</time>
      </trkpt>
      <trkpt lat="48.83748" lon="2.32112">
        <ele>124.6</ele>
        <time>2013-08-05T19:43:46.000Z</time>
      </trkpt>
      <trkpt lat="48.83748" lon="2.32107">
        <ele>124.8</ele>
        <time>2013-08-05T19:43:47.000Z</time>
      </trkpt>
      <trkpt lat="48.83749" lon="2.32101">
        <ele>126</ele>
        <time>2013-08-05T19:43:48.000Z</time>
      </trkpt>
      <trkpt lat="48.83749" lon="2.32096">
        <ele>125.4</ele>
        <time>2013-08-05T19:43:49.000Z</time>
      </trkpt>
      <trkpt lat="48.83749" lon="2.32091">
        <ele>128.8</ele>
        <time>2013-08-05T19:43:50.000Z</time>
      </trkpt>
      <trkpt lat="48.83749" lon="2.32086">
        <ele>130.3</ele>
        <time>2013-08-05T19:43:51.000Z</time>
      </trkpt>
      <trkpt lat="48.83749" lon="2.32071">
        <ele>130.7</ele>
        <time>2013-08-05T19:43:54.000Z</time>
      </trkpt>
      <trkpt lat="48.83749" lon="2.32067">
        <ele>129.9</ele>
        <time>2013-08-05T19:43:55.000Z</time>
      </trkpt>
      <trkpt lat="48.83749" lon="2.32063">
        <ele>130.7</ele>
        <time>2013-08-05T19:43:56.000Z</time>
      </trkpt>
      <trkpt lat="48.83749" lon="2.32059">
        <ele>130.8</ele>
        <time>2013-08-05T19:43:57.000Z</time>
      </trkpt>
      <trkpt lat="48.83748" lon="2.32055">
        <ele>132.5</ele>
        <time>2013-08-05T19:43:58.000Z</time>
      </trkpt>
      <trkpt lat="48.83748" lon="2.3205">
        <ele>133</ele>
        <time>2013-08-05T19:43:59.000Z</time>
      </trkpt>
      <trkpt lat="48.83748" lon="2.32045">
        <ele>133.3</ele>
        <time>2013-08-05T19:44:00.000Z</time>
      </trkpt>
      <trkpt lat="48.83748" lon="2.32041">
        <ele>133.3</ele>
        <time>2013-08-05T19:44:01.000Z</time>
      </trkpt>
      <trkpt lat="48.83748" lon="2.32037">
        <ele>131.5</ele>
        <time>2013-08-05T19:44:02.000Z</time>
      </trkpt>
      <trkpt lat="48.83747" lon="2.32032">
        <ele>132.5</ele>
        <time>2013-08-05T19:44:04.000Z</time>
      </trkpt>
      <trkpt lat="48.83745" lon="2.32029">
        <ele>130.7</ele>
        <time>2013-08-05T19:44:05.000Z</time>
      </trkpt>
      <trkpt lat="48.83744" lon="2.32026">
        <ele>131.6</ele>
        <time>2013-08-05T19:44:06.000Z</time>
      </trkpt>
      <trkpt lat="48.83743" lon="2.32023">
        <ele>132.1</ele>
        <time>2013-08-05T19:44:07.000Z</time>
      </trkpt>
      <trkpt lat="48.83742" lon="2.32019">
        <ele>132.2</ele>
        <time>2013-08-05T19:44:08.000Z</time>
      </trkpt>
      <trkpt lat="48.83741" lon="2.32015">
        <ele>128.4</ele>
        <time>2013-08-05T19:44:09.000Z</time>
      </trkpt>
      <trkpt lat="48.8374" lon="2.3201">
        <ele>130.4</ele>
        <time>2013-08-05T19:44:10.000Z</time>
      </trkpt>
      <trkpt lat="48.83739" lon="2.32006">
        <ele>128.6</ele>
        <time>2013-08-05T19:44:11.000Z</time>
      </trkpt>
      <trkpt lat="48.83739" lon="2.32001">
        <ele>127.9</ele>
        <time>2013-08-05T19:44:12.000Z</time>
      </trkpt>
      <trkpt lat="48.83738" lon="2.31995">
        <ele>126.8</ele>
        <time>2013-08-05T19:44:13.000Z</time>
      </trkpt>
      <trkpt lat="48.83737" lon="2.31988">
        <ele>126.9</ele>
        <time>2013-08-05T19:44:14.000Z</time>
      </trkpt>
      <trkpt lat="48.83737" lon="2.3198">
        <ele>126.9</ele>
        <time>2013-08-05T19:44:15.000Z</time>
      </trkpt>
      <trkpt lat="48.83737" lon="2.31973">
        <ele>128.2</ele>
        <time>2013-08-05T19:44:16.000Z</time>
      </trkpt>
      <trkpt lat="48.83736" lon="2.31968">
        <ele>129.1</ele>
        <time>2013-08-05T19:44:17.000Z</time>
      </trkpt>
      <trkpt lat="48.83736" lon="2.31962">
        <ele>132.3</ele>
        <time>2013-08-05T19:44:18.000Z</time>
      </trkpt>
      <trkpt lat="48.83735" lon="2.31957">
        <ele>130.9</ele>
        <time>2013-08-05T19:44:19.000Z</time>
      </trkpt>
      <trkpt lat="48.83733" lon="2.31953">
        <ele>130.3</ele>
        <time>2013-08-05T19:44:20.000Z</time>
      </trkpt>
      <trkpt lat="48.83732" lon="2.31949">
        <ele>130.5</ele>
        <time>2013-08-05T19:44:21.000Z</time>
      </trkpt>
      <trkpt lat="48.8373" lon="2.31945">
        <ele>130.2</ele>
        <time>2013-08-05T19:44:22.000Z</time>
      </trkpt>
      <trkpt lat="48.8373" lon="2.3194">
        <ele>130</ele>
        <time>2013-08-05T19:44:23.000Z</time>
      </trkpt>
      <trkpt lat="48.83729" lon="2.31935">
        <ele>127.8</ele>
        <time>2013-08-05T19:44:24.000Z</time>
      </trkpt>
      <trkpt lat="48.83728" lon="2.3193">
        <ele>127.8</ele>
        <time>2013-08-05T19:44:25.000Z</time>
      </trkpt>
      <trkpt lat="48.83727" lon="2.31924">
        <ele>127.5</ele>
        <time>2013-08-05T19:44:26.000Z</time>
      </trkpt>
      <trkpt lat="48.83726" lon="2.31919">
        <ele>126</ele>
        <time>2013-08-05T19:44:27.000Z</time>
      </trkpt>
      <trkpt lat="48.83725" lon="2.31913">
        <ele>125</ele>
        <time>2013-08-05T19:44:28.000Z</time>
      </trkpt>
      <trkpt lat="48.83725" lon="2.31907">
        <ele>123</ele>
        <time>2013-08-05T19:44:29.000Z</time>
      </trkpt>
      <trkpt lat="48.83725" lon="2.319">
        <ele>121.6</ele>
        <time>2013-08-05T19:44:30.000Z</time>
      </trkpt>
      <trkpt lat="48.83726" lon="2.31895">
        <ele>121.1</ele>
        <time>2013-08-05T19:44:31.000Z</time>
      </trkpt>
      <trkpt lat="48.83727" lon="2.31889">
        <ele>120.3</ele>
        <time>2013-08-05T19:44:32.000Z</time>
      </trkpt>
      <trkpt lat="48.83728" lon="2.31885">
        <ele>119.7</ele>
        <time>2013-08-05T19:44:33.000Z</time>
      </trkpt>
      <trkpt lat="48.83731" lon="2.31879">
        <ele>118.3</ele>
        <time>2013-08-05T19:44:34.000Z</time>
      </trkpt>
      <trkpt lat="48.83734" lon="2.31876">
        <ele>118.6</ele>
        <time>2013-08-05T19:44:35.000Z</time>
      </trkpt>
      <trkpt lat="48.83737" lon="2.31873">
        <ele>118.7</ele>
        <time>2013-08-05T19:44:36.000Z</time>
      </trkpt>
      <trkpt lat="48.83741" lon="2.31871">
        <ele>121.2</ele>
        <time>2013-08-05T19:44:37.000Z</time>
      </trkpt>
      <trkpt lat="48.83744" lon="2.3187">
        <ele>121.2</ele>
        <time>2013-08-05T19:44:38.000Z</time>
      </trkpt>
      <trkpt lat="48.83747" lon="2.31867">
        <ele>120</ele>
        <time>2013-08-05T19:44:39.000Z</time>
      </trkpt>
      <trkpt lat="48.83749" lon="2.31864">
        <ele>118.6</ele>
        <time>2013-08-05T19:44:40.000Z</time>
      </trkpt>
      <trkpt lat="48.83751" lon="2.31859">
        <ele>118.2</ele>
        <time>2013-08-05T19:44:41.000Z</time>
      </trkpt>
      <trkpt lat="48.83753" lon="2.31855">
        <ele>118.2</ele>
        <time>2013-08-05T19:44:42.000Z</time>
      </trkpt>
      <trkpt lat="48.83754" lon="2.3185">
        <ele>117.4</ele>
        <time>2013-08-05T19:44:43.000Z</time>
      </trkpt>
      <trkpt lat="48.83755" lon="2.31845">
        <ele>116.7</ele>
        <time>2013-08-05T19:44:44.000Z</time>
      </trkpt>
      <trkpt lat="48.83755" lon="2.3184">
        <ele>115.9</ele>
        <time>2013-08-05T19:44:45.000Z</time>
      </trkpt>
      <trkpt lat="48.83755" lon="2.31835">
        <ele>115.5</ele>
        <time>2013-08-05T19:44:46.000Z</time>
      </trkpt>
      <trkpt lat="48.83755" lon="2.3183">
        <ele>115.3</ele>
        <time>2013-08-05T19:44:47.000Z</time>
      </trkpt>
      <trkpt lat="48.83756" lon="2.31826">
        <ele>115.2</ele>
        <time>2013-08-05T19:44:48.000Z</time>
      </trkpt>
      <trkpt lat="48.83756" lon="2.31821">
        <ele>114.9</ele>
        <time>2013-08-05T19:44:49.000Z</time>
      </trkpt>
      <trkpt lat="48.83757" lon="2.31817">
        <ele>115.5</ele>
        <time>2013-08-05T19:44:50.000Z</time>
      </trkpt>
      <trkpt lat="48.83759" lon="2.31813">
        <ele>115.9</ele>
        <time>2013-08-05T19:44:51.000Z</time>
      </trkpt>
      <trkpt lat="48.83762" lon="2.31808">
        <ele>115.9</ele>
        <time>2013-08-05T19:44:52.624Z</time>
      </trkpt>
      <trkpt lat="48.83765" lon="2.31804">
        <ele>115.6</ele>
        <time>2013-08-05T19:44:54.000Z</time>
      </trkpt>
      <trkpt lat="48.83767" lon="2.31802">
        <ele>115.5</ele>
        <time>2013-08-05T19:44:55.000Z</time>
      </trkpt>
      <trkpt lat="48.8377" lon="2.31799">
        <ele>115.8</ele>
        <time>2013-08-05T19:44:56.000Z</time>
      </trkpt>
      <trkpt lat="48.83772" lon="2.31796">
        <ele>116.5</ele>
        <time>2013-08-05T19:44:57.000Z</time>
      </trkpt>
      <trkpt lat="48.83773" lon="2.31793">
        <ele>116.9</ele>
        <time>2013-08-05T19:44:58.000Z</time>
      </trkpt>
      <trkpt lat="48.83775" lon="2.31789">
        <ele>118.1</ele>
        <time>2013-08-05T19:44:59.000Z</time>
      </trkpt>
      <trkpt lat="48.83776" lon="2.31786">
        <ele>118.6</ele>
        <time>2013-08-05T19:45:00.000Z</time>
      </trkpt>
      <trkpt lat="48.83778" lon="2.31784">
        <ele>120.2</ele>
        <time>2013-08-05T19:45:01.000Z</time>
      </trkpt>
      <trkpt lat="48.83781" lon="2.31783">
        <ele>121.1</ele>
        <time>2013-08-05T19:45:02.000Z</time>
      </trkpt>
      <trkpt lat="48.83783" lon="2.31781">
        <ele>122.4</ele>
        <time>2013-08-05T19:45:03.000Z</time>
      </trkpt>
      <trkpt lat="48.83784" lon="2.31778">
        <ele>120.4</ele>
        <time>2013-08-05T19:45:04.000Z</time>
      </trkpt>
      <trkpt lat="48.83785" lon="2.31773">
        <ele>120.4</ele>
        <time>2013-08-05T19:45:05.000Z</time>
      </trkpt>
      <trkpt lat="48.83786" lon="2.31769">
        <ele>120.2</ele>
        <time>2013-08-05T19:45:06.000Z</time>
      </trkpt>
      <trkpt lat="48.83787" lon="2.31766">
        <ele>119.8</ele>
        <time>2013-08-05T19:45:07.000Z</time>
      </trkpt>
      <trkpt lat="48.8379" lon="2.31763">
        <ele>120.7</ele>
        <time>2013-08-05T19:45:08.000Z</time>
      </trkpt>
      <trkpt lat="48.83791" lon="2.3176">
        <ele>122.2</ele>
        <time>2013-08-05T19:45:09.000Z</time>
      </trkpt>
      <trkpt lat="48.83793" lon="2.31757">
        <ele>122.9</ele>
        <time>2013-08-05T19:45:10.000Z</time>
      </trkpt>
      <trkpt lat="48.83795" lon="2.31755">
        <ele>123.9</ele>
        <time>2013-08-05T19:45:11.000Z</time>
      </trkpt>
      <trkpt lat="48.83797" lon="2.31753">
        <ele>124</ele>
        <time>2013-08-05T19:45:12.000Z</time>
      </trkpt>
      <trkpt lat="48.83799" lon="2.31751">
        <ele>124.5</ele>
        <time>2013-08-05T19:45:13.000Z</time>
      </trkpt>
      <trkpt lat="48.83801" lon="2.31749">
        <ele>124.5</ele>
        <time>2013-08-05T19:45:14.000Z</time>
      </trkpt>
      <trkpt lat="48.83804" lon="2.31746">
        <ele>124.4</ele>
        <time>2013-08-05T19:45:15.000Z</time>
      </trkpt>
      <trkpt lat="48.83806" lon="2.31743">
        <ele>124.4</ele>
        <time>2013-08-05T19:45:16.000Z</time>
      </trkpt>
      <trkpt lat="48.83808" lon="2.3174">
        <ele>125.5</ele>
        <time>2013-08-05T19:45:17.000Z</time>
      </trkpt>
      <trkpt lat="48.8381" lon="2.31737">
        <ele>126.2</ele>
        <time>2013-08-05T19:45:18.000Z</time>
      </trkpt>
      <trkpt lat="48.83812" lon="2.31734">
        <ele>126.4</ele>
        <time>2013-08-05T19:45:19.000Z</time>
      </trkpt>
      <trkpt lat="48.83814" lon="2.31731">
        <ele>126.7</ele>
        <time>2013-08-05T19:45:20.000Z</time>
      </trkpt>
      <trkpt lat="48.83817" lon="2.31728">
        <ele>127.5</ele>
        <time>2013-08-05T19:45:21.000Z</time>
      </trkpt>
      <trkpt lat="48.83818" lon="2.31725">
        <ele>127.4</ele>
        <time>2013-08-05T19:45:22.000Z</time>
      </trkpt>
      <trkpt lat="48.83819" lon="2.31722">
        <ele>127.8</ele>
        <time>2013-08-05T19:45:23.000Z</time>
      </trkpt>
      <trkpt lat="48.8382" lon="2.31718">
        <ele>128.8</ele>
        <time>2013-08-05T19:45:24.000Z</time>
      </trkpt>
      <trkpt lat="48.83822" lon="2.31715">
        <ele>129</ele>
        <time>2013-08-05T19:45:25.000Z</time>
      </trkpt>
      <trkpt lat="48.83824" lon="2.31711">
        <ele>130.7</ele>
        <time>2013-08-05T19:45:26.000Z</time>
      </trkpt>
      <trkpt lat="48.83825" lon="2.31706">
        <ele>132</ele>
        <time>2013-08-05T19:45:27.000Z</time>
      </trkpt>
      <trkpt lat="48.83826" lon="2.31701">
        <ele>133.1</ele>
        <time>2013-08-05T19:45:28.000Z</time>
      </trkpt>
      <trkpt lat="48.83826" lon="2.31695">
        <ele>133.1</ele>
        <time>2013-08-05T19:45:29.000Z</time>
      </trkpt>
      <trkpt lat="48.83827" lon="2.31689">
        <ele>134.7</ele>
        <time>2013-08-05T19:45:30.000Z</time>
      </trkpt>
      <trkpt lat="48.83827" lon="2.31684">
        <ele>134.6</ele>
        <time>2013-08-05T19:45:31.000Z</time>
      </trkpt>
      <trkpt lat="48.83827" lon="2.3168">
        <ele>136.5</ele>
        <time>2013-08-05T19:45:33.000Z</time>
      </trkpt>
      <trkpt lat="48.83827" lon="2.31677">
        <ele>136.7</ele>
        <time>2013-08-05T19:45:34.000Z</time>
      </trkpt>
      <trkpt lat="48.83826" lon="2.31683">
        <ele>144.6</ele>
        <time>2013-08-05T19:45:36.000Z</time>
      </trkpt>
      <trkpt lat="48.83825" lon="2.31686">
        <ele>145.7</ele>
        <time>2013-08-05T19:45:37.000Z</time>
      </trkpt>
      <trkpt lat="48.83829" lon="2.31687">
        <ele>145.3</ele>
        <time>2013-08-05T19:45:41.000Z</time>
      </trkpt>
      <trkpt lat="48.83833" lon="2.31683">
        <ele>145</ele>
        <time>2013-08-05T19:45:42.000Z</time>
      </trkpt>
      <trkpt lat="48.83838" lon="2.31678">
        <ele>144.3</ele>
        <time>2013-08-05T19:45:43.000Z</time>
      </trkpt>
      <trkpt lat="48.83843" lon="2.31674">
        <ele>144.3</ele>
        <time>2013-08-05T19:45:44.000Z</time>
      </trkpt>
      <trkpt lat="48.83849" lon="2.3167">
        <ele>142.2</ele>
        <time>2013-08-05T19:45:45.000Z</time>
      </trkpt>
      <trkpt lat="48.83854" lon="2.31668">
        <ele>144.8</ele>
        <time>2013-08-05T19:45:46.000Z</time>
      </trkpt>
      <trkpt lat="48.83856" lon="2.31666">
        <ele>145.3</ele>
        <time>2013-08-05T19:45:47.000Z</time>
      </trkpt>
      <trkpt lat="48.83861" lon="2.31663">
        <ele>143.5</ele>
        <time>2013-08-05T19:45:48.000Z</time>
      </trkpt>
      <trkpt lat="48.83863" lon="2.31661">
        <ele>144.2</ele>
        <time>2013-08-05T19:45:49.000Z</time>
      </trkpt>
      <trkpt lat="48.83865" lon="2.31659">
        <ele>143.9</ele>
        <time>2013-08-05T19:45:50.000Z</time>
      </trkpt>
      <trkpt lat="48.83869" lon="2.31656">
        <ele>142.1</ele>
        <time>2013-08-05T19:45:52.626Z</time>
      </trkpt>
      <trkpt lat="48.8387" lon="2.31655">
        <ele>139.3</ele>
        <time>2013-08-05T19:45:54.000Z</time>
      </trkpt>
      <trkpt lat="48.83872" lon="2.31653">
        <ele>138.8</ele>
        <time>2013-08-05T19:45:55.000Z</time>
      </trkpt>
      <trkpt lat="48.83874" lon="2.31651">
        <ele>137.9</ele>
        <time>2013-08-05T19:45:56.000Z</time>
      </trkpt>
      <trkpt lat="48.83877" lon="2.31647">
        <ele>137.6</ele>
        <time>2013-08-05T19:46:01.000Z</time>
      </trkpt>
      <trkpt lat="48.83878" lon="2.31647">
        <ele>138</ele>
        <time>2013-08-05T19:46:02.000Z</time>
      </trkpt>
      <trkpt lat="48.83878" lon="2.3164">
        <ele>145.2</ele>
        <time>2013-08-05T19:46:21.000Z</time>
      </trkpt>
      <trkpt lat="48.83878" lon="2.31637">
        <ele>147.6</ele>
        <time>2013-08-05T19:46:22.000Z</time>
      </trkpt>
      <trkpt lat="48.83877" lon="2.31632">
        <ele>148.9</ele>
        <time>2013-08-05T19:46:23.000Z</time>
      </trkpt>
      <trkpt lat="48.83875" lon="2.31628">
        <ele>151.6</ele>
        <time>2013-08-05T19:46:24.000Z</time>
      </trkpt>
      <trkpt lat="48.83872" lon="2.31626">
        <ele>152.4</ele>
        <time>2013-08-05T19:46:25.000Z</time>
      </trkpt>
      <trkpt lat="48.83869" lon="2.31623">
        <ele>152.9</ele>
        <time>2013-08-05T19:46:26.000Z</time>
      </trkpt>
      <trkpt lat="48.83866" lon="2.31621">
        <ele>153.6</ele>
        <time>2013-08-05T19:46:27.000Z</time>
      </trkpt>
      <trkpt lat="48.83865" lon="2.31617">
        <ele>155.9</ele>
        <time>2013-08-05T19:46:28.000Z</time>
      </trkpt>
      <trkpt lat="48.83864" lon="2.31612">
        <ele>157.5</ele>
        <time>2013-08-05T19:46:29.000Z</time>
      </trkpt>
      <trkpt lat="48.83864" lon="2.31607">
        <ele>156.8</ele>
        <time>2013-08-05T19:46:30.000Z</time>
      </trkpt>
      <trkpt lat="48.83864" lon="2.31602">
        <ele>157.9</ele>
        <time>2013-08-05T19:46:31.000Z</time>
      </trkpt>
      <trkpt lat="48.83864" lon="2.31596">
        <ele>158.9</ele>
        <time>2013-08-05T19:46:32.000Z</time>
      </trkpt>
      <trkpt lat="48.83864" lon="2.31591">
        <ele>158.8</ele>
        <time>2013-08-05T19:46:33.000Z</time>
      </trkpt>
      <trkpt lat="48.83863" lon="2.31585">
        <ele>158.5</ele>
        <time>2013-08-05T19:46:34.000Z</time>
      </trkpt>
      <trkpt lat="48.83863" lon="2.31579">
        <ele>158</ele>
        <time>2013-08-05T19:46:35.000Z</time>
      </trkpt>
      <trkpt lat="48.83863" lon="2.31574">
        <ele>158.3</ele>
        <time>2013-08-05T19:46:36.000Z</time>
      </trkpt>
      <trkpt lat="48.83863" lon="2.31568">
        <ele>160.9</ele>
        <time>2013-08-05T19:46:37.000Z</time>
      </trkpt>
      <trkpt lat="48.83865" lon="2.31563">
        <ele>164.9</ele>
        <time>2013-08-05T19:46:38.000Z</time>
      </trkpt>
      <trkpt lat="48.83867" lon="2.31558">
        <ele>167.2</ele>
        <time>2013-08-05T19:46:39.000Z</time>
      </trkpt>
      <trkpt lat="48.83869" lon="2.31552">
        <ele>167.1</ele>
        <time>2013-08-05T19:46:40.000Z</time>
      </trkpt>
      <trkpt lat="48.83871" lon="2.31545">
        <ele>169.1</ele>
        <time>2013-08-05T19:46:41.000Z</time>
      </trkpt>
      <trkpt lat="48.83871" lon="2.31537">
        <ele>167.1</ele>
        <time>2013-08-05T19:46:42.000Z</time>
      </trkpt>
      <trkpt lat="48.8387" lon="2.31529">
        <ele>161.3</ele>
        <time>2013-08-05T19:46:43.000Z</time>
      </trkpt>
      <trkpt lat="48.83869" lon="2.31521">
        <ele>160.8</ele>
        <time>2013-08-05T19:46:44.000Z</time>
      </trkpt>
      <trkpt lat="48.83868" lon="2.31514">
        <ele>156.9</ele>
        <time>2013-08-05T19:46:45.000Z</time>
      </trkpt>
      <trkpt lat="48.83866" lon="2.31508">
        <ele>152.5</ele>
        <time>2013-08-05T19:46:46.000Z</time>
      </trkpt>
      <trkpt lat="48.83864" lon="2.31502">
        <ele>151.9</ele>
        <time>2013-08-05T19:46:47.000Z</time>
      </trkpt>
      <trkpt lat="48.83861" lon="2.31499">
        <ele>151.9</ele>
        <time>2013-08-05T19:46:48.000Z</time>
      </trkpt>
      <trkpt lat="48.83859" lon="2.31496">
        <ele>152</ele>
        <time>2013-08-05T19:46:49.000Z</time>
      </trkpt>
      <trkpt lat="48.83857" lon="2.31493">
        <ele>153</ele>
        <time>2013-08-05T19:46:50.000Z</time>
      </trkpt>
      <trkpt lat="48.83854" lon="2.3149">
        <ele>153.4</ele>
        <time>2013-08-05T19:46:51.000Z</time>
      </trkpt>
      <trkpt lat="48.83847" lon="2.31479">
        <ele>152</ele>
        <time>2013-08-05T19:46:54.000Z</time>
      </trkpt>
      <trkpt lat="48.83845" lon="2.31475">
        <ele>150.2</ele>
        <time>2013-08-05T19:46:55.000Z</time>
      </trkpt>
      <trkpt lat="48.83842" lon="2.31471">
        <ele>148.9</ele>
        <time>2013-08-05T19:46:56.000Z</time>
      </trkpt>
      <trkpt lat="48.8384" lon="2.31467">
        <ele>146.8</ele>
        <time>2013-08-05T19:46:57.000Z</time>
      </trkpt>
      <trkpt lat="48.83838" lon="2.31463">
        <ele>144.3</ele>
        <time>2013-08-05T19:46:58.000Z</time>
      </trkpt>
      <trkpt lat="48.83836" lon="2.3146">
        <ele>138.7</ele>
        <time>2013-08-05T19:46:59.000Z</time>
      </trkpt>
      <trkpt lat="48.83833" lon="2.31457">
        <ele>133.5</ele>
        <time>2013-08-05T19:47:00.000Z</time>
      </trkpt>
      <trkpt lat="48.83829" lon="2.31454">
        <ele>131.1</ele>
        <time>2013-08-05T19:47:01.000Z</time>
      </trkpt>
      <trkpt lat="48.83826" lon="2.3145">
        <ele>127.3</ele>
        <time>2013-08-05T19:47:02.000Z</time>
      </trkpt>
      <trkpt lat="48.83822" lon="2.31446">
        <ele>125.5</ele>
        <time>2013-08-05T19:47:03.000Z</time>
      </trkpt>
      <trkpt lat="48.83818" lon="2.31442">
        <ele>124.2</ele>
        <time>2013-08-05T19:47:04.000Z</time>
      </trkpt>
      <trkpt lat="48.83815" lon="2.31438">
        <ele>124</ele>
        <time>2013-08-05T19:47:05.000Z</time>
      </trkpt>
      <trkpt lat="48.83811" lon="2.31434">
        <ele>124.8</ele>
        <time>2013-08-05T19:47:06.000Z</time>
      </trkpt>
      <trkpt lat="48.83808" lon="2.31429">
        <ele>123.5</ele>
        <time>2013-08-05T19:47:07.000Z</time>
      </trkpt>
      <trkpt lat="48.83804" lon="2.31424">
        <ele>123.9</ele>
        <time>2013-08-05T19:47:08.000Z</time>
      </trkpt>
      <trkpt lat="48.838" lon="2.31419">
        <ele>123.2</ele>
        <time>2013-08-05T19:47:09.000Z</time>
      </trkpt>
      <trkpt lat="48.83797" lon="2.31413">
        <ele>123.9</ele>
        <time>2013-08-05T19:47:10.000Z</time>
      </trkpt>
      <trkpt lat="48.83791" lon="2.31403">
        <ele>123.9</ele>
        <time>2013-08-05T19:47:11.000Z</time>
      </trkpt>
      <trkpt lat="48.83786" lon="2.314">
        <ele>124.7</ele>
        <time>2013-08-05T19:47:12.000Z</time>
      </trkpt>
      <trkpt lat="48.83782" lon="2.31395">
        <ele>123.5</ele>
        <time>2013-08-05T19:47:13.000Z</time>
      </trkpt>
      <trkpt lat="48.83777" lon="2.3139">
        <ele>123.2</ele>
        <time>2013-08-05T19:47:14.000Z</time>
      </trkpt>
      <trkpt lat="48.83774" lon="2.31385">
        <ele>121.6</ele>
        <time>2013-08-05T19:47:15.000Z</time>
      </trkpt>
      <trkpt lat="48.83771" lon="2.3138">
        <ele>121.8</ele>
        <time>2013-08-05T19:47:16.000Z</time>
      </trkpt>
      <trkpt lat="48.83767" lon="2.31375">
        <ele>121.1</ele>
        <time>2013-08-05T19:47:17.000Z</time>
      </trkpt>
      <trkpt lat="48.83763" lon="2.3137">
        <ele>121.4</ele>
        <time>2013-08-05T19:47:18.000Z</time>
      </trkpt>
      <trkpt lat="48.83759" lon="2.31365">
        <ele>119.2</ele>
        <time>2013-08-05T19:47:19.000Z</time>
      </trkpt>
      <trkpt lat="48.83755" lon="2.31362">
        <ele>118.4</ele>
        <time>2013-08-05T19:47:20.000Z</time>
      </trkpt>
      <trkpt lat="48.83752" lon="2.31356">
        <ele>117.2</ele>
        <time>2013-08-05T19:47:21.000Z</time>
      </trkpt>
      <trkpt lat="48.83748" lon="2.31352">
        <ele>117.2</ele>
        <time>2013-08-05T19:47:22.000Z</time>
      </trkpt>
      <trkpt lat="48.83744" lon="2.31346">
        <ele>115.4</ele>
        <time>2013-08-05T19:47:23.000Z</time>
      </trkpt>
      <trkpt lat="48.8374" lon="2.31341">
        <ele>114.6</ele>
        <time>2013-08-05T19:47:24.000Z</time>
      </trkpt>
      <trkpt lat="48.83736" lon="2.31336">
        <ele>114.8</ele>
        <time>2013-08-05T19:47:25.000Z</time>
      </trkpt>
      <trkpt lat="48.83732" lon="2.31331">
        <ele>116</ele>
        <time>2013-08-05T19:47:26.000Z</time>
      </trkpt>
      <trkpt lat="48.83729" lon="2.31325">
        <ele>116.7</ele>
        <time>2013-08-05T19:47:27.000Z</time>
      </trkpt>
      <trkpt lat="48.83725" lon="2.31319">
        <ele>116.9</ele>
        <time>2013-08-05T19:47:28.000Z</time>
      </trkpt>
      <trkpt lat="48.83721" lon="2.31312">
        <ele>117.8</ele>
        <time>2013-08-05T19:47:29.000Z</time>
      </trkpt>
      <trkpt lat="48.83717" lon="2.31307">
        <ele>117.5</ele>
        <time>2013-08-05T19:47:30.000Z</time>
      </trkpt>
      <trkpt lat="48.83713" lon="2.31301">
        <ele>117.1</ele>
        <time>2013-08-05T19:47:31.000Z</time>
      </trkpt>
      <trkpt lat="48.83709" lon="2.31296">
        <ele>116.7</ele>
        <time>2013-08-05T19:47:32.000Z</time>
      </trkpt>
      <trkpt lat="48.83705" lon="2.3129">
        <ele>115</ele>
        <time>2013-08-05T19:47:33.000Z</time>
      </trkpt>
      <trkpt lat="48.837" lon="2.31287">
        <ele>114.6</ele>
        <time>2013-08-05T19:47:34.000Z</time>
      </trkpt>
      <trkpt lat="48.83696" lon="2.31283">
        <ele>114.6</ele>
        <time>2013-08-05T19:47:35.000Z</time>
      </trkpt>
      <trkpt lat="48.83693" lon="2.31279">
        <ele>114.9</ele>
        <time>2013-08-05T19:47:36.000Z</time>
      </trkpt>
      <trkpt lat="48.83689" lon="2.31276">
        <ele>114.8</ele>
        <time>2013-08-05T19:47:37.000Z</time>
      </trkpt>
      <trkpt lat="48.83685" lon="2.31274">
        <ele>114.6</ele>
        <time>2013-08-05T19:47:38.000Z</time>
      </trkpt>
      <trkpt lat="48.8368" lon="2.31274">
        <ele>114.5</ele>
        <time>2013-08-05T19:47:39.000Z</time>
      </trkpt>
      <trkpt lat="48.83676" lon="2.31274">
        <ele>114.5</ele>
        <time>2013-08-05T19:47:40.000Z</time>
      </trkpt>
      <trkpt lat="48.83671" lon="2.31271">
        <ele>114.5</ele>
        <time>2013-08-05T19:47:41.000Z</time>
      </trkpt>
      <trkpt lat="48.83666" lon="2.31268">
        <ele>117.5</ele>
        <time>2013-08-05T19:47:42.000Z</time>
      </trkpt>
      <trkpt lat="48.83661" lon="2.31266">
        <ele>118.3</ele>
        <time>2013-08-05T19:47:43.000Z</time>
      </trkpt>
      <trkpt lat="48.83656" lon="2.31265">
        <ele>118.5</ele>
        <time>2013-08-05T19:47:44.000Z</time>
      </trkpt>
      <trkpt lat="48.83651" lon="2.31262">
        <ele>118.3</ele>
        <time>2013-08-05T19:47:45.000Z</time>
      </trkpt>
      <trkpt lat="48.83647" lon="2.3126">
        <ele>118.2</ele>
        <time>2013-08-05T19:47:46.000Z</time>
      </trkpt>
      <trkpt lat="48.83641" lon="2.31258">
        <ele>118.6</ele>
        <time>2013-08-05T19:47:47.000Z</time>
      </trkpt>
      <trkpt lat="48.83636" lon="2.31254">
        <ele>118.4</ele>
        <time>2013-08-05T19:47:48.000Z</time>
      </trkpt>
      <trkpt lat="48.8363" lon="2.31252">
        <ele>118.2</ele>
        <time>2013-08-05T19:47:49.000Z</time>
      </trkpt>
      <trkpt lat="48.83625" lon="2.31247">
        <ele>118.4</ele>
        <time>2013-08-05T19:47:50.000Z</time>
      </trkpt>
      <trkpt lat="48.83621" lon="2.31244">
        <ele>118.6</ele>
        <time>2013-08-05T19:47:51.000Z</time>
      </trkpt>
      <trkpt lat="48.83613" lon="2.31237">
        <ele>118.8</ele>
        <time>2013-08-05T19:47:52.754Z</time>
      </trkpt>
      <trkpt lat="48.83605" lon="2.31234">
        <ele>118.4</ele>
        <time>2013-08-05T19:47:54.000Z</time>
      </trkpt>
      <trkpt lat="48.83599" lon="2.31232">
        <ele>118.3</ele>
        <time>2013-08-05T19:47:55.000Z</time>
      </trkpt>
      <trkpt lat="48.83595" lon="2.31226">
        <ele>118.4</ele>
        <time>2013-08-05T19:47:56.000Z</time>
      </trkpt>
      <trkpt lat="48.83592" lon="2.31223">
        <ele>118.5</ele>
        <time>2013-08-05T19:47:57.000Z</time>
      </trkpt>
      <trkpt lat="48.83587" lon="2.3122">
        <ele>119</ele>
        <time>2013-08-05T19:47:58.000Z</time>
      </trkpt>
      <trkpt lat="48.83584" lon="2.31219">
        <ele>119</ele>
        <time>2013-08-05T19:47:59.000Z</time>
      </trkpt>
      <trkpt lat="48.83578" lon="2.31215">
        <ele>119.2</ele>
        <time>2013-08-05T19:48:00.000Z</time>
      </trkpt>
      <trkpt lat="48.83574" lon="2.31212">
        <ele>120.7</ele>
        <time>2013-08-05T19:48:01.000Z</time>
      </trkpt>
      <trkpt lat="48.83569" lon="2.31206">
        <ele>120.4</ele>
        <time>2013-08-05T19:48:02.000Z</time>
      </trkpt>
      <trkpt lat="48.83566" lon="2.31202">
        <ele>120.2</ele>
        <time>2013-08-05T19:48:03.000Z</time>
      </trkpt>
      <trkpt lat="48.83562" lon="2.31198">
        <ele>121</ele>
        <time>2013-08-05T19:48:04.000Z</time>
      </trkpt>
      <trkpt lat="48.83558" lon="2.31195">
        <ele>121</ele>
        <time>2013-08-05T19:48:05.000Z</time>
      </trkpt>
      <trkpt lat="48.83554" lon="2.31193">
        <ele>120.9</ele>
        <time>2013-08-05T19:48:06.000Z</time>
      </trkpt>
      <trkpt lat="48.83549" lon="2.3119">
        <ele>119.8</ele>
        <time>2013-08-05T19:48:07.000Z</time>
      </trkpt>
      <trkpt lat="48.83545" lon="2.31188">
        <ele>118.9</ele>
        <time>2013-08-05T19:48:08.000Z</time>
      </trkpt>
      <trkpt lat="48.83541" lon="2.31184">
        <ele>118</ele>
        <time>2013-08-05T19:48:09.000Z</time>
      </trkpt>
      <trkpt lat="48.83538" lon="2.3118">
        <ele>117.3</ele>
        <time>2013-08-05T19:48:10.000Z</time>
      </trkpt>
      <trkpt lat="48.83534" lon="2.31177">
        <ele>116</ele>
        <time>2013-08-05T19:48:11.000Z</time>
      </trkpt>
      <trkpt lat="48.8353" lon="2.31174">
        <ele>114.7</ele>
        <time>2013-08-05T19:48:12.000Z</time>
      </trkpt>
      <trkpt lat="48.83526" lon="2.3117">
        <ele>115.6</ele>
        <time>2013-08-05T19:48:13.000Z</time>
      </trkpt>
      <trkpt lat="48.83523" lon="2.31168">
        <ele>115.8</ele>
        <time>2013-08-05T19:48:14.000Z</time>
      </trkpt>
      <trkpt lat="48.83519" lon="2.31165">
        <ele>116</ele>
        <time>2013-08-05T19:48:15.000Z</time>
      </trkpt>
      <trkpt lat="48.83515" lon="2.31163">
        <ele>116.6</ele>
        <time>2013-08-05T19:48:16.000Z</time>
      </trkpt>
      <trkpt lat="48.8351" lon="2.3116">
        <ele>117.1</ele>
        <time>2013-08-05T19:48:17.000Z</time>
      </trkpt>
      <trkpt lat="48.83505" lon="2.31154">
        <ele>117.7</ele>
        <time>2013-08-05T19:48:18.000Z</time>
      </trkpt>
      <trkpt lat="48.83502" lon="2.31149">
        <ele>116.4</ele>
        <time>2013-08-05T19:48:19.000Z</time>
      </trkpt>
      <trkpt lat="48.83497" lon="2.31146">
        <ele>114.9</ele>
        <time>2013-08-05T19:48:20.000Z</time>
      </trkpt>
      <trkpt lat="48.83494" lon="2.3114">
        <ele>116.9</ele>
        <time>2013-08-05T19:48:21.000Z</time>
      </trkpt>
      <trkpt lat="48.8349" lon="2.31136">
        <ele>117.9</ele>
        <time>2013-08-05T19:48:22.000Z</time>
      </trkpt>
      <trkpt lat="48.83485" lon="2.31132">
        <ele>117.9</ele>
        <time>2013-08-05T19:48:23.000Z</time>
      </trkpt>
      <trkpt lat="48.8348" lon="2.31123">
        <ele>113.9</ele>
        <time>2013-08-05T19:48:24.000Z</time>
      </trkpt>
      <trkpt lat="48.83475" lon="2.31119">
        <ele>112.5</ele>
        <time>2013-08-05T19:48:25.000Z</time>
      </trkpt>
      <trkpt lat="48.83471" lon="2.31113">
        <ele>111.7</ele>
        <time>2013-08-05T19:48:26.000Z</time>
      </trkpt>
      <trkpt lat="48.83467" lon="2.3111">
        <ele>110.7</ele>
        <time>2013-08-05T19:48:27.000Z</time>
      </trkpt>
      <trkpt lat="48.83463" lon="2.31104">
        <ele>110.5</ele>
        <time>2013-08-05T19:48:28.000Z</time>
      </trkpt>
      <trkpt lat="48.8346" lon="2.31101">
        <ele>110.1</ele>
        <time>2013-08-05T19:48:29.000Z</time>
      </trkpt>
      <trkpt lat="48.83457" lon="2.31096">
        <ele>109.2</ele>
        <time>2013-08-05T19:48:30.000Z</time>
      </trkpt>
      <trkpt lat="48.83452" lon="2.31091">
        <ele>109.5</ele>
        <time>2013-08-05T19:48:31.000Z</time>
      </trkpt>
      <trkpt lat="48.83448" lon="2.31087">
        <ele>109.8</ele>
        <time>2013-08-05T19:48:32.000Z</time>
      </trkpt>
      <trkpt lat="48.83444" lon="2.31083">
        <ele>109.7</ele>
        <time>2013-08-05T19:48:33.000Z</time>
      </trkpt>
      <trkpt lat="48.83439" lon="2.31082">
        <ele>109.9</ele>
        <time>2013-08-05T19:48:34.000Z</time>
      </trkpt>
      <trkpt lat="48.83435" lon="2.31077">
        <ele>110.8</ele>
        <time>2013-08-05T19:48:35.000Z</time>
      </trkpt>
      <trkpt lat="48.8343" lon="2.31074">
        <ele>110.1</ele>
        <time>2013-08-05T19:48:36.000Z</time>
      </trkpt>
      <trkpt lat="48.83425" lon="2.3107">
        <ele>110.2</ele>
        <time>2013-08-05T19:48:37.000Z</time>
      </trkpt>
      <trkpt lat="48.8342" lon="2.31067">
        <ele>109.5</ele>
        <time>2013-08-05T19:48:38.000Z</time>
      </trkpt>
      <trkpt lat="48.83415" lon="2.31064">
        <ele>109.5</ele>
        <time>2013-08-05T19:48:39.000Z</time>
      </trkpt>
      <trkpt lat="48.8341" lon="2.31058">
        <ele>108.7</ele>
        <time>2013-08-05T19:48:40.000Z</time>
      </trkpt>
      <trkpt lat="48.83405" lon="2.31055">
        <ele>108.5</ele>
        <time>2013-08-05T19:48:41.000Z</time>
      </trkpt>
      <trkpt lat="48.834" lon="2.31051">
        <ele>109.1</ele>
        <time>2013-08-05T19:48:42.000Z</time>
      </trkpt>
      <trkpt lat="48.83397" lon="2.31046">
        <ele>109.9</ele>
        <time>2013-08-05T19:48:43.000Z</time>
      </trkpt>
      <trkpt lat="48.83392" lon="2.31041">
        <ele>110.3</ele>
        <time>2013-08-05T19:48:44.000Z</time>
      </trkpt>
      <trkpt lat="48.83387" lon="2.31037">
        <ele>110.3</ele>
        <time>2013-08-05T19:48:45.000Z</time>
      </trkpt>
      <trkpt lat="48.83383" lon="2.31034">
        <ele>112</ele>
        <time>2013-08-05T19:48:46.000Z</time>
      </trkpt>
      <trkpt lat="48.83378" lon="2.31029">
        <ele>112.2</ele>
        <time>2013-08-05T19:48:47.000Z</time>
      </trkpt>
      <trkpt lat="48.83373" lon="2.31025">
        <ele>112.8</ele>
        <time>2013-08-05T19:48:48.000Z</time>
      </trkpt>
      <trkpt lat="48.83369" lon="2.3102">
        <ele>113.2</ele>
        <time>2013-08-05T19:48:49.000Z</time>
      </trkpt>
      <trkpt lat="48.83365" lon="2.31015">
        <ele>114.7</ele>
        <time>2013-08-05T19:48:50.000Z</time>
      </trkpt>
      <trkpt lat="48.83361" lon="2.31011">
        <ele>115.2</ele>
        <time>2013-08-05T19:48:51.000Z</time>
      </trkpt>
      <trkpt lat="48.83348" lon="2.31">
        <ele>114</ele>
        <time>2013-08-05T19:48:54.000Z</time>
      </trkpt>
      <trkpt lat="48.83344" lon="2.30995">
        <ele>114.3</ele>
        <time>2013-08-05T19:48:55.000Z</time>
      </trkpt>
      <trkpt lat="48.8334" lon="2.30991">
        <ele>115.2</ele>
        <time>2013-08-05T19:48:56.000Z</time>
      </trkpt>
      <trkpt lat="48.83337" lon="2.30985">
        <ele>116.6</ele>
        <time>2013-08-05T19:48:57.000Z</time>
      </trkpt>
      <trkpt lat="48.83334" lon="2.30979">
        <ele>116.7</ele>
        <time>2013-08-05T19:48:58.000Z</time>
      </trkpt>
      <trkpt lat="48.8334" lon="2.3097">
        <ele>116.5</ele>
        <time>2013-08-05T19:48:59.000Z</time>
      </trkpt>
      <trkpt lat="48.83345" lon="2.3096">
        <ele>113.2</ele>
        <time>2013-08-05T19:49:00.000Z</time>
      </trkpt>
      <trkpt lat="48.83346" lon="2.30953">
        <ele>111.4</ele>
        <time>2013-08-05T19:49:01.000Z</time>
      </trkpt>
      <trkpt lat="48.83349" lon="2.30946">
        <ele>111.3</ele>
        <time>2013-08-05T19:49:02.000Z</time>
      </trkpt>
      <trkpt lat="48.83352" lon="2.30941">
        <ele>110.1</ele>
        <time>2013-08-05T19:49:03.000Z</time>
      </trkpt>
      <trkpt lat="48.83353" lon="2.30936">
        <ele>109.8</ele>
        <time>2013-08-05T19:49:04.000Z</time>
      </trkpt>
      <trkpt lat="48.83355" lon="2.3093">
        <ele>109.7</ele>
        <time>2013-08-05T19:49:05.000Z</time>
      </trkpt>
      <trkpt lat="48.83356" lon="2.30923">
        <ele>109.7</ele>
        <time>2013-08-05T19:49:06.000Z</time>
      </trkpt>
      <trkpt lat="48.83359" lon="2.30918">
        <ele>109.8</ele>
        <time>2013-08-05T19:49:07.000Z</time>
      </trkpt>
      <trkpt lat="48.8336" lon="2.30913">
        <ele>109.1</ele>
        <time>2013-08-05T19:49:08.000Z</time>
      </trkpt>
      <trkpt lat="48.83362" lon="2.30907">
        <ele>109.1</ele>
        <time>2013-08-05T19:49:09.000Z</time>
      </trkpt>
      <trkpt lat="48.83364" lon="2.30901">
        <ele>109.5</ele>
        <time>2013-08-05T19:49:10.000Z</time>
      </trkpt>
      <trkpt lat="48.83364" lon="2.30894">
        <ele>108.5</ele>
        <time>2013-08-05T19:49:11.000Z</time>
      </trkpt>
      <trkpt lat="48.83366" lon="2.30888">
        <ele>108.7</ele>
        <time>2013-08-05T19:49:12.000Z</time>
      </trkpt>
      <trkpt lat="48.83369" lon="2.3088">
        <ele>107.1</ele>
        <time>2013-08-05T19:49:13.000Z</time>
      </trkpt>
      <trkpt lat="48.8337" lon="2.30874">
        <ele>107.6</ele>
        <time>2013-08-05T19:49:14.000Z</time>
      </trkpt>
      <trkpt lat="48.83373" lon="2.30867">
        <ele>107.9</ele>
        <time>2013-08-05T19:49:15.000Z</time>
      </trkpt>
      <trkpt lat="48.83375" lon="2.3086">
        <ele>107.8</ele>
        <time>2013-08-05T19:49:16.000Z</time>
      </trkpt>
      <trkpt lat="48.83376" lon="2.30854">
        <ele>107.7</ele>
        <time>2013-08-05T19:49:17.000Z</time>
      </trkpt>
      <trkpt lat="48.83379" lon="2.30848">
        <ele>107.9</ele>
        <time>2013-08-05T19:49:18.000Z</time>
      </trkpt>
      <trkpt lat="48.8338" lon="2.30841">
        <ele>108.8</ele>
        <time>2013-08-05T19:49:19.000Z</time>
      </trkpt>
      <trkpt lat="48.8338" lon="2.30833">
        <ele>108.5</ele>
        <time>2013-08-05T19:49:20.000Z</time>
      </trkpt>
      <trkpt lat="48.83381" lon="2.30824">
        <ele>107.8</ele>
        <time>2013-08-05T19:49:21.000Z</time>
      </trkpt>
      <trkpt lat="48.83383" lon="2.30818">
        <ele>108.3</ele>
        <time>2013-08-05T19:49:22.000Z</time>
      </trkpt>
      <trkpt lat="48.83385" lon="2.30812">
        <ele>108.1</ele>
        <time>2013-08-05T19:49:23.000Z</time>
      </trkpt>
      <trkpt lat="48.83388" lon="2.30806">
        <ele>108.7</ele>
        <time>2013-08-05T19:49:24.000Z</time>
      </trkpt>
      <trkpt lat="48.8339" lon="2.30799">
        <ele>110</ele>
        <time>2013-08-05T19:49:25.000Z</time>
      </trkpt>
      <trkpt lat="48.83391" lon="2.30792">
        <ele>110.6</ele>
        <time>2013-08-05T19:49:26.000Z</time>
      </trkpt>
      <trkpt lat="48.83393" lon="2.30786">
        <ele>110.8</ele>
        <time>2013-08-05T19:49:27.000Z</time>
      </trkpt>
      <trkpt lat="48.83396" lon="2.30777">
        <ele>108.8</ele>
        <time>2013-08-05T19:49:28.000Z</time>
      </trkpt>
      <trkpt lat="48.83399" lon="2.30771">
        <ele>108.1</ele>
        <time>2013-08-05T19:49:29.000Z</time>
      </trkpt>
      <trkpt lat="48.83402" lon="2.30765">
        <ele>108.2</ele>
        <time>2013-08-05T19:49:30.000Z</time>
      </trkpt>
      <trkpt lat="48.83404" lon="2.30758">
        <ele>108.4</ele>
        <time>2013-08-05T19:49:31.000Z</time>
      </trkpt>
      <trkpt lat="48.83408" lon="2.30751">
        <ele>108.4</ele>
        <time>2013-08-05T19:49:32.000Z</time>
      </trkpt>
      <trkpt lat="48.83411" lon="2.30745">
        <ele>108.4</ele>
        <time>2013-08-05T19:49:33.000Z</time>
      </trkpt>
      <trkpt lat="48.83414" lon="2.30738">
        <ele>107.5</ele>
        <time>2013-08-05T19:49:34.000Z</time>
      </trkpt>
      <trkpt lat="48.83417" lon="2.30731">
        <ele>107.7</ele>
        <time>2013-08-05T19:49:35.000Z</time>
      </trkpt>
      <trkpt lat="48.83419" lon="2.30724">
        <ele>107.1</ele>
        <time>2013-08-05T19:49:36.000Z</time>
      </trkpt>
      <trkpt lat="48.8342" lon="2.30716">
        <ele>106.1</ele>
        <time>2013-08-05T19:49:37.000Z</time>
      </trkpt>
      <trkpt lat="48.83425" lon="2.3071">
        <ele>105.2</ele>
        <time>2013-08-05T19:49:38.000Z</time>
      </trkpt>
      <trkpt lat="48.83426" lon="2.30703">
        <ele>105.5</ele>
        <time>2013-08-05T19:49:39.000Z</time>
      </trkpt>
      <trkpt lat="48.83429" lon="2.30701">
        <ele>107.8</ele>
        <time>2013-08-05T19:49:40.000Z</time>
      </trkpt>
      <trkpt lat="48.83431" lon="2.30695">
        <ele>108.4</ele>
        <time>2013-08-05T19:49:41.000Z</time>
      </trkpt>
      <trkpt lat="48.83432" lon="2.30688">
        <ele>108.5</ele>
        <time>2013-08-05T19:49:42.000Z</time>
      </trkpt>
      <trkpt lat="48.83435" lon="2.30681">
        <ele>107.3</ele>
        <time>2013-08-05T19:49:43.000Z</time>
      </trkpt>
      <trkpt lat="48.83437" lon="2.30673">
        <ele>107.2</ele>
        <time>2013-08-05T19:49:44.000Z</time>
      </trkpt>
      <trkpt lat="48.83439" lon="2.30668">
        <ele>107.1</ele>
        <time>2013-08-05T19:49:45.000Z</time>
      </trkpt>
      <trkpt lat="48.8344" lon="2.30659">
        <ele>106.9</ele>
        <time>2013-08-05T19:49:46.000Z</time>
      </trkpt>
      <trkpt lat="48.83441" lon="2.3065">
        <ele>106.4</ele>
        <time>2013-08-05T19:49:47.000Z</time>
      </trkpt>
      <trkpt lat="48.83444" lon="2.30644">
        <ele>105.5</ele>
        <time>2013-08-05T19:49:48.000Z</time>
      </trkpt>
      <trkpt lat="48.83446" lon="2.30639">
        <ele>108.2</ele>
        <time>2013-08-05T19:49:49.000Z</time>
      </trkpt>
      <trkpt lat="48.83449" lon="2.30632">
        <ele>107.9</ele>
        <time>2013-08-05T19:49:50.000Z</time>
      </trkpt>
      <trkpt lat="48.83451" lon="2.30625">
        <ele>108.4</ele>
        <time>2013-08-05T19:49:51.000Z</time>
      </trkpt>
      <trkpt lat="48.83456" lon="2.30614">
        <ele>108.6</ele>
        <time>2013-08-05T19:49:52.654Z</time>
      </trkpt>
      <trkpt lat="48.83457" lon="2.30605">
        <ele>109.5</ele>
        <time>2013-08-05T19:49:54.000Z</time>
      </trkpt>
      <trkpt lat="48.83461" lon="2.30601">
        <ele>110.9</ele>
        <time>2013-08-05T19:49:55.000Z</time>
      </trkpt>
      <trkpt lat="48.83462" lon="2.30596">
        <ele>109.8</ele>
        <time>2013-08-05T19:49:56.000Z</time>
      </trkpt>
      <trkpt lat="48.83463" lon="2.30588">
        <ele>109.6</ele>
        <time>2013-08-05T19:49:57.000Z</time>
      </trkpt>
      <trkpt lat="48.83465" lon="2.30581">
        <ele>109.7</ele>
        <time>2013-08-05T19:49:58.000Z</time>
      </trkpt>
      <trkpt lat="48.83468" lon="2.30573">
        <ele>110.9</ele>
        <time>2013-08-05T19:49:59.000Z</time>
      </trkpt>
      <trkpt lat="48.8347" lon="2.30564">
        <ele>111.7</ele>
        <time>2013-08-05T19:50:00.000Z</time>
      </trkpt>
      <trkpt lat="48.83473" lon="2.30557">
        <ele>112</ele>
        <time>2013-08-05T19:50:01.000Z</time>
      </trkpt>
      <trkpt lat="48.83472" lon="2.30546">
        <ele>111</ele>
        <time>2013-08-05T19:50:02.000Z</time>
      </trkpt>
      <trkpt lat="48.83472" lon="2.30537">
        <ele>110.3</ele>
        <time>2013-08-05T19:50:03.000Z</time>
      </trkpt>
      <trkpt lat="48.83474" lon="2.30532">
        <ele>110</ele>
        <time>2013-08-05T19:50:04.000Z</time>
      </trkpt>
      <trkpt lat="48.83476" lon="2.30526">
        <ele>109.9</ele>
        <time>2013-08-05T19:50:05.000Z</time>
      </trkpt>
      <trkpt lat="48.83477" lon="2.30521">
        <ele>109.3</ele>
        <time>2013-08-05T19:50:06.000Z</time>
      </trkpt>
      <trkpt lat="48.83479" lon="2.30516">
        <ele>109.7</ele>
        <time>2013-08-05T19:50:07.000Z</time>
      </trkpt>
      <trkpt lat="48.83479" lon="2.30511">
        <ele>109.5</ele>
        <time>2013-08-05T19:50:08.000Z</time>
      </trkpt>
      <trkpt lat="48.83479" lon="2.30507">
        <ele>110.2</ele>
        <time>2013-08-05T19:50:09.000Z</time>
      </trkpt>
      <trkpt lat="48.83479" lon="2.30502">
        <ele>109.8</ele>
        <time>2013-08-05T19:50:10.000Z</time>
      </trkpt>
      <trkpt lat="48.83482" lon="2.30495">
        <ele>110.6</ele>
        <time>2013-08-05T19:50:11.000Z</time>
      </trkpt>
      <trkpt lat="48.83484" lon="2.3049">
        <ele>111.3</ele>
        <time>2013-08-05T19:50:12.000Z</time>
      </trkpt>
      <trkpt lat="48.83485" lon="2.30485">
        <ele>111</ele>
        <time>2013-08-05T19:50:13.000Z</time>
      </trkpt>
      <trkpt lat="48.83487" lon="2.3048">
        <ele>111.5</ele>
        <time>2013-08-05T19:50:14.000Z</time>
      </trkpt>
      <trkpt lat="48.83489" lon="2.30474">
        <ele>111.4</ele>
        <time>2013-08-05T19:50:15.000Z</time>
      </trkpt>
      <trkpt lat="48.83491" lon="2.30469">
        <ele>113.2</ele>
        <time>2013-08-05T19:50:16.000Z</time>
      </trkpt>
      <trkpt lat="48.83493" lon="2.30463">
        <ele>111.7</ele>
        <time>2013-08-05T19:50:17.000Z</time>
      </trkpt>
      <trkpt lat="48.83495" lon="2.30457">
        <ele>110.2</ele>
        <time>2013-08-05T19:50:18.000Z</time>
      </trkpt>
      <trkpt lat="48.83495" lon="2.30445">
        <ele>108.6</ele>
        <time>2013-08-05T19:50:19.000Z</time>
      </trkpt>
      <trkpt lat="48.83498" lon="2.30439">
        <ele>107.8</ele>
        <time>2013-08-05T19:50:20.000Z</time>
      </trkpt>
      <trkpt lat="48.83499" lon="2.3043">
        <ele>108.3</ele>
        <time>2013-08-05T19:50:21.000Z</time>
      </trkpt>
      <trkpt lat="48.83502" lon="2.30422">
        <ele>108.6</ele>
        <time>2013-08-05T19:50:22.000Z</time>
      </trkpt>
      <trkpt lat="48.83503" lon="2.30415">
        <ele>109.6</ele>
        <time>2013-08-05T19:50:23.000Z</time>
      </trkpt>
      <trkpt lat="48.83506" lon="2.30407">
        <ele>109.7</ele>
        <time>2013-08-05T19:50:24.000Z</time>
      </trkpt>
      <trkpt lat="48.83508" lon="2.30401">
        <ele>109.2</ele>
        <time>2013-08-05T19:50:25.000Z</time>
      </trkpt>
      <trkpt lat="48.8351" lon="2.30393">
        <ele>108.8</ele>
        <time>2013-08-05T19:50:26.000Z</time>
      </trkpt>
      <trkpt lat="48.83511" lon="2.30386">
        <ele>109.1</ele>
        <time>2013-08-05T19:50:27.000Z</time>
      </trkpt>
      <trkpt lat="48.83512" lon="2.30377">
        <ele>109.8</ele>
        <time>2013-08-05T19:50:28.000Z</time>
      </trkpt>
      <trkpt lat="48.83514" lon="2.30368">
        <ele>110.5</ele>
        <time>2013-08-05T19:50:29.000Z</time>
      </trkpt>
      <trkpt lat="48.83515" lon="2.30359">
        <ele>111.2</ele>
        <time>2013-08-05T19:50:30.000Z</time>
      </trkpt>
      <trkpt lat="48.83517" lon="2.3035">
        <ele>112.3</ele>
        <time>2013-08-05T19:50:31.000Z</time>
      </trkpt>
      <trkpt lat="48.83518" lon="2.30342">
        <ele>111.9</ele>
        <time>2013-08-05T19:50:32.000Z</time>
      </trkpt>
      <trkpt lat="48.83519" lon="2.30337">
        <ele>111.4</ele>
        <time>2013-08-05T19:50:33.000Z</time>
      </trkpt>
      <trkpt lat="48.8352" lon="2.30329">
        <ele>112.6</ele>
        <time>2013-08-05T19:50:34.000Z</time>
      </trkpt>
      <trkpt lat="48.83523" lon="2.30322">
        <ele>112.9</ele>
        <time>2013-08-05T19:50:35.000Z</time>
      </trkpt>
      <trkpt lat="48.83525" lon="2.30313">
        <ele>113.3</ele>
        <time>2013-08-05T19:50:36.000Z</time>
      </trkpt>
      <trkpt lat="48.83526" lon="2.30306">
        <ele>113.6</ele>
        <time>2013-08-05T19:50:37.000Z</time>
      </trkpt>
      <trkpt lat="48.83528" lon="2.30299">
        <ele>113.2</ele>
        <time>2013-08-05T19:50:38.000Z</time>
      </trkpt>
      <trkpt lat="48.83528" lon="2.30291">
        <ele>113.2</ele>
        <time>2013-08-05T19:50:39.000Z</time>
      </trkpt>
      <trkpt lat="48.83529" lon="2.30285">
        <ele>113</ele>
        <time>2013-08-05T19:50:40.000Z</time>
      </trkpt>
      <trkpt lat="48.83535" lon="2.30277">
        <ele>113</ele>
        <time>2013-08-05T19:50:41.000Z</time>
      </trkpt>
      <trkpt lat="48.83535" lon="2.30272">
        <ele>112.7</ele>
        <time>2013-08-05T19:50:42.000Z</time>
      </trkpt>
      <trkpt lat="48.83537" lon="2.30267">
        <ele>112</ele>
        <time>2013-08-05T19:50:43.000Z</time>
      </trkpt>
      <trkpt lat="48.83539" lon="2.3026">
        <ele>112.5</ele>
        <time>2013-08-05T19:50:44.000Z</time>
      </trkpt>
      <trkpt lat="48.8354" lon="2.30256">
        <ele>112.1</ele>
        <time>2013-08-05T19:50:45.000Z</time>
      </trkpt>
      <trkpt lat="48.83542" lon="2.3025">
        <ele>112</ele>
        <time>2013-08-05T19:50:46.000Z</time>
      </trkpt>
      <trkpt lat="48.83545" lon="2.30243">
        <ele>112</ele>
        <time>2013-08-05T19:50:47.000Z</time>
      </trkpt>
      <trkpt lat="48.83547" lon="2.30236">
        <ele>112.1</ele>
        <time>2013-08-05T19:50:48.000Z</time>
      </trkpt>
      <trkpt lat="48.83549" lon="2.30229">
        <ele>112.6</ele>
        <time>2013-08-05T19:50:49.000Z</time>
      </trkpt>
      <trkpt lat="48.83552" lon="2.30224">
        <ele>111.7</ele>
        <time>2013-08-05T19:50:50.000Z</time>
      </trkpt>
      <trkpt lat="48.83553" lon="2.30215">
        <ele>111.2</ele>
        <time>2013-08-05T19:50:51.000Z</time>
      </trkpt>
      <trkpt lat="48.83555" lon="2.30203">
        <ele>111.2</ele>
        <time>2013-08-05T19:50:52.627Z</time>
      </trkpt>
      <trkpt lat="48.83557" lon="2.30196">
        <ele>111.1</ele>
        <time>2013-08-05T19:50:54.000Z</time>
      </trkpt>
      <trkpt lat="48.83561" lon="2.30189">
        <ele>111.3</ele>
        <time>2013-08-05T19:50:55.000Z</time>
      </trkpt>
      <trkpt lat="48.83564" lon="2.30182">
        <ele>110.1</ele>
        <time>2013-08-05T19:50:56.000Z</time>
      </trkpt>
      <trkpt lat="48.83567" lon="2.30175">
        <ele>109.2</ele>
        <time>2013-08-05T19:50:57.000Z</time>
      </trkpt>
      <trkpt lat="48.83571" lon="2.30166">
        <ele>109.3</ele>
        <time>2013-08-05T19:50:58.000Z</time>
      </trkpt>
      <trkpt lat="48.83573" lon="2.30159">
        <ele>107.3</ele>
        <time>2013-08-05T19:50:59.000Z</time>
      </trkpt>
      <trkpt lat="48.83576" lon="2.30152">
        <ele>107.4</ele>
        <time>2013-08-05T19:51:00.000Z</time>
      </trkpt>
      <trkpt lat="48.83578" lon="2.30144">
        <ele>108.4</ele>
        <time>2013-08-05T19:51:01.000Z</time>
      </trkpt>
      <trkpt lat="48.8358" lon="2.30136">
        <ele>109.3</ele>
        <time>2013-08-05T19:51:02.000Z</time>
      </trkpt>
      <trkpt lat="48.83583" lon="2.30128">
        <ele>108.4</ele>
        <time>2013-08-05T19:51:03.000Z</time>
      </trkpt>
      <trkpt lat="48.83586" lon="2.30121">
        <ele>108.2</ele>
        <time>2013-08-05T19:51:04.000Z</time>
      </trkpt>
      <trkpt lat="48.83589" lon="2.30114">
        <ele>107.6</ele>
        <time>2013-08-05T19:51:05.000Z</time>
      </trkpt>
      <trkpt lat="48.83591" lon="2.30107">
        <ele>108.1</ele>
        <time>2013-08-05T19:51:06.000Z</time>
      </trkpt>
      <trkpt lat="48.83591" lon="2.30098">
        <ele>106.7</ele>
        <time>2013-08-05T19:51:07.000Z</time>
      </trkpt>
      <trkpt lat="48.83592" lon="2.3009">
        <ele>106.5</ele>
        <time>2013-08-05T19:51:08.000Z</time>
      </trkpt>
      <trkpt lat="48.83591" lon="2.30083">
        <ele>106.1</ele>
        <time>2013-08-05T19:51:09.000Z</time>
      </trkpt>
      <trkpt lat="48.83595" lon="2.30075">
        <ele>106.2</ele>
        <time>2013-08-05T19:51:10.000Z</time>
      </trkpt>
      <trkpt lat="48.83597" lon="2.30068">
        <ele>106.2</ele>
        <time>2013-08-05T19:51:11.000Z</time>
      </trkpt>
      <trkpt lat="48.836" lon="2.30061">
        <ele>106.2</ele>
        <time>2013-08-05T19:51:12.000Z</time>
      </trkpt>
      <trkpt lat="48.83602" lon="2.30055">
        <ele>105.3</ele>
        <time>2013-08-05T19:51:13.000Z</time>
      </trkpt>
      <trkpt lat="48.83604" lon="2.30047">
        <ele>105.1</ele>
        <time>2013-08-05T19:51:14.000Z</time>
      </trkpt>
      <trkpt lat="48.83605" lon="2.30036">
        <ele>104.7</ele>
        <time>2013-08-05T19:51:15.000Z</time>
      </trkpt>
      <trkpt lat="48.83606" lon="2.30028">
        <ele>103.6</ele>
        <time>2013-08-05T19:51:16.000Z</time>
      </trkpt>
      <trkpt lat="48.83609" lon="2.30022">
        <ele>103.8</ele>
        <time>2013-08-05T19:51:17.000Z</time>
      </trkpt>
      <trkpt lat="48.83613" lon="2.30016">
        <ele>103.9</ele>
        <time>2013-08-05T19:51:18.000Z</time>
      </trkpt>
      <trkpt lat="48.83615" lon="2.3001">
        <ele>103.6</ele>
        <time>2013-08-05T19:51:19.000Z</time>
      </trkpt>
      <trkpt lat="48.83617" lon="2.30005">
        <ele>103.4</ele>
        <time>2013-08-05T19:51:20.000Z</time>
      </trkpt>
      <trkpt lat="48.83619" lon="2.3">
        <ele>104</ele>
        <time>2013-08-05T19:51:21.000Z</time>
      </trkpt>
      <trkpt lat="48.83623" lon="2.29992">
        <ele>104.6</ele>
        <time>2013-08-05T19:51:22.000Z</time>
      </trkpt>
      <trkpt lat="48.83625" lon="2.29984">
        <ele>105.2</ele>
        <time>2013-08-05T19:51:23.000Z</time>
      </trkpt>
      <trkpt lat="48.83626" lon="2.29974">
        <ele>105.6</ele>
        <time>2013-08-05T19:51:24.000Z</time>
      </trkpt>
      <trkpt lat="48.8363" lon="2.29966">
        <ele>103.5</ele>
        <time>2013-08-05T19:51:25.000Z</time>
      </trkpt>
      <trkpt lat="48.83631" lon="2.29957">
        <ele>104.1</ele>
        <time>2013-08-05T19:51:26.000Z</time>
      </trkpt>
      <trkpt lat="48.83633" lon="2.29951">
        <ele>104.5</ele>
        <time>2013-08-05T19:51:27.000Z</time>
      </trkpt>
      <trkpt lat="48.83635" lon="2.29943">
        <ele>105</ele>
        <time>2013-08-05T19:51:28.000Z</time>
      </trkpt>
      <trkpt lat="48.83636" lon="2.29935">
        <ele>106.3</ele>
        <time>2013-08-05T19:51:29.000Z</time>
      </trkpt>
      <trkpt lat="48.83638" lon="2.29928">
        <ele>106.5</ele>
        <time>2013-08-05T19:51:30.000Z</time>
      </trkpt>
      <trkpt lat="48.83639" lon="2.29921">
        <ele>106.6</ele>
        <time>2013-08-05T19:51:31.000Z</time>
      </trkpt>
      <trkpt lat="48.83641" lon="2.29914">
        <ele>106.6</ele>
        <time>2013-08-05T19:51:32.000Z</time>
      </trkpt>
      <trkpt lat="48.83643" lon="2.29909">
        <ele>106.1</ele>
        <time>2013-08-05T19:51:33.000Z</time>
      </trkpt>
      <trkpt lat="48.83645" lon="2.29902">
        <ele>107.4</ele>
        <time>2013-08-05T19:51:34.000Z</time>
      </trkpt>
      <trkpt lat="48.83648" lon="2.29895">
        <ele>107.7</ele>
        <time>2013-08-05T19:51:35.000Z</time>
      </trkpt>
      <trkpt lat="48.83651" lon="2.2989">
        <ele>107.2</ele>
        <time>2013-08-05T19:51:36.000Z</time>
      </trkpt>
      <trkpt lat="48.83654" lon="2.29885">
        <ele>107.3</ele>
        <time>2013-08-05T19:51:37.000Z</time>
      </trkpt>
      <trkpt lat="48.83657" lon="2.29878">
        <ele>107.7</ele>
        <time>2013-08-05T19:51:38.000Z</time>
      </trkpt>
      <trkpt lat="48.8366" lon="2.29872">
        <ele>107.3</ele>
        <time>2013-08-05T19:51:39.000Z</time>
      </trkpt>
      <trkpt lat="48.8366" lon="2.29865">
        <ele>108.6</ele>
        <time>2013-08-05T19:51:40.000Z</time>
      </trkpt>
      <trkpt lat="48.83662" lon="2.29857">
        <ele>109.6</ele>
        <time>2013-08-05T19:51:41.000Z</time>
      </trkpt>
      <trkpt lat="48.83665" lon="2.29849">
        <ele>109.5</ele>
        <time>2013-08-05T19:51:42.000Z</time>
      </trkpt>
      <trkpt lat="48.83664" lon="2.29841">
        <ele>110.1</ele>
        <time>2013-08-05T19:51:43.000Z</time>
      </trkpt>
      <trkpt lat="48.83668" lon="2.29832">
        <ele>109.8</ele>
        <time>2013-08-05T19:51:44.000Z</time>
      </trkpt>
      <trkpt lat="48.83671" lon="2.29825">
        <ele>109.2</ele>
        <time>2013-08-05T19:51:45.000Z</time>
      </trkpt>
      <trkpt lat="48.83673" lon="2.29819">
        <ele>108.2</ele>
        <time>2013-08-05T19:51:46.000Z</time>
      </trkpt>
      <trkpt lat="48.83674" lon="2.29813">
        <ele>104.7</ele>
        <time>2013-08-05T19:51:47.000Z</time>
      </trkpt>
      <trkpt lat="48.83668" lon="2.29801">
        <ele>99.3</ele>
        <time>2013-08-05T19:51:48.000Z</time>
      </trkpt>
      <trkpt lat="48.83669" lon="2.29796">
        <ele>98.2</ele>
        <time>2013-08-05T19:51:49.000Z</time>
      </trkpt>
      <trkpt lat="48.83668" lon="2.29792">
        <ele>97.2</ele>
        <time>2013-08-05T19:51:50.000Z</time>
      </trkpt>
      <trkpt lat="48.83674" lon="2.29782">
        <ele>97.6</ele>
        <time>2013-08-05T19:51:51.000Z</time>
      </trkpt>
      <trkpt lat="48.8368" lon="2.2976">
        <ele>96.6</ele>
        <time>2013-08-05T19:51:54.000Z</time>
      </trkpt>
      <trkpt lat="48.83682" lon="2.29751">
        <ele>95.8</ele>
        <time>2013-08-05T19:51:55.000Z</time>
      </trkpt>
      <trkpt lat="48.83684" lon="2.29744">
        <ele>95.5</ele>
        <time>2013-08-05T19:51:56.000Z</time>
      </trkpt>
      <trkpt lat="48.83687" lon="2.29738">
        <ele>95.2</ele>
        <time>2013-08-05T19:51:57.000Z</time>
      </trkpt>
      <trkpt lat="48.83689" lon="2.2973">
        <ele>95.7</ele>
        <time>2013-08-05T19:51:58.000Z</time>
      </trkpt>
      <trkpt lat="48.83693" lon="2.29724">
        <ele>95.8</ele>
        <time>2013-08-05T19:51:59.000Z</time>
      </trkpt>
      <trkpt lat="48.83696" lon="2.29718">
        <ele>95.1</ele>
        <time>2013-08-05T19:52:00.000Z</time>
      </trkpt>
      <trkpt lat="48.83698" lon="2.29714">
        <ele>94</ele>
        <time>2013-08-05T19:52:01.000Z</time>
      </trkpt>
      <trkpt lat="48.837" lon="2.29709">
        <ele>94.9</ele>
        <time>2013-08-05T19:52:02.000Z</time>
      </trkpt>
      <trkpt lat="48.83701" lon="2.29702">
        <ele>95.7</ele>
        <time>2013-08-05T19:52:03.000Z</time>
      </trkpt>
      <trkpt lat="48.83704" lon="2.29697">
        <ele>94.1</ele>
        <time>2013-08-05T19:52:04.000Z</time>
      </trkpt>
      <trkpt lat="48.83707" lon="2.29692">
        <ele>93.4</ele>
        <time>2013-08-05T19:52:05.000Z</time>
      </trkpt>
      <trkpt lat="48.83709" lon="2.29685">
        <ele>93.8</ele>
        <time>2013-08-05T19:52:06.000Z</time>
      </trkpt>
      <trkpt lat="48.83711" lon="2.29677">
        <ele>93.2</ele>
        <time>2013-08-05T19:52:07.000Z</time>
      </trkpt>
      <trkpt lat="48.83714" lon="2.29672">
        <ele>93.4</ele>
        <time>2013-08-05T19:52:08.000Z</time>
      </trkpt>
      <trkpt lat="48.83717" lon="2.29666">
        <ele>93.5</ele>
        <time>2013-08-05T19:52:09.000Z</time>
      </trkpt>
      <trkpt lat="48.8372" lon="2.29662">
        <ele>92.9</ele>
        <time>2013-08-05T19:52:10.000Z</time>
      </trkpt>
      <trkpt lat="48.83723" lon="2.29658">
        <ele>92.5</ele>
        <time>2013-08-05T19:52:11.000Z</time>
      </trkpt>
      <trkpt lat="48.83725" lon="2.29655">
        <ele>92.9</ele>
        <time>2013-08-05T19:52:12.000Z</time>
      </trkpt>
      <trkpt lat="48.83728" lon="2.29651">
        <ele>93.5</ele>
        <time>2013-08-05T19:52:13.000Z</time>
      </trkpt>
      <trkpt lat="48.83731" lon="2.29647">
        <ele>91.9</ele>
        <time>2013-08-05T19:52:15.000Z</time>
      </trkpt>
      <trkpt lat="48.83733" lon="2.29648">
        <ele>91.2</ele>
        <time>2013-08-05T19:52:16.000Z</time>
      </trkpt>
      <trkpt lat="48.83735" lon="2.2965">
        <ele>90.2</ele>
        <time>2013-08-05T19:52:17.000Z</time>
      </trkpt>
      <trkpt lat="48.83737" lon="2.29652">
        <ele>91.6</ele>
        <time>2013-08-05T19:52:18.000Z</time>
      </trkpt>
      <trkpt lat="48.83739" lon="2.29654">
        <ele>90.5</ele>
        <time>2013-08-05T19:52:19.000Z</time>
      </trkpt>
      <trkpt lat="48.8374" lon="2.29656">
        <ele>89.8</ele>
        <time>2013-08-05T19:52:20.000Z</time>
      </trkpt>
      <trkpt lat="48.83744" lon="2.29656">
        <ele>88.1</ele>
        <time>2013-08-05T19:52:24.000Z</time>
      </trkpt>
      <trkpt lat="48.83745" lon="2.29655">
        <ele>88.3</ele>
        <time>2013-08-05T19:52:25.000Z</time>
      </trkpt>
      <trkpt lat="48.83746" lon="2.29649">
        <ele>89</ele>
        <time>2013-08-05T19:52:28.000Z</time>
      </trkpt>
      <trkpt lat="48.83747" lon="2.29647">
        <ele>88.9</ele>
        <time>2013-08-05T19:52:29.000Z</time>
      </trkpt>
      <trkpt lat="48.83749" lon="2.29641">
        <ele>89.8</ele>
        <time>2013-08-05T19:52:32.000Z</time>
      </trkpt>
      <trkpt lat="48.8375" lon="2.29639">
        <ele>89.5</ele>
        <time>2013-08-05T19:52:33.000Z</time>
      </trkpt>
      <trkpt lat="48.83752" lon="2.29634">
        <ele>91.2</ele>
        <time>2013-08-05T19:52:36.000Z</time>
      </trkpt>
      <trkpt lat="48.83753" lon="2.29633">
        <ele>93.1</ele>
        <time>2013-08-05T19:52:37.000Z</time>
      </trkpt>
      <trkpt lat="48.83757" lon="2.29634">
        <ele>94.3</ele>
        <time>2013-08-05T19:52:40.000Z</time>
      </trkpt>
      <trkpt lat="48.83759" lon="2.29634">
        <ele>95.2</ele>
        <time>2013-08-05T19:52:41.000Z</time>
      </trkpt>
      <trkpt lat="48.83761" lon="2.29634">
        <ele>95.6</ele>
        <time>2013-08-05T19:52:42.000Z</time>
      </trkpt>
      <trkpt lat="48.83764" lon="2.29632">
        <ele>96.3</ele>
        <time>2013-08-05T19:52:43.000Z</time>
      </trkpt>
      <trkpt lat="48.83766" lon="2.2963">
        <ele>95.9</ele>
        <time>2013-08-05T19:52:44.000Z</time>
      </trkpt>
      <trkpt lat="48.83768" lon="2.29627">
        <ele>95.2</ele>
        <time>2013-08-05T19:52:45.000Z</time>
      </trkpt>
      <trkpt lat="48.8377" lon="2.29624">
        <ele>95.2</ele>
        <time>2013-08-05T19:52:46.000Z</time>
      </trkpt>
      <trkpt lat="48.83772" lon="2.29621">
        <ele>94.9</ele>
        <time>2013-08-05T19:52:47.000Z</time>
      </trkpt>
      <trkpt lat="48.83773" lon="2.29618">
        <ele>95.4</ele>
        <time>2013-08-05T19:52:48.000Z</time>
      </trkpt>
      <trkpt lat="48.83774" lon="2.29615">
        <ele>94.3</ele>
        <time>2013-08-05T19:52:49.000Z</time>
      </trkpt>
      <trkpt lat="48.83775" lon="2.29612">
        <ele>93.8</ele>
        <time>2013-08-05T19:52:50.000Z</time>
      </trkpt>
      <trkpt lat="48.83777" lon="2.29608">
        <ele>94.9</ele>
        <time>2013-08-05T19:52:51.000Z</time>
      </trkpt>
      <trkpt lat="48.8378" lon="2.29603">
        <ele>95.1</ele>
        <time>2013-08-05T19:52:52.754Z</time>
      </trkpt>
      <trkpt lat="48.83784" lon="2.29598">
        <ele>94.6</ele>
        <time>2013-08-05T19:52:54.000Z</time>
      </trkpt>
      <trkpt lat="48.83787" lon="2.29594">
        <ele>94.7</ele>
        <time>2013-08-05T19:52:55.000Z</time>
      </trkpt>
      <trkpt lat="48.83791" lon="2.29589">
        <ele>94.8</ele>
        <time>2013-08-05T19:52:56.000Z</time>
      </trkpt>
      <trkpt lat="48.83794" lon="2.29585">
        <ele>94.4</ele>
        <time>2013-08-05T19:52:57.000Z</time>
      </trkpt>
      <trkpt lat="48.83797" lon="2.2958">
        <ele>95.5</ele>
        <time>2013-08-05T19:52:58.000Z</time>
      </trkpt>
      <trkpt lat="48.83801" lon="2.29576">
        <ele>95.3</ele>
        <time>2013-08-05T19:52:59.000Z</time>
      </trkpt>
      <trkpt lat="48.83804" lon="2.29571">
        <ele>95</ele>
        <time>2013-08-05T19:53:00.000Z</time>
      </trkpt>
      <trkpt lat="48.83808" lon="2.29567">
        <ele>92.3</ele>
        <time>2013-08-05T19:53:01.000Z</time>
      </trkpt>
      <trkpt lat="48.83811" lon="2.29562">
        <ele>91.7</ele>
        <time>2013-08-05T19:53:02.000Z</time>
      </trkpt>
      <trkpt lat="48.83814" lon="2.29557">
        <ele>91.5</ele>
        <time>2013-08-05T19:53:03.000Z</time>
      </trkpt>
      <trkpt lat="48.83818" lon="2.29552">
        <ele>91.4</ele>
        <time>2013-08-05T19:53:04.000Z</time>
      </trkpt>
      <trkpt lat="48.83821" lon="2.29546">
        <ele>91.4</ele>
        <time>2013-08-05T19:53:05.000Z</time>
      </trkpt>
      <trkpt lat="48.83824" lon="2.29541">
        <ele>91.1</ele>
        <time>2013-08-05T19:53:06.000Z</time>
      </trkpt>
      <trkpt lat="48.83828" lon="2.29533">
        <ele>91</ele>
        <time>2013-08-05T19:53:07.000Z</time>
      </trkpt>
      <trkpt lat="48.83831" lon="2.29529">
        <ele>91.8</ele>
        <time>2013-08-05T19:53:08.000Z</time>
      </trkpt>
      <trkpt lat="48.83835" lon="2.29523">
        <ele>91.4</ele>
        <time>2013-08-05T19:53:09.000Z</time>
      </trkpt>
      <trkpt lat="48.83839" lon="2.29518">
        <ele>92.1</ele>
        <time>2013-08-05T19:53:10.000Z</time>
      </trkpt>
      <trkpt lat="48.83842" lon="2.29513">
        <ele>91.2</ele>
        <time>2013-08-05T19:53:11.000Z</time>
      </trkpt>
      <trkpt lat="48.83845" lon="2.29508">
        <ele>90.8</ele>
        <time>2013-08-05T19:53:12.000Z</time>
      </trkpt>
      <trkpt lat="48.83849" lon="2.29502">
        <ele>90</ele>
        <time>2013-08-05T19:53:13.000Z</time>
      </trkpt>
      <trkpt lat="48.83852" lon="2.29497">
        <ele>89.6</ele>
        <time>2013-08-05T19:53:14.000Z</time>
      </trkpt>
      <trkpt lat="48.83855" lon="2.29493">
        <ele>89.1</ele>
        <time>2013-08-05T19:53:15.000Z</time>
      </trkpt>
      <trkpt lat="48.83858" lon="2.29489">
        <ele>89.6</ele>
        <time>2013-08-05T19:53:16.000Z</time>
      </trkpt>
      <trkpt lat="48.83858" lon="2.29484">
        <ele>89.9</ele>
        <time>2013-08-05T19:53:17.000Z</time>
      </trkpt>
      <trkpt lat="48.83855" lon="2.29482">
        <ele>90.2</ele>
        <time>2013-08-05T19:53:18.000Z</time>
      </trkpt>
      <trkpt lat="48.83854" lon="2.29473">
        <ele>92.2</ele>
        <time>2013-08-05T19:53:19.000Z</time>
      </trkpt>
      <trkpt lat="48.83853" lon="2.29467">
        <ele>94.4</ele>
        <time>2013-08-05T19:53:20.000Z</time>
      </trkpt>
      <trkpt lat="48.83854" lon="2.29461">
        <ele>95.2</ele>
        <time>2013-08-05T19:53:21.000Z</time>
      </trkpt>
      <trkpt lat="48.83854" lon="2.29456">
        <ele>95.5</ele>
        <time>2013-08-05T19:53:22.000Z</time>
      </trkpt>
      <trkpt lat="48.83858" lon="2.29451">
        <ele>95.6</ele>
        <time>2013-08-05T19:53:23.000Z</time>
      </trkpt>
      <trkpt lat="48.83862" lon="2.29443">
        <ele>95.7</ele>
        <time>2013-08-05T19:53:24.000Z</time>
      </trkpt>
      <trkpt lat="48.83866" lon="2.29437">
        <ele>95.7</ele>
        <time>2013-08-05T19:53:25.000Z</time>
      </trkpt>
      <trkpt lat="48.83869" lon="2.29432">
        <ele>96.3</ele>
        <time>2013-08-05T19:53:26.000Z</time>
      </trkpt>
      <trkpt lat="48.83872" lon="2.29424">
        <ele>97.2</ele>
        <time>2013-08-05T19:53:27.000Z</time>
      </trkpt>
      <trkpt lat="48.83874" lon="2.29418">
        <ele>98.6</ele>
        <time>2013-08-05T19:53:28.000Z</time>
      </trkpt>
      <trkpt lat="48.83877" lon="2.29411">
        <ele>99.1</ele>
        <time>2013-08-05T19:53:29.000Z</time>
      </trkpt>
      <trkpt lat="48.8388" lon="2.29405">
        <ele>100.2</ele>
        <time>2013-08-05T19:53:30.000Z</time>
      </trkpt>
      <trkpt lat="48.83883" lon="2.29403">
        <ele>99.4</ele>
        <time>2013-08-05T19:53:31.000Z</time>
      </trkpt>
      <trkpt lat="48.83888" lon="2.29402">
        <ele>97.6</ele>
        <time>2013-08-05T19:53:32.000Z</time>
      </trkpt>
      <trkpt lat="48.83891" lon="2.29397">
        <ele>97.7</ele>
        <time>2013-08-05T19:53:33.000Z</time>
      </trkpt>
      <trkpt lat="48.83895" lon="2.29392">
        <ele>97.5</ele>
        <time>2013-08-05T19:53:34.000Z</time>
      </trkpt>
      <trkpt lat="48.83899" lon="2.29388">
        <ele>97.7</ele>
        <time>2013-08-05T19:53:35.000Z</time>
      </trkpt>
      <trkpt lat="48.83901" lon="2.29385">
        <ele>97.2</ele>
        <time>2013-08-05T19:53:36.000Z</time>
      </trkpt>
      <trkpt lat="48.83904" lon="2.2938">
        <ele>97.3</ele>
        <time>2013-08-05T19:53:37.000Z</time>
      </trkpt>
      <trkpt lat="48.83908" lon="2.29375">
        <ele>98.2</ele>
        <time>2013-08-05T19:53:38.000Z</time>
      </trkpt>
      <trkpt lat="48.83911" lon="2.29373">
        <ele>99.1</ele>
        <time>2013-08-05T19:53:39.000Z</time>
      </trkpt>
      <trkpt lat="48.83914" lon="2.29368">
        <ele>99.4</ele>
        <time>2013-08-05T19:53:40.000Z</time>
      </trkpt>
      <trkpt lat="48.83917" lon="2.29363">
        <ele>99.2</ele>
        <time>2013-08-05T19:53:41.000Z</time>
      </trkpt>
      <trkpt lat="48.8392" lon="2.29358">
        <ele>99.4</ele>
        <time>2013-08-05T19:53:42.000Z</time>
      </trkpt>
      <trkpt lat="48.83923" lon="2.29352">
        <ele>100</ele>
        <time>2013-08-05T19:53:43.000Z</time>
      </trkpt>
      <trkpt lat="48.83927" lon="2.29348">
        <ele>101</ele>
        <time>2013-08-05T19:53:44.000Z</time>
      </trkpt>
      <trkpt lat="48.83929" lon="2.29345">
        <ele>100.8</ele>
        <time>2013-08-05T19:53:45.000Z</time>
      </trkpt>
      <trkpt lat="48.83933" lon="2.29341">
        <ele>102.3</ele>
        <time>2013-08-05T19:53:46.000Z</time>
      </trkpt>
      <trkpt lat="48.83936" lon="2.29337">
        <ele>104</ele>
        <time>2013-08-05T19:53:47.000Z</time>
      </trkpt>
      <trkpt lat="48.83939" lon="2.29332">
        <ele>103.2</ele>
        <time>2013-08-05T19:53:48.000Z</time>
      </trkpt>
      <trkpt lat="48.83942" lon="2.29328">
        <ele>103.6</ele>
        <time>2013-08-05T19:53:49.000Z</time>
      </trkpt>
      <trkpt lat="48.83945" lon="2.29324">
        <ele>103</ele>
        <time>2013-08-05T19:53:50.000Z</time>
      </trkpt>
      <trkpt lat="48.83947" lon="2.2932">
        <ele>103.1</ele>
        <time>2013-08-05T19:53:51.000Z</time>
      </trkpt>
      <trkpt lat="48.83951" lon="2.29314">
        <ele>102.8</ele>
        <time>2013-08-05T19:53:52.759Z</time>
      </trkpt>
      <trkpt lat="48.83954" lon="2.29307">
        <ele>99.6</ele>
        <time>2013-08-05T19:53:54.000Z</time>
      </trkpt>
      <trkpt lat="48.83958" lon="2.29302">
        <ele>97.3</ele>
        <time>2013-08-05T19:53:55.000Z</time>
      </trkpt>
      <trkpt lat="48.83962" lon="2.29298">
        <ele>96</ele>
        <time>2013-08-05T19:53:56.000Z</time>
      </trkpt>
      <trkpt lat="48.83965" lon="2.29293">
        <ele>93.7</ele>
        <time>2013-08-05T19:53:57.000Z</time>
      </trkpt>
      <trkpt lat="48.83969" lon="2.29289">
        <ele>92.6</ele>
        <time>2013-08-05T19:53:58.000Z</time>
      </trkpt>
      <trkpt lat="48.83973" lon="2.29284">
        <ele>92.2</ele>
        <time>2013-08-05T19:53:59.000Z</time>
      </trkpt>
      <trkpt lat="48.83977" lon="2.2928">
        <ele>93.4</ele>
        <time>2013-08-05T19:54:00.000Z</time>
      </trkpt>
      <trkpt lat="48.8398" lon="2.29276">
        <ele>95</ele>
        <time>2013-08-05T19:54:01.000Z</time>
      </trkpt>
      <trkpt lat="48.83983" lon="2.29271">
        <ele>95.5</ele>
        <time>2013-08-05T19:54:02.000Z</time>
      </trkpt>
      <trkpt lat="48.83987" lon="2.29265">
        <ele>96.5</ele>
        <time>2013-08-05T19:54:03.000Z</time>
      </trkpt>
      <trkpt lat="48.8399" lon="2.29261">
        <ele>97.4</ele>
        <time>2013-08-05T19:54:04.000Z</time>
      </trkpt>
      <trkpt lat="48.83992" lon="2.29256">
        <ele>99.1</ele>
        <time>2013-08-05T19:54:05.000Z</time>
      </trkpt>
      <trkpt lat="48.83994" lon="2.29253">
        <ele>100.1</ele>
        <time>2013-08-05T19:54:06.000Z</time>
      </trkpt>
      <trkpt lat="48.83996" lon="2.29247">
        <ele>96.8</ele>
        <time>2013-08-05T19:54:07.000Z</time>
      </trkpt>
      <trkpt lat="48.84" lon="2.29242">
        <ele>95.9</ele>
        <time>2013-08-05T19:54:08.000Z</time>
      </trkpt>
      <trkpt lat="48.84003" lon="2.29238">
        <ele>96.6</ele>
        <time>2013-08-05T19:54:09.000Z</time>
      </trkpt>
      <trkpt lat="48.84006" lon="2.29234">
        <ele>96.9</ele>
        <time>2013-08-05T19:54:10.000Z</time>
      </trkpt>
      <trkpt lat="48.84009" lon="2.29231">
        <ele>96.3</ele>
        <time>2013-08-05T19:54:11.000Z</time>
      </trkpt>
      <trkpt lat="48.84013" lon="2.29226">
        <ele>95.3</ele>
        <time>2013-08-05T19:54:12.000Z</time>
      </trkpt>
      <trkpt lat="48.84016" lon="2.29222">
        <ele>95.2</ele>
        <time>2013-08-05T19:54:13.000Z</time>
      </trkpt>
      <trkpt lat="48.8402" lon="2.29218">
        <ele>94.4</ele>
        <time>2013-08-05T19:54:14.000Z</time>
      </trkpt>
      <trkpt lat="48.84024" lon="2.29214">
        <ele>93.7</ele>
        <time>2013-08-05T19:54:15.000Z</time>
      </trkpt>
      <trkpt lat="48.84027" lon="2.29208">
        <ele>91.9</ele>
        <time>2013-08-05T19:54:16.000Z</time>
      </trkpt>
      <trkpt lat="48.8403" lon="2.29204">
        <ele>92.1</ele>
        <time>2013-08-05T19:54:17.000Z</time>
      </trkpt>
      <trkpt lat="48.84034" lon="2.292">
        <ele>91.8</ele>
        <time>2013-08-05T19:54:18.000Z</time>
      </trkpt>
      <trkpt lat="48.84038" lon="2.29195">
        <ele>91.8</ele>
        <time>2013-08-05T19:54:19.000Z</time>
      </trkpt>
      <trkpt lat="48.84042" lon="2.29191">
        <ele>92.4</ele>
        <time>2013-08-05T19:54:20.000Z</time>
      </trkpt>
      <trkpt lat="48.84046" lon="2.29187">
        <ele>92.5</ele>
        <time>2013-08-05T19:54:21.000Z</time>
      </trkpt>
      <trkpt lat="48.8405" lon="2.29182">
        <ele>93</ele>
        <time>2013-08-05T19:54:22.000Z</time>
      </trkpt>
      <trkpt lat="48.84054" lon="2.29179">
        <ele>93.3</ele>
        <time>2013-08-05T19:54:23.000Z</time>
      </trkpt>
      <trkpt lat="48.84057" lon="2.29175">
        <ele>93.9</ele>
        <time>2013-08-05T19:54:24.000Z</time>
      </trkpt>
      <trkpt lat="48.8406" lon="2.29172">
        <ele>94.8</ele>
        <time>2013-08-05T19:54:25.000Z</time>
      </trkpt>
      <trkpt lat="48.84064" lon="2.29167">
        <ele>94.8</ele>
        <time>2013-08-05T19:54:26.000Z</time>
      </trkpt>
      <trkpt lat="48.84068" lon="2.29163">
        <ele>94.8</ele>
        <time>2013-08-05T19:54:27.000Z</time>
      </trkpt>
      <trkpt lat="48.84071" lon="2.29159">
        <ele>94.7</ele>
        <time>2013-08-05T19:54:28.000Z</time>
      </trkpt>
      <trkpt lat="48.84073" lon="2.29155">
        <ele>93.4</ele>
        <time>2013-08-05T19:54:29.000Z</time>
      </trkpt>
      <trkpt lat="48.84076" lon="2.29151">
        <ele>93.6</ele>
        <time>2013-08-05T19:54:30.000Z</time>
      </trkpt>
      <trkpt lat="48.84079" lon="2.29148">
        <ele>94.6</ele>
        <time>2013-08-05T19:54:31.000Z</time>
      </trkpt>
      <trkpt lat="48.84083" lon="2.29146">
        <ele>95.2</ele>
        <time>2013-08-05T19:54:32.000Z</time>
      </trkpt>
      <trkpt lat="48.84085" lon="2.29142">
        <ele>94.6</ele>
        <time>2013-08-05T19:54:33.000Z</time>
      </trkpt>
      <trkpt lat="48.84088" lon="2.2914">
        <ele>95.3</ele>
        <time>2013-08-05T19:54:34.000Z</time>
      </trkpt>
      <trkpt lat="48.84091" lon="2.29137">
        <ele>95.5</ele>
        <time>2013-08-05T19:54:35.000Z</time>
      </trkpt>
      <trkpt lat="48.84094" lon="2.29134">
        <ele>94</ele>
        <time>2013-08-05T19:54:36.000Z</time>
      </trkpt>
      <trkpt lat="48.84097" lon="2.29132">
        <ele>92.7</ele>
        <time>2013-08-05T19:54:37.000Z</time>
      </trkpt>
      <trkpt lat="48.84101" lon="2.2913">
        <ele>92.8</ele>
        <time>2013-08-05T19:54:38.000Z</time>
      </trkpt>
      <trkpt lat="48.84105" lon="2.29128">
        <ele>91.9</ele>
        <time>2013-08-05T19:54:39.000Z</time>
      </trkpt>
      <trkpt lat="48.84109" lon="2.29126">
        <ele>91.4</ele>
        <time>2013-08-05T19:54:40.000Z</time>
      </trkpt>
      <trkpt lat="48.84113" lon="2.29124">
        <ele>91.1</ele>
        <time>2013-08-05T19:54:41.000Z</time>
      </trkpt>
      <trkpt lat="48.84116" lon="2.29122">
        <ele>90.8</ele>
        <time>2013-08-05T19:54:42.000Z</time>
      </trkpt>
      <trkpt lat="48.84119" lon="2.29119">
        <ele>91.9</ele>
        <time>2013-08-05T19:54:43.000Z</time>
      </trkpt>
      <trkpt lat="48.84122" lon="2.29117">
        <ele>92.9</ele>
        <time>2013-08-05T19:54:44.000Z</time>
      </trkpt>
      <trkpt lat="48.84125" lon="2.29115">
        <ele>92.5</ele>
        <time>2013-08-05T19:54:45.000Z</time>
      </trkpt>
      <trkpt lat="48.84127" lon="2.29113">
        <ele>92.8</ele>
        <time>2013-08-05T19:54:46.000Z</time>
      </trkpt>
      <trkpt lat="48.8413" lon="2.29111">
        <ele>92</ele>
        <time>2013-08-05T19:54:47.000Z</time>
      </trkpt>
      <trkpt lat="48.84132" lon="2.29109">
        <ele>91</ele>
        <time>2013-08-05T19:54:48.000Z</time>
      </trkpt>
      <trkpt lat="48.84134" lon="2.29106">
        <ele>91.9</ele>
        <time>2013-08-05T19:54:49.000Z</time>
      </trkpt>
      <trkpt lat="48.84135" lon="2.29103">
        <ele>92.4</ele>
        <time>2013-08-05T19:54:50.000Z</time>
      </trkpt>
      <trkpt lat="48.84137" lon="2.291">
        <ele>93.4</ele>
        <time>2013-08-05T19:54:51.000Z</time>
      </trkpt>
      <trkpt lat="48.8414" lon="2.29094">
        <ele>93.5</ele>
        <time>2013-08-05T19:54:52.783Z</time>
      </trkpt>
      <trkpt lat="48.84142" lon="2.29089">
        <ele>91.5</ele>
        <time>2013-08-05T19:54:54.000Z</time>
      </trkpt>
      <trkpt lat="48.84143" lon="2.29085">
        <ele>91.9</ele>
        <time>2013-08-05T19:54:55.000Z</time>
      </trkpt>
      <trkpt lat="48.84145" lon="2.29081">
        <ele>90.7</ele>
        <time>2013-08-05T19:54:56.000Z</time>
      </trkpt>
      <trkpt lat="48.84147" lon="2.29076">
        <ele>89.5</ele>
        <time>2013-08-05T19:54:57.000Z</time>
      </trkpt>
      <trkpt lat="48.8415" lon="2.29071">
        <ele>89.1</ele>
        <time>2013-08-05T19:54:58.000Z</time>
      </trkpt>
      <trkpt lat="48.84153" lon="2.29067">
        <ele>88.4</ele>
        <time>2013-08-05T19:54:59.000Z</time>
      </trkpt>
      <trkpt lat="48.84156" lon="2.29062">
        <ele>90</ele>
        <time>2013-08-05T19:55:00.000Z</time>
      </trkpt>
      <trkpt lat="48.84159" lon="2.29058">
        <ele>90.2</ele>
        <time>2013-08-05T19:55:01.000Z</time>
      </trkpt>
      <trkpt lat="48.84161" lon="2.29053">
        <ele>90.4</ele>
        <time>2013-08-05T19:55:02.000Z</time>
      </trkpt>
      <trkpt lat="48.84164" lon="2.2905">
        <ele>91.6</ele>
        <time>2013-08-05T19:55:03.000Z</time>
      </trkpt>
      <trkpt lat="48.84166" lon="2.29046">
        <ele>91.9</ele>
        <time>2013-08-05T19:55:04.000Z</time>
      </trkpt>
      <trkpt lat="48.84169" lon="2.29043">
        <ele>92.2</ele>
        <time>2013-08-05T19:55:05.000Z</time>
      </trkpt>
      <trkpt lat="48.84172" lon="2.2904">
        <ele>91.9</ele>
        <time>2013-08-05T19:55:06.000Z</time>
      </trkpt>
      <trkpt lat="48.84175" lon="2.29038">
        <ele>94.6</ele>
        <time>2013-08-05T19:55:07.000Z</time>
      </trkpt>
      <trkpt lat="48.84178" lon="2.29036">
        <ele>95.2</ele>
        <time>2013-08-05T19:55:08.000Z</time>
      </trkpt>
      <trkpt lat="48.84181" lon="2.29034">
        <ele>94.9</ele>
        <time>2013-08-05T19:55:09.000Z</time>
      </trkpt>
      <trkpt lat="48.84185" lon="2.29032">
        <ele>94.7</ele>
        <time>2013-08-05T19:55:10.000Z</time>
      </trkpt>
      <trkpt lat="48.84188" lon="2.29029">
        <ele>94.7</ele>
        <time>2013-08-05T19:55:11.000Z</time>
      </trkpt>
      <trkpt lat="48.8419" lon="2.29025">
        <ele>95</ele>
        <time>2013-08-05T19:55:12.000Z</time>
      </trkpt>
      <trkpt lat="48.84193" lon="2.29022">
        <ele>93.5</ele>
        <time>2013-08-05T19:55:13.000Z</time>
      </trkpt>
      <trkpt lat="48.84197" lon="2.29019">
        <ele>93.6</ele>
        <time>2013-08-05T19:55:14.000Z</time>
      </trkpt>
      <trkpt lat="48.842" lon="2.29017">
        <ele>92.3</ele>
        <time>2013-08-05T19:55:15.000Z</time>
      </trkpt>
      <trkpt lat="48.84204" lon="2.29014">
        <ele>91.4</ele>
        <time>2013-08-05T19:55:16.000Z</time>
      </trkpt>
      <trkpt lat="48.84207" lon="2.29011">
        <ele>91.6</ele>
        <time>2013-08-05T19:55:17.000Z</time>
      </trkpt>
      <trkpt lat="48.84211" lon="2.29008">
        <ele>91.9</ele>
        <time>2013-08-05T19:55:18.000Z</time>
      </trkpt>
      <trkpt lat="48.84215" lon="2.29004">
        <ele>92.5</ele>
        <time>2013-08-05T19:55:19.000Z</time>
      </trkpt>
      <trkpt lat="48.84218" lon="2.28999">
        <ele>93.4</ele>
        <time>2013-08-05T19:55:20.000Z</time>
      </trkpt>
      <trkpt lat="48.84221" lon="2.28994">
        <ele>92.7</ele>
        <time>2013-08-05T19:55:21.000Z</time>
      </trkpt>
      <trkpt lat="48.84224" lon="2.2899">
        <ele>92.8</ele>
        <time>2013-08-05T19:55:22.000Z</time>
      </trkpt>
      <trkpt lat="48.84228" lon="2.28985">
        <ele>92</ele>
        <time>2013-08-05T19:55:23.000Z</time>
      </trkpt>
      <trkpt lat="48.84231" lon="2.2898">
        <ele>92.6</ele>
        <time>2013-08-05T19:55:24.000Z</time>
      </trkpt>
      <trkpt lat="48.84233" lon="2.28975">
        <ele>92.3</ele>
        <time>2013-08-05T19:55:25.000Z</time>
      </trkpt>
      <trkpt lat="48.84236" lon="2.28969">
        <ele>94.8</ele>
        <time>2013-08-05T19:55:26.000Z</time>
      </trkpt>
      <trkpt lat="48.84239" lon="2.28964">
        <ele>95.2</ele>
        <time>2013-08-05T19:55:27.000Z</time>
      </trkpt>
      <trkpt lat="48.84241" lon="2.28959">
        <ele>95.4</ele>
        <time>2013-08-05T19:55:28.000Z</time>
      </trkpt>
      <trkpt lat="48.84244" lon="2.28953">
        <ele>95.7</ele>
        <time>2013-08-05T19:55:29.000Z</time>
      </trkpt>
      <trkpt lat="48.84247" lon="2.28948">
        <ele>95.1</ele>
        <time>2013-08-05T19:55:30.000Z</time>
      </trkpt>
      <trkpt lat="48.8425" lon="2.28943">
        <ele>95.2</ele>
        <time>2013-08-05T19:55:31.000Z</time>
      </trkpt>
      <trkpt lat="48.84253" lon="2.28938">
        <ele>94.7</ele>
        <time>2013-08-05T19:55:32.000Z</time>
      </trkpt>
      <trkpt lat="48.84256" lon="2.28933">
        <ele>94.5</ele>
        <time>2013-08-05T19:55:33.000Z</time>
      </trkpt>
      <trkpt lat="48.84259" lon="2.28928">
        <ele>94.9</ele>
        <time>2013-08-05T19:55:34.000Z</time>
      </trkpt>
      <trkpt lat="48.84265" lon="2.28925">
        <ele>93.4</ele>
        <time>2013-08-05T19:55:35.000Z</time>
      </trkpt>
      <trkpt lat="48.84268" lon="2.28919">
        <ele>92.9</ele>
        <time>2013-08-05T19:55:36.000Z</time>
      </trkpt>
      <trkpt lat="48.84273" lon="2.28915">
        <ele>89.7</ele>
        <time>2013-08-05T19:55:37.000Z</time>
      </trkpt>
      <trkpt lat="48.84276" lon="2.2891">
        <ele>89.3</ele>
        <time>2013-08-05T19:55:38.000Z</time>
      </trkpt>
      <trkpt lat="48.84279" lon="2.28901">
        <ele>88.7</ele>
        <time>2013-08-05T19:55:39.000Z</time>
      </trkpt>
      <trkpt lat="48.84283" lon="2.28896">
        <ele>89.1</ele>
        <time>2013-08-05T19:55:40.000Z</time>
      </trkpt>
      <trkpt lat="48.84286" lon="2.28889">
        <ele>89.8</ele>
        <time>2013-08-05T19:55:41.000Z</time>
      </trkpt>
      <trkpt lat="48.84289" lon="2.28883">
        <ele>90.2</ele>
        <time>2013-08-05T19:55:42.000Z</time>
      </trkpt>
      <trkpt lat="48.84292" lon="2.28877">
        <ele>90.4</ele>
        <time>2013-08-05T19:55:43.000Z</time>
      </trkpt>
      <trkpt lat="48.84294" lon="2.28873">
        <ele>91</ele>
        <time>2013-08-05T19:55:44.000Z</time>
      </trkpt>
      <trkpt lat="48.84296" lon="2.28867">
        <ele>90.6</ele>
        <time>2013-08-05T19:55:45.000Z</time>
      </trkpt>
      <trkpt lat="48.84298" lon="2.28861">
        <ele>90.5</ele>
        <time>2013-08-05T19:55:46.000Z</time>
      </trkpt>
      <trkpt lat="48.843" lon="2.28853">
        <ele>88.4</ele>
        <time>2013-08-05T19:55:47.000Z</time>
      </trkpt>
      <trkpt lat="48.84303" lon="2.28848">
        <ele>87.4</ele>
        <time>2013-08-05T19:55:48.000Z</time>
      </trkpt>
      <trkpt lat="48.84305" lon="2.28841">
        <ele>87.1</ele>
        <time>2013-08-05T19:55:49.000Z</time>
      </trkpt>
      <trkpt lat="48.84307" lon="2.28834">
        <ele>86.8</ele>
        <time>2013-08-05T19:55:50.000Z</time>
      </trkpt>
      <trkpt lat="48.84311" lon="2.28828">
        <ele>84.9</ele>
        <time>2013-08-05T19:55:51.000Z</time>
      </trkpt>
      <trkpt lat="48.84315" lon="2.28819">
        <ele>84.7</ele>
        <time>2013-08-05T19:55:52.570Z</time>
      </trkpt>
      <trkpt lat="48.84315" lon="2.28813">
        <ele>85.4</ele>
        <time>2013-08-05T19:55:54.000Z</time>
      </trkpt>
      <trkpt lat="48.84317" lon="2.28804">
        <ele>84.8</ele>
        <time>2013-08-05T19:55:55.000Z</time>
      </trkpt>
      <trkpt lat="48.8432" lon="2.28799">
        <ele>84.6</ele>
        <time>2013-08-05T19:55:56.000Z</time>
      </trkpt>
      <trkpt lat="48.84323" lon="2.28791">
        <ele>82.7</ele>
        <time>2013-08-05T19:55:57.000Z</time>
      </trkpt>
      <trkpt lat="48.84325" lon="2.28782">
        <ele>83.8</ele>
        <time>2013-08-05T19:55:58.000Z</time>
      </trkpt>
      <trkpt lat="48.84328" lon="2.28774">
        <ele>83</ele>
        <time>2013-08-05T19:55:59.000Z</time>
      </trkpt>
      <trkpt lat="48.84329" lon="2.28767">
        <ele>81.9</ele>
        <time>2013-08-05T19:56:00.000Z</time>
      </trkpt>
      <trkpt lat="48.8433" lon="2.28757">
        <ele>82.1</ele>
        <time>2013-08-05T19:56:01.000Z</time>
      </trkpt>
      <trkpt lat="48.84332" lon="2.28748">
        <ele>83.6</ele>
        <time>2013-08-05T19:56:02.000Z</time>
      </trkpt>
      <trkpt lat="48.84334" lon="2.28741">
        <ele>84.1</ele>
        <time>2013-08-05T19:56:03.000Z</time>
      </trkpt>
      <trkpt lat="48.84336" lon="2.28732">
        <ele>82.5</ele>
        <time>2013-08-05T19:56:04.000Z</time>
      </trkpt>
      <trkpt lat="48.84338" lon="2.28723">
        <ele>85.1</ele>
        <time>2013-08-05T19:56:05.000Z</time>
      </trkpt>
      <trkpt lat="48.84341" lon="2.28716">
        <ele>85.4</ele>
        <time>2013-08-05T19:56:06.000Z</time>
      </trkpt>
      <trkpt lat="48.84343" lon="2.28708">
        <ele>85.1</ele>
        <time>2013-08-05T19:56:07.000Z</time>
      </trkpt>
      <trkpt lat="48.84344" lon="2.28702">
        <ele>84.8</ele>
        <time>2013-08-05T19:56:08.000Z</time>
      </trkpt>
      <trkpt lat="48.84347" lon="2.28695">
        <ele>84.8</ele>
        <time>2013-08-05T19:56:09.000Z</time>
      </trkpt>
      <trkpt lat="48.8435" lon="2.28689">
        <ele>84.8</ele>
        <time>2013-08-05T19:56:10.000Z</time>
      </trkpt>
      <trkpt lat="48.84352" lon="2.28683">
        <ele>85.1</ele>
        <time>2013-08-05T19:56:11.000Z</time>
      </trkpt>
      <trkpt lat="48.84357" lon="2.28677">
        <ele>85.2</ele>
        <time>2013-08-05T19:56:12.000Z</time>
      </trkpt>
      <trkpt lat="48.84361" lon="2.2867">
        <ele>84.2</ele>
        <time>2013-08-05T19:56:13.000Z</time>
      </trkpt>
      <trkpt lat="48.84363" lon="2.28662">
        <ele>84.2</ele>
        <time>2013-08-05T19:56:14.000Z</time>
      </trkpt>
      <trkpt lat="48.84365" lon="2.28656">
        <ele>84.1</ele>
        <time>2013-08-05T19:56:15.000Z</time>
      </trkpt>
      <trkpt lat="48.84368" lon="2.2865">
        <ele>84.2</ele>
        <time>2013-08-05T19:56:16.000Z</time>
      </trkpt>
      <trkpt lat="48.84371" lon="2.28645">
        <ele>83</ele>
        <time>2013-08-05T19:56:17.000Z</time>
      </trkpt>
      <trkpt lat="48.84373" lon="2.2864">
        <ele>83</ele>
        <time>2013-08-05T19:56:18.000Z</time>
      </trkpt>
      <trkpt lat="48.84375" lon="2.28636">
        <ele>82.8</ele>
        <time>2013-08-05T19:56:19.000Z</time>
      </trkpt>
      <trkpt lat="48.84377" lon="2.2863">
        <ele>83.9</ele>
        <time>2013-08-05T19:56:20.000Z</time>
      </trkpt>
      <trkpt lat="48.84379" lon="2.28624">
        <ele>84.4</ele>
        <time>2013-08-05T19:56:21.000Z</time>
      </trkpt>
      <trkpt lat="48.84381" lon="2.2862">
        <ele>84.8</ele>
        <time>2013-08-05T19:56:22.000Z</time>
      </trkpt>
      <trkpt lat="48.84384" lon="2.28615">
        <ele>83.8</ele>
        <time>2013-08-05T19:56:23.000Z</time>
      </trkpt>
      <trkpt lat="48.84386" lon="2.28608">
        <ele>84</ele>
        <time>2013-08-05T19:56:24.000Z</time>
      </trkpt>
      <trkpt lat="48.84388" lon="2.28603">
        <ele>84.2</ele>
        <time>2013-08-05T19:56:25.000Z</time>
      </trkpt>
      <trkpt lat="48.8439" lon="2.28599">
        <ele>83.9</ele>
        <time>2013-08-05T19:56:26.000Z</time>
      </trkpt>
      <trkpt lat="48.84392" lon="2.28595">
        <ele>84.7</ele>
        <time>2013-08-05T19:56:27.000Z</time>
      </trkpt>
      <trkpt lat="48.84393" lon="2.2859">
        <ele>85.3</ele>
        <time>2013-08-05T19:56:28.000Z</time>
      </trkpt>
      <trkpt lat="48.84395" lon="2.28588">
        <ele>86.4</ele>
        <time>2013-08-05T19:56:29.000Z</time>
      </trkpt>
      <trkpt lat="48.84397" lon="2.28585">
        <ele>86.4</ele>
        <time>2013-08-05T19:56:30.000Z</time>
      </trkpt>
      <trkpt lat="48.84398" lon="2.28579">
        <ele>86.1</ele>
        <time>2013-08-05T19:56:32.000Z</time>
      </trkpt>
      <trkpt lat="48.844" lon="2.28574">
        <ele>88</ele>
        <time>2013-08-05T19:56:33.000Z</time>
      </trkpt>
      <trkpt lat="48.84401" lon="2.2857">
        <ele>88.1</ele>
        <time>2013-08-05T19:56:34.000Z</time>
      </trkpt>
      <trkpt lat="48.84403" lon="2.28566">
        <ele>89.4</ele>
        <time>2013-08-05T19:56:35.000Z</time>
      </trkpt>
      <trkpt lat="48.84404" lon="2.28562">
        <ele>89.8</ele>
        <time>2013-08-05T19:56:36.000Z</time>
      </trkpt>
      <trkpt lat="48.84406" lon="2.28558">
        <ele>90.7</ele>
        <time>2013-08-05T19:56:37.000Z</time>
      </trkpt>
      <trkpt lat="48.84407" lon="2.28554">
        <ele>91.4</ele>
        <time>2013-08-05T19:56:38.000Z</time>
      </trkpt>
      <trkpt lat="48.84408" lon="2.2855">
        <ele>91.8</ele>
        <time>2013-08-05T19:56:39.000Z</time>
      </trkpt>
      <trkpt lat="48.84409" lon="2.28547">
        <ele>91.3</ele>
        <time>2013-08-05T19:56:40.000Z</time>
      </trkpt>
      <trkpt lat="48.8441" lon="2.28543">
        <ele>90.5</ele>
        <time>2013-08-05T19:56:41.000Z</time>
      </trkpt>
      <trkpt lat="48.84412" lon="2.2854">
        <ele>89.2</ele>
        <time>2013-08-05T19:56:42.000Z</time>
      </trkpt>
      <trkpt lat="48.84413" lon="2.28536">
        <ele>89.4</ele>
        <time>2013-08-05T19:56:43.000Z</time>
      </trkpt>
      <trkpt lat="48.84415" lon="2.28532">
        <ele>88</ele>
        <time>2013-08-05T19:56:44.000Z</time>
      </trkpt>
      <trkpt lat="48.84416" lon="2.28528">
        <ele>88.6</ele>
        <time>2013-08-05T19:56:45.000Z</time>
      </trkpt>
      <trkpt lat="48.84417" lon="2.28525">
        <ele>89.1</ele>
        <time>2013-08-05T19:56:46.000Z</time>
      </trkpt>
      <trkpt lat="48.84418" lon="2.28522">
        <ele>88.9</ele>
        <time>2013-08-05T19:56:47.000Z</time>
      </trkpt>
      <trkpt lat="48.84419" lon="2.28517">
        <ele>89.2</ele>
        <time>2013-08-05T19:56:49.000Z</time>
      </trkpt>
      <trkpt lat="48.84421" lon="2.28514">
        <ele>88.9</ele>
        <time>2013-08-05T19:56:50.000Z</time>
      </trkpt>
      <trkpt lat="48.84422" lon="2.28511">
        <ele>90</ele>
        <time>2013-08-05T19:56:51.000Z</time>
      </trkpt>
      <trkpt lat="48.84424" lon="2.28506">
        <ele>90.4</ele>
        <time>2013-08-05T19:56:52.785Z</time>
      </trkpt>
      <trkpt lat="48.84425" lon="2.28502">
        <ele>91</ele>
        <time>2013-08-05T19:56:54.000Z</time>
      </trkpt>
      <trkpt lat="48.84426" lon="2.28497">
        <ele>91.2</ele>
        <time>2013-08-05T19:56:55.000Z</time>
      </trkpt>
      <trkpt lat="48.84427" lon="2.28493">
        <ele>91</ele>
        <time>2013-08-05T19:56:56.000Z</time>
      </trkpt>
      <trkpt lat="48.84429" lon="2.2849">
        <ele>90.5</ele>
        <time>2013-08-05T19:56:57.000Z</time>
      </trkpt>
      <trkpt lat="48.84431" lon="2.28486">
        <ele>91.1</ele>
        <time>2013-08-05T19:56:58.000Z</time>
      </trkpt>
      <trkpt lat="48.84433" lon="2.28483">
        <ele>91.8</ele>
        <time>2013-08-05T19:56:59.000Z</time>
      </trkpt>
      <trkpt lat="48.84435" lon="2.28479">
        <ele>92.2</ele>
        <time>2013-08-05T19:57:00.000Z</time>
      </trkpt>
      <trkpt lat="48.84437" lon="2.28476">
        <ele>93.1</ele>
        <time>2013-08-05T19:57:01.000Z</time>
      </trkpt>
      <trkpt lat="48.84439" lon="2.28473">
        <ele>92</ele>
        <time>2013-08-05T19:57:02.000Z</time>
      </trkpt>
      <trkpt lat="48.84441" lon="2.28469">
        <ele>92.6</ele>
        <time>2013-08-05T19:57:03.000Z</time>
      </trkpt>
      <trkpt lat="48.84443" lon="2.28466">
        <ele>92.8</ele>
        <time>2013-08-05T19:57:04.000Z</time>
      </trkpt>
      <trkpt lat="48.84445" lon="2.28462">
        <ele>92.9</ele>
        <time>2013-08-05T19:57:05.000Z</time>
      </trkpt>
      <trkpt lat="48.84447" lon="2.28458">
        <ele>93.8</ele>
        <time>2013-08-05T19:57:06.000Z</time>
      </trkpt>
      <trkpt lat="48.84448" lon="2.28455">
        <ele>92.6</ele>
        <time>2013-08-05T19:57:07.000Z</time>
      </trkpt>
      <trkpt lat="48.8445" lon="2.28451">
        <ele>92.4</ele>
        <time>2013-08-05T19:57:08.000Z</time>
      </trkpt>
      <trkpt lat="48.84451" lon="2.28446">
        <ele>91.3</ele>
        <time>2013-08-05T19:57:09.000Z</time>
      </trkpt>
      <trkpt lat="48.84452" lon="2.28442">
        <ele>90.5</ele>
        <time>2013-08-05T19:57:10.000Z</time>
      </trkpt>
      <trkpt lat="48.84454" lon="2.28438">
        <ele>90.1</ele>
        <time>2013-08-05T19:57:11.000Z</time>
      </trkpt>
      <trkpt lat="48.84455" lon="2.28434">
        <ele>89.6</ele>
        <time>2013-08-05T19:57:12.000Z</time>
      </trkpt>
      <trkpt lat="48.84456" lon="2.28429">
        <ele>90.9</ele>
        <time>2013-08-05T19:57:13.000Z</time>
      </trkpt>
      <trkpt lat="48.84457" lon="2.28425">
        <ele>90.5</ele>
        <time>2013-08-05T19:57:14.000Z</time>
      </trkpt>
      <trkpt lat="48.84459" lon="2.28422">
        <ele>88.8</ele>
        <time>2013-08-05T19:57:15.000Z</time>
      </trkpt>
      <trkpt lat="48.84461" lon="2.28419">
        <ele>88.2</ele>
        <time>2013-08-05T19:57:16.000Z</time>
      </trkpt>
      <trkpt lat="48.84462" lon="2.28415">
        <ele>87.9</ele>
        <time>2013-08-05T19:57:17.000Z</time>
      </trkpt>
      <trkpt lat="48.84464" lon="2.28412">
        <ele>87.4</ele>
        <time>2013-08-05T19:57:18.000Z</time>
      </trkpt>
      <trkpt lat="48.84465" lon="2.28409">
        <ele>87.7</ele>
        <time>2013-08-05T19:57:19.000Z</time>
      </trkpt>
      <trkpt lat="48.84468" lon="2.28405">
        <ele>87.6</ele>
        <time>2013-08-05T19:57:21.000Z</time>
      </trkpt>
      <trkpt lat="48.8447" lon="2.28403">
        <ele>87</ele>
        <time>2013-08-05T19:57:22.000Z</time>
      </trkpt>
      <trkpt lat="48.84471" lon="2.284">
        <ele>86.3</ele>
        <time>2013-08-05T19:57:23.000Z</time>
      </trkpt>
      <trkpt lat="48.84473" lon="2.28397">
        <ele>86.7</ele>
        <time>2013-08-05T19:57:24.000Z</time>
      </trkpt>
      <trkpt lat="48.84474" lon="2.28394">
        <ele>86.4</ele>
        <time>2013-08-05T19:57:25.000Z</time>
      </trkpt>
      <trkpt lat="48.84475" lon="2.28391">
        <ele>86.4</ele>
        <time>2013-08-05T19:57:26.000Z</time>
      </trkpt>
      <trkpt lat="48.84477" lon="2.28388">
        <ele>86.6</ele>
        <time>2013-08-05T19:57:27.000Z</time>
      </trkpt>
      <trkpt lat="48.84479" lon="2.28385">
        <ele>87.2</ele>
        <time>2013-08-05T19:57:28.000Z</time>
      </trkpt>
      <trkpt lat="48.84481" lon="2.28382">
        <ele>87.7</ele>
        <time>2013-08-05T19:57:29.000Z</time>
      </trkpt>
      <trkpt lat="48.84483" lon="2.28378">
        <ele>87.5</ele>
        <time>2013-08-05T19:57:30.000Z</time>
      </trkpt>
      <trkpt lat="48.84486" lon="2.28374">
        <ele>87.9</ele>
        <time>2013-08-05T19:57:31.000Z</time>
      </trkpt>
      <trkpt lat="48.84488" lon="2.28369">
        <ele>88.7</ele>
        <time>2013-08-05T19:57:32.000Z</time>
      </trkpt>
      <trkpt lat="48.84491" lon="2.28364">
        <ele>88.6</ele>
        <time>2013-08-05T19:57:33.000Z</time>
      </trkpt>
      <trkpt lat="48.84494" lon="2.28358">
        <ele>90.5</ele>
        <time>2013-08-05T19:57:34.000Z</time>
      </trkpt>
      <trkpt lat="48.84497" lon="2.28353">
        <ele>90.9</ele>
        <time>2013-08-05T19:57:35.000Z</time>
      </trkpt>
      <trkpt lat="48.84502" lon="2.28346">
        <ele>91</ele>
        <time>2013-08-05T19:57:36.000Z</time>
      </trkpt>
      <trkpt lat="48.84505" lon="2.28339">
        <ele>91.5</ele>
        <time>2013-08-05T19:57:37.000Z</time>
      </trkpt>
      <trkpt lat="48.84508" lon="2.28332">
        <ele>92.5</ele>
        <time>2013-08-05T19:57:38.000Z</time>
      </trkpt>
      <trkpt lat="48.84509" lon="2.28328">
        <ele>93.3</ele>
        <time>2013-08-05T19:57:39.000Z</time>
      </trkpt>
      <trkpt lat="48.84512" lon="2.28323">
        <ele>94.9</ele>
        <time>2013-08-05T19:57:40.000Z</time>
      </trkpt>
      <trkpt lat="48.84513" lon="2.28316">
        <ele>92.1</ele>
        <time>2013-08-05T19:57:41.000Z</time>
      </trkpt>
      <trkpt lat="48.84515" lon="2.2831">
        <ele>91.9</ele>
        <time>2013-08-05T19:57:42.000Z</time>
      </trkpt>
      <trkpt lat="48.84517" lon="2.28305">
        <ele>92.4</ele>
        <time>2013-08-05T19:57:43.000Z</time>
      </trkpt>
      <trkpt lat="48.8452" lon="2.283">
        <ele>93</ele>
        <time>2013-08-05T19:57:44.000Z</time>
      </trkpt>
      <trkpt lat="48.84523" lon="2.28295">
        <ele>91</ele>
        <time>2013-08-05T19:57:45.000Z</time>
      </trkpt>
      <trkpt lat="48.84525" lon="2.28291">
        <ele>90.6</ele>
        <time>2013-08-05T19:57:46.000Z</time>
      </trkpt>
      <trkpt lat="48.84528" lon="2.28286">
        <ele>91.1</ele>
        <time>2013-08-05T19:57:47.000Z</time>
      </trkpt>
      <trkpt lat="48.8453" lon="2.2828">
        <ele>90.5</ele>
        <time>2013-08-05T19:57:48.000Z</time>
      </trkpt>
      <trkpt lat="48.84532" lon="2.28276">
        <ele>91.4</ele>
        <time>2013-08-05T19:57:49.000Z</time>
      </trkpt>
      <trkpt lat="48.84534" lon="2.28271">
        <ele>93.7</ele>
        <time>2013-08-05T19:57:50.000Z</time>
      </trkpt>
      <trkpt lat="48.84537" lon="2.28266">
        <ele>95.2</ele>
        <time>2013-08-05T19:57:51.000Z</time>
      </trkpt>
      <trkpt lat="48.8454" lon="2.28259">
        <ele>95.6</ele>
        <time>2013-08-05T19:57:52.571Z</time>
      </trkpt>
      <trkpt lat="48.84543" lon="2.28252">
        <ele>96.1</ele>
        <time>2013-08-05T19:57:54.000Z</time>
      </trkpt>
      <trkpt lat="48.84544" lon="2.28247">
        <ele>95.5</ele>
        <time>2013-08-05T19:57:55.000Z</time>
      </trkpt>
      <trkpt lat="48.84546" lon="2.28242">
        <ele>93.9</ele>
        <time>2013-08-05T19:57:56.000Z</time>
      </trkpt>
      <trkpt lat="48.84547" lon="2.28238">
        <ele>93.2</ele>
        <time>2013-08-05T19:57:57.000Z</time>
      </trkpt>
      <trkpt lat="48.84548" lon="2.28233">
        <ele>93.7</ele>
        <time>2013-08-05T19:57:58.000Z</time>
      </trkpt>
      <trkpt lat="48.8455" lon="2.28229">
        <ele>97.6</ele>
        <time>2013-08-05T19:57:59.000Z</time>
      </trkpt>
      <trkpt lat="48.84551" lon="2.28224">
        <ele>97.6</ele>
        <time>2013-08-05T19:58:00.000Z</time>
      </trkpt>
      <trkpt lat="48.84553" lon="2.2822">
        <ele>98.2</ele>
        <time>2013-08-05T19:58:01.000Z</time>
      </trkpt>
      <trkpt lat="48.84555" lon="2.28215">
        <ele>98.6</ele>
        <time>2013-08-05T19:58:02.000Z</time>
      </trkpt>
      <trkpt lat="48.84557" lon="2.2821">
        <ele>98.6</ele>
        <time>2013-08-05T19:58:03.000Z</time>
      </trkpt>
      <trkpt lat="48.84559" lon="2.28205">
        <ele>98.8</ele>
        <time>2013-08-05T19:58:04.000Z</time>
      </trkpt>
      <trkpt lat="48.84561" lon="2.28201">
        <ele>98.9</ele>
        <time>2013-08-05T19:58:05.000Z</time>
      </trkpt>
      <trkpt lat="48.84563" lon="2.28196">
        <ele>99.2</ele>
        <time>2013-08-05T19:58:06.000Z</time>
      </trkpt>
      <trkpt lat="48.84565" lon="2.28192">
        <ele>100.1</ele>
        <time>2013-08-05T19:58:07.000Z</time>
      </trkpt>
      <trkpt lat="48.84568" lon="2.28188">
        <ele>99.9</ele>
        <time>2013-08-05T19:58:08.000Z</time>
      </trkpt>
      <trkpt lat="48.8457" lon="2.28184">
        <ele>99.3</ele>
        <time>2013-08-05T19:58:09.000Z</time>
      </trkpt>
      <trkpt lat="48.84572" lon="2.2818">
        <ele>99.4</ele>
        <time>2013-08-05T19:58:10.000Z</time>
      </trkpt>
      <trkpt lat="48.84575" lon="2.28177">
        <ele>99.1</ele>
        <time>2013-08-05T19:58:11.000Z</time>
      </trkpt>
      <trkpt lat="48.84578" lon="2.28173">
        <ele>99.4</ele>
        <time>2013-08-05T19:58:12.000Z</time>
      </trkpt>
      <trkpt lat="48.84581" lon="2.28169">
        <ele>99.7</ele>
        <time>2013-08-05T19:58:13.000Z</time>
      </trkpt>
      <trkpt lat="48.84584" lon="2.28165">
        <ele>99.6</ele>
        <time>2013-08-05T19:58:14.000Z</time>
      </trkpt>
      <trkpt lat="48.84587" lon="2.28162">
        <ele>99.9</ele>
        <time>2013-08-05T19:58:15.000Z</time>
      </trkpt>
      <trkpt lat="48.8459" lon="2.28158">
        <ele>100.5</ele>
        <time>2013-08-05T19:58:16.000Z</time>
      </trkpt>
      <trkpt lat="48.84594" lon="2.28154">
        <ele>100.1</ele>
        <time>2013-08-05T19:58:17.000Z</time>
      </trkpt>
      <trkpt lat="48.84597" lon="2.2815">
        <ele>100.1</ele>
        <time>2013-08-05T19:58:18.000Z</time>
      </trkpt>
      <trkpt lat="48.846" lon="2.28146">
        <ele>99.2</ele>
        <time>2013-08-05T19:58:19.000Z</time>
      </trkpt>
      <trkpt lat="48.84602" lon="2.28142">
        <ele>93.1</ele>
        <time>2013-08-05T19:58:20.000Z</time>
      </trkpt>
      <trkpt lat="48.84604" lon="2.28137">
        <ele>88.9</ele>
        <time>2013-08-05T19:58:21.000Z</time>
      </trkpt>
      <trkpt lat="48.84607" lon="2.28132">
        <ele>88.5</ele>
        <time>2013-08-05T19:58:22.000Z</time>
      </trkpt>
      <trkpt lat="48.84609" lon="2.28129">
        <ele>88</ele>
        <time>2013-08-05T19:58:23.000Z</time>
      </trkpt>
      <trkpt lat="48.84611" lon="2.28126">
        <ele>87.2</ele>
        <time>2013-08-05T19:58:24.000Z</time>
      </trkpt>
      <trkpt lat="48.84614" lon="2.28122">
        <ele>86.2</ele>
        <time>2013-08-05T19:58:25.000Z</time>
      </trkpt>
      <trkpt lat="48.84616" lon="2.28118">
        <ele>86.1</ele>
        <time>2013-08-05T19:58:26.000Z</time>
      </trkpt>
      <trkpt lat="48.84618" lon="2.28114">
        <ele>86.7</ele>
        <time>2013-08-05T19:58:27.000Z</time>
      </trkpt>
      <trkpt lat="48.84619" lon="2.28109">
        <ele>86.7</ele>
        <time>2013-08-05T19:58:28.000Z</time>
      </trkpt>
      <trkpt lat="48.84621" lon="2.28105">
        <ele>87</ele>
        <time>2013-08-05T19:58:30.000Z</time>
      </trkpt>
      <trkpt lat="48.84622" lon="2.28103">
        <ele>88.2</ele>
        <time>2013-08-05T19:58:31.000Z</time>
      </trkpt>
      <trkpt lat="48.84624" lon="2.28097">
        <ele>89.5</ele>
        <time>2013-08-05T19:58:34.000Z</time>
      </trkpt>
      <trkpt lat="48.84624" lon="2.28095">
        <ele>89.1</ele>
        <time>2013-08-05T19:58:35.000Z</time>
      </trkpt>
      <trkpt lat="48.84625" lon="2.28091">
        <ele>89.6</ele>
        <time>2013-08-05T19:58:37.000Z</time>
      </trkpt>
      <trkpt lat="48.84627" lon="2.28089">
        <ele>92</ele>
        <time>2013-08-05T19:58:38.000Z</time>
      </trkpt>
      <trkpt lat="48.84631" lon="2.28086">
        <ele>93.2</ele>
        <time>2013-08-05T19:58:40.000Z</time>
      </trkpt>
      <trkpt lat="48.84633" lon="2.28083">
        <ele>94</ele>
        <time>2013-08-05T19:58:41.000Z</time>
      </trkpt>
      <trkpt lat="48.84636" lon="2.28081">
        <ele>94.9</ele>
        <time>2013-08-05T19:58:42.000Z</time>
      </trkpt>
      <trkpt lat="48.84638" lon="2.28076">
        <ele>95.6</ele>
        <time>2013-08-05T19:58:43.000Z</time>
      </trkpt>
      <trkpt lat="48.84641" lon="2.28071">
        <ele>96</ele>
        <time>2013-08-05T19:58:44.000Z</time>
      </trkpt>
      <trkpt lat="48.84644" lon="2.28066">
        <ele>94.7</ele>
        <time>2013-08-05T19:58:45.000Z</time>
      </trkpt>
      <trkpt lat="48.84646" lon="2.28061">
        <ele>94.6</ele>
        <time>2013-08-05T19:58:46.000Z</time>
      </trkpt>
      <trkpt lat="48.84649" lon="2.28055">
        <ele>92.1</ele>
        <time>2013-08-05T19:58:47.000Z</time>
      </trkpt>
      <trkpt lat="48.84651" lon="2.2805">
        <ele>90.4</ele>
        <time>2013-08-05T19:58:48.000Z</time>
      </trkpt>
      <trkpt lat="48.84654" lon="2.28044">
        <ele>90.6</ele>
        <time>2013-08-05T19:58:49.000Z</time>
      </trkpt>
      <trkpt lat="48.84657" lon="2.28038">
        <ele>90.4</ele>
        <time>2013-08-05T19:58:50.000Z</time>
      </trkpt>
      <trkpt lat="48.84661" lon="2.28031">
        <ele>92.3</ele>
        <time>2013-08-05T19:58:51.000Z</time>
      </trkpt>
      <trkpt lat="48.84666" lon="2.28026">
        <ele>93.2</ele>
        <time>2013-08-05T19:58:52.647Z</time>
      </trkpt>
      <trkpt lat="48.84669" lon="2.28021">
        <ele>93.2</ele>
        <time>2013-08-05T19:58:54.000Z</time>
      </trkpt>
      <trkpt lat="48.84671" lon="2.28018">
        <ele>93.3</ele>
        <time>2013-08-05T19:58:55.000Z</time>
      </trkpt>
      <trkpt lat="48.84666" lon="2.28012">
        <ele>94.4</ele>
        <time>2013-08-05T19:58:56.000Z</time>
      </trkpt>
      <trkpt lat="48.84667" lon="2.28007">
        <ele>94.6</ele>
        <time>2013-08-05T19:58:57.000Z</time>
      </trkpt>
      <trkpt lat="48.84674" lon="2.28005">
        <ele>94.9</ele>
        <time>2013-08-05T19:58:58.000Z</time>
      </trkpt>
      <trkpt lat="48.84677" lon="2.27999">
        <ele>94.8</ele>
        <time>2013-08-05T19:58:59.000Z</time>
      </trkpt>
      <trkpt lat="48.8468" lon="2.27993">
        <ele>95.1</ele>
        <time>2013-08-05T19:59:00.000Z</time>
      </trkpt>
      <trkpt lat="48.84683" lon="2.27988">
        <ele>95.2</ele>
        <time>2013-08-05T19:59:01.000Z</time>
      </trkpt>
      <trkpt lat="48.84685" lon="2.27983">
        <ele>95.2</ele>
        <time>2013-08-05T19:59:02.000Z</time>
      </trkpt>
      <trkpt lat="48.84686" lon="2.2798">
        <ele>95.3</ele>
        <time>2013-08-05T19:59:03.000Z</time>
      </trkpt>
      <trkpt lat="48.84688" lon="2.27976">
        <ele>95.4</ele>
        <time>2013-08-05T19:59:04.000Z</time>
      </trkpt>
      <trkpt lat="48.8469" lon="2.27973">
        <ele>95.5</ele>
        <time>2013-08-05T19:59:05.000Z</time>
      </trkpt>
      <trkpt lat="48.84693" lon="2.27967">
        <ele>95</ele>
        <time>2013-08-05T19:59:06.000Z</time>
      </trkpt>
      <trkpt lat="48.84695" lon="2.27959">
        <ele>92</ele>
        <time>2013-08-05T19:59:07.000Z</time>
      </trkpt>
      <trkpt lat="48.847" lon="2.27936">
        <ele>90.5</ele>
        <time>2013-08-05T19:59:08.000Z</time>
      </trkpt>
      <trkpt lat="48.84704" lon="2.27938">
        <ele>91.1</ele>
        <time>2013-08-05T19:59:09.000Z</time>
      </trkpt>
      <trkpt lat="48.84705" lon="2.27929">
        <ele>94.4</ele>
        <time>2013-08-05T19:59:10.000Z</time>
      </trkpt>
      <trkpt lat="48.84706" lon="2.2792">
        <ele>97.2</ele>
        <time>2013-08-05T19:59:11.000Z</time>
      </trkpt>
      <trkpt lat="48.84712" lon="2.27918">
        <ele>99.5</ele>
        <time>2013-08-05T19:59:12.000Z</time>
      </trkpt>
      <trkpt lat="48.8471" lon="2.27914">
        <ele>98.3</ele>
        <time>2013-08-05T19:59:13.000Z</time>
      </trkpt>
      <trkpt lat="48.84709" lon="2.27912">
        <ele>97.5</ele>
        <time>2013-08-05T19:59:14.000Z</time>
      </trkpt>
      <trkpt lat="48.84709" lon="2.2791">
        <ele>98.8</ele>
        <time>2013-08-05T19:59:15.000Z</time>
      </trkpt>
      <trkpt lat="48.84713" lon="2.27905">
        <ele>99.8</ele>
        <time>2013-08-05T19:59:16.000Z</time>
      </trkpt>
      <trkpt lat="48.84717" lon="2.27901">
        <ele>100.1</ele>
        <time>2013-08-05T19:59:17.000Z</time>
      </trkpt>
      <trkpt lat="48.8472" lon="2.27897">
        <ele>100.7</ele>
        <time>2013-08-05T19:59:18.000Z</time>
      </trkpt>
      <trkpt lat="48.84722" lon="2.27893">
        <ele>101</ele>
        <time>2013-08-05T19:59:19.000Z</time>
      </trkpt>
      <trkpt lat="48.84723" lon="2.2789">
        <ele>101</ele>
        <time>2013-08-05T19:59:20.000Z</time>
      </trkpt>
      <trkpt lat="48.84725" lon="2.27887">
        <ele>101.6</ele>
        <time>2013-08-05T19:59:21.000Z</time>
      </trkpt>
      <trkpt lat="48.84726" lon="2.27881">
        <ele>105.2</ele>
        <time>2013-08-05T19:59:23.000Z</time>
      </trkpt>
      <trkpt lat="48.84726" lon="2.27879">
        <ele>104.4</ele>
        <time>2013-08-05T19:59:24.000Z</time>
      </trkpt>
      <trkpt lat="48.84728" lon="2.27873">
        <ele>104.4</ele>
        <time>2013-08-05T19:59:27.000Z</time>
      </trkpt>
      <trkpt lat="48.84728" lon="2.27872">
        <ele>105.3</ele>
        <time>2013-08-05T19:59:28.000Z</time>
      </trkpt>
      <trkpt lat="48.84732" lon="2.27868">
        <ele>102.9</ele>
        <time>2013-08-05T19:59:34.000Z</time>
      </trkpt>
      <trkpt lat="48.84732" lon="2.27867">
        <ele>102.7</ele>
        <time>2013-08-05T19:59:35.000Z</time>
      </trkpt>
      <trkpt lat="48.84732" lon="2.2786">
        <ele>103.8</ele>
        <time>2013-08-05T20:00:08.000Z</time>
      </trkpt>
      <trkpt lat="48.84732" lon="2.27857">
        <ele>107</ele>
        <time>2013-08-05T20:00:09.000Z</time>
      </trkpt>
      <trkpt lat="48.84731" lon="2.27852">
        <ele>107.7</ele>
        <time>2013-08-05T20:00:11.000Z</time>
      </trkpt>
      <trkpt lat="48.84731" lon="2.2785">
        <ele>107.4</ele>
        <time>2013-08-05T20:00:12.000Z</time>
      </trkpt>
      <trkpt lat="48.84734" lon="2.27854">
        <ele>108</ele>
        <time>2013-08-05T20:00:21.000Z</time>
      </trkpt>
      <trkpt lat="48.84735" lon="2.27854">
        <ele>107.2</ele>
        <time>2013-08-05T20:00:22.000Z</time>
      </trkpt>
      <trkpt lat="48.84739" lon="2.27853">
        <ele>103.5</ele>
        <time>2013-08-05T20:00:38.000Z</time>
      </trkpt>
      <trkpt lat="48.8474" lon="2.27852">
        <ele>103.7</ele>
        <time>2013-08-05T20:00:39.000Z</time>
      </trkpt>
      <trkpt lat="48.84744" lon="2.27851">
        <ele>96.9</ele>
        <time>2013-08-05T20:00:45.000Z</time>
      </trkpt>
      <trkpt lat="48.84744" lon="2.27851">
        <ele>97.2</ele>
        <time>2013-08-05T20:00:46.000Z</time>
      </trkpt>
      <trkpt lat="48.84748" lon="2.27849">
        <ele>97.1</ele>
        <time>2013-08-05T20:00:52.558Z</time>
      </trkpt>
      <trkpt lat="48.84749" lon="2.27848">
        <ele>96.4</ele>
        <time>2013-08-05T20:00:54.000Z</time>
      </trkpt>
      <trkpt lat="48.84753" lon="2.27844">
        <ele>88.4</ele>
        <time>2013-08-05T20:01:01.000Z</time>
      </trkpt>
      <trkpt lat="48.84753" lon="2.27843">
        <ele>86.3</ele>
        <time>2013-08-05T20:01:02.000Z</time>
      </trkpt>
      <trkpt lat="48.84753" lon="2.27837">
        <ele>85.3</ele>
        <time>2013-08-05T20:01:23.000Z</time>
      </trkpt>
      <trkpt lat="48.84752" lon="2.27836">
        <ele>86.7</ele>
        <time>2013-08-05T20:01:24.000Z</time>
      </trkpt>
      <trkpt lat="48.84756" lon="2.27839">
        <ele>83</ele>
        <time>2013-08-05T20:01:29.000Z</time>
      </trkpt>
      <trkpt lat="48.84758" lon="2.27841">
        <ele>82.5</ele>
        <time>2013-08-05T20:01:30.000Z</time>
      </trkpt>
      <trkpt lat="48.84761" lon="2.27846">
        <ele>82.3</ele>
        <time>2013-08-05T20:01:32.000Z</time>
      </trkpt>
      <trkpt lat="48.84763" lon="2.27848">
        <ele>83</ele>
        <time>2013-08-05T20:01:33.000Z</time>
      </trkpt>
      <trkpt lat="48.84765" lon="2.2785">
        <ele>82.7</ele>
        <time>2013-08-05T20:01:34.000Z</time>
      </trkpt>
      <trkpt lat="48.84768" lon="2.27852">
        <ele>81.7</ele>
        <time>2013-08-05T20:01:35.000Z</time>
      </trkpt>
      <trkpt lat="48.84769" lon="2.27853">
        <ele>82</ele>
        <time>2013-08-05T20:01:36.000Z</time>
      </trkpt>
      <trkpt lat="48.84771" lon="2.27856">
        <ele>80.7</ele>
        <time>2013-08-05T20:01:37.000Z</time>
      </trkpt>
      <trkpt lat="48.84773" lon="2.27858">
        <ele>79.7</ele>
        <time>2013-08-05T20:01:38.000Z</time>
      </trkpt>
      <trkpt lat="48.84775" lon="2.2786">
        <ele>79.5</ele>
        <time>2013-08-05T20:01:39.000Z</time>
      </trkpt>
      <trkpt lat="48.84777" lon="2.27863">
        <ele>79.1</ele>
        <time>2013-08-05T20:01:40.000Z</time>
      </trkpt>
      <trkpt lat="48.8478" lon="2.27866">
        <ele>78.7</ele>
        <time>2013-08-05T20:01:41.000Z</time>
      </trkpt>
      <trkpt lat="48.84782" lon="2.27869">
        <ele>78.6</ele>
        <time>2013-08-05T20:01:42.000Z</time>
      </trkpt>
      <trkpt lat="48.84784" lon="2.27872">
        <ele>78.8</ele>
        <time>2013-08-05T20:01:43.000Z</time>
      </trkpt>
      <trkpt lat="48.84786" lon="2.27875">
        <ele>79.2</ele>
        <time>2013-08-05T20:01:44.000Z</time>
      </trkpt>
      <trkpt lat="48.84788" lon="2.27878">
        <ele>78.6</ele>
        <time>2013-08-05T20:01:45.000Z</time>
      </trkpt>
      <trkpt lat="48.8479" lon="2.27881">
        <ele>78.4</ele>
        <time>2013-08-05T20:01:46.000Z</time>
      </trkpt>
      <trkpt lat="48.84792" lon="2.27884">
        <ele>78.5</ele>
        <time>2013-08-05T20:01:47.000Z</time>
      </trkpt>
      <trkpt lat="48.84795" lon="2.27887">
        <ele>78.2</ele>
        <time>2013-08-05T20:01:48.000Z</time>
      </trkpt>
      <trkpt lat="48.84797" lon="2.27889">
        <ele>77.8</ele>
        <time>2013-08-05T20:01:49.000Z</time>
      </trkpt>
      <trkpt lat="48.84798" lon="2.27892">
        <ele>77.7</ele>
        <time>2013-08-05T20:01:50.000Z</time>
      </trkpt>
      <trkpt lat="48.848" lon="2.27894">
        <ele>77.1</ele>
        <time>2013-08-05T20:01:51.000Z</time>
      </trkpt>
      <trkpt lat="48.84803" lon="2.27898">
        <ele>77</ele>
        <time>2013-08-05T20:01:52.622Z</time>
      </trkpt>
      <trkpt lat="48.84806" lon="2.27901">
        <ele>77.2</ele>
        <time>2013-08-05T20:01:54.000Z</time>
      </trkpt>
      <trkpt lat="48.84808" lon="2.27905">
        <ele>79.7</ele>
        <time>2013-08-05T20:01:56.000Z</time>
      </trkpt>
      <trkpt lat="48.84809" lon="2.27907">
        <ele>79.2</ele>
        <time>2013-08-05T20:01:57.000Z</time>
      </trkpt>
      <trkpt lat="48.84812" lon="2.27911">
        <ele>80.2</ele>
        <time>2013-08-05T20:01:59.000Z</time>
      </trkpt>
      <trkpt lat="48.84814" lon="2.27913">
        <ele>81.3</ele>
        <time>2013-08-05T20:02:00.000Z</time>
      </trkpt>
      <trkpt lat="48.84816" lon="2.27915">
        <ele>80.4</ele>
        <time>2013-08-05T20:02:01.000Z</time>
      </trkpt>
      <trkpt lat="48.84818" lon="2.27917">
        <ele>80.5</ele>
        <time>2013-08-05T20:02:02.000Z</time>
      </trkpt>
      <trkpt lat="48.84819" lon="2.27919">
        <ele>80.7</ele>
        <time>2013-08-05T20:02:03.000Z</time>
      </trkpt>
      <trkpt lat="48.84822" lon="2.27922">
        <ele>80.8</ele>
        <time>2013-08-05T20:02:04.000Z</time>
      </trkpt>
      <trkpt lat="48.84824" lon="2.27924">
        <ele>81.3</ele>
        <time>2013-08-05T20:02:05.000Z</time>
      </trkpt>
      <trkpt lat="48.84826" lon="2.27927">
        <ele>81.6</ele>
        <time>2013-08-05T20:02:06.000Z</time>
      </trkpt>
      <trkpt lat="48.84829" lon="2.2793">
        <ele>81</ele>
        <time>2013-08-05T20:02:07.000Z</time>
      </trkpt>
      <trkpt lat="48.84831" lon="2.27933">
        <ele>80.4</ele>
        <time>2013-08-05T20:02:08.000Z</time>
      </trkpt>
      <trkpt lat="48.84833" lon="2.27936">
        <ele>80</ele>
        <time>2013-08-05T20:02:09.000Z</time>
      </trkpt>
      <trkpt lat="48.84835" lon="2.27939">
        <ele>79.9</ele>
        <time>2013-08-05T20:02:10.000Z</time>
      </trkpt>
      <trkpt lat="48.84837" lon="2.27943">
        <ele>78.7</ele>
        <time>2013-08-05T20:02:11.000Z</time>
      </trkpt>
      <trkpt lat="48.84839" lon="2.27947">
        <ele>78.4</ele>
        <time>2013-08-05T20:02:12.000Z</time>
      </trkpt>
      <trkpt lat="48.84841" lon="2.27951">
        <ele>78.6</ele>
        <time>2013-08-05T20:02:13.000Z</time>
      </trkpt>
      <trkpt lat="48.84844" lon="2.27954">
        <ele>78.4</ele>
        <time>2013-08-05T20:02:14.000Z</time>
      </trkpt>
      <trkpt lat="48.84846" lon="2.27957">
        <ele>79.2</ele>
        <time>2013-08-05T20:02:15.000Z</time>
      </trkpt>
      <trkpt lat="48.84848" lon="2.2796">
        <ele>78.9</ele>
        <time>2013-08-05T20:02:16.000Z</time>
      </trkpt>
      <trkpt lat="48.84851" lon="2.27963">
        <ele>78.2</ele>
        <time>2013-08-05T20:02:17.000Z</time>
      </trkpt>
      <trkpt lat="48.84854" lon="2.27967">
        <ele>77.2</ele>
        <time>2013-08-05T20:02:18.000Z</time>
      </trkpt>
      <trkpt lat="48.84857" lon="2.2797">
        <ele>77.8</ele>
        <time>2013-08-05T20:02:19.000Z</time>
      </trkpt>
      <trkpt lat="48.84859" lon="2.27975">
        <ele>77.3</ele>
        <time>2013-08-05T20:02:20.000Z</time>
      </trkpt>
      <trkpt lat="48.84862" lon="2.2798">
        <ele>77.2</ele>
        <time>2013-08-05T20:02:21.000Z</time>
      </trkpt>
      <trkpt lat="48.84865" lon="2.27985">
        <ele>77</ele>
        <time>2013-08-05T20:02:22.000Z</time>
      </trkpt>
      <trkpt lat="48.84868" lon="2.27989">
        <ele>77</ele>
        <time>2013-08-05T20:02:23.000Z</time>
      </trkpt>
      <trkpt lat="48.8487" lon="2.27995">
        <ele>76.8</ele>
        <time>2013-08-05T20:02:24.000Z</time>
      </trkpt>
      <trkpt lat="48.84873" lon="2.27999">
        <ele>77.6</ele>
        <time>2013-08-05T20:02:25.000Z</time>
      </trkpt>
      <trkpt lat="48.84876" lon="2.28002">
        <ele>77.9</ele>
        <time>2013-08-05T20:02:26.000Z</time>
      </trkpt>
      <trkpt lat="48.84879" lon="2.28005">
        <ele>78.1</ele>
        <time>2013-08-05T20:02:27.000Z</time>
      </trkpt>
      <trkpt lat="48.84881" lon="2.28008">
        <ele>79.4</ele>
        <time>2013-08-05T20:02:28.000Z</time>
      </trkpt>
      <trkpt lat="48.84884" lon="2.28011">
        <ele>79.5</ele>
        <time>2013-08-05T20:02:29.000Z</time>
      </trkpt>
      <trkpt lat="48.84887" lon="2.28014">
        <ele>79.4</ele>
        <time>2013-08-05T20:02:30.000Z</time>
      </trkpt>
      <trkpt lat="48.84889" lon="2.28018">
        <ele>79.1</ele>
        <time>2013-08-05T20:02:31.000Z</time>
      </trkpt>
      <trkpt lat="48.84892" lon="2.28022">
        <ele>79.1</ele>
        <time>2013-08-05T20:02:32.000Z</time>
      </trkpt>
      <trkpt lat="48.84894" lon="2.28026">
        <ele>79.2</ele>
        <time>2013-08-05T20:02:33.000Z</time>
      </trkpt>
      <trkpt lat="48.84897" lon="2.2803">
        <ele>79.4</ele>
        <time>2013-08-05T20:02:34.000Z</time>
      </trkpt>
      <trkpt lat="48.84899" lon="2.28033">
        <ele>79.4</ele>
        <time>2013-08-05T20:02:35.000Z</time>
      </trkpt>
      <trkpt lat="48.84902" lon="2.28037">
        <ele>79.7</ele>
        <time>2013-08-05T20:02:36.000Z</time>
      </trkpt>
      <trkpt lat="48.84904" lon="2.2804">
        <ele>79.7</ele>
        <time>2013-08-05T20:02:37.000Z</time>
      </trkpt>
      <trkpt lat="48.84907" lon="2.28044">
        <ele>79.3</ele>
        <time>2013-08-05T20:02:38.000Z</time>
      </trkpt>
      <trkpt lat="48.84909" lon="2.28047">
        <ele>79.7</ele>
        <time>2013-08-05T20:02:39.000Z</time>
      </trkpt>
      <trkpt lat="48.84912" lon="2.2805">
        <ele>80</ele>
        <time>2013-08-05T20:02:40.000Z</time>
      </trkpt>
      <trkpt lat="48.84914" lon="2.28048">
        <ele>81.7</ele>
        <time>2013-08-05T20:02:43.000Z</time>
      </trkpt>
      <trkpt lat="48.84916" lon="2.28047">
        <ele>83.6</ele>
        <time>2013-08-05T20:02:44.000Z</time>
      </trkpt>
      <trkpt lat="48.8492" lon="2.28045">
        <ele>82.8</ele>
        <time>2013-08-05T20:02:48.000Z</time>
      </trkpt>
      <trkpt lat="48.8492" lon="2.28047">
        <ele>82.5</ele>
        <time>2013-08-05T20:02:49.000Z</time>
      </trkpt>
      <trkpt lat="48.84922" lon="2.2805">
        <ele>82.7</ele>
        <time>2013-08-05T20:02:51.000Z</time>
      </trkpt>
      <trkpt lat="48.84924" lon="2.28054">
        <ele>82.8</ele>
        <time>2013-08-05T20:02:52.628Z</time>
      </trkpt>
      <trkpt lat="48.84926" lon="2.28058">
        <ele>83</ele>
        <time>2013-08-05T20:02:54.000Z</time>
      </trkpt>
      <trkpt lat="48.84929" lon="2.28062">
        <ele>82.8</ele>
        <time>2013-08-05T20:02:55.000Z</time>
      </trkpt>
      <trkpt lat="48.84931" lon="2.28066">
        <ele>81.6</ele>
        <time>2013-08-05T20:02:56.000Z</time>
      </trkpt>
      <trkpt lat="48.84934" lon="2.28071">
        <ele>80.3</ele>
        <time>2013-08-05T20:02:57.000Z</time>
      </trkpt>
      <trkpt lat="48.84937" lon="2.28075">
        <ele>79.8</ele>
        <time>2013-08-05T20:02:58.000Z</time>
      </trkpt>
      <trkpt lat="48.8494" lon="2.2808">
        <ele>80.3</ele>
        <time>2013-08-05T20:02:59.000Z</time>
      </trkpt>
      <trkpt lat="48.84943" lon="2.28084">
        <ele>79.5</ele>
        <time>2013-08-05T20:03:00.000Z</time>
      </trkpt>
      <trkpt lat="48.84946" lon="2.28088">
        <ele>78.5</ele>
        <time>2013-08-05T20:03:01.000Z</time>
      </trkpt>
      <trkpt lat="48.8495" lon="2.28091">
        <ele>78.9</ele>
        <time>2013-08-05T20:03:02.000Z</time>
      </trkpt>
      <trkpt lat="48.84955" lon="2.28095">
        <ele>78.9</ele>
        <time>2013-08-05T20:03:03.000Z</time>
      </trkpt>
      <trkpt lat="48.84961" lon="2.28099">
        <ele>79.2</ele>
        <time>2013-08-05T20:03:04.000Z</time>
      </trkpt>
      <trkpt lat="48.84965" lon="2.28103">
        <ele>79.5</ele>
        <time>2013-08-05T20:03:05.000Z</time>
      </trkpt>
      <trkpt lat="48.84968" lon="2.28105">
        <ele>80.7</ele>
        <time>2013-08-05T20:03:06.000Z</time>
      </trkpt>
      <trkpt lat="48.84971" lon="2.28108">
        <ele>80.8</ele>
        <time>2013-08-05T20:03:07.000Z</time>
      </trkpt>
      <trkpt lat="48.84975" lon="2.28113">
        <ele>80.7</ele>
        <time>2013-08-05T20:03:08.000Z</time>
      </trkpt>
      <trkpt lat="48.8498" lon="2.28122">
        <ele>80</ele>
        <time>2013-08-05T20:03:09.000Z</time>
      </trkpt>
      <trkpt lat="48.84982" lon="2.28126">
        <ele>79.6</ele>
        <time>2013-08-05T20:03:10.000Z</time>
      </trkpt>
      <trkpt lat="48.84986" lon="2.2813">
        <ele>78.9</ele>
        <time>2013-08-05T20:03:11.000Z</time>
      </trkpt>
      <trkpt lat="48.84989" lon="2.28137">
        <ele>78.4</ele>
        <time>2013-08-05T20:03:12.000Z</time>
      </trkpt>
      <trkpt lat="48.84991" lon="2.28143">
        <ele>78.8</ele>
        <time>2013-08-05T20:03:13.000Z</time>
      </trkpt>
      <trkpt lat="48.84991" lon="2.28149">
        <ele>78.6</ele>
        <time>2013-08-05T20:03:14.000Z</time>
      </trkpt>
      <trkpt lat="48.84994" lon="2.28156">
        <ele>76.9</ele>
        <time>2013-08-05T20:03:15.000Z</time>
      </trkpt>
      <trkpt lat="48.84999" lon="2.28162">
        <ele>77.8</ele>
        <time>2013-08-05T20:03:16.000Z</time>
      </trkpt>
      <trkpt lat="48.85002" lon="2.2817">
        <ele>77.8</ele>
        <time>2013-08-05T20:03:17.000Z</time>
      </trkpt>
      <trkpt lat="48.85006" lon="2.28175">
        <ele>78.1</ele>
        <time>2013-08-05T20:03:18.000Z</time>
      </trkpt>
      <trkpt lat="48.8501" lon="2.28179">
        <ele>78.2</ele>
        <time>2013-08-05T20:03:19.000Z</time>
      </trkpt>
      <trkpt lat="48.85013" lon="2.28184">
        <ele>78.1</ele>
        <time>2013-08-05T20:03:20.000Z</time>
      </trkpt>
      <trkpt lat="48.85016" lon="2.2819">
        <ele>78.3</ele>
        <time>2013-08-05T20:03:21.000Z</time>
      </trkpt>
      <trkpt lat="48.8502" lon="2.28195">
        <ele>78.2</ele>
        <time>2013-08-05T20:03:22.000Z</time>
      </trkpt>
      <trkpt lat="48.85024" lon="2.28197">
        <ele>80.3</ele>
        <time>2013-08-05T20:03:23.000Z</time>
      </trkpt>
      <trkpt lat="48.85027" lon="2.28205">
        <ele>79.1</ele>
        <time>2013-08-05T20:03:24.000Z</time>
      </trkpt>
      <trkpt lat="48.85031" lon="2.28212">
        <ele>79.5</ele>
        <time>2013-08-05T20:03:25.000Z</time>
      </trkpt>
      <trkpt lat="48.85034" lon="2.28218">
        <ele>79.4</ele>
        <time>2013-08-05T20:03:26.000Z</time>
      </trkpt>
      <trkpt lat="48.85037" lon="2.28224">
        <ele>80.3</ele>
        <time>2013-08-05T20:03:27.000Z</time>
      </trkpt>
      <trkpt lat="48.85041" lon="2.2823">
        <ele>79.9</ele>
        <time>2013-08-05T20:03:28.000Z</time>
      </trkpt>
      <trkpt lat="48.85044" lon="2.28237">
        <ele>80.4</ele>
        <time>2013-08-05T20:03:29.000Z</time>
      </trkpt>
      <trkpt lat="48.85048" lon="2.28242">
        <ele>80.4</ele>
        <time>2013-08-05T20:03:30.000Z</time>
      </trkpt>
      <trkpt lat="48.85053" lon="2.28248">
        <ele>80.6</ele>
        <time>2013-08-05T20:03:31.000Z</time>
      </trkpt>
      <trkpt lat="48.85057" lon="2.28253">
        <ele>80</ele>
        <time>2013-08-05T20:03:32.000Z</time>
      </trkpt>
      <trkpt lat="48.85061" lon="2.28258">
        <ele>79.7</ele>
        <time>2013-08-05T20:03:33.000Z</time>
      </trkpt>
      <trkpt lat="48.85065" lon="2.28264">
        <ele>79.1</ele>
        <time>2013-08-05T20:03:34.000Z</time>
      </trkpt>
      <trkpt lat="48.85069" lon="2.28269">
        <ele>78.6</ele>
        <time>2013-08-05T20:03:35.000Z</time>
      </trkpt>
      <trkpt lat="48.85072" lon="2.28275">
        <ele>78.4</ele>
        <time>2013-08-05T20:03:36.000Z</time>
      </trkpt>
      <trkpt lat="48.85075" lon="2.28279">
        <ele>78.3</ele>
        <time>2013-08-05T20:03:37.000Z</time>
      </trkpt>
      <trkpt lat="48.8508" lon="2.28284">
        <ele>78.8</ele>
        <time>2013-08-05T20:03:38.000Z</time>
      </trkpt>
      <trkpt lat="48.85084" lon="2.28289">
        <ele>76.9</ele>
        <time>2013-08-05T20:03:39.000Z</time>
      </trkpt>
      <trkpt lat="48.85086" lon="2.28292">
        <ele>77.9</ele>
        <time>2013-08-05T20:03:40.000Z</time>
      </trkpt>
      <trkpt lat="48.85088" lon="2.28294">
        <ele>78.6</ele>
        <time>2013-08-05T20:03:41.000Z</time>
      </trkpt>
      <trkpt lat="48.85089" lon="2.28299">
        <ele>78</ele>
        <time>2013-08-05T20:03:42.000Z</time>
      </trkpt>
      <trkpt lat="48.85094" lon="2.28306">
        <ele>78.4</ele>
        <time>2013-08-05T20:03:43.000Z</time>
      </trkpt>
      <trkpt lat="48.85097" lon="2.2831">
        <ele>79.3</ele>
        <time>2013-08-05T20:03:44.000Z</time>
      </trkpt>
      <trkpt lat="48.85101" lon="2.28315">
        <ele>79.1</ele>
        <time>2013-08-05T20:03:45.000Z</time>
      </trkpt>
      <trkpt lat="48.85105" lon="2.2832">
        <ele>79.3</ele>
        <time>2013-08-05T20:03:46.000Z</time>
      </trkpt>
      <trkpt lat="48.8511" lon="2.28325">
        <ele>78.4</ele>
        <time>2013-08-05T20:03:47.000Z</time>
      </trkpt>
      <trkpt lat="48.85113" lon="2.28329">
        <ele>78.5</ele>
        <time>2013-08-05T20:03:48.000Z</time>
      </trkpt>
      <trkpt lat="48.85117" lon="2.28334">
        <ele>78.1</ele>
        <time>2013-08-05T20:03:49.000Z</time>
      </trkpt>
      <trkpt lat="48.8512" lon="2.28338">
        <ele>78.2</ele>
        <time>2013-08-05T20:03:50.000Z</time>
      </trkpt>
      <trkpt lat="48.85124" lon="2.28343">
        <ele>79.7</ele>
        <time>2013-08-05T20:03:51.000Z</time>
      </trkpt>
      <trkpt lat="48.85129" lon="2.2835">
        <ele>80</ele>
        <time>2013-08-05T20:03:52.633Z</time>
      </trkpt>
      <trkpt lat="48.85132" lon="2.28356">
        <ele>80.7</ele>
        <time>2013-08-05T20:03:54.000Z</time>
      </trkpt>
      <trkpt lat="48.85135" lon="2.28361">
        <ele>81.2</ele>
        <time>2013-08-05T20:03:55.000Z</time>
      </trkpt>
      <trkpt lat="48.85138" lon="2.28366">
        <ele>80.9</ele>
        <time>2013-08-05T20:03:56.000Z</time>
      </trkpt>
      <trkpt lat="48.8514" lon="2.28372">
        <ele>80.5</ele>
        <time>2013-08-05T20:03:57.000Z</time>
      </trkpt>
      <trkpt lat="48.85142" lon="2.28379">
        <ele>79.4</ele>
        <time>2013-08-05T20:03:58.000Z</time>
      </trkpt>
      <trkpt lat="48.85144" lon="2.28384">
        <ele>79.1</ele>
        <time>2013-08-05T20:03:59.000Z</time>
      </trkpt>
      <trkpt lat="48.85149" lon="2.28391">
        <ele>77.2</ele>
        <time>2013-08-05T20:04:00.000Z</time>
      </trkpt>
      <trkpt lat="48.85153" lon="2.28395">
        <ele>76.9</ele>
        <time>2013-08-05T20:04:01.000Z</time>
      </trkpt>
      <trkpt lat="48.85157" lon="2.28398">
        <ele>77.6</ele>
        <time>2013-08-05T20:04:02.000Z</time>
      </trkpt>
      <trkpt lat="48.8516" lon="2.28398">
        <ele>78.6</ele>
        <time>2013-08-05T20:04:03.000Z</time>
      </trkpt>
      <trkpt lat="48.85164" lon="2.284">
        <ele>78.5</ele>
        <time>2013-08-05T20:04:04.000Z</time>
      </trkpt>
      <trkpt lat="48.85169" lon="2.28403">
        <ele>77.9</ele>
        <time>2013-08-05T20:04:05.000Z</time>
      </trkpt>
      <trkpt lat="48.85173" lon="2.28408">
        <ele>78</ele>
        <time>2013-08-05T20:04:06.000Z</time>
      </trkpt>
      <trkpt lat="48.85178" lon="2.28412">
        <ele>79.4</ele>
        <time>2013-08-05T20:04:07.000Z</time>
      </trkpt>
      <trkpt lat="48.85182" lon="2.28416">
        <ele>79.6</ele>
        <time>2013-08-05T20:04:08.000Z</time>
      </trkpt>
      <trkpt lat="48.85186" lon="2.28421">
        <ele>79.9</ele>
        <time>2013-08-05T20:04:09.000Z</time>
      </trkpt>
      <trkpt lat="48.8519" lon="2.28426">
        <ele>80.1</ele>
        <time>2013-08-05T20:04:10.000Z</time>
      </trkpt>
      <trkpt lat="48.85193" lon="2.28431">
        <ele>80.1</ele>
        <time>2013-08-05T20:04:11.000Z</time>
      </trkpt>
      <trkpt lat="48.85197" lon="2.28435">
        <ele>79.8</ele>
        <time>2013-08-05T20:04:12.000Z</time>
      </trkpt>
      <trkpt lat="48.852" lon="2.2844">
        <ele>80</ele>
        <time>2013-08-05T20:04:13.000Z</time>
      </trkpt>
      <trkpt lat="48.85204" lon="2.28445">
        <ele>80.2</ele>
        <time>2013-08-05T20:04:14.000Z</time>
      </trkpt>
      <trkpt lat="48.85208" lon="2.28449">
        <ele>81.2</ele>
        <time>2013-08-05T20:04:15.000Z</time>
      </trkpt>
      <trkpt lat="48.85214" lon="2.28451">
        <ele>82.6</ele>
        <time>2013-08-05T20:04:16.000Z</time>
      </trkpt>
      <trkpt lat="48.85216" lon="2.28455">
        <ele>82.3</ele>
        <time>2013-08-05T20:04:17.000Z</time>
      </trkpt>
      <trkpt lat="48.85217" lon="2.28457">
        <ele>81.5</ele>
        <time>2013-08-05T20:04:18.000Z</time>
      </trkpt>
      <trkpt lat="48.85222" lon="2.28461">
        <ele>80.2</ele>
        <time>2013-08-05T20:04:19.000Z</time>
      </trkpt>
      <trkpt lat="48.85224" lon="2.28463">
        <ele>80.4</ele>
        <time>2013-08-05T20:04:20.000Z</time>
      </trkpt>
      <trkpt lat="48.85227" lon="2.28465">
        <ele>80.2</ele>
        <time>2013-08-05T20:04:21.000Z</time>
      </trkpt>
      <trkpt lat="48.85229" lon="2.28468">
        <ele>78.8</ele>
        <time>2013-08-05T20:04:22.000Z</time>
      </trkpt>
      <trkpt lat="48.85231" lon="2.28472">
        <ele>78.3</ele>
        <time>2013-08-05T20:04:23.000Z</time>
      </trkpt>
      <trkpt lat="48.85233" lon="2.28475">
        <ele>78</ele>
        <time>2013-08-05T20:04:24.000Z</time>
      </trkpt>
      <trkpt lat="48.85235" lon="2.28478">
        <ele>77.9</ele>
        <time>2013-08-05T20:04:25.000Z</time>
      </trkpt>
      <trkpt lat="48.85238" lon="2.28481">
        <ele>77.2</ele>
        <time>2013-08-05T20:04:26.000Z</time>
      </trkpt>
      <trkpt lat="48.85241" lon="2.28484">
        <ele>78.1</ele>
        <time>2013-08-05T20:04:27.000Z</time>
      </trkpt>
      <trkpt lat="48.85244" lon="2.28488">
        <ele>78.3</ele>
        <time>2013-08-05T20:04:28.000Z</time>
      </trkpt>
      <trkpt lat="48.85247" lon="2.28492">
        <ele>77.7</ele>
        <time>2013-08-05T20:04:29.000Z</time>
      </trkpt>
      <trkpt lat="48.8525" lon="2.28497">
        <ele>77</ele>
        <time>2013-08-05T20:04:30.000Z</time>
      </trkpt>
      <trkpt lat="48.85253" lon="2.28502">
        <ele>77.7</ele>
        <time>2013-08-05T20:04:31.000Z</time>
      </trkpt>
      <trkpt lat="48.85256" lon="2.28507">
        <ele>77.9</ele>
        <time>2013-08-05T20:04:32.000Z</time>
      </trkpt>
      <trkpt lat="48.85258" lon="2.28513">
        <ele>77.9</ele>
        <time>2013-08-05T20:04:33.000Z</time>
      </trkpt>
      <trkpt lat="48.85261" lon="2.28518">
        <ele>77.9</ele>
        <time>2013-08-05T20:04:34.000Z</time>
      </trkpt>
      <trkpt lat="48.85263" lon="2.28524">
        <ele>77.8</ele>
        <time>2013-08-05T20:04:35.000Z</time>
      </trkpt>
      <trkpt lat="48.85266" lon="2.2853">
        <ele>78</ele>
        <time>2013-08-05T20:04:36.000Z</time>
      </trkpt>
      <trkpt lat="48.85268" lon="2.28535">
        <ele>78.4</ele>
        <time>2013-08-05T20:04:37.000Z</time>
      </trkpt>
      <trkpt lat="48.85271" lon="2.28541">
        <ele>78</ele>
        <time>2013-08-05T20:04:38.000Z</time>
      </trkpt>
      <trkpt lat="48.85274" lon="2.28547">
        <ele>78.4</ele>
        <time>2013-08-05T20:04:39.000Z</time>
      </trkpt>
      <trkpt lat="48.85276" lon="2.28552">
        <ele>78.5</ele>
        <time>2013-08-05T20:04:40.000Z</time>
      </trkpt>
      <trkpt lat="48.85279" lon="2.28557">
        <ele>78.4</ele>
        <time>2013-08-05T20:04:41.000Z</time>
      </trkpt>
      <trkpt lat="48.85282" lon="2.28562">
        <ele>78.8</ele>
        <time>2013-08-05T20:04:42.000Z</time>
      </trkpt>
      <trkpt lat="48.85286" lon="2.28567">
        <ele>79</ele>
        <time>2013-08-05T20:04:43.000Z</time>
      </trkpt>
      <trkpt lat="48.85289" lon="2.28571">
        <ele>79</ele>
        <time>2013-08-05T20:04:44.000Z</time>
      </trkpt>
      <trkpt lat="48.85293" lon="2.28576">
        <ele>79</ele>
        <time>2013-08-05T20:04:45.000Z</time>
      </trkpt>
      <trkpt lat="48.85298" lon="2.2858">
        <ele>79.1</ele>
        <time>2013-08-05T20:04:46.000Z</time>
      </trkpt>
      <trkpt lat="48.85302" lon="2.28584">
        <ele>78.9</ele>
        <time>2013-08-05T20:04:47.000Z</time>
      </trkpt>
      <trkpt lat="48.85306" lon="2.28588">
        <ele>79</ele>
        <time>2013-08-05T20:04:48.000Z</time>
      </trkpt>
      <trkpt lat="48.85304" lon="2.28596">
        <ele>74.6</ele>
        <time>2013-08-05T20:04:49.000Z</time>
      </trkpt>
      <trkpt lat="48.85308" lon="2.28603">
        <ele>74.3</ele>
        <time>2013-08-05T20:04:50.000Z</time>
      </trkpt>
      <trkpt lat="48.85313" lon="2.28608">
        <ele>75.7</ele>
        <time>2013-08-05T20:04:51.000Z</time>
      </trkpt>
      <trkpt lat="48.85319" lon="2.28617">
        <ele>75.7</ele>
        <time>2013-08-05T20:04:52.552Z</time>
      </trkpt>
      <trkpt lat="48.85322" lon="2.28626">
        <ele>74.5</ele>
        <time>2013-08-05T20:04:54.000Z</time>
      </trkpt>
      <trkpt lat="48.85326" lon="2.28634">
        <ele>73</ele>
        <time>2013-08-05T20:04:55.000Z</time>
      </trkpt>
      <trkpt lat="48.8533" lon="2.28639">
        <ele>73.3</ele>
        <time>2013-08-05T20:04:56.000Z</time>
      </trkpt>
      <trkpt lat="48.85333" lon="2.28645">
        <ele>72.7</ele>
        <time>2013-08-05T20:04:57.000Z</time>
      </trkpt>
      <trkpt lat="48.85338" lon="2.28649">
        <ele>73.2</ele>
        <time>2013-08-05T20:04:58.000Z</time>
      </trkpt>
      <trkpt lat="48.85342" lon="2.28656">
        <ele>73.3</ele>
        <time>2013-08-05T20:04:59.000Z</time>
      </trkpt>
      <trkpt lat="48.85346" lon="2.28661">
        <ele>75</ele>
        <time>2013-08-05T20:05:00.000Z</time>
      </trkpt>
      <trkpt lat="48.8535" lon="2.28667">
        <ele>75.8</ele>
        <time>2013-08-05T20:05:01.000Z</time>
      </trkpt>
      <trkpt lat="48.85354" lon="2.28672">
        <ele>74.3</ele>
        <time>2013-08-05T20:05:02.000Z</time>
      </trkpt>
      <trkpt lat="48.85359" lon="2.28679">
        <ele>74.4</ele>
        <time>2013-08-05T20:05:03.000Z</time>
      </trkpt>
      <trkpt lat="48.85363" lon="2.28684">
        <ele>73.3</ele>
        <time>2013-08-05T20:05:04.000Z</time>
      </trkpt>
      <trkpt lat="48.85367" lon="2.28689">
        <ele>74.1</ele>
        <time>2013-08-05T20:05:05.000Z</time>
      </trkpt>
      <trkpt lat="48.85372" lon="2.28695">
        <ele>74.2</ele>
        <time>2013-08-05T20:05:06.000Z</time>
      </trkpt>
      <trkpt lat="48.85376" lon="2.287">
        <ele>74.1</ele>
        <time>2013-08-05T20:05:07.000Z</time>
      </trkpt>
      <trkpt lat="48.85378" lon="2.28706">
        <ele>72.6</ele>
        <time>2013-08-05T20:05:08.000Z</time>
      </trkpt>
      <trkpt lat="48.85382" lon="2.28712">
        <ele>72.7</ele>
        <time>2013-08-05T20:05:09.000Z</time>
      </trkpt>
      <trkpt lat="48.85386" lon="2.28719">
        <ele>73</ele>
        <time>2013-08-05T20:05:10.000Z</time>
      </trkpt>
      <trkpt lat="48.8539" lon="2.28723">
        <ele>74.2</ele>
        <time>2013-08-05T20:05:11.000Z</time>
      </trkpt>
      <trkpt lat="48.85395" lon="2.28726">
        <ele>76.1</ele>
        <time>2013-08-05T20:05:12.000Z</time>
      </trkpt>
      <trkpt lat="48.85399" lon="2.2873">
        <ele>76</ele>
        <time>2013-08-05T20:05:13.000Z</time>
      </trkpt>
      <trkpt lat="48.85402" lon="2.28737">
        <ele>75.5</ele>
        <time>2013-08-05T20:05:14.000Z</time>
      </trkpt>
      <trkpt lat="48.85405" lon="2.2874">
        <ele>76.5</ele>
        <time>2013-08-05T20:05:15.000Z</time>
      </trkpt>
      <trkpt lat="48.85407" lon="2.28746">
        <ele>77.7</ele>
        <time>2013-08-05T20:05:16.000Z</time>
      </trkpt>
      <trkpt lat="48.85409" lon="2.28748">
        <ele>77.4</ele>
        <time>2013-08-05T20:05:17.000Z</time>
      </trkpt>
      <trkpt lat="48.85412" lon="2.28751">
        <ele>77.7</ele>
        <time>2013-08-05T20:05:18.000Z</time>
      </trkpt>
      <trkpt lat="48.85415" lon="2.28755">
        <ele>79</ele>
        <time>2013-08-05T20:05:19.000Z</time>
      </trkpt>
      <trkpt lat="48.85418" lon="2.2876">
        <ele>79.5</ele>
        <time>2013-08-05T20:05:20.000Z</time>
      </trkpt>
      <trkpt lat="48.8542" lon="2.28764">
        <ele>79.8</ele>
        <time>2013-08-05T20:05:21.000Z</time>
      </trkpt>
      <trkpt lat="48.85423" lon="2.28767">
        <ele>81</ele>
        <time>2013-08-05T20:05:22.000Z</time>
      </trkpt>
      <trkpt lat="48.85426" lon="2.2877">
        <ele>81.7</ele>
        <time>2013-08-05T20:05:23.000Z</time>
      </trkpt>
      <trkpt lat="48.85428" lon="2.28774">
        <ele>81.5</ele>
        <time>2013-08-05T20:05:24.000Z</time>
      </trkpt>
      <trkpt lat="48.8543" lon="2.28777">
        <ele>82.7</ele>
        <time>2013-08-05T20:05:25.000Z</time>
      </trkpt>
      <trkpt lat="48.85433" lon="2.28781">
        <ele>82.4</ele>
        <time>2013-08-05T20:05:26.000Z</time>
      </trkpt>
      <trkpt lat="48.85436" lon="2.28784">
        <ele>82.5</ele>
        <time>2013-08-05T20:05:27.000Z</time>
      </trkpt>
      <trkpt lat="48.85438" lon="2.28788">
        <ele>82.8</ele>
        <time>2013-08-05T20:05:28.000Z</time>
      </trkpt>
      <trkpt lat="48.85441" lon="2.28792">
        <ele>82.7</ele>
        <time>2013-08-05T20:05:29.000Z</time>
      </trkpt>
      <trkpt lat="48.85444" lon="2.28796">
        <ele>82.6</ele>
        <time>2013-08-05T20:05:30.000Z</time>
      </trkpt>
      <trkpt lat="48.85447" lon="2.288">
        <ele>82.7</ele>
        <time>2013-08-05T20:05:31.000Z</time>
      </trkpt>
      <trkpt lat="48.85449" lon="2.28804">
        <ele>82.4</ele>
        <time>2013-08-05T20:05:32.000Z</time>
      </trkpt>
      <trkpt lat="48.85452" lon="2.28808">
        <ele>81.4</ele>
        <time>2013-08-05T20:05:33.000Z</time>
      </trkpt>
      <trkpt lat="48.85454" lon="2.28812">
        <ele>82.8</ele>
        <time>2013-08-05T20:05:34.000Z</time>
      </trkpt>
      <trkpt lat="48.85457" lon="2.28815">
        <ele>82.6</ele>
        <time>2013-08-05T20:05:35.000Z</time>
      </trkpt>
      <trkpt lat="48.85459" lon="2.28818">
        <ele>82.7</ele>
        <time>2013-08-05T20:05:36.000Z</time>
      </trkpt>
      <trkpt lat="48.85461" lon="2.28821">
        <ele>82.6</ele>
        <time>2013-08-05T20:05:37.000Z</time>
      </trkpt>
      <trkpt lat="48.85463" lon="2.28824">
        <ele>83.5</ele>
        <time>2013-08-05T20:05:38.000Z</time>
      </trkpt>
      <trkpt lat="48.85465" lon="2.28826">
        <ele>83.4</ele>
        <time>2013-08-05T20:05:39.000Z</time>
      </trkpt>
      <trkpt lat="48.85467" lon="2.28827">
        <ele>82.5</ele>
        <time>2013-08-05T20:05:40.000Z</time>
      </trkpt>
      <trkpt lat="48.85471" lon="2.28831">
        <ele>82.2</ele>
        <time>2013-08-05T20:05:43.000Z</time>
      </trkpt>
      <trkpt lat="48.85472" lon="2.28832">
        <ele>82</ele>
        <time>2013-08-05T20:05:44.000Z</time>
      </trkpt>
      <trkpt lat="48.85474" lon="2.28835">
        <ele>82.7</ele>
        <time>2013-08-05T20:06:56.000Z</time>
      </trkpt>
      <trkpt lat="48.85474" lon="2.28837">
        <ele>83</ele>
        <time>2013-08-05T20:06:57.000Z</time>
      </trkpt>
      <trkpt lat="48.85476" lon="2.28841">
        <ele>85.9</ele>
        <time>2013-08-05T20:06:59.000Z</time>
      </trkpt>
      <trkpt lat="48.85477" lon="2.28843">
        <ele>87.7</ele>
        <time>2013-08-05T20:07:00.000Z</time>
      </trkpt>
      <trkpt lat="48.8548" lon="2.28847">
        <ele>87</ele>
        <time>2013-08-05T20:07:02.000Z</time>
      </trkpt>
      <trkpt lat="48.85481" lon="2.28848">
        <ele>87</ele>
        <time>2013-08-05T20:07:03.000Z</time>
      </trkpt>
      <trkpt lat="48.85484" lon="2.28853">
        <ele>89.3</ele>
        <time>2013-08-05T20:07:11.000Z</time>
      </trkpt>
      <trkpt lat="48.85484" lon="2.28853">
        <ele>89.3</ele>
        <time>2013-08-05T20:07:12.000Z</time>
      </trkpt>
      <trkpt lat="48.85488" lon="2.28852">
        <ele>89.8</ele>
        <time>2013-08-05T20:08:17.000Z</time>
      </trkpt>
      <trkpt lat="48.85489" lon="2.28852">
        <ele>89.6</ele>
        <time>2013-08-05T20:08:18.000Z</time>
      </trkpt>
      <trkpt lat="48.85493" lon="2.28854">
        <ele>90.1</ele>
        <time>2013-08-05T20:08:31.000Z</time>
      </trkpt>
      <trkpt lat="48.85493" lon="2.28855">
        <ele>90.4</ele>
        <time>2013-08-05T20:08:32.000Z</time>
      </trkpt>
      <trkpt lat="48.85495" lon="2.28856">
        <ele>88.8</ele>
        <time>2013-08-05T20:08:34.000Z</time>
      </trkpt>
      <trkpt lat="48.85498" lon="2.28858">
        <ele>88.9</ele>
        <time>2013-08-05T20:08:35.000Z</time>
      </trkpt>
      <trkpt lat="48.855" lon="2.28859">
        <ele>90.2</ele>
        <time>2013-08-05T20:08:36.000Z</time>
      </trkpt>
      <trkpt lat="48.85502" lon="2.28861">
        <ele>89.6</ele>
        <time>2013-08-05T20:08:37.000Z</time>
      </trkpt>
      <trkpt lat="48.85505" lon="2.28863">
        <ele>87.8</ele>
        <time>2013-08-05T20:08:38.000Z</time>
      </trkpt>
      <trkpt lat="48.85507" lon="2.28865">
        <ele>87.4</ele>
        <time>2013-08-05T20:08:39.000Z</time>
      </trkpt>
      <trkpt lat="48.8551" lon="2.28868">
        <ele>86.8</ele>
        <time>2013-08-05T20:08:40.000Z</time>
      </trkpt>
      <trkpt lat="48.85513" lon="2.28871">
        <ele>86.3</ele>
        <time>2013-08-05T20:08:41.000Z</time>
      </trkpt>
      <trkpt lat="48.85516" lon="2.28874">
        <ele>87.3</ele>
        <time>2013-08-05T20:08:42.000Z</time>
      </trkpt>
      <trkpt lat="48.8552" lon="2.28876">
        <ele>88</ele>
        <time>2013-08-05T20:08:43.000Z</time>
      </trkpt>
      <trkpt lat="48.85524" lon="2.28877">
        <ele>87.5</ele>
        <time>2013-08-05T20:08:44.000Z</time>
      </trkpt>
      <trkpt lat="48.85527" lon="2.28878">
        <ele>86.5</ele>
        <time>2013-08-05T20:08:45.000Z</time>
      </trkpt>
      <trkpt lat="48.8553" lon="2.2888">
        <ele>86</ele>
        <time>2013-08-05T20:08:46.000Z</time>
      </trkpt>
      <trkpt lat="48.85532" lon="2.28882">
        <ele>84.2</ele>
        <time>2013-08-05T20:08:47.000Z</time>
      </trkpt>
      <trkpt lat="48.85535" lon="2.28883">
        <ele>83.6</ele>
        <time>2013-08-05T20:08:48.000Z</time>
      </trkpt>
      <trkpt lat="48.85537" lon="2.28885">
        <ele>82.5</ele>
        <time>2013-08-05T20:08:49.000Z</time>
      </trkpt>
      <trkpt lat="48.8554" lon="2.28887">
        <ele>81.8</ele>
        <time>2013-08-05T20:08:50.000Z</time>
      </trkpt>
      <trkpt lat="48.85543" lon="2.28889">
        <ele>81.2</ele>
        <time>2013-08-05T20:08:51.000Z</time>
      </trkpt>
      <trkpt lat="48.85547" lon="2.28892">
        <ele>80.7</ele>
        <time>2013-08-05T20:08:52.634Z</time>
      </trkpt>
      <trkpt lat="48.85551" lon="2.28895">
        <ele>80.6</ele>
        <time>2013-08-05T20:08:54.000Z</time>
      </trkpt>
      <trkpt lat="48.85554" lon="2.28896">
        <ele>80.3</ele>
        <time>2013-08-05T20:08:55.000Z</time>
      </trkpt>
      <trkpt lat="48.85558" lon="2.28898">
        <ele>79.8</ele>
        <time>2013-08-05T20:08:56.000Z</time>
      </trkpt>
      <trkpt lat="48.85562" lon="2.28899">
        <ele>81.3</ele>
        <time>2013-08-05T20:08:57.000Z</time>
      </trkpt>
      <trkpt lat="48.85566" lon="2.289">
        <ele>81.3</ele>
        <time>2013-08-05T20:08:58.000Z</time>
      </trkpt>
      <trkpt lat="48.85569" lon="2.28902">
        <ele>81.5</ele>
        <time>2013-08-05T20:08:59.000Z</time>
      </trkpt>
      <trkpt lat="48.85573" lon="2.28904">
        <ele>83.9</ele>
        <time>2013-08-05T20:09:00.000Z</time>
      </trkpt>
      <trkpt lat="48.85577" lon="2.28906">
        <ele>83.4</ele>
        <time>2013-08-05T20:09:01.000Z</time>
      </trkpt>
      <trkpt lat="48.85581" lon="2.28908">
        <ele>81.7</ele>
        <time>2013-08-05T20:09:02.000Z</time>
      </trkpt>
      <trkpt lat="48.85584" lon="2.2891">
        <ele>81.1</ele>
        <time>2013-08-05T20:09:03.000Z</time>
      </trkpt>
      <trkpt lat="48.85588" lon="2.28912">
        <ele>80.9</ele>
        <time>2013-08-05T20:09:04.000Z</time>
      </trkpt>
      <trkpt lat="48.85591" lon="2.28914">
        <ele>80.8</ele>
        <time>2013-08-05T20:09:05.000Z</time>
      </trkpt>
      <trkpt lat="48.85594" lon="2.28916">
        <ele>79</ele>
        <time>2013-08-05T20:09:06.000Z</time>
      </trkpt>
      <trkpt lat="48.85598" lon="2.28917">
        <ele>76.9</ele>
        <time>2013-08-05T20:09:07.000Z</time>
      </trkpt>
      <trkpt lat="48.85601" lon="2.28919">
        <ele>75.6</ele>
        <time>2013-08-05T20:09:08.000Z</time>
      </trkpt>
      <trkpt lat="48.85604" lon="2.28921">
        <ele>74.9</ele>
        <time>2013-08-05T20:09:09.000Z</time>
      </trkpt>
      <trkpt lat="48.85607" lon="2.28923">
        <ele>74.1</ele>
        <time>2013-08-05T20:09:10.000Z</time>
      </trkpt>
      <trkpt lat="48.8561" lon="2.28925">
        <ele>73.7</ele>
        <time>2013-08-05T20:09:11.000Z</time>
      </trkpt>
      <trkpt lat="48.85613" lon="2.28928">
        <ele>74.4</ele>
        <time>2013-08-05T20:09:12.000Z</time>
      </trkpt>
      <trkpt lat="48.85616" lon="2.2893">
        <ele>75.3</ele>
        <time>2013-08-05T20:09:13.000Z</time>
      </trkpt>
      <trkpt lat="48.85619" lon="2.28931">
        <ele>76.1</ele>
        <time>2013-08-05T20:09:14.000Z</time>
      </trkpt>
      <trkpt lat="48.85622" lon="2.2893">
        <ele>78.6</ele>
        <time>2013-08-05T20:09:15.000Z</time>
      </trkpt>
      <trkpt lat="48.85625" lon="2.28928">
        <ele>80.2</ele>
        <time>2013-08-05T20:09:16.000Z</time>
      </trkpt>
      <trkpt lat="48.85629" lon="2.28927">
        <ele>79.8</ele>
        <time>2013-08-05T20:09:17.000Z</time>
      </trkpt>
      <trkpt lat="48.85632" lon="2.28926">
        <ele>79.7</ele>
        <time>2013-08-05T20:09:18.000Z</time>
      </trkpt>
      <trkpt lat="48.85635" lon="2.28926">
        <ele>80</ele>
        <time>2013-08-05T20:09:19.000Z</time>
      </trkpt>
      <trkpt lat="48.85638" lon="2.28926">
        <ele>79.4</ele>
        <time>2013-08-05T20:09:20.000Z</time>
      </trkpt>
      <trkpt lat="48.85641" lon="2.28927">
        <ele>79.8</ele>
        <time>2013-08-05T20:09:21.000Z</time>
      </trkpt>
      <trkpt lat="48.85644" lon="2.28928">
        <ele>79.8</ele>
        <time>2013-08-05T20:09:22.000Z</time>
      </trkpt>
      <trkpt lat="48.85647" lon="2.28928">
        <ele>80.1</ele>
        <time>2013-08-05T20:09:23.000Z</time>
      </trkpt>
      <trkpt lat="48.85649" lon="2.2893">
        <ele>80.2</ele>
        <time>2013-08-05T20:09:24.000Z</time>
      </trkpt>
      <trkpt lat="48.85652" lon="2.28931">
        <ele>80.7</ele>
        <time>2013-08-05T20:09:25.000Z</time>
      </trkpt>
      <trkpt lat="48.85654" lon="2.28932">
        <ele>80.6</ele>
        <time>2013-08-05T20:09:26.000Z</time>
      </trkpt>
      <trkpt lat="48.85656" lon="2.28933">
        <ele>80.6</ele>
        <time>2013-08-05T20:09:27.000Z</time>
      </trkpt>
      <trkpt lat="48.85658" lon="2.28934">
        <ele>80.6</ele>
        <time>2013-08-05T20:09:28.000Z</time>
      </trkpt>
      <trkpt lat="48.85661" lon="2.28935">
        <ele>80.3</ele>
        <time>2013-08-05T20:09:29.000Z</time>
      </trkpt>
      <trkpt lat="48.85663" lon="2.28936">
        <ele>80.5</ele>
        <time>2013-08-05T20:09:30.000Z</time>
      </trkpt>
      <trkpt lat="48.85665" lon="2.28937">
        <ele>80.6</ele>
        <time>2013-08-05T20:09:31.000Z</time>
      </trkpt>
      <trkpt lat="48.85668" lon="2.28939">
        <ele>80.3</ele>
        <time>2013-08-05T20:09:33.000Z</time>
      </trkpt>
      <trkpt lat="48.8567" lon="2.2894">
        <ele>80.6</ele>
        <time>2013-08-05T20:09:34.000Z</time>
      </trkpt>
      <trkpt lat="48.85674" lon="2.28942">
        <ele>81.1</ele>
        <time>2013-08-05T20:09:36.000Z</time>
      </trkpt>
      <trkpt lat="48.85676" lon="2.28942">
        <ele>81.1</ele>
        <time>2013-08-05T20:09:37.000Z</time>
      </trkpt>
      <trkpt lat="48.85679" lon="2.28943">
        <ele>81.2</ele>
        <time>2013-08-05T20:09:38.000Z</time>
      </trkpt>
      <trkpt lat="48.85681" lon="2.28944">
        <ele>81.2</ele>
        <time>2013-08-05T20:09:39.000Z</time>
      </trkpt>
      <trkpt lat="48.85683" lon="2.28945">
        <ele>80.8</ele>
        <time>2013-08-05T20:09:40.000Z</time>
      </trkpt>
      <trkpt lat="48.85685" lon="2.28946">
        <ele>79.9</ele>
        <time>2013-08-05T20:09:41.000Z</time>
      </trkpt>
      <trkpt lat="48.85687" lon="2.28948">
        <ele>79.3</ele>
        <time>2013-08-05T20:09:42.000Z</time>
      </trkpt>
      <trkpt lat="48.85689" lon="2.2895">
        <ele>79.1</ele>
        <time>2013-08-05T20:09:43.000Z</time>
      </trkpt>
      <trkpt lat="48.85693" lon="2.28953">
        <ele>79.1</ele>
        <time>2013-08-05T20:09:45.000Z</time>
      </trkpt>
      <trkpt lat="48.85695" lon="2.28954">
        <ele>79</ele>
        <time>2013-08-05T20:09:46.000Z</time>
      </trkpt>
      <trkpt lat="48.85697" lon="2.28956">
        <ele>78.9</ele>
        <time>2013-08-05T20:09:47.000Z</time>
      </trkpt>
      <trkpt lat="48.85699" lon="2.28957">
        <ele>78.7</ele>
        <time>2013-08-05T20:09:48.000Z</time>
      </trkpt>
      <trkpt lat="48.85702" lon="2.28959">
        <ele>78.7</ele>
        <time>2013-08-05T20:09:49.000Z</time>
      </trkpt>
      <trkpt lat="48.85704" lon="2.2896">
        <ele>79.9</ele>
        <time>2013-08-05T20:09:50.000Z</time>
      </trkpt>
      <trkpt lat="48.85706" lon="2.28961">
        <ele>80</ele>
        <time>2013-08-05T20:09:51.000Z</time>
      </trkpt>
      <trkpt lat="48.8571" lon="2.28963">
        <ele>80.1</ele>
        <time>2013-08-05T20:09:52.760Z</time>
      </trkpt>
      <trkpt lat="48.85712" lon="2.28964">
        <ele>79.8</ele>
        <time>2013-08-05T20:09:54.000Z</time>
      </trkpt>
      <trkpt lat="48.85714" lon="2.28965">
        <ele>79.8</ele>
        <time>2013-08-05T20:09:55.000Z</time>
      </trkpt>
      <trkpt lat="48.85717" lon="2.28967">
        <ele>80.9</ele>
        <time>2013-08-05T20:09:57.000Z</time>
      </trkpt>
      <trkpt lat="48.85719" lon="2.28968">
        <ele>81.2</ele>
        <time>2013-08-05T20:09:58.000Z</time>
      </trkpt>
      <trkpt lat="48.85721" lon="2.28972">
        <ele>81.2</ele>
        <time>2013-08-05T20:10:00.000Z</time>
      </trkpt>
      <trkpt lat="48.85722" lon="2.28974">
        <ele>81.2</ele>
        <time>2013-08-05T20:10:01.000Z</time>
      </trkpt>
      <trkpt lat="48.85726" lon="2.28978">
        <ele>81.2</ele>
        <time>2013-08-05T20:10:05.000Z</time>
      </trkpt>
      <trkpt lat="48.85727" lon="2.28978">
        <ele>81.7</ele>
        <time>2013-08-05T20:10:06.000Z</time>
      </trkpt>
      <trkpt lat="48.85729" lon="2.28982">
        <ele>79.3</ele>
        <time>2013-08-05T20:10:10.000Z</time>
      </trkpt>
      <trkpt lat="48.8573" lon="2.28983">
        <ele>79.5</ele>
        <time>2013-08-05T20:10:11.000Z</time>
      </trkpt>
      <trkpt lat="48.85733" lon="2.28988">
        <ele>80.4</ele>
        <time>2013-08-05T20:10:22.000Z</time>
      </trkpt>
      <trkpt lat="48.85735" lon="2.28989">
        <ele>82.1</ele>
        <time>2013-08-05T20:10:23.000Z</time>
      </trkpt>
      <trkpt lat="48.85737" lon="2.28991">
        <ele>81.9</ele>
        <time>2013-08-05T20:10:24.000Z</time>
      </trkpt>
      <trkpt lat="48.85739" lon="2.28993">
        <ele>81.2</ele>
        <time>2013-08-05T20:10:25.000Z</time>
      </trkpt>
      <trkpt lat="48.85742" lon="2.28995">
        <ele>81.9</ele>
        <time>2013-08-05T20:10:26.000Z</time>
      </trkpt>
      <trkpt lat="48.85744" lon="2.28997">
        <ele>82.9</ele>
        <time>2013-08-05T20:10:27.000Z</time>
      </trkpt>
      <trkpt lat="48.85747" lon="2.28999">
        <ele>82.4</ele>
        <time>2013-08-05T20:10:28.000Z</time>
      </trkpt>
      <trkpt lat="48.8575" lon="2.29001">
        <ele>82.5</ele>
        <time>2013-08-05T20:10:29.000Z</time>
      </trkpt>
      <trkpt lat="48.85753" lon="2.29003">
        <ele>82.7</ele>
        <time>2013-08-05T20:10:30.000Z</time>
      </trkpt>
      <trkpt lat="48.85756" lon="2.29006">
        <ele>82.9</ele>
        <time>2013-08-05T20:10:31.000Z</time>
      </trkpt>
      <trkpt lat="48.85759" lon="2.29008">
        <ele>82.7</ele>
        <time>2013-08-05T20:10:32.000Z</time>
      </trkpt>
      <trkpt lat="48.85763" lon="2.29012">
        <ele>83</ele>
        <time>2013-08-05T20:10:33.000Z</time>
      </trkpt>
      <trkpt lat="48.85766" lon="2.29015">
        <ele>82.6</ele>
        <time>2013-08-05T20:10:34.000Z</time>
      </trkpt>
      <trkpt lat="48.8577" lon="2.29019">
        <ele>82.9</ele>
        <time>2013-08-05T20:10:35.000Z</time>
      </trkpt>
      <trkpt lat="48.85773" lon="2.29022">
        <ele>83</ele>
        <time>2013-08-05T20:10:36.000Z</time>
      </trkpt>
      <trkpt lat="48.85777" lon="2.29027">
        <ele>80.4</ele>
        <time>2013-08-05T20:10:37.000Z</time>
      </trkpt>
      <trkpt lat="48.85781" lon="2.29032">
        <ele>80.2</ele>
        <time>2013-08-05T20:10:38.000Z</time>
      </trkpt>
      <trkpt lat="48.85785" lon="2.29036">
        <ele>80.3</ele>
        <time>2013-08-05T20:10:39.000Z</time>
      </trkpt>
      <trkpt lat="48.85788" lon="2.2904">
        <ele>80.3</ele>
        <time>2013-08-05T20:10:40.000Z</time>
      </trkpt>
      <trkpt lat="48.85792" lon="2.29044">
        <ele>80.3</ele>
        <time>2013-08-05T20:10:41.000Z</time>
      </trkpt>
      <trkpt lat="48.85796" lon="2.29049">
        <ele>80.4</ele>
        <time>2013-08-05T20:10:42.000Z</time>
      </trkpt>
      <trkpt lat="48.85799" lon="2.29053">
        <ele>80</ele>
        <time>2013-08-05T20:10:43.000Z</time>
      </trkpt>
      <trkpt lat="48.85803" lon="2.29057">
        <ele>79.1</ele>
        <time>2013-08-05T20:10:44.000Z</time>
      </trkpt>
      <trkpt lat="48.85806" lon="2.29063">
        <ele>79.2</ele>
        <time>2013-08-05T20:10:45.000Z</time>
      </trkpt>
      <trkpt lat="48.85811" lon="2.29068">
        <ele>77.1</ele>
        <time>2013-08-05T20:10:46.000Z</time>
      </trkpt>
      <trkpt lat="48.85815" lon="2.29073">
        <ele>77</ele>
        <time>2013-08-05T20:10:47.000Z</time>
      </trkpt>
      <trkpt lat="48.85818" lon="2.2908">
        <ele>76.2</ele>
        <time>2013-08-05T20:10:48.000Z</time>
      </trkpt>
      <trkpt lat="48.85821" lon="2.29086">
        <ele>76.7</ele>
        <time>2013-08-05T20:10:49.000Z</time>
      </trkpt>
      <trkpt lat="48.85824" lon="2.29091">
        <ele>77.1</ele>
        <time>2013-08-05T20:10:50.000Z</time>
      </trkpt>
      <trkpt lat="48.85828" lon="2.29094">
        <ele>76.8</ele>
        <time>2013-08-05T20:10:51.000Z</time>
      </trkpt>
      <trkpt lat="48.85833" lon="2.29101">
        <ele>76.8</ele>
        <time>2013-08-05T20:10:52.584Z</time>
      </trkpt>
      <trkpt lat="48.85838" lon="2.29107">
        <ele>76.9</ele>
        <time>2013-08-05T20:10:54.000Z</time>
      </trkpt>
      <trkpt lat="48.85843" lon="2.29111">
        <ele>77.4</ele>
        <time>2013-08-05T20:10:55.000Z</time>
      </trkpt>
      <trkpt lat="48.85845" lon="2.29116">
        <ele>77.4</ele>
        <time>2013-08-05T20:10:56.000Z</time>
      </trkpt>
      <trkpt lat="48.85849" lon="2.29123">
        <ele>76.6</ele>
        <time>2013-08-05T20:10:57.000Z</time>
      </trkpt>
      <trkpt lat="48.85851" lon="2.29127">
        <ele>75.8</ele>
        <time>2013-08-05T20:10:58.000Z</time>
      </trkpt>
      <trkpt lat="48.85854" lon="2.29131">
        <ele>75.4</ele>
        <time>2013-08-05T20:10:59.000Z</time>
      </trkpt>
      <trkpt lat="48.85857" lon="2.29136">
        <ele>75.3</ele>
        <time>2013-08-05T20:11:00.000Z</time>
      </trkpt>
      <trkpt lat="48.85861" lon="2.2914">
        <ele>75.4</ele>
        <time>2013-08-05T20:11:01.000Z</time>
      </trkpt>
      <trkpt lat="48.85863" lon="2.29143">
        <ele>75.1</ele>
        <time>2013-08-05T20:11:02.000Z</time>
      </trkpt>
      <trkpt lat="48.85865" lon="2.29145">
        <ele>75.4</ele>
        <time>2013-08-05T20:11:03.000Z</time>
      </trkpt>
      <trkpt lat="48.85868" lon="2.29148">
        <ele>75.4</ele>
        <time>2013-08-05T20:11:04.000Z</time>
      </trkpt>
      <trkpt lat="48.85871" lon="2.2915">
        <ele>76.5</ele>
        <time>2013-08-05T20:11:05.000Z</time>
      </trkpt>
      <trkpt lat="48.85873" lon="2.29153">
        <ele>76.1</ele>
        <time>2013-08-05T20:11:06.000Z</time>
      </trkpt>
      <trkpt lat="48.85875" lon="2.29155">
        <ele>76</ele>
        <time>2013-08-05T20:11:07.000Z</time>
      </trkpt>
      <trkpt lat="48.85877" lon="2.29157">
        <ele>76.6</ele>
        <time>2013-08-05T20:11:08.000Z</time>
      </trkpt>
      <trkpt lat="48.85879" lon="2.29158">
        <ele>77.8</ele>
        <time>2013-08-05T20:11:09.000Z</time>
      </trkpt>
      <trkpt lat="48.85884" lon="2.2916">
        <ele>77</ele>
        <time>2013-08-05T20:11:11.000Z</time>
      </trkpt>
      <trkpt lat="48.85885" lon="2.29162">
        <ele>77.6</ele>
        <time>2013-08-05T20:11:12.000Z</time>
      </trkpt>
      <trkpt lat="48.85888" lon="2.29167">
        <ele>77.7</ele>
        <time>2013-08-05T20:11:14.000Z</time>
      </trkpt>
      <trkpt lat="48.85889" lon="2.2917">
        <ele>77.4</ele>
        <time>2013-08-05T20:11:15.000Z</time>
      </trkpt>
      <trkpt lat="48.8589" lon="2.29173">
        <ele>77.9</ele>
        <time>2013-08-05T20:11:16.000Z</time>
      </trkpt>
      <trkpt lat="48.85891" lon="2.29176">
        <ele>76.7</ele>
        <time>2013-08-05T20:11:17.000Z</time>
      </trkpt>
      <trkpt lat="48.85892" lon="2.29179">
        <ele>75.9</ele>
        <time>2013-08-05T20:11:18.000Z</time>
      </trkpt>
      <trkpt lat="48.85894" lon="2.29183">
        <ele>76.1</ele>
        <time>2013-08-05T20:11:19.000Z</time>
      </trkpt>
      <trkpt lat="48.85895" lon="2.29186">
        <ele>76.1</ele>
        <time>2013-08-05T20:11:20.000Z</time>
      </trkpt>
      <trkpt lat="48.85895" lon="2.2919">
        <ele>75.4</ele>
        <time>2013-08-05T20:11:21.000Z</time>
      </trkpt>
      <trkpt lat="48.85893" lon="2.29194">
        <ele>75.7</ele>
        <time>2013-08-05T20:11:22.000Z</time>
      </trkpt>
      <trkpt lat="48.85892" lon="2.29197">
        <ele>76</ele>
        <time>2013-08-05T20:11:23.000Z</time>
      </trkpt>
      <trkpt lat="48.8589" lon="2.29202">
        <ele>74.8</ele>
        <time>2013-08-05T20:11:25.000Z</time>
      </trkpt>
      <trkpt lat="48.8589" lon="2.29204">
        <ele>74.6</ele>
        <time>2013-08-05T20:11:26.000Z</time>
      </trkpt>
      <trkpt lat="48.85892" lon="2.29207">
        <ele>74.6</ele>
        <time>2013-08-05T20:11:27.000Z</time>
      </trkpt>
      <trkpt lat="48.85894" lon="2.29209">
        <ele>74.1</ele>
        <time>2013-08-05T20:11:28.000Z</time>
      </trkpt>
      <trkpt lat="48.85897" lon="2.29211">
        <ele>74.3</ele>
        <time>2013-08-05T20:11:29.000Z</time>
      </trkpt>
      <trkpt lat="48.859" lon="2.29213">
        <ele>74.9</ele>
        <time>2013-08-05T20:11:30.000Z</time>
      </trkpt>
      <trkpt lat="48.85902" lon="2.29216">
        <ele>75.2</ele>
        <time>2013-08-05T20:11:31.000Z</time>
      </trkpt>
      <trkpt lat="48.85904" lon="2.29218">
        <ele>75.7</ele>
        <time>2013-08-05T20:11:32.000Z</time>
      </trkpt>
      <trkpt lat="48.85908" lon="2.29222">
        <ele>75.2</ele>
        <time>2013-08-05T20:11:34.000Z</time>
      </trkpt>
      <trkpt lat="48.85909" lon="2.29224">
        <ele>75.3</ele>
        <time>2013-08-05T20:11:35.000Z</time>
      </trkpt>
      <trkpt lat="48.85913" lon="2.29228">
        <ele>76.5</ele>
        <time>2013-08-05T20:11:47.000Z</time>
      </trkpt>
      <trkpt lat="48.85914" lon="2.2923">
        <ele>76</ele>
        <time>2013-08-05T20:11:48.000Z</time>
      </trkpt>
      <trkpt lat="48.85916" lon="2.29233">
        <ele>75.7</ele>
        <time>2013-08-05T20:11:49.000Z</time>
      </trkpt>
      <trkpt lat="48.85918" lon="2.29235">
        <ele>75.7</ele>
        <time>2013-08-05T20:11:50.000Z</time>
      </trkpt>
      <trkpt lat="48.8592" lon="2.29238">
        <ele>76.1</ele>
        <time>2013-08-05T20:11:51.000Z</time>
      </trkpt>
      <trkpt lat="48.85923" lon="2.29242">
        <ele>76.3</ele>
        <time>2013-08-05T20:11:52.771Z</time>
      </trkpt>
      <trkpt lat="48.85925" lon="2.29245">
        <ele>76</ele>
        <time>2013-08-05T20:11:54.000Z</time>
      </trkpt>
      <trkpt lat="48.85927" lon="2.29248">
        <ele>76.5</ele>
        <time>2013-08-05T20:11:55.000Z</time>
      </trkpt>
      <trkpt lat="48.85929" lon="2.2925">
        <ele>77.5</ele>
        <time>2013-08-05T20:11:56.000Z</time>
      </trkpt>
      <trkpt lat="48.85931" lon="2.29252">
        <ele>78.2</ele>
        <time>2013-08-05T20:11:57.000Z</time>
      </trkpt>
      <trkpt lat="48.85933" lon="2.29254">
        <ele>78.5</ele>
        <time>2013-08-05T20:11:58.000Z</time>
      </trkpt>
      <trkpt lat="48.85934" lon="2.29256">
        <ele>79.4</ele>
        <time>2013-08-05T20:11:59.000Z</time>
      </trkpt>
      <trkpt lat="48.85936" lon="2.29258">
        <ele>79.9</ele>
        <time>2013-08-05T20:12:00.000Z</time>
      </trkpt>
      <trkpt lat="48.85938" lon="2.2926">
        <ele>79.8</ele>
        <time>2013-08-05T20:12:01.000Z</time>
      </trkpt>
      <trkpt lat="48.8594" lon="2.29262">
        <ele>80</ele>
        <time>2013-08-05T20:12:02.000Z</time>
      </trkpt>
      <trkpt lat="48.85942" lon="2.29265">
        <ele>80.4</ele>
        <time>2013-08-05T20:12:03.000Z</time>
      </trkpt>
      <trkpt lat="48.85944" lon="2.29269">
        <ele>79.9</ele>
        <time>2013-08-05T20:12:04.000Z</time>
      </trkpt>
      <trkpt lat="48.85946" lon="2.29273">
        <ele>79.8</ele>
        <time>2013-08-05T20:12:05.000Z</time>
      </trkpt>
      <trkpt lat="48.85948" lon="2.29277">
        <ele>78.4</ele>
        <time>2013-08-05T20:12:06.000Z</time>
      </trkpt>
      <trkpt lat="48.8595" lon="2.29281">
        <ele>77.3</ele>
        <time>2013-08-05T20:12:07.000Z</time>
      </trkpt>
      <trkpt lat="48.85952" lon="2.29285">
        <ele>78.5</ele>
        <time>2013-08-05T20:12:08.000Z</time>
      </trkpt>
      <trkpt lat="48.85955" lon="2.29289">
        <ele>78.9</ele>
        <time>2013-08-05T20:12:09.000Z</time>
      </trkpt>
      <trkpt lat="48.85957" lon="2.29293">
        <ele>79.7</ele>
        <time>2013-08-05T20:12:10.000Z</time>
      </trkpt>
      <trkpt lat="48.8596" lon="2.29297">
        <ele>78.9</ele>
        <time>2013-08-05T20:12:11.000Z</time>
      </trkpt>
      <trkpt lat="48.85962" lon="2.293">
        <ele>79</ele>
        <time>2013-08-05T20:12:12.000Z</time>
      </trkpt>
      <trkpt lat="48.85964" lon="2.29304">
        <ele>78.7</ele>
        <time>2013-08-05T20:12:13.000Z</time>
      </trkpt>
      <trkpt lat="48.85966" lon="2.29307">
        <ele>77.9</ele>
        <time>2013-08-05T20:12:14.000Z</time>
      </trkpt>
      <trkpt lat="48.85969" lon="2.2931">
        <ele>76.8</ele>
        <time>2013-08-05T20:12:15.000Z</time>
      </trkpt>
      <trkpt lat="48.85971" lon="2.29313">
        <ele>75.7</ele>
        <time>2013-08-05T20:12:16.000Z</time>
      </trkpt>
      <trkpt lat="48.85973" lon="2.29316">
        <ele>76</ele>
        <time>2013-08-05T20:12:17.000Z</time>
      </trkpt>
      <trkpt lat="48.85975" lon="2.29319">
        <ele>75.9</ele>
        <time>2013-08-05T20:12:18.000Z</time>
      </trkpt>
      <trkpt lat="48.85977" lon="2.29322">
        <ele>75.9</ele>
        <time>2013-08-05T20:12:19.000Z</time>
      </trkpt>
      <trkpt lat="48.85979" lon="2.29325">
        <ele>75.8</ele>
        <time>2013-08-05T20:12:20.000Z</time>
      </trkpt>
      <trkpt lat="48.85981" lon="2.29328">
        <ele>75.6</ele>
        <time>2013-08-05T20:12:21.000Z</time>
      </trkpt>
      <trkpt lat="48.85983" lon="2.29331">
        <ele>75.4</ele>
        <time>2013-08-05T20:12:22.000Z</time>
      </trkpt>
      <trkpt lat="48.85985" lon="2.29334">
        <ele>75.2</ele>
        <time>2013-08-05T20:12:23.000Z</time>
      </trkpt>
      <trkpt lat="48.85987" lon="2.29337">
        <ele>75.3</ele>
        <time>2013-08-05T20:12:24.000Z</time>
      </trkpt>
      <trkpt lat="48.85988" lon="2.2934">
        <ele>75</ele>
        <time>2013-08-05T20:12:25.000Z</time>
      </trkpt>
      <trkpt lat="48.85989" lon="2.29345">
        <ele>75.4</ele>
        <time>2013-08-05T20:12:27.000Z</time>
      </trkpt>
      <trkpt lat="48.8599" lon="2.29347">
        <ele>74.9</ele>
        <time>2013-08-05T20:12:28.000Z</time>
      </trkpt>
      <trkpt lat="48.85993" lon="2.29349">
        <ele>75.2</ele>
        <time>2013-08-05T20:12:31.000Z</time>
      </trkpt>
      <trkpt lat="48.85995" lon="2.29348">
        <ele>74.9</ele>
        <time>2013-08-05T20:12:32.000Z</time>
      </trkpt>
      <trkpt lat="48.85997" lon="2.29345">
        <ele>75.5</ele>
        <time>2013-08-05T20:12:34.000Z</time>
      </trkpt>
      <trkpt lat="48.85998" lon="2.29343">
        <ele>76.2</ele>
        <time>2013-08-05T20:12:35.000Z</time>
      </trkpt>
      <trkpt lat="48.86001" lon="2.2934">
        <ele>77.5</ele>
        <time>2013-08-05T20:12:37.000Z</time>
      </trkpt>
      <trkpt lat="48.86002" lon="2.29339">
        <ele>77.9</ele>
        <time>2013-08-05T20:12:38.000Z</time>
      </trkpt>
      <trkpt lat="48.86006" lon="2.29338">
        <ele>77.4</ele>
        <time>2013-08-05T20:12:40.000Z</time>
      </trkpt>
      <trkpt lat="48.86008" lon="2.29338">
        <ele>76.1</ele>
        <time>2013-08-05T20:12:41.000Z</time>
      </trkpt>
      <trkpt lat="48.86011" lon="2.29342">
        <ele>76.1</ele>
        <time>2013-08-05T20:12:43.000Z</time>
      </trkpt>
      <trkpt lat="48.86013" lon="2.29344">
        <ele>75.3</ele>
        <time>2013-08-05T20:12:44.000Z</time>
      </trkpt>
      <trkpt lat="48.86016" lon="2.29347">
        <ele>76.5</ele>
        <time>2013-08-05T20:12:47.000Z</time>
      </trkpt>
      <trkpt lat="48.86016" lon="2.29349">
        <ele>76.7</ele>
        <time>2013-08-05T20:12:48.000Z</time>
      </trkpt>
      <trkpt lat="48.86018" lon="2.29354">
        <ele>77.3</ele>
        <time>2013-08-05T20:12:51.000Z</time>
      </trkpt>
      <trkpt lat="48.8602" lon="2.29356">
        <ele>77.5</ele>
        <time>2013-08-05T20:12:52.558Z</time>
      </trkpt>
      <trkpt lat="48.86023" lon="2.29359">
        <ele>77.5</ele>
        <time>2013-08-05T20:12:55.000Z</time>
      </trkpt>
      <trkpt lat="48.86025" lon="2.29361">
        <ele>78.2</ele>
        <time>2013-08-05T20:12:56.000Z</time>
      </trkpt>
      <trkpt lat="48.86027" lon="2.29364">
        <ele>79.3</ele>
        <time>2013-08-05T20:12:58.000Z</time>
      </trkpt>
      <trkpt lat="48.86028" lon="2.29366">
        <ele>79.5</ele>
        <time>2013-08-05T20:12:59.000Z</time>
      </trkpt>
      <trkpt lat="48.8603" lon="2.29369">
        <ele>79.9</ele>
        <time>2013-08-05T20:13:01.000Z</time>
      </trkpt>
      <trkpt lat="48.86031" lon="2.29371">
        <ele>80.2</ele>
        <time>2013-08-05T20:13:02.000Z</time>
      </trkpt>
      <trkpt lat="48.86035" lon="2.29374">
        <ele>82.1</ele>
        <time>2013-08-05T20:13:05.000Z</time>
      </trkpt>
      <trkpt lat="48.86036" lon="2.29375">
        <ele>81</ele>
        <time>2013-08-05T20:13:06.000Z</time>
      </trkpt>
      <trkpt lat="48.86038" lon="2.2938">
        <ele>82.1</ele>
        <time>2013-08-05T20:13:09.000Z</time>
      </trkpt>
      <trkpt lat="48.86039" lon="2.29382">
        <ele>81.9</ele>
        <time>2013-08-05T20:13:10.000Z</time>
      </trkpt>
      <trkpt lat="48.86041" lon="2.29388">
        <ele>81</ele>
        <time>2013-08-05T20:13:12.000Z</time>
      </trkpt>
      <trkpt lat="48.86042" lon="2.29392">
        <ele>80.9</ele>
        <time>2013-08-05T20:13:13.000Z</time>
      </trkpt>
      <trkpt lat="48.86044" lon="2.29395">
        <ele>80.5</ele>
        <time>2013-08-05T20:13:14.000Z</time>
      </trkpt>
      <trkpt lat="48.86045" lon="2.29399">
        <ele>80</ele>
        <time>2013-08-05T20:13:15.000Z</time>
      </trkpt>
      <trkpt lat="48.86047" lon="2.29402">
        <ele>79.7</ele>
        <time>2013-08-05T20:13:16.000Z</time>
      </trkpt>
      <trkpt lat="48.86049" lon="2.29406">
        <ele>79.1</ele>
        <time>2013-08-05T20:13:17.000Z</time>
      </trkpt>
      <trkpt lat="48.86051" lon="2.29409">
        <ele>79.4</ele>
        <time>2013-08-05T20:13:18.000Z</time>
      </trkpt>
      <trkpt lat="48.86053" lon="2.29413">
        <ele>79.5</ele>
        <time>2013-08-05T20:13:19.000Z</time>
      </trkpt>
      <trkpt lat="48.86055" lon="2.29417">
        <ele>78.3</ele>
        <time>2013-08-05T20:13:20.000Z</time>
      </trkpt>
      <trkpt lat="48.86057" lon="2.2942">
        <ele>79.5</ele>
        <time>2013-08-05T20:13:21.000Z</time>
      </trkpt>
      <trkpt lat="48.86059" lon="2.29423">
        <ele>79.1</ele>
        <time>2013-08-05T20:13:22.000Z</time>
      </trkpt>
      <trkpt lat="48.86062" lon="2.29426">
        <ele>79</ele>
        <time>2013-08-05T20:13:23.000Z</time>
      </trkpt>
      <trkpt lat="48.86064" lon="2.29428">
        <ele>79.2</ele>
        <time>2013-08-05T20:13:24.000Z</time>
      </trkpt>
      <trkpt lat="48.86067" lon="2.2943">
        <ele>80.4</ele>
        <time>2013-08-05T20:13:25.000Z</time>
      </trkpt>
      <trkpt lat="48.86069" lon="2.29433">
        <ele>81</ele>
        <time>2013-08-05T20:13:26.000Z</time>
      </trkpt>
      <trkpt lat="48.86072" lon="2.29435">
        <ele>81.2</ele>
        <time>2013-08-05T20:13:27.000Z</time>
      </trkpt>
      <trkpt lat="48.86075" lon="2.29438">
        <ele>81.4</ele>
        <time>2013-08-05T20:13:28.000Z</time>
      </trkpt>
      <trkpt lat="48.86078" lon="2.29441">
        <ele>80.7</ele>
        <time>2013-08-05T20:13:29.000Z</time>
      </trkpt>
      <trkpt lat="48.86081" lon="2.29445">
        <ele>80.8</ele>
        <time>2013-08-05T20:13:30.000Z</time>
      </trkpt>
      <trkpt lat="48.86084" lon="2.29448">
        <ele>81.6</ele>
        <time>2013-08-05T20:13:31.000Z</time>
      </trkpt>
      <trkpt lat="48.86086" lon="2.29452">
        <ele>82.1</ele>
        <time>2013-08-05T20:13:32.000Z</time>
      </trkpt>
      <trkpt lat="48.86089" lon="2.29456">
        <ele>82</ele>
        <time>2013-08-05T20:13:33.000Z</time>
      </trkpt>
      <trkpt lat="48.86092" lon="2.2946">
        <ele>82</ele>
        <time>2013-08-05T20:13:34.000Z</time>
      </trkpt>
      <trkpt lat="48.86095" lon="2.29463">
        <ele>81.8</ele>
        <time>2013-08-05T20:13:35.000Z</time>
      </trkpt>
      <trkpt lat="48.86098" lon="2.29467">
        <ele>82.2</ele>
        <time>2013-08-05T20:13:36.000Z</time>
      </trkpt>
      <trkpt lat="48.861" lon="2.2947">
        <ele>81.2</ele>
        <time>2013-08-05T20:13:37.000Z</time>
      </trkpt>
      <trkpt lat="48.86103" lon="2.29473">
        <ele>81.9</ele>
        <time>2013-08-05T20:13:38.000Z</time>
      </trkpt>
      <trkpt lat="48.86106" lon="2.29477">
        <ele>82.2</ele>
        <time>2013-08-05T20:13:39.000Z</time>
      </trkpt>
      <trkpt lat="48.86109" lon="2.2948">
        <ele>82.2</ele>
        <time>2013-08-05T20:13:40.000Z</time>
      </trkpt>
      <trkpt lat="48.86112" lon="2.29485">
        <ele>82.1</ele>
        <time>2013-08-05T20:13:41.000Z</time>
      </trkpt>
      <trkpt lat="48.86114" lon="2.29489">
        <ele>81.7</ele>
        <time>2013-08-05T20:13:42.000Z</time>
      </trkpt>
      <trkpt lat="48.86117" lon="2.29493">
        <ele>82</ele>
        <time>2013-08-05T20:13:43.000Z</time>
      </trkpt>
      <trkpt lat="48.86119" lon="2.29498">
        <ele>81.8</ele>
        <time>2013-08-05T20:13:44.000Z</time>
      </trkpt>
      <trkpt lat="48.86122" lon="2.29504">
        <ele>80.9</ele>
        <time>2013-08-05T20:13:45.000Z</time>
      </trkpt>
      <trkpt lat="48.86124" lon="2.2951">
        <ele>80.9</ele>
        <time>2013-08-05T20:13:46.000Z</time>
      </trkpt>
      <trkpt lat="48.86127" lon="2.29515">
        <ele>80.4</ele>
        <time>2013-08-05T20:13:47.000Z</time>
      </trkpt>
      <trkpt lat="48.86129" lon="2.29521">
        <ele>80.7</ele>
        <time>2013-08-05T20:13:48.000Z</time>
      </trkpt>
      <trkpt lat="48.8613" lon="2.29527">
        <ele>80.9</ele>
        <time>2013-08-05T20:13:49.000Z</time>
      </trkpt>
      <trkpt lat="48.86132" lon="2.29532">
        <ele>81</ele>
        <time>2013-08-05T20:13:50.000Z</time>
      </trkpt>
      <trkpt lat="48.86133" lon="2.29537">
        <ele>80</ele>
        <time>2013-08-05T20:13:51.000Z</time>
      </trkpt>
      <trkpt lat="48.86136" lon="2.29544">
        <ele>80</ele>
        <time>2013-08-05T20:13:52.534Z</time>
      </trkpt>
      <trkpt lat="48.8614" lon="2.29551">
        <ele>79.4</ele>
        <time>2013-08-05T20:13:54.000Z</time>
      </trkpt>
      <trkpt lat="48.86142" lon="2.29555">
        <ele>78.7</ele>
        <time>2013-08-05T20:13:55.000Z</time>
      </trkpt>
      <trkpt lat="48.86145" lon="2.29559">
        <ele>79</ele>
        <time>2013-08-05T20:13:56.000Z</time>
      </trkpt>
      <trkpt lat="48.86148" lon="2.29564">
        <ele>80.4</ele>
        <time>2013-08-05T20:13:57.000Z</time>
      </trkpt>
      <trkpt lat="48.86151" lon="2.29569">
        <ele>80.5</ele>
        <time>2013-08-05T20:13:58.000Z</time>
      </trkpt>
      <trkpt lat="48.86154" lon="2.29574">
        <ele>80.6</ele>
        <time>2013-08-05T20:13:59.000Z</time>
      </trkpt>
      <trkpt lat="48.86156" lon="2.29579">
        <ele>80.2</ele>
        <time>2013-08-05T20:14:00.000Z</time>
      </trkpt>
      <trkpt lat="48.86159" lon="2.29584">
        <ele>80.2</ele>
        <time>2013-08-05T20:14:01.000Z</time>
      </trkpt>
      <trkpt lat="48.86162" lon="2.29588">
        <ele>80.6</ele>
        <time>2013-08-05T20:14:02.000Z</time>
      </trkpt>
      <trkpt lat="48.86165" lon="2.29594">
        <ele>78.5</ele>
        <time>2013-08-05T20:14:03.000Z</time>
      </trkpt>
      <trkpt lat="48.86168" lon="2.296">
        <ele>78.3</ele>
        <time>2013-08-05T20:14:04.000Z</time>
      </trkpt>
      <trkpt lat="48.8617" lon="2.29605">
        <ele>78.3</ele>
        <time>2013-08-05T20:14:05.000Z</time>
      </trkpt>
      <trkpt lat="48.86172" lon="2.2961">
        <ele>77.3</ele>
        <time>2013-08-05T20:14:06.000Z</time>
      </trkpt>
      <trkpt lat="48.86175" lon="2.29616">
        <ele>77.1</ele>
        <time>2013-08-05T20:14:07.000Z</time>
      </trkpt>
      <trkpt lat="48.86177" lon="2.29621">
        <ele>75.8</ele>
        <time>2013-08-05T20:14:08.000Z</time>
      </trkpt>
      <trkpt lat="48.86179" lon="2.29627">
        <ele>75.7</ele>
        <time>2013-08-05T20:14:09.000Z</time>
      </trkpt>
      <trkpt lat="48.86181" lon="2.29632">
        <ele>75.5</ele>
        <time>2013-08-05T20:14:10.000Z</time>
      </trkpt>
      <trkpt lat="48.86184" lon="2.29637">
        <ele>75.3</ele>
        <time>2013-08-05T20:14:11.000Z</time>
      </trkpt>
      <trkpt lat="48.86186" lon="2.29642">
        <ele>74.7</ele>
        <time>2013-08-05T20:14:12.000Z</time>
      </trkpt>
      <trkpt lat="48.86188" lon="2.29647">
        <ele>75.6</ele>
        <time>2013-08-05T20:14:13.000Z</time>
      </trkpt>
      <trkpt lat="48.86191" lon="2.29652">
        <ele>76.1</ele>
        <time>2013-08-05T20:14:14.000Z</time>
      </trkpt>
      <trkpt lat="48.86193" lon="2.29657">
        <ele>76.4</ele>
        <time>2013-08-05T20:14:15.000Z</time>
      </trkpt>
      <trkpt lat="48.86195" lon="2.29661">
        <ele>74.7</ele>
        <time>2013-08-05T20:14:16.000Z</time>
      </trkpt>
      <trkpt lat="48.86198" lon="2.29666">
        <ele>74.6</ele>
        <time>2013-08-05T20:14:17.000Z</time>
      </trkpt>
      <trkpt lat="48.86199" lon="2.29668">
        <ele>74.8</ele>
        <time>2013-08-05T20:14:18.000Z</time>
      </trkpt>
      <trkpt lat="48.86202" lon="2.29671">
        <ele>75.8</ele>
        <time>2013-08-05T20:14:21.000Z</time>
      </trkpt>
      <trkpt lat="48.86203" lon="2.29672">
        <ele>75.2</ele>
        <time>2013-08-05T20:14:22.000Z</time>
      </trkpt>
      <trkpt lat="48.86204" lon="2.29677">
        <ele>75.3</ele>
        <time>2013-08-05T20:14:24.000Z</time>
      </trkpt>
      <trkpt lat="48.86204" lon="2.2968">
        <ele>75.4</ele>
        <time>2013-08-05T20:14:25.000Z</time>
      </trkpt>
      <trkpt lat="48.86205" lon="2.29683">
        <ele>74.8</ele>
        <time>2013-08-05T20:14:26.000Z</time>
      </trkpt>
      <trkpt lat="48.86205" lon="2.29687">
        <ele>75.6</ele>
        <time>2013-08-05T20:14:27.000Z</time>
      </trkpt>
      <trkpt lat="48.86206" lon="2.29691">
        <ele>76.8</ele>
        <time>2013-08-05T20:14:28.000Z</time>
      </trkpt>
      <trkpt lat="48.86207" lon="2.29696">
        <ele>77.5</ele>
        <time>2013-08-05T20:14:29.000Z</time>
      </trkpt>
      <trkpt lat="48.86208" lon="2.29701">
        <ele>77.6</ele>
        <time>2013-08-05T20:14:30.000Z</time>
      </trkpt>
      <trkpt lat="48.86208" lon="2.29706">
        <ele>75.8</ele>
        <time>2013-08-05T20:14:31.000Z</time>
      </trkpt>
      <trkpt lat="48.86206" lon="2.2971">
        <ele>75.9</ele>
        <time>2013-08-05T20:14:32.000Z</time>
      </trkpt>
      <trkpt lat="48.86205" lon="2.29713">
        <ele>75.9</ele>
        <time>2013-08-05T20:14:33.000Z</time>
      </trkpt>
      <trkpt lat="48.86203" lon="2.29719">
        <ele>74</ele>
        <time>2013-08-05T20:14:39.000Z</time>
      </trkpt>
      <trkpt lat="48.86203" lon="2.2972">
        <ele>73.5</ele>
        <time>2013-08-05T20:14:40.000Z</time>
      </trkpt>
      <trkpt lat="48.86205" lon="2.29725">
        <ele>75</ele>
        <time>2013-08-05T20:14:55.000Z</time>
      </trkpt>
      <trkpt lat="48.86206" lon="2.29725">
        <ele>74.9</ele>
        <time>2013-08-05T20:14:56.000Z</time>
      </trkpt>
      <trkpt lat="48.86208" lon="2.29731">
        <ele>75.8</ele>
        <time>2013-08-05T20:14:59.000Z</time>
      </trkpt>
      <trkpt lat="48.86209" lon="2.29732">
        <ele>77.7</ele>
        <time>2013-08-05T20:15:00.000Z</time>
      </trkpt>
      <trkpt lat="48.8621" lon="2.29738">
        <ele>84.1</ele>
        <time>2013-08-05T20:15:10.000Z</time>
      </trkpt>
      <trkpt lat="48.8621" lon="2.29739">
        <ele>84.5</ele>
        <time>2013-08-05T20:15:11.000Z</time>
      </trkpt>
      <trkpt lat="48.86211" lon="2.29745">
        <ele>85.2</ele>
        <time>2013-08-05T20:15:18.000Z</time>
      </trkpt>
      <trkpt lat="48.86211" lon="2.29747">
        <ele>84.1</ele>
        <time>2013-08-05T20:15:19.000Z</time>
      </trkpt>
      <trkpt lat="48.8621" lon="2.29751">
        <ele>83.9</ele>
        <time>2013-08-05T20:15:21.000Z</time>
      </trkpt>
      <trkpt lat="48.86208" lon="2.29752">
        <ele>83</ele>
        <time>2013-08-05T20:15:22.000Z</time>
      </trkpt>
      <trkpt lat="48.86205" lon="2.29751">
        <ele>81.2</ele>
        <time>2013-08-05T20:15:26.000Z</time>
      </trkpt>
      <trkpt lat="48.86204" lon="2.29751">
        <ele>81.1</ele>
        <time>2013-08-05T20:15:27.000Z</time>
      </trkpt>
      <trkpt lat="48.862" lon="2.29747">
        <ele>81.3</ele>
        <time>2013-08-05T20:15:31.000Z</time>
      </trkpt>
      <trkpt lat="48.86199" lon="2.29746">
        <ele>82.1</ele>
        <time>2013-08-05T20:15:32.000Z</time>
      </trkpt>
      <trkpt lat="48.862" lon="2.2974">
        <ele>83.8</ele>
        <time>2013-08-05T20:15:43.000Z</time>
      </trkpt>
      <trkpt lat="48.86201" lon="2.29738">
        <ele>84.1</ele>
        <time>2013-08-05T20:15:44.000Z</time>
      </trkpt>
      <trkpt lat="48.86204" lon="2.29734">
        <ele>84.4</ele>
        <time>2013-08-05T20:15:46.000Z</time>
      </trkpt>
      <trkpt lat="48.86206" lon="2.29732">
        <ele>84.7</ele>
        <time>2013-08-05T20:15:47.000Z</time>
      </trkpt>
      <trkpt lat="48.8621" lon="2.29729">
        <ele>83.3</ele>
        <time>2013-08-05T20:15:49.000Z</time>
      </trkpt>
      <trkpt lat="48.86212" lon="2.29728">
        <ele>82.3</ele>
        <time>2013-08-05T20:15:50.000Z</time>
      </trkpt>
      <trkpt lat="48.86215" lon="2.29727">
        <ele>81.8</ele>
        <time>2013-08-05T20:15:51.000Z</time>
      </trkpt>
      <trkpt lat="48.86218" lon="2.29725">
        <ele>82.1</ele>
        <time>2013-08-05T20:15:52.747Z</time>
      </trkpt>
      <trkpt lat="48.8622" lon="2.29724">
        <ele>82.1</ele>
        <time>2013-08-05T20:15:54.000Z</time>
      </trkpt>
      <trkpt lat="48.86222" lon="2.29723">
        <ele>81.8</ele>
        <time>2013-08-05T20:15:55.000Z</time>
      </trkpt>
      <trkpt lat="48.86225" lon="2.29721">
        <ele>82.4</ele>
        <time>2013-08-05T20:15:56.000Z</time>
      </trkpt>
      <trkpt lat="48.86227" lon="2.29719">
        <ele>82.6</ele>
        <time>2013-08-05T20:15:57.000Z</time>
      </trkpt>
      <trkpt lat="48.86231" lon="2.29716">
        <ele>84</ele>
        <time>2013-08-05T20:15:59.000Z</time>
      </trkpt>
      <trkpt lat="48.86233" lon="2.29715">
        <ele>83.5</ele>
        <time>2013-08-05T20:16:00.000Z</time>
      </trkpt>
      <trkpt lat="48.86235" lon="2.29712">
        <ele>83.7</ele>
        <time>2013-08-05T20:16:01.000Z</time>
      </trkpt>
      <trkpt lat="48.86238" lon="2.2971">
        <ele>83.3</ele>
        <time>2013-08-05T20:16:02.000Z</time>
      </trkpt>
      <trkpt lat="48.8624" lon="2.29708">
        <ele>83.5</ele>
        <time>2013-08-05T20:16:03.000Z</time>
      </trkpt>
      <trkpt lat="48.86242" lon="2.29706">
        <ele>84.3</ele>
        <time>2013-08-05T20:16:04.000Z</time>
      </trkpt>
      <trkpt lat="48.86246" lon="2.29703">
        <ele>83.7</ele>
        <time>2013-08-05T20:16:06.000Z</time>
      </trkpt>
      <trkpt lat="48.86248" lon="2.29701">
        <ele>83.5</ele>
        <time>2013-08-05T20:16:07.000Z</time>
      </trkpt>
      <trkpt lat="48.8625" lon="2.29699">
        <ele>83.1</ele>
        <time>2013-08-05T20:16:08.000Z</time>
      </trkpt>
      <trkpt lat="48.86252" lon="2.29697">
        <ele>83.2</ele>
        <time>2013-08-05T20:16:09.000Z</time>
      </trkpt>
      <trkpt lat="48.86254" lon="2.29694">
        <ele>82.4</ele>
        <time>2013-08-05T20:16:10.000Z</time>
      </trkpt>
      <trkpt lat="48.86257" lon="2.29693">
        <ele>82.2</ele>
        <time>2013-08-05T20:16:11.000Z</time>
      </trkpt>
      <trkpt lat="48.86259" lon="2.29691">
        <ele>81.2</ele>
        <time>2013-08-05T20:16:12.000Z</time>
      </trkpt>
      <trkpt lat="48.86262" lon="2.29689">
        <ele>81.9</ele>
        <time>2013-08-05T20:16:13.000Z</time>
      </trkpt>
      <trkpt lat="48.86265" lon="2.29687">
        <ele>83</ele>
        <time>2013-08-05T20:16:14.000Z</time>
      </trkpt>
      <trkpt lat="48.86267" lon="2.29684">
        <ele>83.6</ele>
        <time>2013-08-05T20:16:15.000Z</time>
      </trkpt>
      <trkpt lat="48.86269" lon="2.29682">
        <ele>84.3</ele>
        <time>2013-08-05T20:16:16.000Z</time>
      </trkpt>
      <trkpt lat="48.86272" lon="2.29679">
        <ele>82.8</ele>
        <time>2013-08-05T20:16:17.000Z</time>
      </trkpt>
      <trkpt lat="48.86274" lon="2.29677">
        <ele>83</ele>
        <time>2013-08-05T20:16:18.000Z</time>
      </trkpt>
      <trkpt lat="48.86277" lon="2.29673">
        <ele>82.5</ele>
        <time>2013-08-05T20:16:19.000Z</time>
      </trkpt>
      <trkpt lat="48.8628" lon="2.29671">
        <ele>81.8</ele>
        <time>2013-08-05T20:16:20.000Z</time>
      </trkpt>
      <trkpt lat="48.86282" lon="2.29669">
        <ele>81.9</ele>
        <time>2013-08-05T20:16:21.000Z</time>
      </trkpt>
      <trkpt lat="48.86286" lon="2.29666">
        <ele>81.9</ele>
        <time>2013-08-05T20:16:22.000Z</time>
      </trkpt>
      <trkpt lat="48.86289" lon="2.29664">
        <ele>81.8</ele>
        <time>2013-08-05T20:16:23.000Z</time>
      </trkpt>
      <trkpt lat="48.86291" lon="2.29662">
        <ele>80.5</ele>
        <time>2013-08-05T20:16:24.000Z</time>
      </trkpt>
      <trkpt lat="48.86294" lon="2.2966">
        <ele>80.5</ele>
        <time>2013-08-05T20:16:25.000Z</time>
      </trkpt>
      <trkpt lat="48.86297" lon="2.29659">
        <ele>81</ele>
        <time>2013-08-05T20:16:26.000Z</time>
      </trkpt>
      <trkpt lat="48.86299" lon="2.29657">
        <ele>81.3</ele>
        <time>2013-08-05T20:16:27.000Z</time>
      </trkpt>
      <trkpt lat="48.86302" lon="2.29657">
        <ele>82.1</ele>
        <time>2013-08-05T20:16:28.000Z</time>
      </trkpt>
      <trkpt lat="48.86304" lon="2.29656">
        <ele>82.1</ele>
        <time>2013-08-05T20:16:29.000Z</time>
      </trkpt>
      <trkpt lat="48.86308" lon="2.29654">
        <ele>82.5</ele>
        <time>2013-08-05T20:16:34.000Z</time>
      </trkpt>
      <trkpt lat="48.86309" lon="2.29654">
        <ele>82.3</ele>
        <time>2013-08-05T20:16:35.000Z</time>
      </trkpt>
      <trkpt lat="48.86312" lon="2.2965">
        <ele>82.7</ele>
        <time>2013-08-05T20:16:46.000Z</time>
      </trkpt>
      <trkpt lat="48.86312" lon="2.29649">
        <ele>83.2</ele>
        <time>2013-08-05T20:16:47.000Z</time>
      </trkpt>
      <trkpt lat="48.86314" lon="2.29645">
        <ele>83.9</ele>
        <time>2013-08-05T20:16:51.000Z</time>
      </trkpt>
      <trkpt lat="48.86315" lon="2.29644">
        <ele>83.9</ele>
        <time>2013-08-05T20:16:52.593Z</time>
      </trkpt>
      <trkpt lat="48.86318" lon="2.29644">
        <ele>84</ele>
        <time>2013-08-05T20:17:42.000Z</time>
      </trkpt>
      <trkpt lat="48.86319" lon="2.29644">
        <ele>84.7</ele>
        <time>2013-08-05T20:17:43.000Z</time>
      </trkpt>
      <trkpt lat="48.86323" lon="2.29642">
        <ele>86.8</ele>
        <time>2013-08-05T20:17:45.000Z</time>
      </trkpt>
      <trkpt lat="48.86325" lon="2.29641">
        <ele>88</ele>
        <time>2013-08-05T20:17:46.000Z</time>
      </trkpt>
      <trkpt lat="48.86328" lon="2.29639">
        <ele>86</ele>
        <time>2013-08-05T20:17:48.000Z</time>
      </trkpt>
      <trkpt lat="48.8633" lon="2.29638">
        <ele>86.5</ele>
        <time>2013-08-05T20:17:49.000Z</time>
      </trkpt>
      <trkpt lat="48.86334" lon="2.29638">
        <ele>86.7</ele>
        <time>2013-08-05T20:17:51.000Z</time>
      </trkpt>
      <trkpt lat="48.86338" lon="2.29638">
        <ele>86.8</ele>
        <time>2013-08-05T20:17:52.711Z</time>
      </trkpt>
      <trkpt lat="48.86341" lon="2.29635">
        <ele>84.6</ele>
        <time>2013-08-05T20:17:57.000Z</time>
      </trkpt>
      <trkpt lat="48.86342" lon="2.29633">
        <ele>84.9</ele>
        <time>2013-08-05T20:17:58.000Z</time>
      </trkpt>
      <trkpt lat="48.86341" lon="2.29628">
        <ele>83</ele>
        <time>2013-08-05T20:18:00.000Z</time>
      </trkpt>
      <trkpt lat="48.86342" lon="2.29624">
        <ele>85.1</ele>
        <time>2013-08-05T20:18:01.000Z</time>
      </trkpt>
      <trkpt lat="48.86343" lon="2.29622">
        <ele>84.9</ele>
        <time>2013-08-05T20:18:02.000Z</time>
      </trkpt>
      <trkpt lat="48.86346" lon="2.2962">
        <ele>84.8</ele>
        <time>2013-08-05T20:18:03.000Z</time>
      </trkpt>
      <trkpt lat="48.86349" lon="2.29618">
        <ele>84.9</ele>
        <time>2013-08-05T20:18:04.000Z</time>
      </trkpt>
      <trkpt lat="48.86352" lon="2.29616">
        <ele>85.2</ele>
        <time>2013-08-05T20:18:05.000Z</time>
      </trkpt>
      <trkpt lat="48.86356" lon="2.29614">
        <ele>84.4</ele>
        <time>2013-08-05T20:18:06.000Z</time>
      </trkpt>
      <trkpt lat="48.86359" lon="2.29613">
        <ele>85.2</ele>
        <time>2013-08-05T20:18:07.000Z</time>
      </trkpt>
      <trkpt lat="48.86362" lon="2.29611">
        <ele>84.5</ele>
        <time>2013-08-05T20:18:08.000Z</time>
      </trkpt>
      <trkpt lat="48.86366" lon="2.29609">
        <ele>84.4</ele>
        <time>2013-08-05T20:18:09.000Z</time>
      </trkpt>
      <trkpt lat="48.86369" lon="2.29608">
        <ele>84.3</ele>
        <time>2013-08-05T20:18:10.000Z</time>
      </trkpt>
      <trkpt lat="48.86373" lon="2.29607">
        <ele>84.5</ele>
        <time>2013-08-05T20:18:11.000Z</time>
      </trkpt>
      <trkpt lat="48.86376" lon="2.29606">
        <ele>85.2</ele>
        <time>2013-08-05T20:18:12.000Z</time>
      </trkpt>
      <trkpt lat="48.8638" lon="2.29605">
        <ele>85.7</ele>
        <time>2013-08-05T20:18:13.000Z</time>
      </trkpt>
      <trkpt lat="48.86384" lon="2.29604">
        <ele>85.8</ele>
        <time>2013-08-05T20:18:14.000Z</time>
      </trkpt>
      <trkpt lat="48.86388" lon="2.29602">
        <ele>86.3</ele>
        <time>2013-08-05T20:18:15.000Z</time>
      </trkpt>
      <trkpt lat="48.86392" lon="2.29601">
        <ele>86.4</ele>
        <time>2013-08-05T20:18:16.000Z</time>
      </trkpt>
      <trkpt lat="48.86395" lon="2.296">
        <ele>87.1</ele>
        <time>2013-08-05T20:18:17.000Z</time>
      </trkpt>
      <trkpt lat="48.86399" lon="2.29598">
        <ele>87.3</ele>
        <time>2013-08-05T20:18:18.000Z</time>
      </trkpt>
      <trkpt lat="48.86402" lon="2.29597">
        <ele>87.7</ele>
        <time>2013-08-05T20:18:19.000Z</time>
      </trkpt>
      <trkpt lat="48.86405" lon="2.29597">
        <ele>88.1</ele>
        <time>2013-08-05T20:18:20.000Z</time>
      </trkpt>
      <trkpt lat="48.86407" lon="2.29596">
        <ele>89.7</ele>
        <time>2013-08-05T20:18:21.000Z</time>
      </trkpt>
      <trkpt lat="48.8641" lon="2.29595">
        <ele>90</ele>
        <time>2013-08-05T20:18:22.000Z</time>
      </trkpt>
      <trkpt lat="48.86412" lon="2.29593">
        <ele>90.1</ele>
        <time>2013-08-05T20:18:23.000Z</time>
      </trkpt>
      <trkpt lat="48.86414" lon="2.29592">
        <ele>90.2</ele>
        <time>2013-08-05T20:18:24.000Z</time>
      </trkpt>
      <trkpt lat="48.86416" lon="2.2959">
        <ele>91.1</ele>
        <time>2013-08-05T20:18:25.000Z</time>
      </trkpt>
      <trkpt lat="48.86419" lon="2.29589">
        <ele>91</ele>
        <time>2013-08-05T20:18:26.000Z</time>
      </trkpt>
      <trkpt lat="48.86421" lon="2.29588">
        <ele>91</ele>
        <time>2013-08-05T20:18:27.000Z</time>
      </trkpt>
      <trkpt lat="48.86425" lon="2.29586">
        <ele>89.3</ele>
        <time>2013-08-05T20:18:29.000Z</time>
      </trkpt>
      <trkpt lat="48.86426" lon="2.29585">
        <ele>88.9</ele>
        <time>2013-08-05T20:18:30.000Z</time>
      </trkpt>
      <trkpt lat="48.86429" lon="2.29581">
        <ele>86.2</ele>
        <time>2013-08-05T20:18:34.000Z</time>
      </trkpt>
      <trkpt lat="48.86431" lon="2.29581">
        <ele>86.6</ele>
        <time>2013-08-05T20:18:35.000Z</time>
      </trkpt>
      <trkpt lat="48.86435" lon="2.2958">
        <ele>87.8</ele>
        <time>2013-08-05T20:18:45.000Z</time>
      </trkpt>
      <trkpt lat="48.86435" lon="2.29579">
        <ele>87.4</ele>
        <time>2013-08-05T20:18:46.000Z</time>
      </trkpt>
      <trkpt lat="48.8644" lon="2.29579">
        <ele>90.6</ele>
        <time>2013-08-05T20:19:09.000Z</time>
      </trkpt>
      <trkpt lat="48.86441" lon="2.29578">
        <ele>91.1</ele>
        <time>2013-08-05T20:19:10.000Z</time>
      </trkpt>
      <trkpt lat="48.86445" lon="2.29576">
        <ele>93.9</ele>
        <time>2013-08-05T20:19:18.000Z</time>
      </trkpt>
      <trkpt lat="48.86445" lon="2.29576">
        <ele>94.6</ele>
        <time>2013-08-05T20:19:19.000Z</time>
      </trkpt>
      <trkpt lat="48.86448" lon="2.29573">
        <ele>95.7</ele>
        <time>2013-08-05T20:19:31.000Z</time>
      </trkpt>
      <trkpt lat="48.8645" lon="2.29573">
        <ele>96.5</ele>
        <time>2013-08-05T20:19:32.000Z</time>
      </trkpt>
      <trkpt lat="48.86454" lon="2.29571">
        <ele>97.5</ele>
        <time>2013-08-05T20:19:38.000Z</time>
      </trkpt>
      <trkpt lat="48.86454" lon="2.29571">
        <ele>97.9</ele>
        <time>2013-08-05T20:19:39.000Z</time>
      </trkpt>
      <trkpt lat="48.86458" lon="2.2957">
        <ele>97.3</ele>
        <time>2013-08-05T20:20:03.000Z</time>
      </trkpt>
      <trkpt lat="48.86459" lon="2.2957">
        <ele>98.7</ele>
        <time>2013-08-05T20:20:04.000Z</time>
      </trkpt>
      <trkpt lat="48.86462" lon="2.2957">
        <ele>97.5</ele>
        <time>2013-08-05T20:20:08.000Z</time>
      </trkpt>
      <trkpt lat="48.86464" lon="2.29569">
        <ele>96.5</ele>
        <time>2013-08-05T20:20:09.000Z</time>
      </trkpt>
      <trkpt lat="48.86466" lon="2.29569">
        <ele>98.3</ele>
        <time>2013-08-05T20:20:10.000Z</time>
      </trkpt>
      <trkpt lat="48.86468" lon="2.29568">
        <ele>97.8</ele>
        <time>2013-08-05T20:20:11.000Z</time>
      </trkpt>
      <trkpt lat="48.86472" lon="2.29567">
        <ele>97.7</ele>
        <time>2013-08-05T20:20:13.000Z</time>
      </trkpt>
      <trkpt lat="48.86475" lon="2.29567">
        <ele>96.7</ele>
        <time>2013-08-05T20:20:14.000Z</time>
      </trkpt>
      <trkpt lat="48.86478" lon="2.29569">
        <ele>97.9</ele>
        <time>2013-08-05T20:20:16.000Z</time>
      </trkpt>
      <trkpt lat="48.86479" lon="2.2957">
        <ele>98.8</ele>
        <time>2013-08-05T20:20:17.000Z</time>
      </trkpt>
      <trkpt lat="48.86482" lon="2.29575">
        <ele>97.9</ele>
        <time>2013-08-05T20:20:20.000Z</time>
      </trkpt>
      <trkpt lat="48.86484" lon="2.29576">
        <ele>99.6</ele>
        <time>2013-08-05T20:20:21.000Z</time>
      </trkpt>
      <trkpt lat="48.86486" lon="2.29578">
        <ele>99.2</ele>
        <time>2013-08-05T20:20:22.000Z</time>
      </trkpt>
      <trkpt lat="48.86489" lon="2.29579">
        <ele>99.9</ele>
        <time>2013-08-05T20:20:23.000Z</time>
      </trkpt>
      <trkpt lat="48.86491" lon="2.2958">
        <ele>100.7</ele>
        <time>2013-08-05T20:20:24.000Z</time>
      </trkpt>
      <trkpt lat="48.86494" lon="2.2958">
        <ele>99.8</ele>
        <time>2013-08-05T20:20:25.000Z</time>
      </trkpt>
      <trkpt lat="48.86498" lon="2.2958">
        <ele>96.9</ele>
        <time>2013-08-05T20:20:27.000Z</time>
      </trkpt>
      <trkpt lat="48.865" lon="2.29581">
        <ele>97.2</ele>
        <time>2013-08-05T20:20:28.000Z</time>
      </trkpt>
      <trkpt lat="48.86502" lon="2.29581">
        <ele>96.9</ele>
        <time>2013-08-05T20:20:29.000Z</time>
      </trkpt>
      <trkpt lat="48.86505" lon="2.29582">
        <ele>96.8</ele>
        <time>2013-08-05T20:20:30.000Z</time>
      </trkpt>
      <trkpt lat="48.86508" lon="2.29582">
        <ele>96.5</ele>
        <time>2013-08-05T20:20:31.000Z</time>
      </trkpt>
      <trkpt lat="48.86512" lon="2.29582">
        <ele>96.2</ele>
        <time>2013-08-05T20:20:32.000Z</time>
      </trkpt>
      <trkpt lat="48.86514" lon="2.29582">
        <ele>96.4</ele>
        <time>2013-08-05T20:20:33.000Z</time>
      </trkpt>
      <trkpt lat="48.86517" lon="2.29582">
        <ele>96.5</ele>
        <time>2013-08-05T20:20:34.000Z</time>
      </trkpt>
      <trkpt lat="48.8652" lon="2.29583">
        <ele>96.1</ele>
        <time>2013-08-05T20:20:35.000Z</time>
      </trkpt>
      <trkpt lat="48.86523" lon="2.29582">
        <ele>96.4</ele>
        <time>2013-08-05T20:20:36.000Z</time>
      </trkpt>
      <trkpt lat="48.86525" lon="2.29583">
        <ele>95.8</ele>
        <time>2013-08-05T20:20:37.000Z</time>
      </trkpt>
      <trkpt lat="48.86528" lon="2.29585">
        <ele>95.9</ele>
        <time>2013-08-05T20:20:38.000Z</time>
      </trkpt>
      <trkpt lat="48.86531" lon="2.29586">
        <ele>96.7</ele>
        <time>2013-08-05T20:20:39.000Z</time>
      </trkpt>
      <trkpt lat="48.86534" lon="2.29588">
        <ele>97.6</ele>
        <time>2013-08-05T20:20:40.000Z</time>
      </trkpt>
      <trkpt lat="48.86536" lon="2.29589">
        <ele>97.7</ele>
        <time>2013-08-05T20:20:41.000Z</time>
      </trkpt>
      <trkpt lat="48.86538" lon="2.2959">
        <ele>97.5</ele>
        <time>2013-08-05T20:20:42.000Z</time>
      </trkpt>
      <trkpt lat="48.86542" lon="2.29588">
        <ele>96.7</ele>
        <time>2013-08-05T20:20:45.000Z</time>
      </trkpt>
      <trkpt lat="48.86543" lon="2.29589">
        <ele>97.4</ele>
        <time>2013-08-05T20:20:46.000Z</time>
      </trkpt>
      <trkpt lat="48.86546" lon="2.29593">
        <ele>98.6</ele>
        <time>2013-08-05T20:20:48.000Z</time>
      </trkpt>
      <trkpt lat="48.86548" lon="2.29595">
        <ele>98.5</ele>
        <time>2013-08-05T20:20:49.000Z</time>
      </trkpt>
      <trkpt lat="48.8655" lon="2.29599">
        <ele>99.7</ele>
        <time>2013-08-05T20:20:50.000Z</time>
      </trkpt>
      <trkpt lat="48.86551" lon="2.29604">
        <ele>99.5</ele>
        <time>2013-08-05T20:20:51.000Z</time>
      </trkpt>
      <trkpt lat="48.86553" lon="2.2961">
        <ele>99.6</ele>
        <time>2013-08-05T20:20:52.538Z</time>
      </trkpt>
      <trkpt lat="48.86555" lon="2.29615">
        <ele>99.7</ele>
        <time>2013-08-05T20:20:54.000Z</time>
      </trkpt>
      <trkpt lat="48.86558" lon="2.29618">
        <ele>99.6</ele>
        <time>2013-08-05T20:20:55.000Z</time>
      </trkpt>
      <trkpt lat="48.86561" lon="2.29622">
        <ele>99.9</ele>
        <time>2013-08-05T20:20:56.000Z</time>
      </trkpt>
      <trkpt lat="48.86563" lon="2.29625">
        <ele>99.5</ele>
        <time>2013-08-05T20:20:57.000Z</time>
      </trkpt>
      <trkpt lat="48.86566" lon="2.29628">
        <ele>99.5</ele>
        <time>2013-08-05T20:20:58.000Z</time>
      </trkpt>
      <trkpt lat="48.86568" lon="2.2963">
        <ele>99.6</ele>
        <time>2013-08-05T20:20:59.000Z</time>
      </trkpt>
      <trkpt lat="48.86571" lon="2.29632">
        <ele>99.7</ele>
        <time>2013-08-05T20:21:00.000Z</time>
      </trkpt>
      <trkpt lat="48.86574" lon="2.29634">
        <ele>98.6</ele>
        <time>2013-08-05T20:21:01.000Z</time>
      </trkpt>
      <trkpt lat="48.86578" lon="2.29635">
        <ele>97.7</ele>
        <time>2013-08-05T20:21:02.000Z</time>
      </trkpt>
      <trkpt lat="48.86582" lon="2.29636">
        <ele>94</ele>
        <time>2013-08-05T20:21:03.000Z</time>
      </trkpt>
      <trkpt lat="48.86586" lon="2.29637">
        <ele>93.6</ele>
        <time>2013-08-05T20:21:04.000Z</time>
      </trkpt>
      <trkpt lat="48.86589" lon="2.29638">
        <ele>89.6</ele>
        <time>2013-08-05T20:21:05.000Z</time>
      </trkpt>
      <trkpt lat="48.86593" lon="2.29638">
        <ele>88.1</ele>
        <time>2013-08-05T20:21:06.000Z</time>
      </trkpt>
      <trkpt lat="48.86595" lon="2.29639">
        <ele>87</ele>
        <time>2013-08-05T20:21:07.000Z</time>
      </trkpt>
      <trkpt lat="48.86599" lon="2.29636">
        <ele>87.4</ele>
        <time>2013-08-05T20:21:08.000Z</time>
      </trkpt>
      <trkpt lat="48.86602" lon="2.29636">
        <ele>87.2</ele>
        <time>2013-08-05T20:21:09.000Z</time>
      </trkpt>
      <trkpt lat="48.86605" lon="2.29637">
        <ele>86.8</ele>
        <time>2013-08-05T20:21:10.000Z</time>
      </trkpt>
      <trkpt lat="48.86609" lon="2.29639">
        <ele>86.6</ele>
        <time>2013-08-05T20:21:11.000Z</time>
      </trkpt>
      <trkpt lat="48.86612" lon="2.2964">
        <ele>87.3</ele>
        <time>2013-08-05T20:21:12.000Z</time>
      </trkpt>
      <trkpt lat="48.86616" lon="2.29641">
        <ele>87.7</ele>
        <time>2013-08-05T20:21:13.000Z</time>
      </trkpt>
      <trkpt lat="48.86619" lon="2.29643">
        <ele>87.5</ele>
        <time>2013-08-05T20:21:14.000Z</time>
      </trkpt>
      <trkpt lat="48.86622" lon="2.29646">
        <ele>87.6</ele>
        <time>2013-08-05T20:21:15.000Z</time>
      </trkpt>
      <trkpt lat="48.86625" lon="2.29648">
        <ele>88.1</ele>
        <time>2013-08-05T20:21:16.000Z</time>
      </trkpt>
      <trkpt lat="48.86628" lon="2.29651">
        <ele>88.1</ele>
        <time>2013-08-05T20:21:17.000Z</time>
      </trkpt>
      <trkpt lat="48.86631" lon="2.29654">
        <ele>90.6</ele>
        <time>2013-08-05T20:21:18.000Z</time>
      </trkpt>
      <trkpt lat="48.86634" lon="2.29656">
        <ele>90.6</ele>
        <time>2013-08-05T20:21:19.000Z</time>
      </trkpt>
      <trkpt lat="48.86636" lon="2.29657">
        <ele>91.2</ele>
        <time>2013-08-05T20:21:20.000Z</time>
      </trkpt>
      <trkpt lat="48.86638" lon="2.29658">
        <ele>91.3</ele>
        <time>2013-08-05T20:21:21.000Z</time>
      </trkpt>
      <trkpt lat="48.86641" lon="2.29659">
        <ele>90.5</ele>
        <time>2013-08-05T20:21:22.000Z</time>
      </trkpt>
      <trkpt lat="48.86643" lon="2.29661">
        <ele>91.1</ele>
        <time>2013-08-05T20:21:23.000Z</time>
      </trkpt>
      <trkpt lat="48.86646" lon="2.29662">
        <ele>92</ele>
        <time>2013-08-05T20:21:24.000Z</time>
      </trkpt>
      <trkpt lat="48.86648" lon="2.29663">
        <ele>92.7</ele>
        <time>2013-08-05T20:21:25.000Z</time>
      </trkpt>
      <trkpt lat="48.8665" lon="2.29664">
        <ele>91.9</ele>
        <time>2013-08-05T20:21:26.000Z</time>
      </trkpt>
      <trkpt lat="48.86653" lon="2.29667">
        <ele>89.6</ele>
        <time>2013-08-05T20:21:28.000Z</time>
      </trkpt>
      <trkpt lat="48.86655" lon="2.29668">
        <ele>89.6</ele>
        <time>2013-08-05T20:21:29.000Z</time>
      </trkpt>
      <trkpt lat="48.86657" lon="2.29669">
        <ele>89.4</ele>
        <time>2013-08-05T20:21:30.000Z</time>
      </trkpt>
      <trkpt lat="48.8666" lon="2.29669">
        <ele>89.8</ele>
        <time>2013-08-05T20:21:31.000Z</time>
      </trkpt>
      <trkpt lat="48.86663" lon="2.2967">
        <ele>90.5</ele>
        <time>2013-08-05T20:21:32.000Z</time>
      </trkpt>
      <trkpt lat="48.86665" lon="2.29671">
        <ele>91.6</ele>
        <time>2013-08-05T20:21:33.000Z</time>
      </trkpt>
      <trkpt lat="48.86667" lon="2.29672">
        <ele>93.6</ele>
        <time>2013-08-05T20:21:34.000Z</time>
      </trkpt>
      <trkpt lat="48.86669" lon="2.29674">
        <ele>94</ele>
        <time>2013-08-05T20:21:35.000Z</time>
      </trkpt>
      <trkpt lat="48.86672" lon="2.29677">
        <ele>96.3</ele>
        <time>2013-08-05T20:21:36.000Z</time>
      </trkpt>
      <trkpt lat="48.86674" lon="2.2968">
        <ele>98.4</ele>
        <time>2013-08-05T20:21:37.000Z</time>
      </trkpt>
      <trkpt lat="48.86676" lon="2.29683">
        <ele>99.9</ele>
        <time>2013-08-05T20:21:38.000Z</time>
      </trkpt>
      <trkpt lat="48.86679" lon="2.29684">
        <ele>100.5</ele>
        <time>2013-08-05T20:21:39.000Z</time>
      </trkpt>
      <trkpt lat="48.86682" lon="2.29686">
        <ele>101.6</ele>
        <time>2013-08-05T20:21:40.000Z</time>
      </trkpt>
      <trkpt lat="48.86685" lon="2.29688">
        <ele>101.9</ele>
        <time>2013-08-05T20:21:41.000Z</time>
      </trkpt>
      <trkpt lat="48.86688" lon="2.2969">
        <ele>102.7</ele>
        <time>2013-08-05T20:21:42.000Z</time>
      </trkpt>
      <trkpt lat="48.86691" lon="2.29691">
        <ele>102.2</ele>
        <time>2013-08-05T20:21:43.000Z</time>
      </trkpt>
      <trkpt lat="48.86694" lon="2.29691">
        <ele>102.6</ele>
        <time>2013-08-05T20:21:44.000Z</time>
      </trkpt>
      <trkpt lat="48.86696" lon="2.29692">
        <ele>104.3</ele>
        <time>2013-08-05T20:21:45.000Z</time>
      </trkpt>
      <trkpt lat="48.867" lon="2.29693">
        <ele>109.9</ele>
        <time>2013-08-05T20:21:47.000Z</time>
      </trkpt>
      <trkpt lat="48.86702" lon="2.29693">
        <ele>112.1</ele>
        <time>2013-08-05T20:21:48.000Z</time>
      </trkpt>
      <trkpt lat="48.86705" lon="2.29693">
        <ele>116.6</ele>
        <time>2013-08-05T20:21:50.000Z</time>
      </trkpt>
      <trkpt lat="48.86707" lon="2.29693">
        <ele>117.5</ele>
        <time>2013-08-05T20:21:51.000Z</time>
      </trkpt>
      <trkpt lat="48.86711" lon="2.29692">
        <ele>118.9</ele>
        <time>2013-08-05T20:21:54.000Z</time>
      </trkpt>
      <trkpt lat="48.86712" lon="2.29693">
        <ele>118.9</ele>
        <time>2013-08-05T20:21:55.000Z</time>
      </trkpt>
      <trkpt lat="48.86714" lon="2.29694">
        <ele>118.1</ele>
        <time>2013-08-05T20:21:56.000Z</time>
      </trkpt>
      <trkpt lat="48.86717" lon="2.29695">
        <ele>118</ele>
        <time>2013-08-05T20:21:57.000Z</time>
      </trkpt>
      <trkpt lat="48.8672" lon="2.29696">
        <ele>118.3</ele>
        <time>2013-08-05T20:21:58.000Z</time>
      </trkpt>
      <trkpt lat="48.86722" lon="2.29698">
        <ele>118.3</ele>
        <time>2013-08-05T20:21:59.000Z</time>
      </trkpt>
      <trkpt lat="48.86723" lon="2.297">
        <ele>119.5</ele>
        <time>2013-08-05T20:22:00.000Z</time>
      </trkpt>
      <trkpt lat="48.86725" lon="2.29704">
        <ele>120.7</ele>
        <time>2013-08-05T20:22:01.000Z</time>
      </trkpt>
      <trkpt lat="48.86726" lon="2.29707">
        <ele>121.1</ele>
        <time>2013-08-05T20:22:02.000Z</time>
      </trkpt>
      <trkpt lat="48.86728" lon="2.29711">
        <ele>120.8</ele>
        <time>2013-08-05T20:22:03.000Z</time>
      </trkpt>
      <trkpt lat="48.8673" lon="2.29714">
        <ele>121.4</ele>
        <time>2013-08-05T20:22:04.000Z</time>
      </trkpt>
      <trkpt lat="48.86732" lon="2.29718">
        <ele>122.9</ele>
        <time>2013-08-05T20:22:05.000Z</time>
      </trkpt>
      <trkpt lat="48.86734" lon="2.29721">
        <ele>122.6</ele>
        <time>2013-08-05T20:22:06.000Z</time>
      </trkpt>
      <trkpt lat="48.86737" lon="2.29724">
        <ele>121</ele>
        <time>2013-08-05T20:22:07.000Z</time>
      </trkpt>
      <trkpt lat="48.8674" lon="2.29728">
        <ele>119.1</ele>
        <time>2013-08-05T20:22:08.000Z</time>
      </trkpt>
      <trkpt lat="48.86743" lon="2.29733">
        <ele>118</ele>
        <time>2013-08-05T20:22:09.000Z</time>
      </trkpt>
      <trkpt lat="48.86746" lon="2.29737">
        <ele>114.9</ele>
        <time>2013-08-05T20:22:10.000Z</time>
      </trkpt>
      <trkpt lat="48.8675" lon="2.29741">
        <ele>114.1</ele>
        <time>2013-08-05T20:22:11.000Z</time>
      </trkpt>
      <trkpt lat="48.86754" lon="2.29744">
        <ele>113.7</ele>
        <time>2013-08-05T20:22:12.000Z</time>
      </trkpt>
      <trkpt lat="48.86758" lon="2.29747">
        <ele>113.9</ele>
        <time>2013-08-05T20:22:13.000Z</time>
      </trkpt>
      <trkpt lat="48.86761" lon="2.29751">
        <ele>114</ele>
        <time>2013-08-05T20:22:14.000Z</time>
      </trkpt>
      <trkpt lat="48.86764" lon="2.29756">
        <ele>114.2</ele>
        <time>2013-08-05T20:22:15.000Z</time>
      </trkpt>
      <trkpt lat="48.86768" lon="2.2976">
        <ele>114</ele>
        <time>2013-08-05T20:22:16.000Z</time>
      </trkpt>
      <trkpt lat="48.86771" lon="2.29765">
        <ele>113.2</ele>
        <time>2013-08-05T20:22:17.000Z</time>
      </trkpt>
      <trkpt lat="48.86774" lon="2.2977">
        <ele>111.6</ele>
        <time>2013-08-05T20:22:18.000Z</time>
      </trkpt>
      <trkpt lat="48.86778" lon="2.29775">
        <ele>111.6</ele>
        <time>2013-08-05T20:22:19.000Z</time>
      </trkpt>
      <trkpt lat="48.86781" lon="2.2978">
        <ele>110.8</ele>
        <time>2013-08-05T20:22:20.000Z</time>
      </trkpt>
      <trkpt lat="48.86785" lon="2.29785">
        <ele>110.9</ele>
        <time>2013-08-05T20:22:21.000Z</time>
      </trkpt>
      <trkpt lat="48.86787" lon="2.2979">
        <ele>112.6</ele>
        <time>2013-08-05T20:22:22.000Z</time>
      </trkpt>
      <trkpt lat="48.8679" lon="2.29794">
        <ele>113.1</ele>
        <time>2013-08-05T20:22:23.000Z</time>
      </trkpt>
      <trkpt lat="48.86793" lon="2.29799">
        <ele>112.8</ele>
        <time>2013-08-05T20:22:24.000Z</time>
      </trkpt>
      <trkpt lat="48.86796" lon="2.29803">
        <ele>113.5</ele>
        <time>2013-08-05T20:22:25.000Z</time>
      </trkpt>
      <trkpt lat="48.86799" lon="2.29807">
        <ele>114.7</ele>
        <time>2013-08-05T20:22:26.000Z</time>
      </trkpt>
      <trkpt lat="48.86801" lon="2.2981">
        <ele>116</ele>
        <time>2013-08-05T20:22:27.000Z</time>
      </trkpt>
      <trkpt lat="48.86803" lon="2.29813">
        <ele>117.6</ele>
        <time>2013-08-05T20:22:28.000Z</time>
      </trkpt>
      <trkpt lat="48.86804" lon="2.29814">
        <ele>117.4</ele>
        <time>2013-08-05T20:22:29.000Z</time>
      </trkpt>
      <trkpt lat="48.86808" lon="2.29817">
        <ele>113.2</ele>
        <time>2013-08-05T20:22:31.000Z</time>
      </trkpt>
      <trkpt lat="48.86811" lon="2.29819">
        <ele>113.4</ele>
        <time>2013-08-05T20:22:32.000Z</time>
      </trkpt>
      <trkpt lat="48.86813" lon="2.29822">
        <ele>113.9</ele>
        <time>2013-08-05T20:22:33.000Z</time>
      </trkpt>
      <trkpt lat="48.86815" lon="2.29825">
        <ele>113.3</ele>
        <time>2013-08-05T20:22:34.000Z</time>
      </trkpt>
      <trkpt lat="48.86817" lon="2.29828">
        <ele>112.5</ele>
        <time>2013-08-05T20:22:35.000Z</time>
      </trkpt>
      <trkpt lat="48.86819" lon="2.2983">
        <ele>112.2</ele>
        <time>2013-08-05T20:22:36.000Z</time>
      </trkpt>
      <trkpt lat="48.86822" lon="2.29836">
        <ele>105.7</ele>
        <time>2013-08-05T20:22:37.000Z</time>
      </trkpt>
      <trkpt lat="48.86824" lon="2.29841">
        <ele>104.5</ele>
        <time>2013-08-05T20:22:38.000Z</time>
      </trkpt>
      <trkpt lat="48.86826" lon="2.29846">
        <ele>104.2</ele>
        <time>2013-08-05T20:22:39.000Z</time>
      </trkpt>
      <trkpt lat="48.86828" lon="2.29851">
        <ele>102</ele>
        <time>2013-08-05T20:22:40.000Z</time>
      </trkpt>
      <trkpt lat="48.8683" lon="2.29856">
        <ele>101.1</ele>
        <time>2013-08-05T20:22:41.000Z</time>
      </trkpt>
      <trkpt lat="48.86832" lon="2.2986">
        <ele>100.9</ele>
        <time>2013-08-05T20:22:42.000Z</time>
      </trkpt>
      <trkpt lat="48.86834" lon="2.29864">
        <ele>98</ele>
        <time>2013-08-05T20:22:43.000Z</time>
      </trkpt>
      <trkpt lat="48.86836" lon="2.29868">
        <ele>98.3</ele>
        <time>2013-08-05T20:22:44.000Z</time>
      </trkpt>
      <trkpt lat="48.86837" lon="2.29871">
        <ele>98.6</ele>
        <time>2013-08-05T20:22:45.000Z</time>
      </trkpt>
      <trkpt lat="48.8684" lon="2.29874">
        <ele>99.9</ele>
        <time>2013-08-05T20:22:46.000Z</time>
      </trkpt>
      <trkpt lat="48.86842" lon="2.29876">
        <ele>100.9</ele>
        <time>2013-08-05T20:22:47.000Z</time>
      </trkpt>
      <trkpt lat="48.86845" lon="2.29879">
        <ele>102.2</ele>
        <time>2013-08-05T20:22:48.000Z</time>
      </trkpt>
      <trkpt lat="48.86848" lon="2.29881">
        <ele>102.3</ele>
        <time>2013-08-05T20:22:49.000Z</time>
      </trkpt>
      <trkpt lat="48.8685" lon="2.29884">
        <ele>102.6</ele>
        <time>2013-08-05T20:22:50.000Z</time>
      </trkpt>
      <trkpt lat="48.86853" lon="2.29886">
        <ele>103.4</ele>
        <time>2013-08-05T20:22:51.000Z</time>
      </trkpt>
      <trkpt lat="48.86858" lon="2.29889">
        <ele>103.3</ele>
        <time>2013-08-05T20:22:52.623Z</time>
      </trkpt>
      <trkpt lat="48.86861" lon="2.29891">
        <ele>103.5</ele>
        <time>2013-08-05T20:22:54.000Z</time>
      </trkpt>
      <trkpt lat="48.86864" lon="2.29891">
        <ele>103.6</ele>
        <time>2013-08-05T20:22:55.000Z</time>
      </trkpt>
      <trkpt lat="48.86868" lon="2.29891">
        <ele>104.4</ele>
        <time>2013-08-05T20:22:58.000Z</time>
      </trkpt>
      <trkpt lat="48.86869" lon="2.2989">
        <ele>104.3</ele>
        <time>2013-08-05T20:22:59.000Z</time>
      </trkpt>
      <trkpt lat="48.86871" lon="2.29885">
        <ele>106.9</ele>
        <time>2013-08-05T20:23:04.000Z</time>
      </trkpt>
      <trkpt lat="48.86871" lon="2.29884">
        <ele>107.3</ele>
        <time>2013-08-05T20:23:05.000Z</time>
      </trkpt>
      <trkpt lat="48.86869" lon="2.29888">
        <ele>110.2</ele>
        <time>2013-08-05T20:23:07.000Z</time>
      </trkpt>
      <trkpt lat="48.86867" lon="2.29892">
        <ele>111</ele>
        <time>2013-08-05T20:23:08.000Z</time>
      </trkpt>
      <trkpt lat="48.86865" lon="2.29897">
        <ele>112.8</ele>
        <time>2013-08-05T20:23:10.000Z</time>
      </trkpt>
      <trkpt lat="48.86864" lon="2.299">
        <ele>113.2</ele>
        <time>2013-08-05T20:23:11.000Z</time>
      </trkpt>
      <trkpt lat="48.86864" lon="2.29905">
        <ele>111.5</ele>
        <time>2013-08-05T20:23:36.000Z</time>
      </trkpt>
      <trkpt lat="48.86865" lon="2.29907">
        <ele>109.9</ele>
        <time>2013-08-05T20:23:37.000Z</time>
      </trkpt>
      <trkpt lat="48.86867" lon="2.29909">
        <ele>109.8</ele>
        <time>2013-08-05T20:23:38.000Z</time>
      </trkpt>
      <trkpt lat="48.86868" lon="2.29912">
        <ele>109.3</ele>
        <time>2013-08-05T20:23:39.000Z</time>
      </trkpt>
      <trkpt lat="48.8687" lon="2.29915">
        <ele>109.9</ele>
        <time>2013-08-05T20:23:40.000Z</time>
      </trkpt>
      <trkpt lat="48.86872" lon="2.29918">
        <ele>109.3</ele>
        <time>2013-08-05T20:23:41.000Z</time>
      </trkpt>
      <trkpt lat="48.86876" lon="2.29921">
        <ele>110.2</ele>
        <time>2013-08-05T20:23:42.000Z</time>
      </trkpt>
      <trkpt lat="48.86879" lon="2.29924">
        <ele>110.2</ele>
        <time>2013-08-05T20:23:43.000Z</time>
      </trkpt>
      <trkpt lat="48.86882" lon="2.29928">
        <ele>109.2</ele>
        <time>2013-08-05T20:23:44.000Z</time>
      </trkpt>
      <trkpt lat="48.86884" lon="2.29933">
        <ele>109.4</ele>
        <time>2013-08-05T20:23:45.000Z</time>
      </trkpt>
      <trkpt lat="48.86887" lon="2.29937">
        <ele>108.8</ele>
        <time>2013-08-05T20:23:46.000Z</time>
      </trkpt>
      <trkpt lat="48.86889" lon="2.29941">
        <ele>108</ele>
        <time>2013-08-05T20:23:47.000Z</time>
      </trkpt>
      <trkpt lat="48.86892" lon="2.29945">
        <ele>107.9</ele>
        <time>2013-08-05T20:23:48.000Z</time>
      </trkpt>
      <trkpt lat="48.86894" lon="2.29948">
        <ele>108.1</ele>
        <time>2013-08-05T20:23:49.000Z</time>
      </trkpt>
      <trkpt lat="48.86896" lon="2.29952">
        <ele>107.8</ele>
        <time>2013-08-05T20:23:50.000Z</time>
      </trkpt>
      <trkpt lat="48.86898" lon="2.29956">
        <ele>106.7</ele>
        <time>2013-08-05T20:23:51.000Z</time>
      </trkpt>
      <trkpt lat="48.86904" lon="2.29968">
        <ele>106.1</ele>
        <time>2013-08-05T20:23:54.000Z</time>
      </trkpt>
      <trkpt lat="48.86906" lon="2.2997">
        <ele>104.8</ele>
        <time>2013-08-05T20:23:55.000Z</time>
      </trkpt>
      <trkpt lat="48.86909" lon="2.29973">
        <ele>104.4</ele>
        <time>2013-08-05T20:23:56.000Z</time>
      </trkpt>
      <trkpt lat="48.86911" lon="2.29976">
        <ele>103.5</ele>
        <time>2013-08-05T20:23:57.000Z</time>
      </trkpt>
      <trkpt lat="48.86914" lon="2.2998">
        <ele>103.5</ele>
        <time>2013-08-05T20:23:58.000Z</time>
      </trkpt>
      <trkpt lat="48.86917" lon="2.29984">
        <ele>104.2</ele>
        <time>2013-08-05T20:23:59.000Z</time>
      </trkpt>
      <trkpt lat="48.86921" lon="2.2999">
        <ele>104.3</ele>
        <time>2013-08-05T20:24:00.000Z</time>
      </trkpt>
      <trkpt lat="48.86927" lon="2.29998">
        <ele>104.3</ele>
        <time>2013-08-05T20:24:01.000Z</time>
      </trkpt>
      <trkpt lat="48.8693" lon="2.30003">
        <ele>104.2</ele>
        <time>2013-08-05T20:24:02.000Z</time>
      </trkpt>
      <trkpt lat="48.86932" lon="2.30007">
        <ele>105.3</ele>
        <time>2013-08-05T20:24:03.000Z</time>
      </trkpt>
      <trkpt lat="48.86939" lon="2.30009">
        <ele>106</ele>
        <time>2013-08-05T20:24:04.000Z</time>
      </trkpt>
      <trkpt lat="48.86943" lon="2.30015">
        <ele>105.4</ele>
        <time>2013-08-05T20:24:05.000Z</time>
      </trkpt>
      <trkpt lat="48.86946" lon="2.30018">
        <ele>105.1</ele>
        <time>2013-08-05T20:24:06.000Z</time>
      </trkpt>
      <trkpt lat="48.86949" lon="2.30019">
        <ele>105.6</ele>
        <time>2013-08-05T20:24:07.000Z</time>
      </trkpt>
      <trkpt lat="48.86954" lon="2.30021">
        <ele>106.6</ele>
        <time>2013-08-05T20:24:08.000Z</time>
      </trkpt>
      <trkpt lat="48.86956" lon="2.30032">
        <ele>101.7</ele>
        <time>2013-08-05T20:24:09.000Z</time>
      </trkpt>
      <trkpt lat="48.86959" lon="2.30037">
        <ele>100.5</ele>
        <time>2013-08-05T20:24:10.000Z</time>
      </trkpt>
      <trkpt lat="48.86962" lon="2.30041">
        <ele>98.5</ele>
        <time>2013-08-05T20:24:11.000Z</time>
      </trkpt>
      <trkpt lat="48.86964" lon="2.30046">
        <ele>96.9</ele>
        <time>2013-08-05T20:24:12.000Z</time>
      </trkpt>
      <trkpt lat="48.86966" lon="2.30051">
        <ele>96.5</ele>
        <time>2013-08-05T20:24:13.000Z</time>
      </trkpt>
      <trkpt lat="48.86968" lon="2.30056">
        <ele>95.5</ele>
        <time>2013-08-05T20:24:14.000Z</time>
      </trkpt>
      <trkpt lat="48.86971" lon="2.30061">
        <ele>95.9</ele>
        <time>2013-08-05T20:24:15.000Z</time>
      </trkpt>
      <trkpt lat="48.86973" lon="2.30066">
        <ele>95.2</ele>
        <time>2013-08-05T20:24:16.000Z</time>
      </trkpt>
      <trkpt lat="48.86975" lon="2.3007">
        <ele>94.6</ele>
        <time>2013-08-05T20:24:17.000Z</time>
      </trkpt>
      <trkpt lat="48.86978" lon="2.30072">
        <ele>94.5</ele>
        <time>2013-08-05T20:24:18.000Z</time>
      </trkpt>
      <trkpt lat="48.86982" lon="2.30075">
        <ele>94.4</ele>
        <time>2013-08-05T20:24:20.000Z</time>
      </trkpt>
      <trkpt lat="48.86983" lon="2.30077">
        <ele>94.8</ele>
        <time>2013-08-05T20:24:21.000Z</time>
      </trkpt>
      <trkpt lat="48.86986" lon="2.30082">
        <ele>93.9</ele>
        <time>2013-08-05T20:24:23.000Z</time>
      </trkpt>
      <trkpt lat="48.86988" lon="2.30085">
        <ele>93</ele>
        <time>2013-08-05T20:24:24.000Z</time>
      </trkpt>
      <trkpt lat="48.86989" lon="2.30088">
        <ele>93.9</ele>
        <time>2013-08-05T20:24:25.000Z</time>
      </trkpt>
      <trkpt lat="48.86991" lon="2.30091">
        <ele>93.1</ele>
        <time>2013-08-05T20:24:26.000Z</time>
      </trkpt>
      <trkpt lat="48.86994" lon="2.30094">
        <ele>91.6</ele>
        <time>2013-08-05T20:24:27.000Z</time>
      </trkpt>
      <trkpt lat="48.86996" lon="2.30097">
        <ele>91.3</ele>
        <time>2013-08-05T20:24:28.000Z</time>
      </trkpt>
      <trkpt lat="48.86998" lon="2.30099">
        <ele>92.1</ele>
        <time>2013-08-05T20:24:29.000Z</time>
      </trkpt>
      <trkpt lat="48.87" lon="2.30102">
        <ele>91.7</ele>
        <time>2013-08-05T20:24:30.000Z</time>
      </trkpt>
      <trkpt lat="48.87002" lon="2.30105">
        <ele>89.9</ele>
        <time>2013-08-05T20:24:31.000Z</time>
      </trkpt>
      <trkpt lat="48.87003" lon="2.30108">
        <ele>89</ele>
        <time>2013-08-05T20:24:32.000Z</time>
      </trkpt>
      <trkpt lat="48.87004" lon="2.30114">
        <ele>88.2</ele>
        <time>2013-08-05T20:24:35.000Z</time>
      </trkpt>
      <trkpt lat="48.87004" lon="2.30115">
        <ele>88.8</ele>
        <time>2013-08-05T20:24:36.000Z</time>
      </trkpt>
      <trkpt lat="48.87" lon="2.30118">
        <ele>93.4</ele>
        <time>2013-08-05T20:24:39.000Z</time>
      </trkpt>
      <trkpt lat="48.86998" lon="2.30119">
        <ele>94.5</ele>
        <time>2013-08-05T20:24:40.000Z</time>
      </trkpt>
      <trkpt lat="48.86996" lon="2.30122">
        <ele>95.6</ele>
        <time>2013-08-05T20:24:42.000Z</time>
      </trkpt>
      <trkpt lat="48.86994" lon="2.30125">
        <ele>98.4</ele>
        <time>2013-08-05T20:24:43.000Z</time>
      </trkpt>
      <trkpt lat="48.86993" lon="2.30129">
        <ele>99.8</ele>
        <time>2013-08-05T20:24:44.000Z</time>
      </trkpt>
      <trkpt lat="48.86991" lon="2.30132">
        <ele>100.5</ele>
        <time>2013-08-05T20:24:45.000Z</time>
      </trkpt>
      <trkpt lat="48.86989" lon="2.30135">
        <ele>100.6</ele>
        <time>2013-08-05T20:24:46.000Z</time>
      </trkpt>
      <trkpt lat="48.86987" lon="2.30139">
        <ele>101.5</ele>
        <time>2013-08-05T20:24:47.000Z</time>
      </trkpt>
      <trkpt lat="48.86985" lon="2.30142">
        <ele>102</ele>
        <time>2013-08-05T20:24:48.000Z</time>
      </trkpt>
      <trkpt lat="48.86982" lon="2.30146">
        <ele>103.6</ele>
        <time>2013-08-05T20:24:49.000Z</time>
      </trkpt>
      <trkpt lat="48.8698" lon="2.30151">
        <ele>104.7</ele>
        <time>2013-08-05T20:24:50.000Z</time>
      </trkpt>
      <trkpt lat="48.86979" lon="2.30154">
        <ele>104</ele>
        <time>2013-08-05T20:24:51.000Z</time>
      </trkpt>
      <trkpt lat="48.86975" lon="2.30164">
        <ele>103.7</ele>
        <time>2013-08-05T20:24:54.000Z</time>
      </trkpt>
      <trkpt lat="48.86974" lon="2.30167">
        <ele>103.8</ele>
        <time>2013-08-05T20:24:55.000Z</time>
      </trkpt>
      <trkpt lat="48.86973" lon="2.30171">
        <ele>105.9</ele>
        <time>2013-08-05T20:24:56.000Z</time>
      </trkpt>
      <trkpt lat="48.86971" lon="2.30174">
        <ele>104.5</ele>
        <time>2013-08-05T20:24:57.000Z</time>
      </trkpt>
      <trkpt lat="48.8697" lon="2.30177">
        <ele>104.6</ele>
        <time>2013-08-05T20:24:58.000Z</time>
      </trkpt>
      <trkpt lat="48.86968" lon="2.30179">
        <ele>103.2</ele>
        <time>2013-08-05T20:24:59.000Z</time>
      </trkpt>
      <trkpt lat="48.86966" lon="2.30181">
        <ele>103.7</ele>
        <time>2013-08-05T20:25:00.000Z</time>
      </trkpt>
      <trkpt lat="48.86964" lon="2.30184">
        <ele>103.8</ele>
        <time>2013-08-05T20:25:01.000Z</time>
      </trkpt>
      <trkpt lat="48.86961" lon="2.30187">
        <ele>104.2</ele>
        <time>2013-08-05T20:25:02.000Z</time>
      </trkpt>
      <trkpt lat="48.86959" lon="2.30191">
        <ele>103.8</ele>
        <time>2013-08-05T20:25:03.000Z</time>
      </trkpt>
      <trkpt lat="48.86957" lon="2.30196">
        <ele>104.8</ele>
        <time>2013-08-05T20:25:04.000Z</time>
      </trkpt>
      <trkpt lat="48.86954" lon="2.302">
        <ele>104.9</ele>
        <time>2013-08-05T20:25:05.000Z</time>
      </trkpt>
      <trkpt lat="48.86952" lon="2.30205">
        <ele>105.1</ele>
        <time>2013-08-05T20:25:06.000Z</time>
      </trkpt>
      <trkpt lat="48.8695" lon="2.30209">
        <ele>105.9</ele>
        <time>2013-08-05T20:25:07.000Z</time>
      </trkpt>
      <trkpt lat="48.86948" lon="2.30214">
        <ele>105.9</ele>
        <time>2013-08-05T20:25:08.000Z</time>
      </trkpt>
      <trkpt lat="48.86948" lon="2.30218">
        <ele>106.1</ele>
        <time>2013-08-05T20:25:09.000Z</time>
      </trkpt>
      <trkpt lat="48.86947" lon="2.30222">
        <ele>105</ele>
        <time>2013-08-05T20:25:10.000Z</time>
      </trkpt>
      <trkpt lat="48.86946" lon="2.30226">
        <ele>106</ele>
        <time>2013-08-05T20:25:11.000Z</time>
      </trkpt>
      <trkpt lat="48.86945" lon="2.30232">
        <ele>98</ele>
        <time>2013-08-05T20:25:12.000Z</time>
      </trkpt>
      <trkpt lat="48.86944" lon="2.30237">
        <ele>97.8</ele>
        <time>2013-08-05T20:25:13.000Z</time>
      </trkpt>
      <trkpt lat="48.86944" lon="2.30241">
        <ele>97.8</ele>
        <time>2013-08-05T20:25:14.000Z</time>
      </trkpt>
      <trkpt lat="48.86943" lon="2.30246">
        <ele>97.6</ele>
        <time>2013-08-05T20:25:15.000Z</time>
      </trkpt>
      <trkpt lat="48.86942" lon="2.30251">
        <ele>97.6</ele>
        <time>2013-08-05T20:25:16.000Z</time>
      </trkpt>
      <trkpt lat="48.86941" lon="2.30256">
        <ele>97.7</ele>
        <time>2013-08-05T20:25:17.000Z</time>
      </trkpt>
      <trkpt lat="48.8694" lon="2.30261">
        <ele>97.7</ele>
        <time>2013-08-05T20:25:18.000Z</time>
      </trkpt>
      <trkpt lat="48.86939" lon="2.30266">
        <ele>96.9</ele>
        <time>2013-08-05T20:25:19.000Z</time>
      </trkpt>
      <trkpt lat="48.86938" lon="2.30271">
        <ele>95.5</ele>
        <time>2013-08-05T20:25:20.000Z</time>
      </trkpt>
      <trkpt lat="48.86936" lon="2.30275">
        <ele>94.8</ele>
        <time>2013-08-05T20:25:21.000Z</time>
      </trkpt>
      <trkpt lat="48.86935" lon="2.30279">
        <ele>94.5</ele>
        <time>2013-08-05T20:25:22.000Z</time>
      </trkpt>
      <trkpt lat="48.86933" lon="2.30282">
        <ele>95</ele>
        <time>2013-08-05T20:25:23.000Z</time>
      </trkpt>
      <trkpt lat="48.86931" lon="2.30284">
        <ele>95</ele>
        <time>2013-08-05T20:25:24.000Z</time>
      </trkpt>
      <trkpt lat="48.86929" lon="2.30287">
        <ele>94</ele>
        <time>2013-08-05T20:25:25.000Z</time>
      </trkpt>
      <trkpt lat="48.86927" lon="2.30289">
        <ele>94</ele>
        <time>2013-08-05T20:25:26.000Z</time>
      </trkpt>
      <trkpt lat="48.86924" lon="2.30291">
        <ele>93.2</ele>
        <time>2013-08-05T20:25:27.000Z</time>
      </trkpt>
      <trkpt lat="48.86922" lon="2.30293">
        <ele>93.5</ele>
        <time>2013-08-05T20:25:28.000Z</time>
      </trkpt>
      <trkpt lat="48.86919" lon="2.30295">
        <ele>93.8</ele>
        <time>2013-08-05T20:25:29.000Z</time>
      </trkpt>
      <trkpt lat="48.86917" lon="2.30298">
        <ele>94.2</ele>
        <time>2013-08-05T20:25:30.000Z</time>
      </trkpt>
      <trkpt lat="48.86916" lon="2.30301">
        <ele>93.9</ele>
        <time>2013-08-05T20:25:31.000Z</time>
      </trkpt>
      <trkpt lat="48.86915" lon="2.30304">
        <ele>94.1</ele>
        <time>2013-08-05T20:25:32.000Z</time>
      </trkpt>
      <trkpt lat="48.86914" lon="2.30309">
        <ele>95.4</ele>
        <time>2013-08-05T20:25:34.000Z</time>
      </trkpt>
      <trkpt lat="48.86913" lon="2.30311">
        <ele>96.2</ele>
        <time>2013-08-05T20:25:35.000Z</time>
      </trkpt>
      <trkpt lat="48.8691" lon="2.30316">
        <ele>97.6</ele>
        <time>2013-08-05T20:25:37.000Z</time>
      </trkpt>
      <trkpt lat="48.86909" lon="2.30318">
        <ele>97.4</ele>
        <time>2013-08-05T20:25:38.000Z</time>
      </trkpt>
      <trkpt lat="48.86907" lon="2.30324">
        <ele>97.6</ele>
        <time>2013-08-05T20:25:40.000Z</time>
      </trkpt>
      <trkpt lat="48.86906" lon="2.30326">
        <ele>97.9</ele>
        <time>2013-08-05T20:25:41.000Z</time>
      </trkpt>
      <trkpt lat="48.86904" lon="2.30332">
        <ele>99.3</ele>
        <time>2013-08-05T20:25:43.000Z</time>
      </trkpt>
      <trkpt lat="48.86904" lon="2.30334">
        <ele>100.4</ele>
        <time>2013-08-05T20:25:44.000Z</time>
      </trkpt>
      <trkpt lat="48.86901" lon="2.3034">
        <ele>103.8</ele>
        <time>2013-08-05T20:25:47.000Z</time>
      </trkpt>
      <trkpt lat="48.869" lon="2.30341">
        <ele>103.5</ele>
        <time>2013-08-05T20:25:48.000Z</time>
      </trkpt>
      <trkpt lat="48.86899" lon="2.30345">
        <ele>103.1</ele>
        <time>2013-08-05T20:25:50.000Z</time>
      </trkpt>
      <trkpt lat="48.86898" lon="2.30348">
        <ele>103.5</ele>
        <time>2013-08-05T20:25:51.000Z</time>
      </trkpt>
      <trkpt lat="48.86897" lon="2.30353">
        <ele>103.4</ele>
        <time>2013-08-05T20:25:53.000Z</time>
      </trkpt>
      <trkpt lat="48.86896" lon="2.30356">
        <ele>101.9</ele>
        <time>2013-08-05T20:25:54.000Z</time>
      </trkpt>
      <trkpt lat="48.86894" lon="2.30359">
        <ele>101.6</ele>
        <time>2013-08-05T20:25:55.000Z</time>
      </trkpt>
      <trkpt lat="48.86893" lon="2.30362">
        <ele>101</ele>
        <time>2013-08-05T20:25:56.000Z</time>
      </trkpt>
      <trkpt lat="48.86891" lon="2.30365">
        <ele>99.9</ele>
        <time>2013-08-05T20:25:57.000Z</time>
      </trkpt>
      <trkpt lat="48.86889" lon="2.30369">
        <ele>98.6</ele>
        <time>2013-08-05T20:25:58.000Z</time>
      </trkpt>
      <trkpt lat="48.86886" lon="2.30373">
        <ele>100.2</ele>
        <time>2013-08-05T20:25:59.000Z</time>
      </trkpt>
      <trkpt lat="48.86883" lon="2.30376">
        <ele>101.6</ele>
        <time>2013-08-05T20:26:00.000Z</time>
      </trkpt>
      <trkpt lat="48.86881" lon="2.30378">
        <ele>102.9</ele>
        <time>2013-08-05T20:26:01.000Z</time>
      </trkpt>
      <trkpt lat="48.86877" lon="2.30383">
        <ele>101.2</ele>
        <time>2013-08-05T20:26:02.000Z</time>
      </trkpt>
      <trkpt lat="48.86873" lon="2.30387">
        <ele>100.5</ele>
        <time>2013-08-05T20:26:03.000Z</time>
      </trkpt>
      <trkpt lat="48.86869" lon="2.30391">
        <ele>100</ele>
        <time>2013-08-05T20:26:04.000Z</time>
      </trkpt>
      <trkpt lat="48.86865" lon="2.30396">
        <ele>99.7</ele>
        <time>2013-08-05T20:26:05.000Z</time>
      </trkpt>
      <trkpt lat="48.86861" lon="2.304">
        <ele>100.2</ele>
        <time>2013-08-05T20:26:06.000Z</time>
      </trkpt>
      <trkpt lat="48.86857" lon="2.30404">
        <ele>101.2</ele>
        <time>2013-08-05T20:26:07.000Z</time>
      </trkpt>
      <trkpt lat="48.86854" lon="2.30408">
        <ele>102.5</ele>
        <time>2013-08-05T20:26:08.000Z</time>
      </trkpt>
      <trkpt lat="48.8685" lon="2.30413">
        <ele>102.5</ele>
        <time>2013-08-05T20:26:09.000Z</time>
      </trkpt>
      <trkpt lat="48.86848" lon="2.30417">
        <ele>101.8</ele>
        <time>2013-08-05T20:26:10.000Z</time>
      </trkpt>
      <trkpt lat="48.86845" lon="2.30422">
        <ele>101.9</ele>
        <time>2013-08-05T20:26:11.000Z</time>
      </trkpt>
      <trkpt lat="48.86842" lon="2.30427">
        <ele>100.8</ele>
        <time>2013-08-05T20:26:12.000Z</time>
      </trkpt>
      <trkpt lat="48.86838" lon="2.30432">
        <ele>97.9</ele>
        <time>2013-08-05T20:26:13.000Z</time>
      </trkpt>
      <trkpt lat="48.86836" lon="2.30436">
        <ele>97.7</ele>
        <time>2013-08-05T20:26:14.000Z</time>
      </trkpt>
      <trkpt lat="48.86832" lon="2.30443">
        <ele>95.7</ele>
        <time>2013-08-05T20:26:15.000Z</time>
      </trkpt>
      <trkpt lat="48.8683" lon="2.30449">
        <ele>97.3</ele>
        <time>2013-08-05T20:26:16.000Z</time>
      </trkpt>
      <trkpt lat="48.86827" lon="2.30454">
        <ele>97.9</ele>
        <time>2013-08-05T20:26:17.000Z</time>
      </trkpt>
      <trkpt lat="48.86824" lon="2.30459">
        <ele>97.2</ele>
        <time>2013-08-05T20:26:18.000Z</time>
      </trkpt>
      <trkpt lat="48.86821" lon="2.30463">
        <ele>95.7</ele>
        <time>2013-08-05T20:26:19.000Z</time>
      </trkpt>
      <trkpt lat="48.86819" lon="2.30466">
        <ele>95</ele>
        <time>2013-08-05T20:26:20.000Z</time>
      </trkpt>
      <trkpt lat="48.86817" lon="2.3047">
        <ele>97.3</ele>
        <time>2013-08-05T20:26:21.000Z</time>
      </trkpt>
      <trkpt lat="48.86814" lon="2.30474">
        <ele>96.8</ele>
        <time>2013-08-05T20:26:22.000Z</time>
      </trkpt>
      <trkpt lat="48.86812" lon="2.30477">
        <ele>97.6</ele>
        <time>2013-08-05T20:26:23.000Z</time>
      </trkpt>
      <trkpt lat="48.86809" lon="2.30481">
        <ele>97.7</ele>
        <time>2013-08-05T20:26:24.000Z</time>
      </trkpt>
      <trkpt lat="48.86806" lon="2.30484">
        <ele>97.9</ele>
        <time>2013-08-05T20:26:25.000Z</time>
      </trkpt>
      <trkpt lat="48.86803" lon="2.30488">
        <ele>97.8</ele>
        <time>2013-08-05T20:26:26.000Z</time>
      </trkpt>
      <trkpt lat="48.868" lon="2.30492">
        <ele>98.4</ele>
        <time>2013-08-05T20:26:27.000Z</time>
      </trkpt>
      <trkpt lat="48.86797" lon="2.30497">
        <ele>99</ele>
        <time>2013-08-05T20:26:28.000Z</time>
      </trkpt>
      <trkpt lat="48.86793" lon="2.30502">
        <ele>98</ele>
        <time>2013-08-05T20:26:29.000Z</time>
      </trkpt>
      <trkpt lat="48.86789" lon="2.30508">
        <ele>98.3</ele>
        <time>2013-08-05T20:26:30.000Z</time>
      </trkpt>
      <trkpt lat="48.86785" lon="2.30516">
        <ele>98.2</ele>
        <time>2013-08-05T20:26:31.000Z</time>
      </trkpt>
      <trkpt lat="48.86783" lon="2.30521">
        <ele>98.6</ele>
        <time>2013-08-05T20:26:32.000Z</time>
      </trkpt>
      <trkpt lat="48.86779" lon="2.30525">
        <ele>97.4</ele>
        <time>2013-08-05T20:26:33.000Z</time>
      </trkpt>
      <trkpt lat="48.86776" lon="2.30532">
        <ele>97.4</ele>
        <time>2013-08-05T20:26:34.000Z</time>
      </trkpt>
      <trkpt lat="48.86773" lon="2.30539">
        <ele>96.5</ele>
        <time>2013-08-05T20:26:35.000Z</time>
      </trkpt>
      <trkpt lat="48.86769" lon="2.30545">
        <ele>96.8</ele>
        <time>2013-08-05T20:26:36.000Z</time>
      </trkpt>
      <trkpt lat="48.86766" lon="2.3055">
        <ele>96.4</ele>
        <time>2013-08-05T20:26:37.000Z</time>
      </trkpt>
      <trkpt lat="48.86763" lon="2.30557">
        <ele>95.2</ele>
        <time>2013-08-05T20:26:38.000Z</time>
      </trkpt>
      <trkpt lat="48.8676" lon="2.30563">
        <ele>95.3</ele>
        <time>2013-08-05T20:26:39.000Z</time>
      </trkpt>
      <trkpt lat="48.86756" lon="2.30569">
        <ele>94</ele>
        <time>2013-08-05T20:26:40.000Z</time>
      </trkpt>
      <trkpt lat="48.86754" lon="2.30576">
        <ele>93.7</ele>
        <time>2013-08-05T20:26:41.000Z</time>
      </trkpt>
      <trkpt lat="48.8675" lon="2.30582">
        <ele>93.6</ele>
        <time>2013-08-05T20:26:42.000Z</time>
      </trkpt>
      <trkpt lat="48.86746" lon="2.30587">
        <ele>92.9</ele>
        <time>2013-08-05T20:26:43.000Z</time>
      </trkpt>
      <trkpt lat="48.86742" lon="2.30595">
        <ele>91.1</ele>
        <time>2013-08-05T20:26:44.000Z</time>
      </trkpt>
      <trkpt lat="48.86737" lon="2.30602">
        <ele>89.4</ele>
        <time>2013-08-05T20:26:45.000Z</time>
      </trkpt>
      <trkpt lat="48.86733" lon="2.30609">
        <ele>88.1</ele>
        <time>2013-08-05T20:26:46.000Z</time>
      </trkpt>
      <trkpt lat="48.86727" lon="2.30613">
        <ele>87.5</ele>
        <time>2013-08-05T20:26:47.000Z</time>
      </trkpt>
      <trkpt lat="48.86723" lon="2.3062">
        <ele>88.4</ele>
        <time>2013-08-05T20:26:48.000Z</time>
      </trkpt>
      <trkpt lat="48.86719" lon="2.30626">
        <ele>87.9</ele>
        <time>2013-08-05T20:26:49.000Z</time>
      </trkpt>
      <trkpt lat="48.86716" lon="2.30628">
        <ele>88.6</ele>
        <time>2013-08-05T20:26:50.000Z</time>
      </trkpt>
      <trkpt lat="48.86713" lon="2.30634">
        <ele>88.6</ele>
        <time>2013-08-05T20:26:51.000Z</time>
      </trkpt>
      <trkpt lat="48.8671" lon="2.30639">
        <ele>88.2</ele>
        <time>2013-08-05T20:26:52.000Z</time>
      </trkpt>
      <trkpt lat="48.86707" lon="2.30643">
        <ele>87.2</ele>
        <time>2013-08-05T20:26:53.000Z</time>
      </trkpt>
      <trkpt lat="48.86703" lon="2.30646">
        <ele>88</ele>
        <time>2013-08-05T20:26:54.000Z</time>
      </trkpt>
      <trkpt lat="48.867" lon="2.30649">
        <ele>89.4</ele>
        <time>2013-08-05T20:26:55.000Z</time>
      </trkpt>
      <trkpt lat="48.86699" lon="2.30653">
        <ele>88.8</ele>
        <time>2013-08-05T20:26:56.000Z</time>
      </trkpt>
      <trkpt lat="48.86697" lon="2.30657">
        <ele>90.3</ele>
        <time>2013-08-05T20:26:57.000Z</time>
      </trkpt>
      <trkpt lat="48.86695" lon="2.3066">
        <ele>90.4</ele>
        <time>2013-08-05T20:26:58.000Z</time>
      </trkpt>
      <trkpt lat="48.86693" lon="2.30664">
        <ele>90.6</ele>
        <time>2013-08-05T20:26:59.000Z</time>
      </trkpt>
      <trkpt lat="48.86691" lon="2.30664">
        <ele>92.1</ele>
        <time>2013-08-05T20:27:00.000Z</time>
      </trkpt>
      <trkpt lat="48.8669" lon="2.30669">
        <ele>91.2</ele>
        <time>2013-08-05T20:27:01.000Z</time>
      </trkpt>
      <trkpt lat="48.86687" lon="2.30675">
        <ele>91.6</ele>
        <time>2013-08-05T20:27:02.000Z</time>
      </trkpt>
      <trkpt lat="48.86686" lon="2.30679">
        <ele>92.7</ele>
        <time>2013-08-05T20:27:03.000Z</time>
      </trkpt>
      <trkpt lat="48.86683" lon="2.30682">
        <ele>93.4</ele>
        <time>2013-08-05T20:27:04.000Z</time>
      </trkpt>
      <trkpt lat="48.86681" lon="2.30686">
        <ele>93.1</ele>
        <time>2013-08-05T20:27:05.000Z</time>
      </trkpt>
      <trkpt lat="48.86679" lon="2.30689">
        <ele>93.9</ele>
        <time>2013-08-05T20:27:06.000Z</time>
      </trkpt>
      <trkpt lat="48.86677" lon="2.30693">
        <ele>94.5</ele>
        <time>2013-08-05T20:27:07.000Z</time>
      </trkpt>
      <trkpt lat="48.86676" lon="2.30695">
        <ele>94.9</ele>
        <time>2013-08-05T20:27:08.000Z</time>
      </trkpt>
      <trkpt lat="48.86674" lon="2.30698">
        <ele>94.1</ele>
        <time>2013-08-05T20:27:09.000Z</time>
      </trkpt>
      <trkpt lat="48.86672" lon="2.30702">
        <ele>94.1</ele>
        <time>2013-08-05T20:27:10.000Z</time>
      </trkpt>
      <trkpt lat="48.8667" lon="2.30705">
        <ele>94.4</ele>
        <time>2013-08-05T20:27:11.000Z</time>
      </trkpt>
      <trkpt lat="48.86668" lon="2.30709">
        <ele>95.4</ele>
        <time>2013-08-05T20:27:12.000Z</time>
      </trkpt>
      <trkpt lat="48.86665" lon="2.30712">
        <ele>96.5</ele>
        <time>2013-08-05T20:27:13.000Z</time>
      </trkpt>
      <trkpt lat="48.86663" lon="2.30715">
        <ele>97</ele>
        <time>2013-08-05T20:27:14.000Z</time>
      </trkpt>
      <trkpt lat="48.8666" lon="2.30719">
        <ele>97.1</ele>
        <time>2013-08-05T20:27:15.000Z</time>
      </trkpt>
      <trkpt lat="48.86658" lon="2.30723">
        <ele>97.5</ele>
        <time>2013-08-05T20:27:16.000Z</time>
      </trkpt>
      <trkpt lat="48.86657" lon="2.30728">
        <ele>97.3</ele>
        <time>2013-08-05T20:27:17.000Z</time>
      </trkpt>
      <trkpt lat="48.86655" lon="2.30733">
        <ele>96.6</ele>
        <time>2013-08-05T20:27:18.000Z</time>
      </trkpt>
      <trkpt lat="48.86653" lon="2.30737">
        <ele>95.3</ele>
        <time>2013-08-05T20:27:19.000Z</time>
      </trkpt>
      <trkpt lat="48.8665" lon="2.3074">
        <ele>95.1</ele>
        <time>2013-08-05T20:27:20.000Z</time>
      </trkpt>
      <trkpt lat="48.86649" lon="2.30744">
        <ele>93.4</ele>
        <time>2013-08-05T20:27:21.000Z</time>
      </trkpt>
      <trkpt lat="48.86646" lon="2.30747">
        <ele>91.3</ele>
        <time>2013-08-05T20:27:22.000Z</time>
      </trkpt>
      <trkpt lat="48.86643" lon="2.3075">
        <ele>89.5</ele>
        <time>2013-08-05T20:27:23.000Z</time>
      </trkpt>
      <trkpt lat="48.86639" lon="2.30751">
        <ele>89</ele>
        <time>2013-08-05T20:27:24.000Z</time>
      </trkpt>
      <trkpt lat="48.86635" lon="2.30751">
        <ele>88.8</ele>
        <time>2013-08-05T20:27:25.000Z</time>
      </trkpt>
      <trkpt lat="48.86632" lon="2.30752">
        <ele>89.4</ele>
        <time>2013-08-05T20:27:26.000Z</time>
      </trkpt>
      <trkpt lat="48.86629" lon="2.30752">
        <ele>89.8</ele>
        <time>2013-08-05T20:27:27.000Z</time>
      </trkpt>
      <trkpt lat="48.86627" lon="2.30753">
        <ele>88.2</ele>
        <time>2013-08-05T20:27:28.000Z</time>
      </trkpt>
      <trkpt lat="48.86624" lon="2.30757">
        <ele>87.5</ele>
        <time>2013-08-05T20:27:30.000Z</time>
      </trkpt>
      <trkpt lat="48.86622" lon="2.30761">
        <ele>88.9</ele>
        <time>2013-08-05T20:27:31.000Z</time>
      </trkpt>
      <trkpt lat="48.86621" lon="2.30764">
        <ele>88.6</ele>
        <time>2013-08-05T20:27:32.000Z</time>
      </trkpt>
      <trkpt lat="48.86619" lon="2.30769">
        <ele>88.3</ele>
        <time>2013-08-05T20:27:33.000Z</time>
      </trkpt>
      <trkpt lat="48.86616" lon="2.30773">
        <ele>87.3</ele>
        <time>2013-08-05T20:27:34.000Z</time>
      </trkpt>
      <trkpt lat="48.86614" lon="2.30777">
        <ele>87.5</ele>
        <time>2013-08-05T20:27:35.000Z</time>
      </trkpt>
      <trkpt lat="48.86612" lon="2.30781">
        <ele>86.2</ele>
        <time>2013-08-05T20:27:36.000Z</time>
      </trkpt>
      <trkpt lat="48.8661" lon="2.30785">
        <ele>86.6</ele>
        <time>2013-08-05T20:27:37.000Z</time>
      </trkpt>
      <trkpt lat="48.86606" lon="2.30787">
        <ele>86.2</ele>
        <time>2013-08-05T20:27:39.000Z</time>
      </trkpt>
      <trkpt lat="48.86605" lon="2.30787">
        <ele>84.9</ele>
        <time>2013-08-05T20:27:40.000Z</time>
      </trkpt>
      <trkpt lat="48.86601" lon="2.30789">
        <ele>87.2</ele>
        <time>2013-08-05T20:27:45.000Z</time>
      </trkpt>
      <trkpt lat="48.866" lon="2.30789">
        <ele>86.4</ele>
        <time>2013-08-05T20:27:46.000Z</time>
      </trkpt>
      <trkpt lat="48.86596" lon="2.3079">
        <ele>87.2</ele>
        <time>2013-08-05T20:27:49.000Z</time>
      </trkpt>
      <trkpt lat="48.86595" lon="2.30791">
        <ele>88.1</ele>
        <time>2013-08-05T20:27:50.000Z</time>
      </trkpt>
      <trkpt lat="48.86593" lon="2.30792">
        <ele>87.7</ele>
        <time>2013-08-05T20:27:51.000Z</time>
      </trkpt>
      <trkpt lat="48.8659" lon="2.30794">
        <ele>87.1</ele>
        <time>2013-08-05T20:27:52.000Z</time>
      </trkpt>
      <trkpt lat="48.86588" lon="2.30795">
        <ele>87.4</ele>
        <time>2013-08-05T20:27:53.000Z</time>
      </trkpt>
      <trkpt lat="48.86585" lon="2.30797">
        <ele>88.6</ele>
        <time>2013-08-05T20:27:54.000Z</time>
      </trkpt>
      <trkpt lat="48.86582" lon="2.30799">
        <ele>88.8</ele>
        <time>2013-08-05T20:27:55.000Z</time>
      </trkpt>
      <trkpt lat="48.86579" lon="2.30801">
        <ele>88.5</ele>
        <time>2013-08-05T20:27:56.000Z</time>
      </trkpt>
      <trkpt lat="48.86576" lon="2.30803">
        <ele>89</ele>
        <time>2013-08-05T20:27:57.000Z</time>
      </trkpt>
      <trkpt lat="48.86573" lon="2.30805">
        <ele>88.5</ele>
        <time>2013-08-05T20:27:58.000Z</time>
      </trkpt>
      <trkpt lat="48.8657" lon="2.30806">
        <ele>87.9</ele>
        <time>2013-08-05T20:27:59.000Z</time>
      </trkpt>
      <trkpt lat="48.86567" lon="2.30807">
        <ele>87.2</ele>
        <time>2013-08-05T20:28:00.000Z</time>
      </trkpt>
      <trkpt lat="48.86564" lon="2.30808">
        <ele>86.6</ele>
        <time>2013-08-05T20:28:01.000Z</time>
      </trkpt>
      <trkpt lat="48.86562" lon="2.30808">
        <ele>86.2</ele>
        <time>2013-08-05T20:28:02.000Z</time>
      </trkpt>
      <trkpt lat="48.86557" lon="2.30809">
        <ele>85.3</ele>
        <time>2013-08-05T20:28:03.000Z</time>
      </trkpt>
      <trkpt lat="48.86554" lon="2.30809">
        <ele>85.2</ele>
        <time>2013-08-05T20:28:04.000Z</time>
      </trkpt>
      <trkpt lat="48.8655" lon="2.30809">
        <ele>85</ele>
        <time>2013-08-05T20:28:05.000Z</time>
      </trkpt>
      <trkpt lat="48.86546" lon="2.30809">
        <ele>84.9</ele>
        <time>2013-08-05T20:28:06.000Z</time>
      </trkpt>
      <trkpt lat="48.86543" lon="2.3081">
        <ele>85.6</ele>
        <time>2013-08-05T20:28:07.000Z</time>
      </trkpt>
      <trkpt lat="48.8654" lon="2.3081">
        <ele>84.3</ele>
        <time>2013-08-05T20:28:08.000Z</time>
      </trkpt>
      <trkpt lat="48.86537" lon="2.30811">
        <ele>82.7</ele>
        <time>2013-08-05T20:28:09.000Z</time>
      </trkpt>
      <trkpt lat="48.86535" lon="2.30812">
        <ele>80.9</ele>
        <time>2013-08-05T20:28:10.000Z</time>
      </trkpt>
      <trkpt lat="48.86533" lon="2.30813">
        <ele>80.7</ele>
        <time>2013-08-05T20:28:11.000Z</time>
      </trkpt>
      <trkpt lat="48.8653" lon="2.30814">
        <ele>81.1</ele>
        <time>2013-08-05T20:28:12.000Z</time>
      </trkpt>
      <trkpt lat="48.86527" lon="2.30815">
        <ele>80.9</ele>
        <time>2013-08-05T20:28:13.000Z</time>
      </trkpt>
      <trkpt lat="48.86525" lon="2.30815">
        <ele>81.2</ele>
        <time>2013-08-05T20:28:14.000Z</time>
      </trkpt>
      <trkpt lat="48.86521" lon="2.30815">
        <ele>81.7</ele>
        <time>2013-08-05T20:28:15.000Z</time>
      </trkpt>
      <trkpt lat="48.86518" lon="2.30816">
        <ele>81.3</ele>
        <time>2013-08-05T20:28:16.000Z</time>
      </trkpt>
      <trkpt lat="48.86515" lon="2.30816">
        <ele>80.2</ele>
        <time>2013-08-05T20:28:17.000Z</time>
      </trkpt>
      <trkpt lat="48.86512" lon="2.30817">
        <ele>80.1</ele>
        <time>2013-08-05T20:28:18.000Z</time>
      </trkpt>
      <trkpt lat="48.86509" lon="2.30819">
        <ele>81.3</ele>
        <time>2013-08-05T20:28:19.000Z</time>
      </trkpt>
      <trkpt lat="48.86507" lon="2.30821">
        <ele>80.7</ele>
        <time>2013-08-05T20:28:20.000Z</time>
      </trkpt>
      <trkpt lat="48.86505" lon="2.30823">
        <ele>80.9</ele>
        <time>2013-08-05T20:28:21.000Z</time>
      </trkpt>
      <trkpt lat="48.86503" lon="2.30825">
        <ele>81.3</ele>
        <time>2013-08-05T20:28:22.000Z</time>
      </trkpt>
      <trkpt lat="48.86501" lon="2.30828">
        <ele>81</ele>
        <time>2013-08-05T20:28:23.000Z</time>
      </trkpt>
      <trkpt lat="48.865" lon="2.30831">
        <ele>80.1</ele>
        <time>2013-08-05T20:28:24.000Z</time>
      </trkpt>
      <trkpt lat="48.865" lon="2.30834">
        <ele>81</ele>
        <time>2013-08-05T20:28:25.000Z</time>
      </trkpt>
      <trkpt lat="48.86499" lon="2.30838">
        <ele>81.9</ele>
        <time>2013-08-05T20:28:26.000Z</time>
      </trkpt>
      <trkpt lat="48.865" lon="2.30844">
        <ele>82.7</ele>
        <time>2013-08-05T20:28:28.000Z</time>
      </trkpt>
      <trkpt lat="48.86499" lon="2.30847">
        <ele>82.6</ele>
        <time>2013-08-05T20:28:29.000Z</time>
      </trkpt>
      <trkpt lat="48.86499" lon="2.30851">
        <ele>83.2</ele>
        <time>2013-08-05T20:28:30.000Z</time>
      </trkpt>
      <trkpt lat="48.86498" lon="2.30855">
        <ele>82.8</ele>
        <time>2013-08-05T20:28:31.000Z</time>
      </trkpt>
      <trkpt lat="48.86497" lon="2.30859">
        <ele>83.2</ele>
        <time>2013-08-05T20:28:32.000Z</time>
      </trkpt>
      <trkpt lat="48.86496" lon="2.30863">
        <ele>81.5</ele>
        <time>2013-08-05T20:28:33.000Z</time>
      </trkpt>
      <trkpt lat="48.86496" lon="2.30867">
        <ele>81.5</ele>
        <time>2013-08-05T20:28:34.000Z</time>
      </trkpt>
      <trkpt lat="48.86495" lon="2.3087">
        <ele>81.7</ele>
        <time>2013-08-05T20:28:35.000Z</time>
      </trkpt>
      <trkpt lat="48.86495" lon="2.30875">
        <ele>81.7</ele>
        <time>2013-08-05T20:28:36.000Z</time>
      </trkpt>
      <trkpt lat="48.86495" lon="2.3088">
        <ele>81.9</ele>
        <time>2013-08-05T20:28:37.000Z</time>
      </trkpt>
      <trkpt lat="48.86495" lon="2.30885">
        <ele>81.9</ele>
        <time>2013-08-05T20:28:38.000Z</time>
      </trkpt>
      <trkpt lat="48.86494" lon="2.3089">
        <ele>82</ele>
        <time>2013-08-05T20:28:39.000Z</time>
      </trkpt>
      <trkpt lat="48.86495" lon="2.30896">
        <ele>81.7</ele>
        <time>2013-08-05T20:28:40.000Z</time>
      </trkpt>
      <trkpt lat="48.86496" lon="2.30902">
        <ele>81.8</ele>
        <time>2013-08-05T20:28:41.000Z</time>
      </trkpt>
      <trkpt lat="48.86497" lon="2.30908">
        <ele>82.5</ele>
        <time>2013-08-05T20:28:42.000Z</time>
      </trkpt>
      <trkpt lat="48.86498" lon="2.30914">
        <ele>82.1</ele>
        <time>2013-08-05T20:28:43.000Z</time>
      </trkpt>
      <trkpt lat="48.86499" lon="2.30919">
        <ele>81.7</ele>
        <time>2013-08-05T20:28:44.000Z</time>
      </trkpt>
      <trkpt lat="48.865" lon="2.30925">
        <ele>81.3</ele>
        <time>2013-08-05T20:28:45.000Z</time>
      </trkpt>
      <trkpt lat="48.86501" lon="2.3093">
        <ele>81.3</ele>
        <time>2013-08-05T20:28:46.000Z</time>
      </trkpt>
      <trkpt lat="48.86502" lon="2.30935">
        <ele>82.9</ele>
        <time>2013-08-05T20:28:47.000Z</time>
      </trkpt>
      <trkpt lat="48.86503" lon="2.3094">
        <ele>83.3</ele>
        <time>2013-08-05T20:28:48.000Z</time>
      </trkpt>
      <trkpt lat="48.86504" lon="2.30946">
        <ele>83.4</ele>
        <time>2013-08-05T20:28:49.000Z</time>
      </trkpt>
      <trkpt lat="48.86504" lon="2.3095">
        <ele>81.7</ele>
        <time>2013-08-05T20:28:50.000Z</time>
      </trkpt>
      <trkpt lat="48.86504" lon="2.30955">
        <ele>80.8</ele>
        <time>2013-08-05T20:28:51.000Z</time>
      </trkpt>
      <trkpt lat="48.86505" lon="2.30958">
        <ele>76.9</ele>
        <time>2013-08-05T20:28:52.000Z</time>
      </trkpt>
      <trkpt lat="48.86507" lon="2.3096">
        <ele>79</ele>
        <time>2013-08-05T20:28:53.000Z</time>
      </trkpt>
      <trkpt lat="48.8651" lon="2.30965">
        <ele>83.2</ele>
        <time>2013-08-05T20:28:55.000Z</time>
      </trkpt>
      <trkpt lat="48.86511" lon="2.30969">
        <ele>83.2</ele>
        <time>2013-08-05T20:28:56.000Z</time>
      </trkpt>
      <trkpt lat="48.86511" lon="2.30972">
        <ele>82.8</ele>
        <time>2013-08-05T20:28:57.000Z</time>
      </trkpt>
      <trkpt lat="48.86512" lon="2.30975">
        <ele>83.9</ele>
        <time>2013-08-05T20:28:58.000Z</time>
      </trkpt>
      <trkpt lat="48.86513" lon="2.30979">
        <ele>82.5</ele>
        <time>2013-08-05T20:28:59.000Z</time>
      </trkpt>
      <trkpt lat="48.86513" lon="2.30982">
        <ele>82.2</ele>
        <time>2013-08-05T20:29:00.000Z</time>
      </trkpt>
      <trkpt lat="48.86514" lon="2.30988">
        <ele>83.8</ele>
        <time>2013-08-05T20:29:03.000Z</time>
      </trkpt>
      <trkpt lat="48.86515" lon="2.30989">
        <ele>84</ele>
        <time>2013-08-05T20:29:04.000Z</time>
      </trkpt>
      <trkpt lat="48.86516" lon="2.30993">
        <ele>83.8</ele>
        <time>2013-08-05T20:29:07.000Z</time>
      </trkpt>
      <trkpt lat="48.86516" lon="2.30995">
        <ele>83.9</ele>
        <time>2013-08-05T20:29:08.000Z</time>
      </trkpt>
      <trkpt lat="48.86516" lon="2.30999">
        <ele>84.4</ele>
        <time>2013-08-05T20:29:10.000Z</time>
      </trkpt>
      <trkpt lat="48.86516" lon="2.31002">
        <ele>83.7</ele>
        <time>2013-08-05T20:29:11.000Z</time>
      </trkpt>
      <trkpt lat="48.86517" lon="2.31007">
        <ele>84.1</ele>
        <time>2013-08-05T20:29:14.000Z</time>
      </trkpt>
      <trkpt lat="48.86518" lon="2.31009">
        <ele>83.7</ele>
        <time>2013-08-05T20:29:15.000Z</time>
      </trkpt>
      <trkpt lat="48.86518" lon="2.31015">
        <ele>85.4</ele>
        <time>2013-08-05T20:29:18.000Z</time>
      </trkpt>
      <trkpt lat="48.86518" lon="2.31017">
        <ele>83.7</ele>
        <time>2013-08-05T20:29:19.000Z</time>
      </trkpt>
      <trkpt lat="48.86517" lon="2.31023">
        <ele>81.8</ele>
        <time>2013-08-05T20:29:22.000Z</time>
      </trkpt>
      <trkpt lat="48.86517" lon="2.31025">
        <ele>81.7</ele>
        <time>2013-08-05T20:29:23.000Z</time>
      </trkpt>
      <trkpt lat="48.86515" lon="2.31031">
        <ele>81.9</ele>
        <time>2013-08-05T20:29:25.000Z</time>
      </trkpt>
      <trkpt lat="48.86514" lon="2.31033">
        <ele>82.5</ele>
        <time>2013-08-05T20:29:26.000Z</time>
      </trkpt>
      <trkpt lat="48.86512" lon="2.31039">
        <ele>79.1</ele>
        <time>2013-08-05T20:29:34.000Z</time>
      </trkpt>
      <trkpt lat="48.86513" lon="2.31041">
        <ele>78.6</ele>
        <time>2013-08-05T20:29:35.000Z</time>
      </trkpt>
      <trkpt lat="48.86513" lon="2.31047">
        <ele>77.3</ele>
        <time>2013-08-05T20:29:42.000Z</time>
      </trkpt>
      <trkpt lat="48.86513" lon="2.31048">
        <ele>77.3</ele>
        <time>2013-08-05T20:29:43.000Z</time>
      </trkpt>
      <trkpt lat="48.86511" lon="2.31054">
        <ele>78.9</ele>
        <time>2013-08-05T20:29:52.000Z</time>
      </trkpt>
      <trkpt lat="48.86511" lon="2.31055">
        <ele>79.7</ele>
        <time>2013-08-05T20:29:53.000Z</time>
      </trkpt>
      <trkpt lat="48.86511" lon="2.31061">
        <ele>78.4</ele>
        <time>2013-08-05T20:29:55.000Z</time>
      </trkpt>
      <trkpt lat="48.86511" lon="2.31064">
        <ele>78.1</ele>
        <time>2013-08-05T20:29:56.000Z</time>
      </trkpt>
      <trkpt lat="48.86511" lon="2.31071">
        <ele>76.6</ele>
        <time>2013-08-05T20:29:58.000Z</time>
      </trkpt>
      <trkpt lat="48.86511" lon="2.31074">
        <ele>76.2</ele>
        <time>2013-08-05T20:29:59.000Z</time>
      </trkpt>
      <trkpt lat="48.86512" lon="2.3108">
        <ele>75.2</ele>
        <time>2013-08-05T20:30:01.000Z</time>
      </trkpt>
      <trkpt lat="48.86512" lon="2.31083">
        <ele>76.9</ele>
        <time>2013-08-05T20:30:02.000Z</time>
      </trkpt>
      <trkpt lat="48.86513" lon="2.31089">
        <ele>78.6</ele>
        <time>2013-08-05T20:30:04.000Z</time>
      </trkpt>
      <trkpt lat="48.86513" lon="2.31092">
        <ele>78.6</ele>
        <time>2013-08-05T20:30:05.000Z</time>
      </trkpt>
      <trkpt lat="48.86512" lon="2.31096">
        <ele>78.5</ele>
        <time>2013-08-05T20:30:06.000Z</time>
      </trkpt>
      <trkpt lat="48.86512" lon="2.31099">
        <ele>78.1</ele>
        <time>2013-08-05T20:30:07.000Z</time>
      </trkpt>
      <trkpt lat="48.86511" lon="2.31104">
        <ele>79</ele>
        <time>2013-08-05T20:30:08.000Z</time>
      </trkpt>
      <trkpt lat="48.86511" lon="2.31109">
        <ele>78.5</ele>
        <time>2013-08-05T20:30:09.000Z</time>
      </trkpt>
      <trkpt lat="48.86511" lon="2.31114">
        <ele>78.7</ele>
        <time>2013-08-05T20:30:10.000Z</time>
      </trkpt>
      <trkpt lat="48.86512" lon="2.3112">
        <ele>78.2</ele>
        <time>2013-08-05T20:30:11.000Z</time>
      </trkpt>
      <trkpt lat="48.86512" lon="2.31125">
        <ele>78.3</ele>
        <time>2013-08-05T20:30:12.000Z</time>
      </trkpt>
      <trkpt lat="48.86513" lon="2.3113">
        <ele>78.6</ele>
        <time>2013-08-05T20:30:13.000Z</time>
      </trkpt>
      <trkpt lat="48.86513" lon="2.31136">
        <ele>79.4</ele>
        <time>2013-08-05T20:30:14.000Z</time>
      </trkpt>
      <trkpt lat="48.86513" lon="2.31141">
        <ele>80.6</ele>
        <time>2013-08-05T20:30:15.000Z</time>
      </trkpt>
      <trkpt lat="48.86514" lon="2.31146">
        <ele>80.4</ele>
        <time>2013-08-05T20:30:16.000Z</time>
      </trkpt>
      <trkpt lat="48.86514" lon="2.31151">
        <ele>80.5</ele>
        <time>2013-08-05T20:30:17.000Z</time>
      </trkpt>
      <trkpt lat="48.86515" lon="2.31155">
        <ele>80.3</ele>
        <time>2013-08-05T20:30:18.000Z</time>
      </trkpt>
      <trkpt lat="48.86515" lon="2.3116">
        <ele>81.2</ele>
        <time>2013-08-05T20:30:19.000Z</time>
      </trkpt>
      <trkpt lat="48.86516" lon="2.31165">
        <ele>82.7</ele>
        <time>2013-08-05T20:30:20.000Z</time>
      </trkpt>
      <trkpt lat="48.86516" lon="2.31169">
        <ele>80.2</ele>
        <time>2013-08-05T20:30:21.000Z</time>
      </trkpt>
      <trkpt lat="48.86516" lon="2.31173">
        <ele>80.2</ele>
        <time>2013-08-05T20:30:22.000Z</time>
      </trkpt>
      <trkpt lat="48.86516" lon="2.31177">
        <ele>78.9</ele>
        <time>2013-08-05T20:30:23.000Z</time>
      </trkpt>
      <trkpt lat="48.86515" lon="2.31182">
        <ele>77.4</ele>
        <time>2013-08-05T20:30:24.000Z</time>
      </trkpt>
      <trkpt lat="48.86515" lon="2.31186">
        <ele>76.9</ele>
        <time>2013-08-05T20:30:25.000Z</time>
      </trkpt>
      <trkpt lat="48.86515" lon="2.31191">
        <ele>76.3</ele>
        <time>2013-08-05T20:30:26.000Z</time>
      </trkpt>
      <trkpt lat="48.86515" lon="2.31195">
        <ele>76.5</ele>
        <time>2013-08-05T20:30:27.000Z</time>
      </trkpt>
      <trkpt lat="48.86514" lon="2.31199">
        <ele>76</ele>
        <time>2013-08-05T20:30:28.000Z</time>
      </trkpt>
      <trkpt lat="48.86514" lon="2.31203">
        <ele>75.7</ele>
        <time>2013-08-05T20:30:29.000Z</time>
      </trkpt>
      <trkpt lat="48.86513" lon="2.31207">
        <ele>75.3</ele>
        <time>2013-08-05T20:30:30.000Z</time>
      </trkpt>
      <trkpt lat="48.86512" lon="2.31211">
        <ele>77.1</ele>
        <time>2013-08-05T20:30:31.000Z</time>
      </trkpt>
      <trkpt lat="48.86511" lon="2.31215">
        <ele>77.5</ele>
        <time>2013-08-05T20:30:32.000Z</time>
      </trkpt>
      <trkpt lat="48.8651" lon="2.31219">
        <ele>77.8</ele>
        <time>2013-08-05T20:30:33.000Z</time>
      </trkpt>
      <trkpt lat="48.86509" lon="2.31225">
        <ele>78</ele>
        <time>2013-08-05T20:30:34.000Z</time>
      </trkpt>
      <trkpt lat="48.86508" lon="2.31231">
        <ele>78.9</ele>
        <time>2013-08-05T20:30:35.000Z</time>
      </trkpt>
      <trkpt lat="48.86507" lon="2.31236">
        <ele>79.1</ele>
        <time>2013-08-05T20:30:36.000Z</time>
      </trkpt>
      <trkpt lat="48.86507" lon="2.31242">
        <ele>78.5</ele>
        <time>2013-08-05T20:30:37.000Z</time>
      </trkpt>
      <trkpt lat="48.86507" lon="2.31247">
        <ele>79</ele>
        <time>2013-08-05T20:30:38.000Z</time>
      </trkpt>
      <trkpt lat="48.86506" lon="2.31252">
        <ele>81.6</ele>
        <time>2013-08-05T20:30:39.000Z</time>
      </trkpt>
      <trkpt lat="48.86506" lon="2.31257">
        <ele>82.2</ele>
        <time>2013-08-05T20:30:40.000Z</time>
      </trkpt>
      <trkpt lat="48.86506" lon="2.31262">
        <ele>81.2</ele>
        <time>2013-08-05T20:30:41.000Z</time>
      </trkpt>
      <trkpt lat="48.86506" lon="2.31267">
        <ele>82</ele>
        <time>2013-08-05T20:30:42.000Z</time>
      </trkpt>
      <trkpt lat="48.86507" lon="2.31273">
        <ele>81.5</ele>
        <time>2013-08-05T20:30:43.000Z</time>
      </trkpt>
      <trkpt lat="48.86508" lon="2.31278">
        <ele>82.3</ele>
        <time>2013-08-05T20:30:44.000Z</time>
      </trkpt>
      <trkpt lat="48.86509" lon="2.31282">
        <ele>81.9</ele>
        <time>2013-08-05T20:30:45.000Z</time>
      </trkpt>
      <trkpt lat="48.86511" lon="2.31287">
        <ele>82.5</ele>
        <time>2013-08-05T20:30:46.000Z</time>
      </trkpt>
      <trkpt lat="48.86512" lon="2.31291">
        <ele>82.7</ele>
        <time>2013-08-05T20:30:47.000Z</time>
      </trkpt>
      <trkpt lat="48.86514" lon="2.31294">
        <ele>82.4</ele>
        <time>2013-08-05T20:30:48.000Z</time>
      </trkpt>
      <trkpt lat="48.86516" lon="2.31297">
        <ele>81.9</ele>
        <time>2013-08-05T20:30:49.000Z</time>
      </trkpt>
      <trkpt lat="48.86519" lon="2.31302">
        <ele>81</ele>
        <time>2013-08-05T20:30:51.000Z</time>
      </trkpt>
      <trkpt lat="48.86521" lon="2.31306">
        <ele>78.7</ele>
        <time>2013-08-05T20:30:52.000Z</time>
      </trkpt>
      <trkpt lat="48.86523" lon="2.3131">
        <ele>76.8</ele>
        <time>2013-08-05T20:30:53.000Z</time>
      </trkpt>
      <trkpt lat="48.86525" lon="2.31314">
        <ele>75.3</ele>
        <time>2013-08-05T20:30:54.000Z</time>
      </trkpt>
      <trkpt lat="48.86526" lon="2.31319">
        <ele>77.9</ele>
        <time>2013-08-05T20:30:55.000Z</time>
      </trkpt>
      <trkpt lat="48.86527" lon="2.31325">
        <ele>79.2</ele>
        <time>2013-08-05T20:30:56.000Z</time>
      </trkpt>
      <trkpt lat="48.86527" lon="2.31332">
        <ele>79.2</ele>
        <time>2013-08-05T20:30:57.000Z</time>
      </trkpt>
      <trkpt lat="48.86528" lon="2.31337">
        <ele>76.9</ele>
        <time>2013-08-05T20:30:58.000Z</time>
      </trkpt>
      <trkpt lat="48.86528" lon="2.31342">
        <ele>76.3</ele>
        <time>2013-08-05T20:30:59.000Z</time>
      </trkpt>
      <trkpt lat="48.86528" lon="2.31346">
        <ele>77.3</ele>
        <time>2013-08-05T20:31:00.000Z</time>
      </trkpt>
      <trkpt lat="48.86528" lon="2.31353">
        <ele>78.7</ele>
        <time>2013-08-05T20:31:02.000Z</time>
      </trkpt>
      <trkpt lat="48.86528" lon="2.31356">
        <ele>80</ele>
        <time>2013-08-05T20:31:03.000Z</time>
      </trkpt>
      <trkpt lat="48.86528" lon="2.31361">
        <ele>80.8</ele>
        <time>2013-08-05T20:31:05.000Z</time>
      </trkpt>
      <trkpt lat="48.86527" lon="2.31364">
        <ele>83</ele>
        <time>2013-08-05T20:31:06.000Z</time>
      </trkpt>
      <trkpt lat="48.86526" lon="2.31368">
        <ele>85</ele>
        <time>2013-08-05T20:31:07.000Z</time>
      </trkpt>
      <trkpt lat="48.86524" lon="2.31372">
        <ele>86.2</ele>
        <time>2013-08-05T20:31:08.000Z</time>
      </trkpt>
      <trkpt lat="48.86523" lon="2.31376">
        <ele>86.4</ele>
        <time>2013-08-05T20:31:09.000Z</time>
      </trkpt>
      <trkpt lat="48.86521" lon="2.31381">
        <ele>87.2</ele>
        <time>2013-08-05T20:31:10.000Z</time>
      </trkpt>
      <trkpt lat="48.8652" lon="2.31386">
        <ele>86.5</ele>
        <time>2013-08-05T20:31:11.000Z</time>
      </trkpt>
      <trkpt lat="48.8652" lon="2.3139">
        <ele>86.4</ele>
        <time>2013-08-05T20:31:12.000Z</time>
      </trkpt>
      <trkpt lat="48.86521" lon="2.31394">
        <ele>86.2</ele>
        <time>2013-08-05T20:31:13.000Z</time>
      </trkpt>
      <trkpt lat="48.86521" lon="2.31397">
        <ele>86.6</ele>
        <time>2013-08-05T20:31:14.000Z</time>
      </trkpt>
      <trkpt lat="48.86521" lon="2.31401">
        <ele>85.3</ele>
        <time>2013-08-05T20:31:15.000Z</time>
      </trkpt>
      <trkpt lat="48.86521" lon="2.31405">
        <ele>85.2</ele>
        <time>2013-08-05T20:31:16.000Z</time>
      </trkpt>
      <trkpt lat="48.86521" lon="2.31409">
        <ele>84.5</ele>
        <time>2013-08-05T20:31:17.000Z</time>
      </trkpt>
      <trkpt lat="48.86521" lon="2.31412">
        <ele>84.2</ele>
        <time>2013-08-05T20:31:18.000Z</time>
      </trkpt>
      <trkpt lat="48.86521" lon="2.31416">
        <ele>85.7</ele>
        <time>2013-08-05T20:31:19.000Z</time>
      </trkpt>
      <trkpt lat="48.86521" lon="2.3142">
        <ele>85.7</ele>
        <time>2013-08-05T20:31:20.000Z</time>
      </trkpt>
      <trkpt lat="48.86521" lon="2.31425">
        <ele>83.9</ele>
        <time>2013-08-05T20:31:21.000Z</time>
      </trkpt>
      <trkpt lat="48.86521" lon="2.31429">
        <ele>83.8</ele>
        <time>2013-08-05T20:31:22.000Z</time>
      </trkpt>
      <trkpt lat="48.86521" lon="2.31434">
        <ele>84</ele>
        <time>2013-08-05T20:31:23.000Z</time>
      </trkpt>
      <trkpt lat="48.86521" lon="2.3144">
        <ele>84.2</ele>
        <time>2013-08-05T20:31:24.000Z</time>
      </trkpt>
      <trkpt lat="48.8652" lon="2.31445">
        <ele>84.4</ele>
        <time>2013-08-05T20:31:25.000Z</time>
      </trkpt>
      <trkpt lat="48.8652" lon="2.3145">
        <ele>85</ele>
        <time>2013-08-05T20:31:26.000Z</time>
      </trkpt>
      <trkpt lat="48.8652" lon="2.31454">
        <ele>85.3</ele>
        <time>2013-08-05T20:31:27.000Z</time>
      </trkpt>
      <trkpt lat="48.8652" lon="2.31459">
        <ele>86</ele>
        <time>2013-08-05T20:31:28.000Z</time>
      </trkpt>
      <trkpt lat="48.8652" lon="2.31464">
        <ele>86.3</ele>
        <time>2013-08-05T20:31:29.000Z</time>
      </trkpt>
      <trkpt lat="48.8652" lon="2.31469">
        <ele>85.2</ele>
        <time>2013-08-05T20:31:30.000Z</time>
      </trkpt>
      <trkpt lat="48.8652" lon="2.31474">
        <ele>83.4</ele>
        <time>2013-08-05T20:31:31.000Z</time>
      </trkpt>
      <trkpt lat="48.8652" lon="2.31478">
        <ele>80.8</ele>
        <time>2013-08-05T20:31:32.000Z</time>
      </trkpt>
      <trkpt lat="48.86521" lon="2.31483">
        <ele>79.8</ele>
        <time>2013-08-05T20:31:33.000Z</time>
      </trkpt>
      <trkpt lat="48.86522" lon="2.31487">
        <ele>78.7</ele>
        <time>2013-08-05T20:31:34.000Z</time>
      </trkpt>
      <trkpt lat="48.86522" lon="2.31491">
        <ele>78.9</ele>
        <time>2013-08-05T20:31:35.000Z</time>
      </trkpt>
      <trkpt lat="48.86522" lon="2.31496">
        <ele>78.6</ele>
        <time>2013-08-05T20:31:36.000Z</time>
      </trkpt>
      <trkpt lat="48.86522" lon="2.31501">
        <ele>78.6</ele>
        <time>2013-08-05T20:31:37.000Z</time>
      </trkpt>
      <trkpt lat="48.86523" lon="2.31506">
        <ele>77.7</ele>
        <time>2013-08-05T20:31:38.000Z</time>
      </trkpt>
      <trkpt lat="48.86523" lon="2.31512">
        <ele>77.4</ele>
        <time>2013-08-05T20:31:39.000Z</time>
      </trkpt>
      <trkpt lat="48.86523" lon="2.31518">
        <ele>78.2</ele>
        <time>2013-08-05T20:31:40.000Z</time>
      </trkpt>
      <trkpt lat="48.86523" lon="2.31524">
        <ele>78.5</ele>
        <time>2013-08-05T20:31:41.000Z</time>
      </trkpt>
      <trkpt lat="48.86523" lon="2.31529">
        <ele>78.7</ele>
        <time>2013-08-05T20:31:42.000Z</time>
      </trkpt>
      <trkpt lat="48.86522" lon="2.31535">
        <ele>77.3</ele>
        <time>2013-08-05T20:31:43.000Z</time>
      </trkpt>
      <trkpt lat="48.86522" lon="2.31539">
        <ele>76.9</ele>
        <time>2013-08-05T20:31:44.000Z</time>
      </trkpt>
      <trkpt lat="48.86522" lon="2.31548">
        <ele>75.8</ele>
        <time>2013-08-05T20:31:45.000Z</time>
      </trkpt>
      <trkpt lat="48.86521" lon="2.31555">
        <ele>74</ele>
        <time>2013-08-05T20:31:46.000Z</time>
      </trkpt>
      <trkpt lat="48.86519" lon="2.31575">
        <ele>73.8</ele>
        <time>2013-08-05T20:31:47.000Z</time>
      </trkpt>
      <trkpt lat="48.86519" lon="2.31585">
        <ele>74.8</ele>
        <time>2013-08-05T20:31:48.000Z</time>
      </trkpt>
      <trkpt lat="48.8652" lon="2.31597">
        <ele>75.2</ele>
        <time>2013-08-05T20:31:49.000Z</time>
      </trkpt>
      <trkpt lat="48.8652" lon="2.31607">
        <ele>75.8</ele>
        <time>2013-08-05T20:31:50.000Z</time>
      </trkpt>
      <trkpt lat="48.8652" lon="2.31617">
        <ele>76.6</ele>
        <time>2013-08-05T20:31:51.000Z</time>
      </trkpt>
      <trkpt lat="48.8652" lon="2.31628">
        <ele>77.5</ele>
        <time>2013-08-05T20:31:52.000Z</time>
      </trkpt>
      <trkpt lat="48.8652" lon="2.31636">
        <ele>77.5</ele>
        <time>2013-08-05T20:31:53.000Z</time>
      </trkpt>
      <trkpt lat="48.86517" lon="2.31643">
        <ele>77.5</ele>
        <time>2013-08-05T20:31:54.000Z</time>
      </trkpt>
      <trkpt lat="48.86517" lon="2.31651">
        <ele>78</ele>
        <time>2013-08-05T20:31:55.000Z</time>
      </trkpt>
      <trkpt lat="48.86518" lon="2.3166">
        <ele>77.8</ele>
        <time>2013-08-05T20:31:56.000Z</time>
      </trkpt>
      <trkpt lat="48.86517" lon="2.31669">
        <ele>78.8</ele>
        <time>2013-08-05T20:31:57.000Z</time>
      </trkpt>
      <trkpt lat="48.86517" lon="2.31678">
        <ele>79.4</ele>
        <time>2013-08-05T20:31:58.000Z</time>
      </trkpt>
      <trkpt lat="48.86516" lon="2.31688">
        <ele>79.8</ele>
        <time>2013-08-05T20:31:59.000Z</time>
      </trkpt>
      <trkpt lat="48.86515" lon="2.31696">
        <ele>79.4</ele>
        <time>2013-08-05T20:32:00.000Z</time>
      </trkpt>
      <trkpt lat="48.86515" lon="2.31704">
        <ele>79.7</ele>
        <time>2013-08-05T20:32:01.000Z</time>
      </trkpt>
      <trkpt lat="48.86515" lon="2.31711">
        <ele>78.7</ele>
        <time>2013-08-05T20:32:02.000Z</time>
      </trkpt>
      <trkpt lat="48.86512" lon="2.31722">
        <ele>77.3</ele>
        <time>2013-08-05T20:32:03.000Z</time>
      </trkpt>
      <trkpt lat="48.86512" lon="2.31729">
        <ele>77.5</ele>
        <time>2013-08-05T20:32:04.000Z</time>
      </trkpt>
      <trkpt lat="48.86513" lon="2.31737">
        <ele>78.6</ele>
        <time>2013-08-05T20:32:05.000Z</time>
      </trkpt>
      <trkpt lat="48.86512" lon="2.31745">
        <ele>78.7</ele>
        <time>2013-08-05T20:32:06.000Z</time>
      </trkpt>
      <trkpt lat="48.86513" lon="2.31752">
        <ele>77.9</ele>
        <time>2013-08-05T20:32:07.000Z</time>
      </trkpt>
      <trkpt lat="48.86515" lon="2.31761">
        <ele>77</ele>
        <time>2013-08-05T20:32:08.000Z</time>
      </trkpt>
      <trkpt lat="48.86515" lon="2.31768">
        <ele>76.4</ele>
        <time>2013-08-05T20:32:09.000Z</time>
      </trkpt>
      <trkpt lat="48.86514" lon="2.31774">
        <ele>76.2</ele>
        <time>2013-08-05T20:32:10.000Z</time>
      </trkpt>
      <trkpt lat="48.86514" lon="2.3178">
        <ele>78.1</ele>
        <time>2013-08-05T20:32:11.000Z</time>
      </trkpt>
      <trkpt lat="48.86514" lon="2.31784">
        <ele>76.5</ele>
        <time>2013-08-05T20:32:12.000Z</time>
      </trkpt>
      <trkpt lat="48.86515" lon="2.31789">
        <ele>75.7</ele>
        <time>2013-08-05T20:32:13.000Z</time>
      </trkpt>
      <trkpt lat="48.86515" lon="2.31795">
        <ele>75.1</ele>
        <time>2013-08-05T20:32:15.000Z</time>
      </trkpt>
      <trkpt lat="48.86515" lon="2.31798">
        <ele>74.8</ele>
        <time>2013-08-05T20:32:16.000Z</time>
      </trkpt>
      <trkpt lat="48.86516" lon="2.31803">
        <ele>73.9</ele>
        <time>2013-08-05T20:32:18.000Z</time>
      </trkpt>
      <trkpt lat="48.86516" lon="2.31806">
        <ele>74.1</ele>
        <time>2013-08-05T20:32:19.000Z</time>
      </trkpt>
      <trkpt lat="48.86516" lon="2.31812">
        <ele>74.2</ele>
        <time>2013-08-05T20:32:21.000Z</time>
      </trkpt>
      <trkpt lat="48.86515" lon="2.31815">
        <ele>73.8</ele>
        <time>2013-08-05T20:32:22.000Z</time>
      </trkpt>
      <trkpt lat="48.86514" lon="2.3182">
        <ele>74.2</ele>
        <time>2013-08-05T20:32:24.000Z</time>
      </trkpt>
      <trkpt lat="48.86513" lon="2.31823">
        <ele>73</ele>
        <time>2013-08-05T20:32:25.000Z</time>
      </trkpt>
      <trkpt lat="48.86511" lon="2.31827">
        <ele>74.4</ele>
        <time>2013-08-05T20:32:27.000Z</time>
      </trkpt>
      <trkpt lat="48.8651" lon="2.3183">
        <ele>73.3</ele>
        <time>2013-08-05T20:32:28.000Z</time>
      </trkpt>
      <trkpt lat="48.86508" lon="2.31835">
        <ele>72.8</ele>
        <time>2013-08-05T20:32:30.000Z</time>
      </trkpt>
      <trkpt lat="48.86507" lon="2.31837">
        <ele>72.6</ele>
        <time>2013-08-05T20:32:31.000Z</time>
      </trkpt>
      <trkpt lat="48.86506" lon="2.31843">
        <ele>73.4</ele>
        <time>2013-08-05T20:32:33.000Z</time>
      </trkpt>
      <trkpt lat="48.86505" lon="2.31846">
        <ele>74.3</ele>
        <time>2013-08-05T20:32:34.000Z</time>
      </trkpt>
      <trkpt lat="48.86505" lon="2.31852">
        <ele>74.9</ele>
        <time>2013-08-05T20:32:36.000Z</time>
      </trkpt>
      <trkpt lat="48.86505" lon="2.31855">
        <ele>75.4</ele>
        <time>2013-08-05T20:32:37.000Z</time>
      </trkpt>
      <trkpt lat="48.86504" lon="2.31859">
        <ele>74.1</ele>
        <time>2013-08-05T20:32:38.000Z</time>
      </trkpt>
      <trkpt lat="48.86504" lon="2.31862">
        <ele>75.6</ele>
        <time>2013-08-05T20:32:39.000Z</time>
      </trkpt>
      <trkpt lat="48.86504" lon="2.31869">
        <ele>75.9</ele>
        <time>2013-08-05T20:32:41.000Z</time>
      </trkpt>
      <trkpt lat="48.86505" lon="2.31872">
        <ele>75.4</ele>
        <time>2013-08-05T20:32:42.000Z</time>
      </trkpt>
      <trkpt lat="48.86506" lon="2.31876">
        <ele>76.1</ele>
        <time>2013-08-05T20:32:43.000Z</time>
      </trkpt>
      <trkpt lat="48.86507" lon="2.31879">
        <ele>76</ele>
        <time>2013-08-05T20:32:44.000Z</time>
      </trkpt>
      <trkpt lat="48.86509" lon="2.31882">
        <ele>76.2</ele>
        <time>2013-08-05T20:32:45.000Z</time>
      </trkpt>
      <trkpt lat="48.86511" lon="2.31886">
        <ele>74.5</ele>
        <time>2013-08-05T20:32:46.000Z</time>
      </trkpt>
      <trkpt lat="48.86513" lon="2.3189">
        <ele>76</ele>
        <time>2013-08-05T20:32:47.000Z</time>
      </trkpt>
      <trkpt lat="48.86515" lon="2.31893">
        <ele>75.1</ele>
        <time>2013-08-05T20:32:48.000Z</time>
      </trkpt>
      <trkpt lat="48.86517" lon="2.31897">
        <ele>77.6</ele>
        <time>2013-08-05T20:32:49.000Z</time>
      </trkpt>
      <trkpt lat="48.86519" lon="2.31899">
        <ele>78.8</ele>
        <time>2013-08-05T20:32:50.000Z</time>
      </trkpt>
      <trkpt lat="48.86521" lon="2.31902">
        <ele>78</ele>
        <time>2013-08-05T20:32:51.000Z</time>
      </trkpt>
      <trkpt lat="48.86524" lon="2.31904">
        <ele>78.2</ele>
        <time>2013-08-05T20:32:52.000Z</time>
      </trkpt>
      <trkpt lat="48.86526" lon="2.31906">
        <ele>77.5</ele>
        <time>2013-08-05T20:32:53.000Z</time>
      </trkpt>
      <trkpt lat="48.86529" lon="2.31907">
        <ele>77.9</ele>
        <time>2013-08-05T20:32:54.000Z</time>
      </trkpt>
      <trkpt lat="48.86531" lon="2.31909">
        <ele>77.9</ele>
        <time>2013-08-05T20:32:55.000Z</time>
      </trkpt>
      <trkpt lat="48.86533" lon="2.31911">
        <ele>77.1</ele>
        <time>2013-08-05T20:32:56.000Z</time>
      </trkpt>
      <trkpt lat="48.86536" lon="2.31912">
        <ele>78.1</ele>
        <time>2013-08-05T20:32:57.000Z</time>
      </trkpt>
      <trkpt lat="48.86538" lon="2.31915">
        <ele>78.5</ele>
        <time>2013-08-05T20:32:58.000Z</time>
      </trkpt>
      <trkpt lat="48.86541" lon="2.31916">
        <ele>78.1</ele>
        <time>2013-08-05T20:32:59.000Z</time>
      </trkpt>
      <trkpt lat="48.86544" lon="2.31918">
        <ele>78</ele>
        <time>2013-08-05T20:33:00.000Z</time>
      </trkpt>
      <trkpt lat="48.86546" lon="2.31919">
        <ele>78.4</ele>
        <time>2013-08-05T20:33:01.000Z</time>
      </trkpt>
      <trkpt lat="48.86548" lon="2.31921">
        <ele>78.3</ele>
        <time>2013-08-05T20:33:02.000Z</time>
      </trkpt>
      <trkpt lat="48.86551" lon="2.31922">
        <ele>78.4</ele>
        <time>2013-08-05T20:33:03.000Z</time>
      </trkpt>
      <trkpt lat="48.86553" lon="2.31923">
        <ele>78.5</ele>
        <time>2013-08-05T20:33:04.000Z</time>
      </trkpt>
      <trkpt lat="48.86555" lon="2.31924">
        <ele>79</ele>
        <time>2013-08-05T20:33:05.000Z</time>
      </trkpt>
      <trkpt lat="48.86558" lon="2.31925">
        <ele>79.2</ele>
        <time>2013-08-05T20:33:06.000Z</time>
      </trkpt>
      <trkpt lat="48.8656" lon="2.31926">
        <ele>80</ele>
        <time>2013-08-05T20:33:07.000Z</time>
      </trkpt>
      <trkpt lat="48.86562" lon="2.31928">
        <ele>80.2</ele>
        <time>2013-08-05T20:33:08.000Z</time>
      </trkpt>
      <trkpt lat="48.86564" lon="2.3193">
        <ele>79.7</ele>
        <time>2013-08-05T20:33:09.000Z</time>
      </trkpt>
      <trkpt lat="48.86567" lon="2.31932">
        <ele>80.2</ele>
        <time>2013-08-05T20:33:10.000Z</time>
      </trkpt>
      <trkpt lat="48.86569" lon="2.31933">
        <ele>80.3</ele>
        <time>2013-08-05T20:33:11.000Z</time>
      </trkpt>
      <trkpt lat="48.86571" lon="2.31935">
        <ele>80.5</ele>
        <time>2013-08-05T20:33:12.000Z</time>
      </trkpt>
      <trkpt lat="48.86573" lon="2.31938">
        <ele>80.2</ele>
        <time>2013-08-05T20:33:13.000Z</time>
      </trkpt>
      <trkpt lat="48.86575" lon="2.31941">
        <ele>80</ele>
        <time>2013-08-05T20:33:14.000Z</time>
      </trkpt>
      <trkpt lat="48.86577" lon="2.31945">
        <ele>79.9</ele>
        <time>2013-08-05T20:33:15.000Z</time>
      </trkpt>
      <trkpt lat="48.86579" lon="2.31948">
        <ele>79.3</ele>
        <time>2013-08-05T20:33:16.000Z</time>
      </trkpt>
      <trkpt lat="48.86582" lon="2.31949">
        <ele>79</ele>
        <time>2013-08-05T20:33:17.000Z</time>
      </trkpt>
      <trkpt lat="48.86584" lon="2.31951">
        <ele>78.9</ele>
        <time>2013-08-05T20:33:18.000Z</time>
      </trkpt>
      <trkpt lat="48.86587" lon="2.31952">
        <ele>79.2</ele>
        <time>2013-08-05T20:33:19.000Z</time>
      </trkpt>
      <trkpt lat="48.8659" lon="2.31953">
        <ele>78.3</ele>
        <time>2013-08-05T20:33:20.000Z</time>
      </trkpt>
      <trkpt lat="48.86592" lon="2.31955">
        <ele>78.6</ele>
        <time>2013-08-05T20:33:21.000Z</time>
      </trkpt>
      <trkpt lat="48.86595" lon="2.31956">
        <ele>78.8</ele>
        <time>2013-08-05T20:33:22.000Z</time>
      </trkpt>
      <trkpt lat="48.86598" lon="2.31958">
        <ele>79.5</ele>
        <time>2013-08-05T20:33:23.000Z</time>
      </trkpt>
      <trkpt lat="48.866" lon="2.3196">
        <ele>79.8</ele>
        <time>2013-08-05T20:33:24.000Z</time>
      </trkpt>
      <trkpt lat="48.86602" lon="2.31962">
        <ele>80</ele>
        <time>2013-08-05T20:33:25.000Z</time>
      </trkpt>
      <trkpt lat="48.86604" lon="2.31964">
        <ele>77.6</ele>
        <time>2013-08-05T20:33:26.000Z</time>
      </trkpt>
      <trkpt lat="48.86608" lon="2.31967">
        <ele>75.7</ele>
        <time>2013-08-05T20:33:28.000Z</time>
      </trkpt>
      <trkpt lat="48.8661" lon="2.31968">
        <ele>78.8</ele>
        <time>2013-08-05T20:33:29.000Z</time>
      </trkpt>
      <trkpt lat="48.86613" lon="2.31968">
        <ele>81</ele>
        <time>2013-08-05T20:33:31.000Z</time>
      </trkpt>
      <trkpt lat="48.86615" lon="2.31967">
        <ele>81.4</ele>
        <time>2013-08-05T20:33:32.000Z</time>
      </trkpt>
      <trkpt lat="48.86619" lon="2.31965">
        <ele>80.5</ele>
        <time>2013-08-05T20:33:35.000Z</time>
      </trkpt>
      <trkpt lat="48.8662" lon="2.31966">
        <ele>80.3</ele>
        <time>2013-08-05T20:33:36.000Z</time>
      </trkpt>
      <trkpt lat="48.86623" lon="2.31969">
        <ele>80.4</ele>
        <time>2013-08-05T20:33:39.000Z</time>
      </trkpt>
      <trkpt lat="48.86624" lon="2.31971">
        <ele>80</ele>
        <time>2013-08-05T20:33:40.000Z</time>
      </trkpt>
      <trkpt lat="48.86627" lon="2.31973">
        <ele>79.1</ele>
        <time>2013-08-05T20:33:42.000Z</time>
      </trkpt>
      <trkpt lat="48.86629" lon="2.31975">
        <ele>78.5</ele>
        <time>2013-08-05T20:33:43.000Z</time>
      </trkpt>
      <trkpt lat="48.86631" lon="2.31977">
        <ele>78.3</ele>
        <time>2013-08-05T20:33:44.000Z</time>
      </trkpt>
      <trkpt lat="48.86633" lon="2.31979">
        <ele>78.1</ele>
        <time>2013-08-05T20:33:45.000Z</time>
      </trkpt>
      <trkpt lat="48.86636" lon="2.31982">
        <ele>78.3</ele>
        <time>2013-08-05T20:33:46.000Z</time>
      </trkpt>
      <trkpt lat="48.86638" lon="2.31984">
        <ele>78.2</ele>
        <time>2013-08-05T20:33:47.000Z</time>
      </trkpt>
      <trkpt lat="48.86642" lon="2.31986">
        <ele>77.9</ele>
        <time>2013-08-05T20:33:48.000Z</time>
      </trkpt>
      <trkpt lat="48.86645" lon="2.31989">
        <ele>76.9</ele>
        <time>2013-08-05T20:33:49.000Z</time>
      </trkpt>
      <trkpt lat="48.86648" lon="2.31991">
        <ele>76.5</ele>
        <time>2013-08-05T20:33:50.000Z</time>
      </trkpt>
      <trkpt lat="48.86651" lon="2.31993">
        <ele>77.1</ele>
        <time>2013-08-05T20:33:51.000Z</time>
      </trkpt>
      <trkpt lat="48.86655" lon="2.31996">
        <ele>77.4</ele>
        <time>2013-08-05T20:33:52.000Z</time>
      </trkpt>
      <trkpt lat="48.86659" lon="2.31998">
        <ele>77.3</ele>
        <time>2013-08-05T20:33:53.000Z</time>
      </trkpt>
      <trkpt lat="48.86663" lon="2.32001">
        <ele>75.3</ele>
        <time>2013-08-05T20:33:54.000Z</time>
      </trkpt>
      <trkpt lat="48.86666" lon="2.32004">
        <ele>75</ele>
        <time>2013-08-05T20:33:55.000Z</time>
      </trkpt>
      <trkpt lat="48.8667" lon="2.32006">
        <ele>75.1</ele>
        <time>2013-08-05T20:33:56.000Z</time>
      </trkpt>
      <trkpt lat="48.86673" lon="2.32008">
        <ele>73.3</ele>
        <time>2013-08-05T20:33:57.000Z</time>
      </trkpt>
      <trkpt lat="48.86675" lon="2.3201">
        <ele>72.9</ele>
        <time>2013-08-05T20:33:58.000Z</time>
      </trkpt>
      <trkpt lat="48.86678" lon="2.32012">
        <ele>72.8</ele>
        <time>2013-08-05T20:33:59.000Z</time>
      </trkpt>
      <trkpt lat="48.86681" lon="2.32013">
        <ele>70.7</ele>
        <time>2013-08-05T20:34:01.000Z</time>
      </trkpt>
      <trkpt lat="48.86683" lon="2.32013">
        <ele>69.8</ele>
        <time>2013-08-05T20:34:02.000Z</time>
      </trkpt>
      <trkpt lat="48.86685" lon="2.32011">
        <ele>74.3</ele>
        <time>2013-08-05T20:34:03.000Z</time>
      </trkpt>
      <trkpt lat="48.86687" lon="2.3201">
        <ele>72.3</ele>
        <time>2013-08-05T20:34:04.000Z</time>
      </trkpt>
      <trkpt lat="48.8669" lon="2.32011">
        <ele>72.8</ele>
        <time>2013-08-05T20:34:06.000Z</time>
      </trkpt>
      <trkpt lat="48.86692" lon="2.32013">
        <ele>72.8</ele>
        <time>2013-08-05T20:34:07.000Z</time>
      </trkpt>
      <trkpt lat="48.86694" lon="2.32015">
        <ele>71.6</ele>
        <time>2013-08-05T20:34:08.000Z</time>
      </trkpt>
      <trkpt lat="48.86696" lon="2.32017">
        <ele>71.7</ele>
        <time>2013-08-05T20:34:09.000Z</time>
      </trkpt>
      <trkpt lat="48.86697" lon="2.3202">
        <ele>71.5</ele>
        <time>2013-08-05T20:34:10.000Z</time>
      </trkpt>
      <trkpt lat="48.86699" lon="2.32022">
        <ele>71.6</ele>
        <time>2013-08-05T20:34:11.000Z</time>
      </trkpt>
      <trkpt lat="48.86703" lon="2.32025">
        <ele>71.1</ele>
        <time>2013-08-05T20:34:15.000Z</time>
      </trkpt>
      <trkpt lat="48.86704" lon="2.32026">
        <ele>71.5</ele>
        <time>2013-08-05T20:34:16.000Z</time>
      </trkpt>
      <trkpt lat="48.86708" lon="2.32028">
        <ele>73.5</ele>
        <time>2013-08-05T20:34:22.000Z</time>
      </trkpt>
      <trkpt lat="48.86709" lon="2.32028">
        <ele>74</ele>
        <time>2013-08-05T20:34:23.000Z</time>
      </trkpt>
      <trkpt lat="48.8671" lon="2.32032">
        <ele>75.7</ele>
        <time>2013-08-05T20:34:34.000Z</time>
      </trkpt>
      <trkpt lat="48.86711" lon="2.32035">
        <ele>75.7</ele>
        <time>2013-08-05T20:34:35.000Z</time>
      </trkpt>
      <trkpt lat="48.86712" lon="2.32039">
        <ele>75.2</ele>
        <time>2013-08-05T20:34:36.000Z</time>
      </trkpt>
      <trkpt lat="48.86712" lon="2.32043">
        <ele>75.1</ele>
        <time>2013-08-05T20:34:37.000Z</time>
      </trkpt>
      <trkpt lat="48.86713" lon="2.32048">
        <ele>78.9</ele>
        <time>2013-08-05T20:34:39.000Z</time>
      </trkpt>
      <trkpt lat="48.86713" lon="2.3205">
        <ele>78.5</ele>
        <time>2013-08-05T20:34:40.000Z</time>
      </trkpt>
      <trkpt lat="48.86712" lon="2.32056">
        <ele>79.4</ele>
        <time>2013-08-05T20:34:42.000Z</time>
      </trkpt>
      <trkpt lat="48.86712" lon="2.32059">
        <ele>79.6</ele>
        <time>2013-08-05T20:34:43.000Z</time>
      </trkpt>
      <trkpt lat="48.86711" lon="2.32063">
        <ele>79.6</ele>
        <time>2013-08-05T20:34:44.000Z</time>
      </trkpt>
      <trkpt lat="48.86711" lon="2.32067">
        <ele>81.1</ele>
        <time>2013-08-05T20:34:45.000Z</time>
      </trkpt>
      <trkpt lat="48.8671" lon="2.32071">
        <ele>79.7</ele>
        <time>2013-08-05T20:34:46.000Z</time>
      </trkpt>
      <trkpt lat="48.8671" lon="2.32076">
        <ele>79.3</ele>
        <time>2013-08-05T20:34:47.000Z</time>
      </trkpt>
      <trkpt lat="48.86709" lon="2.32081">
        <ele>78.8</ele>
        <time>2013-08-05T20:34:48.000Z</time>
      </trkpt>
      <trkpt lat="48.86709" lon="2.32086">
        <ele>77.9</ele>
        <time>2013-08-05T20:34:49.000Z</time>
      </trkpt>
      <trkpt lat="48.86709" lon="2.32091">
        <ele>76.8</ele>
        <time>2013-08-05T20:34:50.000Z</time>
      </trkpt>
      <trkpt lat="48.86708" lon="2.32095">
        <ele>76.8</ele>
        <time>2013-08-05T20:34:51.000Z</time>
      </trkpt>
      <trkpt lat="48.86708" lon="2.32099">
        <ele>76.7</ele>
        <time>2013-08-05T20:34:52.000Z</time>
      </trkpt>
      <trkpt lat="48.86707" lon="2.32102">
        <ele>77</ele>
        <time>2013-08-05T20:34:53.000Z</time>
      </trkpt>
      <trkpt lat="48.86704" lon="2.32108">
        <ele>77.2</ele>
        <time>2013-08-05T20:34:55.000Z</time>
      </trkpt>
      <trkpt lat="48.86704" lon="2.3211">
        <ele>76.8</ele>
        <time>2013-08-05T20:34:56.000Z</time>
      </trkpt>
      <trkpt lat="48.86702" lon="2.32115">
        <ele>78.3</ele>
        <time>2013-08-05T20:34:58.000Z</time>
      </trkpt>
      <trkpt lat="48.86701" lon="2.32118">
        <ele>79.3</ele>
        <time>2013-08-05T20:34:59.000Z</time>
      </trkpt>
      <trkpt lat="48.867" lon="2.32121">
        <ele>78.8</ele>
        <time>2013-08-05T20:35:00.000Z</time>
      </trkpt>
      <trkpt lat="48.86699" lon="2.32124">
        <ele>78.8</ele>
        <time>2013-08-05T20:35:01.000Z</time>
      </trkpt>
      <trkpt lat="48.86698" lon="2.32128">
        <ele>77.7</ele>
        <time>2013-08-05T20:35:02.000Z</time>
      </trkpt>
      <trkpt lat="48.86697" lon="2.32131">
        <ele>78.8</ele>
        <time>2013-08-05T20:35:03.000Z</time>
      </trkpt>
      <trkpt lat="48.86696" lon="2.32137">
        <ele>77.8</ele>
        <time>2013-08-05T20:35:05.000Z</time>
      </trkpt>
      <trkpt lat="48.86696" lon="2.3214">
        <ele>79.1</ele>
        <time>2013-08-05T20:35:06.000Z</time>
      </trkpt>
      <trkpt lat="48.86695" lon="2.32144">
        <ele>78.6</ele>
        <time>2013-08-05T20:35:07.000Z</time>
      </trkpt>
      <trkpt lat="48.86695" lon="2.32147">
        <ele>79</ele>
        <time>2013-08-05T20:35:08.000Z</time>
      </trkpt>
      <trkpt lat="48.86694" lon="2.32151">
        <ele>79.1</ele>
        <time>2013-08-05T20:35:09.000Z</time>
      </trkpt>
      <trkpt lat="48.86694" lon="2.32156">
        <ele>79.7</ele>
        <time>2013-08-05T20:35:10.000Z</time>
      </trkpt>
      <trkpt lat="48.86693" lon="2.3216">
        <ele>78.8</ele>
        <time>2013-08-05T20:35:11.000Z</time>
      </trkpt>
      <trkpt lat="48.86693" lon="2.32163">
        <ele>78.4</ele>
        <time>2013-08-05T20:35:12.000Z</time>
      </trkpt>
      <trkpt lat="48.86692" lon="2.32169">
        <ele>77.1</ele>
        <time>2013-08-05T20:35:14.000Z</time>
      </trkpt>
      <trkpt lat="48.86691" lon="2.32172">
        <ele>78.9</ele>
        <time>2013-08-05T20:35:15.000Z</time>
      </trkpt>
      <trkpt lat="48.8669" lon="2.32178">
        <ele>76.9</ele>
        <time>2013-08-05T20:35:19.000Z</time>
      </trkpt>
      <trkpt lat="48.8669" lon="2.32179">
        <ele>78</ele>
        <time>2013-08-05T20:35:20.000Z</time>
      </trkpt>
      <trkpt lat="48.86689" lon="2.32184">
        <ele>77.7</ele>
        <time>2013-08-05T20:35:22.000Z</time>
      </trkpt>
      <trkpt lat="48.86689" lon="2.32188">
        <ele>74.2</ele>
        <time>2013-08-05T20:35:23.000Z</time>
      </trkpt>
      <trkpt lat="48.86689" lon="2.32192">
        <ele>73.8</ele>
        <time>2013-08-05T20:35:24.000Z</time>
      </trkpt>
      <trkpt lat="48.86689" lon="2.32196">
        <ele>74.3</ele>
        <time>2013-08-05T20:35:25.000Z</time>
      </trkpt>
      <trkpt lat="48.86689" lon="2.322">
        <ele>76.3</ele>
        <time>2013-08-05T20:35:26.000Z</time>
      </trkpt>
      <trkpt lat="48.86688" lon="2.32204">
        <ele>75.9</ele>
        <time>2013-08-05T20:35:27.000Z</time>
      </trkpt>
      <trkpt lat="48.86687" lon="2.3221">
        <ele>75.7</ele>
        <time>2013-08-05T20:35:29.000Z</time>
      </trkpt>
      <trkpt lat="48.86687" lon="2.32212">
        <ele>76.6</ele>
        <time>2013-08-05T20:35:30.000Z</time>
      </trkpt>
      <trkpt lat="48.86684" lon="2.32217">
        <ele>77.8</ele>
        <time>2013-08-05T20:35:32.000Z</time>
      </trkpt>
      <trkpt lat="48.86683" lon="2.3222">
        <ele>82.8</ele>
        <time>2013-08-05T20:35:33.000Z</time>
      </trkpt>
      <trkpt lat="48.86681" lon="2.32223">
        <ele>83.1</ele>
        <time>2013-08-05T20:35:34.000Z</time>
      </trkpt>
      <trkpt lat="48.8668" lon="2.32226">
        <ele>84.4</ele>
        <time>2013-08-05T20:35:35.000Z</time>
      </trkpt>
      <trkpt lat="48.86678" lon="2.32229">
        <ele>84.1</ele>
        <time>2013-08-05T20:35:36.000Z</time>
      </trkpt>
      <trkpt lat="48.86676" lon="2.32233">
        <ele>84.3</ele>
        <time>2013-08-05T20:35:37.000Z</time>
      </trkpt>
      <trkpt lat="48.86674" lon="2.32237">
        <ele>85.3</ele>
        <time>2013-08-05T20:35:38.000Z</time>
      </trkpt>
      <trkpt lat="48.86672" lon="2.3224">
        <ele>85.5</ele>
        <time>2013-08-05T20:35:39.000Z</time>
      </trkpt>
      <trkpt lat="48.8667" lon="2.32243">
        <ele>84.9</ele>
        <time>2013-08-05T20:35:40.000Z</time>
      </trkpt>
      <trkpt lat="48.86669" lon="2.32247">
        <ele>85.5</ele>
        <time>2013-08-05T20:35:41.000Z</time>
      </trkpt>
      <trkpt lat="48.86667" lon="2.32251">
        <ele>85.9</ele>
        <time>2013-08-05T20:35:42.000Z</time>
      </trkpt>
      <trkpt lat="48.86666" lon="2.32255">
        <ele>86.3</ele>
        <time>2013-08-05T20:35:43.000Z</time>
      </trkpt>
      <trkpt lat="48.86665" lon="2.32258">
        <ele>86.1</ele>
        <time>2013-08-05T20:35:44.000Z</time>
      </trkpt>
      <trkpt lat="48.86663" lon="2.32263">
        <ele>87.1</ele>
        <time>2013-08-05T20:35:45.000Z</time>
      </trkpt>
      <trkpt lat="48.86662" lon="2.32269">
        <ele>86.8</ele>
        <time>2013-08-05T20:35:46.000Z</time>
      </trkpt>
      <trkpt lat="48.86662" lon="2.32275">
        <ele>86.6</ele>
        <time>2013-08-05T20:35:47.000Z</time>
      </trkpt>
      <trkpt lat="48.86661" lon="2.32281">
        <ele>86.5</ele>
        <time>2013-08-05T20:35:48.000Z</time>
      </trkpt>
      <trkpt lat="48.8666" lon="2.32286">
        <ele>86</ele>
        <time>2013-08-05T20:35:49.000Z</time>
      </trkpt>
      <trkpt lat="48.86659" lon="2.3229">
        <ele>86.3</ele>
        <time>2013-08-05T20:35:50.000Z</time>
      </trkpt>
      <trkpt lat="48.86657" lon="2.32295">
        <ele>85.9</ele>
        <time>2013-08-05T20:35:51.000Z</time>
      </trkpt>
      <trkpt lat="48.86656" lon="2.323">
        <ele>84.7</ele>
        <time>2013-08-05T20:35:52.000Z</time>
      </trkpt>
      <trkpt lat="48.86655" lon="2.32305">
        <ele>85</ele>
        <time>2013-08-05T20:35:53.000Z</time>
      </trkpt>
      <trkpt lat="48.86654" lon="2.32311">
        <ele>85</ele>
        <time>2013-08-05T20:35:54.000Z</time>
      </trkpt>
      <trkpt lat="48.86654" lon="2.32316">
        <ele>83.7</ele>
        <time>2013-08-05T20:35:55.000Z</time>
      </trkpt>
      <trkpt lat="48.86654" lon="2.32321">
        <ele>82.9</ele>
        <time>2013-08-05T20:35:56.000Z</time>
      </trkpt>
      <trkpt lat="48.86654" lon="2.32326">
        <ele>81.7</ele>
        <time>2013-08-05T20:35:57.000Z</time>
      </trkpt>
      <trkpt lat="48.86654" lon="2.3233">
        <ele>80.5</ele>
        <time>2013-08-05T20:35:58.000Z</time>
      </trkpt>
      <trkpt lat="48.86653" lon="2.32334">
        <ele>79.9</ele>
        <time>2013-08-05T20:35:59.000Z</time>
      </trkpt>
      <trkpt lat="48.86652" lon="2.32337">
        <ele>80.3</ele>
        <time>2013-08-05T20:36:00.000Z</time>
      </trkpt>
      <trkpt lat="48.86652" lon="2.3234">
        <ele>80.1</ele>
        <time>2013-08-05T20:36:01.000Z</time>
      </trkpt>
      <trkpt lat="48.8665" lon="2.32346">
        <ele>77.6</ele>
        <time>2013-08-05T20:36:03.000Z</time>
      </trkpt>
      <trkpt lat="48.8665" lon="2.32349">
        <ele>78.2</ele>
        <time>2013-08-05T20:36:04.000Z</time>
      </trkpt>
      <trkpt lat="48.8665" lon="2.32353">
        <ele>77.6</ele>
        <time>2013-08-05T20:36:05.000Z</time>
      </trkpt>
      <trkpt lat="48.86649" lon="2.32356">
        <ele>77.9</ele>
        <time>2013-08-05T20:36:06.000Z</time>
      </trkpt>
      <trkpt lat="48.86649" lon="2.3236">
        <ele>77.7</ele>
        <time>2013-08-05T20:36:07.000Z</time>
      </trkpt>
      <trkpt lat="48.86649" lon="2.32364">
        <ele>78.1</ele>
        <time>2013-08-05T20:36:08.000Z</time>
      </trkpt>
      <trkpt lat="48.86648" lon="2.32368">
        <ele>78.1</ele>
        <time>2013-08-05T20:36:09.000Z</time>
      </trkpt>
      <trkpt lat="48.86648" lon="2.32372">
        <ele>77.2</ele>
        <time>2013-08-05T20:36:10.000Z</time>
      </trkpt>
      <trkpt lat="48.86648" lon="2.32376">
        <ele>77.6</ele>
        <time>2013-08-05T20:36:11.000Z</time>
      </trkpt>
      <trkpt lat="48.86647" lon="2.3238">
        <ele>77.7</ele>
        <time>2013-08-05T20:36:12.000Z</time>
      </trkpt>
      <trkpt lat="48.86646" lon="2.32383">
        <ele>76.9</ele>
        <time>2013-08-05T20:36:13.000Z</time>
      </trkpt>
      <trkpt lat="48.86645" lon="2.32387">
        <ele>78.7</ele>
        <time>2013-08-05T20:36:14.000Z</time>
      </trkpt>
      <trkpt lat="48.86644" lon="2.3239">
        <ele>78.5</ele>
        <time>2013-08-05T20:36:15.000Z</time>
      </trkpt>
      <trkpt lat="48.86643" lon="2.32393">
        <ele>78.8</ele>
        <time>2013-08-05T20:36:16.000Z</time>
      </trkpt>
      <trkpt lat="48.86643" lon="2.32399">
        <ele>79.6</ele>
        <time>2013-08-05T20:36:18.000Z</time>
      </trkpt>
      <trkpt lat="48.86643" lon="2.32401">
        <ele>78.4</ele>
        <time>2013-08-05T20:36:19.000Z</time>
      </trkpt>
      <trkpt lat="48.86643" lon="2.32406">
        <ele>79.6</ele>
        <time>2013-08-05T20:36:21.000Z</time>
      </trkpt>
      <trkpt lat="48.86643" lon="2.32409">
        <ele>78.3</ele>
        <time>2013-08-05T20:36:22.000Z</time>
      </trkpt>
      <trkpt lat="48.86644" lon="2.32413">
        <ele>78.5</ele>
        <time>2013-08-05T20:36:24.000Z</time>
      </trkpt>
      <trkpt lat="48.86647" lon="2.32414">
        <ele>76.8</ele>
        <time>2013-08-05T20:36:25.000Z</time>
      </trkpt>
      <trkpt lat="48.86649" lon="2.32415">
        <ele>76.3</ele>
        <time>2013-08-05T20:36:26.000Z</time>
      </trkpt>
      <trkpt lat="48.86652" lon="2.32415">
        <ele>75.9</ele>
        <time>2013-08-05T20:36:27.000Z</time>
      </trkpt>
      <trkpt lat="48.86655" lon="2.32415">
        <ele>76.1</ele>
        <time>2013-08-05T20:36:28.000Z</time>
      </trkpt>
      <trkpt lat="48.86658" lon="2.32415">
        <ele>75.9</ele>
        <time>2013-08-05T20:36:29.000Z</time>
      </trkpt>
      <trkpt lat="48.86661" lon="2.32415">
        <ele>76.3</ele>
        <time>2013-08-05T20:36:30.000Z</time>
      </trkpt>
      <trkpt lat="48.86664" lon="2.32416">
        <ele>76</ele>
        <time>2013-08-05T20:36:31.000Z</time>
      </trkpt>
      <trkpt lat="48.86668" lon="2.32418">
        <ele>77.5</ele>
        <time>2013-08-05T20:36:32.000Z</time>
      </trkpt>
      <trkpt lat="48.86672" lon="2.3242">
        <ele>78.4</ele>
        <time>2013-08-05T20:36:33.000Z</time>
      </trkpt>
      <trkpt lat="48.86677" lon="2.32423">
        <ele>75.4</ele>
        <time>2013-08-05T20:36:34.000Z</time>
      </trkpt>
      <trkpt lat="48.86682" lon="2.32425">
        <ele>74.1</ele>
        <time>2013-08-05T20:36:35.000Z</time>
      </trkpt>
      <trkpt lat="48.86687" lon="2.32427">
        <ele>73.3</ele>
        <time>2013-08-05T20:36:36.000Z</time>
      </trkpt>
      <trkpt lat="48.86691" lon="2.3243">
        <ele>71.9</ele>
        <time>2013-08-05T20:36:37.000Z</time>
      </trkpt>
      <trkpt lat="48.86695" lon="2.32433">
        <ele>72</ele>
        <time>2013-08-05T20:36:38.000Z</time>
      </trkpt>
      <trkpt lat="48.86699" lon="2.32436">
        <ele>71.6</ele>
        <time>2013-08-05T20:36:39.000Z</time>
      </trkpt>
      <trkpt lat="48.86702" lon="2.3244">
        <ele>71.6</ele>
        <time>2013-08-05T20:36:40.000Z</time>
      </trkpt>
      <trkpt lat="48.86702" lon="2.32445">
        <ele>73.6</ele>
        <time>2013-08-05T20:36:43.000Z</time>
      </trkpt>
      <trkpt lat="48.867" lon="2.32451">
        <ele>75.8</ele>
        <time>2013-08-05T20:36:44.000Z</time>
      </trkpt>
      <trkpt lat="48.86698" lon="2.32457">
        <ele>75.9</ele>
        <time>2013-08-05T20:36:45.000Z</time>
      </trkpt>
      <trkpt lat="48.86696" lon="2.32466">
        <ele>75.2</ele>
        <time>2013-08-05T20:36:46.000Z</time>
      </trkpt>
      <trkpt lat="48.86693" lon="2.32474">
        <ele>76</ele>
        <time>2013-08-05T20:36:47.000Z</time>
      </trkpt>
      <trkpt lat="48.8669" lon="2.32482">
        <ele>76.5</ele>
        <time>2013-08-05T20:36:48.000Z</time>
      </trkpt>
      <trkpt lat="48.86687" lon="2.32489">
        <ele>76.4</ele>
        <time>2013-08-05T20:36:49.000Z</time>
      </trkpt>
      <trkpt lat="48.86685" lon="2.32496">
        <ele>76.8</ele>
        <time>2013-08-05T20:36:50.000Z</time>
      </trkpt>
      <trkpt lat="48.86683" lon="2.32503">
        <ele>78.4</ele>
        <time>2013-08-05T20:36:51.000Z</time>
      </trkpt>
      <trkpt lat="48.86681" lon="2.3251">
        <ele>77.4</ele>
        <time>2013-08-05T20:36:52.000Z</time>
      </trkpt>
      <trkpt lat="48.86679" lon="2.32516">
        <ele>78.3</ele>
        <time>2013-08-05T20:36:53.000Z</time>
      </trkpt>
      <trkpt lat="48.86676" lon="2.32522">
        <ele>79</ele>
        <time>2013-08-05T20:36:54.000Z</time>
      </trkpt>
      <trkpt lat="48.86673" lon="2.32528">
        <ele>80.9</ele>
        <time>2013-08-05T20:36:55.000Z</time>
      </trkpt>
      <trkpt lat="48.86667" lon="2.3254">
        <ele>79.3</ele>
        <time>2013-08-05T20:36:56.000Z</time>
      </trkpt>
      <trkpt lat="48.86664" lon="2.32545">
        <ele>78.5</ele>
        <time>2013-08-05T20:36:57.000Z</time>
      </trkpt>
      <trkpt lat="48.86662" lon="2.32551">
        <ele>78.6</ele>
        <time>2013-08-05T20:36:58.000Z</time>
      </trkpt>
      <trkpt lat="48.86659" lon="2.32558">
        <ele>79</ele>
        <time>2013-08-05T20:36:59.000Z</time>
      </trkpt>
      <trkpt lat="48.86656" lon="2.32563">
        <ele>79</ele>
        <time>2013-08-05T20:37:00.000Z</time>
      </trkpt>
      <trkpt lat="48.86652" lon="2.32569">
        <ele>80.6</ele>
        <time>2013-08-05T20:37:01.000Z</time>
      </trkpt>
      <trkpt lat="48.86649" lon="2.32575">
        <ele>80.8</ele>
        <time>2013-08-05T20:37:02.000Z</time>
      </trkpt>
      <trkpt lat="48.86651" lon="2.32583">
        <ele>81.5</ele>
        <time>2013-08-05T20:37:03.000Z</time>
      </trkpt>
      <trkpt lat="48.86648" lon="2.32589">
        <ele>80.9</ele>
        <time>2013-08-05T20:37:04.000Z</time>
      </trkpt>
      <trkpt lat="48.86646" lon="2.32597">
        <ele>81.5</ele>
        <time>2013-08-05T20:37:05.000Z</time>
      </trkpt>
      <trkpt lat="48.86641" lon="2.32601">
        <ele>81.7</ele>
        <time>2013-08-05T20:37:06.000Z</time>
      </trkpt>
      <trkpt lat="48.86638" lon="2.32607">
        <ele>82.3</ele>
        <time>2013-08-05T20:37:07.000Z</time>
      </trkpt>
      <trkpt lat="48.86637" lon="2.32613">
        <ele>82</ele>
        <time>2013-08-05T20:37:08.000Z</time>
      </trkpt>
      <trkpt lat="48.86632" lon="2.32616">
        <ele>82.3</ele>
        <time>2013-08-05T20:37:09.000Z</time>
      </trkpt>
      <trkpt lat="48.86626" lon="2.3262">
        <ele>85.1</ele>
        <time>2013-08-05T20:37:10.000Z</time>
      </trkpt>
      <trkpt lat="48.86624" lon="2.32628">
        <ele>84.5</ele>
        <time>2013-08-05T20:37:11.000Z</time>
      </trkpt>
      <trkpt lat="48.86622" lon="2.32638">
        <ele>84.7</ele>
        <time>2013-08-05T20:37:12.000Z</time>
      </trkpt>
      <trkpt lat="48.86622" lon="2.32647">
        <ele>85</ele>
        <time>2013-08-05T20:37:13.000Z</time>
      </trkpt>
      <trkpt lat="48.86621" lon="2.32655">
        <ele>85.2</ele>
        <time>2013-08-05T20:37:14.000Z</time>
      </trkpt>
      <trkpt lat="48.86619" lon="2.32663">
        <ele>85.3</ele>
        <time>2013-08-05T20:37:15.000Z</time>
      </trkpt>
      <trkpt lat="48.86616" lon="2.32668">
        <ele>85.1</ele>
        <time>2013-08-05T20:37:16.000Z</time>
      </trkpt>
      <trkpt lat="48.86615" lon="2.32674">
        <ele>85.3</ele>
        <time>2013-08-05T20:37:17.000Z</time>
      </trkpt>
      <trkpt lat="48.86611" lon="2.3268">
        <ele>85.1</ele>
        <time>2013-08-05T20:37:18.000Z</time>
      </trkpt>
      <trkpt lat="48.86607" lon="2.32687">
        <ele>85.7</ele>
        <time>2013-08-05T20:37:19.000Z</time>
      </trkpt>
      <trkpt lat="48.86605" lon="2.32694">
        <ele>85.7</ele>
        <time>2013-08-05T20:37:20.000Z</time>
      </trkpt>
      <trkpt lat="48.86602" lon="2.32703">
        <ele>86</ele>
        <time>2013-08-05T20:37:21.000Z</time>
      </trkpt>
      <trkpt lat="48.86599" lon="2.32712">
        <ele>85.7</ele>
        <time>2013-08-05T20:37:22.000Z</time>
      </trkpt>
      <trkpt lat="48.86599" lon="2.3272">
        <ele>85.7</ele>
        <time>2013-08-05T20:37:23.000Z</time>
      </trkpt>
      <trkpt lat="48.866" lon="2.32728">
        <ele>85.5</ele>
        <time>2013-08-05T20:37:24.000Z</time>
      </trkpt>
      <trkpt lat="48.86598" lon="2.32738">
        <ele>85.6</ele>
        <time>2013-08-05T20:37:25.000Z</time>
      </trkpt>
      <trkpt lat="48.86594" lon="2.32736">
        <ele>86</ele>
        <time>2013-08-05T20:37:26.000Z</time>
      </trkpt>
      <trkpt lat="48.86592" lon="2.32741">
        <ele>85.7</ele>
        <time>2013-08-05T20:37:27.000Z</time>
      </trkpt>
      <trkpt lat="48.86589" lon="2.32744">
        <ele>86</ele>
        <time>2013-08-05T20:37:28.000Z</time>
      </trkpt>
      <trkpt lat="48.86595" lon="2.32768">
        <ele>83.5</ele>
        <time>2013-08-05T20:37:29.000Z</time>
      </trkpt>
      <trkpt lat="48.86593" lon="2.32772">
        <ele>83.4</ele>
        <time>2013-08-05T20:37:30.000Z</time>
      </trkpt>
      <trkpt lat="48.86597" lon="2.32786">
        <ele>84.8</ele>
        <time>2013-08-05T20:37:31.000Z</time>
      </trkpt>
      <trkpt lat="48.86596" lon="2.3279">
        <ele>86.8</ele>
        <time>2013-08-05T20:37:32.000Z</time>
      </trkpt>
      <trkpt lat="48.86596" lon="2.32795">
        <ele>89.4</ele>
        <time>2013-08-05T20:37:33.000Z</time>
      </trkpt>
      <trkpt lat="48.86596" lon="2.32798">
        <ele>93.9</ele>
        <time>2013-08-05T20:37:35.000Z</time>
      </trkpt>
      <trkpt lat="48.86593" lon="2.32805">
        <ele>92.9</ele>
        <time>2013-08-05T20:37:36.000Z</time>
      </trkpt>
      <trkpt lat="48.8659" lon="2.32811">
        <ele>94.1</ele>
        <time>2013-08-05T20:37:37.000Z</time>
      </trkpt>
      <trkpt lat="48.86588" lon="2.32816">
        <ele>95.4</ele>
        <time>2013-08-05T20:37:38.000Z</time>
      </trkpt>
      <trkpt lat="48.86585" lon="2.32822">
        <ele>95.3</ele>
        <time>2013-08-05T20:37:39.000Z</time>
      </trkpt>
      <trkpt lat="48.86583" lon="2.32828">
        <ele>95.1</ele>
        <time>2013-08-05T20:37:40.000Z</time>
      </trkpt>
      <trkpt lat="48.86581" lon="2.32834">
        <ele>91.5</ele>
        <time>2013-08-05T20:37:41.000Z</time>
      </trkpt>
      <trkpt lat="48.86579" lon="2.3284">
        <ele>91.9</ele>
        <time>2013-08-05T20:37:42.000Z</time>
      </trkpt>
      <trkpt lat="48.86577" lon="2.32846">
        <ele>93</ele>
        <time>2013-08-05T20:37:43.000Z</time>
      </trkpt>
      <trkpt lat="48.86571" lon="2.32857">
        <ele>94.2</ele>
        <time>2013-08-05T20:37:44.000Z</time>
      </trkpt>
      <trkpt lat="48.86569" lon="2.32863">
        <ele>94.7</ele>
        <time>2013-08-05T20:37:45.000Z</time>
      </trkpt>
      <trkpt lat="48.86566" lon="2.32869">
        <ele>94.8</ele>
        <time>2013-08-05T20:37:46.000Z</time>
      </trkpt>
      <trkpt lat="48.86564" lon="2.32875">
        <ele>95.1</ele>
        <time>2013-08-05T20:37:47.000Z</time>
      </trkpt>
      <trkpt lat="48.86557" lon="2.32874">
        <ele>94.6</ele>
        <time>2013-08-05T20:37:48.000Z</time>
      </trkpt>
      <trkpt lat="48.86554" lon="2.32878">
        <ele>94.9</ele>
        <time>2013-08-05T20:37:49.000Z</time>
      </trkpt>
      <trkpt lat="48.8655" lon="2.32882">
        <ele>94.9</ele>
        <time>2013-08-05T20:37:50.000Z</time>
      </trkpt>
      <trkpt lat="48.86547" lon="2.32887">
        <ele>94.6</ele>
        <time>2013-08-05T20:37:51.000Z</time>
      </trkpt>
      <trkpt lat="48.86545" lon="2.32889">
        <ele>94.6</ele>
        <time>2013-08-05T20:37:52.000Z</time>
      </trkpt>
      <trkpt lat="48.86547" lon="2.32903">
        <ele>93.9</ele>
        <time>2013-08-05T20:37:53.000Z</time>
      </trkpt>
      <trkpt lat="48.86546" lon="2.32909">
        <ele>93.9</ele>
        <time>2013-08-05T20:37:54.000Z</time>
      </trkpt>
      <trkpt lat="48.86545" lon="2.32917">
        <ele>94.9</ele>
        <time>2013-08-05T20:37:55.000Z</time>
      </trkpt>
      <trkpt lat="48.86543" lon="2.32922">
        <ele>94.9</ele>
        <time>2013-08-05T20:37:56.000Z</time>
      </trkpt>
      <trkpt lat="48.8654" lon="2.32921">
        <ele>92.3</ele>
        <time>2013-08-05T20:37:57.000Z</time>
      </trkpt>
      <trkpt lat="48.8654" lon="2.32928">
        <ele>92.5</ele>
        <time>2013-08-05T20:37:58.000Z</time>
      </trkpt>
      <trkpt lat="48.86539" lon="2.32932">
        <ele>92.4</ele>
        <time>2013-08-05T20:37:59.000Z</time>
      </trkpt>
      <trkpt lat="48.86539" lon="2.32937">
        <ele>93.2</ele>
        <time>2013-08-05T20:38:00.000Z</time>
      </trkpt>
      <trkpt lat="48.86538" lon="2.32942">
        <ele>93</ele>
        <time>2013-08-05T20:38:01.000Z</time>
      </trkpt>
      <trkpt lat="48.86536" lon="2.32947">
        <ele>93.4</ele>
        <time>2013-08-05T20:38:02.000Z</time>
      </trkpt>
      <trkpt lat="48.86535" lon="2.32952">
        <ele>93.2</ele>
        <time>2013-08-05T20:38:03.000Z</time>
      </trkpt>
      <trkpt lat="48.86534" lon="2.32958">
        <ele>92.9</ele>
        <time>2013-08-05T20:38:04.000Z</time>
      </trkpt>
      <trkpt lat="48.86535" lon="2.32964">
        <ele>93.6</ele>
        <time>2013-08-05T20:38:05.000Z</time>
      </trkpt>
      <trkpt lat="48.86538" lon="2.3297">
        <ele>92.1</ele>
        <time>2013-08-05T20:38:06.000Z</time>
      </trkpt>
      <trkpt lat="48.86542" lon="2.32976">
        <ele>89.9</ele>
        <time>2013-08-05T20:38:07.000Z</time>
      </trkpt>
      <trkpt lat="48.86547" lon="2.3298">
        <ele>89.4</ele>
        <time>2013-08-05T20:38:08.000Z</time>
      </trkpt>
      <trkpt lat="48.86552" lon="2.32985">
        <ele>88</ele>
        <time>2013-08-05T20:38:09.000Z</time>
      </trkpt>
      <trkpt lat="48.86556" lon="2.32989">
        <ele>87.9</ele>
        <time>2013-08-05T20:38:10.000Z</time>
      </trkpt>
      <trkpt lat="48.8656" lon="2.32993">
        <ele>87.8</ele>
        <time>2013-08-05T20:38:11.000Z</time>
      </trkpt>
      <trkpt lat="48.86564" lon="2.32997">
        <ele>87.4</ele>
        <time>2013-08-05T20:38:12.000Z</time>
      </trkpt>
      <trkpt lat="48.86567" lon="2.33001">
        <ele>87.1</ele>
        <time>2013-08-05T20:38:13.000Z</time>
      </trkpt>
      <trkpt lat="48.86571" lon="2.33004">
        <ele>86</ele>
        <time>2013-08-05T20:38:14.000Z</time>
      </trkpt>
      <trkpt lat="48.86574" lon="2.33007">
        <ele>86.9</ele>
        <time>2013-08-05T20:38:15.000Z</time>
      </trkpt>
      <trkpt lat="48.86578" lon="2.3301">
        <ele>84.9</ele>
        <time>2013-08-05T20:38:16.000Z</time>
      </trkpt>
      <trkpt lat="48.86583" lon="2.33013">
        <ele>85.1</ele>
        <time>2013-08-05T20:38:17.000Z</time>
      </trkpt>
      <trkpt lat="48.86586" lon="2.33018">
        <ele>85.2</ele>
        <time>2013-08-05T20:38:18.000Z</time>
      </trkpt>
      <trkpt lat="48.86589" lon="2.33026">
        <ele>85.8</ele>
        <time>2013-08-05T20:38:19.000Z</time>
      </trkpt>
      <trkpt lat="48.86589" lon="2.33034">
        <ele>82.1</ele>
        <time>2013-08-05T20:38:20.000Z</time>
      </trkpt>
      <trkpt lat="48.86587" lon="2.33042">
        <ele>81.8</ele>
        <time>2013-08-05T20:38:21.000Z</time>
      </trkpt>
      <trkpt lat="48.86587" lon="2.33048">
        <ele>80.7</ele>
        <time>2013-08-05T20:38:22.000Z</time>
      </trkpt>
      <trkpt lat="48.86581" lon="2.33056">
        <ele>79.9</ele>
        <time>2013-08-05T20:38:23.000Z</time>
      </trkpt>
      <trkpt lat="48.86578" lon="2.33062">
        <ele>80.5</ele>
        <time>2013-08-05T20:38:24.000Z</time>
      </trkpt>
      <trkpt lat="48.86574" lon="2.33067">
        <ele>80.2</ele>
        <time>2013-08-05T20:38:25.000Z</time>
      </trkpt>
      <trkpt lat="48.86571" lon="2.33071">
        <ele>80.5</ele>
        <time>2013-08-05T20:38:26.000Z</time>
      </trkpt>
      <trkpt lat="48.86567" lon="2.33076">
        <ele>80.5</ele>
        <time>2013-08-05T20:38:27.000Z</time>
      </trkpt>
      <trkpt lat="48.86564" lon="2.33081">
        <ele>81.2</ele>
        <time>2013-08-05T20:38:28.000Z</time>
      </trkpt>
      <trkpt lat="48.8656" lon="2.33084">
        <ele>80.8</ele>
        <time>2013-08-05T20:38:29.000Z</time>
      </trkpt>
      <trkpt lat="48.86555" lon="2.33087">
        <ele>82.3</ele>
        <time>2013-08-05T20:38:30.000Z</time>
      </trkpt>
      <trkpt lat="48.8655" lon="2.3309">
        <ele>81.9</ele>
        <time>2013-08-05T20:38:31.000Z</time>
      </trkpt>
      <trkpt lat="48.86545" lon="2.33098">
        <ele>83.5</ele>
        <time>2013-08-05T20:38:32.000Z</time>
      </trkpt>
      <trkpt lat="48.86542" lon="2.33105">
        <ele>85</ele>
        <time>2013-08-05T20:38:33.000Z</time>
      </trkpt>
      <trkpt lat="48.86539" lon="2.33108">
        <ele>85.8</ele>
        <time>2013-08-05T20:38:34.000Z</time>
      </trkpt>
      <trkpt lat="48.86536" lon="2.33116">
        <ele>84.8</ele>
        <time>2013-08-05T20:38:35.000Z</time>
      </trkpt>
      <trkpt lat="48.86533" lon="2.33124">
        <ele>85.6</ele>
        <time>2013-08-05T20:38:36.000Z</time>
      </trkpt>
      <trkpt lat="48.86531" lon="2.33129">
        <ele>84.6</ele>
        <time>2013-08-05T20:38:37.000Z</time>
      </trkpt>
      <trkpt lat="48.86528" lon="2.33135">
        <ele>85.1</ele>
        <time>2013-08-05T20:38:38.000Z</time>
      </trkpt>
      <trkpt lat="48.86523" lon="2.33142">
        <ele>85.5</ele>
        <time>2013-08-05T20:38:39.000Z</time>
      </trkpt>
      <trkpt lat="48.8652" lon="2.33149">
        <ele>85.9</ele>
        <time>2013-08-05T20:38:40.000Z</time>
      </trkpt>
      <trkpt lat="48.86515" lon="2.33154">
        <ele>84.8</ele>
        <time>2013-08-05T20:38:41.000Z</time>
      </trkpt>
      <trkpt lat="48.86511" lon="2.33161">
        <ele>85.3</ele>
        <time>2013-08-05T20:38:42.000Z</time>
      </trkpt>
      <trkpt lat="48.86506" lon="2.33168">
        <ele>85.6</ele>
        <time>2013-08-05T20:38:43.000Z</time>
      </trkpt>
      <trkpt lat="48.86503" lon="2.33175">
        <ele>85.2</ele>
        <time>2013-08-05T20:38:44.000Z</time>
      </trkpt>
      <trkpt lat="48.865" lon="2.3318">
        <ele>86.2</ele>
        <time>2013-08-05T20:38:45.000Z</time>
      </trkpt>
      <trkpt lat="48.86497" lon="2.33185">
        <ele>87.2</ele>
        <time>2013-08-05T20:38:46.000Z</time>
      </trkpt>
      <trkpt lat="48.86492" lon="2.33189">
        <ele>87.3</ele>
        <time>2013-08-05T20:38:47.000Z</time>
      </trkpt>
      <trkpt lat="48.86488" lon="2.33193">
        <ele>87.5</ele>
        <time>2013-08-05T20:38:48.000Z</time>
      </trkpt>
      <trkpt lat="48.86485" lon="2.33196">
        <ele>87.7</ele>
        <time>2013-08-05T20:38:49.000Z</time>
      </trkpt>
      <trkpt lat="48.86481" lon="2.33207">
        <ele>87.1</ele>
        <time>2013-08-05T20:38:50.000Z</time>
      </trkpt>
      <trkpt lat="48.86478" lon="2.33215">
        <ele>88.1</ele>
        <time>2013-08-05T20:38:51.000Z</time>
      </trkpt>
      <trkpt lat="48.86473" lon="2.33223">
        <ele>88.6</ele>
        <time>2013-08-05T20:38:52.000Z</time>
      </trkpt>
      <trkpt lat="48.86472" lon="2.33231">
        <ele>89</ele>
        <time>2013-08-05T20:38:53.000Z</time>
      </trkpt>
      <trkpt lat="48.86468" lon="2.33238">
        <ele>88.1</ele>
        <time>2013-08-05T20:38:54.000Z</time>
      </trkpt>
      <trkpt lat="48.86466" lon="2.33246">
        <ele>88.4</ele>
        <time>2013-08-05T20:38:55.000Z</time>
      </trkpt>
      <trkpt lat="48.86466" lon="2.33254">
        <ele>89.5</ele>
        <time>2013-08-05T20:38:56.000Z</time>
      </trkpt>
      <trkpt lat="48.86465" lon="2.33261">
        <ele>91.2</ele>
        <time>2013-08-05T20:38:57.000Z</time>
      </trkpt>
      <trkpt lat="48.86462" lon="2.33266">
        <ele>91.7</ele>
        <time>2013-08-05T20:38:58.000Z</time>
      </trkpt>
      <trkpt lat="48.86458" lon="2.33267">
        <ele>93.2</ele>
        <time>2013-08-05T20:38:59.000Z</time>
      </trkpt>
      <trkpt lat="48.86457" lon="2.33268">
        <ele>94.8</ele>
        <time>2013-08-05T20:39:00.000Z</time>
      </trkpt>
      <trkpt lat="48.86452" lon="2.33272">
        <ele>95.9</ele>
        <time>2013-08-05T20:39:01.000Z</time>
      </trkpt>
      <trkpt lat="48.86448" lon="2.33275">
        <ele>94.3</ele>
        <time>2013-08-05T20:39:02.000Z</time>
      </trkpt>
      <trkpt lat="48.86444" lon="2.33279">
        <ele>94.8</ele>
        <time>2013-08-05T20:39:03.000Z</time>
      </trkpt>
      <trkpt lat="48.8644" lon="2.33284">
        <ele>95.1</ele>
        <time>2013-08-05T20:39:04.000Z</time>
      </trkpt>
      <trkpt lat="48.86436" lon="2.33289">
        <ele>95.2</ele>
        <time>2013-08-05T20:39:05.000Z</time>
      </trkpt>
      <trkpt lat="48.86434" lon="2.33297">
        <ele>96.7</ele>
        <time>2013-08-05T20:39:06.000Z</time>
      </trkpt>
      <trkpt lat="48.86431" lon="2.33305">
        <ele>96.8</ele>
        <time>2013-08-05T20:39:07.000Z</time>
      </trkpt>
      <trkpt lat="48.8643" lon="2.33315">
        <ele>93.3</ele>
        <time>2013-08-05T20:39:08.000Z</time>
      </trkpt>
      <trkpt lat="48.86428" lon="2.33323">
        <ele>93</ele>
        <time>2013-08-05T20:39:09.000Z</time>
      </trkpt>
      <trkpt lat="48.86425" lon="2.33329">
        <ele>94.3</ele>
        <time>2013-08-05T20:39:10.000Z</time>
      </trkpt>
      <trkpt lat="48.86421" lon="2.33335">
        <ele>94.7</ele>
        <time>2013-08-05T20:39:11.000Z</time>
      </trkpt>
      <trkpt lat="48.86417" lon="2.33336">
        <ele>93.7</ele>
        <time>2013-08-05T20:39:12.000Z</time>
      </trkpt>
      <trkpt lat="48.86413" lon="2.33341">
        <ele>93.4</ele>
        <time>2013-08-05T20:39:13.000Z</time>
      </trkpt>
      <trkpt lat="48.86411" lon="2.33344">
        <ele>93.7</ele>
        <time>2013-08-05T20:39:14.000Z</time>
      </trkpt>
      <trkpt lat="48.86412" lon="2.33349">
        <ele>92.8</ele>
        <time>2013-08-05T20:39:15.000Z</time>
      </trkpt>
      <trkpt lat="48.86412" lon="2.33356">
        <ele>91</ele>
        <time>2013-08-05T20:39:16.000Z</time>
      </trkpt>
      <trkpt lat="48.8641" lon="2.3336">
        <ele>90</ele>
        <time>2013-08-05T20:39:17.000Z</time>
      </trkpt>
      <trkpt lat="48.86408" lon="2.33365">
        <ele>90.1</ele>
        <time>2013-08-05T20:39:18.000Z</time>
      </trkpt>
      <trkpt lat="48.86406" lon="2.3337">
        <ele>88.9</ele>
        <time>2013-08-05T20:39:19.000Z</time>
      </trkpt>
      <trkpt lat="48.86402" lon="2.33373">
        <ele>89.1</ele>
        <time>2013-08-05T20:39:24.000Z</time>
      </trkpt>
      <trkpt lat="48.86402" lon="2.33374">
        <ele>89.7</ele>
        <time>2013-08-05T20:39:25.000Z</time>
      </trkpt>
      <trkpt lat="48.86401" lon="2.3338">
        <ele>91.5</ele>
        <time>2013-08-05T20:39:28.000Z</time>
      </trkpt>
      <trkpt lat="48.864" lon="2.33383">
        <ele>91.4</ele>
        <time>2013-08-05T20:39:29.000Z</time>
      </trkpt>
      <trkpt lat="48.86399" lon="2.33387">
        <ele>91.2</ele>
        <time>2013-08-05T20:39:30.000Z</time>
      </trkpt>
      <trkpt lat="48.864" lon="2.33393">
        <ele>90.7</ele>
        <time>2013-08-05T20:39:31.000Z</time>
      </trkpt>
      <trkpt lat="48.864" lon="2.33397">
        <ele>90.7</ele>
        <time>2013-08-05T20:39:32.000Z</time>
      </trkpt>
      <trkpt lat="48.864" lon="2.33402">
        <ele>90</ele>
        <time>2013-08-05T20:39:33.000Z</time>
      </trkpt>
      <trkpt lat="48.864" lon="2.33407">
        <ele>90.1</ele>
        <time>2013-08-05T20:39:34.000Z</time>
      </trkpt>
      <trkpt lat="48.864" lon="2.33411">
        <ele>90.3</ele>
        <time>2013-08-05T20:39:35.000Z</time>
      </trkpt>
      <trkpt lat="48.864" lon="2.33418">
        <ele>91.7</ele>
        <time>2013-08-05T20:39:37.000Z</time>
      </trkpt>
      <trkpt lat="48.86401" lon="2.33418">
        <ele>92.4</ele>
        <time>2013-08-05T20:39:38.000Z</time>
      </trkpt>
      <trkpt lat="48.864" lon="2.33424">
        <ele>96</ele>
        <time>2013-08-05T20:39:56.000Z</time>
      </trkpt>
      <trkpt lat="48.86398" lon="2.33428">
        <ele>97.4</ele>
        <time>2013-08-05T20:39:57.000Z</time>
      </trkpt>
      <trkpt lat="48.86397" lon="2.33433">
        <ele>97</ele>
        <time>2013-08-05T20:39:58.000Z</time>
      </trkpt>
      <trkpt lat="48.86393" lon="2.33439">
        <ele>97.7</ele>
        <time>2013-08-05T20:39:59.000Z</time>
      </trkpt>
      <trkpt lat="48.8639" lon="2.33444">
        <ele>98.9</ele>
        <time>2013-08-05T20:40:00.000Z</time>
      </trkpt>
      <trkpt lat="48.86388" lon="2.33451">
        <ele>104.2</ele>
        <time>2013-08-05T20:40:01.000Z</time>
      </trkpt>
      <trkpt lat="48.86388" lon="2.33457">
        <ele>105.1</ele>
        <time>2013-08-05T20:40:02.000Z</time>
      </trkpt>
      <trkpt lat="48.86387" lon="2.33464">
        <ele>107.4</ele>
        <time>2013-08-05T20:40:03.000Z</time>
      </trkpt>
      <trkpt lat="48.86386" lon="2.3347">
        <ele>107</ele>
        <time>2013-08-05T20:40:04.000Z</time>
      </trkpt>
      <trkpt lat="48.86384" lon="2.33476">
        <ele>108</ele>
        <time>2013-08-05T20:40:05.000Z</time>
      </trkpt>
      <trkpt lat="48.86383" lon="2.33481">
        <ele>108.7</ele>
        <time>2013-08-05T20:40:06.000Z</time>
      </trkpt>
      <trkpt lat="48.8638" lon="2.33488">
        <ele>107.7</ele>
        <time>2013-08-05T20:40:07.000Z</time>
      </trkpt>
      <trkpt lat="48.86378" lon="2.33493">
        <ele>107.6</ele>
        <time>2013-08-05T20:40:08.000Z</time>
      </trkpt>
      <trkpt lat="48.86375" lon="2.335">
        <ele>106.3</ele>
        <time>2013-08-05T20:40:09.000Z</time>
      </trkpt>
      <trkpt lat="48.86372" lon="2.33506">
        <ele>101.2</ele>
        <time>2013-08-05T20:40:10.000Z</time>
      </trkpt>
      <trkpt lat="48.86369" lon="2.33512">
        <ele>96.5</ele>
        <time>2013-08-05T20:40:11.000Z</time>
      </trkpt>
      <trkpt lat="48.86365" lon="2.33518">
        <ele>95.9</ele>
        <time>2013-08-05T20:40:12.000Z</time>
      </trkpt>
      <trkpt lat="48.86362" lon="2.33523">
        <ele>96.7</ele>
        <time>2013-08-05T20:40:13.000Z</time>
      </trkpt>
      <trkpt lat="48.86358" lon="2.33529">
        <ele>98</ele>
        <time>2013-08-05T20:40:14.000Z</time>
      </trkpt>
      <trkpt lat="48.86355" lon="2.33534">
        <ele>98.3</ele>
        <time>2013-08-05T20:40:15.000Z</time>
      </trkpt>
      <trkpt lat="48.86351" lon="2.33539">
        <ele>98.8</ele>
        <time>2013-08-05T20:40:16.000Z</time>
      </trkpt>
      <trkpt lat="48.86348" lon="2.33544">
        <ele>98.9</ele>
        <time>2013-08-05T20:40:17.000Z</time>
      </trkpt>
      <trkpt lat="48.86345" lon="2.33548">
        <ele>99.7</ele>
        <time>2013-08-05T20:40:18.000Z</time>
      </trkpt>
      <trkpt lat="48.86343" lon="2.33553">
        <ele>100.1</ele>
        <time>2013-08-05T20:40:19.000Z</time>
      </trkpt>
      <trkpt lat="48.8634" lon="2.33557">
        <ele>101.2</ele>
        <time>2013-08-05T20:40:20.000Z</time>
      </trkpt>
      <trkpt lat="48.86338" lon="2.33562">
        <ele>100.4</ele>
        <time>2013-08-05T20:40:21.000Z</time>
      </trkpt>
      <trkpt lat="48.86335" lon="2.33566">
        <ele>98.9</ele>
        <time>2013-08-05T20:40:22.000Z</time>
      </trkpt>
      <trkpt lat="48.86333" lon="2.3357">
        <ele>98.2</ele>
        <time>2013-08-05T20:40:23.000Z</time>
      </trkpt>
      <trkpt lat="48.8633" lon="2.33575">
        <ele>98.7</ele>
        <time>2013-08-05T20:40:24.000Z</time>
      </trkpt>
      <trkpt lat="48.86329" lon="2.33581">
        <ele>98.5</ele>
        <time>2013-08-05T20:40:25.000Z</time>
      </trkpt>
      <trkpt lat="48.86327" lon="2.33586">
        <ele>99.9</ele>
        <time>2013-08-05T20:40:26.000Z</time>
      </trkpt>
      <trkpt lat="48.86325" lon="2.33591">
        <ele>99.5</ele>
        <time>2013-08-05T20:40:27.000Z</time>
      </trkpt>
      <trkpt lat="48.86324" lon="2.33597">
        <ele>100</ele>
        <time>2013-08-05T20:40:28.000Z</time>
      </trkpt>
      <trkpt lat="48.86323" lon="2.33603">
        <ele>98.4</ele>
        <time>2013-08-05T20:40:29.000Z</time>
      </trkpt>
      <trkpt lat="48.86323" lon="2.33608">
        <ele>98.7</ele>
        <time>2013-08-05T20:40:30.000Z</time>
      </trkpt>
      <trkpt lat="48.86322" lon="2.33614">
        <ele>101.5</ele>
        <time>2013-08-05T20:40:31.000Z</time>
      </trkpt>
      <trkpt lat="48.86321" lon="2.3362">
        <ele>102.3</ele>
        <time>2013-08-05T20:40:32.000Z</time>
      </trkpt>
      <trkpt lat="48.86318" lon="2.33625">
        <ele>94.9</ele>
        <time>2013-08-05T20:40:33.000Z</time>
      </trkpt>
      <trkpt lat="48.86314" lon="2.33631">
        <ele>90</ele>
        <time>2013-08-05T20:40:34.000Z</time>
      </trkpt>
      <trkpt lat="48.86311" lon="2.33637">
        <ele>87.2</ele>
        <time>2013-08-05T20:40:35.000Z</time>
      </trkpt>
      <trkpt lat="48.86307" lon="2.33642">
        <ele>85.8</ele>
        <time>2013-08-05T20:40:36.000Z</time>
      </trkpt>
      <trkpt lat="48.86303" lon="2.33647">
        <ele>84.8</ele>
        <time>2013-08-05T20:40:37.000Z</time>
      </trkpt>
      <trkpt lat="48.863" lon="2.33652">
        <ele>84.8</ele>
        <time>2013-08-05T20:40:38.000Z</time>
      </trkpt>
      <trkpt lat="48.86296" lon="2.33657">
        <ele>83.3</ele>
        <time>2013-08-05T20:40:39.000Z</time>
      </trkpt>
      <trkpt lat="48.86293" lon="2.33662">
        <ele>83.4</ele>
        <time>2013-08-05T20:40:40.000Z</time>
      </trkpt>
      <trkpt lat="48.86289" lon="2.33666">
        <ele>82.6</ele>
        <time>2013-08-05T20:40:41.000Z</time>
      </trkpt>
      <trkpt lat="48.86286" lon="2.33671">
        <ele>82.4</ele>
        <time>2013-08-05T20:40:42.000Z</time>
      </trkpt>
      <trkpt lat="48.86283" lon="2.33676">
        <ele>82.7</ele>
        <time>2013-08-05T20:40:43.000Z</time>
      </trkpt>
      <trkpt lat="48.86281" lon="2.33681">
        <ele>82.3</ele>
        <time>2013-08-05T20:40:44.000Z</time>
      </trkpt>
      <trkpt lat="48.8628" lon="2.33685">
        <ele>81.9</ele>
        <time>2013-08-05T20:40:45.000Z</time>
      </trkpt>
      <trkpt lat="48.86278" lon="2.33689">
        <ele>81.5</ele>
        <time>2013-08-05T20:40:46.000Z</time>
      </trkpt>
      <trkpt lat="48.86276" lon="2.33693">
        <ele>81.4</ele>
        <time>2013-08-05T20:40:47.000Z</time>
      </trkpt>
      <trkpt lat="48.86275" lon="2.33697">
        <ele>82.1</ele>
        <time>2013-08-05T20:40:48.000Z</time>
      </trkpt>
      <trkpt lat="48.86274" lon="2.33701">
        <ele>82.5</ele>
        <time>2013-08-05T20:40:49.000Z</time>
      </trkpt>
      <trkpt lat="48.86274" lon="2.33704">
        <ele>83.2</ele>
        <time>2013-08-05T20:40:50.000Z</time>
      </trkpt>
      <trkpt lat="48.86273" lon="2.33708">
        <ele>82.9</ele>
        <time>2013-08-05T20:40:51.000Z</time>
      </trkpt>
      <trkpt lat="48.86273" lon="2.33712">
        <ele>82.6</ele>
        <time>2013-08-05T20:40:52.000Z</time>
      </trkpt>
      <trkpt lat="48.86273" lon="2.33716">
        <ele>82.8</ele>
        <time>2013-08-05T20:40:53.000Z</time>
      </trkpt>
      <trkpt lat="48.86274" lon="2.33719">
        <ele>83.7</ele>
        <time>2013-08-05T20:40:54.000Z</time>
      </trkpt>
      <trkpt lat="48.86274" lon="2.33723">
        <ele>84.1</ele>
        <time>2013-08-05T20:40:55.000Z</time>
      </trkpt>
      <trkpt lat="48.86274" lon="2.33727">
        <ele>83.8</ele>
        <time>2013-08-05T20:40:56.000Z</time>
      </trkpt>
      <trkpt lat="48.86274" lon="2.3373">
        <ele>83.8</ele>
        <time>2013-08-05T20:40:57.000Z</time>
      </trkpt>
      <trkpt lat="48.86275" lon="2.33734">
        <ele>83</ele>
        <time>2013-08-05T20:40:58.000Z</time>
      </trkpt>
      <trkpt lat="48.86275" lon="2.33737">
        <ele>82.9</ele>
        <time>2013-08-05T20:40:59.000Z</time>
      </trkpt>
      <trkpt lat="48.86275" lon="2.33741">
        <ele>83.6</ele>
        <time>2013-08-05T20:41:00.000Z</time>
      </trkpt>
      <trkpt lat="48.86274" lon="2.33745">
        <ele>83.7</ele>
        <time>2013-08-05T20:41:01.000Z</time>
      </trkpt>
      <trkpt lat="48.86273" lon="2.33749">
        <ele>85.6</ele>
        <time>2013-08-05T20:41:02.000Z</time>
      </trkpt>
      <trkpt lat="48.86271" lon="2.33753">
        <ele>86.7</ele>
        <time>2013-08-05T20:41:03.000Z</time>
      </trkpt>
      <trkpt lat="48.86269" lon="2.33756">
        <ele>88.5</ele>
        <time>2013-08-05T20:41:04.000Z</time>
      </trkpt>
      <trkpt lat="48.86267" lon="2.3376">
        <ele>87</ele>
        <time>2013-08-05T20:41:05.000Z</time>
      </trkpt>
      <trkpt lat="48.86266" lon="2.33764">
        <ele>85.2</ele>
        <time>2013-08-05T20:41:06.000Z</time>
      </trkpt>
      <trkpt lat="48.86265" lon="2.33768">
        <ele>85.5</ele>
        <time>2013-08-05T20:41:07.000Z</time>
      </trkpt>
      <trkpt lat="48.86265" lon="2.33772">
        <ele>84</ele>
        <time>2013-08-05T20:41:08.000Z</time>
      </trkpt>
      <trkpt lat="48.86265" lon="2.33776">
        <ele>83.1</ele>
        <time>2013-08-05T20:41:09.000Z</time>
      </trkpt>
      <trkpt lat="48.86265" lon="2.3378">
        <ele>83.8</ele>
        <time>2013-08-05T20:41:10.000Z</time>
      </trkpt>
      <trkpt lat="48.86264" lon="2.33784">
        <ele>82.8</ele>
        <time>2013-08-05T20:41:11.000Z</time>
      </trkpt>
      <trkpt lat="48.86264" lon="2.33788">
        <ele>82</ele>
        <time>2013-08-05T20:41:12.000Z</time>
      </trkpt>
      <trkpt lat="48.86261" lon="2.33795">
        <ele>82.6</ele>
        <time>2013-08-05T20:41:13.000Z</time>
      </trkpt>
      <trkpt lat="48.86259" lon="2.338">
        <ele>82.8</ele>
        <time>2013-08-05T20:41:14.000Z</time>
      </trkpt>
      <trkpt lat="48.86257" lon="2.33807">
        <ele>83.2</ele>
        <time>2013-08-05T20:41:15.000Z</time>
      </trkpt>
      <trkpt lat="48.86256" lon="2.33814">
        <ele>83.8</ele>
        <time>2013-08-05T20:41:16.000Z</time>
      </trkpt>
      <trkpt lat="48.86254" lon="2.33822">
        <ele>85.2</ele>
        <time>2013-08-05T20:41:17.000Z</time>
      </trkpt>
      <trkpt lat="48.86253" lon="2.33829">
        <ele>91</ele>
        <time>2013-08-05T20:41:18.000Z</time>
      </trkpt>
      <trkpt lat="48.86251" lon="2.33836">
        <ele>94.3</ele>
        <time>2013-08-05T20:41:19.000Z</time>
      </trkpt>
      <trkpt lat="48.86249" lon="2.33843">
        <ele>96.4</ele>
        <time>2013-08-05T20:41:20.000Z</time>
      </trkpt>
      <trkpt lat="48.86248" lon="2.33851">
        <ele>92.6</ele>
        <time>2013-08-05T20:41:21.000Z</time>
      </trkpt>
      <trkpt lat="48.86246" lon="2.33877">
        <ele>90.1</ele>
        <time>2013-08-05T20:41:22.000Z</time>
      </trkpt>
      <trkpt lat="48.86244" lon="2.33887">
        <ele>89.7</ele>
        <time>2013-08-05T20:41:23.000Z</time>
      </trkpt>
      <trkpt lat="48.86242" lon="2.33896">
        <ele>90.3</ele>
        <time>2013-08-05T20:41:24.000Z</time>
      </trkpt>
      <trkpt lat="48.86239" lon="2.33905">
        <ele>92.2</ele>
        <time>2013-08-05T20:41:25.000Z</time>
      </trkpt>
      <trkpt lat="48.86235" lon="2.33911">
        <ele>92.8</ele>
        <time>2013-08-05T20:41:26.000Z</time>
      </trkpt>
      <trkpt lat="48.86232" lon="2.33915">
        <ele>94.3</ele>
        <time>2013-08-05T20:41:27.000Z</time>
      </trkpt>
      <trkpt lat="48.86229" lon="2.3392">
        <ele>95.4</ele>
        <time>2013-08-05T20:41:28.000Z</time>
      </trkpt>
      <trkpt lat="48.86228" lon="2.33927">
        <ele>96.4</ele>
        <time>2013-08-05T20:41:29.000Z</time>
      </trkpt>
      <trkpt lat="48.86223" lon="2.33931">
        <ele>99.3</ele>
        <time>2013-08-05T20:41:30.000Z</time>
      </trkpt>
      <trkpt lat="48.86224" lon="2.33945">
        <ele>96.5</ele>
        <time>2013-08-05T20:41:31.000Z</time>
      </trkpt>
      <trkpt lat="48.86224" lon="2.33951">
        <ele>96</ele>
        <time>2013-08-05T20:41:32.000Z</time>
      </trkpt>
      <trkpt lat="48.86223" lon="2.33958">
        <ele>98.1</ele>
        <time>2013-08-05T20:41:33.000Z</time>
      </trkpt>
      <trkpt lat="48.86222" lon="2.33964">
        <ele>99.8</ele>
        <time>2013-08-05T20:41:34.000Z</time>
      </trkpt>
      <trkpt lat="48.8622" lon="2.33969">
        <ele>99.7</ele>
        <time>2013-08-05T20:41:35.000Z</time>
      </trkpt>
      <trkpt lat="48.86219" lon="2.33976">
        <ele>99.9</ele>
        <time>2013-08-05T20:41:36.000Z</time>
      </trkpt>
      <trkpt lat="48.86216" lon="2.33985">
        <ele>100.8</ele>
        <time>2013-08-05T20:41:37.000Z</time>
      </trkpt>
      <trkpt lat="48.86215" lon="2.3399">
        <ele>101.3</ele>
        <time>2013-08-05T20:41:38.000Z</time>
      </trkpt>
      <trkpt lat="48.86213" lon="2.33996">
        <ele>101.8</ele>
        <time>2013-08-05T20:41:39.000Z</time>
      </trkpt>
      <trkpt lat="48.86211" lon="2.34004">
        <ele>102.2</ele>
        <time>2013-08-05T20:41:40.000Z</time>
      </trkpt>
      <trkpt lat="48.86209" lon="2.34012">
        <ele>103.4</ele>
        <time>2013-08-05T20:41:41.000Z</time>
      </trkpt>
      <trkpt lat="48.86208" lon="2.34019">
        <ele>104.6</ele>
        <time>2013-08-05T20:41:42.000Z</time>
      </trkpt>
      <trkpt lat="48.86206" lon="2.34026">
        <ele>103.5</ele>
        <time>2013-08-05T20:41:43.000Z</time>
      </trkpt>
      <trkpt lat="48.86205" lon="2.34033">
        <ele>104</ele>
        <time>2013-08-05T20:41:44.000Z</time>
      </trkpt>
      <trkpt lat="48.86202" lon="2.34043">
        <ele>103.9</ele>
        <time>2013-08-05T20:41:45.000Z</time>
      </trkpt>
      <trkpt lat="48.86201" lon="2.34051">
        <ele>103.9</ele>
        <time>2013-08-05T20:41:46.000Z</time>
      </trkpt>
      <trkpt lat="48.862" lon="2.34057">
        <ele>104.1</ele>
        <time>2013-08-05T20:41:47.000Z</time>
      </trkpt>
      <trkpt lat="48.86198" lon="2.34064">
        <ele>104.2</ele>
        <time>2013-08-05T20:41:48.000Z</time>
      </trkpt>
      <trkpt lat="48.86197" lon="2.34066">
        <ele>105.2</ele>
        <time>2013-08-05T20:41:49.000Z</time>
      </trkpt>
      <trkpt lat="48.86196" lon="2.34071">
        <ele>103.9</ele>
        <time>2013-08-05T20:41:50.000Z</time>
      </trkpt>
      <trkpt lat="48.86197" lon="2.3408">
        <ele>99.6</ele>
        <time>2013-08-05T20:41:51.000Z</time>
      </trkpt>
      <trkpt lat="48.86195" lon="2.34085">
        <ele>97.6</ele>
        <time>2013-08-05T20:41:53.000Z</time>
      </trkpt>
      <trkpt lat="48.86195" lon="2.34088">
        <ele>97.7</ele>
        <time>2013-08-05T20:41:54.000Z</time>
      </trkpt>
      <trkpt lat="48.86193" lon="2.34093">
        <ele>97.8</ele>
        <time>2013-08-05T20:41:56.000Z</time>
      </trkpt>
      <trkpt lat="48.86193" lon="2.34095">
        <ele>101.1</ele>
        <time>2013-08-05T20:41:57.000Z</time>
      </trkpt>
      <trkpt lat="48.8619" lon="2.341">
        <ele>103.1</ele>
        <time>2013-08-05T20:42:00.000Z</time>
      </trkpt>
      <trkpt lat="48.86188" lon="2.341">
        <ele>104.2</ele>
        <time>2013-08-05T20:42:01.000Z</time>
      </trkpt>
      <trkpt lat="48.86184" lon="2.34104">
        <ele>107.7</ele>
        <time>2013-08-05T20:42:03.000Z</time>
      </trkpt>
      <trkpt lat="48.86182" lon="2.34108">
        <ele>108.7</ele>
        <time>2013-08-05T20:42:04.000Z</time>
      </trkpt>
      <trkpt lat="48.8618" lon="2.34112">
        <ele>109.4</ele>
        <time>2013-08-05T20:42:05.000Z</time>
      </trkpt>
      <trkpt lat="48.86179" lon="2.34117">
        <ele>109.7</ele>
        <time>2013-08-05T20:42:06.000Z</time>
      </trkpt>
      <trkpt lat="48.86178" lon="2.34123">
        <ele>110.3</ele>
        <time>2013-08-05T20:42:07.000Z</time>
      </trkpt>
      <trkpt lat="48.86177" lon="2.3413">
        <ele>110.7</ele>
        <time>2013-08-05T20:42:08.000Z</time>
      </trkpt>
      <trkpt lat="48.86175" lon="2.34138">
        <ele>111.4</ele>
        <time>2013-08-05T20:42:09.000Z</time>
      </trkpt>
      <trkpt lat="48.86173" lon="2.34146">
        <ele>112.7</ele>
        <time>2013-08-05T20:42:10.000Z</time>
      </trkpt>
      <trkpt lat="48.86171" lon="2.34154">
        <ele>114.2</ele>
        <time>2013-08-05T20:42:11.000Z</time>
      </trkpt>
      <trkpt lat="48.8617" lon="2.34162">
        <ele>115.6</ele>
        <time>2013-08-05T20:42:12.000Z</time>
      </trkpt>
      <trkpt lat="48.86168" lon="2.3417">
        <ele>115.5</ele>
        <time>2013-08-05T20:42:13.000Z</time>
      </trkpt>
      <trkpt lat="48.86167" lon="2.34177">
        <ele>116.3</ele>
        <time>2013-08-05T20:42:14.000Z</time>
      </trkpt>
      <trkpt lat="48.86165" lon="2.34185">
        <ele>116.9</ele>
        <time>2013-08-05T20:42:15.000Z</time>
      </trkpt>
      <trkpt lat="48.86164" lon="2.34192">
        <ele>116.8</ele>
        <time>2013-08-05T20:42:16.000Z</time>
      </trkpt>
      <trkpt lat="48.86163" lon="2.34198">
        <ele>117</ele>
        <time>2013-08-05T20:42:17.000Z</time>
      </trkpt>
      <trkpt lat="48.8616" lon="2.34207">
        <ele>116.9</ele>
        <time>2013-08-05T20:42:18.000Z</time>
      </trkpt>
      <trkpt lat="48.86158" lon="2.34214">
        <ele>118.4</ele>
        <time>2013-08-05T20:42:19.000Z</time>
      </trkpt>
      <trkpt lat="48.86158" lon="2.34222">
        <ele>116.9</ele>
        <time>2013-08-05T20:42:20.000Z</time>
      </trkpt>
      <trkpt lat="48.86157" lon="2.3423">
        <ele>117.2</ele>
        <time>2013-08-05T20:42:21.000Z</time>
      </trkpt>
      <trkpt lat="48.86156" lon="2.34237">
        <ele>118.2</ele>
        <time>2013-08-05T20:42:22.000Z</time>
      </trkpt>
      <trkpt lat="48.86155" lon="2.34245">
        <ele>119.2</ele>
        <time>2013-08-05T20:42:23.000Z</time>
      </trkpt>
      <trkpt lat="48.86154" lon="2.34253">
        <ele>118.5</ele>
        <time>2013-08-05T20:42:24.000Z</time>
      </trkpt>
      <trkpt lat="48.86148" lon="2.34269">
        <ele>119.1</ele>
        <time>2013-08-05T20:42:25.000Z</time>
      </trkpt>
      <trkpt lat="48.86146" lon="2.34275">
        <ele>119.5</ele>
        <time>2013-08-05T20:42:26.000Z</time>
      </trkpt>
      <trkpt lat="48.86145" lon="2.34282">
        <ele>119.4</ele>
        <time>2013-08-05T20:42:27.000Z</time>
      </trkpt>
      <trkpt lat="48.86142" lon="2.3429">
        <ele>118.8</ele>
        <time>2013-08-05T20:42:28.000Z</time>
      </trkpt>
      <trkpt lat="48.86141" lon="2.34296">
        <ele>118.5</ele>
        <time>2013-08-05T20:42:29.000Z</time>
      </trkpt>
      <trkpt lat="48.86139" lon="2.34303">
        <ele>119.2</ele>
        <time>2013-08-05T20:42:30.000Z</time>
      </trkpt>
      <trkpt lat="48.86137" lon="2.34312">
        <ele>118.9</ele>
        <time>2013-08-05T20:42:31.000Z</time>
      </trkpt>
      <trkpt lat="48.86134" lon="2.34317">
        <ele>118.9</ele>
        <time>2013-08-05T20:42:32.000Z</time>
      </trkpt>
      <trkpt lat="48.86135" lon="2.34323">
        <ele>118.7</ele>
        <time>2013-08-05T20:42:33.000Z</time>
      </trkpt>
      <trkpt lat="48.86133" lon="2.34332">
        <ele>118</ele>
        <time>2013-08-05T20:42:34.000Z</time>
      </trkpt>
      <trkpt lat="48.86131" lon="2.34341">
        <ele>118.2</ele>
        <time>2013-08-05T20:42:35.000Z</time>
      </trkpt>
      <trkpt lat="48.86129" lon="2.3435">
        <ele>117.8</ele>
        <time>2013-08-05T20:42:36.000Z</time>
      </trkpt>
      <trkpt lat="48.86125" lon="2.34359">
        <ele>116.9</ele>
        <time>2013-08-05T20:42:37.000Z</time>
      </trkpt>
      <trkpt lat="48.86125" lon="2.3437">
        <ele>113.4</ele>
        <time>2013-08-05T20:42:38.000Z</time>
      </trkpt>
      <trkpt lat="48.86124" lon="2.34377">
        <ele>113.4</ele>
        <time>2013-08-05T20:42:39.000Z</time>
      </trkpt>
      <trkpt lat="48.86124" lon="2.34383">
        <ele>111.4</ele>
        <time>2013-08-05T20:42:40.000Z</time>
      </trkpt>
      <trkpt lat="48.86119" lon="2.34385">
        <ele>112.6</ele>
        <time>2013-08-05T20:42:41.000Z</time>
      </trkpt>
      <trkpt lat="48.86121" lon="2.34391">
        <ele>112.7</ele>
        <time>2013-08-05T20:42:42.000Z</time>
      </trkpt>
      <trkpt lat="48.86121" lon="2.34399">
        <ele>113.5</ele>
        <time>2013-08-05T20:42:43.000Z</time>
      </trkpt>
      <trkpt lat="48.86119" lon="2.3441">
        <ele>114.1</ele>
        <time>2013-08-05T20:42:44.000Z</time>
      </trkpt>
      <trkpt lat="48.86116" lon="2.34417">
        <ele>113.5</ele>
        <time>2013-08-05T20:42:45.000Z</time>
      </trkpt>
      <trkpt lat="48.86112" lon="2.34427">
        <ele>115.1</ele>
        <time>2013-08-05T20:42:46.000Z</time>
      </trkpt>
      <trkpt lat="48.86116" lon="2.34447">
        <ele>104.3</ele>
        <time>2013-08-05T20:42:47.000Z</time>
      </trkpt>
      <trkpt lat="48.86117" lon="2.34454">
        <ele>103.2</ele>
        <time>2013-08-05T20:42:48.000Z</time>
      </trkpt>
      <trkpt lat="48.86117" lon="2.34462">
        <ele>102.2</ele>
        <time>2013-08-05T20:42:49.000Z</time>
      </trkpt>
      <trkpt lat="48.86117" lon="2.34467">
        <ele>100.8</ele>
        <time>2013-08-05T20:42:50.000Z</time>
      </trkpt>
      <trkpt lat="48.86116" lon="2.34472">
        <ele>101.9</ele>
        <time>2013-08-05T20:42:51.000Z</time>
      </trkpt>
      <trkpt lat="48.86115" lon="2.34479">
        <ele>102.3</ele>
        <time>2013-08-05T20:42:52.000Z</time>
      </trkpt>
      <trkpt lat="48.86114" lon="2.34486">
        <ele>102.5</ele>
        <time>2013-08-05T20:42:53.000Z</time>
      </trkpt>
      <trkpt lat="48.86111" lon="2.34494">
        <ele>102.8</ele>
        <time>2013-08-05T20:42:54.000Z</time>
      </trkpt>
      <trkpt lat="48.86109" lon="2.3451">
        <ele>102.4</ele>
        <time>2013-08-05T20:42:55.000Z</time>
      </trkpt>
      <trkpt lat="48.86105" lon="2.34523">
        <ele>101.6</ele>
        <time>2013-08-05T20:42:56.000Z</time>
      </trkpt>
      <trkpt lat="48.86102" lon="2.34531">
        <ele>101.1</ele>
        <time>2013-08-05T20:42:57.000Z</time>
      </trkpt>
      <trkpt lat="48.861" lon="2.34538">
        <ele>102</ele>
        <time>2013-08-05T20:42:58.000Z</time>
      </trkpt>
      <trkpt lat="48.86096" lon="2.34546">
        <ele>102.6</ele>
        <time>2013-08-05T20:42:59.000Z</time>
      </trkpt>
      <trkpt lat="48.86094" lon="2.3455">
        <ele>106</ele>
        <time>2013-08-05T20:43:00.000Z</time>
      </trkpt>
      <trkpt lat="48.86092" lon="2.34562">
        <ele>103.5</ele>
        <time>2013-08-05T20:43:01.000Z</time>
      </trkpt>
      <trkpt lat="48.86087" lon="2.3457">
        <ele>103.7</ele>
        <time>2013-08-05T20:43:02.000Z</time>
      </trkpt>
      <trkpt lat="48.86083" lon="2.34578">
        <ele>104.5</ele>
        <time>2013-08-05T20:43:03.000Z</time>
      </trkpt>
      <trkpt lat="48.86079" lon="2.34583">
        <ele>105.3</ele>
        <time>2013-08-05T20:43:04.000Z</time>
      </trkpt>
      <trkpt lat="48.86075" lon="2.34589">
        <ele>106.6</ele>
        <time>2013-08-05T20:43:05.000Z</time>
      </trkpt>
      <trkpt lat="48.8607" lon="2.34593">
        <ele>107</ele>
        <time>2013-08-05T20:43:06.000Z</time>
      </trkpt>
      <trkpt lat="48.86063" lon="2.34594">
        <ele>107.5</ele>
        <time>2013-08-05T20:43:07.000Z</time>
      </trkpt>
      <trkpt lat="48.86058" lon="2.34597">
        <ele>107.8</ele>
        <time>2013-08-05T20:43:08.000Z</time>
      </trkpt>
      <trkpt lat="48.86053" lon="2.34601">
        <ele>108.9</ele>
        <time>2013-08-05T20:43:09.000Z</time>
      </trkpt>
      <trkpt lat="48.86048" lon="2.34606">
        <ele>108.7</ele>
        <time>2013-08-05T20:43:10.000Z</time>
      </trkpt>
      <trkpt lat="48.86042" lon="2.3461">
        <ele>108.1</ele>
        <time>2013-08-05T20:43:11.000Z</time>
      </trkpt>
      <trkpt lat="48.86038" lon="2.34615">
        <ele>107.1</ele>
        <time>2013-08-05T20:43:12.000Z</time>
      </trkpt>
      <trkpt lat="48.86033" lon="2.34619">
        <ele>106.8</ele>
        <time>2013-08-05T20:43:13.000Z</time>
      </trkpt>
      <trkpt lat="48.86029" lon="2.34622">
        <ele>106.4</ele>
        <time>2013-08-05T20:43:14.000Z</time>
      </trkpt>
      <trkpt lat="48.86026" lon="2.34628">
        <ele>106.2</ele>
        <time>2013-08-05T20:43:15.000Z</time>
      </trkpt>
      <trkpt lat="48.8602" lon="2.34632">
        <ele>101.8</ele>
        <time>2013-08-05T20:43:16.000Z</time>
      </trkpt>
      <trkpt lat="48.86016" lon="2.34636">
        <ele>99.5</ele>
        <time>2013-08-05T20:43:17.000Z</time>
      </trkpt>
      <trkpt lat="48.86012" lon="2.3464">
        <ele>99.5</ele>
        <time>2013-08-05T20:43:18.000Z</time>
      </trkpt>
      <trkpt lat="48.86005" lon="2.34647">
        <ele>97.2</ele>
        <time>2013-08-05T20:43:19.000Z</time>
      </trkpt>
      <trkpt lat="48.86001" lon="2.3465">
        <ele>96</ele>
        <time>2013-08-05T20:43:20.000Z</time>
      </trkpt>
      <trkpt lat="48.85997" lon="2.34653">
        <ele>96.2</ele>
        <time>2013-08-05T20:43:21.000Z</time>
      </trkpt>
      <trkpt lat="48.85993" lon="2.34658">
        <ele>95.8</ele>
        <time>2013-08-05T20:43:22.000Z</time>
      </trkpt>
      <trkpt lat="48.85991" lon="2.3466">
        <ele>94.4</ele>
        <time>2013-08-05T20:43:23.000Z</time>
      </trkpt>
      <trkpt lat="48.85988" lon="2.34662">
        <ele>93.9</ele>
        <time>2013-08-05T20:43:24.000Z</time>
      </trkpt>
      <trkpt lat="48.85986" lon="2.34667">
        <ele>94.4</ele>
        <time>2013-08-05T20:43:25.000Z</time>
      </trkpt>
      <trkpt lat="48.85983" lon="2.3467">
        <ele>93.8</ele>
        <time>2013-08-05T20:43:26.000Z</time>
      </trkpt>
      <trkpt lat="48.85981" lon="2.34674">
        <ele>92.5</ele>
        <time>2013-08-05T20:43:27.000Z</time>
      </trkpt>
      <trkpt lat="48.85979" lon="2.34678">
        <ele>91.9</ele>
        <time>2013-08-05T20:43:28.000Z</time>
      </trkpt>
      <trkpt lat="48.85976" lon="2.34682">
        <ele>90.3</ele>
        <time>2013-08-05T20:43:29.000Z</time>
      </trkpt>
      <trkpt lat="48.85974" lon="2.34685">
        <ele>87.8</ele>
        <time>2013-08-05T20:43:30.000Z</time>
      </trkpt>
      <trkpt lat="48.85971" lon="2.34689">
        <ele>87.1</ele>
        <time>2013-08-05T20:43:33.000Z</time>
      </trkpt>
      <trkpt lat="48.85972" lon="2.34692">
        <ele>87.2</ele>
        <time>2013-08-05T20:43:34.000Z</time>
      </trkpt>
      <trkpt lat="48.85974" lon="2.34697">
        <ele>90.4</ele>
        <time>2013-08-05T20:43:37.000Z</time>
      </trkpt>
      <trkpt lat="48.85974" lon="2.34698">
        <ele>91.6</ele>
        <time>2013-08-05T20:43:38.000Z</time>
      </trkpt>
      <trkpt lat="48.85975" lon="2.34705">
        <ele>94.9</ele>
        <time>2013-08-05T20:43:51.000Z</time>
      </trkpt>
      <trkpt lat="48.85975" lon="2.34705">
        <ele>95.8</ele>
        <time>2013-08-05T20:43:52.000Z</time>
      </trkpt>
      <trkpt lat="48.85974" lon="2.3471">
        <ele>93.2</ele>
        <time>2013-08-05T20:43:55.000Z</time>
      </trkpt>
      <trkpt lat="48.85974" lon="2.34712">
        <ele>92.9</ele>
        <time>2013-08-05T20:43:56.000Z</time>
      </trkpt>
      <trkpt lat="48.85973" lon="2.34718">
        <ele>91.5</ele>
        <time>2013-08-05T20:44:08.000Z</time>
      </trkpt>
      <trkpt lat="48.85973" lon="2.34718">
        <ele>91.5</ele>
        <time>2013-08-05T20:44:09.000Z</time>
      </trkpt>
      <trkpt lat="48.85973" lon="2.34718">
        <ele>91.5</ele>
        <time>2013-08-05T20:44:10.000Z</time>
      </trkpt>
    </trkseg>
  </trk>
</gpx>